
Distance (Route):
Temperature : 21.8°C
Humidity : 30.0%
Pressure : 983.2hPa| Receiver | Frames | First received | Last received |
|---|---|---|---|
| BIOWL1-15 | 611 | 2026-09-05 17:02:17 | 2026-09-05 18:58:15 |
| DM0DOS-11 | 537 | 2026-09-05 17:01:05 | 2026-09-05 18:58:41 |
| DK7TD | 412 | 2026-09-05 17:28:00 | 2026-09-05 19:01:43 |
| DL1XH-west | 271 | 2026-09-05 18:00:43 | 2026-09-05 18:48:26 |
| DO3MHA-11 | 231 | 2026-09-05 17:12:40 | 2026-09-05 19:03:34 |
| DL1XH1-15 | 179 | 2026-09-05 18:01:49 | 2026-09-05 18:47:53 |
| DG9SBQ-11 | 170 | 2026-09-05 17:05:12 | 2026-09-05 19:05:25 |
| DB0UT-7 | 126 | 2026-09-05 16:36:26 | 2026-09-05 19:06:12 |
| DB0UT-9 | 115 | 2026-09-05 16:36:08 | 2026-09-05 19:05:38 |
| HARRO8 | 92 | 2026-09-05 16:49:39 | 2026-09-05 19:05:15 |
| DJ2DS-15 | 92 | 2026-09-05 17:38:12 | 2026-09-05 18:50:54 |
| DK5PH-5 | 90 | 2026-09-05 16:55:10 | 2026-09-05 19:06:38 |
| DF7PN | 88 | 2026-09-05 16:51:55 | 2026-09-05 19:04:57 |
| DB0ND-19 | 85 | 2026-09-05 16:48:59 | 2026-09-05 19:07:05 |
| DL1ZP-14 | 85 | 2026-09-05 16:53:33 | 2026-09-05 19:05:02 |
| IW2NTF | 84 | 2026-09-05 18:09:19 | 2026-09-05 18:42:37 |
| DL1XH-15 | 84 | 2026-09-05 18:17:54 | 2026-09-05 18:46:58 |
| HSKMA3-T | 82 | 2026-09-05 18:20:27 | 2026-09-05 18:43:16 |
| DB0NH | 72 | 2026-09-05 17:27:32 | 2026-09-05 19:02:26 |
| CB1BUN | 69 | 2026-09-05 16:49:29 | 2026-09-05 19:03:21 |
| HEMX73-11 | 69 | 2026-09-05 16:50:21 | 2026-09-05 18:52:25 |
| DO3DL | 64 | 2026-09-05 17:29:27 | 2026-09-05 18:48:39 |
| DF3TZ-5 | 58 | 2026-09-05 17:19:16 | 2026-09-05 19:05:51 |
| BIOWL9-15 | 55 | 2026-09-05 17:02:34 | 2026-09-05 18:56:23 |
| DM7RM-13 | 55 | 2026-09-05 17:12:20 | 2026-09-05 19:05:07 |
| DL3AQ-11 | 52 | 2026-09-05 18:05:41 | 2026-09-05 18:47:30 |
| NBG1-10 | 51 | 2026-09-05 17:12:22 | 2026-09-05 18:46:37 |
| DD1CC8 | 50 | 2026-09-05 17:16:53 | 2026-09-05 18:49:01 |
| DF1GD-15 | 49 | 2026-09-05 16:58:12 | 2026-09-05 19:04:16 |
| DL0LBS | 45 | 2026-09-05 17:06:18 | 2026-09-05 19:03:22 |
| KANTATE | 43 | 2026-09-05 17:47:08 | 2026-09-05 19:05:33 |
| BIOWL7-15 | 41 | 2026-09-05 17:03:07 | 2026-09-05 18:48:52 |
| DL9PN | 30 | 2026-09-05 16:48:20 | 2026-09-05 17:15:47 |
| AU51GT2 | 29 | 2026-09-05 17:45:18 | 2026-09-05 18:48:55 |
| DO1YAY-16 | 28 | 2026-09-05 17:22:36 | 2026-09-05 18:43:53 |
| DM3KS-11 | 26 | 2026-09-05 16:55:58 | 2026-09-05 17:48:15 |
| SONDE2-11 | 25 | 2026-09-05 17:55:29 | 2026-09-05 18:45:41 |
| DO8TBO-1 | 25 | 2026-09-05 17:55:31 | 2026-09-05 18:52:03 |
| DJ2KF-10 | 24 | 2026-09-05 18:03:09 | 2026-09-05 18:46:38 |
| DL4BBY-15 | 22 | 2026-09-05 18:04:17 | 2026-09-05 18:43:22 |
| AZAK | 21 | 2026-09-05 17:42:33 | 2026-09-05 18:55:32 |
| DH7VM-15 | 20 | 2026-09-05 17:00:24 | 2026-09-05 19:02:46 |
| DL6DJ-15 | 19 | 2026-09-05 17:59:17 | 2026-09-05 18:45:53 |
| DJTTGO | 17 | 2026-09-05 17:46:27 | 2026-09-05 18:44:43 |
| DC4HF-4 | 15 | 2026-09-05 17:52:06 | 2026-09-05 18:43:10 |
| OE5DXL-15 | 15 | 2026-09-05 18:17:32 | 2026-09-05 18:47:48 |
| SONCRA | 13 | 2026-09-05 18:19:43 | 2026-09-05 18:45:36 |
| EDDB2-12 | 9 | 2026-09-05 18:27:57 | 2026-09-05 18:45:01 |
| OE5DRO-10 | 4 | 2026-09-05 18:18:49 | 2026-09-05 18:34:48 |
| SSTOLZ84 | 3 | 2026-09-05 17:16:42 | 2026-09-05 17:18:16 |
| LOEBOVI | 2 | 2026-09-05 18:31:56 | 2026-09-05 18:39:36 |
| PG1ADW-2 | 2 | 2026-09-05 18:40:40 | 2026-09-05 18:41:21 |
| Receiver | Date | Latitude | Longitude | Direction | Speed | Altitude | Climb | Temperature | Humidity | Pressure | Voltage | Killtimer | Uptime | BKT | XDATA |
|---|---|---|---|---|---|---|---|---|---|---|---|---|---|---|---|
| DB0ND-19 | 2026-09-05 19:07:05 | 49.05822 | 9.00624 | 121° | 27km/h | 392m | -13.8m/s | 21.8°C | 30.0% | 983.2hPa | 2.6V | 00:00:00 | 00:00:00 | 00:00:00 | |
| DK5PH-5 | 2026-09-05 19:06:38 | 49.05854 | 9.00536 | 118° | 38km/h | 488m | -14.1m/s | 21.4°C | 28.4% | 972.1hPa | 2.6V | 00:00:00 | 02:37:03 | 00:00:00 | |
| DB0ND-19 | 2026-09-05 19:06:34 | 49.05878 | 9.00473 | 120° | 38km/h | 556m | -12.8m/s | 20.9°C | 28.9% | 964.3hPa | 2.6V | 00:00:00 | 00:00:00 | 00:00:00 | |
| DK5PH-5 | 2026-09-05 19:06:33 | 49.05877 | 9.00473 | 121° | 38km/h | 556m | -12.8m/s | 20.8°C | 28.5% | 964.3hPa | 2.6V | 00:00:00 | 02:36:58 | 00:00:00 | |
| DK5PH-5 | 2026-09-05 19:06:28 | 49.05900 | 9.00410 | 122° | 38km/h | 621m | -14.0m/s | 20.2°C | 29.9% | 957.1hPa | 2.6V | 02:42:00 | 02:36:53 | 00:00:00 | |
| DK5PH-5 | 2026-09-05 19:06:23 | 49.05923 | 9.00346 | 122° | 37km/h | 688m | -13.4m/s | 19.6°C | 31.4% | 949.7hPa | 2.6V | 00:00:00 | 02:36:48 | 00:00:00 | |
| DK5PH-5 | 2026-09-05 19:06:18 | 49.05945 | 9.00285 | 123° | 37km/h | 751m | -12.5m/s | 19.0°C | 33.1% | 942.8hPa | 2.6V | 00:00:00 | 02:36:43 | 00:00:00 | |
| DK5PH-5 | 2026-09-05 19:06:13 | 49.05966 | 9.00225 | 121° | 35km/h | 814m | -13.2m/s | 18.4°C | 34.2% | 936.1hPa | 2.6V | 02:43:00 | 02:36:38 | 00:00:00 | |
| DB0UT-7 | 2026-09-05 19:06:12 | 49.05970 | 9.00213 | 120° | 33km/h | 827m | -13.8m/s | 0°C | 0% | 0hPa | 2.6V | 00:00:00 | 00:00:00 | 00:00:00 | |
| DK5PH-5 | 2026-09-05 19:06:08 | 49.05987 | 9.00169 | 122° | 33km/h | 880m | -13.4m/s | 17.8°C | 35.5% | 928.8hPa | 2.6V | 00:00:00 | 02:36:33 | 00:00:00 | |
| DB0UT-7 | 2026-09-05 19:06:07 | 49.05991 | 9.00159 | 120° | 33km/h | 893m | -12.2m/s | 0°C | 0% | 0hPa | 2.6V | 00:00:00 | 02:36:32 | 00:00:00 | |
| DK5PH-5 | 2026-09-05 19:06:03 | 49.06008 | 9.00115 | 123° | 31km/h | 946m | -14.0m/s | 17.2°C | 36.3% | 922.0hPa | 2.6V | 00:00:00 | 02:36:28 | 00:00:00 | |
| DB0ND-19 | 2026-09-05 19:06:03 | 49.06013 | 9.00105 | 122° | 29km/h | 959m | -13.7m/s | 17.1°C | 36.5% | 920.5hPa | 2.6V | 00:00:00 | 00:00:00 | 00:00:00 | |
| DF3TZ-5 | 2026-09-05 19:05:51 | 49.06061 | 8.99985 | 118° | 27km/h | 1121m | -13.8m/s | 15.6°C | 38.4% | 903.1hPa | 2.6V | 00:00:00 | 00:00:00 | 00:00:00 | |
| DK5PH-5 | 2026-09-05 19:05:48 | 49.06069 | 8.99964 | 117° | 31km/h | 1148m | -13.0m/s | 15.3°C | 38.1% | 900.3hPa | 2.6V | 00:00:00 | 02:36:13 | 00:00:00 | |
| DB0UT-7 | 2026-09-05 19:05:41 | 49.06093 | 8.99892 | 113° | 31km/h | 1240m | -14.3m/s | 14.4°C | 40.2% | 890.3hPa | 2.6V | 00:00:00 | 00:00:00 | 00:00:00 | |
| DB0UT-9 | 2026-09-05 19:05:38 | 49.06099 | 8.99871 | 117° | 29km/h | 1268m | -14.3m/s | 14.2°C | 40.5% | 887.6hPa | 2.6V | 02:44:00 | 00:00:00 | 00:00:00 | |
| DK5PH-5 | 2026-09-05 19:05:38 | 49.06103 | 8.99860 | 111° | 33km/h | 1281m | -13.5m/s | 14.0°C | 40.4% | 885.8hPa | 2.6V | 00:00:00 | 02:36:03 | 00:00:00 | |
| KANTATE | 2026-09-05 19:05:33 | 49.06115 | 8.99815 | 115° | 35km/h | 1337m | -14.3m/s | 13.5°C | 42.0% | 880.2hPa | 2.6V | 02:44:00 | 00:00:00 | 00:00:00 | |
| DB0ND-19 | 2026-09-05 19:05:32 | 49.06125 | 8.99779 | 113° | 37km/h | 1380m | -14.6m/s | 13.1°C | 43.0% | 875.6hPa | 2.6V | 00:00:00 | 00:00:00 | 00:00:00 | |
| DB0UT-7 | 2026-09-05 19:05:31 | 49.06125 | 8.99779 | 114° | 35km/h | 1380m | -14.5m/s | 13.1°C | 42.7% | 875.6hPa | 2.6V | 00:00:00 | 02:35:56 | 00:00:00 | |
| DK5PH-5 | 2026-09-05 19:05:28 | 49.06135 | 8.99742 | 110° | 35km/h | 1423m | -14.4m/s | 12.7°C | 42.7% | 871.0hPa | 2.6V | 02:43:00 | 02:35:53 | 00:00:00 | |
| DG9SBQ-11 | 2026-09-05 19:05:25 | 49.06141 | 8.99716 | 110° | 37km/h | 1451m | -14.6m/s | 12.4°C | 44.1% | 868.1hPa | 2.6V | 02:44:00 | 00:00:00 | 00:00:00 | |
| DB0UT-7 | 2026-09-05 19:05:21 | 49.06154 | 8.99651 | 106° | 35km/h | 1522m | -14.6m/s | 11.8°C | 43.7% | 860.7hPa | 2.6V | 02:43:00 | 00:00:00 | 00:00:00 | |
| DF3TZ-5 | 2026-09-05 19:05:20 | 49.06159 | 8.99624 | 104° | 35km/h | 1550m | -14.4m/s | 11.6°C | 43.8% | 857.9hPa | 2.6V | 00:00:00 | 00:00:00 | 00:00:00 | |
| DK5PH-5 | 2026-09-05 19:05:18 | 49.06160 | 8.99612 | 102° | 37km/h | 1564m | -14.5m/s | 11.4°C | 44.3% | 856.3hPa | 2.6V | 00:00:00 | 02:35:43 | 00:00:00 | |
| DB0UT-9 | 2026-09-05 19:05:17 | 49.06161 | 8.99611 | 103° | 35km/h | 1564m | -14.5m/s | 11.4°C | 44.5% | 856.4hPa | 2.6V | 02:44:00 | 00:00:00 | 00:00:00 | |
| DG9SBQ-11 | 2026-09-05 19:05:16 | 49.06162 | 8.99598 | 105° | 38km/h | 1578m | -14.0m/s | 11.3°C | 44.7% | 855.1hPa | 2.6V | 02:44:00 | 00:00:00 | 00:00:00 | |
| HARRO8 | 2026-09-05 19:05:15 | 49.06167 | 8.99572 | 102° | 37km/h | 1606m | -14.7m/s | 11.1°C | 45.5% | 852.2hPa | 2.6V | 00:00:00 | 00:00:00 | 00:00:00 | |
| KANTATE | 2026-09-05 19:05:12 | 49.06171 | 8.99545 | 105° | 38km/h | 1635m | -14.3m/s | 10.8°C | 46.2% | 849.4hPa | 2.6V | 02:44:00 | 00:00:00 | 00:00:00 | |
| DB0UT-7 | 2026-09-05 19:05:11 | 49.06174 | 8.99518 | 105° | 37km/h | 1663m | -14.2m/s | 10.5°C | 47.5% | 846.6hPa | 2.6V | 00:00:00 | 02:35:36 | 00:00:00 | |
| DK5PH-5 | 2026-09-05 19:05:08 | 49.06180 | 8.99478 | 101° | 35km/h | 1706m | -15.1m/s | 10.0°C | 50.1% | 842.0hPa | 2.6V | 00:00:00 | 02:35:33 | 00:00:00 | |
| DM7RM-13 | 2026-09-05 19:05:07 | 49.06179 | 8.99478 | 102° | 33km/h | 1706m | -15.2m/s | 10.1°C | 50.3% | 842.1hPa | 2.6V | 02:44:00 | 00:00:00 | 00:00:00 | |
| DG9SBQ-11 | 2026-09-05 19:05:03 | 49.06186 | 8.99424 | 99° | 35km/h | 1764m | -15.3m/s | 9.5°C | 53.1% | 836.5hPa | 2.6V | 02:45:00 | 00:00:00 | 00:00:00 | |
| DL1ZP-14 | 2026-09-05 19:05:02 | 49.06189 | 8.99397 | 97° | 33km/h | 1793m | -15.5m/s | 9.3°C | 53.1% | 833.5hPa | 2.6V | 00:00:00 | 00:00:00 | 00:00:00 | |
| DB0ND-19 | 2026-09-05 19:05:01 | 49.06191 | 8.99371 | 98° | 35km/h | 1822m | -14.3m/s | 9.1°C | 51.4% | 830.9hPa | 2.6V | 00:00:00 | 00:00:00 | 00:00:00 | |
| DF7PN | 2026-09-05 19:04:57 | 49.06197 | 8.99318 | 97° | 33km/h | 1880m | -14.5m/s | 8.7°C | 43.8% | 825.0hPa | 2.6V | 00:00:00 | 00:00:00 | 00:00:00 | |
| DF3TZ-5 | 2026-09-05 19:04:48 | 49.06214 | 8.99219 | 107° | 29km/h | 1993m | -14.7m/s | 7.8°C | 38.5% | 813.9hPa | 2.6V | 00:00:00 | 00:00:00 | 00:00:00 | |
| DK5PH-5 | 2026-09-05 19:04:48 | 49.06214 | 8.99219 | 108° | 35km/h | 1993m | -14.6m/s | 7.8°C | 38.5% | 813.8hPa | 2.6V | 00:00:00 | 02:35:13 | 00:00:00 | |
| DM7RM-13 | 2026-09-05 19:04:46 | 49.06216 | 8.99207 | 109° | 29km/h | 2008m | -15.1m/s | 7.7°C | 38.7% | 812.3hPa | 2.6V | 02:45:00 | 00:00:00 | 00:00:00 | |
| HARRO8 | 2026-09-05 19:04:44 | 49.06224 | 8.99174 | 111° | 29km/h | 2050m | -15.0m/s | 7.6°C | 31.8% | 808.1hPa | 2.6V | 00:00:00 | 00:00:00 | 00:00:00 | |
| DB0UT-7 | 2026-09-05 19:04:41 | 49.06232 | 8.99140 | 112° | 38km/h | 2094m | -14.8m/s | 7.4°C | 26.1% | 803.9hPa | 2.6V | 00:00:00 | 00:00:00 | 00:00:00 | |
| DG9SBQ-11 | 2026-09-05 19:04:40 | 49.06232 | 8.99140 | 113° | 33km/h | 2094m | -14.8m/s | 7.5°C | 26.1% | 803.9hPa | 2.6V | 02:45:00 | 00:00:00 | 00:00:00 | |
| DG9SBQ-11 | 2026-09-05 19:04:36 | 49.06247 | 8.99074 | 107° | 42km/h | 2167m | -14.7m/s | 7.5°C | 17.1% | 796.8hPa | 2.6V | 02:45:00 | 00:00:00 | 00:00:00 | |
| DB0UT-9 | 2026-09-05 19:04:35 | 49.06247 | 8.99074 | 107° | 42km/h | 2167m | -14.7m/s | 7.5°C | 17.1% | 796.8hPa | 2.6V | 02:45:00 | 00:00:00 | 00:00:00 | |
| DL1ZP-14 | 2026-09-05 19:04:31 | 49.06260 | 8.99003 | 104° | 33km/h | 2239m | -15.4m/s | 7.6°C | 10.8% | 789.9hPa | 2.6V | 00:00:00 | 00:00:00 | 00:00:00 | |
| DB0ND-19 | 2026-09-05 19:04:30 | 49.06265 | 8.98977 | 103° | 33km/h | 2268m | -14.9m/s | 7.5°C | 8.0% | 787.0hPa | 2.6V | 00:00:00 | 00:00:00 | 00:00:00 | |
| DK5PH-5 | 2026-09-05 19:04:28 | 49.06268 | 8.98963 | 106° | 40km/h | 2283m | -14.6m/s | 7.5°C | 7.0% | 785.5hPa | 2.6V | 00:00:00 | 02:34:53 | 00:00:00 | |
| DM7RM-13 | 2026-09-05 19:04:25 | 49.06273 | 8.98936 | 108° | 42km/h | 2312m | -14.6m/s | 7.8°C | 6.7% | 782.9hPa | 2.6V | 02:45:00 | 00:00:00 | 00:00:00 | |
| DG9SBQ-11 | 2026-09-05 19:04:24 | 49.06276 | 8.98922 | 110° | 38km/h | 2327m | -15.1m/s | 7.9°C | 6.7% | 781.5hPa | 2.6V | 02:45:00 | 00:00:00 | 00:00:00 | |
| DB0UT-7 | 2026-09-05 19:04:21 | 49.06288 | 8.98861 | 105° | 40km/h | 2385m | -15.1m/s | 7.6°C | 9.6% | 776.0hPa | 2.6V | 00:00:00 | 02:34:46 | 00:00:00 | |
| DG9SBQ-11 | 2026-09-05 19:04:19 | 49.06290 | 8.98846 | 104° | 42km/h | 2399m | -14.5m/s | 7.6°C | 13.2% | 774.6hPa | 2.6V | 02:45:00 | 00:00:00 | 00:00:00 | |
| DF3TZ-5 | 2026-09-05 19:04:17 | 49.06296 | 8.98801 | 99° | 38km/h | 2444m | -15.7m/s | 7.5°C | 15.5% | 770.5hPa | 2.6V | 00:00:00 | 00:00:00 | 00:00:00 | |
| DF1GD-15 | 2026-09-05 19:04:16 | 49.06296 | 8.98801 | 101° | 38km/h | 2444m | -15.7m/s | 7.5°C | 15.5% | 770.5hPa | 2.6V | 02:45:00 | 00:00:00 | 00:00:00 | |
| DB0UT-9 | 2026-09-05 19:04:15 | 49.06297 | 8.98786 | 100° | 40km/h | 2459m | -14.8m/s | 7.4°C | 15.6% | 769.2hPa | 2.6V | 02:45:00 | 00:00:00 | 00:00:00 | |
| HARRO8 | 2026-09-05 19:04:13 | 49.06302 | 8.98741 | 99° | 35km/h | 2504m | -15.7m/s | 7.4°C | 16.3% | 764.8hPa | 2.6V | 00:00:00 | 00:00:00 | 00:00:00 | |
| KANTATE | 2026-09-05 19:04:09 | 49.06307 | 8.98697 | 105° | 40km/h | 2551m | -16.0m/s | 7.0°C | 21.7% | 760.7hPa | 2.6V | 02:45:00 | 00:00:00 | 00:00:00 | |
| DK5PH-5 | 2026-09-05 19:04:08 | 49.06312 | 8.98667 | 105° | 42km/h | 2581m | -15.9m/s | 6.7°C | 25.4% | 757.8hPa | 2.6V | 02:45:00 | 02:34:33 | 00:00:00 | |
| DG9SBQ-11 | 2026-09-05 19:04:07 | 49.06311 | 8.98667 | 106° | 40km/h | 2581m | -16.0m/s | 6.8°C | 25.4% | 757.8hPa | 2.6V | 00:00:00 | 00:00:00 | 00:00:00 | |
| DM7RM-13 | 2026-09-05 19:04:05 | 49.06316 | 8.98638 | 108° | 38km/h | 2612m | -15.7m/s | 6.6°C | 25.9% | 755.0hPa | 2.6V | 02:45:00 | 00:00:00 | 00:00:00 | |
| DG9SBQ-11 | 2026-09-05 19:04:02 | 49.06324 | 8.98596 | 105° | 38km/h | 2659m | -15.5m/s | 6.5°C | 21.9% | 750.9hPa | 2.6V | 00:00:00 | 00:00:00 | 00:00:00 | |
| DL1ZP-14 | 2026-09-05 19:04:00 | 49.06332 | 8.98550 | 103° | 40km/h | 2705m | -15.7m/s | 6.7°C | 19.9% | 746.5hPa | 2.6V | 00:00:00 | 00:00:00 | 00:00:00 | |
| DB0ND-19 | 2026-09-05 19:03:58 | 49.06338 | 8.98518 | 104° | 40km/h | 2736m | -14.9m/s | 6.7°C | 19.2% | 743.8hPa | 2.6V | 00:00:00 | 00:00:00 | 00:00:00 | |
| DF7PN | 2026-09-05 19:03:54 | 49.06351 | 8.98454 | 109° | 42km/h | 2795m | -15.5m/s | 6.5°C | 19.7% | 738.4hPa | 2.6V | 00:00:00 | 00:00:00 | 00:00:00 | |
| DF3TZ-5 | 2026-09-05 19:03:46 | 49.06378 | 8.98325 | 107° | 40km/h | 2916m | -15.6m/s | 5.8°C | 19.5% | 727.4hPa | 2.6V | 00:00:00 | 00:00:00 | 00:00:00 | |
| DG9SBQ-11 | 2026-09-05 19:03:45 | 49.06379 | 8.98325 | 109° | 42km/h | 2916m | -15.6m/s | 5.8°C | 19.5% | 727.4hPa | 2.6V | 00:00:00 | 00:00:00 | 00:00:00 | |
| DM7RM-13 | 2026-09-05 19:03:44 | 49.06381 | 8.98309 | 106° | 46km/h | 2931m | -15.4m/s | 5.7°C | 20.4% | 726.2hPa | 2.6V | 02:45:00 | 00:00:00 | 00:00:00 | |
| HARRO8 | 2026-09-05 19:03:42 | 49.06391 | 8.98261 | 110° | 44km/h | 2976m | -16.1m/s | 5.4°C | 20.0% | 722.0hPa | 2.6V | 00:00:00 | 00:00:00 | 00:00:00 | |
| DB0UT-7 | 2026-09-05 19:03:41 | 49.06395 | 8.98246 | 110° | 46km/h | 2992m | -14.3m/s | 5.2°C | 20.2% | 720.9hPa | 2.6V | 00:00:00 | 02:34:06 | 00:00:00 | |
| DG9SBQ-11 | 2026-09-05 19:03:39 | 49.06399 | 8.98230 | 115° | 46km/h | 3006m | -15.5m/s | 5.2°C | 20.4% | 719.4hPa | 2.6V | 00:00:00 | 00:00:00 | 00:00:00 | |
| DF1GD-15 | 2026-09-05 19:03:35 | 49.06416 | 8.98168 | 119° | 46km/h | 3067m | -15.5m/s | 4.8°C | 21.4% | 713.9hPa | 2.6V | 02:45:00 | 00:00:00 | 00:00:00 | |
| DO3MHA-11 | 2026-09-05 19:03:34 | 49.06426 | 8.98137 | 114° | 44km/h | 3098m | -15.3m/s | 4.5°C | 21.6% | 711.3hPa | 2.6V | 02:45:00 | 02:33:59 | 00:00:00 | |
| DO3MHA-11 | 2026-09-05 19:03:29 | 49.06453 | 8.98060 | 118° | 46km/h | 3172m | -15.6m/s | 4.1°C | 19.8% | 704.7hPa | 2.5V | 00:00:00 | 02:33:54 | 00:00:00 | |
| DK5PH-5 | 2026-09-05 19:03:28 | 49.06458 | 8.98045 | 119° | 47km/h | 3188m | -15.5m/s | 4.0°C | 19.8% | 703.3hPa | 2.5V | 00:00:00 | 02:33:53 | 00:00:00 | |
| KANTATE | 2026-09-05 19:03:27 | 49.06458 | 8.98044 | 119° | 44km/h | 3188m | -15.5m/s | 4.0°C | 19.7% | 703.3hPa | 2.5V | 02:45:00 | 00:00:00 | 00:00:00 | |
| DO3MHA-11 | 2026-09-05 19:03:24 | 49.06476 | 8.97982 | 113° | 46km/h | 3248m | -14.6m/s | 3.5°C | 19.4% | 698.1hPa | 2.5V | 00:00:00 | 02:33:49 | 00:00:00 | |
| DF7PN | 2026-09-05 19:03:23 | 49.06481 | 8.97966 | 112° | 46km/h | 3262m | -15.3m/s | 3.5°C | 18.8% | 697.0hPa | 2.5V | 00:00:00 | 00:00:00 | 00:00:00 | |
| DL0LBS | 2026-09-05 19:03:22 | 49.06481 | 8.97966 | 114° | 46km/h | 3263m | -15.3m/s | 3.5°C | 18.8% | 697.1hPa | 2.5V | 02:46:00 | 00:00:00 | 00:00:00 | |
| CB1BUN | 2026-09-05 19:03:21 | 49.06486 | 8.97950 | 118° | 46km/h | 3278m | -15.2m/s | 3.4°C | 18.5% | 695.7hPa | 2.5V | 02:46:00 | 00:00:00 | 00:00:00 | |
| DO3MHA-11 | 2026-09-05 19:03:19 | 49.06500 | 8.97902 | 117° | 47km/h | 3323m | -16.1m/s | 3.2°C | 18.1% | 691.8hPa | 2.5V | 02:45:00 | 02:33:44 | 00:00:00 | |
| DB0UT-7 | 2026-09-05 19:03:17 | 49.06510 | 8.97870 | 114° | 49km/h | 3353m | -14.7m/s | 3.0°C | 18.7% | 689.3hPa | 2.6V | 00:00:00 | 00:00:00 | 00:00:00 | |
| DF3TZ-5 | 2026-09-05 19:03:15 | 49.06520 | 8.97837 | 116° | 46km/h | 3382m | -15.4m/s | 2.8°C | 19.1% | 686.9hPa | 2.6V | 00:00:00 | 00:00:00 | 00:00:00 | |
| DO3MHA-11 | 2026-09-05 19:03:14 | 49.06525 | 8.97821 | 116° | 46km/h | 3397m | -14.4m/s | 2.7°C | 17.7% | 685.6hPa | 2.6V | 00:00:00 | 02:33:39 | 00:00:00 | |
| DB0UT-9 | 2026-09-05 19:03:13 | 49.06525 | 8.97821 | 116° | 46km/h | 3397m | -14.5m/s | 2.8°C | 17.6% | 685.7hPa | 2.6V | 02:46:00 | 00:00:00 | 00:00:00 | |
| HARRO8 | 2026-09-05 19:03:11 | 49.06547 | 8.97756 | 114° | 44km/h | 3455m | -14.2m/s | 2.3°C | 17.9% | 680.6hPa | 2.6V | 00:00:00 | 00:00:00 | 00:00:00 | |
| DO3MHA-11 | 2026-09-05 19:03:09 | 49.06551 | 8.97740 | 115° | 47km/h | 3469m | -14.1m/s | 2.2°C | 17.9% | 679.4hPa | 2.6V | 00:00:00 | 02:33:34 | 00:00:00 | |
| KANTATE | 2026-09-05 19:03:07 | 49.06557 | 8.97723 | 118° | 49km/h | 3483m | -14.7m/s | 2.1°C | 17.7% | 678.3hPa | 2.6V | 00:00:00 | 00:00:00 | 00:00:00 | |
| DO3MHA-11 | 2026-09-05 19:03:04 | 49.06579 | 8.97658 | 120° | 47km/h | 3540m | -14.5m/s | 1.5°C | 18.4% | 673.3hPa | 2.6V | 02:46:00 | 02:33:29 | 00:00:00 | |
| DM7RM-13 | 2026-09-05 19:03:02 | 49.06585 | 8.97642 | 122° | 49km/h | 3554m | -14.8m/s | 1.4°C | 18.4% | 672.1hPa | 2.5V | 02:46:00 | 00:00:00 | 00:00:00 | |
| DL1ZP-14 | 2026-09-05 19:02:58 | 49.06616 | 8.97562 | 121° | 47km/h | 3626m | -14.8m/s | 0.9°C | 18.8% | 666.1hPa | 2.5V | 00:00:00 | 00:00:00 | 00:00:00 | |
| DB0ND-19 | 2026-09-05 19:02:56 | 49.06628 | 8.97530 | 119° | 49km/h | 3654m | -13.6m/s | 0.7°C | 19.1% | 663.8hPa | 2.6V | 00:00:00 | 00:00:00 | 00:00:00 | |
| DF7PN | 2026-09-05 19:02:52 | 49.06656 | 8.97462 | 122° | 51km/h | 3712m | -14.2m/s | 0.2°C | 19.1% | 659.1hPa | 2.6V | 00:00:00 | 00:00:00 | 00:00:00 | |
| DG9SBQ-11 | 2026-09-05 19:02:50 | 49.06663 | 8.97445 | 122° | 53km/h | 3726m | -14.0m/s | 0.1°C | 19.1% | 657.8hPa | 2.6V | 02:46:00 | 00:00:00 | 00:00:00 | |
| DO3MHA-11 | 2026-09-05 19:02:49 | 49.06678 | 8.97410 | 126° | 55km/h | 3754m | -14.7m/s | -0.0°C | 19.1% | 655.5hPa | 2.6V | 02:46:00 | 02:33:14 | 00:00:00 | |
| DB0UT-7 | 2026-09-05 19:02:47 | 49.06693 | 8.97375 | 124° | 57km/h | 3783m | -15.1m/s | -0.2°C | 18.1% | 653.1hPa | 2.5V | 02:46:00 | 02:33:12 | 00:00:00 | |
| DH7VM-15 | 2026-09-05 19:02:46 | 49.06701 | 8.97358 | 123° | 57km/h | 3798m | -14.5m/s | -0.3°C | 16.9% | 651.9hPa | 2.6V | 00:00:00 | 00:00:00 | 00:00:00 | |
| DG9SBQ-11 | 2026-09-05 19:02:45 | 49.06701 | 8.97358 | 123° | 57km/h | 3798m | -14.5m/s | -0.3°C | 16.9% | 651.9hPa | 2.6V | 02:46:00 | 00:00:00 | 00:00:00 | |
| DO3MHA-11 | 2026-09-05 19:02:44 | 49.06716 | 8.97321 | 126° | 58km/h | 3827m | -14.9m/s | -0.4°C | 15.6% | 649.9hPa | 2.6V | 00:00:00 | 02:33:09 | 00:00:00 | |
| DM7RM-13 | 2026-09-05 19:02:42 | 49.06724 | 8.97302 | 124° | 55km/h | 3841m | -14.9m/s | -0.4°C | 15.1% | 648.5hPa | 2.6V | 02:46:00 | 00:00:00 | 00:00:00 | |
| HARRO8 | 2026-09-05 19:02:40 | 49.06754 | 8.97226 | 121° | 57km/h | 3896m | -15.0m/s | -0.5°C | 15.0% | 644.0hPa | 2.6V | 00:00:00 | 00:00:00 | 00:00:00 | |
| DO3MHA-11 | 2026-09-05 19:02:39 | 49.06753 | 8.97226 | 122° | 57km/h | 3896m | -15.0m/s | -0.5°C | 15.2% | 644.0hPa | 2.6V | 00:00:00 | 02:33:04 | 00:00:00 | |
| DG9SBQ-11 | 2026-09-05 19:02:36 | 49.06767 | 8.97189 | 120° | 53km/h | 3926m | -15.1m/s | -0.7°C | 15.8% | 641.7hPa | 2.6V | 02:46:00 | 00:00:00 | 00:00:00 | |
| DO3MHA-11 | 2026-09-05 19:02:34 | 49.06788 | 8.97133 | 121° | 57km/h | 3968m | -14.8m/s | -1.0°C | 16.6% | 638.1hPa | 2.6V | 02:46:00 | 02:32:59 | 00:00:00 | |
| DF1GD-15 | 2026-09-05 19:02:33 | 49.06787 | 8.97133 | 121° | 57km/h | 3968m | -14.8m/s | -1.1°C | 16.4% | 638.2hPa | 2.5V | 02:47:00 | 00:00:00 | 00:00:00 | |
| DB0UT-9 | 2026-09-05 19:02:32 | 49.06794 | 8.97114 | 119° | 55km/h | 3983m | -15.0m/s | -1.2°C | 16.6% | 636.9hPa | 2.5V | 02:47:00 | 00:00:00 | 00:00:00 | |
| DG9SBQ-11 | 2026-09-05 19:02:30 | 49.06806 | 8.97077 | 117° | 57km/h | 4011m | -14.8m/s | -1.5°C | 16.8% | 634.6hPa | 2.5V | 02:47:00 | 00:00:00 | 00:00:00 | |
| DO3MHA-11 | 2026-09-05 19:02:29 | 49.06819 | 8.97039 | 118° | 55km/h | 4040m | -15.2m/s | -1.6°C | 15.7% | 632.2hPa | 2.5V | 00:00:00 | 02:32:54 | 00:00:00 | |
| DK5PH-5 | 2026-09-05 19:02:28 | 49.06825 | 8.97020 | 117° | 57km/h | 4055m | -15.0m/s | -1.6°C | 13.8% | 631.1hPa | 2.5V | 00:00:00 | 02:32:53 | 00:00:00 | |
| DL1ZP-14 | 2026-09-05 19:02:27 | 49.06831 | 8.97001 | 114° | 55km/h | 4069m | -14.7m/s | -1.7°C | 13.2% | 630.0hPa | 2.5V | 00:00:00 | 00:00:00 | 00:00:00 | |
| DB0NH | 2026-09-05 19:02:26 | 49.06836 | 8.96981 | 116° | 58km/h | 4084m | -14.3m/s | -1.7°C | 13.4% | 628.8hPa | 2.5V | 02:46:00 | 02:32:51 | 00:00:00 | |
| KANTATE | 2026-09-05 19:02:25 | 49.06836 | 8.96981 | 117° | 57km/h | 4084m | -14.3m/s | -1.7°C | 13.2% | 628.9hPa | 2.5V | 02:47:00 | 00:00:00 | 00:00:00 | |
| DO3MHA-11 | 2026-09-05 19:02:24 | 49.06849 | 8.96942 | 119° | 57km/h | 4112m | -15.4m/s | -1.8°C | 12.5% | 626.6hPa | 2.5V | 00:00:00 | 02:32:49 | 00:00:00 | |
| DM7RM-13 | 2026-09-05 19:02:22 | 49.06855 | 8.96923 | 116° | 53km/h | 4127m | -14.7m/s | -1.9°C | 11.3% | 625.5hPa | 2.5V | 02:47:00 | 00:00:00 | 00:00:00 | |
| DF7PN | 2026-09-05 19:02:21 | 49.06867 | 8.96884 | 115° | 58km/h | 4156m | -15.1m/s | -1.8°C | 9.8% | 623.2hPa | 2.5V | 00:00:00 | 00:00:00 | 00:00:00 | |
| DL0LBS | 2026-09-05 19:02:20 | 49.06866 | 8.96884 | 117° | 58km/h | 4156m | -15.1m/s | -1.8°C | 9.8% | 623.2hPa | 2.5V | 02:47:00 | 00:00:00 | 00:00:00 | |
| DO3MHA-11 | 2026-09-05 19:02:19 | 49.06879 | 8.96844 | 118° | 57km/h | 4186m | -15.3m/s | -1.8°C | 8.8% | 620.9hPa | 2.5V | 02:46:00 | 02:32:44 | 00:00:00 | |
| DB0UT-7 | 2026-09-05 19:02:17 | 49.06892 | 8.96805 | 118° | 57km/h | 4215m | -14.2m/s | -1.9°C | 8.3% | 618.6hPa | 2.5V | 00:00:00 | 00:00:00 | 00:00:00 | |
| DO3MHA-11 | 2026-09-05 19:02:14 | 49.06912 | 8.96748 | 121° | 55km/h | 4259m | -15.3m/s | -2.0°C | 8.2% | 615.4hPa | 2.5V | 00:00:00 | 02:32:39 | 00:00:00 | |
| DF3TZ-5 | 2026-09-05 19:02:13 | 49.06919 | 8.96730 | 119° | 53km/h | 4274m | -15.6m/s | -2.1°C | 8.1% | 614.2hPa | 2.5V | 00:00:00 | 00:00:00 | 00:00:00 | |
| DB0UT-9 | 2026-09-05 19:02:11 | 49.06926 | 8.96712 | 120° | 57km/h | 4289m | -14.7m/s | -2.2°C | 8.4% | 613.1hPa | 2.5V | 02:47:00 | 00:00:00 | 00:00:00 | |
| DO3MHA-11 | 2026-09-05 19:02:09 | 49.06948 | 8.96656 | 120° | 57km/h | 4333m | -14.3m/s | -2.4°C | 9.6% | 609.7hPa | 2.5V | 00:00:00 | 02:32:34 | 00:00:00 | |
| CB1BUN | 2026-09-05 19:02:08 | 49.06948 | 8.96656 | 121° | 55km/h | 4333m | -14.3m/s | -2.4°C | 9.4% | 609.7hPa | 2.5V | 02:47:00 | 00:00:00 | 00:00:00 | |
| DO3MHA-11 | 2026-09-05 19:02:04 | 49.06982 | 8.96560 | 116° | 57km/h | 4405m | -14.4m/s | -2.7°C | 6.9% | 604.2hPa | 2.5V | 02:47:00 | 02:32:29 | 00:00:00 | |
| DG9SBQ-11 | 2026-09-05 19:02:02 | 49.06988 | 8.96541 | 115° | 57km/h | 4419m | -13.7m/s | -2.8°C | 7.8% | 603.2hPa | 2.6V | 02:47:00 | 00:00:00 | 00:00:00 | |
| DL1ZP-14 | 2026-09-05 19:01:56 | 49.07032 | 8.96404 | 115° | 55km/h | 4517m | -14.5m/s | -3.1°C | 8.8% | 595.6hPa | 2.6V | 00:00:00 | 00:00:00 | 00:00:00 | |
| DB0ND-19 | 2026-09-05 19:01:54 | 49.07045 | 8.96364 | 118° | 58km/h | 4545m | -14.8m/s | -3.4°C | 9.5% | 593.4hPa | 2.6V | 00:00:00 | 00:00:00 | 00:00:00 | |
| DF7PN | 2026-09-05 19:01:50 | 49.07072 | 8.96285 | 116° | 58km/h | 4602m | -14.6m/s | -3.6°C | 10.1% | 589.2hPa | 2.6V | 00:00:00 | 00:00:00 | 00:00:00 | |
| DK7TD | 2026-09-05 19:01:43 | 49.07125 | 8.96139 | 122° | 64km/h | 4704m | -15m/s | -3.7°C | 8.6% | 581.5hPa | 2.6V | 02:48:24 | 02:32:08 | 00:00:00 | |
| DF3TZ-5 | 2026-09-05 19:01:42 | 49.07133 | 8.96118 | 120° | 62km/h | 4719m | -15.4m/s | -3.7°C | 7.5% | 580.4hPa | 2.5V | 00:00:00 | 00:00:00 | 00:00:00 | |
| DK7TD | 2026-09-05 19:01:24 | 49.07280 | 8.95731 | 118° | 68km/h | 4989m | -15.4m/s | -4.6°C | 2.5% | 561hPa | 2.5V | 02:48:24 | 02:31:49 | 00:00:00 | |
| DK7TD | 2026-09-05 19:01:13 | 49.07360 | 8.95473 | 113° | 68km/h | 5155m | -15.1m/s | -5.6°C | 3.1% | 549.3hPa | 2.5V | 02:48:24 | 02:31:38 | 00:00:00 | |
| DK7TD | 2026-09-05 19:01:02 | 49.07432 | 8.95209 | 111° | 68km/h | 5323m | -15.5m/s | -6.6°C | 3.1% | 537.7hPa | 2.6V | 02:48:24 | 02:31:27 | 00:00:00 | |
| DK7TD | 2026-09-05 19:00:51 | 49.07499 | 8.94946 | 115° | 68km/h | 5493m | -16.5m/s | -7.8°C | 4.2% | 526hPa | 2.6V | 02:49:15 | 02:31:16 | 00:00:00 | |
| DF7PN | 2026-09-05 19:00:48 | 49.07520 | 8.94874 | 115° | 69km/h | 5538m | -15.2m/s | -8.1°C | 5.4% | 523.0hPa | 2.5V | 00:00:00 | 00:00:00 | 00:00:00 | |
| DK7TD | 2026-09-05 19:00:40 | 49.07579 | 8.94684 | 118° | 66km/h | 5661m | -16.4m/s | -8.9°C | 5.4% | 514.8hPa | 2.5V | 02:49:15 | 02:31:05 | 00:00:00 | |
| DK7TD | 2026-09-05 19:00:30 | 49.07653 | 8.94447 | 118° | 69km/h | 5813m | -15.5m/s | -10°C | 5.6% | 504.9hPa | 2.6V | 02:49:15 | 02:30:55 | 00:00:00 | |
| DK7TD | 2026-09-05 19:00:20 | 49.07730 | 8.94217 | 118° | 68km/h | 5965m | -15.6m/s | -11.1°C | 6.5% | 495hPa | 2.5V | 02:49:15 | 02:30:45 | 00:00:00 | |
| DK7TD | 2026-09-05 19:00:09 | 49.07813 | 8.93963 | 118° | 66km/h | 6133m | -16m/s | -12.3°C | 6% | 484.3hPa | 2.6V | 02:49:15 | 02:30:34 | 00:00:00 | |
| DK7TD | 2026-09-05 18:59:58 | 49.07897 | 8.93711 | 121° | 68km/h | 6297m | -16m/s | -13.4°C | 5.5% | 474hPa | 2.5V | 02:50:06 | 02:30:23 | 00:00:00 | |
| DK7TD | 2026-09-05 18:59:48 | 49.07985 | 8.93471 | 118° | 78km/h | 6448m | -14.8m/s | -13.8°C | 41.1% | 464.6hPa | 2.6V | 02:50:06 | 02:30:13 | 00:00:00 | |
| DF7PN | 2026-09-05 18:59:46 | 49.08005 | 8.93416 | 119° | 84km/h | 6476m | -15.2m/s | -13.8°C | 45.1% | 462.7hPa | 2.5V | 00:00:00 | 00:00:00 | 00:00:00 | |
| DK7TD | 2026-09-05 18:59:37 | 49.08111 | 8.93158 | 123° | 91km/h | 6612m | -14.8m/s | -13.5°C | 49% | 454.6hPa | 2.5V | 02:50:06 | 02:30:02 | 00:00:00 | |
| DK7TD | 2026-09-05 18:59:26 | 49.08254 | 8.92827 | 124° | 93km/h | 6775m | -14.2m/s | -13.7°C | 41.4% | 444.8hPa | 2.5V | 02:50:06 | 02:29:51 | 00:00:00 | |
| DK7TD | 2026-09-05 18:59:16 | 49.08395 | 8.92536 | 129° | 93km/h | 6918m | -14.9m/s | -14.6°C | 40% | 436.4hPa | 2.5V | 02:50:06 | 02:29:41 | 00:00:00 | |
| DK7TD | 2026-09-05 18:59:05 | 49.08561 | 8.92212 | 128° | 99km/h | 7078m | -16.1m/s | -15.8°C | 42.3% | 427.4hPa | 2.6V | 02:50:57 | 02:29:30 | 00:00:00 | |
| DK7TD | 2026-09-05 18:58:54 | 49.08731 | 8.91876 | 129° | 99km/h | 7245m | -15.6m/s | -17°C | 41.6% | 418.2hPa | 2.6V | 02:50:57 | 02:29:19 | 00:00:00 | |
| DL1ZP-14 | 2026-09-05 18:58:50 | 49.08812 | 8.91725 | 130° | 100km/h | 7320m | -16.3m/s | -17.6°C | 34.3% | 414.1hPa | 2.6V | 00:00:00 | 00:00:00 | 00:00:00 | |
| DB0ND-19 | 2026-09-05 18:58:48 | 49.08828 | 8.91696 | 131° | 99km/h | 7335m | -15.6m/s | -17.7°C | 34.4% | 413.2hPa | 2.5V | 00:00:00 | 00:00:00 | 00:00:00 | |
| DK7TD | 2026-09-05 18:58:44 | 49.08897 | 8.91579 | 132° | 100km/h | 7396m | -15.1m/s | -18.2°C | 40.1% | 410hPa | 2.5V | 02:50:57 | 02:29:09 | 00:00:00 | |
| DO3MHA-11 | 2026-09-05 18:58:44 | 49.08897 | 8.91579 | 133° | 104km/h | 7396m | -15.0m/s | -18.1°C | 36.0% | 409.9hPa | 2.5V | 00:00:00 | 02:29:09 | 00:00:00 | |
| DB0UT-9 | 2026-09-05 18:58:43 | 49.08897 | 8.91579 | 133° | 100km/h | 7396m | -15.1m/s | -18.2°C | 34.3% | 410.0hPa | 2.5V | 02:50:00 | 00:00:00 | 00:00:00 | |
| CB1BUN | 2026-09-05 18:58:42 | 49.08914 | 8.91550 | 135° | 102km/h | 7412m | -16.5m/s | -18.3°C | 34.7% | 409.2hPa | 2.5V | 02:50:00 | 00:00:00 | 00:00:00 | |
| DM0DOS-11 | 2026-09-05 18:58:41 | 49.09041 | 8.91346 | 132° | 104km/h | 7521m | -15.3m/s | -18.8°C | 32.7% | 403.2hPa | 2.5V | 02:50:41 | 02:29:01 | 00:00:00 | |
| DK7TD | 2026-09-05 18:58:33 | 49.09095 | 8.91258 | 133° | 104km/h | 7568m | -16.4m/s | -19.1°C | 35.8% | 400.8hPa | 2.6V | 02:50:57 | 02:28:58 | 00:00:00 | |
| DG9SBQ-11 | 2026-09-05 18:58:32 | 49.09095 | 8.91258 | 134° | 104km/h | 7568m | -16.4m/s | -19.1°C | 29.6% | 400.8hPa | 2.6V | 02:50:00 | 00:00:00 | 00:00:00 | |
| HARRO8 | 2026-09-05 18:58:31 | 49.09131 | 8.91198 | 132° | 104km/h | 7600m | -15.6m/s | -19.3°C | 29.9% | 399.1hPa | 2.6V | 00:00:00 | 00:00:00 | 00:00:00 | |
| KANTATE | 2026-09-05 18:58:30 | 49.09131 | 8.91198 | 133° | 106km/h | 7600m | -15.6m/s | -19.3°C | 29.9% | 399.1hPa | 2.6V | 02:50:00 | 00:00:00 | 00:00:00 | |
| DM0DOS-11 | 2026-09-05 18:58:28 | 49.09273 | 8.90958 | 131° | 108km/h | 7723m | -15.4m/s | -20.2°C | 29% | 392.5hPa | 2.6V | 02:50:54 | 02:28:48 | 00:00:00 | |
| DK7TD | 2026-09-05 18:58:22 | 49.09290 | 8.90928 | 130° | 106km/h | 7738m | -15.1m/s | -20.3°C | 33.7% | 391.7hPa | 2.6V | 02:50:57 | 02:28:47 | 00:00:00 | |
| DG9SBQ-11 | 2026-09-05 18:58:21 | 49.09290 | 8.90928 | 131° | 106km/h | 7738m | -15.1m/s | -20.3°C | 27.6% | 391.7hPa | 2.5V | 02:50:00 | 00:00:00 | 00:00:00 | |
| DM0DOS-11 | 2026-09-05 18:58:18 | 49.09444 | 8.90644 | 130° | 110km/h | 7877m | -16m/s | -21.5°C | 29.2% | 384.3hPa | 2.5V | 02:51:04 | 02:28:38 | 00:00:00 | |
| BIOWL1-15 | 2026-09-05 18:58:15 | 49.09410 | 8.90708 | 130° | 110km/h | 7846m | -15.9m/s | -21.2°C | 33.8% | 385.9hPa | 2.5V | 02:51:48 | 02:28:40 | 00:00:00 | |
| DK7TD | 2026-09-05 18:58:11 | 49.09480 | 8.90580 | 131° | 110km/h | 7909m | -15.6m/s | -21.8°C | 33.6% | 382.6hPa | 2.6V | 02:53:30 | 02:28:36 | 00:00:00 | |
| BIOWL1-15 | 2026-09-05 18:58:04 | 49.09604 | 8.90355 | 130° | 110km/h | 8017m | -16.4m/s | -22.6°C | 32.7% | 377.1hPa | 2.5V | 02:51:48 | 02:28:29 | 00:00:00 | |
| BIOWL1-15 | 2026-09-05 18:57:54 | 49.09775 | 8.90030 | 128° | 106km/h | 8182m | -16.4m/s | -24.1°C | 35.9% | 368.7hPa | 2.5V | 02:51:48 | 02:28:19 | 00:00:00 | |
| DK7TD | 2026-09-05 18:57:47 | 49.09889 | 8.89802 | 125° | 106km/h | 8298m | -16.7m/s | -25.1°C | 38% | 363hPa | 2.6V | 02:53:30 | 02:28:12 | 00:00:00 | |
| BIOWL1-15 | 2026-09-05 18:57:47 | 49.09984 | 8.89598 | 126° | 111km/h | 8396m | -15.6m/s | -25.8°C | 36.9% | 358.1hPa | 2.6V | 02:51:48 | 02:28:06 | 00:00:00 | |
| DB0ND-19 | 2026-09-05 18:57:46 | 49.09904 | 8.89768 | 124° | 108km/h | 8315m | -16.5m/s | -25.2°C | 30.8% | 362.2hPa | 2.6V | 00:00:00 | 00:00:00 | 00:00:00 | |
| DK7TD | 2026-09-05 18:57:34 | 49.10094 | 8.89357 | 124° | 108km/h | 8511m | -16.1m/s | -26.9°C | 41.1% | 352.6hPa | 2.6V | 02:53:30 | 02:27:59 | 00:00:00 | |
| BIOWL1-15 | 2026-09-05 18:57:31 | 49.10140 | 8.89256 | 124° | 106km/h | 8560m | -16.9m/s | -27.3°C | 43.1% | 350.1hPa | 2.5V | 02:51:48 | 02:27:56 | 00:00:00 | |
| DM0DOS-11 | 2026-09-05 18:57:29 | 49.10243 | 8.89014 | 122° | 110km/h | 8675m | -17m/s | -28.4°C | 42.8% | 344.7hPa | 2.6V | 02:51:53 | 02:27:49 | 00:00:00 | |
| DK7TD | 2026-09-05 18:57:23 | 49.10273 | 8.88943 | 122° | 110km/h | 8708m | -17m/s | -28.8°C | 50.4% | 343.1hPa | 2.5V | 02:53:30 | 02:27:47 | 00:00:00 | |
| BIOWL1-15 | 2026-09-05 18:57:21 | 49.10287 | 8.88908 | 121° | 108km/h | 8724m | -16.6m/s | -28.9°C | 50.8% | 342.3hPa | 2.5V | 02:54:21 | 02:27:46 | 00:00:00 | |
| CB1BUN | 2026-09-05 18:57:20 | 49.10287 | 8.88908 | 122° | 108km/h | 8725m | -16.6m/s | -28.9°C | 41.7% | 342.3hPa | 2.5V | 02:52:00 | 00:00:00 | 00:00:00 | |
| DM0DOS-11 | 2026-09-05 18:57:19 | 49.10389 | 8.88654 | 122° | 113km/h | 8836m | -16.4m/s | -29.9°C | 44.8% | 336.8hPa | 2.5V | 02:52:03 | 02:27:39 | 00:00:00 | |
| DK7TD | 2026-09-05 18:57:12 | 49.10420 | 8.88581 | 122° | 111km/h | 8869m | -16.4m/s | -30.2°C | 50.7% | 335.3hPa | 2.6V | 02:53:30 | 02:27:37 | 00:00:00 | |
| DF7PN | 2026-09-05 18:57:11 | 49.10435 | 8.88544 | 121° | 110km/h | 8885m | -16.1m/s | -30.3°C | 41.7% | 334.5hPa | 2.5V | 00:00:00 | 00:00:00 | 00:00:00 | |
| DG9SBQ-11 | 2026-09-05 18:57:10 | 49.10435 | 8.88544 | 123° | 111km/h | 8885m | -16.1m/s | -30.3°C | 41.7% | 334.5hPa | 2.5V | 02:52:00 | 00:00:00 | 00:00:00 | |
| KANTATE | 2026-09-05 18:57:05 | 49.10510 | 8.88362 | 124° | 113km/h | 8965m | -16.1m/s | -31.0°C | 42.3% | 330.7hPa | 2.5V | 02:52:00 | 00:00:00 | 00:00:00 | |
| DO3MHA-11 | 2026-09-05 18:57:04 | 49.10540 | 8.88290 | 125° | 111km/h | 8996m | -17.3m/s | -31.2°C | 45.8% | 329.3hPa | 2.5V | 02:52:00 | 02:27:29 | 00:00:00 | |
| DF3TZ-5 | 2026-09-05 18:57:03 | 49.10571 | 8.88219 | 124° | 110km/h | 9027m | -17.0m/s | -31.6°C | 41.8% | 327.8hPa | 2.5V | 00:00:00 | 00:00:00 | 00:00:00 | |
| DB0UT-9 | 2026-09-05 18:57:01 | 49.10571 | 8.88219 | 125° | 110km/h | 9028m | -17.0m/s | -31.6°C | 41.8% | 327.8hPa | 2.5V | 02:52:00 | 00:00:00 | 00:00:00 | |
| CB1BUN | 2026-09-05 18:56:59 | 49.10603 | 8.88149 | 126° | 111km/h | 9060m | -16.5m/s | -31.8°C | 41.2% | 326.2hPa | 2.5V | 02:52:00 | 00:00:00 | 00:00:00 | |
| DK5PH-5 | 2026-09-05 18:56:58 | 49.10635 | 8.88078 | 126° | 113km/h | 9094m | -17.2m/s | -32.1°C | 44.2% | 324.6hPa | 2.5V | 02:52:00 | 02:27:23 | 00:00:00 | |
| DO3MHA-11 | 2026-09-05 18:56:54 | 49.10701 | 8.87939 | 128° | 115km/h | 9159m | -16.2m/s | -32.6°C | 40.1% | 321.7hPa | 2.5V | 00:00:00 | 02:27:19 | 00:00:00 | |
| DM0DOS-11 | 2026-09-05 18:56:53 | 49.10804 | 8.87727 | 124° | 115km/h | 9256m | -17.1m/s | -33.5°C | 37.9% | 317.4hPa | 2.5V | 02:52:29 | 02:27:13 | 00:00:00 | |
| DL1ZP-14 | 2026-09-05 18:56:45 | 49.10853 | 8.87619 | 124° | 113km/h | 9304m | -15.8m/s | -33.9°C | 33.0% | 315.2hPa | 2.6V | 00:00:00 | 00:00:00 | 00:00:00 | |
| DO3MHA-11 | 2026-09-05 18:56:44 | 49.10869 | 8.87583 | 124° | 111km/h | 9320m | -15.8m/s | -34.0°C | 36.0% | 314.4hPa | 2.5V | 00:00:00 | 02:27:09 | 00:00:00 | |
| DF1GD-15 | 2026-09-05 18:56:43 | 49.10884 | 8.87546 | 125° | 113km/h | 9335m | -15.8m/s | -34.2°C | 32.8% | 313.7hPa | 2.5V | 02:52:00 | 00:00:00 | 00:00:00 | |
| DM0DOS-11 | 2026-09-05 18:56:42 | 49.10977 | 8.87330 | 123° | 111km/h | 9427m | -16.3m/s | -34.8°C | 33.8% | 309.6hPa | 2.5V | 02:52:40 | 02:27:02 | 00:00:00 | |
| DK7TD | 2026-09-05 18:56:37 | 49.10977 | 8.87330 | 124° | 111km/h | 9427m | -16.3m/s | -34.8°C | 38.7% | 309.7hPa | 2.5V | 02:53:30 | 02:27:02 | 00:00:00 | |
| DO3MHA-11 | 2026-09-05 18:56:34 | 49.11024 | 8.87223 | 124° | 111km/h | 9477m | -16.3m/s | -35.2°C | 34.3% | 307.5hPa | 2.6V | 02:52:00 | 02:26:59 | 00:00:00 | |
| DM0DOS-11 | 2026-09-05 18:56:32 | 49.11132 | 8.86969 | 122° | 110km/h | 9589m | -15.7m/s | -36.3°C | 33.7% | 302.6hPa | 2.5V | 02:52:50 | 02:26:52 | 00:00:00 | |
| BIOWL1-15 | 2026-09-05 18:56:26 | 49.11177 | 8.86863 | 124° | 110km/h | 9638m | -16.7m/s | -36.8°C | 37.1% | 300.4hPa | 2.5V | 02:54:21 | 02:26:49 | 00:00:00 | |
| DK7TD | 2026-09-05 18:56:25 | 49.11162 | 8.86898 | 123° | 110km/h | 9622m | -17.5m/s | -36.6°C | 37.6% | 301.2hPa | 2.5V | 02:53:30 | 02:26:50 | 00:00:00 | |
| DO3MHA-11 | 2026-09-05 18:56:24 | 49.11177 | 8.86862 | 124° | 110km/h | 9638m | -16.7m/s | -36.8°C | 32.6% | 300.3hPa | 2.6V | 00:00:00 | 02:26:49 | 00:00:00 | |
| BIOWL9-15 | 2026-09-05 18:56:23 | 49.11192 | 8.86827 | 124° | 110km/h | 9655m | -16.4m/s | -36.9°C | 28.4% | 299.8hPa | 2.6V | 00:00:00 | 00:00:00 | 00:00:00 | |
| DB0NH | 2026-09-05 18:56:22 | 49.11208 | 8.86792 | 125° | 111km/h | 9671m | -18.0m/s | -37.0°C | 30.7% | 299.1hPa | 2.6V | 00:00:00 | 02:26:47 | 00:00:00 | |
| DF1GD-15 | 2026-09-05 18:56:21 | 49.11208 | 8.86792 | 125° | 111km/h | 9671m | -18.1m/s | -37.0°C | 27.5% | 299.2hPa | 2.6V | 02:53:00 | 00:00:00 | 00:00:00 | |
| KANTATE | 2026-09-05 18:56:20 | 49.11223 | 8.86757 | 126° | 110km/h | 9689m | -17.5m/s | -37.1°C | 26.9% | 298.4hPa | 2.6V | 02:53:00 | 00:00:00 | 00:00:00 | |
| DB0UT-9 | 2026-09-05 18:56:19 | 49.11239 | 8.86722 | 126° | 110km/h | 9706m | -16.6m/s | -37.1°C | 26.7% | 297.6hPa | 2.6V | 02:53:00 | 00:00:00 | 00:00:00 | |
| CB1BUN | 2026-09-05 18:56:18 | 49.11255 | 8.86687 | 127° | 111km/h | 9722m | -16.5m/s | -37.3°C | 26.7% | 296.9hPa | 2.6V | 02:53:00 | 00:00:00 | 00:00:00 | |
| DM0DOS-11 | 2026-09-05 18:56:17 | 49.11367 | 8.86446 | 127° | 111km/h | 9836m | -16m/s | -38.1°C | 30.7% | 292hPa | 2.6V | 02:53:05 | 02:26:37 | 00:00:00 | |
| DK7TD | 2026-09-05 18:56:15 | 49.11319 | 8.86549 | 125° | 110km/h | 9789m | -16.4m/s | -37.8°C | 35% | 294.2hPa | 2.5V | 02:53:30 | 02:26:40 | 00:00:00 | |
| BIOWL1-15 | 2026-09-05 18:56:14 | 49.11334 | 8.86515 | 126° | 110km/h | 9805m | -16.3m/s | -37.9°C | 34.9% | 293.5hPa | 2.5V | 02:54:21 | 02:26:39 | 00:00:00 | |
| DO3MHA-11 | 2026-09-05 18:56:14 | 49.11334 | 8.86514 | 126° | 110km/h | 9805m | -16.2m/s | -37.9°C | 30.5% | 293.4hPa | 2.5V | 00:00:00 | 02:26:39 | 00:00:00 | |
| DB0ND-19 | 2026-09-05 18:56:13 | 49.11351 | 8.86480 | 126° | 110km/h | 9821m | -15.4m/s | -38.0°C | 27.3% | 292.6hPa | 2.5V | 00:00:00 | 00:00:00 | 00:00:00 | |
| DF7PN | 2026-09-05 18:56:09 | 49.11433 | 8.86312 | 127° | 108km/h | 9899m | -16.7m/s | -38.7°C | 28.0% | 289.4hPa | 2.5V | 00:00:00 | 00:00:00 | 00:00:00 | |
| DM0DOS-11 | 2026-09-05 18:56:07 | 49.11535 | 8.86111 | 127° | 113km/h | 9997m | -16.1m/s | -39.7°C | 32.1% | 285.3hPa | 2.5V | 02:53:15 | 02:26:27 | 00:00:00 | |
| DK7TD | 2026-09-05 18:56:04 | 49.11501 | 8.86179 | 127° | 113km/h | 9964m | -16.7m/s | -39.3°C | 36.3% | 286.8hPa | 2.5V | 02:53:30 | 02:26:29 | 00:00:00 | |
| DO3MHA-11 | 2026-09-05 18:56:04 | 49.11501 | 8.86179 | 128° | 113km/h | 9965m | -16.6m/s | -39.3°C | 32.0% | 286.7hPa | 2.5V | 02:53:00 | 02:26:29 | 00:00:00 | |
| DM7RM-13 | 2026-09-05 18:56:02 | 49.11518 | 8.86145 | 128° | 111km/h | 9981m | -16.7m/s | -39.5°C | 28.5% | 286.0hPa | 2.5V | 02:53:00 | 00:00:00 | 00:00:00 | |
| DF3TZ-5 | 2026-09-05 18:56:01 | 49.11569 | 8.86042 | 127° | 110km/h | 10028m | -16.0m/s | -39.8°C | 27.5% | 284.0hPa | 2.5V | 00:00:00 | 00:00:00 | 00:00:00 | |
| DF1GD-15 | 2026-09-05 18:56:00 | 49.11552 | 8.86076 | 129° | 113km/h | 10013m | -16.0m/s | -39.7°C | 28.0% | 284.6hPa | 2.5V | 02:53:00 | 00:00:00 | 00:00:00 | |
| KANTATE | 2026-09-05 18:55:59 | 49.11569 | 8.86042 | 129° | 111km/h | 10028m | -16.0m/s | -39.8°C | 27.5% | 284.0hPa | 2.5V | 02:53:00 | 00:00:00 | 00:00:00 | |
| DK5PH-5 | 2026-09-05 18:55:58 | 49.11603 | 8.85975 | 129° | 117km/h | 10060m | -17.6m/s | -40.0°C | 31.1% | 282.6hPa | 2.5V | 00:00:00 | 02:26:23 | 00:00:00 | |
| DM0DOS-11 | 2026-09-05 18:55:57 | 49.11706 | 8.85769 | 127° | 115km/h | 10168m | -17.4m/s | -40.9°C | 30.4% | 278.3hPa | 2.5V | 02:53:25 | 02:26:17 | 00:00:00 | |
| DK7TD | 2026-09-05 18:55:54 | 49.11672 | 8.85839 | 127° | 113km/h | 10133m | -18.2m/s | -40.6°C | 34.9% | 279.8hPa | 2.5V | 02:53:30 | 02:26:19 | 00:00:00 | |
| BIOWL1-15 | 2026-09-05 18:55:48 | 49.11774 | 8.85627 | 127° | 117km/h | 10235m | -16.6m/s | -41.4°C | 35.7% | 275.5hPa | 2.5V | 02:54:21 | 02:26:13 | 00:00:00 | |
| DM0DOS-11 | 2026-09-05 18:55:47 | 49.11878 | 8.85407 | 126° | 117km/h | 10335m | -18m/s | -42.2°C | 32.5% | 271.4hPa | 2.5V | 02:53:35 | 02:26:07 | 00:00:00 | |
| DK7TD | 2026-09-05 18:55:44 | 49.11844 | 8.85480 | 125° | 119km/h | 10302m | -16.9m/s | -42°C | 36.4% | 272.8hPa | 2.6V | 02:54:21 | 02:26:09 | 00:00:00 | |
| DO3MHA-11 | 2026-09-05 18:55:44 | 49.11844 | 8.85480 | 126° | 119km/h | 10302m | -16.8m/s | -41.9°C | 32.1% | 272.7hPa | 2.5V | 00:00:00 | 02:26:09 | 00:00:00 | |
| DL1ZP-14 | 2026-09-05 18:55:43 | 49.11861 | 8.85443 | 125° | 115km/h | 10319m | -17.5m/s | -42.1°C | 28.2% | 272.1hPa | 2.5V | 00:00:00 | 00:00:00 | 00:00:00 | |
| DB0ND-19 | 2026-09-05 18:55:42 | 49.11878 | 8.85407 | 126° | 115km/h | 10335m | -18.0m/s | -42.2°C | 28.5% | 271.4hPa | 2.5V | 00:00:00 | 00:00:00 | 00:00:00 | |
| DM7RM-13 | 2026-09-05 18:55:41 | 49.11878 | 8.85407 | 127° | 117km/h | 10335m | -18.0m/s | -42.2°C | 28.5% | 271.4hPa | 2.5V | 02:54:00 | 00:00:00 | 00:00:00 | |
| DF1GD-15 | 2026-09-05 18:55:40 | 49.11895 | 8.85371 | 127° | 117km/h | 10353m | -17.9m/s | -42.3°C | 28.8% | 270.7hPa | 2.5V | 02:54:00 | 00:00:00 | 00:00:00 | |
| DF7PN | 2026-09-05 18:55:38 | 49.11965 | 8.85225 | 126° | 120km/h | 10420m | -17.7m/s | -42.9°C | 29.8% | 268.1hPa | 2.5V | 00:00:00 | 00:00:00 | 00:00:00 | |
| DM0DOS-11 | 2026-09-05 18:55:37 | 49.12053 | 8.85036 | 126° | 120km/h | 10506m | -17m/s | -43.7°C | 34.8% | 264.5hPa | 2.5V | 02:53:45 | 02:25:57 | 00:00:00 | |
| DK7TD | 2026-09-05 18:55:33 | 49.12035 | 8.85074 | 125° | 120km/h | 10490m | -17.1m/s | -43.6°C | 39.2% | 265.2hPa | 2.6V | 02:54:21 | 02:25:58 | 00:00:00 | |
| AZAK | 2026-09-05 18:55:32 | 49.12035 | 8.85074 | 126° | 120km/h | 10490m | -17.1m/s | -43.6°C | 30.4% | 265.2hPa | 2.6V | 00:00:00 | 00:00:00 | 00:00:00 | |
| DF3TZ-5 | 2026-09-05 18:55:30 | 49.12104 | 8.84922 | 125° | 117km/h | 10557m | -18.3m/s | -44.2°C | 29.9% | 262.7hPa | 2.6V | 00:00:00 | 00:00:00 | 00:00:00 | |
| DK5PH-5 | 2026-09-05 18:55:28 | 49.12121 | 8.84885 | 126° | 124km/h | 10575m | -18.7m/s | -44.3°C | 34.1% | 261.9hPa | 2.6V | 02:53:00 | 02:25:53 | 00:00:00 | |
| DM0DOS-11 | 2026-09-05 18:55:27 | 49.12226 | 8.84655 | 126° | 122km/h | 10680m | -18m/s | -45°C | 32.6% | 257.8hPa | 2.6V | 02:53:55 | 02:25:47 | 00:00:00 | |
| DK7TD | 2026-09-05 18:55:22 | 49.12226 | 8.84655 | 126° | 122km/h | 10680m | -18m/s | -45°C | 37.1% | 257.8hPa | 2.6V | 02:54:21 | 02:25:47 | 00:00:00 | |
| BIOWL1-15 | 2026-09-05 18:55:19 | 49.12280 | 8.84539 | 126° | 126km/h | 10733m | -18.6m/s | -45.4°C | 36.8% | 255.8hPa | 2.5V | 02:54:21 | 02:25:44 | 00:00:00 | |
| DM0DOS-11 | 2026-09-05 18:55:17 | 49.12405 | 8.84264 | 125° | 126km/h | 10853m | -18.5m/s | -46.1°C | 32% | 251.3hPa | 2.5V | 02:54:05 | 02:25:37 | 00:00:00 | |
| DB0UT-7 | 2026-09-05 18:55:17 | 49.12317 | 8.84462 | 126° | 128km/h | 10768m | -16.5m/s | -45.6°C | 32.7% | 254.4hPa | 2.6V | 02:54:00 | 00:00:00 | 00:00:00 | |
| CB1BUN | 2026-09-05 18:55:16 | 49.12317 | 8.84462 | 127° | 124km/h | 10768m | -16.6m/s | -45.7°C | 28.1% | 254.5hPa | 2.5V | 02:54:00 | 00:00:00 | 00:00:00 | |
| DM7RM-13 | 2026-09-05 18:55:15 | 49.12353 | 8.84382 | 125° | 124km/h | 10802m | -17.2m/s | -46.0°C | 28.1% | 253.2hPa | 2.5V | 02:54:00 | 00:00:00 | 00:00:00 | |
| DO3MHA-11 | 2026-09-05 18:55:14 | 49.12370 | 8.84343 | 124° | 126km/h | 10818m | -17.4m/s | -46.0°C | 32.5% | 252.5hPa | 2.5V | 00:00:00 | 02:25:39 | 00:00:00 | |
| AZAK | 2026-09-05 18:55:12 | 49.12405 | 8.84264 | 126° | 126km/h | 10854m | -18.5m/s | -46.1°C | 27.5% | 251.3hPa | 2.5V | 00:00:00 | 00:00:00 | 00:00:00 | |
| DB0ND-19 | 2026-09-05 18:55:11 | 49.12423 | 8.84224 | 125° | 128km/h | 10872m | -19.2m/s | -46.3°C | 27.7% | 250.6hPa | 2.5V | 00:00:00 | 00:00:00 | 00:00:00 | |
| DG9SBQ-11 | 2026-09-05 18:55:08 | 49.12460 | 8.84144 | 126° | 126km/h | 10908m | -17.9m/s | -46.5°C | 28.6% | 249.3hPa | 2.5V | 02:54:00 | 00:00:00 | 00:00:00 | |
| DM0DOS-11 | 2026-09-05 18:55:07 | 49.12592 | 8.83868 | 125° | 126km/h | 11030m | -18.6m/s | -47.5°C | 35.6% | 244.8hPa | 2.5V | 02:54:15 | 02:25:27 | 00:00:00 | |
| DK7TD | 2026-09-05 18:55:06 | 49.12516 | 8.84025 | 126° | 128km/h | 10962m | -18.4m/s | -46.9°C | 39.4% | 247.2hPa | 2.6V | 02:54:21 | 02:25:31 | 00:00:00 | |
| BIOWL1-15 | 2026-09-05 18:55:02 | 49.12628 | 8.83790 | 127° | 126km/h | 11066m | -18m/s | -47.8°C | 41.3% | 243.4hPa | 2.6V | 02:54:21 | 02:25:25 | 00:00:00 | |
| DF3TZ-5 | 2026-09-05 18:54:59 | 49.12666 | 8.83712 | 126° | 126km/h | 11102m | -17.8m/s | -48.1°C | 30.8% | 242.1hPa | 2.5V | 00:00:00 | 00:00:00 | 00:00:00 | |
| DK5PH-5 | 2026-09-05 18:54:58 | 49.12666 | 8.83712 | 127° | 131km/h | 11103m | -17.7m/s | -48.0°C | 36.0% | 242.0hPa | 2.5V | 00:00:00 | 02:25:23 | 00:00:00 | |
| DM0DOS-11 | 2026-09-05 18:54:57 | 49.12779 | 8.83474 | 126° | 130km/h | 11211m | -19.2m/s | -49°C | 35.7% | 238.1hPa | 2.5V | 02:54:25 | 02:25:17 | 00:00:00 | |
| DK7TD | 2026-09-05 18:54:50 | 49.12817 | 8.83394 | 126° | 130km/h | 11249m | -18.8m/s | -49.4°C | 42% | 236.8hPa | 2.5V | 02:56:03 | 02:25:15 | 00:00:00 | |
| BIOWL1-15 | 2026-09-05 18:54:48 | 49.12854 | 8.83312 | 125° | 130km/h | 11286m | -18.4m/s | -49.7°C | 42.6% | 235.4hPa | 2.6V | 02:55:12 | 02:25:13 | 00:00:00 | |
| DM0DOS-11 | 2026-09-05 18:54:47 | 49.12963 | 8.83066 | 124° | 130km/h | 11396m | -19m/s | -50.7°C | 38.9% | 231.5hPa | 2.6V | 02:54:35 | 02:25:07 | 00:00:00 | |
| BIOWL1-15 | 2026-09-05 18:54:42 | 49.13036 | 8.82903 | 126° | 131km/h | 11471m | -20.4m/s | -51.3°C | 45.2% | 228.8hPa | 2.6V | 02:55:12 | 02:25:03 | 00:00:00 | |
| DK7TD | 2026-09-05 18:54:39 | 49.13017 | 8.82944 | 125° | 130km/h | 11452m | -19.7m/s | -51.2°C | 45% | 229.5hPa | 2.5V | 02:56:03 | 02:25:04 | 00:00:00 | |
| BIOWL1-15 | 2026-09-05 18:54:28 | 49.13231 | 8.82477 | 126° | 141km/h | 11670m | -20m/s | -52.7°C | 46.6% | 222.1hPa | 2.5V | 02:55:12 | 02:24:53 | 00:00:00 | |
| DF3TZ-5 | 2026-09-05 18:54:28 | 49.13272 | 8.82389 | 125° | 141km/h | 11710m | -19.7m/s | -53.1°C | 34.8% | 220.7hPa | 2.5V | 00:00:00 | 00:00:00 | 00:00:00 | |
| DL0LBS | 2026-09-05 18:54:25 | 49.13272 | 8.82389 | 127° | 142km/h | 11710m | -19.7m/s | -53.1°C | 34.8% | 220.7hPa | 2.5V | 02:55:00 | 00:00:00 | 00:00:00 | |
| DO3MHA-11 | 2026-09-05 18:54:24 | 49.13314 | 8.82300 | 127° | 144km/h | 11749m | -20.0m/s | -53.4°C | 41.8% | 219.3hPa | 2.5V | 00:00:00 | 02:24:49 | 00:00:00 | |
| HARRO8 | 2026-09-05 18:54:23 | 49.13336 | 8.82256 | 126° | 142km/h | 11769m | -19.7m/s | -53.5°C | 35.2% | 218.6hPa | 2.5V | 00:00:00 | 00:00:00 | 00:00:00 | |
| BIOWL9-15 | 2026-09-05 18:54:19 | 49.13423 | 8.82077 | 125° | 141km/h | 11845m | -19.5m/s | -54.1°C | 35.4% | 216.1hPa | 2.5V | 00:00:00 | 00:00:00 | 00:00:00 | |
| DG9SBQ-11 | 2026-09-05 18:54:18 | 49.13423 | 8.82077 | 127° | 142km/h | 11845m | -19.5m/s | -54.1°C | 35.4% | 216.1hPa | 2.5V | 02:55:00 | 00:00:00 | 00:00:00 | |
| DM0DOS-11 | 2026-09-05 18:54:17 | 49.13570 | 8.81761 | 125° | 144km/h | 11981m | -20.8m/s | -55.1°C | 41.5% | 211.5hPa | 2.5V | 02:55:05 | 02:24:37 | 00:00:00 | |
| BIOWL1-15 | 2026-09-05 18:54:17 | 49.13465 | 8.81986 | 126° | 144km/h | 11883m | -19.2m/s | -54.4°C | 47.4% | 214.7hPa | 2.5V | 02:55:12 | 02:24:42 | 00:00:00 | |
| DK7TD | 2026-09-05 18:54:11 | 49.13592 | 8.81715 | 126° | 144km/h | 12002m | -20.4m/s | -55.3°C | 46.8% | 210.8hPa | 2.5V | 02:56:03 | 02:24:36 | 00:00:00 | |
| DL1ZP-14 | 2026-09-05 18:54:10 | 49.13613 | 8.81670 | 126° | 146km/h | 12022m | -20.8m/s | -55.5°C | 34.4% | 210.2hPa | 2.6V | 00:00:00 | 00:00:00 | 00:00:00 | |
| DB0ND-19 | 2026-09-05 18:54:09 | 49.13635 | 8.81625 | 125° | 146km/h | 12042m | -20.9m/s | -55.7°C | 34.3% | 209.5hPa | 2.5V | 00:00:00 | 00:00:00 | 00:00:00 | |
| DM0DOS-11 | 2026-09-05 18:54:07 | 49.13787 | 8.81296 | 124° | 153km/h | 12180m | -19.6m/s | -56.7°C | 40.5% | 205.1hPa | 2.5V | 02:55:15 | 02:24:27 | 00:00:00 | |
| BIOWL1-15 | 2026-09-05 18:54:07 | 49.13678 | 8.81532 | 125° | 146km/h | 12083m | -19.8m/s | -56°C | 46.3% | 208.2hPa | 2.5V | 02:55:12 | 02:24:32 | 00:00:00 | |
| DK7TD | 2026-09-05 18:53:59 | 49.13853 | 8.81150 | 124° | 151km/h | 12238m | -18.4m/s | -57.2°C | 45.1% | 203.2hPa | 2.6V | 02:56:03 | 02:24:24 | 00:00:00 | |
| DK5PH-5 | 2026-09-05 18:53:58 | 49.13874 | 8.81101 | 124° | 155km/h | 12256m | -18.3m/s | -57.3°C | 40.6% | 202.5hPa | 2.6V | 02:55:00 | 02:24:23 | 00:00:00 | |
| DM0DOS-11 | 2026-09-05 18:53:57 | 49.14005 | 8.80811 | 124° | 155km/h | 12365m | -18.6m/s | -58.3°C | 39.8% | 199.1hPa | 2.5V | 02:55:25 | 02:24:17 | 00:00:00 | |
| BIOWL1-15 | 2026-09-05 18:53:56 | 49.13917 | 8.81005 | 124° | 150km/h | 12292m | -18.2m/s | -57.7°C | 44.7% | 201.4hPa | 2.5V | 02:56:03 | 02:24:21 | 00:00:00 | |
| BIOWL1-15 | 2026-09-05 18:53:45 | 49.14159 | 8.80468 | 124° | 155km/h | 12494m | -18.1m/s | -59.4°C | 43% | 195hPa | 2.5V | 02:56:03 | 02:24:10 | 00:00:00 | |
| DK7TD | 2026-09-05 18:53:43 | 49.14202 | 8.80369 | 124° | 151km/h | 12529m | -18.1m/s | -59.7°C | 42.6% | 193.9hPa | 2.6V | 02:56:03 | 02:24:08 | 00:00:00 | |
| DM0DOS-11 | 2026-09-05 18:53:41 | 49.14353 | 8.80019 | 123° | 157km/h | 12659m | -19.2m/s | -60.6°C | 37.3% | 190hPa | 2.6V | 02:55:41 | 02:24:01 | 00:00:00 | |
| BIOWL1-15 | 2026-09-05 18:53:35 | 49.14375 | 8.79969 | 124° | 159km/h | 12678m | -19.2m/s | -60.8°C | 40% | 189.4hPa | 2.5V | 02:56:03 | 02:24:00 | 00:00:00 | |
| DK7TD | 2026-09-05 18:53:33 | 49.14419 | 8.79866 | 123° | 161km/h | 12715m | -18.4m/s | -61°C | 39.6% | 188.3hPa | 2.5V | 02:56:03 | 02:23:58 | 00:00:00 | |
| DB0NH | 2026-09-05 18:53:33 | 49.14419 | 8.79866 | 123° | 157km/h | 12715m | -18.3m/s | -61.0°C | 37.0% | 188.2hPa | 2.5V | 02:55:00 | 02:23:58 | 00:00:00 | |
| DM0DOS-11 | 2026-09-05 18:53:31 | 49.14572 | 8.79505 | 122° | 159km/h | 12843m | -18.1m/s | -62.1°C | 36.4% | 184.4hPa | 2.6V | 02:55:51 | 02:23:51 | 00:00:00 | |
| BIOWL1-15 | 2026-09-05 18:53:24 | 49.14615 | 8.79402 | 124° | 159km/h | 12880m | -18.9m/s | -62.4°C | 37.7% | 183.3hPa | 2.5V | 02:56:03 | 02:23:49 | 00:00:00 | |
| DK7TD | 2026-09-05 18:53:22 | 49.14660 | 8.79301 | 124° | 161km/h | 12918m | -18.4m/s | -62.7°C | 36.6% | 182.2hPa | 2.5V | 02:56:03 | 02:23:47 | 00:00:00 | |
| DM0DOS-11 | 2026-09-05 18:53:21 | 49.14789 | 8.78998 | 122° | 155km/h | 13028m | -18.3m/s | -63.4°C | 32.8% | 179hPa | 2.6V | 02:56:01 | 02:23:41 | 00:00:00 | |
| BIOWL1-15 | 2026-09-05 18:53:14 | 49.14830 | 8.78898 | 122° | 150km/h | 13065m | -18.6m/s | -63.7°C | 32.8% | 177.8hPa | 2.5V | 02:56:03 | 02:23:39 | 00:00:00 | |
| DK7TD | 2026-09-05 18:53:12 | 49.14872 | 8.78800 | 123° | 153km/h | 13102m | -19.1m/s | -64°C | 31.8% | 176.8hPa | 2.5V | 02:56:54 | 02:23:37 | 00:00:00 | |
| BIOWL1-15 | 2026-09-05 18:53:04 | 49.15034 | 8.78400 | 121° | 153km/h | 13251m | -18.7m/s | -65°C | 27.9% | 172.6hPa | 2.6V | 02:56:54 | 02:23:29 | 00:00:00 | |
| DK7TD | 2026-09-05 18:53:02 | 49.15074 | 8.78300 | 122° | 151km/h | 13288m | -18.8m/s | -65.3°C | 27% | 171.5hPa | 2.5V | 02:56:54 | 02:23:27 | 00:00:00 | |
| BIOWL1-15 | 2026-09-05 18:52:53 | 49.15255 | 8.77859 | 121° | 148km/h | 13459m | -19m/s | -66°C | 22.5% | 166.8hPa | 2.6V | 02:56:54 | 02:23:18 | 00:00:00 | |
| DM0DOS-11 | 2026-09-05 18:52:51 | 49.15385 | 8.77516 | 118° | 146km/h | 13595m | -19.9m/s | -66.4°C | 21.5% | 163.1hPa | 2.6V | 02:56:31 | 02:23:11 | 00:00:00 | |
| DK7TD | 2026-09-05 18:52:51 | 49.15293 | 8.77763 | 121° | 146km/h | 13497m | -19.5m/s | -66.2°C | 21.4% | 165.7hPa | 2.5V | 02:56:54 | 02:23:16 | 00:00:00 | |
| HARRO8 | 2026-09-05 18:52:50 | 49.15331 | 8.77665 | 120° | 148km/h | 13536m | -19.7m/s | -66.0°C | 15.1% | 164.7hPa | 2.5V | 00:00:00 | 00:00:00 | 00:00:00 | |
| BIOWL9-15 | 2026-09-05 18:52:46 | 49.15385 | 8.77516 | 118° | 144km/h | 13595m | -19.9m/s | -66.4°C | 14.2% | 163.1hPa | 2.5V | 00:00:00 | 00:00:00 | 00:00:00 | |
| BIOWL1-15 | 2026-09-05 18:52:43 | 49.15439 | 8.77368 | 119° | 150km/h | 13654m | -19.7m/s | -66.9°C | 17.6% | 161.6hPa | 2.5V | 02:56:54 | 02:23:08 | 00:00:00 | |
| DM0DOS-11 | 2026-09-05 18:52:41 | 49.15569 | 8.77022 | 121° | 148km/h | 13791m | -20.1m/s | -67.8°C | 21.1% | 157.9hPa | 2.6V | 02:56:41 | 02:23:01 | 00:00:00 | |
| DK7TD | 2026-09-05 18:52:41 | 49.15475 | 8.77267 | 118° | 148km/h | 13693m | -19.1m/s | -67.2°C | 16.8% | 160.5hPa | 2.6V | 02:56:54 | 02:23:06 | 00:00:00 | |
| BIOWL1-15 | 2026-09-05 18:52:35 | 49.15625 | 8.76882 | 122° | 137km/h | 13850m | -20m/s | -67.5°C | 13.5% | 156.4hPa | 2.5V | 02:56:54 | 02:22:58 | 00:00:00 | |
| DK7TD | 2026-09-05 18:52:30 | 49.15681 | 8.76749 | 123° | 137km/h | 13910m | -20.1m/s | -67.8°C | 12.4% | 154.9hPa | 2.5V | 02:56:54 | 02:22:55 | 00:00:00 | |
| BIOWL1-15 | 2026-09-05 18:52:26 | 49.15815 | 8.76414 | 120° | 124km/h | 14070m | -20.3m/s | -66.2°C | 8.7% | 150.8hPa | 2.5V | 02:57:45 | 02:22:47 | 00:00:00 | |
| HEMX73-11 | 2026-09-05 18:52:25 | 49.15751 | 8.76578 | 122° | 122km/h | 13989m | -19.8m/s | -67.0°C | 9.7% | 152.8hPa | 2.5V | 02:56:00 | 00:00:00 | 00:00:00 | |
| DO3MHA-11 | 2026-09-05 18:52:24 | 49.15782 | 8.76496 | 122° | 106km/h | 14029m | -20.7m/s | -66.2°C | 15.2% | 151.8hPa | 2.5V | 00:00:00 | 02:22:49 | 00:00:00 | |
| DF3TZ-5 | 2026-09-05 18:52:23 | 49.15799 | 8.76456 | 121° | 124km/h | 14049m | -20.8m/s | -66.1°C | 8.0% | 151.3hPa | 2.5V | 00:00:00 | 00:00:00 | 00:00:00 | |
| DL0LBS | 2026-09-05 18:52:22 | 49.15799 | 8.76456 | 122° | 124km/h | 14050m | -20.8m/s | -66.1°C | 8.1% | 151.3hPa | 2.5V | 02:56:00 | 00:00:00 | 00:00:00 | |
| DM0DOS-11 | 2026-09-05 18:52:21 | 49.15897 | 8.76167 | 115° | 119km/h | 14191m | -20.7m/s | -65.7°C | 12.4% | 147.8hPa | 2.5V | 02:57:01 | 02:22:41 | 00:00:00 | |
| DK7TD | 2026-09-05 18:52:19 | 49.15858 | 8.76291 | 117° | 119km/h | 14131m | -20.6m/s | -66.4°C | 7.6% | 149.3hPa | 2.6V | 02:58:36 | 02:22:44 | 00:00:00 | |
| HARRO8 | 2026-09-05 18:52:19 | 49.15871 | 8.76250 | 116° | 119km/h | 14151m | -20.7m/s | -66.2°C | 6.7% | 148.8hPa | 2.5V | 00:00:00 | 00:00:00 | 00:00:00 | |
| DB0UT-7 | 2026-09-05 18:52:17 | 49.15884 | 8.76208 | 116° | 106km/h | 14171m | -20.5m/s | -66.0°C | 12.8% | 148.2hPa | 2.5V | 02:57:00 | 00:00:00 | 00:00:00 | |
| DF1GD-15 | 2026-09-05 18:52:16 | 49.15884 | 8.76208 | 117° | 119km/h | 14171m | -20.5m/s | -66.1°C | 6.5% | 148.3hPa | 2.5V | 02:57:00 | 00:00:00 | 00:00:00 | |
| BIOWL9-15 | 2026-09-05 18:52:15 | 49.15910 | 8.76126 | 115° | 117km/h | 14212m | -20.8m/s | -65.2°C | 5.7% | 147.3hPa | 2.5V | 00:00:00 | 00:00:00 | 00:00:00 | |
| AZAK | 2026-09-05 18:52:14 | 49.15910 | 8.76126 | 116° | 119km/h | 14212m | -20.8m/s | -65.2°C | 5.7% | 147.3hPa | 2.5V | 00:00:00 | 00:00:00 | 00:00:00 | |
| DB0UT-9 | 2026-09-05 18:52:12 | 49.15935 | 8.76043 | 115° | 119km/h | 14253m | -19.9m/s | -64.4°C | 4.9% | 146.3hPa | 2.5V | 02:57:00 | 00:00:00 | 00:00:00 | |
| DM0DOS-11 | 2026-09-05 18:52:11 | 49.16032 | 8.75768 | 124° | 113km/h | 14394m | -20.6m/s | -63.2°C | 8.3% | 142.9hPa | 2.5V | 02:57:11 | 02:22:31 | 00:00:00 | |
| BIOWL1-15 | 2026-09-05 18:52:11 | 49.15959 | 8.75960 | 116° | 117km/h | 14292m | -20.6m/s | -64.4°C | 4.8% | 145.4hPa | 2.5V | 02:57:45 | 02:22:36 | 00:00:00 | |
| DK7TD | 2026-09-05 18:52:08 | 49.16001 | 8.75841 | 121° | 115km/h | 14354m | -20.6m/s | -63.9°C | 4.1% | 143.9hPa | 2.6V | 02:58:36 | 02:22:33 | 00:00:00 | |
| DL1ZP-14 | 2026-09-05 18:52:06 | 49.16049 | 8.75732 | 125° | 111km/h | 14415m | -20.2m/s | -62.8°C | 3.4% | 142.5hPa | 2.5V | 00:00:00 | 00:00:00 | 00:00:00 | |
| DB0ND-19 | 2026-09-05 18:52:05 | 49.16049 | 8.75732 | 125° | 111km/h | 14415m | -20.2m/s | -62.8°C | 3.4% | 142.5hPa | 2.5V | 00:00:00 | 00:00:00 | 00:00:00 | |
| DM7RM-13 | 2026-09-05 18:52:04 | 49.16049 | 8.75732 | 127° | 111km/h | 14416m | -20.2m/s | -62.8°C | 3.4% | 142.5hPa | 2.5V | 00:00:00 | 00:00:00 | 00:00:00 | |
| DO8TBO-1 | 2026-09-05 18:52:03 | 49.16081 | 8.75664 | 127° | 95km/h | 14455m | -19.9m/s | -62.4°C | 7.5% | 141.6hPa | 2.5V | 00:00:00 | 02:22:28 | 00:00:00 | |
| DB0NH | 2026-09-05 18:52:02 | 49.16097 | 8.75633 | 128° | 95km/h | 14475m | -20.5m/s | -62.3°C | 7.4% | 141.1hPa | 2.5V | 00:00:00 | 02:22:27 | 00:00:00 | |
| DM0DOS-11 | 2026-09-05 18:52:01 | 49.16188 | 8.75458 | 127° | 93km/h | 14597m | -20.6m/s | -61.8°C | 6.9% | 138.3hPa | 2.5V | 02:57:21 | 02:22:21 | 00:00:00 | |
| BIOWL1-15 | 2026-09-05 18:52:00 | 49.16128 | 8.75573 | 129° | 97km/h | 14516m | -20.8m/s | -62°C | 2.9% | 140.1hPa | 2.5V | 02:57:45 | 02:22:25 | 00:00:00 | |
| DK7TD | 2026-09-05 18:51:58 | 49.16159 | 8.75515 | 129° | 97km/h | 14558m | -20.4m/s | -61.6°C | 2.8% | 139.3hPa | 2.6V | 02:58:36 | 02:22:23 | 00:00:00 | |
| DF3TZ-5 | 2026-09-05 18:51:52 | 49.16243 | 8.75342 | 123° | 93km/h | 14679m | -20.3m/s | -61.8°C | 2.8% | 136.5hPa | 2.5V | 00:00:00 | 00:00:00 | 00:00:00 | |
| DM0DOS-11 | 2026-09-05 18:51:51 | 49.16317 | 8.75157 | 117° | 95km/h | 14801m | -20.7m/s | -62°C | 7% | 133.8hPa | 2.5V | 02:57:31 | 02:22:11 | 00:00:00 | |
| BIOWL1-15 | 2026-09-05 18:51:48 | 49.16293 | 8.75221 | 122° | 95km/h | 14761m | -20.8m/s | -62.2°C | 2.5% | 134.8hPa | 2.6V | 02:57:45 | 02:22:13 | 00:00:00 | |
| DK7TD | 2026-09-05 18:51:47 | 49.16306 | 8.75189 | 119° | 97km/h | 14781m | -20.7m/s | -62°C | 2.5% | 134.3hPa | 2.5V | 02:58:36 | 02:22:12 | 00:00:00 | |
| DB0UT-7 | 2026-09-05 18:51:47 | 49.16306 | 8.75189 | 120° | 93km/h | 14781m | -20.7m/s | -62.0°C | 7.0% | 134.3hPa | 2.6V | 00:00:00 | 02:22:12 | 00:00:00 | |
| DG9SBQ-11 | 2026-09-05 18:51:45 | 49.16317 | 8.75157 | 118° | 95km/h | 14802m | -20.7m/s | -62.0°C | 2.7% | 133.8hPa | 2.6V | 02:57:00 | 00:00:00 | 00:00:00 | |
| DO3MHA-11 | 2026-09-05 18:51:44 | 49.16338 | 8.75093 | 119° | 95km/h | 14844m | -21.8m/s | -61.6°C | 6.7% | 132.9hPa | 2.6V | 02:57:00 | 02:22:09 | 00:00:00 | |
| DM0DOS-11 | 2026-09-05 18:51:41 | 49.16419 | 8.74831 | 112° | 93km/h | 15015m | -21.2m/s | -61.3°C | 6.7% | 129.4hPa | 2.5V | 02:57:41 | 02:22:01 | 00:00:00 | |
| BIOWL1-15 | 2026-09-05 18:51:38 | 49.16400 | 8.74897 | 115° | 95km/h | 14973m | -21.6m/s | -61.3°C | 2.1% | 130.3hPa | 2.6V | 02:57:45 | 02:22:03 | 00:00:00 | |
| DK7TD | 2026-09-05 18:51:33 | 49.16448 | 8.74731 | 114° | 97km/h | 15079m | -21.4m/s | -61.4°C | 2.1% | 128.1hPa | 2.6V | 02:58:36 | 02:21:58 | 00:00:00 | |
| DO8TBO-1 | 2026-09-05 18:51:33 | 49.16447 | 8.74730 | 114° | 84km/h | 15079m | -21.3m/s | -61.3°C | 6.7% | 128.0hPa | 2.5V | 00:00:00 | 02:21:58 | 00:00:00 | |
| DB0NH | 2026-09-05 18:51:32 | 49.16457 | 8.74697 | 113° | 88km/h | 15100m | -21.1m/s | -61.3°C | 6.8% | 127.6hPa | 2.5V | 02:57:00 | 02:21:57 | 00:00:00 | |
| DM0DOS-11 | 2026-09-05 18:51:31 | 49.16512 | 8.74494 | 112° | 93km/h | 15228m | -21.9m/s | -60.6°C | 6.4% | 125hPa | 2.5V | 02:57:51 | 02:21:51 | 00:00:00 | |
| BIOWL1-15 | 2026-09-05 18:51:27 | 49.16503 | 8.74527 | 113° | 95km/h | 15207m | -21.3m/s | -60.8°C | 2% | 125.5hPa | 2.5V | 02:58:36 | 02:21:52 | 00:00:00 | |
| DK7TD | 2026-09-05 18:51:23 | 49.16541 | 8.74395 | 116° | 91km/h | 15296m | -25.7m/s | -59.9°C | 1.7% | 123.8hPa | 2.6V | 02:58:36 | 02:21:48 | 00:00:00 | |
| DG9SBQ-11 | 2026-09-05 18:51:23 | 49.16541 | 8.74395 | 117° | 91km/h | 15296m | -25.7m/s | -59.9°C | 2.1% | 123.8hPa | 2.5V | 02:58:00 | 00:00:00 | 00:00:00 | |
| DM0DOS-11 | 2026-09-05 18:51:21 | 49.16612 | 8.74184 | 119° | 86km/h | 15469m | -24.8m/s | -58.7°C | 5.4% | 120.4hPa | 2.5V | 02:58:01 | 02:21:41 | 00:00:00 | |
| BIOWL1-15 | 2026-09-05 18:51:16 | 49.16612 | 8.74184 | 119° | 86km/h | 15469m | -24.8m/s | -58.7°C | 1.4% | 120.4hPa | 2.5V | 02:58:36 | 02:21:41 | 00:00:00 | |
| DK7TD | 2026-09-05 18:51:13 | 49.16642 | 8.74098 | 117° | 84km/h | 15542m | -24.4m/s | -58.5°C | 1.3% | 119hPa | 2.6V | 02:58:36 | 02:21:38 | 00:00:00 | |
| CB1BUN | 2026-09-05 18:51:12 | 49.16642 | 8.74098 | 118° | 84km/h | 15543m | -24.4m/s | -58.5°C | 1.8% | 119.0hPa | 2.5V | 02:58:00 | 00:00:00 | 00:00:00 | |
| DM0DOS-11 | 2026-09-05 18:51:11 | 49.16703 | 8.73900 | 115° | 80km/h | 15716m | -26.1m/s | -58.4°C | 5.2% | 115.9hPa | 2.5V | 02:58:11 | 02:21:31 | 00:00:00 | |
| BIOWL1-15 | 2026-09-05 18:51:08 | 49.16703 | 8.73900 | 115° | 80km/h | 15716m | -26.1m/s | -58.4°C | 1.3% | 115.9hPa | 2.5V | 02:58:36 | 02:21:31 | 00:00:00 | |
| DG9SBQ-11 | 2026-09-05 18:51:06 | 49.16694 | 8.73928 | 117° | 82km/h | 15690m | -26.9m/s | -58.5°C | 1.8% | 116.3hPa | 2.6V | 02:58:00 | 00:00:00 | 00:00:00 | |
| DH7VM-15 | 2026-09-05 18:51:05 | 49.16703 | 8.73900 | 116° | 80km/h | 15716m | -26.1m/s | -58.4°C | 1.8% | 115.9hPa | 2.6V | 00:00:00 | 00:00:00 | 00:00:00 | |
| DL1ZP-14 | 2026-09-05 18:51:04 | 49.16727 | 8.73816 | 116° | 82km/h | 15790m | -25.2m/s | -58.4°C | 1.8% | 114.5hPa | 2.6V | 00:00:00 | 00:00:00 | 00:00:00 | |
| HEMX73-11 | 2026-09-05 18:51:02 | 49.16727 | 8.73816 | 117° | 82km/h | 15791m | -25.2m/s | -58.4°C | 1.8% | 114.5hPa | 2.5V | 02:58:00 | 00:00:00 | 00:00:00 | |
| DM0DOS-11 | 2026-09-05 18:51:01 | 49.16786 | 8.73615 | 113° | 84km/h | 15968m | -28.4m/s | -58.4°C | 5.3% | 111.3hPa | 2.5V | 02:58:21 | 02:21:21 | 00:00:00 | |
| DK7TD | 2026-09-05 18:50:59 | 49.16761 | 8.73702 | 114° | 80km/h | 15887m | -26.1m/s | -58.2°C | 1.3% | 112.7hPa | 2.6V | 02:58:36 | 02:21:24 | 00:00:00 | |
| BIOWL1-15 | 2026-09-05 18:50:56 | 49.16786 | 8.73615 | 114° | 84km/h | 15968m | -28.4m/s | -58.4°C | 1.3% | 111.3hPa | 2.5V | 02:58:36 | 02:21:21 | 00:00:00 | |
| DJ2DS-15 | 2026-09-05 18:50:54 | 49.16810 | 8.73527 | 113° | 82km/h | 16050m | -27.7m/s | -59.2°C | 1.8% | 109.9hPa | 2.6V | 00:00:00 | 00:00:00 | 00:00:00 | |
| DM0DOS-11 | 2026-09-05 18:50:51 | 49.16869 | 8.73330 | 116° | 80km/h | 16239m | -26.6m/s | -59.1°C | 5.7% | 106.5hPa | 2.6V | 02:58:31 | 02:21:11 | 00:00:00 | |
| DK7TD | 2026-09-05 18:50:49 | 49.16843 | 8.73412 | 116° | 80km/h | 16157m | -26.7m/s | -59.2°C | 1.5% | 108hPa | 2.5V | 02:58:36 | 02:21:14 | 00:00:00 | |
| BIOWL1-15 | 2026-09-05 18:50:47 | 49.16878 | 8.73302 | 115° | 80km/h | 16266m | -26.9m/s | -58.7°C | 1.4% | 106.2hPa | 2.5V | 02:58:36 | 02:21:10 | 00:00:00 | |
| HARRO8 | 2026-09-05 18:50:46 | 49.16878 | 8.73302 | 114° | 78km/h | 16266m | -26.9m/s | -58.7°C | 1.8% | 106.2hPa | 2.5V | 00:00:00 | 00:00:00 | 00:00:00 | |
| DO3MHA-11 | 2026-09-05 18:50:44 | 49.16887 | 8.73274 | 114° | 73km/h | 16293m | -27.0m/s | -58.5°C | 5.4% | 105.7hPa | 2.5V | 02:58:00 | 02:21:09 | 00:00:00 | |
| KANTATE | 2026-09-05 18:50:43 | 49.16887 | 8.73274 | 115° | 77km/h | 16293m | -27.0m/s | -58.5°C | 1.7% | 105.8hPa | 2.5V | 00:00:00 | 00:00:00 | 00:00:00 | |
| BIOWL9-15 | 2026-09-05 18:50:42 | 49.16903 | 8.73221 | 113° | 75km/h | 16346m | -26.7m/s | -58.5°C | 1.7% | 104.8hPa | 2.5V | 00:00:00 | 00:00:00 | 00:00:00 | |
| HEMX73-11 | 2026-09-05 18:50:41 | 49.16903 | 8.73221 | 115° | 75km/h | 16346m | -26.7m/s | -58.5°C | 1.7% | 104.8hPa | 2.5V | 02:58:00 | 00:00:00 | 00:00:00 | |
| DL0LBS | 2026-09-05 18:50:39 | 49.16918 | 8.73169 | 116° | 71km/h | 16399m | -26.8m/s | -57.9°C | 1.7% | 104.0hPa | 2.5V | 02:59:00 | 00:00:00 | 00:00:00 | |
| DM0DOS-11 | 2026-09-05 18:50:38 | 49.16978 | 8.73007 | 123° | 68km/h | 16588m | -27.6m/s | -56.6°C | 4.7% | 100.9hPa | 2.5V | 02:58:44 | 02:20:58 | 00:00:00 | |
| DK7TD | 2026-09-05 18:50:38 | 49.16934 | 8.73120 | 118° | 71km/h | 16452m | -26.7m/s | -57.4°C | 1.1% | 103hPa | 2.5V | 03:01:09 | 02:21:03 | 00:00:00 | |
| BIOWL1-15 | 2026-09-05 18:50:34 | 49.16969 | 8.73028 | 123° | 66km/h | 16561m | -26.7m/s | -56.7°C | 0.9% | 101.3hPa | 2.5V | 02:59:27 | 02:20:59 | 00:00:00 | |
| DO3MHA-11 | 2026-09-05 18:50:34 | 49.16969 | 8.73028 | 123° | 64km/h | 16561m | -26.7m/s | -56.6°C | 4.7% | 101.2hPa | 2.6V | 00:00:00 | 02:20:59 | 00:00:00 | |
| DL1ZP-14 | 2026-09-05 18:50:33 | 49.16988 | 8.72986 | 123° | 66km/h | 16615m | -27.3m/s | -56.7°C | 1.4% | 100.4hPa | 2.6V | 00:00:00 | 00:00:00 | 00:00:00 | |
| DB0ND-19 | 2026-09-05 18:50:32 | 49.16997 | 8.72964 | 122° | 66km/h | 16642m | -27.6m/s | -56.8°C | 1.5% | 100.1hPa | 2.5V | 00:00:00 | 00:00:00 | 00:00:00 | |
| DO8TBO-1 | 2026-09-05 18:50:31 | 49.16997 | 8.72964 | 123° | 53km/h | 16642m | -27.5m/s | -56.7°C | 4.8% | 100.1hPa | 2.5V | 00:00:00 | 02:20:56 | 00:00:00 | |
| DB0UT-9 | 2026-09-05 18:50:29 | 49.17006 | 8.72942 | 120° | 66km/h | 16670m | -27.0m/s | -56.9°C | 1.6% | 99.7hPa | 2.5V | 02:59:00 | 00:00:00 | 00:00:00 | |
| DM0DOS-11 | 2026-09-05 18:50:28 | 49.17051 | 8.72793 | 109° | 55km/h | 16861m | -27.4m/s | -56.5°C | 4.7% | 96.7hPa | 2.5V | 02:58:54 | 02:20:48 | 00:00:00 | |
| BIOWL1-15 | 2026-09-05 18:50:28 | 49.17046 | 8.72813 | 112° | 57km/h | 16833m | -28m/s | -56.4°C | 0.9% | 97.2hPa | 2.6V | 02:59:27 | 02:20:49 | 00:00:00 | |
| DK7TD | 2026-09-05 18:50:27 | 49.17028 | 8.72875 | 115° | 62km/h | 16751m | -27.2m/s | -56.5°C | 0.9% | 98.4hPa | 2.5V | 03:01:09 | 02:20:52 | 00:00:00 | |
| DJ2DS-15 | 2026-09-05 18:50:26 | 49.17034 | 8.72854 | 115° | 57km/h | 16778m | -27.3m/s | -56.5°C | 4.7% | 97.9hPa | 2.5V | 00:00:00 | 02:20:51 | 00:00:00 | |
| DO3MHA-11 | 2026-09-05 18:50:24 | 49.17046 | 8.72813 | 112° | 57km/h | 16834m | -27.9m/s | -56.4°C | 4.6% | 97.1hPa | 2.5V | 00:00:00 | 02:20:49 | 00:00:00 | |
| KANTATE | 2026-09-05 18:50:21 | 49.17055 | 8.72773 | 110° | 55km/h | 16889m | -27.8m/s | -56.6°C | 1.5% | 96.2hPa | 2.5V | 02:59:00 | 00:00:00 | 00:00:00 | |
| DG9SBQ-11 | 2026-09-05 18:50:20 | 49.17059 | 8.72753 | 109° | 55km/h | 16916m | -27.7m/s | -56.6°C | 1.5% | 95.9hPa | 2.5V | 02:59:00 | 00:00:00 | 00:00:00 | |
| DF3TZ-5 | 2026-09-05 18:50:19 | 49.17066 | 8.72712 | 104° | 57km/h | 16971m | -28.4m/s | -56.7°C | 1.5% | 95.0hPa | 2.5V | 00:00:00 | 00:00:00 | 00:00:00 | |
| DM0DOS-11 | 2026-09-05 18:50:18 | 49.17088 | 8.72581 | 101° | 58km/h | 17137m | -27.8m/s | -57°C | 5% | 92.6hPa | 2.5V | 02:59:04 | 02:20:38 | 00:00:00 | |
| DK7TD | 2026-09-05 18:50:16 | 49.17077 | 8.72647 | 106° | 58km/h | 17055m | -28m/s | -56.7°C | 0.9% | 93.8hPa | 2.5V | 03:01:09 | 02:20:41 | 00:00:00 | |
| BIOWL1-15 | 2026-09-05 18:50:13 | 49.17094 | 8.72538 | 104° | 57km/h | 17195m | -29m/s | -56.5°C | 1% | 91.8hPa | 2.5V | 02:59:27 | 02:20:36 | 00:00:00 | |
| DK7TD | 2026-09-05 18:50:06 | 49.17113 | 8.72434 | 107° | 55km/h | 17337m | -28.8m/s | -56.3°C | 0.8% | 89.8hPa | 2.5V | 03:01:09 | 02:20:31 | 00:00:00 | |
| BIOWL1-15 | 2026-09-05 18:50:01 | 49.17133 | 8.72338 | 105° | 49km/h | 17480m | -28m/s | -55.9°C | 0.8% | 87.8hPa | 2.5V | 02:59:27 | 02:20:26 | 00:00:00 | |
| DK7TD | 2026-09-05 18:49:55 | 49.17151 | 8.72232 | 100° | 47km/h | 17648m | -27.4m/s | -55.6°C | 0.8% | 85.3hPa | 2.6V | 03:01:09 | 02:20:20 | 00:00:00 | |
| BIOWL1-15 | 2026-09-05 18:49:49 | 49.17171 | 8.72110 | 108° | 57km/h | 17816m | -29.2m/s | -56.3°C | 0.9% | 83.3hPa | 2.5V | 03:00:18 | 02:20:14 | 00:00:00 | |
| DK7TD | 2026-09-05 18:49:45 | 49.17191 | 8.72023 | 109° | 62km/h | 17930m | -29.1m/s | -56.6°C | 1% | 81.7hPa | 2.6V | 03:01:09 | 02:20:10 | 00:00:00 | |
| BIOWL1-15 | 2026-09-05 18:49:39 | 49.17221 | 8.71896 | 110° | 51km/h | 18101m | -29.5m/s | -55.6°C | 0.7% | 79.6hPa | 2.5V | 03:00:18 | 02:20:04 | 00:00:00 | |
| BIOWL1-15 | 2026-09-05 18:49:28 | 49.17283 | 8.71710 | 125° | 53km/h | 18420m | -28.6m/s | -55.5°C | 0.6% | 75.7hPa | 2.5V | 03:00:18 | 02:19:53 | 00:00:00 | |
| DK7TD | 2026-09-05 18:49:25 | 49.17308 | 8.71663 | 133° | 49km/h | 18507m | -28.9m/s | -55.8°C | 0.7% | 74.7hPa | 2.5V | 03:01:09 | 02:19:50 | 00:00:00 | |
| DF7PN | 2026-09-05 18:49:25 | 49.17308 | 8.71663 | 132° | 47km/h | 18507m | -28.9m/s | -55.8°C | 1.2% | 74.7hPa | 2.5V | 00:00:00 | 00:00:00 | 00:00:00 | |
| DO3MHA-11 | 2026-09-05 18:49:24 | 49.17316 | 8.71649 | 134° | 40km/h | 18535m | -28.3m/s | -55.8°C | 4.4% | 74.3hPa | 2.5V | 00:00:00 | 02:19:49 | 00:00:00 | |
| DM7RM-13 | 2026-09-05 18:49:22 | 49.17324 | 8.71636 | 135° | 46km/h | 18563m | -28.5m/s | -55.9°C | 1.3% | 74.0hPa | 2.5V | 03:00:00 | 00:00:00 | 00:00:00 | |
| KANTATE | 2026-09-05 18:49:19 | 49.17347 | 8.71602 | 136° | 40km/h | 18650m | -29.9m/s | -55.4°C | 1.2% | 73.1hPa | 2.5V | 03:00:00 | 00:00:00 | 00:00:00 | |
| DO8TBO-1 | 2026-09-05 18:49:18 | 49.17362 | 8.71582 | 140° | 29km/h | 18708m | -28.2m/s | -55.5°C | 4.4% | 72.3hPa | 2.5V | 00:00:00 | 02:19:43 | 00:00:00 | |
| DM0DOS-11 | 2026-09-05 18:49:17 | 49.17406 | 8.71528 | 138° | 37km/h | 18884m | -28.7m/s | -55.8°C | 4.3% | 70.4hPa | 2.5V | 03:00:05 | 02:19:37 | 00:00:00 | |
| BIOWL1-15 | 2026-09-05 18:49:17 | 49.17369 | 8.71572 | 137° | 37km/h | 18736m | -28.4m/s | -55.6°C | 0.7% | 72.1hPa | 2.6V | 03:00:18 | 02:19:42 | 00:00:00 | |
| BIOWL1-15 | 2026-09-05 18:49:08 | 49.17441 | 8.71479 | 135° | 29km/h | 19057m | -29.9m/s | -55.8°C | 0.7% | 68.6hPa | 2.5V | 03:00:18 | 02:19:31 | 00:00:00 | |
| DK7TD | 2026-09-05 18:49:02 | 49.17462 | 8.71452 | 141° | 26km/h | 19178m | -28.8m/s | -56°C | 0.8% | 67.2hPa | 2.6V | 03:01:09 | 02:19:27 | 00:00:00 | |
| DD1CC8 | 2026-09-05 18:49:01 | 49.17472 | 8.71440 | 150° | 24km/h | 19235m | -28.9m/s | -56.0°C | 1.2% | 66.7hPa | 2.5V | 00:00:00 | 00:00:00 | 00:00:00 | |
| DB0ND-19 | 2026-09-05 18:49:00 | 49.17484 | 8.71430 | 147° | 22km/h | 19295m | -30.7m/s | -56.0°C | 1.2% | 66.1hPa | 2.5V | 00:00:00 | 00:00:00 | 00:00:00 | |
| HEMX73-11 | 2026-09-05 18:48:59 | 49.17478 | 8.71435 | 152° | 27km/h | 19265m | -30.2m/s | -56.0°C | 1.3% | 66.3hPa | 2.5V | 03:00:00 | 00:00:00 | 00:00:00 | |
| DM0DOS-11 | 2026-09-05 18:48:58 | 49.17506 | 8.71402 | 132° | 26km/h | 19449m | -30.7m/s | -56.4°C | 4.7% | 64.5hPa | 2.5V | 03:00:24 | 02:19:18 | 00:00:00 | |
| BIOWL1-15 | 2026-09-05 18:48:55 | 49.17497 | 8.71415 | 138° | 20km/h | 19388m | -30.2m/s | -56°C | 0.8% | 65.1hPa | 2.6V | 03:01:09 | 02:19:20 | 00:00:00 | |
| AU51GT2 | 2026-09-05 18:48:55 | 49.17502 | 8.71409 | 135° | 24km/h | 19419m | -30.5m/s | -56.2°C | 1.3% | 64.8hPa | 2.5V | 00:00:00 | 00:00:00 | 00:00:00 | |
| DO3MHA-11 | 2026-09-05 18:48:54 | 49.17501 | 8.71409 | 136° | 27km/h | 19419m | -30.5m/s | -56.1°C | 4.6% | 64.7hPa | 2.5V | 00:00:00 | 02:19:19 | 00:00:00 | |
| BIOWL7-15 | 2026-09-05 18:48:52 | 49.17510 | 8.71395 | 129° | 26km/h | 19479m | -29.2m/s | -56.6°C | 1.4% | 64.1hPa | 2.5V | 00:00:00 | 00:00:00 | 00:00:00 | |
| DG9SBQ-11 | 2026-09-05 18:48:49 | 49.17518 | 8.71377 | 120° | 29km/h | 19537m | -28.3m/s | -57.0°C | 1.4% | 63.5hPa | 2.5V | 03:01:00 | 00:00:00 | 00:00:00 | |
| DM0DOS-11 | 2026-09-05 18:48:48 | 49.17533 | 8.71304 | 94° | 26km/h | 19737m | -32.3m/s | -56.7°C | 5% | 61.6hPa | 2.5V | 03:00:34 | 02:19:08 | 00:00:00 | |
| BIOWL1-15 | 2026-09-05 18:48:48 | 49.17531 | 8.71324 | 101° | 29km/h | 19675m | -28.8m/s | -57.3°C | 1.2% | 62.1hPa | 2.5V | 03:01:09 | 02:19:10 | 00:00:00 | |
| DF3TZ-5 | 2026-09-05 18:48:46 | 49.17529 | 8.71334 | 110° | 27km/h | 19647m | -27.7m/s | -57.5°C | 1.5% | 62.4hPa | 2.5V | 00:00:00 | 00:00:00 | 00:00:00 | |
| DK7TD | 2026-09-05 18:48:43 | 49.17533 | 8.71304 | 95° | 26km/h | 19737m | -32.3m/s | -56.7°C | 1% | 61.6hPa | 2.5V | 03:01:09 | 02:19:08 | 00:00:00 | |
| AZAK | 2026-09-05 18:48:43 | 49.17533 | 8.71304 | 96° | 26km/h | 19737m | -32.3m/s | -56.7°C | 1.4% | 61.6hPa | 2.6V | 00:00:00 | 00:00:00 | 00:00:00 | |
| HARRO8 | 2026-09-05 18:48:41 | 49.17534 | 8.71286 | 88° | 22km/h | 19803m | -33.2m/s | -56.6°C | 1.4% | 61.0hPa | 2.6V | 00:00:00 | 00:00:00 | 00:00:00 | |
| DO3DL | 2026-09-05 18:48:39 | 49.17533 | 8.71277 | 85° | 24km/h | 19836m | -31.4m/s | -56.2°C | 1.4% | 60.6hPa | 2.6V | 03:01:00 | 00:00:00 | 00:00:00 | |
| DM0DOS-11 | 2026-09-05 18:48:38 | 49.17522 | 8.71204 | 80° | 31km/h | 20059m | -33.9m/s | -54.6°C | 4.3% | 58.6hPa | 2.6V | 03:00:44 | 02:18:58 | 00:00:00 | |
| BIOWL1-15 | 2026-09-05 18:48:34 | 49.17524 | 8.71215 | 78° | 29km/h | 20025m | -34.1m/s | -54.6°C | 0.8% | 58.9hPa | 2.6V | 03:01:09 | 02:18:59 | 00:00:00 | |
| DK7TD | 2026-09-05 18:48:32 | 49.17521 | 8.71191 | 85° | 33km/h | 20092m | -34.2m/s | -54.7°C | 0.8% | 58.3hPa | 2.5V | 03:01:09 | 02:18:57 | 00:00:00 | |
| DO3DL | 2026-09-05 18:48:31 | 49.17521 | 8.71191 | 86° | 33km/h | 20093m | -34.2m/s | -54.7°C | 1.2% | 58.3hPa | 2.5V | 03:01:00 | 00:00:00 | 00:00:00 | |
| DD1CC8 | 2026-09-05 18:48:30 | 49.17521 | 8.71149 | 92° | 37km/h | 20193m | -32.3m/s | -54.6°C | 1.2% | 57.4hPa | 2.5V | 00:00:00 | 00:00:00 | 00:00:00 | |
| DJ2DS-15 | 2026-09-05 18:48:29 | 49.17521 | 8.71149 | 92° | 37km/h | 20193m | -32.3m/s | -54.6°C | 1.2% | 57.4hPa | 2.5V | 00:00:00 | 00:00:00 | 00:00:00 | |
| DM0DOS-11 | 2026-09-05 18:48:28 | 49.17525 | 8.71063 | 94° | 33km/h | 20389m | -34m/s | -54.2°C | 4.3% | 55.7hPa | 2.5V | 03:00:54 | 02:18:48 | 00:00:00 | |
| DL1XH-west | 2026-09-05 18:48:26 | 49.17523 | 8.71104 | 91° | 40km/h | 20289m | -31.6m/s | -54.3°C | 0.7% | 56.5hPa | 2.6V | 03:01:09 | 02:18:51 | 00:00:00 | |
| BIOWL1-15 | 2026-09-05 18:48:24 | 49.17525 | 8.71076 | 95° | 37km/h | 20355m | -34m/s | -54.4°C | 0.7% | 56hPa | 2.5V | 03:01:09 | 02:18:49 | 00:00:00 | |
| DK7TD | 2026-09-05 18:48:21 | 49.17527 | 8.71038 | 105° | 29km/h | 20458m | -35.3m/s | -53.7°C | 0.5% | 55.1hPa | 2.6V | 03:01:09 | 02:18:46 | 00:00:00 | |
| DM0DOS-11 | 2026-09-05 18:48:18 | 49.17561 | 8.70951 | 132° | 40km/h | 20729m | -34m/s | -52.4°C | 3.5% | 52.8hPa | 2.5V | 03:01:04 | 02:18:38 | 00:00:00 | |
| DL1XH-west | 2026-09-05 18:48:15 | 49.17548 | 8.70974 | 129° | 35km/h | 20660m | -33.9m/s | -53.1°C | 0.4% | 53.4hPa | 2.6V | 03:01:09 | 02:18:40 | 00:00:00 | |
| BIOWL1-15 | 2026-09-05 18:48:13 | 49.17561 | 8.70951 | 132° | 40km/h | 20729m | -34m/s | -52.4°C | 0.3% | 52.8hPa | 2.5V | 03:01:09 | 02:18:38 | 00:00:00 | |
| DK7TD | 2026-09-05 18:48:09 | 49.17590 | 8.70908 | 138° | 37km/h | 20858m | -29.7m/s | -53°C | 0.4% | 51.7hPa | 2.6V | 03:01:09 | 02:18:34 | 00:00:00 | |
| DL1XH-west | 2026-09-05 18:48:05 | 49.17617 | 8.70878 | 153° | 27km/h | 20976m | -29.7m/s | -53.1°C | 0.4% | 50.8hPa | 2.6V | 03:02:00 | 02:18:30 | 00:00:00 | |
| BIOWL1-15 | 2026-09-05 18:48:03 | 49.17631 | 8.70871 | 167° | 24km/h | 21039m | -32.4m/s | -53.3°C | 0.4% | 50.3hPa | 2.5V | 03:02:00 | 02:18:28 | 00:00:00 | |
| DK7TD | 2026-09-05 18:47:59 | 49.17654 | 8.70869 | 182° | 24km/h | 21167m | -32.6m/s | -54.1°C | 0.6% | 49.3hPa | 2.5V | 03:02:51 | 02:18:24 | 00:00:00 | |
| DM0DOS-11 | 2026-09-05 18:47:58 | 49.17679 | 8.70870 | 174° | 7km/h | 21358m | -30.9m/s | -54.9°C | 4.2% | 47.8hPa | 2.5V | 03:01:24 | 02:18:18 | 00:00:00 | |
| DL1XH-west | 2026-09-05 18:47:54 | 49.17677 | 8.70870 | 181° | 9km/h | 21327m | -31.4m/s | -54.7°C | 0.6% | 48.1hPa | 2.6V | 03:02:00 | 02:18:19 | 00:00:00 | |
| DO3MHA-11 | 2026-09-05 18:47:54 | 49.17677 | 8.70870 | 182° | 7km/h | 21327m | -31.4m/s | -54.7°C | 4.1% | 48.1hPa | 2.6V | 00:00:00 | 02:18:19 | 00:00:00 | |
| DL1XH1-15 | 2026-09-05 18:47:53 | 49.17682 | 8.70862 | 66° | 5km/h | 21511m | -32.1m/s | -54.8°C | 4.3% | 46.7hPa | 2.6V | 03:01:29 | 02:18:13 | 00:00:00 | |
| BIOWL1-15 | 2026-09-05 18:47:52 | 49.17680 | 8.70869 | 157° | 7km/h | 21388m | -30.5m/s | -55.1°C | 0.7% | 47.6hPa | 2.5V | 03:02:00 | 02:18:17 | 00:00:00 | |
| DB0NH | 2026-09-05 18:47:52 | 49.17680 | 8.70869 | 157° | 9km/h | 21388m | -30.5m/s | -55.1°C | 4.3% | 47.6hPa | 2.5V | 00:00:00 | 02:18:17 | 00:00:00 | |
| DF1GD-15 | 2026-09-05 18:47:51 | 49.17680 | 8.70869 | 158° | 7km/h | 21388m | -30.5m/s | -55.1°C | 1.2% | 47.6hPa | 2.6V | 03:02:00 | 00:00:00 | 00:00:00 | |
| DO3DL | 2026-09-05 18:47:50 | 49.17682 | 8.70868 | 129° | 5km/h | 21419m | -29.4m/s | -55.2°C | 1.2% | 47.4hPa | 2.6V | 03:02:00 | 00:00:00 | 00:00:00 | |
| DM0DOS-11 | 2026-09-05 18:47:48 | 49.17673 | 8.70848 | 32° | 15km/h | 21669m | -31.5m/s | -54°C | 4% | 45.5hPa | 2.6V | 03:01:34 | 02:18:08 | 00:00:00 | |
| DK7TD | 2026-09-05 18:47:48 | 49.17682 | 8.70862 | 67° | 5km/h | 21511m | -32.1m/s | -54.8°C | 0.7% | 46.7hPa | 2.6V | 03:02:51 | 02:18:13 | 00:00:00 | |
| OE5DXL-15 | 2026-09-05 18:47:48 | 49.17682 | 8.70862 | 67° | 13km/h | 21512m | -32.0m/s | -54.8°C | 4.3% | 46.7hPa | 2.6V | 00:00:00 | 02:18:13 | 00:00:00 | |
| DB0UT-7 | 2026-09-05 18:47:47 | 49.17682 | 8.70860 | 71° | 13km/h | 21544m | -31.6m/s | -54.1°C | 4.1% | 46.4hPa | 2.6V | 03:01:00 | 02:18:12 | 00:00:00 | |
| DJ2DS-15 | 2026-09-05 18:47:46 | 49.17680 | 8.70857 | 46° | 15km/h | 21576m | -32.0m/s | -53.9°C | 4.0% | 46.2hPa | 2.5V | 00:00:00 | 02:18:11 | 00:00:00 | |
| CB1BUN | 2026-09-05 18:47:45 | 49.17681 | 8.70857 | 47° | 11km/h | 21576m | -32.1m/s | -53.9°C | 1.1% | 46.3hPa | 2.5V | 03:02:00 | 00:00:00 | 00:00:00 | |
| DO3MHA-11 | 2026-09-05 18:47:44 | 49.17676 | 8.70851 | 42° | 16km/h | 21638m | -30.7m/s | -53.8°C | 4.0% | 45.7hPa | 2.5V | 00:00:00 | 02:18:09 | 00:00:00 | |
| DL1XH1-15 | 2026-09-05 18:47:43 | 49.17660 | 8.70822 | 64° | 18km/h | 21827m | -31.7m/s | -55.3°C | 4.5% | 44.5hPa | 2.6V | 03:01:39 | 02:18:03 | 00:00:00 | |
| DL1XH-west | 2026-09-05 18:47:43 | 49.17673 | 8.70848 | 32° | 15km/h | 21669m | -31.5m/s | -54.1°C | 0.5% | 45.5hPa | 2.6V | 03:02:00 | 02:18:08 | 00:00:00 | |
| BIOWL1-15 | 2026-09-05 18:47:41 | 49.17668 | 8.70840 | 59° | 16km/h | 21732m | -31.5m/s | -54.5°C | 0.6% | 45.1hPa | 2.5V | 03:02:00 | 02:18:06 | 00:00:00 | |
| DM7RM-13 | 2026-09-05 18:47:40 | 49.17668 | 8.70840 | 60° | 16km/h | 21733m | -31.5m/s | -54.5°C | 1.1% | 45.2hPa | 2.5V | 03:02:00 | 00:00:00 | 00:00:00 | |
| HARRO8 | 2026-09-05 18:47:39 | 49.17663 | 8.70828 | 56° | 16km/h | 21796m | -32.5m/s | -55.0°C | 1.2% | 44.7hPa | 2.5V | 00:00:00 | 00:00:00 | 00:00:00 | |
| DM0DOS-11 | 2026-09-05 18:47:38 | 49.17658 | 8.70787 | 97° | 13km/h | 21982m | -30.8m/s | -55.2°C | 4.5% | 43.4hPa | 2.5V | 03:01:44 | 02:17:58 | 00:00:00 | |
| DO3DL | 2026-09-05 18:47:37 | 49.17660 | 8.70822 | 65° | 18km/h | 21828m | -31.7m/s | -55.3°C | 1.2% | 44.5hPa | 2.5V | 03:02:00 | 00:00:00 | 00:00:00 | |
| DG9SBQ-11 | 2026-09-05 18:47:36 | 49.17658 | 8.70815 | 79° | 18km/h | 21859m | -31.1m/s | -55.5°C | 1.2% | 44.3hPa | 2.5V | 03:02:00 | 00:00:00 | 00:00:00 | |
| KANTATE | 2026-09-05 18:47:35 | 49.17658 | 8.70808 | 89° | 20km/h | 21890m | -31.6m/s | -55.6°C | 1.2% | 44.0hPa | 2.5V | 03:02:00 | 00:00:00 | 00:00:00 | |
| DO3MHA-11 | 2026-09-05 18:47:34 | 49.17658 | 8.70793 | 92° | 11km/h | 21952m | -30.7m/s | -55.2°C | 4.6% | 43.5hPa | 2.5V | 00:00:00 | 02:17:59 | 00:00:00 | |
| DL1XH1-15 | 2026-09-05 18:47:33 | 49.17669 | 8.70777 | 188° | 11km/h | 22144m | -34m/s | -54.4°C | 4.2% | 42.4hPa | 2.5V | 03:01:49 | 02:17:53 | 00:00:00 | |
| BIOWL1-15 | 2026-09-05 18:47:32 | 49.17663 | 8.70777 | 169° | 11km/h | 22077m | -33.1m/s | -54.8°C | 0.7% | 42.8hPa | 2.6V | 03:02:00 | 02:17:55 | 00:00:00 | |
| DL1XH-west | 2026-09-05 18:47:32 | 49.17659 | 8.70783 | 131° | 13km/h | 22013m | -31.1m/s | -55.2°C | 0.8% | 43.2hPa | 2.5V | 03:02:00 | 02:17:57 | 00:00:00 | |
| DF1GD-15 | 2026-09-05 18:47:31 | 49.17659 | 8.70783 | 132° | 13km/h | 22013m | -31.1m/s | -55.2°C | 1.2% | 43.2hPa | 2.6V | 03:02:00 | 00:00:00 | 00:00:00 | |
| DL3AQ-11 | 2026-09-05 18:47:30 | 49.17666 | 8.70777 | 171° | 11km/h | 22110m | -34.5m/s | -54.6°C | 1.1% | 42.5hPa | 2.6V | 00:00:00 | 00:00:00 | 00:00:00 | |
| DO8TBO-1 | 2026-09-05 18:47:28 | 49.17669 | 8.70777 | 189° | 11km/h | 22145m | -34.0m/s | -54.3°C | 4.2% | 42.3hPa | 2.6V | 00:00:00 | 02:17:53 | 00:00:00 | |
| DD1CC8 | 2026-09-05 18:47:27 | 49.17672 | 8.70778 | 200° | 11km/h | 22178m | -32.3m/s | -54.1°C | 1.1% | 42.0hPa | 2.6V | 00:00:00 | 00:00:00 | 00:00:00 | |
| DJ2DS-15 | 2026-09-05 18:47:26 | 49.17674 | 8.70780 | 213° | 9km/h | 22210m | -31.2m/s | -53.8°C | 4.0% | 41.9hPa | 2.6V | 03:01:00 | 02:17:51 | 00:00:00 | |
| DK5PH-5 | 2026-09-05 18:47:25 | 49.17676 | 8.70782 | 223° | 11km/h | 22242m | -32.5m/s | -53.6°C | 4.0% | 41.6hPa | 2.6V | 03:01:00 | 02:17:50 | 00:00:00 | |
| DO3MHA-11 | 2026-09-05 18:47:24 | 49.17677 | 8.70784 | 230° | 7km/h | 22275m | -32.7m/s | -53.5°C | 4.0% | 41.4hPa | 2.6V | 03:01:00 | 02:17:49 | 00:00:00 | |
| DL1XH1-15 | 2026-09-05 18:47:23 | 49.17683 | 8.70781 | 129° | 5km/h | 22471m | -35.5m/s | -53.7°C | 3.9% | 40.3hPa | 2.6V | 03:01:59 | 02:17:43 | 00:00:00 | |
| BIOWL1-15 | 2026-09-05 18:47:23 | 49.17683 | 8.70783 | 112° | 7km/h | 22437m | -33.8m/s | -53.5°C | 0.4% | 40.5hPa | 2.6V | 03:02:00 | 02:17:44 | 00:00:00 | |
| DL1XH-west | 2026-09-05 18:47:22 | 49.17681 | 8.70786 | 173° | 5km/h | 22339m | -31.9m/s | -53.2°C | 0.4% | 41.1hPa | 2.5V | 03:02:00 | 02:17:47 | 00:00:00 | |
| DK7TD | 2026-09-05 18:47:21 | 49.17681 | 8.70786 | 135° | 4km/h | 22371m | -32.8m/s | -53.1°C | 0.3% | 40.8hPa | 2.5V | 03:02:51 | 02:17:46 | 00:00:00 | |
| DF7PN | 2026-09-05 18:47:21 | 49.17682 | 8.70785 | 139° | 2km/h | 22404m | -32.3m/s | -53.3°C | 1.0% | 40.6hPa | 2.6V | 00:00:00 | 00:00:00 | 00:00:00 | |
| DG9SBQ-11 | 2026-09-05 18:47:19 | 49.17682 | 8.70785 | 141° | 2km/h | 22404m | -32.3m/s | -53.3°C | 1.0% | 40.6hPa | 2.6V | 03:02:00 | 00:00:00 | 00:00:00 | |
| DM0DOS-11 | 2026-09-05 18:47:18 | 49.17688 | 8.70762 | 91° | 11km/h | 22645m | -35.3m/s | -54.8°C | 4.4% | 39.2hPa | 2.6V | 03:02:04 | 02:17:38 | 00:00:00 | |
| DL1XH-west | 2026-09-05 18:47:12 | 49.17688 | 8.70757 | 90° | 13km/h | 22680m | -34.3m/s | -54.8°C | 0.8% | 39hPa | 2.6V | 03:02:51 | 02:17:37 | 00:00:00 | |
| BIOWL1-15 | 2026-09-05 18:47:10 | 49.17691 | 8.70737 | 108° | 13km/h | 22815m | -34.6m/s | -54.3°C | 0.7% | 38.2hPa | 2.5V | 03:02:51 | 02:17:33 | 00:00:00 | |
| DM0DOS-11 | 2026-09-05 18:47:08 | 49.17702 | 8.70718 | 154° | 13km/h | 22990m | -33.9m/s | -54.6°C | 4.5% | 37.1hPa | 2.5V | 03:02:14 | 02:17:28 | 00:00:00 | |
| DL1XH-west | 2026-09-05 18:47:01 | 49.17707 | 8.70713 | 151° | 11km/h | 23057m | -34m/s | -54.8°C | 0.9% | 36.7hPa | 2.6V | 03:02:51 | 02:17:26 | 00:00:00 | |
| DK7TD | 2026-09-05 18:46:59 | 49.17711 | 8.70709 | 149° | 11km/h | 23127m | -35.8m/s | -54.4°C | 0.8% | 36.3hPa | 2.5V | 03:02:51 | 02:17:24 | 00:00:00 | |
| DL1XH-15 | 2026-09-05 18:46:58 | 49.17727 | 8.70693 | 164° | 16km/h | 23362m | -41.1m/s | -53.5°C | 4.1% | 35.2hPa | 2.5V | 03:02:24 | 02:17:18 | 00:00:00 | |
| BIOWL1-15 | 2026-09-05 18:46:57 | 49.17715 | 8.70703 | 138° | 9km/h | 23200m | -37.9m/s | -54.1°C | 0.8% | 35.9hPa | 2.5V | 03:02:51 | 02:17:22 | 00:00:00 | |
| DD1CC8 | 2026-09-05 18:46:56 | 49.17718 | 8.70700 | 138° | 13km/h | 23239m | -39.8m/s | -53.9°C | 1.1% | 35.8hPa | 2.6V | 00:00:00 | 00:00:00 | 00:00:00 | |
| DM0DOS-11 | 2026-09-05 18:46:55 | 49.17738 | 8.70691 | 189° | 16km/h | 23481m | -39.4m/s | -52.9°C | 4% | 34.5hPa | 2.6V | 03:02:27 | 02:17:15 | 00:00:00 | |
| DL1XH-west | 2026-09-05 18:46:51 | 49.17734 | 8.70690 | 175° | 11km/h | 23443m | -39.2m/s | -53.2°C | 0.6% | 34.6hPa | 2.6V | 03:02:51 | 02:17:16 | 00:00:00 | |
| AU51GT2 | 2026-09-05 18:46:51 | 49.17738 | 8.70691 | 189° | 15km/h | 23482m | -39.4m/s | -52.9°C | 1.0% | 34.5hPa | 2.6V | 00:00:00 | 00:00:00 | 00:00:00 | |
| DO3DL | 2026-09-05 18:46:50 | 49.17738 | 8.70690 | 190° | 16km/h | 23482m | -39.4m/s | -52.9°C | 1.0% | 34.5hPa | 2.6V | 03:02:00 | 00:00:00 | 00:00:00 | |
| DL1XH1-15 | 2026-09-05 18:46:49 | 49.17756 | 8.70707 | 230° | 9km/h | 23709m | -37.6m/s | -52.4°C | 3.8% | 33.2hPa | 2.6V | 03:02:33 | 02:17:09 | 00:00:00 | |
| DK7TD | 2026-09-05 18:46:49 | 49.17741 | 8.70692 | 195° | 16km/h | 23521m | -38.8m/s | -52.8°C | 0.5% | 34.2hPa | 2.6V | 03:02:51 | 02:17:14 | 00:00:00 | |
| BIOWL1-15 | 2026-09-05 18:46:46 | 49.17751 | 8.70701 | 213° | 15km/h | 23634m | -37.8m/s | -52.4°C | 0.5% | 33.6hPa | 2.5V | 03:02:51 | 02:17:11 | 00:00:00 | |
| DJ2DS-15 | 2026-09-05 18:46:46 | 49.17751 | 8.70701 | 214° | 13km/h | 23634m | -37.7m/s | -52.4°C | 3.8% | 33.5hPa | 2.5V | 00:00:00 | 02:17:11 | 00:00:00 | |
| DM0DOS-11 | 2026-09-05 18:46:44 | 49.17755 | 8.70709 | 53° | 11km/h | 23896m | -38.1m/s | -52.6°C | 4% | 32.3hPa | 2.5V | 03:02:38 | 02:17:04 | 00:00:00 | |
| DL1XH-west | 2026-09-05 18:46:41 | 49.17757 | 8.70712 | 13° | 2km/h | 23821m | -36.9m/s | -52.6°C | 0.5% | 32.7hPa | 2.5V | 03:02:51 | 02:17:06 | 00:00:00 | |
| DK7TD | 2026-09-05 18:46:39 | 49.17755 | 8.70709 | 54° | 11km/h | 23896m | -38.1m/s | -52.6°C | 0.6% | 32.3hPa | 2.5V | 03:02:51 | 02:17:04 | 00:00:00 | |
| BIOWL1-15 | 2026-09-05 18:46:38 | 49.17749 | 8.70696 | 74° | 16km/h | 24008m | -36.9m/s | -52.5°C | 0.6% | 31.7hPa | 2.5V | 03:02:51 | 02:17:01 | 00:00:00 | |
| DJ2KF-10 | 2026-09-05 18:46:38 | 49.17753 | 8.70705 | 48° | 16km/h | 23934m | -36.5m/s | -52.6°C | 4.0% | 32.0hPa | 2.5V | 00:00:00 | 02:17:03 | 00:00:00 | |
| NBG1-10 | 2026-09-05 18:46:37 | 49.17751 | 8.70701 | 62° | 15km/h | 23971m | -37.8m/s | -52.5°C | 3.9% | 31.8hPa | 2.5V | 00:00:00 | 02:17:02 | 00:00:00 | |
| DO3DL | 2026-09-05 18:46:36 | 49.17749 | 8.70696 | 75° | 16km/h | 24008m | -36.9m/s | -52.5°C | 1.0% | 31.7hPa | 2.5V | 03:02:00 | 00:00:00 | 00:00:00 | |
| BIOWL7-15 | 2026-09-05 18:46:35 | 49.17749 | 8.70696 | 75° | 16km/h | 24008m | -36.9m/s | -52.5°C | 1.0% | 31.7hPa | 2.5V | 03:02:00 | 00:00:00 | 00:00:00 | |
| DO3MHA-11 | 2026-09-05 18:46:34 | 49.17748 | 8.70684 | 87° | 15km/h | 24082m | -35.8m/s | -52.9°C | 4.2% | 31.3hPa | 2.5V | 00:00:00 | 02:16:59 | 00:00:00 | |
| DL3AQ-11 | 2026-09-05 18:46:33 | 49.17748 | 8.70679 | 109° | 13km/h | 24117m | -36.8m/s | -53.0°C | 1.1% | 31.2hPa | 2.5V | 00:00:00 | 00:00:00 | 00:00:00 | |
| DG9SBQ-11 | 2026-09-05 18:46:31 | 49.17750 | 8.70667 | 111° | 16km/h | 24194m | -38.2m/s | -52.8°C | 1.0% | 30.8hPa | 2.5V | 03:02:00 | 00:00:00 | 00:00:00 | |
| DL1XH-west | 2026-09-05 18:46:31 | 49.17752 | 8.70662 | 126° | 15km/h | 24232m | -39.3m/s | -52.6°C | 0.6% | 30.6hPa | 2.5V | 03:02:51 | 02:16:55 | 00:00:00 | |
| KANTATE | 2026-09-05 18:46:30 | 49.17752 | 8.70662 | 127° | 15km/h | 24232m | -39.3m/s | -52.6°C | 1.0% | 30.6hPa | 2.5V | 03:02:00 | 00:00:00 | 00:00:00 | |
| DF1GD-15 | 2026-09-05 18:46:29 | 49.17752 | 8.70662 | 127° | 15km/h | 24232m | -39.3m/s | -52.6°C | 1.1% | 30.6hPa | 2.5V | 03:02:00 | 00:00:00 | 00:00:00 | |
| DM0DOS-11 | 2026-09-05 18:46:28 | 49.17768 | 8.70629 | 139° | 20km/h | 24510m | -38.5m/s | -52°C | 4% | 29.4hPa | 2.5V | 03:02:54 | 02:16:48 | 00:00:00 | |
| DK7TD | 2026-09-05 18:46:28 | 49.17756 | 8.70652 | 119° | 15km/h | 24312m | -40.4m/s | -52.3°C | 0.6% | 30.3hPa | 2.5V | 03:02:51 | 02:16:53 | 00:00:00 | |
| DJ2DS-15 | 2026-09-05 18:46:26 | 49.17761 | 8.70642 | 137° | 16km/h | 24395m | -40.5m/s | -52.1°C | 4.0% | 29.9hPa | 2.5V | 00:00:00 | 02:16:51 | 00:00:00 | |
| DK5PH-5 | 2026-09-05 18:46:25 | 49.17763 | 8.70638 | 121° | 15km/h | 24435m | -38.2m/s | -52.1°C | 4.0% | 29.7hPa | 2.5V | 00:00:00 | 02:16:50 | 00:00:00 | |
| BIOWL1-15 | 2026-09-05 18:46:25 | 49.17763 | 8.70638 | 120° | 15km/h | 24434m | -38.3m/s | -52.1°C | 0.6% | 29.7hPa | 2.5V | 03:03:42 | 02:16:50 | 00:00:00 | |
| DO3MHA-11 | 2026-09-05 18:46:24 | 49.17765 | 8.70633 | 132° | 20km/h | 24472m | -37.8m/s | -52.0°C | 4.0% | 29.5hPa | 2.6V | 00:00:00 | 02:16:49 | 00:00:00 | |
| DB0ND-19 | 2026-09-05 18:46:23 | 49.17768 | 8.70629 | 139° | 18km/h | 24510m | -38.5m/s | -52.0°C | 1.0% | 29.4hPa | 2.6V | 00:00:00 | 00:00:00 | 00:00:00 | |
| CB1BUN | 2026-09-05 18:46:22 | 49.17768 | 8.70629 | 141° | 20km/h | 24510m | -38.5m/s | -52.0°C | 1.0% | 29.4hPa | 2.6V | 03:03:00 | 00:00:00 | 00:00:00 | |
| DB0NH | 2026-09-05 18:46:21 | 49.17776 | 8.70619 | 154° | 13km/h | 24585m | -37.1m/s | -51.8°C | 4.0% | 29.0hPa | 2.6V | 00:00:00 | 02:16:46 | 00:00:00 | |
| AU51GT2 | 2026-09-05 18:46:20 | 49.17787 | 8.70613 | 164° | 24km/h | 24659m | -36.6m/s | -51.6°C | -1.0% | 28.6hPa | 2.5V | 00:00:00 | 00:00:00 | 00:00:00 | |
| DL1XH-west | 2026-09-05 18:46:19 | 49.17787 | 8.70613 | 165° | 24km/h | 24659m | -36.6m/s | -51.6°C | 0.5% | 28.6hPa | 2.5V | 03:03:42 | 02:16:44 | 00:00:00 | |
| DF7PN | 2026-09-05 18:46:19 | 49.17792 | 8.70612 | 174° | 18km/h | 24696m | -37.3m/s | -51.2°C | 0.9% | 28.5hPa | 2.5V | 00:00:00 | 00:00:00 | 00:00:00 | |
| DM0DOS-11 | 2026-09-05 18:46:18 | 49.17813 | 8.70623 | 226° | 15km/h | 24885m | -38m/s | -50.6°C | 3.7% | 27.7hPa | 2.5V | 03:03:04 | 02:16:38 | 00:00:00 | |
| DK7TD | 2026-09-05 18:46:18 | 49.17792 | 8.70612 | 174° | 18km/h | 24695m | -37.3m/s | -51.2°C | 0.5% | 28.5hPa | 2.5V | 03:07:06 | 02:16:43 | 00:00:00 | |
| BIOWL1-15 | 2026-09-05 18:46:14 | 49.17810 | 8.70619 | 209° | 18km/h | 24848m | -37.5m/s | -50.6°C | 0.4% | 27.9hPa | 2.5V | 03:03:42 | 02:16:39 | 00:00:00 | |
| DL1XH-west | 2026-09-05 18:46:09 | 49.17820 | 8.70637 | 271° | 7km/h | 25039m | -39.1m/s | -50°C | 0.3% | 27hPa | 2.6V | 03:03:42 | 02:16:34 | 00:00:00 | |
| DM0DOS-11 | 2026-09-05 18:46:08 | 49.17828 | 8.70635 | 158° | 9km/h | 25272m | -37.3m/s | -50.4°C | 3.6% | 26.1hPa | 2.5V | 03:03:14 | 02:16:28 | 00:00:00 | |
| BIOWL1-15 | 2026-09-05 18:46:08 | 49.17826 | 8.70636 | 148° | 11km/h | 25234m | -38.7m/s | -50.2°C | 0.3% | 26.2hPa | 2.6V | 03:03:42 | 02:16:29 | 00:00:00 | |
| DK7TD | 2026-09-05 18:46:07 | 49.17821 | 8.70640 | 175° | 5km/h | 25118m | -39.7m/s | -49.9°C | 0.2% | 26.8hPa | 2.5V | 03:07:06 | 02:16:32 | 00:00:00 | |
| DJ2DS-15 | 2026-09-05 18:46:06 | 49.17822 | 8.70640 | 153° | 11km/h | 25158m | -39.0m/s | -49.9°C | 3.5% | 26.5hPa | 2.6V | 03:03:00 | 02:16:31 | 00:00:00 | |
| DO3MHA-11 | 2026-09-05 18:46:04 | 49.17825 | 8.70636 | 149° | 11km/h | 25234m | -38.6m/s | -50.2°C | 3.5% | 26.2hPa | 2.6V | 03:03:00 | 02:16:29 | 00:00:00 | |
| DG9SBQ-11 | 2026-09-05 18:46:03 | 49.17828 | 8.70635 | 160° | 9km/h | 25273m | -37.3m/s | -50.4°C | 0.9% | 26.1hPa | 2.6V | 03:03:00 | 00:00:00 | 00:00:00 | |
| DO3DL | 2026-09-05 18:46:01 | 49.17830 | 8.70634 | 170° | 13km/h | 25310m | -37.6m/s | -50.5°C | 0.9% | 25.9hPa | 2.6V | 03:03:00 | 00:00:00 | 00:00:00 | |
| DB0UT-9 | 2026-09-05 18:46:00 | 49.17833 | 8.70632 | 163° | 13km/h | 25349m | -40.5m/s | -50.4°C | 0.9% | 25.8hPa | 2.6V | 03:03:00 | 00:00:00 | 00:00:00 | |
| DL1XH1-15 | 2026-09-05 18:45:59 | 49.17853 | 8.70632 | 168° | 11km/h | 25627m | -39.8m/s | -49.7°C | 3.5% | 24.7hPa | 2.6V | 03:03:23 | 02:16:19 | 00:00:00 | |
| DL1XH-west | 2026-09-05 18:45:59 | 49.17840 | 8.70631 | 183° | 11km/h | 25429m | -39.7m/s | -50°C | 0.3% | 25.5hPa | 2.6V | 03:03:42 | 02:16:24 | 00:00:00 | |
| BIOWL1-15 | 2026-09-05 18:45:55 | 49.17855 | 8.70631 | 166° | 11km/h | 25666m | -38.9m/s | -49.8°C | 0.3% | 24.5hPa | 2.6V | 03:03:42 | 02:16:18 | 00:00:00 | |
| DL3AQ-11 | 2026-09-05 18:45:54 | 49.17855 | 8.70631 | 165° | 9km/h | 25666m | -38.9m/s | -49.8°C | 0.9% | 24.5hPa | 2.5V | 00:00:00 | 00:00:00 | 00:00:00 | |
| DL6DJ-15 | 2026-09-05 18:45:53 | 49.17858 | 8.70630 | 166° | 11km/h | 25704m | -38.2m/s | -49.9°C | 0.9% | 24.4hPa | 2.5V | 00:00:00 | 00:00:00 | 00:00:00 | |
| DB0ND-19 | 2026-09-05 18:45:52 | 49.17858 | 8.70630 | 166° | 11km/h | 25704m | -38.2m/s | -49.9°C | 0.9% | 24.4hPa | 2.5V | 00:00:00 | 00:00:00 | 00:00:00 | |
| DB0NH | 2026-09-05 18:45:51 | 49.17861 | 8.70629 | 181° | 13km/h | 25742m | -37.3m/s | -49.9°C | 3.7% | 24.2hPa | 2.5V | 00:00:00 | 02:16:16 | 00:00:00 | |
| DG9SBQ-11 | 2026-09-05 18:45:50 | 49.17861 | 8.70629 | 182° | 13km/h | 25742m | -37.4m/s | -49.9°C | 0.9% | 24.3hPa | 2.5V | 03:03:00 | 00:00:00 | 00:00:00 | |
| DL1XH1-15 | 2026-09-05 18:45:49 | 49.17881 | 8.70627 | 163° | 9km/h | 26000m | -37.2m/s | -49.2°C | 3.6% | 23.3hPa | 2.5V | 03:03:33 | 02:16:09 | 00:00:00 | |
| DL1XH-west | 2026-09-05 18:45:49 | 49.17867 | 8.70629 | 180° | 11km/h | 25816m | -37.2m/s | -49.8°C | 0.4% | 24hPa | 2.6V | 03:03:42 | 02:16:14 | 00:00:00 | |
| AU51GT2 | 2026-09-05 18:45:49 | 49.17870 | 8.70629 | 183° | 13km/h | 25853m | -36.6m/s | -49.7°C | -1.0% | -1.0hPa | 2.6V | 00:00:00 | 00:00:00 | 00:00:00 | |
| DF7PN | 2026-09-05 18:45:48 | 49.17873 | 8.70629 | 176° | 13km/h | 25890m | -37.1m/s | -49.6°C | 0.9% | 23.6hPa | 2.6V | 00:00:00 | 00:00:00 | 00:00:00 | |
| BIOWL1-15 | 2026-09-05 18:45:47 | 49.17883 | 8.70625 | 145° | 11km/h | 26037m | -37.1m/s | -49.1°C | 0.3% | 23.2hPa | 2.6V | 03:03:42 | 02:16:08 | 00:00:00 | |
| DB0UT-7 | 2026-09-05 18:45:47 | 49.17873 | 8.70629 | 177° | 13km/h | 25890m | -37.1m/s | -49.6°C | 3.7% | 23.6hPa | 2.5V | 03:03:00 | 02:16:12 | 00:00:00 | |
| DJ2DS-15 | 2026-09-05 18:45:46 | 49.17876 | 8.70628 | 167° | 13km/h | 25927m | -36.4m/s | -49.5°C | 3.7% | 23.5hPa | 2.5V | 00:00:00 | 02:16:11 | 00:00:00 | |
| DG9SBQ-11 | 2026-09-05 18:45:45 | 49.17876 | 8.70628 | 167° | 13km/h | 25927m | -36.5m/s | -49.5°C | 0.9% | 23.6hPa | 2.5V | 03:03:00 | 00:00:00 | 00:00:00 | |
| DO3MHA-11 | 2026-09-05 18:45:44 | 49.17881 | 8.70627 | 164° | 11km/h | 26000m | -37.2m/s | -49.2°C | 3.6% | 23.3hPa | 2.5V | 00:00:00 | 02:16:09 | 00:00:00 | |
| DH7VM-15 | 2026-09-05 18:45:42 | 49.17885 | 8.70623 | 141° | 7km/h | 26074m | -37.1m/s | -48.9°C | 0.9% | 23.1hPa | 2.5V | 00:00:00 | 00:00:00 | 00:00:00 | |
| SONDE2-11 | 2026-09-05 18:45:41 | 49.17888 | 8.70618 | 132° | 7km/h | 26151m | -39.7m/s | -49.0°C | 0.8% | 22.8hPa | 2.5V | 00:00:00 | 00:00:00 | 00:00:00 | |
| DF3TZ-5 | 2026-09-05 18:45:40 | 49.17890 | 8.70616 | 150° | 7km/h | 26190m | -40.2m/s | -49.0°C | 0.8% | 22.7hPa | 2.5V | 00:00:00 | 00:00:00 | 00:00:00 | |
| DL1XH1-15 | 2026-09-05 18:45:39 | 49.17905 | 8.70605 | 166° | 16km/h | 26387m | -39.8m/s | -48°C | 3.4% | 22hPa | 2.5V | 03:03:43 | 02:15:59 | 00:00:00 | |
| DL1XH-west | 2026-09-05 18:45:38 | 49.17892 | 8.70614 | 155° | 13km/h | 26230m | -40.1m/s | -48.7°C | 0.3% | 22.6hPa | 2.6V | 03:03:42 | 02:16:03 | 00:00:00 | |
| SONCRA | 2026-09-05 18:45:36 | 49.17898 | 8.70609 | 147° | 13km/h | 26309m | -39.8m/s | -48.4°C | 0.8% | 22.3hPa | 2.5V | 00:00:00 | 00:00:00 | 00:00:00 | |
| HARRO8 | 2026-09-05 18:45:35 | 49.17901 | 8.70607 | 159° | 13km/h | 26348m | -39.6m/s | -48.3°C | 0.8% | 22.1hPa | 2.5V | 00:00:00 | 00:00:00 | 00:00:00 | |
| DO3MHA-11 | 2026-09-05 18:45:34 | 49.17905 | 8.70605 | 167° | 16km/h | 26388m | -39.7m/s | -48.0°C | 3.4% | 22.0hPa | 2.5V | 00:00:00 | 02:15:59 | 00:00:00 | |
| DM0DOS-11 | 2026-09-05 18:45:33 | 49.17929 | 8.70606 | 193° | 16km/h | 26626m | -40.5m/s | -46.7°C | 3% | 21.2hPa | 2.5V | 03:03:49 | 02:15:53 | 00:00:00 | |
| BIOWL1-15 | 2026-09-05 18:45:32 | 49.17913 | 8.70603 | 171° | 16km/h | 26467m | -40.4m/s | -47.5°C | 0.1% | 21.8hPa | 2.6V | 03:04:33 | 02:15:57 | 00:00:00 | |
| AZAK | 2026-09-05 18:45:32 | 49.17913 | 8.70603 | 172° | 16km/h | 26467m | -40.4m/s | -47.5°C | 0.8% | 21.8hPa | 2.6V | 00:00:00 | 00:00:00 | 00:00:00 | |
| NBG1-10 | 2026-09-05 18:45:31 | 49.17917 | 8.70602 | 185° | 11km/h | 26507m | -40.2m/s | -47.2°C | 3.2% | 21.6hPa | 2.6V | 03:03:00 | 02:15:56 | 00:00:00 | |
| DL3AQ-11 | 2026-09-05 18:45:30 | 49.17925 | 8.70605 | 192° | 18km/h | 26586m | -40.9m/s | -46.9°C | 0.7% | 21.4hPa | 2.5V | 00:00:00 | 00:00:00 | 00:00:00 | |
| DL1XH1-15 | 2026-09-05 18:45:29 | 49.17942 | 8.70614 | 208° | 13km/h | 26785m | -40.3m/s | -46.6°C | 3% | 20.7hPa | 2.5V | 03:03:53 | 02:15:49 | 00:00:00 | |
| DL1XH-15 | 2026-09-05 18:45:28 | 49.17945 | 8.70616 | 200° | 13km/h | 26825m | -40.8m/s | -46.6°C | 3% | 20.6hPa | 2.5V | 03:03:54 | 02:15:48 | 00:00:00 | |
| DL1XH-west | 2026-09-05 18:45:28 | 49.17929 | 8.70606 | 194° | 16km/h | 26626m | -40.5m/s | -46.7°C | 0% | 21.2hPa | 2.5V | 03:04:33 | 02:15:53 | 00:00:00 | |
| DF1GD-15 | 2026-09-05 18:45:27 | 49.17929 | 8.70606 | 195° | 16km/h | 26627m | -40.5m/s | -46.7°C | 0.7% | 21.2hPa | 2.5V | 03:04:00 | 00:00:00 | 00:00:00 | |
| DJ2DS-15 | 2026-09-05 18:45:26 | 49.17936 | 8.70610 | 209° | 11km/h | 26706m | -39.8m/s | -46.4°C | 3.0% | 20.9hPa | 2.5V | 00:00:00 | 02:15:51 | 00:00:00 | |
| DK5PH-5 | 2026-09-05 18:45:25 | 49.17940 | 8.70612 | 196° | 11km/h | 26746m | -39.9m/s | -46.5°C | 3.0% | 20.8hPa | 2.5V | 03:03:00 | 02:15:50 | 00:00:00 | |
| DO3MHA-11 | 2026-09-05 18:45:24 | 49.17942 | 8.70614 | 209° | 7km/h | 26785m | -40.3m/s | -46.5°C | 3.0% | 20.7hPa | 2.5V | 03:03:00 | 02:15:49 | 00:00:00 | |
| DM0DOS-11 | 2026-09-05 18:45:23 | 49.17955 | 8.70620 | 137° | 4km/h | 27025m | -39.3m/s | -46.8°C | 3.1% | 20hPa | 2.5V | 03:03:59 | 02:15:43 | 00:00:00 | |
| DK7TD | 2026-09-05 18:45:23 | 49.17945 | 8.70616 | 201° | 13km/h | 26825m | -40.8m/s | -46.6°C | 0% | 20.6hPa | 2.5V | 03:07:06 | 02:15:48 | 00:00:00 | |
| BIOWL1-15 | 2026-09-05 18:45:22 | 49.17948 | 8.70618 | 213° | 9km/h | 26866m | -41.5m/s | -46.7°C | 0% | 20.5hPa | 2.5V | 03:04:33 | 02:15:47 | 00:00:00 | |
| DL6DJ-15 | 2026-09-05 18:45:22 | 49.17950 | 8.70619 | 204° | 7km/h | 26907m | -41.1m/s | -46.9°C | 0.7% | 20.3hPa | 2.6V | 00:00:00 | 00:00:00 | 00:00:00 | |
| DB0NH | 2026-09-05 18:45:21 | 49.17950 | 8.70619 | 205° | 15km/h | 26908m | -41.0m/s | -46.8°C | 3.0% | 20.3hPa | 2.6V | 00:00:00 | 02:15:46 | 00:00:00 | |
| DO8TBO-1 | 2026-09-05 18:45:20 | 49.17951 | 8.70620 | 200° | 26km/h | 26948m | -39.7m/s | -47.0°C | 3.1% | 20.2hPa | 2.6V | 00:00:00 | 02:15:45 | 00:00:00 | |
| DL1XH1-15 | 2026-09-05 18:45:19 | 49.17957 | 8.70611 | 101° | 9km/h | 27195m | -43.5m/s | -45.9°C | 2.9% | 19.5hPa | 2.5V | 03:04:03 | 02:15:39 | 00:00:00 | |
| BIOWL1-15 | 2026-09-05 18:45:19 | 49.17961 | 8.70600 | 120° | 15km/h | 27325m | -44.3m/s | -45.4°C | 0% | 19.1hPa | 2.6V | 03:04:33 | 02:15:36 | 00:00:00 | |
| DL1XH-west | 2026-09-05 18:45:18 | 49.17955 | 8.70620 | 138° | 4km/h | 27025m | -39.3m/s | -46.8°C | 0% | 20hPa | 2.5V | 03:04:33 | 02:15:43 | 00:00:00 | |
| DL1XH-15 | 2026-09-05 18:45:17 | 49.17959 | 8.70604 | 129° | 11km/h | 27281m | -44.2m/s | -45.4°C | 2.7% | 19.3hPa | 2.6V | 03:04:05 | 02:15:37 | 00:00:00 | |
| DB0UT-7 | 2026-09-05 18:45:17 | 49.17955 | 8.70619 | 110° | 13km/h | 27066m | -41.6m/s | -46.6°C | 3.0% | 19.8hPa | 2.5V | 00:00:00 | 00:00:00 | 00:00:00 | |
| DF7PN | 2026-09-05 18:45:16 | 49.17955 | 8.70617 | 119° | 4km/h | 27108m | -43.2m/s | -46.4°C | 0.7% | 19.8hPa | 2.5V | 00:00:00 | 00:00:00 | 00:00:00 | |
| DJ2KF-10 | 2026-09-05 18:45:15 | 49.17956 | 8.70615 | 112° | 15km/h | 27151m | -44.3m/s | -46.0°C | 2.9% | 19.6hPa | 2.5V | 03:04:00 | 02:15:40 | 00:00:00 | |
| DO3MHA-11 | 2026-09-05 18:45:14 | 49.17957 | 8.70611 | 102° | 13km/h | 27195m | -43.5m/s | -45.9°C | 2.9% | 19.4hPa | 2.5V | 00:00:00 | 02:15:39 | 00:00:00 | |
| DM0DOS-11 | 2026-09-05 18:45:13 | 49.17967 | 8.70588 | 150° | 15km/h | 27455m | -44.8m/s | -45.9°C | 2.8% | 18.7hPa | 2.5V | 03:04:09 | 02:15:33 | 00:00:00 | |
| DG9SBQ-11 | 2026-09-05 18:45:12 | 49.17957 | 8.70608 | 112° | 11km/h | 27238m | -43.7m/s | -45.7°C | 0.6% | 19.4hPa | 2.5V | 03:04:00 | 00:00:00 | 00:00:00 | |
| HEMX73-11 | 2026-09-05 18:45:10 | 49.17960 | 8.70600 | 120° | 15km/h | 27325m | -44.3m/s | -45.4°C | 0.6% | 19.1hPa | 2.5V | 00:00:00 | 00:00:00 | 00:00:00 | |
| DL1XH1-15 | 2026-09-05 18:45:09 | 49.17979 | 8.70580 | 178° | 13km/h | 27629m | -43.1m/s | -46°C | 2.9% | 18.3hPa | 2.5V | 03:04:13 | 02:15:29 | 00:00:00 | |
| DL1XH-west | 2026-09-05 18:45:07 | 49.17970 | 8.70585 | 150° | 15km/h | 27499m | -44.3m/s | -46.1°C | 0% | 18.6hPa | 2.5V | 03:04:33 | 02:15:32 | 00:00:00 | |
| BIOWL1-15 | 2026-09-05 18:45:02 | 49.17990 | 8.70580 | 185° | 7km/h | 27804m | -47.1m/s | -46.4°C | 0% | 17.8hPa | 2.6V | 03:04:33 | 02:15:25 | 00:00:00 | |
| EDDB2-12 | 2026-09-05 18:45:01 | 49.17990 | 8.70580 | 185° | 5km/h | 27804m | -47.1m/s | -46.4°C | 0.7% | 17.8hPa | 2.6V | 00:00:00 | 00:00:00 | 00:00:00 | |
| DL3AQ-11 | 2026-09-05 18:45:00 | 49.17990 | 8.70580 | 185° | 5km/h | 27804m | -47.1m/s | -46.4°C | 0.7% | 17.8hPa | 2.6V | 00:00:00 | 00:00:00 | 00:00:00 | |
| DL1XH1-15 | 2026-09-05 18:44:59 | 49.17999 | 8.70568 | 118° | 16km/h | 28068m | -42.6m/s | -46.9°C | 3.2% | 17.1hPa | 2.6V | 03:04:23 | 02:15:19 | 00:00:00 | |
| NBG1-10 | 2026-09-05 18:44:58 | 49.17993 | 8.70579 | 148° | 16km/h | 27896m | -44.9m/s | -46.5°C | 3.0% | 17.5hPa | 2.5V | 00:00:00 | 02:15:23 | 00:00:00 | |
| DL1XH-15 | 2026-09-05 18:44:56 | 49.18006 | 8.70551 | 141° | 20km/h | 28191m | -40.8m/s | -46.8°C | 3.2% | 16.8hPa | 2.5V | 03:04:26 | 02:15:16 | 00:00:00 | |
| DL1XH-west | 2026-09-05 18:44:56 | 49.17995 | 8.70576 | 132° | 9km/h | 27984m | -43.5m/s | -46.7°C | 0% | 17.3hPa | 2.5V | 03:04:33 | 02:15:21 | 00:00:00 | |
| DK7TD | 2026-09-05 18:44:55 | 49.17997 | 8.70572 | 131° | 15km/h | 28027m | -42.9m/s | -46.8°C | 0.1% | 17.2hPa | 2.6V | 03:07:06 | 02:15:20 | 00:00:00 | |
| BIOWL1-15 | 2026-09-05 18:44:50 | 49.18010 | 8.70545 | 138° | 22km/h | 28231m | -41.4m/s | -46.6°C | 0.1% | 16.6hPa | 2.6V | 03:04:33 | 02:15:15 | 00:00:00 | |
| DL1XH1-15 | 2026-09-05 18:44:49 | 49.18039 | 8.70526 | 167° | 20km/h | 28487m | -45.2m/s | -45.7°C | 3% | 16.1hPa | 2.6V | 03:04:33 | 02:15:09 | 00:00:00 | |
| DL0LBS | 2026-09-05 18:44:47 | 49.18024 | 8.70533 | 164° | 22km/h | 28356m | -42.4m/s | -46.0°C | 0.7% | 16.3hPa | 2.5V | 03:04:00 | 00:00:00 | 00:00:00 | |
| DL1XH-15 | 2026-09-05 18:44:46 | 49.18052 | 8.70526 | 187° | 16km/h | 28623m | -45.2m/s | -45.5°C | 3% | 15.7hPa | 2.5V | 03:04:36 | 02:15:06 | 00:00:00 | |
| BIOWL1-15 | 2026-09-05 18:44:46 | 49.18056 | 8.70527 | 189° | 16km/h | 28667m | -43.6m/s | -45.5°C | 0% | 15.6hPa | 2.6V | 03:05:24 | 02:15:05 | 00:00:00 | |
| DL1XH-west | 2026-09-05 18:44:45 | 49.18034 | 8.70528 | 171° | 22km/h | 28442m | -44.8m/s | -45.8°C | 0% | 16.1hPa | 2.5V | 03:04:33 | 02:15:10 | 00:00:00 | |
| DJ2KF-10 | 2026-09-05 18:44:44 | 49.18039 | 8.70526 | 168° | 11km/h | 28487m | -45.2m/s | -45.6°C | 3.0% | 16.0hPa | 2.5V | 00:00:00 | 02:15:09 | 00:00:00 | |
| DJTTGO | 2026-09-05 18:44:43 | 49.18039 | 8.70526 | 169° | 20km/h | 28487m | -45.2m/s | -45.7°C | 0.7% | 16.1hPa | 2.5V | 03:04:00 | 00:00:00 | 00:00:00 | |
| DM0DOS-11 | 2026-09-05 18:44:42 | 49.18066 | 8.70530 | 199° | 15km/h | 28796m | -44.1m/s | -45.3°C | 3% | 15.2hPa | 2.5V | 03:04:40 | 02:15:02 | 00:00:00 | |
| DK7TD | 2026-09-05 18:44:42 | 49.18048 | 8.70525 | 183° | 18km/h | 28577m | -46m/s | -45.5°C | 0% | 15.8hPa | 2.5V | 03:07:06 | 02:15:07 | 00:00:00 | |
| BIOWL7-15 | 2026-09-05 18:44:40 | 49.18052 | 8.70526 | 188° | 16km/h | 28623m | -45.2m/s | -45.5°C | 0.7% | 15.7hPa | 2.6V | 00:00:00 | 00:00:00 | 00:00:00 | |
| DL1XH1-15 | 2026-09-05 18:44:39 | 49.18076 | 8.70535 | 209° | 13km/h | 28924m | -44.6m/s | -45.4°C | 3% | 14.9hPa | 2.6V | 03:04:43 | 02:14:59 | 00:00:00 | |
| DB0UT-9 | 2026-09-05 18:44:39 | 49.18060 | 8.70527 | 187° | 15km/h | 28711m | -43.3m/s | -45.4°C | 0.7% | 15.4hPa | 2.5V | 03:05:00 | 00:00:00 | 00:00:00 | |
| DF3TZ-5 | 2026-09-05 18:44:38 | 49.18073 | 8.70533 | 201° | 11km/h | 28882m | -42.4m/s | -45.3°C | 0.7% | 15.1hPa | 2.5V | 00:00:00 | 00:00:00 | 00:00:00 | |
| DL1XH-15 | 2026-09-05 18:44:36 | 49.18079 | 8.70540 | 18° | 0km/h | 29061m | -47.4m/s | -45.4°C | 3.1% | 14.7hPa | 2.5V | 03:04:46 | 02:14:56 | 00:00:00 | |
| DL1XH-west | 2026-09-05 18:44:35 | 49.18073 | 8.70533 | 202° | 13km/h | 28882m | -42.4m/s | -45.3°C | 0% | 15.1hPa | 2.6V | 03:05:24 | 02:15:00 | 00:00:00 | |
| DO3MHA-11 | 2026-09-05 18:44:34 | 49.18075 | 8.70535 | 210° | 9km/h | 28924m | -44.5m/s | -45.3°C | 3.0% | 14.9hPa | 2.5V | 00:00:00 | 02:14:59 | 00:00:00 | |
| HARRO8 | 2026-09-05 18:44:33 | 49.18077 | 8.70537 | 229° | 7km/h | 28969m | -46.3m/s | -45.5°C | 0.7% | 14.9hPa | 2.5V | 00:00:00 | 00:00:00 | 00:00:00 | |
| DM0DOS-11 | 2026-09-05 18:44:32 | 49.18074 | 8.70535 | 39° | 13km/h | 29257m | -51m/s | -44.1°C | 2.8% | 14.3hPa | 2.5V | 03:04:50 | 02:14:52 | 00:00:00 | |
| DK7TD | 2026-09-05 18:44:32 | 49.18078 | 8.70540 | 229° | 5km/h | 29015m | -46.2m/s | -45.5°C | 0.1% | 14.8hPa | 2.5V | 03:07:06 | 02:14:57 | 00:00:00 | |
| BIOWL1-15 | 2026-09-05 18:44:30 | 49.18078 | 8.70540 | 352° | 4km/h | 29108m | -47.7m/s | -45°C | 0% | 14.6hPa | 2.5V | 03:05:24 | 02:14:55 | 00:00:00 | |
| EDDB2-12 | 2026-09-05 18:44:30 | 49.18077 | 8.70540 | 59° | 4km/h | 29157m | -48.8m/s | -44.6°C | 0.6% | 14.5hPa | 2.5V | 00:00:00 | 00:00:00 | 00:00:00 | |
| BIOWL9-15 | 2026-09-05 18:44:29 | 49.18077 | 8.70540 | 59° | 4km/h | 29157m | -48.8m/s | -44.6°C | 0.6% | 14.5hPa | 2.5V | 00:00:00 | 00:00:00 | 00:00:00 | |
| DG9SBQ-11 | 2026-09-05 18:44:28 | 49.18077 | 8.70540 | 60° | 5km/h | 29157m | -48.8m/s | -44.6°C | 0.6% | 14.5hPa | 2.5V | 03:05:00 | 00:00:00 | 00:00:00 | |
| DO3DL | 2026-09-05 18:44:27 | 49.18076 | 8.70538 | 57° | 9km/h | 29206m | -51.0m/s | -44.3°C | 0.6% | 14.4hPa | 2.5V | 03:05:00 | 00:00:00 | 00:00:00 | |
| DL1XH-15 | 2026-09-05 18:44:26 | 49.18062 | 8.70509 | 68° | 13km/h | 29550m | -47.3m/s | -42.6°C | 2.5% | 13.6hPa | 2.5V | 03:04:56 | 02:14:46 | 00:00:00 | |
| DL1XH-west | 2026-09-05 18:44:24 | 49.18067 | 8.70523 | 62° | 13km/h | 29406m | -48.9m/s | -43.4°C | 0% | 14hPa | 2.6V | 03:05:24 | 02:14:49 | 00:00:00 | |
| DO3MHA-11 | 2026-09-05 18:44:24 | 49.18067 | 8.70523 | 62° | 9km/h | 29406m | -48.8m/s | -43.3°C | 2.7% | 13.9hPa | 2.6V | 00:00:00 | 02:14:49 | 00:00:00 | |
| DG9SBQ-11 | 2026-09-05 18:44:23 | 49.18065 | 8.70518 | 60° | 15km/h | 29455m | -49.6m/s | -43.1°C | 0.6% | 13.9hPa | 2.6V | 03:05:00 | 00:00:00 | 00:00:00 | |
| DM0DOS-11 | 2026-09-05 18:44:22 | 49.18058 | 8.70498 | 76° | 7km/h | 29738m | -48.6m/s | -42.8°C | 2.6% | 13.3hPa | 2.6V | 03:05:00 | 02:14:42 | 00:00:00 | |
| DK7TD | 2026-09-05 18:44:20 | 49.18061 | 8.70505 | 84° | 9km/h | 29597m | -47.8m/s | -42.6°C | 0% | 13.6hPa | 2.5V | 03:07:06 | 02:14:45 | 00:00:00 | |
| DL6DJ-15 | 2026-09-05 18:44:20 | 49.18060 | 8.70503 | 49° | 7km/h | 29645m | -47.9m/s | -42.7°C | 0.6% | 13.5hPa | 2.6V | 00:00:00 | 00:00:00 | 00:00:00 | |
| DB0ND-19 | 2026-09-05 18:44:19 | 49.18060 | 8.70503 | 49° | 7km/h | 29645m | -47.9m/s | -42.7°C | 0.6% | 13.5hPa | 2.6V | 00:00:00 | 00:00:00 | 00:00:00 | |
| DB0UT-9 | 2026-09-05 18:44:18 | 49.18060 | 8.70502 | 50° | 7km/h | 29645m | -47.9m/s | -42.7°C | 0.6% | 13.5hPa | 2.6V | 03:05:00 | 00:00:00 | 00:00:00 | |
| DB0UT-7 | 2026-09-05 18:44:17 | 49.18058 | 8.70498 | 77° | 13km/h | 29739m | -48.5m/s | -42.7°C | 2.6% | 13.2hPa | 2.6V | 00:00:00 | 00:00:00 | 00:00:00 | |
| DL1XH-15 | 2026-09-05 18:44:16 | 49.18053 | 8.70485 | 76° | 13km/h | 30019m | -47.7m/s | -42.9°C | 2.6% | 12.7hPa | 2.6V | 03:05:06 | 02:14:36 | 00:00:00 | |
| DL1XH-west | 2026-09-05 18:44:14 | 49.18056 | 8.70494 | 74° | 5km/h | 29880m | -46.3m/s | -42.8°C | 0% | 13hPa | 2.5V | 03:05:24 | 02:14:39 | 00:00:00 | |
| DJ2KF-10 | 2026-09-05 18:44:14 | 49.18056 | 8.70494 | 75° | 15km/h | 29880m | -46.2m/s | -42.7°C | 2.6% | 12.9hPa | 2.5V | 00:00:00 | 02:14:39 | 00:00:00 | |
| DM0DOS-11 | 2026-09-05 18:44:12 | 49.18049 | 8.70468 | 93° | 11km/h | 30204m | -46.5m/s | -42.9°C | 2.6% | 12.3hPa | 2.6V | 03:05:10 | 02:14:32 | 00:00:00 | |
| DK7TD | 2026-09-05 18:44:10 | 49.18052 | 8.70481 | 79° | 13km/h | 30066m | -46.9m/s | -42.9°C | 0% | 12.6hPa | 2.5V | 03:07:06 | 02:14:35 | 00:00:00 | |
| BIOWL1-15 | 2026-09-05 18:44:09 | 49.18051 | 8.70476 | 67° | 11km/h | 30113m | -47.4m/s | -42.9°C | 0% | 12.5hPa | 2.5V | 03:05:24 | 02:14:34 | 00:00:00 | |
| DF3TZ-5 | 2026-09-05 18:44:07 | 49.18049 | 8.70464 | 99° | 9km/h | 30250m | -45.4m/s | -42.7°C | 0.6% | 12.3hPa | 2.5V | 00:00:00 | 00:00:00 | 00:00:00 | |
| DL1XH-15 | 2026-09-05 18:44:06 | 49.18046 | 8.70450 | 51° | 7km/h | 30485m | -48m/s | -42.6°C | 2.6% | 11.8hPa | 2.5V | 03:05:16 | 02:14:26 | 00:00:00 | |
| DL1XH-west | 2026-09-05 18:44:04 | 49.18049 | 8.70457 | 95° | 7km/h | 30343m | -47.2m/s | -42.7°C | 0% | 12.1hPa | 2.5V | 03:05:24 | 02:14:29 | 00:00:00 | |
| DO3MHA-11 | 2026-09-05 18:44:04 | 49.18049 | 8.70457 | 96° | 13km/h | 30343m | -47.2m/s | -42.6°C | 2.6% | 12.0hPa | 2.6V | 03:05:00 | 02:14:29 | 00:00:00 | |
| SONCRA | 2026-09-05 18:44:03 | 49.18049 | 8.70455 | 80° | 5km/h | 30390m | -47.7m/s | -42.7°C | 0.6% | 12.0hPa | 2.6V | 00:00:00 | 00:00:00 | 00:00:00 | |
| HARRO8 | 2026-09-05 18:44:02 | 49.18046 | 8.70450 | 51° | 7km/h | 30485m | -48.0m/s | -42.7°C | 0.6% | 11.8hPa | 2.6V | 00:00:00 | 00:00:00 | 00:00:00 | |
| DM0DOS-11 | 2026-09-05 18:44:01 | 49.18036 | 8.70429 | 71° | 18km/h | 30722m | -47.1m/s | -42.4°C | 2.6% | 11.5hPa | 2.6V | 03:05:21 | 02:14:21 | 00:00:00 | |
| BIOWL1-15 | 2026-09-05 18:44:01 | 49.18043 | 8.70444 | 51° | 11km/h | 30579m | -47.3m/s | -42.7°C | 0% | 11.7hPa | 2.5V | 03:05:24 | 02:14:24 | 00:00:00 | |
| DG9SBQ-11 | 2026-09-05 18:44:00 | 49.18046 | 8.70450 | 53° | 7km/h | 30485m | -48.0m/s | -42.7°C | 0.6% | 11.9hPa | 2.5V | 03:05:00 | 00:00:00 | 00:00:00 | |
| DL1XH1-15 | 2026-09-05 18:43:59 | 49.18032 | 8.70414 | 74° | 22km/h | 30817m | -49.3m/s | -42.4°C | 2.7% | 11.3hPa | 2.5V | 03:05:23 | 02:14:19 | 00:00:00 | |
| EDDB2-12 | 2026-09-05 18:43:59 | 49.18040 | 8.70440 | 51° | 13km/h | 30626m | -48.4m/s | -42.7°C | 0.6% | 11.6hPa | 2.6V | 00:00:00 | 00:00:00 | 00:00:00 | |
| BIOWL9-15 | 2026-09-05 18:43:58 | 49.18040 | 8.70440 | 51° | 13km/h | 30626m | -48.4m/s | -42.7°C | 0.6% | 11.6hPa | 2.6V | 00:00:00 | 00:00:00 | 00:00:00 | |
| AZAK | 2026-09-05 18:43:57 | 49.18038 | 8.70435 | 58° | 16km/h | 30675m | -48.1m/s | -42.6°C | 0.6% | 11.5hPa | 2.6V | 03:05:00 | 00:00:00 | 00:00:00 | |
| DL1XH-15 | 2026-09-05 18:43:56 | 49.18031 | 8.70386 | 89° | 24km/h | 30965m | -50.3m/s | -41.9°C | 2.6% | 11hPa | 2.6V | 03:05:26 | 02:14:16 | 00:00:00 | |
| DL1XH-west | 2026-09-05 18:43:54 | 49.18032 | 8.70414 | 75° | 22km/h | 30817m | -49.3m/s | -42.4°C | 0% | 11.3hPa | 2.5V | 03:05:24 | 02:14:19 | 00:00:00 | |
| DO1YAY-16 | 2026-09-05 18:43:53 | 49.18031 | 8.70396 | 87° | 24km/h | 30916m | -50.0m/s | -42.1°C | 0.6% | 11.1hPa | 2.6V | 00:00:00 | 00:00:00 | 00:00:00 | |
| DM0DOS-11 | 2026-09-05 18:43:51 | 49.18030 | 8.70351 | 79° | 15km/h | 31210m | -48.7m/s | -41.6°C | 2.6% | 10.7hPa | 2.6V | 03:05:31 | 02:14:11 | 00:00:00 | |
| DD1CC8 | 2026-09-05 18:43:50 | 49.18030 | 8.70378 | 84° | 20km/h | 31016m | -50.8m/s | -41.8°C | 0.6% | 11.0hPa | 2.5V | 00:00:00 | 00:00:00 | 00:00:00 | |
| DL1XH1-15 | 2026-09-05 18:43:49 | 49.18028 | 8.70339 | 72° | 16km/h | 31307m | -49m/s | -41.5°C | 2.6% | 10.5hPa | 2.5V | 03:05:33 | 02:14:09 | 00:00:00 | |
| BIOWL1-15 | 2026-09-05 18:43:49 | 49.18030 | 8.70370 | 99° | 18km/h | 31066m | -51m/s | -41.8°C | 0% | 10.8hPa | 2.5V | 03:06:15 | 02:14:14 | 00:00:00 | |
| NBG1-10 | 2026-09-05 18:43:48 | 49.18030 | 8.70363 | 94° | 24km/h | 31115m | -49.0m/s | -41.8°C | 2.6% | 10.7hPa | 2.5V | 00:00:00 | 02:14:13 | 00:00:00 | |
| DB0UT-7 | 2026-09-05 18:43:47 | 49.18030 | 8.70357 | 100° | 27km/h | 31162m | -48.2m/s | -41.7°C | 2.6% | 10.7hPa | 2.6V | 03:05:00 | 02:14:12 | 00:00:00 | |
| DL1XH-15 | 2026-09-05 18:43:46 | 49.18024 | 8.70320 | 70° | 20km/h | 31455m | -50.8m/s | -41.3°C | 2.6% | 10.3hPa | 2.6V | 03:05:36 | 02:14:06 | 00:00:00 | |
| DL1XH-west | 2026-09-05 18:43:43 | 49.18027 | 8.70333 | 72° | 16km/h | 31356m | -49.6m/s | -41.6°C | 0% | 10.4hPa | 2.5V | 03:06:15 | 02:14:08 | 00:00:00 | |
| DM0DOS-11 | 2026-09-05 18:43:41 | 49.18016 | 8.70272 | 84° | 31km/h | 31717m | -52.8m/s | -40.3°C | 2.5% | 9.8hPa | 2.6V | 03:05:41 | 02:14:01 | 00:00:00 | |
| KANTATE | 2026-09-05 18:43:40 | 49.18024 | 8.70319 | 72° | 20km/h | 31455m | -50.8m/s | -41.3°C | 0.6% | 10.3hPa | 2.6V | 03:06:00 | 00:00:00 | 00:00:00 | |
| DL1XH1-15 | 2026-09-05 18:43:39 | 49.18016 | 8.70248 | 97° | 33km/h | 31824m | -56.1m/s | -39.6°C | 2.4% | 9.7hPa | 2.6V | 03:05:43 | 02:13:59 | 00:00:00 | |
| BIOWL1-15 | 2026-09-05 18:43:38 | 49.18019 | 8.70294 | 80° | 24km/h | 31610m | -54m/s | -40.5°C | 0% | 10.1hPa | 2.5V | 03:06:15 | 02:14:03 | 00:00:00 | |
| DL1XH-west | 2026-09-05 18:43:33 | 49.18017 | 8.70236 | 104° | 35km/h | 31882m | -59.6m/s | -39.2°C | 0% | 9.7hPa | 2.5V | 03:06:15 | 02:13:58 | 00:00:00 | |
| SONCRA | 2026-09-05 18:43:32 | 49.18021 | 8.70209 | 102° | 37km/h | 31999m | -57.0m/s | -38.7°C | 0.5% | 9.5hPa | 2.5V | 00:00:00 | 00:00:00 | 00:00:00 | |
| DM0DOS-11 | 2026-09-05 18:43:31 | 49.18035 | 8.70144 | 104° | 33km/h | 32263m | -50.3m/s | -38.2°C | 2.2% | 9.1hPa | 2.5V | 03:05:51 | 02:13:51 | 00:00:00 | |
| HARRO8 | 2026-09-05 18:43:31 | 49.18021 | 8.70209 | 102° | 37km/h | 31999m | -57.0m/s | -38.7°C | 0.5% | 9.5hPa | 2.6V | 00:00:00 | 00:00:00 | 00:00:00 | |
| DL3AQ-11 | 2026-09-05 18:43:30 | 49.18026 | 8.70183 | 111° | 35km/h | 32108m | -53.5m/s | -38.6°C | 0.5% | 9.3hPa | 2.6V | 00:00:00 | 00:00:00 | 00:00:00 | |
| DL1XH1-15 | 2026-09-05 18:43:29 | 49.18038 | 8.70120 | 100° | 31km/h | 32363m | -51.5m/s | -38.2°C | 2.2% | 9hPa | 2.6V | 03:05:53 | 02:13:49 | 00:00:00 | |
| BIOWL1-15 | 2026-09-05 18:43:28 | 49.18029 | 8.70170 | 111° | 37km/h | 32160m | -53m/s | -38.5°C | 0% | 9.2hPa | 2.5V | 03:06:15 | 02:13:53 | 00:00:00 | |
| DL1XH-west | 2026-09-05 18:43:23 | 49.18039 | 8.70108 | 96° | 29km/h | 32415m | -53.2m/s | -38°C | 0% | 8.9hPa | 2.6V | 03:06:15 | 02:13:48 | 00:00:00 | |
| DL4BBY-15 | 2026-09-05 18:43:22 | 49.18040 | 8.70097 | 95° | 37km/h | 32469m | -55.3m/s | -39.4°C | 0% | 0hPa | 2.5V | 00:00:00 | 00:00:00 | 00:00:00 | |
| DM0DOS-11 | 2026-09-05 18:43:21 | 49.18044 | 8.70020 | 97° | 37km/h | 32817m | -61.2m/s | -36.5°C | 1.9% | 8.4hPa | 2.5V | 03:06:01 | 02:13:41 | 00:00:00 | |
| DJTTGO | 2026-09-05 18:43:21 | 49.18040 | 8.70086 | 93° | 29km/h | 32524m | -54.3m/s | -37.5°C | 0.4% | 8.8hPa | 2.6V | 00:00:00 | 00:00:00 | 00:00:00 | |
| KANTATE | 2026-09-05 18:43:20 | 49.18040 | 8.70086 | 93° | 29km/h | 32524m | -54.3m/s | -37.5°C | 0.4% | 8.8hPa | 2.6V | 03:06:00 | 00:00:00 | 00:00:00 | |
| DL1XH1-15 | 2026-09-05 18:43:19 | 49.18047 | 8.69992 | 102° | 38km/h | 32939m | -61.1m/s | -36.4°C | 1.9% | 8.3hPa | 2.6V | 03:06:03 | 02:13:39 | 00:00:00 | |
| BIOWL1-15 | 2026-09-05 18:43:18 | 49.18042 | 8.70048 | 94° | 35km/h | 32696m | -61.2m/s | -36.6°C | 0% | 8.6hPa | 2.6V | 03:06:15 | 02:13:43 | 00:00:00 | |
| HSKMA3-T | 2026-09-05 18:43:16 | 49.18044 | 8.70020 | 98° | 37km/h | 32817m | -61.2m/s | -36.5°C | 0% | 8.4hPa | 2.5V | 03:07:06 | 02:13:41 | 00:00:00 | |
| DK7TD | 2026-09-05 18:43:13 | 49.18049 | 8.69978 | 101° | 38km/h | 33000m | -61.3m/s | -36.4°C | 0% | 8.2hPa | 2.6V | 03:07:06 | 02:13:38 | 00:00:00 | |
| BIOWL1-15 | 2026-09-05 18:43:13 | 49.18066 | 8.69904 | 123° | 38km/h | 33348m | -55.2m/s | -35°C | 0% | 7.8hPa | 2.6V | 03:06:15 | 02:13:32 | 00:00:00 | |
| DL1XH-west | 2026-09-05 18:43:12 | 49.18051 | 8.69964 | 104° | 35km/h | 33062m | -61.5m/s | -36.2°C | 0% | 8.1hPa | 2.6V | 03:06:15 | 02:13:37 | 00:00:00 | |
| DM0DOS-11 | 2026-09-05 18:43:10 | 49.18079 | 8.69879 | 129° | 44km/h | 33459m | -55.5m/s | -34.9°C | 1.6% | 7.7hPa | 2.5V | 03:06:12 | 02:13:30 | 00:00:00 | |
| DC4HF-4 | 2026-09-05 18:43:10 | 49.18055 | 8.69940 | 109° | 31km/h | 33181m | -57.2m/s | -35.8°C | 0.4% | 8.0hPa | 2.5V | 00:00:00 | 00:00:00 | 00:00:00 | |
| DL1XH-15 | 2026-09-05 18:43:09 | 49.18085 | 8.69867 | 132° | 42km/h | 33513m | -52.5m/s | -34.9°C | 1.6% | 7.6hPa | 2.5V | 03:06:13 | 02:13:29 | 00:00:00 | |
| HSKMA3-T | 2026-09-05 18:43:06 | 49.18072 | 8.69892 | 127° | 40km/h | 33403m | -55.7m/s | -34.9°C | 0% | 7.7hPa | 2.5V | 03:07:06 | 02:13:31 | 00:00:00 | |
| DL1XH-west | 2026-09-05 18:43:02 | 49.18100 | 8.69842 | 129° | 44km/h | 33616m | -49.4m/s | -35.2°C | 0% | 7.5hPa | 2.6V | 03:06:15 | 02:13:27 | 00:00:00 | |
| SONCRA | 2026-09-05 18:43:01 | 49.18113 | 8.69817 | 124° | 38km/h | 33708m | -43.2m/s | -35.7°C | 0.4% | 7.3hPa | 2.5V | 00:00:00 | 00:00:00 | 00:00:00 | |
| DM0DOS-11 | 2026-09-05 18:43:00 | 49.18135 | 8.69762 | 121° | 31km/h | 33891m | -25.2m/s | -36.4°C | 1.9% | 7.1hPa | 2.5V | 03:06:22 | 02:13:20 | 00:00:00 | |
| HARRO8 | 2026-09-05 18:43:00 | 49.18113 | 8.69817 | 124° | 38km/h | 33708m | -43.2m/s | -35.7°C | 0.4% | 7.3hPa | 2.5V | 00:00:00 | 00:00:00 | 00:00:00 | |
| DL1XH1-15 | 2026-09-05 18:42:59 | 49.18140 | 8.69753 | 126° | 31km/h | 33914m | -19.6m/s | -36.5°C | 1.9% | 7.1hPa | 2.5V | 03:06:23 | 02:13:19 | 00:00:00 | |
| BIOWL1-15 | 2026-09-05 18:42:56 | 49.18131 | 8.69772 | 121° | 31km/h | 33863m | -31.2m/s | -36.4°C | 0% | 7.1hPa | 2.6V | 03:07:06 | 02:13:21 | 00:00:00 | |
| DL1XH-west | 2026-09-05 18:42:52 | 49.18151 | 8.69733 | 134° | 35km/h | 33949m | -12.1m/s | -36.5°C | 0% | 7hPa | 2.6V | 03:07:06 | 02:13:17 | 00:00:00 | |
| DO1YAY-16 | 2026-09-05 18:42:51 | 49.18169 | 8.69714 | 149° | 51km/h | 33979m | -14.1m/s | -36.6°C | 0.4% | 7.0hPa | 2.5V | 00:00:00 | 00:00:00 | 00:00:00 | |
| DL1XH1-15 | 2026-09-05 18:42:49 | 49.18226 | 8.69629 | 120° | 49km/h | 34108m | -15.5m/s | -37°C | 1.9% | 6.8hPa | 2.5V | 03:06:33 | 02:13:09 | 00:00:00 | |
| BIOWL1-15 | 2026-09-05 18:42:46 | 49.18213 | 8.69662 | 121° | 51km/h | 34060m | -32.5m/s | -36.8°C | 0% | 6.9hPa | 2.6V | 03:07:06 | 02:13:11 | 00:00:00 | |
| DL1XH-west | 2026-09-05 18:42:41 | 49.18245 | 8.69578 | 119° | 49km/h | 34110m | 14.1m/s | -37°C | 0% | 6.8hPa | 2.6V | 03:07:06 | 02:13:06 | 00:00:00 | |
| DO3DL | 2026-09-05 18:42:40 | 49.18245 | 8.69578 | 120° | 49km/h | 34110m | 14.1m/s | -37.0°C | 0.4% | 6.8hPa | 2.5V | 03:07:00 | 00:00:00 | 00:00:00 | |
| DJTTGO | 2026-09-05 18:42:38 | 49.18262 | 8.69549 | 141° | 51km/h | 34094m | 5.4m/s | -37.0°C | 0.4% | 6.9hPa | 2.5V | 03:07:00 | 00:00:00 | 00:00:00 | |
| DL1XH1-15 | 2026-09-05 18:42:38 | 49.18308 | 8.69462 | 109° | 49km/h | 34060m | 5.2m/s | -36.9°C | 2% | 6.9hPa | 2.5V | 03:06:44 | 02:12:58 | 00:00:00 | |
| IW2NTF | 2026-09-05 18:42:37 | 49.18312 | 8.69445 | 108° | 49km/h | 34056m | 4.6m/s | -36.9°C | 2% | 6.9hPa | 2.5V | 03:06:45 | 02:12:57 | 00:00:00 | |
| DL1XH-15 | 2026-09-05 18:42:36 | 49.18316 | 8.69427 | 111° | 46km/h | 34051m | 4.5m/s | -36.9°C | 2% | 6.9hPa | 2.6V | 03:06:46 | 02:12:56 | 00:00:00 | |
| BIOWL1-15 | 2026-09-05 18:42:35 | 49.18298 | 8.69496 | 124° | 47km/h | 34073m | 6.4m/s | -37°C | 0% | 6.9hPa | 2.6V | 03:07:06 | 02:13:00 | 00:00:00 | |
| DK7TD | 2026-09-05 18:42:33 | 49.18308 | 8.69462 | 110° | 49km/h | 34061m | 5.2m/s | -36.9°C | 0% | 6.9hPa | 2.5V | 03:07:06 | 02:12:58 | 00:00:00 | |
| DL1XH-west | 2026-09-05 18:42:30 | 49.18321 | 8.69412 | 118° | 44km/h | 34046m | 5.6m/s | -36.9°C | 0% | 6.9hPa | 2.6V | 03:07:06 | 02:12:55 | 00:00:00 | |
| SONCRA | 2026-09-05 18:42:30 | 49.18327 | 8.69398 | 128° | 40km/h | 34040m | 6.5m/s | -36.8°C | 0.4% | 6.9hPa | 2.6V | 00:00:00 | 00:00:00 | 00:00:00 | |
| DB0NH | 2026-09-05 18:42:29 | 49.18327 | 8.69398 | 129° | 42km/h | 34040m | 6.4m/s | -36.8°C | 2.0% | 6.9hPa | 2.6V | 03:06:00 | 02:12:54 | 00:00:00 | |
| DL1XH1-15 | 2026-09-05 18:42:28 | 49.18376 | 8.69338 | 127° | 42km/h | 34006m | 6.1m/s | -36.7°C | 1.9% | 6.9hPa | 2.6V | 03:06:54 | 02:12:48 | 00:00:00 | |
| DL1XH-15 | 2026-09-05 18:42:26 | 49.18386 | 8.69310 | 112° | 44km/h | 33994m | 5.2m/s | -36.6°C | 1.9% | 7hPa | 2.6V | 03:06:56 | 02:12:46 | 00:00:00 | |
| EDDB2-12 | 2026-09-05 18:42:26 | 49.18360 | 8.69360 | 145° | 42km/h | 34017m | 4.6m/s | -36.7°C | 0.4% | 6.9hPa | 2.6V | 00:00:00 | 00:00:00 | 00:00:00 | |
| DM0DOS-11 | 2026-09-05 18:42:25 | 49.18390 | 8.69294 | 111° | 44km/h | 33989m | 4.8m/s | -36.6°C | 1.9% | 7hPa | 2.6V | 03:06:57 | 02:12:45 | 00:00:00 | |
| BIOWL1-15 | 2026-09-05 18:42:25 | 49.18360 | 8.69360 | 146° | 42km/h | 34017m | 4.6m/s | -36.7°C | 0% | 6.9hPa | 2.6V | 03:07:06 | 02:12:50 | 00:00:00 | |
| DL1XH-west | 2026-09-05 18:42:20 | 49.18390 | 8.69294 | 111° | 44km/h | 33989m | 4.8m/s | -36.6°C | 0% | 7hPa | 2.6V | 03:07:06 | 02:12:45 | 00:00:00 | |
| BIOWL1-15 | 2026-09-05 18:42:17 | 49.18418 | 8.69232 | 139° | 40km/h | 33962m | 4.9m/s | -36.6°C | 0% | 7hPa | 2.5V | 03:07:06 | 02:12:40 | 00:00:00 | |
| DD1CC8 | 2026-09-05 18:42:17 | 49.18411 | 8.69242 | 135° | 38km/h | 33967m | 5.3m/s | -36.6°C | 0.4% | 7.0hPa | 2.5V | 00:00:00 | 00:00:00 | 00:00:00 | |
| DL1XH-15 | 2026-09-05 18:42:16 | 49.18447 | 8.69184 | 121° | 46km/h | 33939m | 5.9m/s | -36.5°C | 1.9% | 7hPa | 2.5V | 03:07:06 | 02:12:36 | 00:00:00 | |
| DL1ZP-14 | 2026-09-05 18:42:16 | 49.18418 | 8.69232 | 138° | 38km/h | 33962m | 4.9m/s | -36.6°C | 0.4% | 7.0hPa | 2.5V | 00:00:00 | 00:00:00 | 00:00:00 | |
| DM0DOS-11 | 2026-09-05 18:42:15 | 49.18452 | 8.69168 | 117° | 47km/h | 33933m | 5.2m/s | -36.5°C | 1.9% | 7hPa | 2.5V | 03:07:07 | 02:12:35 | 00:00:00 | |
| DK7TD | 2026-09-05 18:42:12 | 49.18440 | 8.69198 | 128° | 44km/h | 33945m | 6.4m/s | -36.5°C | 0% | 7hPa | 2.6V | 03:07:06 | 02:12:37 | 00:00:00 | |
| DL1XH-west | 2026-09-05 18:42:09 | 49.18458 | 8.69153 | 117° | 46km/h | 33929m | 4.6m/s | -36.6°C | 0% | 7hPa | 2.6V | 03:07:57 | 02:12:34 | 00:00:00 | |
| DG9SBQ-11 | 2026-09-05 18:42:08 | 49.18458 | 8.69153 | 118° | 46km/h | 33929m | 4.6m/s | -36.6°C | 0.4% | 7.0hPa | 2.6V | 03:07:00 | 00:00:00 | 00:00:00 | |
| DL1XH-15 | 2026-09-05 18:42:06 | 49.18508 | 8.69064 | 124° | 40km/h | 33885m | 6.2m/s | -36.6°C | 1.9% | 7.1hPa | 2.6V | 03:07:16 | 02:12:26 | 00:00:00 | |
| DJ2DS-15 | 2026-09-05 18:42:06 | 49.18475 | 8.69112 | 133° | 40km/h | 33914m | 6.5m/s | -36.5°C | 1.9% | 7.0hPa | 2.5V | 03:07:00 | 02:12:31 | 00:00:00 | |
| DM0DOS-11 | 2026-09-05 18:42:05 | 49.18513 | 8.69051 | 117° | 44km/h | 33879m | 6.1m/s | -36.6°C | 1.9% | 7.1hPa | 2.5V | 03:07:17 | 02:12:25 | 00:00:00 | |
| BIOWL1-15 | 2026-09-05 18:42:04 | 49.18488 | 8.69094 | 143° | 35km/h | 33901m | 5.3m/s | -36.6°C | 0% | 7.1hPa | 2.5V | 03:07:57 | 02:12:29 | 00:00:00 | |
| DK7TD | 2026-09-05 18:42:01 | 49.18508 | 8.69064 | 125° | 40km/h | 33885m | 6.2m/s | -36.6°C | 0% | 7.1hPa | 2.6V | 03:08:48 | 02:12:26 | 00:00:00 | |
| DL1XH-west | 2026-09-05 18:41:58 | 49.18523 | 8.69018 | 113° | 47km/h | 33868m | 5m/s | -36.6°C | 0% | 7.1hPa | 2.6V | 03:07:57 | 02:12:23 | 00:00:00 | |
| HARRO8 | 2026-09-05 18:41:58 | 49.18528 | 8.69001 | 115° | 46km/h | 33863m | 5.4m/s | -36.7°C | 0.4% | 7.1hPa | 2.6V | 00:00:00 | 00:00:00 | 00:00:00 | |
| DL1XH-15 | 2026-09-05 18:41:56 | 49.18567 | 8.68928 | 131° | 38km/h | 33829m | 6m/s | -36.6°C | 2% | 7.1hPa | 2.6V | 03:07:26 | 02:12:16 | 00:00:00 | |
| DM0DOS-11 | 2026-09-05 18:41:55 | 49.18573 | 8.68917 | 125° | 38km/h | 33823m | 6m/s | -36.6°C | 2% | 7.1hPa | 2.6V | 03:07:27 | 02:12:15 | 00:00:00 | |
| BIOWL1-15 | 2026-09-05 18:41:55 | 49.18554 | 8.68949 | 136° | 38km/h | 33840m | 5m/s | -36.7°C | 0% | 7.1hPa | 2.5V | 03:07:57 | 02:12:18 | 00:00:00 | |
| DK7TD | 2026-09-05 18:41:49 | 49.18579 | 8.68904 | 122° | 40km/h | 33818m | 5.4m/s | -36.6°C | 0% | 7.1hPa | 2.6V | 03:08:48 | 02:12:14 | 00:00:00 | |
| DL1XH-west | 2026-09-05 18:41:48 | 49.18584 | 8.68891 | 121° | 42km/h | 33813m | 5.3m/s | -36.6°C | 0% | 7.2hPa | 2.6V | 03:07:57 | 02:12:13 | 00:00:00 | |
| DB0UT-7 | 2026-09-05 18:41:47 | 49.18589 | 8.68877 | 123° | 38km/h | 33808m | 5.3m/s | -36.6°C | 2.0% | 7.1hPa | 2.5V | 03:07:00 | 02:12:12 | 00:00:00 | |
| DL1XH-15 | 2026-09-05 18:41:46 | 49.18626 | 8.68798 | 117° | 44km/h | 33775m | 5.9m/s | -36.4°C | 1.9% | 7.2hPa | 2.5V | 03:07:36 | 02:12:06 | 00:00:00 | |
| DD1CC8 | 2026-09-05 18:41:46 | 49.18602 | 8.68851 | 128° | 42km/h | 33796m | 5.9m/s | -36.6°C | 0.4% | 7.2hPa | 2.6V | 00:00:00 | 00:00:00 | 00:00:00 | |
| DM0DOS-11 | 2026-09-05 18:41:45 | 49.18631 | 8.68783 | 110° | 44km/h | 33769m | 6.5m/s | -36.4°C | 1.9% | 7.2hPa | 2.6V | 03:07:37 | 02:12:05 | 00:00:00 | |
| BIOWL1-15 | 2026-09-05 18:41:43 | 49.18615 | 8.68826 | 127° | 42km/h | 33785m | 4.6m/s | -36.5°C | 0% | 7.2hPa | 2.6V | 03:07:57 | 02:12:08 | 00:00:00 | |
| DO3MHA-11 | 2026-09-05 18:41:43 | 49.18615 | 8.68826 | 128° | 38km/h | 33786m | 4.5m/s | -36.4°C | 2.0% | 7.1hPa | 2.6V | 00:00:00 | 02:12:08 | 00:00:00 | |
| DF1GD-15 | 2026-09-05 18:41:42 | 49.18615 | 8.68826 | 128° | 42km/h | 33786m | 4.6m/s | -36.5°C | 0.4% | 7.2hPa | 2.6V | 03:07:00 | 00:00:00 | 00:00:00 | |
| IW2NTF | 2026-09-05 18:41:41 | 49.18644 | 8.68727 | 119° | 31km/h | 33748m | 5.1m/s | -36.2°C | 1.9% | 7.2hPa | 2.6V | 03:07:41 | 02:12:01 | 00:00:00 | |
| DK7TD | 2026-09-05 18:41:39 | 49.18634 | 8.68767 | 106° | 42km/h | 33763m | 5.5m/s | -36.3°C | 0% | 7.2hPa | 2.6V | 03:08:48 | 02:12:04 | 00:00:00 | |
| DL1XH1-15 | 2026-09-05 18:41:38 | 49.18660 | 8.68706 | 155° | 31km/h | 33730m | 5.4m/s | -36.1°C | 1.9% | 7.2hPa | 2.6V | 03:07:44 | 02:11:58 | 00:00:00 | |
| DL1XH-west | 2026-09-05 18:41:38 | 49.18637 | 8.68752 | 106° | 38km/h | 33758m | 4.5m/s | -36.3°C | 0% | 7.2hPa | 2.5V | 03:07:57 | 02:12:03 | 00:00:00 | |
| BIOWL1-15 | 2026-09-05 18:41:37 | 49.18660 | 8.68706 | 156° | 31km/h | 33730m | 5.4m/s | -36.1°C | 0% | 7.2hPa | 2.6V | 03:07:57 | 02:11:58 | 00:00:00 | |
| DG9SBQ-11 | 2026-09-05 18:41:36 | 49.18640 | 8.68739 | 111° | 35km/h | 33754m | 4.4m/s | -36.3°C | 0.4% | 7.2hPa | 2.5V | 03:07:00 | 00:00:00 | 00:00:00 | |
| DM0DOS-11 | 2026-09-05 18:41:35 | 49.18681 | 8.68686 | 132° | 37km/h | 33716m | 5.7m/s | -36°C | 1.9% | 7.2hPa | 2.5V | 03:07:47 | 02:11:55 | 00:00:00 | |
| HSKMA3-T | 2026-09-05 18:41:34 | 49.18653 | 8.68712 | 149° | 29km/h | 33736m | 6.5m/s | -36.1°C | 0% | 7.2hPa | 2.6V | 03:07:57 | 02:11:59 | 00:00:00 | |
| DO3MHA-11 | 2026-09-05 18:41:33 | 49.18660 | 8.68706 | 156° | 40km/h | 33730m | 5.3m/s | -36.0°C | 1.9% | 7.2hPa | 2.6V | 00:00:00 | 02:11:58 | 00:00:00 | |
| SONDE2-11 | 2026-09-05 18:41:32 | 49.18667 | 8.68701 | 153° | 31km/h | 33726m | 4.2m/s | -36.1°C | 0.4% | 7.2hPa | 2.6V | 00:00:00 | 00:00:00 | 00:00:00 | |
| KANTATE | 2026-09-05 18:41:31 | 49.18667 | 8.68701 | 155° | 33km/h | 33726m | 4.2m/s | -36.1°C | 0.4% | 7.2hPa | 2.6V | 03:07:00 | 00:00:00 | 00:00:00 | |
| IW2NTF | 2026-09-05 18:41:31 | 49.18699 | 8.68624 | 106° | 47km/h | 33694m | 4.1m/s | -36°C | 1.9% | 7.3hPa | 2.6V | 03:07:51 | 02:11:51 | 00:00:00 | |
| DL3AQ-11 | 2026-09-05 18:41:30 | 49.18681 | 8.68686 | 132° | 37km/h | 33716m | 5.7m/s | -36.0°C | 0.4% | 7.2hPa | 2.6V | 00:00:00 | 00:00:00 | 00:00:00 | |
| DB0NH | 2026-09-05 18:41:29 | 49.18687 | 8.68673 | 121° | 35km/h | 33710m | 6.4m/s | -35.9°C | 1.9% | 7.2hPa | 2.6V | 00:00:00 | 02:11:54 | 00:00:00 | |
| DL1XH1-15 | 2026-09-05 18:41:28 | 49.18712 | 8.68581 | 133° | 35km/h | 33679m | 6.3m/s | -36°C | 1.9% | 7.3hPa | 2.6V | 03:07:54 | 02:11:48 | 00:00:00 | |
| DL1XH-west | 2026-09-05 18:41:28 | 49.18691 | 8.68659 | 111° | 46km/h | 33704m | 5.8m/s | -36°C | 0% | 7.3hPa | 2.6V | 03:07:57 | 02:11:53 | 00:00:00 | |
| DK7TD | 2026-09-05 18:41:27 | 49.18695 | 8.68641 | 107° | 49km/h | 33698m | 4.6m/s | -36°C | 0% | 7.3hPa | 2.6V | 03:08:48 | 02:11:52 | 00:00:00 | |
| HSKMA3-T | 2026-09-05 18:41:23 | 49.18712 | 8.68581 | 133° | 35km/h | 33679m | 6.3m/s | -36°C | 0% | 7.3hPa | 2.6V | 03:07:57 | 02:11:48 | 00:00:00 | |
| BIOWL1-15 | 2026-09-05 18:41:22 | 49.18719 | 8.68573 | 149° | 33km/h | 33673m | 6.2m/s | -36°C | 0% | 7.3hPa | 2.6V | 03:07:57 | 02:11:47 | 00:00:00 | |
| PG1ADW-2 | 2026-09-05 18:41:21 | 49.18726 | 8.68567 | 162° | 29km/h | 33667m | 5.7m/s | 0°C | 0% | 0hPa | 2.5V | 00:00:00 | 02:11:46 | 00:00:00 | |
| DO3DL | 2026-09-05 18:41:19 | 49.18734 | 8.68564 | 167° | 31km/h | 33662m | 4.9m/s | -35.9°C | 0.4% | 7.3hPa | 2.5V | 03:07:00 | 00:00:00 | 00:00:00 | |
| DL1XH1-15 | 2026-09-05 18:41:18 | 49.18762 | 8.68496 | 102° | 38km/h | 33625m | 4.5m/s | -35.9°C | 1.9% | 7.3hPa | 2.5V | 03:08:04 | 02:11:38 | 00:00:00 | |
| DL1XH-west | 2026-09-05 18:41:17 | 49.18752 | 8.68549 | 128° | 27km/h | 33647m | 6m/s | -35.9°C | 0% | 7.3hPa | 2.6V | 03:08:48 | 02:11:42 | 00:00:00 | |
| DB0UT-7 | 2026-09-05 18:41:17 | 49.18752 | 8.68549 | 129° | 29km/h | 33647m | 6.0m/s | -35.8°C | 1.8% | 7.3hPa | 2.6V | 00:00:00 | 00:00:00 | 00:00:00 | |
| DL1XH-15 | 2026-09-05 18:41:16 | 49.18769 | 8.68471 | 121° | 31km/h | 33615m | 5.7m/s | -35.9°C | 1.9% | 7.3hPa | 2.6V | 03:08:06 | 02:11:36 | 00:00:00 | |
| DK7TD | 2026-09-05 18:41:16 | 49.18756 | 8.68539 | 111° | 33km/h | 33641m | 6.3m/s | -35.9°C | 0% | 7.3hPa | 2.6V | 03:08:48 | 02:11:41 | 00:00:00 | |
| BIOWL1-15 | 2026-09-05 18:41:12 | 49.18765 | 8.68483 | 110° | 35km/h | 33620m | 5.3m/s | -35.9°C | 0% | 7.3hPa | 2.5V | 03:08:48 | 02:11:37 | 00:00:00 | |
| IW2NTF | 2026-09-05 18:41:10 | 49.18806 | 8.68424 | 117° | 29km/h | 33576m | 5.6m/s | -35.9°C | 1.9% | 7.4hPa | 2.6V | 03:08:13 | 02:11:29 | 00:00:00 | |
| DJ2KF-10 | 2026-09-05 18:41:10 | 49.18773 | 8.68462 | 138° | 31km/h | 33609m | 5.6m/s | -35.9°C | 1.9% | 7.3hPa | 2.6V | 03:08:00 | 02:11:35 | 00:00:00 | |
| DL1XH1-15 | 2026-09-05 18:41:08 | 49.18809 | 8.68413 | 110° | 33km/h | 33571m | 5.3m/s | -35.9°C | 1.8% | 7.4hPa | 2.5V | 03:08:14 | 02:11:28 | 00:00:00 | |
| DL1XH-15 | 2026-09-05 18:41:06 | 49.18815 | 8.68389 | 110° | 33km/h | 33561m | 4.7m/s | -35.8°C | 1.8% | 7.4hPa | 2.5V | 03:08:16 | 02:11:26 | 00:00:00 | |
| DL1XH-west | 2026-09-05 18:41:06 | 49.18797 | 8.68441 | 143° | 27km/h | 33588m | 5.7m/s | -35.9°C | 0% | 7.4hPa | 2.6V | 03:08:48 | 02:11:31 | 00:00:00 | |
| DK7TD | 2026-09-05 18:41:05 | 49.18802 | 8.68433 | 130° | 27km/h | 33582m | 5.9m/s | -35.9°C | 0% | 7.4hPa | 2.6V | 03:08:48 | 02:11:30 | 00:00:00 | |
| BIOWL1-15 | 2026-09-05 18:41:01 | 49.18815 | 8.68389 | 111° | 33km/h | 33561m | 4.7m/s | -35.8°C | 0% | 7.4hPa | 2.5V | 03:08:48 | 02:11:26 | 00:00:00 | |
| DL3AQ-11 | 2026-09-05 18:41:01 | 49.18818 | 8.68377 | 116° | 31km/h | 33556m | 5.6m/s | -35.8°C | 0.4% | 7.4hPa | 2.6V | 00:00:00 | 00:00:00 | 00:00:00 | |
| DO3DL | 2026-09-05 18:41:00 | 49.18815 | 8.68388 | 112° | 33km/h | 33562m | 4.7m/s | -35.8°C | 0.4% | 7.4hPa | 2.6V | 03:08:00 | 00:00:00 | 00:00:00 | |
| DB0NH | 2026-09-05 18:40:59 | 49.18822 | 8.68367 | 125° | 35km/h | 33551m | 5.8m/s | -35.7°C | 1.8% | 7.4hPa | 2.6V | 00:00:00 | 02:11:24 | 00:00:00 | |
| DM0DOS-11 | 2026-09-05 18:40:58 | 49.18840 | 8.68323 | 97° | 24km/h | 33518m | 5.7m/s | -35.9°C | 1.8% | 7.5hPa | 2.6V | 03:08:24 | 02:11:18 | 00:00:00 | |
| DG9SBQ-11 | 2026-09-05 18:40:58 | 49.18822 | 8.68367 | 125° | 29km/h | 33551m | 5.8m/s | -35.8°C | 0.4% | 7.4hPa | 2.5V | 03:08:00 | 00:00:00 | 00:00:00 | |
| IW2NTF | 2026-09-05 18:40:57 | 49.18841 | 8.68313 | 95° | 27km/h | 33513m | 5m/s | -35.9°C | 1.8% | 7.5hPa | 2.5V | 03:08:25 | 02:11:17 | 00:00:00 | |
| SONCRA | 2026-09-05 18:40:57 | 49.18834 | 8.68345 | 131° | 20km/h | 33535m | 4.5m/s | -35.8°C | 0.4% | 7.5hPa | 2.5V | 00:00:00 | 00:00:00 | 00:00:00 | |
| DL1XH-15 | 2026-09-05 18:40:56 | 49.18842 | 8.68302 | 99° | 31km/h | 33508m | 4.7m/s | -36°C | 1.9% | 7.5hPa | 2.5V | 03:08:26 | 02:11:16 | 00:00:00 | |
| DL1XH-west | 2026-09-05 18:40:55 | 49.18837 | 8.68339 | 121° | 20km/h | 33530m | 5.4m/s | -35.8°C | 0% | 7.5hPa | 2.6V | 03:08:48 | 02:11:20 | 00:00:00 | |
| BIOWL1-15 | 2026-09-05 18:40:50 | 49.18844 | 8.68290 | 107° | 33km/h | 33503m | 5m/s | -36.1°C | 0% | 7.5hPa | 2.5V | 03:08:48 | 02:11:15 | 00:00:00 | |
| DL3AQ-11 | 2026-09-05 18:40:50 | 49.18847 | 8.68278 | 116° | 33km/h | 33498m | 6.1m/s | -36.1°C | 0.4% | 7.5hPa | 2.6V | 00:00:00 | 00:00:00 | 00:00:00 | |
| OE5DXL-15 | 2026-09-05 18:40:49 | 49.18847 | 8.68278 | 117° | 38km/h | 33498m | 6.1m/s | -36.1°C | 1.9% | 7.4hPa | 2.6V | 00:00:00 | 00:00:00 | 00:00:00 | |
| DL1XH1-15 | 2026-09-05 18:40:48 | 49.18878 | 8.68206 | 105° | 37km/h | 33466m | 6.5m/s | -36°C | 1.8% | 7.5hPa | 2.6V | 03:08:34 | 02:11:08 | 00:00:00 | |
| DB0UT-7 | 2026-09-05 18:40:47 | 49.18858 | 8.68256 | 131° | 40km/h | 33486m | 5.1m/s | -36.0°C | 1.9% | 7.4hPa | 2.5V | 00:00:00 | 02:11:12 | 00:00:00 | |
| DL1XH-15 | 2026-09-05 18:40:46 | 49.18880 | 8.68178 | 87° | 37km/h | 33453m | 5.8m/s | -36°C | 1.8% | 7.5hPa | 2.5V | 03:08:36 | 02:11:06 | 00:00:00 | |
| DJ2DS-15 | 2026-09-05 18:40:46 | 49.18864 | 8.68244 | 131° | 40km/h | 33481m | 4.2m/s | -36.0°C | 1.9% | 7.5hPa | 2.5V | 03:08:00 | 02:11:11 | 00:00:00 | |
| IW2NTF | 2026-09-05 18:40:45 | 49.18879 | 8.68164 | 85° | 35km/h | 33447m | 5.2m/s | -36°C | 1.8% | 7.5hPa | 2.5V | 03:08:37 | 02:11:05 | 00:00:00 | |
| DL1XH-west | 2026-09-05 18:40:44 | 49.18875 | 8.68220 | 116° | 38km/h | 33472m | 5.4m/s | -36°C | 0% | 7.5hPa | 2.6V | 03:08:48 | 02:11:09 | 00:00:00 | |
| DK7TD | 2026-09-05 18:40:43 | 49.18878 | 8.68206 | 106° | 37km/h | 33466m | 6.5m/s | -36°C | 0% | 7.5hPa | 2.6V | 03:08:48 | 02:11:08 | 00:00:00 | |
| BIOWL1-15 | 2026-09-05 18:40:40 | 49.18879 | 8.68164 | 85° | 35km/h | 33447m | 5.2m/s | -36°C | 0% | 7.5hPa | 2.5V | 03:08:48 | 02:11:05 | 00:00:00 | |
| PG1ADW-2 | 2026-09-05 18:40:40 | 49.18879 | 8.68164 | 86° | 37km/h | 33448m | 5.2m/s | 0°C | 0% | 0hPa | 2.6V | 00:00:00 | 00:00:00 | 00:00:00 | |
| DL0LBS | 2026-09-05 18:40:39 | 49.18879 | 8.68151 | 88° | 33km/h | 33442m | 5.5m/s | -36.0°C | 0.4% | 7.6hPa | 2.6V | 03:08:00 | 00:00:00 | 00:00:00 | |
| DM0DOS-11 | 2026-09-05 18:40:38 | 49.18892 | 8.68079 | 105° | 42km/h | 33409m | 6.4m/s | -36.1°C | 1.8% | 7.6hPa | 2.6V | 03:08:44 | 02:10:58 | 00:00:00 | |
| DL1XH-west | 2026-09-05 18:40:33 | 49.18892 | 8.68079 | 105° | 42km/h | 33409m | 6.4m/s | -36.1°C | 0% | 7.6hPa | 2.6V | 03:08:48 | 02:10:58 | 00:00:00 | |
| DK7TD | 2026-09-05 18:40:32 | 49.18894 | 8.68063 | 100° | 46km/h | 33403m | 6.4m/s | -36.1°C | 0% | 7.6hPa | 2.6V | 03:08:48 | 02:10:57 | 00:00:00 | |
| BIOWL1-15 | 2026-09-05 18:40:30 | 49.18897 | 8.68026 | 95° | 49km/h | 33391m | 5m/s | -36.1°C | 0% | 7.6hPa | 2.5V | 03:08:48 | 02:10:55 | 00:00:00 | |
| DB0NH | 2026-09-05 18:40:29 | 49.18898 | 8.68007 | 96° | 40km/h | 33387m | 5.2m/s | -36.1°C | 1.8% | 7.6hPa | 2.5V | 03:08:00 | 02:10:54 | 00:00:00 | |
| DL1XH1-15 | 2026-09-05 18:40:28 | 49.18907 | 8.67918 | 91° | 38km/h | 33353m | 6m/s | -36.4°C | 1.9% | 7.6hPa | 2.5V | 03:08:54 | 02:10:48 | 00:00:00 | |
| DL1XH-west | 2026-09-05 18:40:22 | 49.18907 | 8.67903 | 87° | 42km/h | 33347m | 6.3m/s | -36.4°C | 0% | 7.7hPa | 2.5V | 03:09:39 | 02:10:47 | 00:00:00 | |
| DK7TD | 2026-09-05 18:40:21 | 49.18906 | 8.67886 | 87° | 46km/h | 33341m | 5.4m/s | -36.5°C | 0% | 7.7hPa | 2.6V | 03:09:39 | 02:10:46 | 00:00:00 | |
| BIOWL1-15 | 2026-09-05 18:40:19 | 49.18906 | 8.67849 | 94° | 49km/h | 33331m | 4.8m/s | -36.6°C | 0% | 7.7hPa | 2.6V | 03:09:39 | 02:10:44 | 00:00:00 | |
| DL1XH1-15 | 2026-09-05 18:40:18 | 49.18929 | 8.67760 | 114° | 33km/h | 33297m | 4.9m/s | -36.7°C | 1.9% | 7.7hPa | 2.6V | 03:09:04 | 02:10:38 | 00:00:00 | |
| DB0UT-7 | 2026-09-05 18:40:17 | 49.18911 | 8.67813 | 110° | 37km/h | 33320m | 6.6m/s | -36.6°C | 1.9% | 7.6hPa | 2.5V | 00:00:00 | 00:00:00 | 00:00:00 | |
| DL1XH-15 | 2026-09-05 18:40:16 | 49.18933 | 8.67734 | 89° | 35km/h | 33285m | 6.4m/s | -36.8°C | 1.9% | 7.7hPa | 2.5V | 03:09:06 | 02:10:36 | 00:00:00 | |
| HSKMA3-T | 2026-09-05 18:40:16 | 49.18915 | 8.67797 | 117° | 42km/h | 33313m | 6.3m/s | -36.7°C | 0% | 7.7hPa | 2.6V | 03:13:03 | 02:10:41 | 00:00:00 | |
| DL1XH-west | 2026-09-05 18:40:11 | 49.18933 | 8.67734 | 89° | 37km/h | 33285m | 6.4m/s | -36.8°C | 0% | 7.7hPa | 2.5V | 03:09:39 | 02:10:36 | 00:00:00 | |
| BIOWL1-15 | 2026-09-05 18:40:09 | 49.18930 | 8.67705 | 78° | 42km/h | 33274m | 5m/s | -36.8°C | 0% | 7.7hPa | 2.6V | 03:09:39 | 02:10:34 | 00:00:00 | |
| HSKMA3-T | 2026-09-05 18:40:06 | 49.18926 | 8.67659 | 94° | 38km/h | 33257m | 6.4m/s | -36.8°C | 0% | 7.7hPa | 2.5V | 03:13:03 | 02:10:31 | 00:00:00 | |
| DJ2DS-15 | 2026-09-05 18:40:06 | 49.18926 | 8.67658 | 94° | 33km/h | 33258m | 6.4m/s | -36.8°C | 1.9% | 7.7hPa | 2.5V | 00:00:00 | 02:10:31 | 00:00:00 | |
| DL1XH-15 | 2026-09-05 18:40:05 | 49.18943 | 8.67574 | 98° | 40km/h | 33222m | 6.1m/s | -36.9°C | 1.9% | 7.8hPa | 2.5V | 03:09:17 | 02:10:25 | 00:00:00 | |
| DL1XH-west | 2026-09-05 18:40:00 | 49.18943 | 8.67574 | 98° | 40km/h | 33222m | 6.1m/s | -36.9°C | 0% | 7.8hPa | 2.5V | 03:09:39 | 02:10:25 | 00:00:00 | |
| BIOWL1-15 | 2026-09-05 18:39:59 | 49.18944 | 8.67559 | 91° | 40km/h | 33216m | 5.5m/s | -36.9°C | 0% | 7.8hPa | 2.5V | 03:09:39 | 02:10:24 | 00:00:00 | |
| DF3TZ-5 | 2026-09-05 18:39:58 | 49.18942 | 8.67530 | 80° | 33km/h | 33205m | 5.4m/s | -36.9°C | 0.4% | 7.8hPa | 2.6V | 00:00:00 | 00:00:00 | 00:00:00 | |
| DL0LBS | 2026-09-05 18:39:57 | 49.18943 | 8.67544 | 85° | 38km/h | 33211m | 5.4m/s | -36.9°C | 0.4% | 7.8hPa | 2.6V | 03:09:00 | 00:00:00 | 00:00:00 | |
| DM0DOS-11 | 2026-09-05 18:39:56 | 49.18936 | 8.67472 | 82° | 27km/h | 33170m | 6m/s | -37.1°C | 1.9% | 7.8hPa | 2.6V | 03:09:26 | 02:10:16 | 00:00:00 | |
| DL1XH-15 | 2026-09-05 18:39:55 | 49.18935 | 8.67461 | 81° | 33km/h | 33163m | 6.4m/s | -37.1°C | 1.9% | 7.9hPa | 2.5V | 03:09:27 | 02:10:15 | 00:00:00 | |
| HSKMA3-T | 2026-09-05 18:39:55 | 49.18939 | 8.67507 | 80° | 26km/h | 33192m | 6.7m/s | -37°C | 0% | 7.8hPa | 2.5V | 03:13:03 | 02:10:20 | 00:00:00 | |
| DL1XH-west | 2026-09-05 18:39:49 | 49.18934 | 8.67448 | 83° | 38km/h | 33157m | 6m/s | -37.1°C | 0% | 7.9hPa | 2.5V | 03:09:39 | 02:10:14 | 00:00:00 | |
| DK7TD | 2026-09-05 18:39:48 | 49.18933 | 8.67433 | 86° | 40km/h | 33151m | 5.3m/s | -37.2°C | 0% | 7.9hPa | 2.6V | 03:09:39 | 02:10:13 | 00:00:00 | |
| DB0UT-7 | 2026-09-05 18:39:47 | 49.18933 | 8.67417 | 92° | 37km/h | 33146m | 5.2m/s | -37.2°C | 1.9% | 7.8hPa | 2.6V | 03:09:00 | 02:10:12 | 00:00:00 | |
| DM0DOS-11 | 2026-09-05 18:39:46 | 49.18945 | 8.67335 | 96° | 33km/h | 33111m | 6.2m/s | -37.3°C | 2% | 7.9hPa | 2.6V | 03:09:36 | 02:10:06 | 00:00:00 | |
| DJ2DS-15 | 2026-09-05 18:39:46 | 49.18934 | 8.67401 | 98° | 38km/h | 33141m | 6.3m/s | -37.1°C | 1.9% | 7.8hPa | 2.6V | 00:00:00 | 02:10:11 | 00:00:00 | |
| DL1XH-15 | 2026-09-05 18:39:45 | 49.18946 | 8.67322 | 87° | 35km/h | 33104m | 6.9m/s | -37.3°C | 2% | 7.9hPa | 2.6V | 03:09:37 | 02:10:05 | 00:00:00 | |
| HSKMA3-T | 2026-09-05 18:39:44 | 49.18938 | 8.67373 | 110° | 37km/h | 33127m | 6.1m/s | -37.2°C | 0% | 7.9hPa | 2.6V | 03:13:03 | 02:10:09 | 00:00:00 | |
| DO3MHA-11 | 2026-09-05 18:39:43 | 49.18941 | 8.67360 | 111° | 35km/h | 33122m | 5.1m/s | -37.2°C | 2.0% | 7.8hPa | 2.5V | 00:00:00 | 02:10:08 | 00:00:00 | |
| DD1CC8 | 2026-09-05 18:39:42 | 49.18945 | 8.67335 | 96° | 33km/h | 33111m | 6.2m/s | -37.3°C | 0.4% | 7.9hPa | 2.6V | 00:00:00 | 00:00:00 | 00:00:00 | |
| DL6DJ-15 | 2026-09-05 18:39:40 | 49.18946 | 8.67322 | 87° | 35km/h | 33104m | 6.9m/s | -37.3°C | 0.4% | 7.9hPa | 2.6V | 00:00:00 | 00:00:00 | 00:00:00 | |
| OE5DXL-15 | 2026-09-05 18:39:39 | 49.18945 | 8.67308 | 83° | 37km/h | 33098m | 6.1m/s | -37.3°C | 2.0% | 7.9hPa | 2.6V | 03:09:00 | 00:00:00 | 00:00:00 | |
| BIOWL1-15 | 2026-09-05 18:39:39 | 49.18945 | 8.67308 | 82° | 37km/h | 33098m | 6.1m/s | -37.3°C | 0% | 7.9hPa | 2.6V | 03:09:39 | 02:10:04 | 00:00:00 | |
| DL1XH1-15 | 2026-09-05 18:39:38 | 49.18947 | 8.67227 | 110° | 37km/h | 33062m | 5.3m/s | -37.4°C | 2% | 8hPa | 2.6V | 03:09:44 | 02:09:58 | 00:00:00 | |
| DK7TD | 2026-09-05 18:39:38 | 49.18943 | 8.67294 | 81° | 38km/h | 33092m | 5.2m/s | -37.3°C | 0% | 8hPa | 2.5V | 03:09:39 | 02:10:03 | 00:00:00 | |
| DL0LBS | 2026-09-05 18:39:37 | 49.18942 | 8.67280 | 84° | 37km/h | 33087m | 5.5m/s | -37.3°C | 0.5% | 8.0hPa | 2.5V | 03:10:00 | 00:00:00 | 00:00:00 | |
| LOEBOVI | 2026-09-05 18:39:36 | 49.18941 | 8.67266 | 91° | 35km/h | 33081m | 6.6m/s | -37.3°C | 0% | 0hPa | 2.5V | 00:00:00 | 00:00:00 | 00:00:00 | |
| DF7PN | 2026-09-05 18:39:35 | 49.18942 | 8.67253 | 99° | 33km/h | 33074m | 6.4m/s | -37.3°C | 0.4% | 8.0hPa | 2.5V | 00:00:00 | 00:00:00 | 00:00:00 | |
| DG9SBQ-11 | 2026-09-05 18:39:34 | 49.18942 | 8.67253 | 101° | 35km/h | 33074m | 6.4m/s | -37.3°C | 0.4% | 8.0hPa | 2.5V | 03:10:00 | 00:00:00 | 00:00:00 | |
| DO3MHA-11 | 2026-09-05 18:39:33 | 49.18947 | 8.67227 | 111° | 38km/h | 33063m | 5.3m/s | -37.3°C | 2.0% | 7.9hPa | 2.5V | 00:00:00 | 02:09:58 | 00:00:00 | |
| DJ2KF-10 | 2026-09-05 18:39:31 | 49.18953 | 8.67198 | 104° | 35km/h | 33051m | 6.4m/s | -37.4°C | 2.0% | 8.0hPa | 2.5V | 00:00:00 | 02:09:56 | 00:00:00 | |
| CB1BUN | 2026-09-05 18:39:30 | 49.18953 | 8.67198 | 105° | 42km/h | 33051m | 6.4m/s | -37.5°C | 0.4% | 8.0hPa | 2.6V | 03:10:00 | 00:00:00 | 00:00:00 | |
| DJ2DS-15 | 2026-09-05 18:39:29 | 49.18956 | 8.67147 | 88° | 44km/h | 33032m | 5.7m/s | -37.5°C | 0.5% | 8.0hPa | 2.6V | 00:00:00 | 00:00:00 | 00:00:00 | |
| DL1XH1-15 | 2026-09-05 18:39:28 | 49.18957 | 8.67082 | 100° | 24km/h | 33001m | 5.7m/s | -37.6°C | 2% | 8.1hPa | 2.6V | 03:09:54 | 02:09:48 | 00:00:00 | |
| DL1XH-west | 2026-09-05 18:39:28 | 49.18956 | 8.67147 | 89° | 44km/h | 33031m | 5.7m/s | -37.5°C | 0% | 8hPa | 2.6V | 03:10:30 | 02:09:53 | 00:00:00 | |
| DK7TD | 2026-09-05 18:39:27 | 49.18956 | 8.67130 | 87° | 42km/h | 33026m | 5.4m/s | -37.5°C | 0% | 0hPa | 2.5V | 03:11:21 | 02:09:52 | 00:00:00 | |
| NBG1-10 | 2026-09-05 18:39:27 | 49.18956 | 8.67130 | 88° | 33km/h | 33026m | 5.4m/s | -37.5°C | 2.0% | 8.0hPa | 2.5V | 00:00:00 | 02:09:52 | 00:00:00 | |
| DM0DOS-11 | 2026-09-05 18:39:26 | 49.18958 | 8.67062 | 91° | 27km/h | 32989m | 6.4m/s | -37.6°C | 2% | 8.1hPa | 2.5V | 03:09:56 | 02:09:46 | 00:00:00 | |
| KANTATE | 2026-09-05 18:39:26 | 49.18955 | 8.67115 | 89° | 37km/h | 33021m | 6.1m/s | -37.6°C | 0.4% | 8.0hPa | 2.5V | 00:00:00 | 00:00:00 | 00:00:00 | |
| DK5PH-5 | 2026-09-05 18:39:25 | 49.18955 | 8.67103 | 93° | 35km/h | 33014m | 6.9m/s | -37.5°C | 2.0% | 8.0hPa | 2.5V | 03:09:00 | 02:09:50 | 00:00:00 | |
| DO3MHA-11 | 2026-09-05 18:39:23 | 49.18956 | 8.67082 | 101° | 35km/h | 33001m | 5.7m/s | -37.5°C | 2.0% | 8.0hPa | 2.5V | 03:09:00 | 02:09:48 | 00:00:00 | |
| HARRO8 | 2026-09-05 18:39:22 | 49.18958 | 8.67072 | 98° | 24km/h | 32995m | 5.5m/s | -37.6°C | 0.4% | 8.1hPa | 2.5V | 00:00:00 | 00:00:00 | 00:00:00 | |
| DM7RM-13 | 2026-09-05 18:39:21 | 49.18958 | 8.67072 | 100° | 26km/h | 32996m | 5.5m/s | -37.6°C | 0.4% | 8.1hPa | 2.5V | 03:10:00 | 00:00:00 | 00:00:00 | |
| DO3DL | 2026-09-05 18:39:20 | 49.18958 | 8.67062 | 93° | 27km/h | 32989m | 6.4m/s | -37.6°C | 0.4% | 8.1hPa | 2.5V | 03:10:00 | 00:00:00 | 00:00:00 | |
| DL1XH1-15 | 2026-09-05 18:39:18 | 49.18961 | 8.66946 | 102° | 37km/h | 32939m | 5.5m/s | -37.5°C | 2% | 8.1hPa | 2.5V | 03:10:04 | 02:09:38 | 00:00:00 | |
| DL1XH-west | 2026-09-05 18:39:17 | 49.18956 | 8.67007 | 89° | 42km/h | 32964m | 5.6m/s | -37.5°C | 0% | 8.1hPa | 2.6V | 03:10:30 | 02:09:42 | 00:00:00 | |
| HSKMA3-T | 2026-09-05 18:39:16 | 49.18956 | 8.66991 | 93° | 42km/h | 32958m | 6.7m/s | -37.5°C | 0% | 8.1hPa | 2.6V | 03:13:03 | 02:09:41 | 00:00:00 | |
| DL1XH-15 | 2026-09-05 18:39:15 | 49.18963 | 8.66904 | 86° | 37km/h | 32920m | 6.9m/s | -37.5°C | 2% | 8.1hPa | 2.6V | 03:10:07 | 02:09:35 | 00:00:00 | |
| DO3MHA-11 | 2026-09-05 18:39:13 | 49.18961 | 8.66946 | 103° | 33km/h | 32939m | 5.4m/s | -37.5°C | 2.0% | 8.1hPa | 2.5V | 00:00:00 | 02:09:38 | 00:00:00 | |
| DG9SBQ-11 | 2026-09-05 18:39:10 | 49.18964 | 8.66918 | 94° | 37km/h | 32927m | 7.0m/s | -37.5°C | 0.4% | 8.1hPa | 2.5V | 03:10:00 | 00:00:00 | 00:00:00 | |
| OE5DXL-15 | 2026-09-05 18:39:09 | 49.18962 | 8.66890 | 83° | 35km/h | 32914m | 5.9m/s | -37.5°C | 2.0% | 8.1hPa | 2.5V | 00:00:00 | 00:00:00 | 00:00:00 | |
| DL1XH1-15 | 2026-09-05 18:39:08 | 49.18966 | 8.66821 | 107° | 31km/h | 32877m | 5m/s | -37.5°C | 2% | 8.2hPa | 2.5V | 03:10:14 | 02:09:28 | 00:00:00 | |
| DL1XH-west | 2026-09-05 18:39:07 | 49.18960 | 8.66864 | 87° | 31km/h | 32902m | 5.9m/s | -37.5°C | 0% | 8.2hPa | 2.6V | 03:10:30 | 02:09:32 | 00:00:00 | |
| DO3DL | 2026-09-05 18:39:07 | 49.18960 | 8.66864 | 88° | 31km/h | 32902m | 5.9m/s | -37.5°C | 0.4% | 8.2hPa | 2.6V | 03:10:00 | 00:00:00 | 00:00:00 | |
| DJ2DS-15 | 2026-09-05 18:39:06 | 49.18960 | 8.66853 | 94° | 35km/h | 32896m | 6.9m/s | -37.5°C | 2.0% | 8.1hPa | 2.6V | 00:00:00 | 02:09:31 | 00:00:00 | |
| DL1XH-15 | 2026-09-05 18:39:05 | 49.18970 | 8.66780 | 91° | 44km/h | 32858m | 7m/s | -37.5°C | 2% | 8.2hPa | 2.6V | 03:10:17 | 02:09:25 | 00:00:00 | |
| HSKMA3-T | 2026-09-05 18:39:05 | 49.18961 | 8.66842 | 103° | 27km/h | 32888m | 6.5m/s | -37.5°C | 0% | 8.2hPa | 2.6V | 03:13:03 | 02:09:30 | 00:00:00 | |
| DK7TD | 2026-09-05 18:39:04 | 49.18963 | 8.66832 | 110° | 29km/h | 32882m | 5.3m/s | -37.5°C | 0% | 0hPa | 2.6V | 03:11:21 | 02:09:29 | 00:00:00 | |
| DL1XH-west | 2026-09-05 18:38:57 | 49.18969 | 8.66728 | 90° | 42km/h | 32841m | 5.2m/s | -37.5°C | 0% | 8.2hPa | 2.5V | 03:10:30 | 02:09:22 | 00:00:00 | |
| BIOWL1-15 | 2026-09-05 18:38:56 | 49.18969 | 8.66712 | 93° | 37km/h | 32835m | 6.4m/s | -37.5°C | 0% | 8.2hPa | 2.5V | 03:10:30 | 02:09:21 | 00:00:00 | |
| DL1XH-15 | 2026-09-05 18:38:55 | 49.18977 | 8.66654 | 84° | 29km/h | 32798m | 6.9m/s | -37.4°C | 2% | 8.3hPa | 2.5V | 03:10:27 | 02:09:15 | 00:00:00 | |
| HSKMA3-T | 2026-09-05 18:38:53 | 49.18974 | 8.66680 | 111° | 22km/h | 32816m | 5.7m/s | -37.4°C | 0% | 8.3hPa | 2.6V | 03:13:03 | 02:09:18 | 00:00:00 | |
| DK7TD | 2026-09-05 18:38:49 | 49.18975 | 8.66642 | 78° | 35km/h | 32791m | 6.7m/s | -37.4°C | 0% | 0hPa | 2.6V | 03:11:21 | 02:09:14 | 00:00:00 | |
| NBG1-10 | 2026-09-05 18:38:49 | 49.18975 | 8.66642 | 78° | 27km/h | 32792m | 6.6m/s | -37.3°C | 2.0% | 8.3hPa | 2.5V | 00:00:00 | 02:09:14 | 00:00:00 | |
| DL1XH1-15 | 2026-09-05 18:38:48 | 49.18968 | 8.66551 | 108° | 29km/h | 32757m | 7.2m/s | -37.3°C | 2% | 8.3hPa | 2.5V | 03:10:34 | 02:09:08 | 00:00:00 | |
| DL1XH-west | 2026-09-05 18:38:46 | 49.18968 | 8.66594 | 80° | 44km/h | 32775m | 4.7m/s | -37.3°C | 0% | 8.3hPa | 2.6V | 03:11:21 | 02:09:11 | 00:00:00 | |
| AZAK | 2026-09-05 18:38:46 | 49.18968 | 8.66594 | 81° | 44km/h | 32775m | 4.7m/s | -37.3°C | 0.4% | 8.3hPa | 2.6V | 00:00:00 | 00:00:00 | 00:00:00 | |
| DM0DOS-11 | 2026-09-05 18:38:44 | 49.18981 | 8.66520 | 113° | 22km/h | 32733m | 5.8m/s | -37.4°C | 2% | 8.4hPa | 2.6V | 03:10:38 | 02:09:04 | 00:00:00 | |
| HSKMA3-T | 2026-09-05 18:38:42 | 49.18971 | 8.66542 | 122° | 26km/h | 32750m | 6.6m/s | -37.3°C | 0% | 8.4hPa | 2.6V | 03:13:03 | 02:09:07 | 00:00:00 | |
| DO1YAY-16 | 2026-09-05 18:38:42 | 49.18971 | 8.66542 | 122° | 26km/h | 32750m | 6.6m/s | -37.3°C | 0.4% | 8.4hPa | 2.6V | 00:00:00 | 00:00:00 | 00:00:00 | |
| DM7RM-13 | 2026-09-05 18:38:41 | 49.18971 | 8.66542 | 123° | 26km/h | 32750m | 6.6m/s | -37.3°C | 0.5% | 8.4hPa | 2.6V | 03:11:00 | 00:00:00 | 00:00:00 | |
| OE5DXL-15 | 2026-09-05 18:38:39 | 49.18981 | 8.66520 | 114° | 26km/h | 32733m | 5.7m/s | -37.3°C | 2.0% | 8.3hPa | 2.6V | 00:00:00 | 00:00:00 | 00:00:00 | |
| DL1XH1-15 | 2026-09-05 18:38:38 | 49.18979 | 8.66446 | 93° | 37km/h | 32696m | 6.6m/s | -37.4°C | 2% | 8.4hPa | 2.5V | 03:10:44 | 02:08:58 | 00:00:00 | |
| DK7TD | 2026-09-05 18:38:38 | 49.18983 | 8.66512 | 96° | 24km/h | 32727m | 6.6m/s | -37.4°C | 0% | 0hPa | 2.6V | 03:11:21 | 02:09:03 | 00:00:00 | |
| DL1XH-west | 2026-09-05 18:38:36 | 49.18982 | 8.66489 | 81° | 35km/h | 32714m | 6m/s | -37.4°C | 0% | 8.4hPa | 2.6V | 03:11:21 | 02:09:01 | 00:00:00 | |
| HEMX73-11 | 2026-09-05 18:38:35 | 49.18982 | 8.66489 | 82° | 35km/h | 32714m | 6.0m/s | -37.4°C | 0.4% | 8.4hPa | 2.6V | 03:11:00 | 00:00:00 | 00:00:00 | |
| DL0LBS | 2026-09-05 18:38:34 | 49.18980 | 8.66475 | 83° | 38km/h | 32708m | 5.4m/s | -37.4°C | 0.4% | 8.4hPa | 2.6V | 03:11:00 | 00:00:00 | 00:00:00 | |
| DM0DOS-11 | 2026-09-05 18:38:33 | 49.18990 | 8.66391 | 110° | 24km/h | 32665m | 6.5m/s | -37.5°C | 1.9% | 8.4hPa | 2.6V | 03:10:49 | 02:08:53 | 00:00:00 | |
| HSKMA3-T | 2026-09-05 18:38:31 | 49.18982 | 8.66421 | 109° | 31km/h | 32683m | 5.9m/s | -37.5°C | 0% | 8.4hPa | 2.6V | 03:13:03 | 02:08:56 | 00:00:00 | |
| DJ2KF-10 | 2026-09-05 18:38:31 | 49.18982 | 8.66421 | 110° | 27km/h | 32684m | 5.8m/s | -37.4°C | 2.0% | 8.4hPa | 2.6V | 00:00:00 | 02:08:56 | 00:00:00 | |
| DB0NH | 2026-09-05 18:38:29 | 49.18988 | 8.66401 | 115° | 27km/h | 32672m | 6.5m/s | -37.4°C | 2.0% | 8.4hPa | 2.6V | 03:10:00 | 02:08:54 | 00:00:00 | |
| DL1XH1-15 | 2026-09-05 18:38:28 | 49.18998 | 8.66357 | 113° | 16km/h | 32634m | 5.9m/s | -37.5°C | 2% | 8.5hPa | 2.6V | 03:10:54 | 02:08:48 | 00:00:00 | |
| DK7TD | 2026-09-05 18:38:27 | 49.18992 | 8.66383 | 108° | 22km/h | 32659m | 6m/s | -37.5°C | 0% | 0hPa | 2.5V | 03:11:21 | 02:08:52 | 00:00:00 | |
| DL1XH-west | 2026-09-05 18:38:26 | 49.18994 | 8.66376 | 108° | 20km/h | 32653m | 5.8m/s | -37.5°C | 0% | 8.5hPa | 2.5V | 03:11:21 | 02:08:51 | 00:00:00 | |
| DJ2DS-15 | 2026-09-05 18:38:26 | 49.18993 | 8.66375 | 109° | 24km/h | 32653m | 5.8m/s | -37.4°C | 1.9% | 8.4hPa | 2.6V | 00:00:00 | 02:08:51 | 00:00:00 | |
| DK5PH-5 | 2026-09-05 18:38:25 | 49.18995 | 8.66369 | 111° | 27km/h | 32647m | 6.0m/s | -37.4°C | 1.9% | 8.4hPa | 2.6V | 00:00:00 | 02:08:50 | 00:00:00 | |
| BIOWL1-15 | 2026-09-05 18:38:25 | 49.18995 | 8.66369 | 111° | 18km/h | 32647m | 6.1m/s | -37.5°C | 0% | 8.5hPa | 2.6V | 03:11:21 | 02:08:50 | 00:00:00 | |
| DO3MHA-11 | 2026-09-05 18:38:23 | 49.18998 | 8.66357 | 114° | 29km/h | 32634m | 5.8m/s | -37.4°C | 2.0% | 8.5hPa | 2.6V | 00:00:00 | 02:08:48 | 00:00:00 | |
| DG9SBQ-11 | 2026-09-05 18:38:22 | 49.18998 | 8.66357 | 114° | 16km/h | 32634m | 5.9m/s | -37.5°C | 0.4% | 8.5hPa | 2.6V | 03:11:00 | 00:00:00 | 00:00:00 | |
| DL3AQ-11 | 2026-09-05 18:38:21 | 49.19001 | 8.66331 | 88° | 29km/h | 32617m | 6.6m/s | -37.6°C | 0.4% | 8.5hPa | 2.6V | 00:00:00 | 00:00:00 | 00:00:00 | |
| HARRO8 | 2026-09-05 18:38:20 | 49.19001 | 8.66331 | 88° | 29km/h | 32617m | 6.6m/s | -37.6°C | 0.4% | 8.5hPa | 2.6V | 00:00:00 | 00:00:00 | 00:00:00 | |
| BIOWL7-15 | 2026-09-05 18:38:19 | 49.19001 | 8.66331 | 90° | 29km/h | 32617m | 6.6m/s | -37.6°C | 0.4% | 8.5hPa | 2.6V | 00:00:00 | 00:00:00 | 00:00:00 | |
| DL1XH1-15 | 2026-09-05 18:38:18 | 49.19004 | 8.66246 | 138° | 22km/h | 32575m | 6.2m/s | -37.9°C | 2% | 8.6hPa | 2.6V | 03:11:04 | 02:08:38 | 00:00:00 | |
| DK7TD | 2026-09-05 18:38:17 | 49.18998 | 8.66289 | 86° | 38km/h | 32598m | 4.4m/s | -37.8°C | 0% | 0hPa | 2.6V | 03:11:21 | 02:08:42 | 00:00:00 | |
| DB0UT-7 | 2026-09-05 18:38:17 | 49.18998 | 8.66289 | 86° | 27km/h | 32599m | 4.4m/s | -37.7°C | 2.0% | 8.5hPa | 2.6V | 00:00:00 | 00:00:00 | 00:00:00 | |
| DG9SBQ-11 | 2026-09-05 18:38:16 | 49.18998 | 8.66289 | 87° | 38km/h | 32599m | 4.4m/s | -37.8°C | 0.5% | 8.5hPa | 2.6V | 03:11:00 | 00:00:00 | 00:00:00 | |
| DL1XH-15 | 2026-09-05 18:38:15 | 49.19016 | 8.66236 | 140° | 13km/h | 32559m | 5.9m/s | -38°C | 2% | 8.6hPa | 2.6V | 03:11:07 | 02:08:35 | 00:00:00 | |
| DL1XH-west | 2026-09-05 18:38:15 | 49.18999 | 8.66262 | 102° | 29km/h | 32588m | 6.4m/s | -37.9°C | 0% | 8.6hPa | 2.5V | 03:11:21 | 02:08:40 | 00:00:00 | |
| HEMX73-11 | 2026-09-05 18:38:14 | 49.18999 | 8.66262 | 103° | 29km/h | 32589m | 6.4m/s | -37.9°C | 0.4% | 8.6hPa | 2.6V | 03:11:00 | 00:00:00 | 00:00:00 | |
| DO3MHA-11 | 2026-09-05 18:38:13 | 49.19005 | 8.66245 | 139° | 22km/h | 32576m | 6.2m/s | -37.9°C | 2.0% | 8.5hPa | 2.6V | 00:00:00 | 02:08:38 | 00:00:00 | |
| NBG1-10 | 2026-09-05 18:38:11 | 49.19012 | 8.66238 | 156° | 24km/h | 32565m | 5.0m/s | -37.9°C | 2.0% | 8.5hPa | 2.6V | 03:11:00 | 02:08:36 | 00:00:00 | |
| DL3AQ-11 | 2026-09-05 18:38:10 | 49.19017 | 8.66232 | 105° | 11km/h | 32553m | 6.4m/s | -38.0°C | 0.5% | 8.6hPa | 2.6V | 00:00:00 | 00:00:00 | 00:00:00 | |
| DL1XH1-15 | 2026-09-05 18:38:08 | 49.19023 | 8.66167 | 119° | 42km/h | 32519m | 7m/s | -38°C | 2% | 8.6hPa | 2.6V | 03:11:14 | 02:08:28 | 00:00:00 | |
| DL6DJ-15 | 2026-09-05 18:38:07 | 49.19016 | 8.66207 | 87° | 29km/h | 32536m | 4.8m/s | -38.0°C | 0.5% | 8.6hPa | 2.6V | 00:00:00 | 00:00:00 | 00:00:00 | |
| DJ2DS-15 | 2026-09-05 18:38:06 | 49.19016 | 8.66207 | 88° | 31km/h | 32536m | 4.7m/s | -37.9°C | 2.0% | 8.6hPa | 2.6V | 03:11:00 | 02:08:31 | 00:00:00 | |
| DL1XH-15 | 2026-09-05 18:38:05 | 49.19044 | 8.66131 | 141° | 40km/h | 32501m | 4.3m/s | -38°C | 2% | 8.7hPa | 2.6V | 03:11:17 | 02:08:25 | 00:00:00 | |
| BIOWL1-15 | 2026-09-05 18:38:05 | 49.19017 | 8.66195 | 97° | 35km/h | 32531m | 5m/s | -38°C | 0% | 8.6hPa | 2.6V | 03:11:21 | 02:08:30 | 00:00:00 | |
| DL1XH-west | 2026-09-05 18:38:04 | 49.19019 | 8.66181 | 108° | 38km/h | 32525m | 6m/s | -38°C | 0% | 8.6hPa | 2.5V | 03:11:21 | 02:08:29 | 00:00:00 | |
| DL1XH-west | 2026-09-05 18:37:54 | 49.19058 | 8.66082 | 69° | 20km/h | 32466m | 4.9m/s | -38°C | 0% | 8.7hPa | 2.6V | 03:12:12 | 02:08:19 | 00:00:00 | |
| HSKMA3-T | 2026-09-05 18:37:46 | 49.19092 | 8.66015 | 127° | 40km/h | 32421m | 6.2m/s | -38.4°C | 0% | 8.8hPa | 2.5V | 03:13:03 | 02:08:11 | 00:00:00 | |
| BIOWL9-15 | 2026-09-05 18:37:46 | 49.19097 | 8.66002 | 115° | 40km/h | 32415m | 6.5m/s | -38.4°C | 0.5% | 8.8hPa | 2.6V | 00:00:00 | 00:00:00 | 00:00:00 | |
| DL1XH-west | 2026-09-05 18:37:44 | 49.19101 | 8.65987 | 106° | 40km/h | 32408m | 6.2m/s | -38.4°C | 0% | 8.8hPa | 2.6V | 03:12:12 | 02:08:09 | 00:00:00 | |
| BIOWL1-15 | 2026-09-05 18:37:43 | 49.19103 | 8.65972 | 99° | 40km/h | 32403m | 5.5m/s | -38.4°C | 0% | 8.8hPa | 2.6V | 03:12:12 | 02:08:08 | 00:00:00 | |
| DK7TD | 2026-09-05 18:37:38 | 49.19117 | 8.65915 | 143° | 29km/h | 32373m | 6.6m/s | -38.4°C | 0% | 0hPa | 2.6V | 03:12:12 | 02:08:03 | 00:00:00 | |
| HSKMA3-T | 2026-09-05 18:37:35 | 49.19135 | 8.65899 | 143° | 26km/h | 32358m | 4.4m/s | -38.3°C | 0% | 8.9hPa | 2.5V | 03:13:03 | 02:08:00 | 00:00:00 | |
| BIOWL1-15 | 2026-09-05 18:37:34 | 49.19142 | 8.65874 | 84° | 31km/h | 32340m | 6.8m/s | -38.3°C | 0% | 8.9hPa | 2.6V | 03:12:12 | 02:07:57 | 00:00:00 | |
| DM0DOS-11 | 2026-09-05 18:37:33 | 49.19136 | 8.65807 | 95° | 49km/h | 32320m | 4.5m/s | -38.3°C | 2.1% | 8.9hPa | 2.5V | 03:11:49 | 02:07:53 | 00:00:00 | |
| DL1XH-west | 2026-09-05 18:37:33 | 49.19142 | 8.65884 | 102° | 24km/h | 32347m | 6.5m/s | -38.3°C | 0% | 8.9hPa | 2.5V | 03:12:12 | 02:07:58 | 00:00:00 | |
| DK7TD | 2026-09-05 18:37:28 | 49.19136 | 8.65807 | 96° | 49km/h | 32320m | 4.5m/s | -38.3°C | 0% | 0hPa | 2.5V | 03:12:12 | 02:07:53 | 00:00:00 | |
| DJ2DS-15 | 2026-09-05 18:37:26 | 49.19144 | 8.65771 | 122° | 38km/h | 32308m | 6.8m/s | -38.3°C | 2.1% | 8.9hPa | 2.6V | 00:00:00 | 02:07:51 | 00:00:00 | |
| CB1BUN | 2026-09-05 18:37:25 | 49.19152 | 8.65756 | 136° | 49km/h | 32302m | 6.1m/s | -38.4°C | 0.5% | 8.9hPa | 2.6V | 03:12:00 | 00:00:00 | 00:00:00 | |
| SONDE2-11 | 2026-09-05 18:37:24 | 49.19161 | 8.65744 | 143° | 44km/h | 32296m | 4.8m/s | -38.4°C | 0.5% | 9.0hPa | 2.6V | 00:00:00 | 00:00:00 | 00:00:00 | |
| DM0DOS-11 | 2026-09-05 18:37:23 | 49.19177 | 8.65700 | 64° | 33km/h | 32263m | 5.4m/s | -38.4°C | 2.1% | 9hPa | 2.6V | 03:11:59 | 02:07:43 | 00:00:00 | |
| HSKMA3-T | 2026-09-05 18:37:23 | 49.19169 | 8.65735 | 149° | 38km/h | 32291m | 4.8m/s | -38.5°C | 0% | 8.9hPa | 2.6V | 03:13:03 | 02:07:48 | 00:00:00 | |
| BIOWL1-15 | 2026-09-05 18:37:23 | 49.19181 | 8.65723 | 128° | 18km/h | 32280m | 5.7m/s | -38.5°C | 0% | 9hPa | 2.5V | 03:12:12 | 02:07:46 | 00:00:00 | |
| DL1XH-west | 2026-09-05 18:37:22 | 49.19176 | 8.65729 | 147° | 27km/h | 32286m | 5.7m/s | -38.5°C | 0% | 8.9hPa | 2.5V | 03:12:12 | 02:07:47 | 00:00:00 | |
| DK7TD | 2026-09-05 18:37:18 | 49.19177 | 8.65700 | 64° | 33km/h | 32263m | 5.4m/s | -38.4°C | 0% | 0hPa | 2.6V | 03:12:12 | 02:07:43 | 00:00:00 | |
| DB0NH | 2026-09-05 18:37:18 | 49.19177 | 8.65700 | 65° | 40km/h | 32263m | 5.3m/s | -38.3°C | 2.1% | 8.9hPa | 2.5V | 00:00:00 | 02:07:43 | 00:00:00 | |
| DB0UT-7 | 2026-09-05 18:37:17 | 49.19174 | 8.65687 | 71° | 37km/h | 32258m | 5.5m/s | -38.3°C | 2.1% | 8.9hPa | 2.5V | 00:00:00 | 00:00:00 | 00:00:00 | |
| DL1XH-15 | 2026-09-05 18:37:16 | 49.19178 | 8.65575 | 106° | 46km/h | 32225m | 6m/s | -38.3°C | 2.1% | 9hPa | 2.5V | 03:12:06 | 02:07:36 | 00:00:00 | |
| DL1XH-west | 2026-09-05 18:37:11 | 49.19178 | 8.65575 | 106° | 46km/h | 32225m | 6m/s | -38.3°C | 0% | 9hPa | 2.5V | 03:12:12 | 02:07:36 | 00:00:00 | |
| HSKMA3-T | 2026-09-05 18:37:09 | 49.19184 | 8.65546 | 105° | 33km/h | 32214m | 5.5m/s | -38.3°C | 0% | 9hPa | 2.6V | 03:13:03 | 02:07:34 | 00:00:00 | |
| DK7TD | 2026-09-05 18:37:08 | 49.19186 | 8.65535 | 103° | 29km/h | 32208m | 5.4m/s | 0°C | 0% | 0hPa | 2.6V | 03:12:12 | 02:07:33 | 00:00:00 | |
| DL1XH1-15 | 2026-09-05 18:37:08 | 49.19196 | 8.65481 | 106° | 35km/h | 32180m | 5.3m/s | -38.3°C | 2% | 9.1hPa | 2.5V | 03:12:14 | 02:07:28 | 00:00:00 | |
| DD1CC8 | 2026-09-05 18:37:07 | 49.19189 | 8.65515 | 105° | 26km/h | 32198m | 5.7m/s | -38.3°C | 0.4% | 9.1hPa | 2.6V | 00:00:00 | 00:00:00 | 00:00:00 | |
| DL1XH-15 | 2026-09-05 18:37:06 | 49.19199 | 8.65453 | 97° | 38km/h | 32169m | 5.2m/s | -38.3°C | 2% | 9.1hPa | 2.6V | 03:12:16 | 02:07:26 | 00:00:00 | |
| BIOWL1-15 | 2026-09-05 18:37:00 | 49.19220 | 8.65316 | 114° | 31km/h | 32114m | 6m/s | -38.8°C | 0% | 9.2hPa | 2.5V | 03:13:03 | 02:07:16 | 00:00:00 | |
| DL1XH-west | 2026-09-05 18:37:00 | 49.19200 | 8.65439 | 92° | 38km/h | 32163m | 6.6m/s | -38.4°C | 0% | 9.1hPa | 2.6V | 03:13:03 | 02:07:25 | 00:00:00 | |
| DF7PN | 2026-09-05 18:37:00 | 49.19200 | 8.65425 | 87° | 37km/h | 32157m | 6.2m/s | -38.5°C | 0.5% | 9.1hPa | 2.6V | 00:00:00 | 00:00:00 | 00:00:00 | |
| DM0DOS-11 | 2026-09-05 18:36:59 | 49.19207 | 8.65354 | 116° | 40km/h | 32129m | 5.9m/s | -38.7°C | 2.1% | 9.2hPa | 2.6V | 03:12:23 | 02:07:19 | 00:00:00 | |
| DK7TD | 2026-09-05 18:36:58 | 49.19200 | 8.65410 | 87° | 37km/h | 32151m | 5.1m/s | 0°C | 0% | 0hPa | 2.5V | 18:12:15 | 02:07:23 | 00:00:00 | |
| DL1XH-west | 2026-09-05 18:36:49 | 49.19223 | 8.65295 | 90° | 27km/h | 32102m | 5.8m/s | -38.8°C | 0% | 9.2hPa | 2.6V | 03:13:03 | 02:07:14 | 00:00:00 | |
| DO8TBO-1 | 2026-09-05 18:36:49 | 49.19223 | 8.65295 | 90° | 31km/h | 32102m | 5.7m/s | -38.7°C | 2.1% | 9.1hPa | 2.6V | 00:00:00 | 02:07:14 | 00:00:00 | |
| DL1XH1-15 | 2026-09-05 18:36:48 | 49.19221 | 8.65215 | 95° | 38km/h | 32069m | 4.7m/s | -38.8°C | 2.1% | 9.2hPa | 2.6V | 03:12:34 | 02:07:08 | 00:00:00 | |
| DB0UT-7 | 2026-09-05 18:36:47 | 49.19221 | 8.65272 | 82° | 33km/h | 32091m | 5.3m/s | -38.8°C | 2.1% | 9.2hPa | 2.5V | 00:00:00 | 02:07:12 | 00:00:00 | |
| DJ2DS-15 | 2026-09-05 18:36:46 | 49.19221 | 8.65260 | 86° | 33km/h | 32085m | 6.2m/s | -38.8°C | 2.1% | 9.2hPa | 2.5V | 03:12:00 | 02:07:11 | 00:00:00 | |
| DL1XH-15 | 2026-09-05 18:36:44 | 49.19226 | 8.65164 | 105° | 27km/h | 32046m | 4.9m/s | -38.9°C | 2.1% | 9.3hPa | 2.6V | 03:12:38 | 02:07:04 | 00:00:00 | |
| BIOWL1-15 | 2026-09-05 18:36:40 | 49.19225 | 8.65175 | 100° | 31km/h | 32052m | 5.7m/s | -38.9°C | 0% | 9.3hPa | 2.5V | 03:13:03 | 02:07:05 | 00:00:00 | |
| DB0NH | 2026-09-05 18:36:40 | 49.19225 | 8.65175 | 101° | 31km/h | 32052m | 5.6m/s | -38.9°C | 2.1% | 9.2hPa | 2.5V | 00:00:00 | 02:07:05 | 00:00:00 | |
| DM0DOS-11 | 2026-09-05 18:36:39 | 49.19244 | 8.65118 | 121° | 29km/h | 32021m | 4.3m/s | -39°C | 2.1% | 9.3hPa | 2.5V | 03:12:43 | 02:06:59 | 00:00:00 | |
| DL1XH-west | 2026-09-05 18:36:38 | 49.19229 | 8.65155 | 114° | 26km/h | 32041m | 4.5m/s | -39°C | 0% | 9.3hPa | 2.6V | 03:13:03 | 02:07:03 | 00:00:00 | |
| HSKMA3-T | 2026-09-05 18:36:34 | 49.19244 | 8.65118 | 122° | 29km/h | 32021m | 4.3m/s | -39°C | 0% | 9.3hPa | 2.5V | 03:13:03 | 02:06:59 | 00:00:00 | |
| DL6DJ-15 | 2026-09-05 18:36:34 | 49.19248 | 8.65108 | 108° | 27km/h | 32017m | 3.9m/s | -39.0°C | 0.5% | 9.3hPa | 2.6V | 00:00:00 | 00:00:00 | 00:00:00 | |
| DO3MHA-11 | 2026-09-05 18:36:33 | 49.19247 | 8.65108 | 109° | 38km/h | 32017m | 3.9m/s | -39.0°C | 2.1% | 9.3hPa | 2.6V | 00:00:00 | 02:06:58 | 00:00:00 | |
| DL4BBY-15 | 2026-09-05 18:36:31 | 49.19247 | 8.65088 | 71° | 29km/h | 32007m | 7.0m/s | -40.6°C | 0% | 0hPa | 2.6V | 00:00:00 | 00:00:00 | 00:00:00 | |
| DJ2KF-10 | 2026-09-05 18:36:30 | 49.19244 | 8.65077 | 56° | 29km/h | 31999m | 6.9m/s | -39.0°C | 2.1% | 9.3hPa | 2.6V | 00:00:00 | 02:06:55 | 00:00:00 | |
| DM0DOS-11 | 2026-09-05 18:36:29 | 49.19217 | 8.64991 | 92° | 40km/h | 31967m | 5.2m/s | -39.1°C | 2.1% | 9.4hPa | 2.6V | 03:12:53 | 02:06:49 | 00:00:00 | |
| BIOWL1-15 | 2026-09-05 18:36:29 | 49.19238 | 8.65065 | 50° | 42km/h | 31993m | 5.4m/s | -39°C | 0% | 9.3hPa | 2.6V | 03:13:03 | 02:06:54 | 00:00:00 | |
| DF7PN | 2026-09-05 18:36:29 | 49.19231 | 8.65052 | 52° | 44km/h | 31988m | 4.2m/s | -39.0°C | 0.5% | 9.3hPa | 2.5V | 00:00:00 | 00:00:00 | 00:00:00 | |
| DL1XH1-15 | 2026-09-05 18:36:28 | 49.19218 | 8.64977 | 101° | 37km/h | 31962m | 5.4m/s | -39.1°C | 2.1% | 9.4hPa | 2.5V | 03:12:54 | 02:06:48 | 00:00:00 | |
| DL1XH-west | 2026-09-05 18:36:27 | 49.19225 | 8.65038 | 59° | 46km/h | 31983m | 5.1m/s | -39.1°C | 0% | 9.4hPa | 2.5V | 03:13:03 | 02:06:52 | 00:00:00 | |
| DJ2DS-15 | 2026-09-05 18:36:26 | 49.19220 | 8.65023 | 70° | 29km/h | 31978m | 5.7m/s | -39.0°C | 2.1% | 9.3hPa | 2.6V | 00:00:00 | 02:06:51 | 00:00:00 | |
| DK5PH-5 | 2026-09-05 18:36:25 | 49.19217 | 8.65006 | 82° | 29km/h | 31973m | 5.3m/s | -39.1°C | 2.1% | 9.3hPa | 2.6V | 00:00:00 | 02:06:50 | 00:00:00 | |
| DB0UT-9 | 2026-09-05 18:36:24 | 49.19217 | 8.65006 | 83° | 42km/h | 31973m | 5.4m/s | -39.1°C | 0.5% | 9.4hPa | 2.6V | 03:13:00 | 00:00:00 | 00:00:00 | |
| DO3MHA-11 | 2026-09-05 18:36:23 | 49.19218 | 8.64976 | 102° | 26km/h | 31962m | 5.4m/s | -39.1°C | 2.1% | 9.3hPa | 2.6V | 00:00:00 | 02:06:48 | 00:00:00 | |
| SONDE2-11 | 2026-09-05 18:36:22 | 49.19222 | 8.64953 | 109° | 27km/h | 31950m | 5.9m/s | -39.2°C | 0.5% | 9.4hPa | 2.6V | 00:00:00 | 00:00:00 | 00:00:00 | |
| DF3TZ-5 | 2026-09-05 18:36:21 | 49.19222 | 8.64953 | 109° | 27km/h | 31950m | 5.9m/s | -39.2°C | 0.5% | 9.4hPa | 2.6V | 00:00:00 | 00:00:00 | 00:00:00 | |
| DO3DL | 2026-09-05 18:36:20 | 49.19222 | 8.64953 | 110° | 27km/h | 31950m | 5.9m/s | -39.2°C | 0.5% | 9.4hPa | 2.6V | 03:13:00 | 00:00:00 | 00:00:00 | |
| DM0DOS-11 | 2026-09-05 18:36:19 | 49.19221 | 8.64891 | 74° | 31km/h | 31912m | 5.2m/s | -39.5°C | 2.1% | 9.4hPa | 2.6V | 03:13:03 | 02:06:39 | 00:00:00 | |
| DO8TBO-1 | 2026-09-05 18:36:19 | 49.19225 | 8.64936 | 98° | 27km/h | 31940m | 5.0m/s | -39.2°C | 2.1% | 9.4hPa | 2.6V | 00:00:00 | 02:06:44 | 00:00:00 | |
| DL1XH1-15 | 2026-09-05 18:36:18 | 49.19219 | 8.64879 | 68° | 33km/h | 31906m | 4.8m/s | -39.5°C | 2.1% | 9.5hPa | 2.6V | 03:13:04 | 02:06:38 | 00:00:00 | |
| BIOWL1-15 | 2026-09-05 18:36:18 | 49.19226 | 8.64928 | 88° | 20km/h | 31934m | 5.1m/s | -39.3°C | 0% | 9.4hPa | 2.6V | 03:13:03 | 02:06:43 | 00:00:00 | |
| DL1XH-west | 2026-09-05 18:36:17 | 49.19225 | 8.64921 | 82° | 22km/h | 31929m | 5.5m/s | -39.3°C | 0% | 9.4hPa | 2.5V | 03:13:03 | 02:06:42 | 00:00:00 | |
| DB0UT-7 | 2026-09-05 18:36:17 | 49.19225 | 8.64921 | 83° | 27km/h | 31929m | 5.4m/s | -39.2°C | 2.1% | 9.4hPa | 2.6V | 00:00:00 | 00:00:00 | 00:00:00 | |
| HARRO8 | 2026-09-05 18:36:16 | 49.19224 | 8.64912 | 79° | 24km/h | 31923m | 6.1m/s | -39.4°C | 0.5% | 9.4hPa | 2.6V | 00:00:00 | 00:00:00 | 00:00:00 | |
| KANTATE | 2026-09-05 18:36:15 | 49.19225 | 8.64912 | 81° | 24km/h | 31924m | 6.1m/s | -39.3°C | 0.5% | 9.4hPa | 2.6V | 03:13:00 | 00:00:00 | 00:00:00 | |
| DF1GD-15 | 2026-09-05 18:36:14 | 49.19223 | 8.64902 | 79° | 27km/h | 31917m | 5.8m/s | -39.4°C | 0.5% | 9.5hPa | 2.6V | 03:13:00 | 00:00:00 | 00:00:00 | |
| DO3MHA-11 | 2026-09-05 18:36:13 | 49.19219 | 8.64879 | 69° | 27km/h | 31907m | 4.7m/s | -39.5°C | 2.1% | 9.4hPa | 2.6V | 00:00:00 | 02:06:38 | 00:00:00 | |
| DL3AQ-11 | 2026-09-05 18:36:10 | 49.19203 | 8.64836 | 63° | 26km/h | 31885m | 4.2m/s | -39.7°C | 0.5% | 9.5hPa | 2.6V | 00:00:00 | 00:00:00 | 00:00:00 | |
| DL1XH1-15 | 2026-09-05 18:36:08 | 49.19209 | 8.64784 | 99° | 20km/h | 31853m | 5.2m/s | -39.9°C | 2.2% | 9.5hPa | 2.6V | 03:13:14 | 02:06:28 | 00:00:00 | |
| BIOWL1-15 | 2026-09-05 18:36:07 | 49.19201 | 8.64819 | 96° | 24km/h | 31874m | 6.9m/s | -39.8°C | 0% | 9.5hPa | 2.6V | 03:13:54 | 02:06:32 | 00:00:00 | |
| DL1XH-west | 2026-09-05 18:36:06 | 49.19202 | 8.64810 | 111° | 26km/h | 31867m | 6.2m/s | -39.8°C | 0% | 9.5hPa | 2.6V | 03:13:54 | 02:06:31 | 00:00:00 | |
| HSKMA3-T | 2026-09-05 18:36:05 | 49.19205 | 8.64801 | 118° | 26km/h | 31862m | 4.7m/s | -39.9°C | 0% | 9.5hPa | 2.5V | 03:13:54 | 02:06:30 | 00:00:00 | |
| DD1CC8 | 2026-09-05 18:36:04 | 49.19207 | 8.64792 | 113° | 22km/h | 31858m | 4.0m/s | -39.9°C | 0.5% | 9.5hPa | 2.6V | 00:00:00 | 00:00:00 | 00:00:00 | |
| DO3MHA-11 | 2026-09-05 18:36:03 | 49.19209 | 8.64784 | 100° | 31km/h | 31853m | 5.2m/s | -39.8°C | 2.2% | 9.5hPa | 2.6V | 03:13:00 | 02:06:28 | 00:00:00 | |
| DL6DJ-15 | 2026-09-05 18:36:02 | 49.19209 | 8.64776 | 74° | 20km/h | 31847m | 6.0m/s | -39.9°C | 0.5% | 9.6hPa | 2.6V | 00:00:00 | 00:00:00 | 00:00:00 | |
| DL4BBY-15 | 2026-09-05 18:36:01 | 49.19206 | 8.64769 | 52° | 29km/h | 31842m | 6.0m/s | -41.6°C | 0% | 0hPa | 2.6V | 00:00:00 | 00:00:00 | 00:00:00 | |
| DJ2KF-10 | 2026-09-05 18:36:00 | 49.19201 | 8.64761 | 42° | 31km/h | 31836m | 5.8m/s | -39.9°C | 2.2% | 9.5hPa | 2.6V | 00:00:00 | 02:06:25 | 00:00:00 | |
| DG9SBQ-11 | 2026-09-05 18:35:59 | 49.19201 | 8.64761 | 43° | 33km/h | 31836m | 5.8m/s | -40.0°C | 0.5% | 9.6hPa | 2.6V | 03:13:00 | 00:00:00 | 00:00:00 | |
| DL1XH1-15 | 2026-09-05 18:35:58 | 49.19160 | 8.64697 | 50° | 20km/h | 31798m | 5.8m/s | -40°C | 2.2% | 9.6hPa | 2.6V | 03:13:24 | 02:06:18 | 00:00:00 | |
| BIOWL1-15 | 2026-09-05 18:35:58 | 49.19173 | 8.64722 | 49° | 35km/h | 31813m | 5m/s | -40°C | 0% | 9.6hPa | 2.6V | 03:13:54 | 02:06:21 | 00:00:00 | |
| DF7PN | 2026-09-05 18:35:58 | 49.19179 | 8.64732 | 44° | 37km/h | 31818m | 5.5m/s | -40.0°C | 0.5% | 9.6hPa | 2.5V | 00:00:00 | 00:00:00 | 00:00:00 | |
| DM0DOS-11 | 2026-09-05 18:35:57 | 49.19157 | 8.64692 | 44° | 18km/h | 31792m | 6.3m/s | -40°C | 2.2% | 9.6hPa | 2.5V | 03:13:25 | 02:06:17 | 00:00:00 | |
| OE5DXL-15 | 2026-09-05 18:35:57 | 49.19179 | 8.64732 | 45° | 26km/h | 31819m | 5.4m/s | -40.0°C | 2.2% | 9.6hPa | 2.5V | 00:00:00 | 00:00:00 | 00:00:00 | |
| IW2NTF | 2026-09-05 18:35:56 | 49.19154 | 8.64687 | 40° | 18km/h | 31786m | 5.5m/s | -40°C | 2.2% | 9.6hPa | 2.5V | 03:13:26 | 02:06:16 | 00:00:00 | |
| DL1XH-west | 2026-09-05 18:35:55 | 49.19168 | 8.64713 | 53° | 29km/h | 31808m | 4.7m/s | -40°C | 0% | 9.6hPa | 2.6V | 03:13:54 | 02:06:20 | 00:00:00 | |
| HSKMA3-T | 2026-09-05 18:35:54 | 49.19164 | 8.64704 | 53° | 24km/h | 31803m | 4.9m/s | -40°C | 0% | 9.6hPa | 2.6V | 03:13:54 | 02:06:19 | 00:00:00 | |
| DL3AQ-11 | 2026-09-05 18:35:54 | 49.19160 | 8.64697 | 50° | 20km/h | 31798m | 5.8m/s | -40.0°C | 0.5% | 9.6hPa | 2.6V | 00:00:00 | 00:00:00 | 00:00:00 | |
| DJ2DS-15 | 2026-09-05 18:35:52 | 49.19157 | 8.64692 | 44° | 18km/h | 31792m | 6.3m/s | -40.0°C | 0.5% | 9.6hPa | 2.6V | 00:00:00 | 00:00:00 | 00:00:00 | |
| SONDE2-11 | 2026-09-05 18:35:51 | 49.19150 | 8.64682 | 45° | 18km/h | 31781m | 4.5m/s | -40.0°C | 0.5% | 9.7hPa | 2.6V | 00:00:00 | 00:00:00 | 00:00:00 | |
| DF3TZ-5 | 2026-09-05 18:35:50 | 49.19150 | 8.64682 | 45° | 18km/h | 31781m | 4.5m/s | -40.0°C | 0.5% | 9.7hPa | 2.6V | 00:00:00 | 00:00:00 | 00:00:00 | |
| DL1XH1-15 | 2026-09-05 18:35:48 | 49.19129 | 8.64602 | 62° | 35km/h | 31745m | 3.8m/s | -40.2°C | 2.2% | 9.7hPa | 2.6V | 03:13:34 | 02:06:08 | 00:00:00 | |
| DO8TBO-1 | 2026-09-05 18:35:48 | 49.19143 | 8.64668 | 63° | 20km/h | 31772m | 5.4m/s | -40.0°C | 2.2% | 9.6hPa | 2.6V | 03:13:00 | 02:06:13 | 00:00:00 | |
| DM0DOS-11 | 2026-09-05 18:35:47 | 49.19124 | 8.64592 | 50° | 31km/h | 31740m | 6m/s | -40.3°C | 2.2% | 9.7hPa | 2.6V | 03:13:35 | 02:06:07 | 00:00:00 | |
| IW2NTF | 2026-09-05 18:35:47 | 49.19119 | 8.64584 | 33° | 27km/h | 31733m | 7.3m/s | -40.4°C | 2.2% | 9.7hPa | 2.5V | 03:13:36 | 02:06:06 | 00:00:00 | |
| BIOWL1-15 | 2026-09-05 18:35:46 | 49.19138 | 8.64644 | 75° | 37km/h | 31759m | 6.2m/s | -40.1°C | 0% | 9.7hPa | 2.6V | 03:13:54 | 02:06:11 | 00:00:00 | |
| HARRO8 | 2026-09-05 18:35:45 | 49.19135 | 8.64630 | 75° | 38km/h | 31754m | 5.2m/s | -40.1°C | 0.5% | 9.7hPa | 2.6V | 00:00:00 | 00:00:00 | 00:00:00 | |
| DL1XH-west | 2026-09-05 18:35:44 | 49.19132 | 8.64615 | 71° | 38km/h | 31749m | 4m/s | -40.2°C | 0% | 9.7hPa | 2.6V | 03:13:54 | 02:06:09 | 00:00:00 | |
| HSKMA3-T | 2026-09-05 18:35:43 | 49.19129 | 8.64602 | 63° | 35km/h | 31745m | 3.8m/s | -40.2°C | 0% | 9.7hPa | 2.6V | 03:13:54 | 02:06:08 | 00:00:00 | |
| BIOWL1-15 | 2026-09-05 18:35:39 | 49.19089 | 8.64561 | 75° | 27km/h | 31699m | 5.9m/s | -40.5°C | 0% | 9.8hPa | 2.6V | 03:13:54 | 02:06:00 | 00:00:00 | |
| DB0NH | 2026-09-05 18:35:39 | 49.19106 | 8.64578 | 7° | 26km/h | 31721m | 4.9m/s | -40.4°C | 2.3% | 9.7hPa | 2.5V | 00:00:00 | 02:06:04 | 00:00:00 | |
| DL1XH1-15 | 2026-09-05 18:35:38 | 49.19085 | 8.64534 | 81° | 40km/h | 31688m | 5.2m/s | -40.5°C | 2.2% | 9.8hPa | 2.5V | 03:13:44 | 02:05:58 | 00:00:00 | |
| DG9SBQ-11 | 2026-09-05 18:35:37 | 49.19100 | 8.64577 | 12° | 22km/h | 31717m | 4.3m/s | -40.5°C | 0.5% | 9.7hPa | 2.6V | 03:13:00 | 00:00:00 | 00:00:00 | |
| IW2NTF | 2026-09-05 18:35:36 | 49.19080 | 8.64502 | 69° | 44km/h | 31677m | 5.7m/s | -40.6°C | 2.2% | 9.8hPa | 2.6V | 03:13:46 | 02:05:56 | 00:00:00 | |
| DO1YAY-16 | 2026-09-05 18:35:36 | 49.19089 | 8.64561 | 74° | 27km/h | 31699m | 5.9m/s | -40.5°C | 0.5% | 9.8hPa | 2.5V | 00:00:00 | 00:00:00 | 00:00:00 | |
| DM0DOS-11 | 2026-09-05 18:35:34 | 49.19070 | 8.64475 | 50° | 38km/h | 31666m | 5.4m/s | -40.7°C | 2.3% | 9.8hPa | 2.5V | 03:13:48 | 02:05:54 | 00:00:00 | |
| DL1XH-west | 2026-09-05 18:35:33 | 49.19085 | 8.64534 | 81° | 40km/h | 31688m | 5.2m/s | -40.5°C | 0% | 9.8hPa | 2.5V | 03:13:54 | 02:05:58 | 00:00:00 | |
| HSKMA3-T | 2026-09-05 18:35:31 | 49.19080 | 8.64502 | 69° | 44km/h | 31677m | 5.7m/s | -40.6°C | 0% | 9.8hPa | 2.6V | 03:13:54 | 02:05:56 | 00:00:00 | |
| DL4BBY-15 | 2026-09-05 18:35:31 | 49.19080 | 8.64502 | 70° | 24km/h | 31678m | 5.7m/s | -42.2°C | 0% | 0hPa | 2.5V | 00:00:00 | 00:00:00 | 00:00:00 | |
| DJ2KF-10 | 2026-09-05 18:35:30 | 49.19075 | 8.64488 | 60° | 31km/h | 31672m | 5.6m/s | -40.6°C | 2.3% | 9.8hPa | 2.5V | 00:00:00 | 02:05:55 | 00:00:00 | |
| DL0LBS | 2026-09-05 18:35:29 | 49.19076 | 8.64488 | 61° | 42km/h | 31672m | 5.6m/s | -40.7°C | 0.5% | 9.8hPa | 2.5V | 03:13:00 | 00:00:00 | 00:00:00 | |
| DL1XH1-15 | 2026-09-05 18:35:28 | 49.19041 | 8.64441 | 35° | 9km/h | 31631m | 5.4m/s | -40.8°C | 2.3% | 9.9hPa | 2.5V | 03:13:54 | 02:05:48 | 00:00:00 | |
| IW2NTF | 2026-09-05 18:35:27 | 49.19037 | 8.64437 | 33° | 9km/h | 31620m | 6.2m/s | -40.8°C | 2.3% | 9.9hPa | 2.6V | 03:13:56 | 02:05:46 | 00:00:00 | |
| BIOWL1-15 | 2026-09-05 18:35:26 | 49.19043 | 8.64443 | 36° | 13km/h | 31637m | 5.7m/s | -40.8°C | 0% | 9.9hPa | 2.6V | 03:13:54 | 02:05:49 | 00:00:00 | |
| DJ2DS-15 | 2026-09-05 18:35:26 | 49.19051 | 8.64451 | 33° | 20km/h | 31650m | 6.4m/s | -40.8°C | 2.3% | 9.8hPa | 2.6V | 03:13:00 | 02:05:51 | 00:00:00 | |
| DK5PH-5 | 2026-09-05 18:35:25 | 49.19046 | 8.64446 | 34° | 22km/h | 31643m | 6.2m/s | -40.8°C | 2.3% | 9.8hPa | 2.6V | 03:13:00 | 02:05:50 | 00:00:00 | |
| DM0DOS-11 | 2026-09-05 18:35:24 | 49.19032 | 8.64429 | 58° | 18km/h | 31609m | 4.6m/s | -40.7°C | 2.2% | 9.9hPa | 2.6V | 03:13:58 | 02:05:44 | 00:00:00 | |
| DL1XH-west | 2026-09-05 18:35:22 | 49.19039 | 8.64439 | 34° | 9km/h | 31626m | 5.7m/s | -40.8°C | 0% | 9.9hPa | 2.5V | 03:14:45 | 02:05:47 | 00:00:00 | |
| HSKMA3-T | 2026-09-05 18:35:21 | 49.19037 | 8.64437 | 34° | 9km/h | 31620m | 6.2m/s | -40.8°C | 0% | 9.9hPa | 2.6V | 03:14:45 | 02:05:46 | 00:00:00 | |
| SONDE2-11 | 2026-09-05 18:35:20 | 49.19032 | 8.64429 | 58° | 16km/h | 31609m | 4.6m/s | -40.8°C | 0.5% | 9.9hPa | 2.6V | 00:00:00 | 00:00:00 | 00:00:00 | |
| NBG1-10 | 2026-09-05 18:35:19 | 49.19032 | 8.64429 | 59° | 24km/h | 31610m | 4.5m/s | -40.7°C | 2.2% | 9.9hPa | 2.6V | 00:00:00 | 02:05:44 | 00:00:00 | |
| DL1XH1-15 | 2026-09-05 18:35:18 | 49.19022 | 8.64359 | 75° | 29km/h | 31575m | 4.2m/s | -40.8°C | 2.2% | 9.9hPa | 2.6V | 03:14:04 | 02:05:38 | 00:00:00 | |
| DK7TD | 2026-09-05 18:35:17 | 49.19028 | 8.64412 | 75° | 31km/h | 31598m | 6.9m/s | -40.7°C | 0% | 9.9hPa | 2.6V | 03:15:36 | 02:05:42 | 00:00:00 | |
| DB0UT-7 | 2026-09-05 18:35:17 | 49.19028 | 8.64412 | 76° | 22km/h | 31598m | 6.9m/s | -40.7°C | 2.2% | 9.9hPa | 2.5V | 00:00:00 | 00:00:00 | 00:00:00 | |
| IW2NTF | 2026-09-05 18:35:16 | 49.19016 | 8.64343 | 37° | 18km/h | 31564m | 7.2m/s | -40.8°C | 2.2% | 10hPa | 2.5V | 03:14:06 | 02:05:36 | 00:00:00 | |
| BIOWL1-15 | 2026-09-05 18:35:15 | 49.19022 | 8.64359 | 76° | 29km/h | 31575m | 4.2m/s | -40.8°C | 0% | 9.9hPa | 2.6V | 03:14:45 | 02:05:38 | 00:00:00 | |
| DL1XH-west | 2026-09-05 18:35:12 | 49.19020 | 8.64349 | 62° | 24km/h | 31570m | 5.8m/s | -40.8°C | 0% | 10hPa | 2.6V | 03:14:45 | 02:05:37 | 00:00:00 | |
| HSKMA3-T | 2026-09-05 18:35:11 | 49.19016 | 8.64343 | 38° | 18km/h | 31564m | 7.2m/s | -40.8°C | 0% | 10hPa | 2.5V | 03:14:45 | 02:05:36 | 00:00:00 | |
| DG9SBQ-11 | 2026-09-05 18:35:10 | 49.19016 | 8.64343 | 39° | 18km/h | 31564m | 7.2m/s | -40.8°C | 0.5% | 10.0hPa | 2.6V | 03:14:00 | 00:00:00 | 00:00:00 | |
| DB0NH | 2026-09-05 18:35:09 | 49.19008 | 8.64341 | 345° | 16km/h | 31552m | 4.7m/s | -40.9°C | 2.2% | 9.9hPa | 2.6V | 00:00:00 | 02:05:34 | 00:00:00 | |
| DL1XH1-15 | 2026-09-05 18:35:08 | 49.19010 | 8.64316 | 106° | 38km/h | 31518m | 6.2m/s | -41.1°C | 2.3% | 10.1hPa | 2.6V | 03:14:14 | 02:05:28 | 00:00:00 | |
| DL1XH-west | 2026-09-05 18:35:02 | 49.19012 | 8.64301 | 100° | 40km/h | 31513m | 5.4m/s | -41.2°C | 0% | 10hPa | 2.5V | 03:14:45 | 02:05:27 | 00:00:00 | |
| HSKMA3-T | 2026-09-05 18:35:00 | 49.19013 | 8.64273 | 81° | 31km/h | 31503m | 4.9m/s | -41.3°C | 0% | 10.1hPa | 2.6V | 03:14:45 | 02:05:25 | 00:00:00 | |
| DL4BBY-15 | 2026-09-05 18:35:00 | 49.19013 | 8.64273 | 81° | 18km/h | 31503m | 4.9m/s | -42.9°C | 0% | 0hPa | 2.5V | 00:00:00 | 00:00:00 | 00:00:00 | |
| DH7VM-15 | 2026-09-05 18:34:59 | 49.19012 | 8.64273 | 82° | 31km/h | 31503m | 4.9m/s | -41.3°C | 0.5% | 10.0hPa | 2.5V | 00:00:00 | 00:00:00 | 00:00:00 | |
| DL1XH1-15 | 2026-09-05 18:34:58 | 49.19004 | 8.64262 | 20° | 2km/h | 31462m | 5m/s | -41.8°C | 2.4% | 10.1hPa | 2.5V | 03:14:24 | 02:05:18 | 00:00:00 | |
| DJ2KF-10 | 2026-09-05 18:34:57 | 49.19007 | 8.64256 | 7° | 16km/h | 31486m | 6.6m/s | -41.5°C | 2.3% | 10.0hPa | 2.5V | 03:14:00 | 02:05:22 | 00:00:00 | |
| IW2NTF | 2026-09-05 18:34:56 | 49.19003 | 8.64256 | 68° | 16km/h | 31450m | 6.7m/s | -41.9°C | 2.4% | 10.1hPa | 2.6V | 03:14:26 | 02:05:16 | 00:00:00 | |
| BIOWL1-15 | 2026-09-05 18:34:54 | 49.19004 | 8.64261 | 67° | 7km/h | 31457m | 6.2m/s | -41.9°C | 0% | 10.1hPa | 2.5V | 03:14:45 | 02:05:17 | 00:00:00 | |
| DL1XH-west | 2026-09-05 18:34:51 | 49.19002 | 8.64256 | 69° | 16km/h | 31450m | 6.7m/s | -41.9°C | 0% | 10.1hPa | 2.6V | 03:14:45 | 02:05:16 | 00:00:00 | |
| DL3AQ-11 | 2026-09-05 18:34:50 | 49.19001 | 8.64249 | 71° | 24km/h | 31444m | 6.7m/s | -42.0°C | 0.5% | 10.1hPa | 2.6V | 00:00:00 | 00:00:00 | 00:00:00 | |
| SONDE2-11 | 2026-09-05 18:34:49 | 49.18997 | 8.64228 | 81° | 29km/h | 31432m | 4.9m/s | -42.1°C | 0.5% | 10.1hPa | 2.6V | 00:00:00 | 00:00:00 | 00:00:00 | |
| DL1XH1-15 | 2026-09-05 18:34:48 | 49.19005 | 8.64192 | 166° | 11km/h | 31403m | 5m/s | -42.1°C | 2.4% | 10.2hPa | 2.6V | 03:14:34 | 02:05:08 | 00:00:00 | |
| OE5DRO-10 | 2026-09-05 18:34:48 | 49.18997 | 8.64228 | 82° | 20km/h | 31433m | 4.8m/s | 0°C | 0% | 0hPa | 2.5V | 00:00:00 | 00:00:00 | 00:00:00 | |
| DB0UT-7 | 2026-09-05 18:34:47 | 49.18996 | 8.64217 | 91° | 20km/h | 31428m | 4.8m/s | -42.0°C | 2.4% | 10.1hPa | 2.5V | 00:00:00 | 02:05:12 | 00:00:00 | |
| IW2NTF | 2026-09-05 18:34:46 | 49.19008 | 8.64192 | 24° | 2km/h | 31392m | 6.4m/s | -42.1°C | 2.4% | 10.2hPa | 2.5V | 03:14:36 | 02:05:06 | 00:00:00 | |
| HSKMA3-T | 2026-09-05 18:34:46 | 49.18997 | 8.64207 | 104° | 24km/h | 31422m | 6.2m/s | -42.1°C | 0% | 10.2hPa | 2.6V | 03:14:45 | 02:05:11 | 00:00:00 | |
| BIOWL1-15 | 2026-09-05 18:34:42 | 49.19007 | 8.64192 | 180° | 5km/h | 31398m | 5m/s | -42.1°C | 0% | 10.2hPa | 2.5V | 03:14:45 | 02:05:07 | 00:00:00 | |
| DL1XH-west | 2026-09-05 18:34:41 | 49.19008 | 8.64192 | 25° | 2km/h | 31393m | 6.4m/s | -42.2°C | 0% | 10.2hPa | 2.5V | 03:14:45 | 02:05:06 | 00:00:00 | |
| BIOWL9-15 | 2026-09-05 18:34:40 | 49.19003 | 8.64187 | 34° | 20km/h | 31380m | 5.7m/s | -42.2°C | 0.5% | 10.2hPa | 2.6V | 00:00:00 | 00:00:00 | 00:00:00 | |
| DB0NH | 2026-09-05 18:34:39 | 49.19003 | 8.64187 | 35° | 22km/h | 31380m | 5.7m/s | -42.1°C | 2.4% | 10.2hPa | 2.6V | 00:00:00 | 02:05:04 | 00:00:00 | |
| DL1XH1-15 | 2026-09-05 18:34:38 | 49.18993 | 8.64130 | 123° | 29km/h | 31345m | 6.1m/s | -42.1°C | 2.4% | 10.3hPa | 2.6V | 03:14:44 | 02:04:58 | 00:00:00 | |
| IW2NTF | 2026-09-05 18:34:37 | 49.19002 | 8.64115 | 137° | 24km/h | 31334m | 5.2m/s | -42.1°C | 2.4% | 10.3hPa | 2.6V | 03:14:46 | 02:04:56 | 00:00:00 | |
| HSKMA3-T | 2026-09-05 18:34:35 | 49.18989 | 8.64151 | 87° | 29km/h | 31358m | 6.6m/s | -42.1°C | 0% | 10.3hPa | 2.5V | 03:14:45 | 02:05:00 | 00:00:00 | |
| BIOWL1-15 | 2026-09-05 18:34:32 | 49.18997 | 8.64122 | 134° | 27km/h | 31340m | 5.4m/s | -42.1°C | 0% | 10.3hPa | 2.6V | 03:14:45 | 02:04:57 | 00:00:00 | |
| DL1XH-west | 2026-09-05 18:34:30 | 49.19006 | 8.64109 | 133° | 18km/h | 31329m | 5.6m/s | -42.1°C | 0% | 10.3hPa | 2.5V | 03:15:36 | 02:04:55 | 00:00:00 | |
| DB0ND-19 | 2026-09-05 18:34:30 | 49.19008 | 8.64104 | 111° | 13km/h | 31323m | 6.0m/s | -42.2°C | 0.6% | 10.3hPa | 2.5V | 00:00:00 | 00:00:00 | 00:00:00 | |
| OE5DRO-10 | 2026-09-05 18:34:29 | 49.19008 | 8.64104 | 112° | 20km/h | 31323m | 5.9m/s | 0°C | 0% | 0hPa | 2.5V | 00:00:00 | 00:00:00 | 00:00:00 | |
| DL1XH1-15 | 2026-09-05 18:34:28 | 49.18999 | 8.64065 | 82° | 18km/h | 31287m | 5.5m/s | -42.2°C | 2.4% | 10.4hPa | 2.5V | 03:14:54 | 02:04:48 | 00:00:00 | |
| DK7TD | 2026-09-05 18:34:27 | 49.19007 | 8.64093 | 64° | 18km/h | 31311m | 6.2m/s | -42.2°C | 0% | 10.3hPa | 2.6V | 03:15:36 | 02:04:52 | 00:00:00 | |
| DJ2KF-10 | 2026-09-05 18:34:27 | 49.19007 | 8.64093 | 64° | 24km/h | 31311m | 6.1m/s | -42.1°C | 2.4% | 10.3hPa | 2.6V | 00:00:00 | 02:04:52 | 00:00:00 | |
| IW2NTF | 2026-09-05 18:34:26 | 49.18999 | 8.64051 | 95° | 16km/h | 31276m | 5.5m/s | -42.2°C | 2.4% | 10.4hPa | 2.6V | 03:14:56 | 02:04:46 | 00:00:00 | |
| DJ2DS-15 | 2026-09-05 18:34:26 | 49.19005 | 8.64086 | 61° | 20km/h | 31305m | 6.0m/s | -42.1°C | 2.4% | 10.3hPa | 2.6V | 00:00:00 | 02:04:51 | 00:00:00 | |
| DK5PH-5 | 2026-09-05 18:34:25 | 49.19002 | 8.64079 | 64° | 24km/h | 31299m | 5.8m/s | -42.1°C | 2.4% | 10.3hPa | 2.6V | 00:00:00 | 02:04:50 | 00:00:00 | |
| DL1XH-15 | 2026-09-05 18:34:24 | 49.18999 | 8.64040 | 88° | 15km/h | 31264m | 6.9m/s | -42.2°C | 2.4% | 10.4hPa | 2.6V | 03:14:58 | 02:04:44 | 00:00:00 | |
| HSKMA3-T | 2026-09-05 18:34:22 | 49.18999 | 8.64058 | 91° | 18km/h | 31282m | 5.3m/s | -42.2°C | 0% | 10.4hPa | 2.6V | 03:15:36 | 02:04:47 | 00:00:00 | |
| DL1XH-west | 2026-09-05 18:34:20 | 49.18999 | 8.64045 | 95° | 15km/h | 31270m | 6.4m/s | -42.3°C | 0% | 10.4hPa | 2.6V | 03:15:36 | 02:04:45 | 00:00:00 | |
| DK7TD | 2026-09-05 18:34:17 | 49.18999 | 8.64028 | 86° | 18km/h | 31251m | 5.4m/s | -42.3°C | 0% | 10.4hPa | 2.5V | 03:15:36 | 02:04:42 | 00:00:00 | |
| DB0UT-7 | 2026-09-05 18:34:17 | 49.18999 | 8.64028 | 86° | 22km/h | 31252m | 5.4m/s | -42.2°C | 2.4% | 10.4hPa | 2.5V | 00:00:00 | 00:00:00 | 00:00:00 | |
| IW2NTF | 2026-09-05 18:34:16 | 49.19011 | 8.63968 | 114° | 27km/h | 31216m | 4.7m/s | -42.4°C | 2.4% | 10.5hPa | 2.5V | 03:15:06 | 02:04:36 | 00:00:00 | |
| DM7RM-13 | 2026-09-05 18:34:14 | 49.18999 | 8.64012 | 102° | 26km/h | 31240m | 6.2m/s | -42.3°C | 0.6% | 10.4hPa | 2.6V | 03:15:00 | 00:00:00 | 00:00:00 | |
| DM0DOS-11 | 2026-09-05 18:34:13 | 49.19013 | 8.63945 | 69° | 16km/h | 31197m | 6.6m/s | -42.5°C | 2.4% | 10.5hPa | 2.6V | 03:15:09 | 02:04:33 | 00:00:00 | |
| DO3MHA-11 | 2026-09-05 18:34:13 | 49.19004 | 8.63990 | 114° | 24km/h | 31227m | 6.3m/s | -42.4°C | 2.5% | 10.4hPa | 2.6V | 00:00:00 | 02:04:38 | 00:00:00 | |
| DL1XH-15 | 2026-09-05 18:34:12 | 49.19012 | 8.63940 | 60° | 16km/h | 31191m | 5.5m/s | -42.5°C | 2.5% | 10.5hPa | 2.5V | 03:15:10 | 02:04:32 | 00:00:00 | |
| BIOWL1-15 | 2026-09-05 18:34:11 | 49.19011 | 8.63968 | 114° | 29km/h | 31216m | 4.7m/s | -42.5°C | 0% | 10.5hPa | 2.5V | 03:15:36 | 02:04:36 | 00:00:00 | |
| DL1XH-west | 2026-09-05 18:34:09 | 49.19014 | 8.63952 | 92° | 18km/h | 31204m | 7.3m/s | -42.5°C | 0% | 10.5hPa | 2.6V | 03:15:36 | 02:04:34 | 00:00:00 | |
| BIOWL9-15 | 2026-09-05 18:34:09 | 49.19013 | 8.63945 | 69° | 15km/h | 31197m | 6.6m/s | -42.5°C | 0.6% | 10.5hPa | 2.5V | 00:00:00 | 00:00:00 | 00:00:00 | |
| IW2NTF | 2026-09-05 18:34:07 | 49.19009 | 8.63884 | 101° | 31km/h | 31155m | 6.6m/s | -42.6°C | 2.5% | 10.6hPa | 2.5V | 03:15:16 | 02:04:26 | 00:00:00 | |
| DK7TD | 2026-09-05 18:34:05 | 49.19008 | 8.63926 | 73° | 20km/h | 31180m | 6.6m/s | -42.6°C | 0% | 10.6hPa | 2.6V | 03:15:36 | 02:04:30 | 00:00:00 | |
| DJ2DS-15 | 2026-09-05 18:34:04 | 49.19007 | 8.63918 | 87° | 24km/h | 31173m | 6.6m/s | -42.6°C | 0.6% | 10.5hPa | 2.5V | 00:00:00 | 00:00:00 | 00:00:00 | |
| DM0DOS-11 | 2026-09-05 18:34:03 | 49.19014 | 8.63851 | 102° | 26km/h | 31136m | 5.6m/s | -42.7°C | 2.5% | 10.6hPa | 2.5V | 03:15:19 | 02:04:23 | 00:00:00 | |
| DO3MHA-11 | 2026-09-05 18:34:03 | 49.19007 | 8.63908 | 96° | 27km/h | 31167m | 6.1m/s | -42.6°C | 2.5% | 10.5hPa | 2.5V | 03:15:00 | 02:04:28 | 00:00:00 | |
| DL1XH-15 | 2026-09-05 18:34:02 | 49.19015 | 8.63842 | 105° | 26km/h | 31130m | 5.5m/s | -42.7°C | 2.5% | 10.6hPa | 2.5V | 03:15:20 | 02:04:22 | 00:00:00 | |
| HSKMA3-T | 2026-09-05 18:34:01 | 49.19009 | 8.63884 | 101° | 31km/h | 31155m | 6.6m/s | -42.7°C | 0% | 10.6hPa | 2.5V | 03:15:36 | 02:04:26 | 00:00:00 | |
| BIOWL1-15 | 2026-09-05 18:34:00 | 49.19011 | 8.63872 | 100° | 29km/h | 31148m | 6.7m/s | -42.7°C | 0% | 10.6hPa | 2.6V | 03:15:36 | 02:04:25 | 00:00:00 | |
| DL1XH-west | 2026-09-05 18:33:58 | 49.19013 | 8.63851 | 103° | 26km/h | 31136m | 5.6m/s | -42.7°C | 0% | 10.6hPa | 2.5V | 03:15:36 | 02:04:23 | 00:00:00 | |
| IW2NTF | 2026-09-05 18:33:58 | 49.19022 | 8.63798 | 60° | 11km/h | 31092m | 7.3m/s | -42.6°C | 2.5% | 10.7hPa | 2.5V | 03:15:26 | 02:04:16 | 00:00:00 | |
| DK7TD | 2026-09-05 18:33:55 | 49.19019 | 8.63824 | 112° | 26km/h | 31117m | 6.6m/s | -42.7°C | 0% | 10.7hPa | 2.6V | 03:15:36 | 02:04:20 | 00:00:00 | |
| DL3AQ-11 | 2026-09-05 18:33:54 | 49.19023 | 8.63808 | 102° | 16km/h | 31106m | 5.3m/s | -42.7°C | 0.6% | 10.7hPa | 2.5V | 00:00:00 | 00:00:00 | 00:00:00 | |
| DO3MHA-11 | 2026-09-05 18:33:53 | 49.19023 | 8.63808 | 103° | 18km/h | 31106m | 5.2m/s | -42.6°C | 2.5% | 10.6hPa | 2.5V | 00:00:00 | 02:04:18 | 00:00:00 | |
| OE5DRO-10 | 2026-09-05 18:33:51 | 49.19022 | 8.63798 | 61° | 20km/h | 31093m | 7.3m/s | 0°C | 0% | 0hPa | 2.5V | 03:15:00 | 00:00:00 | 00:00:00 | |
| DM0DOS-11 | 2026-09-05 18:33:50 | 49.19017 | 8.63761 | 103° | 27km/h | 31055m | 5.5m/s | -42.7°C | 2.5% | 10.8hPa | 2.5V | 03:15:32 | 02:04:10 | 00:00:00 | |
| BIOWL1-15 | 2026-09-05 18:33:50 | 49.19020 | 8.63794 | 44° | 13km/h | 31086m | 6.1m/s | -42.7°C | 0% | 10.7hPa | 2.6V | 03:15:36 | 02:04:15 | 00:00:00 | |
| DL1XH-west | 2026-09-05 18:33:48 | 49.19016 | 8.63786 | 67° | 15km/h | 31074m | 6.4m/s | -42.7°C | 0% | 10.7hPa | 2.6V | 03:15:36 | 02:04:13 | 00:00:00 | |
| IW2NTF | 2026-09-05 18:33:47 | 49.19021 | 8.63724 | 87° | 18km/h | 31030m | 5.9m/s | -42.8°C | 2.5% | 10.8hPa | 2.6V | 03:15:36 | 02:04:06 | 00:00:00 | |
| DK7TD | 2026-09-05 18:33:45 | 49.19017 | 8.63761 | 103° | 27km/h | 31055m | 5.6m/s | -42.7°C | 0% | 10.8hPa | 2.5V | 03:15:36 | 02:04:10 | 00:00:00 | |
| DO3MHA-11 | 2026-09-05 18:33:43 | 49.19020 | 8.63741 | 103° | 24km/h | 31044m | 6.5m/s | -42.7°C | 2.5% | 10.7hPa | 2.6V | 00:00:00 | 02:04:08 | 00:00:00 | |
| SONCRA | 2026-09-05 18:33:42 | 49.19021 | 8.63732 | 96° | 20km/h | 31037m | 6.5m/s | -42.8°C | 0.6% | 10.8hPa | 2.6V | 00:00:00 | 00:00:00 | 00:00:00 | |
| DL1XH-15 | 2026-09-05 18:33:41 | 49.19017 | 8.63686 | 78° | 27km/h | 31001m | 5.7m/s | -43°C | 2.5% | 10.8hPa | 2.6V | 03:15:41 | 02:04:01 | 00:00:00 | |
| DL3AQ-11 | 2026-09-05 18:33:41 | 49.19021 | 8.63717 | 79° | 16km/h | 31025m | 5.4m/s | -42.8°C | 0.6% | 10.8hPa | 2.6V | 00:00:00 | 00:00:00 | 00:00:00 | |
| DM0DOS-11 | 2026-09-05 18:33:40 | 49.19015 | 8.63675 | 73° | 31km/h | 30995m | 5.8m/s | -43.1°C | 2.5% | 10.8hPa | 2.6V | 03:15:42 | 02:04:00 | 00:00:00 | |
| HSKMA3-T | 2026-09-05 18:33:40 | 49.19021 | 8.63717 | 79° | 16km/h | 31025m | 5.4m/s | -42.8°C | 0% | 10.8hPa | 2.5V | 03:16:27 | 02:04:05 | 00:00:00 | |
| BIOWL1-15 | 2026-09-05 18:33:39 | 49.19020 | 8.63711 | 77° | 18km/h | 31019m | 5.7m/s | -42.9°C | 0% | 10.8hPa | 2.6V | 03:16:27 | 02:04:04 | 00:00:00 | |
| DL1XH-west | 2026-09-05 18:33:38 | 49.19019 | 8.63704 | 79° | 20km/h | 31013m | 6.5m/s | -42.9°C | 0% | 10.8hPa | 2.6V | 03:16:27 | 02:04:03 | 00:00:00 | |
| DK7TD | 2026-09-05 18:33:32 | 49.19004 | 8.63639 | 59° | 35km/h | 30975m | 5.8m/s | -43.1°C | 0% | 10.9hPa | 2.6V | 03:16:27 | 02:03:57 | 00:00:00 | |
| OE5DXL-15 | 2026-09-05 18:33:32 | 49.19003 | 8.63639 | 59° | 22km/h | 30976m | 5.7m/s | -43.1°C | 2.5% | 10.8hPa | 2.6V | 03:15:00 | 00:00:00 | 00:00:00 | |
| DO1YAY-16 | 2026-09-05 18:33:31 | 49.18999 | 8.63628 | 61° | 29km/h | 30970m | 4.4m/s | -43.2°C | 0.6% | 10.9hPa | 2.6V | 00:00:00 | 00:00:00 | 00:00:00 | |
| DL1XH-15 | 2026-09-05 18:33:30 | 49.19006 | 8.63584 | 138° | 16km/h | 30935m | 4.7m/s | -43.4°C | 2.6% | 11hPa | 2.6V | 03:15:52 | 02:03:50 | 00:00:00 | |
| DL4BBY-15 | 2026-09-05 18:33:30 | 49.18996 | 8.63618 | 71° | 24km/h | 30966m | 4.8m/s | -44.8°C | 0% | 0hPa | 2.6V | 00:00:00 | 00:00:00 | 00:00:00 | |
| DM0DOS-11 | 2026-09-05 18:33:29 | 49.19008 | 8.63580 | 118° | 9km/h | 30930m | 5.7m/s | -43.4°C | 2.6% | 11hPa | 2.6V | 03:15:53 | 02:03:49 | 00:00:00 | |
| BIOWL1-15 | 2026-09-05 18:33:28 | 49.18996 | 8.63601 | 111° | 20km/h | 30952m | 7.5m/s | -43.3°C | 0% | 10.9hPa | 2.6V | 03:16:27 | 02:03:53 | 00:00:00 | |
| DL1XH-west | 2026-09-05 18:33:27 | 49.18999 | 8.63594 | 132° | 22km/h | 30946m | 6.3m/s | -43.3°C | 0% | 10.9hPa | 2.5V | 03:16:27 | 02:03:52 | 00:00:00 | |
| DJ2KF-10 | 2026-09-05 18:33:27 | 49.18999 | 8.63594 | 132° | 20km/h | 30946m | 6.2m/s | -43.3°C | 2.6% | 10.9hPa | 2.5V | 00:00:00 | 02:03:52 | 00:00:00 | |
| DJ2DS-15 | 2026-09-05 18:33:26 | 49.19002 | 8.63588 | 141° | 20km/h | 30941m | 4.8m/s | -43.3°C | 2.6% | 10.9hPa | 2.5V | 00:00:00 | 02:03:51 | 00:00:00 | |
| DK5PH-5 | 2026-09-05 18:33:25 | 49.19006 | 8.63584 | 139° | 20km/h | 30936m | 4.7m/s | -43.3°C | 2.6% | 10.9hPa | 2.5V | 03:15:00 | 02:03:50 | 00:00:00 | |
| HEMX73-11 | 2026-09-05 18:33:24 | 49.19006 | 8.63584 | 139° | 16km/h | 30936m | 4.7m/s | -43.4°C | 0.6% | 11.0hPa | 2.5V | 03:16:00 | 00:00:00 | 00:00:00 | |
| DO3MHA-11 | 2026-09-05 18:33:23 | 49.19008 | 8.63577 | 59° | 27km/h | 30924m | 6.8m/s | -43.4°C | 2.6% | 10.9hPa | 2.5V | 03:15:00 | 02:03:48 | 00:00:00 | |
| DF7PN | 2026-09-05 18:33:22 | 49.18987 | 8.63556 | 41° | 35km/h | 30900m | 5.3m/s | -43.5°C | 0.6% | 11.0hPa | 2.5V | 00:00:00 | 00:00:00 | 00:00:00 | |
| DL1XH-15 | 2026-09-05 18:33:20 | 49.18975 | 8.63511 | 93° | 27km/h | 30876m | 4.9m/s | -43.6°C | 2.6% | 11hPa | 2.5V | 03:16:02 | 02:03:40 | 00:00:00 | |
| DK7TD | 2026-09-05 18:33:19 | 49.18987 | 8.63556 | 42° | 35km/h | 30899m | 5.3m/s | -43.5°C | 0% | 11hPa | 2.5V | 03:16:27 | 02:03:44 | 00:00:00 | |
| DL1XH1-15 | 2026-09-05 18:33:18 | 49.18976 | 8.63495 | 97° | 13km/h | 30865m | 6.4m/s | -43.6°C | 2.6% | 11.1hPa | 2.6V | 03:16:04 | 02:03:38 | 00:00:00 | |
| BIOWL1-15 | 2026-09-05 18:33:18 | 49.18981 | 8.63546 | 54° | 35km/h | 30894m | 6.4m/s | -43.6°C | 0% | 11hPa | 2.6V | 03:16:27 | 02:03:43 | 00:00:00 | |
| HSKMA3-T | 2026-09-05 18:33:17 | 49.18977 | 8.63534 | 69° | 35km/h | 30887m | 6.6m/s | -43.6°C | 0% | 11hPa | 2.6V | 03:16:27 | 02:03:42 | 00:00:00 | |
| IW2NTF | 2026-09-05 18:33:17 | 49.18974 | 8.63492 | 337° | 9km/h | 30852m | 6.4m/s | -43.5°C | 2.6% | 11.1hPa | 2.6V | 03:16:06 | 02:03:36 | 00:00:00 | |
| DL1XH-west | 2026-09-05 18:33:16 | 49.18975 | 8.63522 | 83° | 33km/h | 30881m | 5.8m/s | -43.6°C | 0% | 11hPa | 2.6V | 03:16:27 | 02:03:41 | 00:00:00 | |
| SONDE2-11 | 2026-09-05 18:33:16 | 49.18975 | 8.63511 | 93° | 27km/h | 30876m | 4.9m/s | -43.6°C | 0.6% | 11.0hPa | 2.5V | 00:00:00 | 00:00:00 | 00:00:00 | |
| DF3TZ-5 | 2026-09-05 18:33:15 | 49.18975 | 8.63501 | 100° | 20km/h | 30871m | 5.2m/s | -43.6°C | 0.6% | 11.1hPa | 2.5V | 00:00:00 | 00:00:00 | 00:00:00 | |
| DM0DOS-11 | 2026-09-05 18:33:14 | 49.18967 | 8.63497 | 338° | 18km/h | 30840m | 5.1m/s | -43.5°C | 2.6% | 11.1hPa | 2.5V | 03:16:08 | 02:03:34 | 00:00:00 | |
| DO3MHA-11 | 2026-09-05 18:33:13 | 49.18976 | 8.63495 | 98° | 15km/h | 30865m | 6.3m/s | -43.5°C | 2.6% | 11.0hPa | 2.6V | 00:00:00 | 02:03:38 | 00:00:00 | |
| DM7RM-13 | 2026-09-05 18:33:12 | 49.18976 | 8.63495 | 99° | 13km/h | 30865m | 6.4m/s | -43.6°C | 0.6% | 11.1hPa | 2.6V | 03:16:00 | 00:00:00 | 00:00:00 | |
| SONCRA | 2026-09-05 18:33:11 | 49.18974 | 8.63492 | 337° | 9km/h | 30852m | 6.4m/s | -43.6°C | 0.6% | 11.1hPa | 2.6V | 00:00:00 | 00:00:00 | 00:00:00 | |
| DL1XH-15 | 2026-09-05 18:33:10 | 49.18953 | 8.63490 | 65° | 20km/h | 30816m | 6m/s | -43.5°C | 2.6% | 11.1hPa | 2.6V | 03:16:12 | 02:03:30 | 00:00:00 | |
| DB0NH | 2026-09-05 18:33:09 | 49.18968 | 8.63497 | 339° | 13km/h | 30841m | 5.0m/s | -43.5°C | 2.6% | 11.1hPa | 2.6V | 00:00:00 | 02:03:34 | 00:00:00 | |
| DL1XH1-15 | 2026-09-05 18:33:08 | 49.18950 | 8.63473 | 75° | 26km/h | 30805m | 5.9m/s | -43.5°C | 2.6% | 11.2hPa | 2.6V | 03:16:14 | 02:03:28 | 00:00:00 | |
| DK7TD | 2026-09-05 18:33:08 | 49.18963 | 8.63499 | 351° | 16km/h | 30835m | 5.8m/s | -43.5°C | 0% | 11.1hPa | 2.5V | 03:16:27 | 02:03:33 | 00:00:00 | |
| IW2NTF | 2026-09-05 18:33:07 | 49.18946 | 8.63455 | 65° | 24km/h | 30793m | 5.9m/s | -43.5°C | 2.6% | 11.2hPa | 2.5V | 03:16:16 | 02:03:26 | 00:00:00 | |
| HSKMA3-T | 2026-09-05 18:33:06 | 49.18956 | 8.63496 | 43° | 16km/h | 30823m | 6.2m/s | -43.5°C | 0% | 11.1hPa | 2.6V | 03:16:27 | 02:03:31 | 00:00:00 | |
| DL1XH-west | 2026-09-05 18:33:05 | 49.18953 | 8.63490 | 65° | 20km/h | 30816m | 6m/s | -43.5°C | 0% | 11.2hPa | 2.6V | 03:16:27 | 02:03:30 | 00:00:00 | |
| KANTATE | 2026-09-05 18:33:04 | 49.18953 | 8.63490 | 66° | 20km/h | 30817m | 6.0m/s | -43.5°C | 0.6% | 11.1hPa | 2.6V | 03:16:00 | 00:00:00 | 00:00:00 | |
| DO3MHA-11 | 2026-09-05 18:33:03 | 49.18950 | 8.63473 | 76° | 15km/h | 30805m | 5.9m/s | -43.5°C | 2.6% | 11.1hPa | 2.6V | 00:00:00 | 02:03:28 | 00:00:00 | |
| DO3DL | 2026-09-05 18:33:02 | 49.18950 | 8.63473 | 77° | 26km/h | 30805m | 5.9m/s | -43.5°C | 0.6% | 11.2hPa | 2.6V | 03:16:00 | 00:00:00 | 00:00:00 | |
| DL3AQ-11 | 2026-09-05 18:33:01 | 49.18943 | 8.63447 | 58° | 20km/h | 30787m | 5.5m/s | -43.5°C | 0.6% | 11.2hPa | 2.6V | 00:00:00 | 00:00:00 | 00:00:00 | |
| DL4BBY-15 | 2026-09-05 18:33:00 | 49.18943 | 8.63447 | 59° | 9km/h | 30787m | 5.4m/s | -45.1°C | 0% | 0hPa | 2.6V | 00:00:00 | 00:00:00 | 00:00:00 | |
| DB0UT-9 | 2026-09-05 18:32:59 | 49.18943 | 8.63447 | 59° | 20km/h | 30788m | 5.5m/s | -43.5°C | 0.6% | 11.2hPa | 2.6V | 03:16:00 | 00:00:00 | 00:00:00 | |
| DL1XH1-15 | 2026-09-05 18:32:58 | 49.18936 | 8.63432 | 281° | 2km/h | 30745m | 6m/s | -43.7°C | 2.6% | 11.2hPa | 2.6V | 03:16:24 | 02:03:18 | 00:00:00 | |
| BIOWL1-15 | 2026-09-05 18:32:57 | 49.18937 | 8.63435 | 47° | 7km/h | 30770m | 6.6m/s | -43.6°C | 0% | 11.2hPa | 2.6V | 03:16:27 | 02:03:22 | 00:00:00 | |
| DL1XH-west | 2026-09-05 18:32:55 | 49.18936 | 8.63432 | 107° | 2km/h | 30757m | 6.1m/s | -43.7°C | 0% | 11.2hPa | 2.5V | 03:16:27 | 02:03:20 | 00:00:00 | |
| DJ2DS-15 | 2026-09-05 18:32:52 | 49.18936 | 8.63433 | 311° | 4km/h | 30739m | 6.9m/s | -43.7°C | 0.6% | 11.3hPa | 2.5V | 00:00:00 | 00:00:00 | 00:00:00 | |
| DF7PN | 2026-09-05 18:32:51 | 49.18935 | 8.63435 | 336° | 5km/h | 30733m | 5.6m/s | -43.8°C | 0.6% | 11.3hPa | 2.5V | 00:00:00 | 00:00:00 | 00:00:00 | |
| DL3AQ-11 | 2026-09-05 18:32:50 | 49.18932 | 8.63433 | 61° | 7km/h | 30722m | 5.5m/s | -43.8°C | 0.6% | 11.3hPa | 2.5V | 00:00:00 | 00:00:00 | 00:00:00 | |
| DO3DL | 2026-09-05 18:32:49 | 49.18933 | 8.63435 | 13° | 5km/h | 30728m | 5.2m/s | -43.8°C | 0.6% | 11.3hPa | 2.5V | 03:16:00 | 00:00:00 | 00:00:00 | |
| DL1XH1-15 | 2026-09-05 18:32:48 | 49.18937 | 8.63402 | 119° | 4km/h | 30685m | 6.5m/s | -43.9°C | 2.7% | 11.3hPa | 2.5V | 03:16:34 | 02:03:08 | 00:00:00 | |
| BIOWL1-15 | 2026-09-05 18:32:47 | 49.18932 | 8.63424 | 101° | 18km/h | 30709m | 7.1m/s | -43.9°C | 0% | 11.3hPa | 2.6V | 03:17:18 | 02:03:12 | 00:00:00 | |
| DB0UT-7 | 2026-09-05 18:32:47 | 49.18932 | 8.63423 | 102° | 9km/h | 30709m | 7.0m/s | -43.8°C | 2.6% | 11.3hPa | 2.6V | 00:00:00 | 02:03:12 | 00:00:00 | |
| IW2NTF | 2026-09-05 18:32:46 | 49.18937 | 8.63404 | 269° | 7km/h | 30674m | 5.4m/s | -43.9°C | 2.6% | 11.4hPa | 2.6V | 03:16:36 | 02:03:06 | 00:00:00 | |
| DL1XH-west | 2026-09-05 18:32:45 | 49.18934 | 8.63410 | 113° | 18km/h | 30697m | 4.7m/s | -43.9°C | 0% | 11.3hPa | 2.6V | 03:17:18 | 02:03:10 | 00:00:00 | |
| DK7TD | 2026-09-05 18:32:44 | 49.18936 | 8.63404 | 114° | 13km/h | 30692m | 6.2m/s | -43.9°C | 0% | 11.3hPa | 2.5V | 03:19:51 | 02:03:09 | 00:00:00 | |
| DF3TZ-5 | 2026-09-05 18:32:44 | 49.18937 | 8.63402 | 119° | 4km/h | 30686m | 6.5m/s | -43.9°C | 0.6% | 11.3hPa | 2.5V | 00:00:00 | 00:00:00 | 00:00:00 | |
| DO3MHA-11 | 2026-09-05 18:32:43 | 49.18937 | 8.63401 | 120° | 7km/h | 30686m | 6.4m/s | -43.9°C | 2.7% | 11.3hPa | 2.5V | 03:16:00 | 02:03:08 | 00:00:00 | |
| DG9SBQ-11 | 2026-09-05 18:32:42 | 49.18937 | 8.63401 | 120° | 4km/h | 30686m | 6.5m/s | -43.9°C | 0.6% | 11.3hPa | 2.7V | 03:17:00 | 00:00:00 | 00:00:00 | |
| SONCRA | 2026-09-05 18:32:40 | 49.18937 | 8.63407 | 264° | 9km/h | 30668m | 5.8m/s | -43.9°C | 0.6% | 11.4hPa | 2.7V | 00:00:00 | 00:00:00 | 00:00:00 | |
| DB0NH | 2026-09-05 18:32:39 | 49.18938 | 8.63410 | 256° | 9km/h | 30662m | 6.7m/s | -43.8°C | 2.7% | 11.4hPa | 2.7V | 00:00:00 | 02:03:04 | 00:00:00 | |
| DL1XH1-15 | 2026-09-05 18:32:38 | 49.18936 | 8.63409 | 13° | 7km/h | 30627m | 5.8m/s | -43.8°C | 2.6% | 11.5hPa | 2.7V | 03:16:44 | 02:02:58 | 00:00:00 | |
| DG9SBQ-11 | 2026-09-05 18:32:37 | 49.18938 | 8.63412 | 238° | 5km/h | 30656m | 6.0m/s | -43.9°C | 0.6% | 11.4hPa | 2.6V | 03:17:00 | 00:00:00 | 00:00:00 | |
| IW2NTF | 2026-09-05 18:32:36 | 49.18932 | 8.63408 | 21° | 5km/h | 30616m | 5.2m/s | -43.8°C | 2.6% | 11.5hPa | 2.6V | 03:16:46 | 02:02:56 | 00:00:00 | |
| BIOWL1-15 | 2026-09-05 18:32:36 | 49.18939 | 8.63413 | 86° | 4km/h | 30645m | 5.4m/s | -43.9°C | 0% | 11.4hPa | 2.5V | 03:17:18 | 02:03:01 | 00:00:00 | |
| HSKMA3-T | 2026-09-05 18:32:35 | 49.18939 | 8.63412 | 52° | 5km/h | 30639m | 6m/s | -43.9°C | 0% | 11.4hPa | 2.5V | 03:17:18 | 02:03:00 | 00:00:00 | |
| DL1XH-west | 2026-09-05 18:32:34 | 49.18938 | 8.63410 | 29° | 7km/h | 30633m | 6.2m/s | -43.9°C | 0% | 11.4hPa | 2.6V | 03:17:18 | 02:02:59 | 00:00:00 | |
| BIOWL1-15 | 2026-09-05 18:32:31 | 49.18936 | 8.63396 | 109° | 2km/h | 30581m | 6.6m/s | -43.8°C | 0% | 11.6hPa | 2.5V | 03:17:18 | 02:02:50 | 00:00:00 | |
| DO3DL | 2026-09-05 18:32:30 | 49.18931 | 8.63406 | 64° | 4km/h | 30611m | 5.9m/s | -43.8°C | 0.6% | 11.5hPa | 2.6V | 03:17:00 | 00:00:00 | 00:00:00 | |
| DO1YAY-16 | 2026-09-05 18:32:29 | 49.18931 | 8.63405 | 109° | 5km/h | 30604m | 7.1m/s | -43.8°C | 0.6% | 11.5hPa | 2.6V | 00:00:00 | 00:00:00 | 00:00:00 | |
| DL1XH1-15 | 2026-09-05 18:32:28 | 49.18933 | 8.63396 | 357° | 9km/h | 30568m | 5.2m/s | -43.9°C | 2.6% | 11.6hPa | 2.6V | 03:16:54 | 02:02:48 | 00:00:00 | |
| DO3MHA-11 | 2026-09-05 18:32:27 | 49.18934 | 8.63399 | 135° | 11km/h | 30592m | 5.1m/s | -43.7°C | 2.6% | 11.5hPa | 2.6V | 00:00:00 | 02:02:52 | 00:00:00 | |
| IW2NTF | 2026-09-05 18:32:26 | 49.18927 | 8.63394 | 28° | 15km/h | 30557m | 6.3m/s | -44°C | 2.7% | 11.6hPa | 2.6V | 03:16:56 | 02:02:46 | 00:00:00 | |
| DL1ZP-14 | 2026-09-05 18:32:26 | 49.18936 | 8.63396 | 108° | 0km/h | 30581m | 6.6m/s | -43.8°C | 0.6% | 11.6hPa | 2.5V | 00:00:00 | 00:00:00 | 00:00:00 | |
| DM0DOS-11 | 2026-09-05 18:32:25 | 49.18924 | 8.63390 | 45° | 16km/h | 30551m | 6.6m/s | -44°C | 2.7% | 11.6hPa | 2.6V | 03:16:57 | 02:02:45 | 00:00:00 | |
| HSKMA3-T | 2026-09-05 18:32:24 | 49.18935 | 8.63396 | 352° | 5km/h | 30574m | 6.1m/s | -43.9°C | 0% | 11.6hPa | 2.6V | 03:17:18 | 02:02:49 | 00:00:00 | |
| DL1XH-west | 2026-09-05 18:32:23 | 49.18933 | 8.63396 | 358° | 11km/h | 30568m | 5.2m/s | -43.9°C | 0% | 11.6hPa | 2.6V | 03:17:18 | 02:02:48 | 00:00:00 | |
| DK7TD | 2026-09-05 18:32:22 | 49.18930 | 8.63396 | 11° | 13km/h | 30564m | 5.2m/s | -43.9°C | 0% | 11.6hPa | 2.6V | 03:19:51 | 02:02:47 | 00:00:00 | |
| DC4HF-4 | 2026-09-05 18:32:21 | 49.18924 | 8.63390 | 45° | 16km/h | 30551m | 6.6m/s | -44.0°C | 0.6% | 11.6hPa | 2.6V | 00:00:00 | 00:00:00 | 00:00:00 | |
| DL3AQ-11 | 2026-09-05 18:32:20 | 49.18924 | 8.63390 | 45° | 16km/h | 30551m | 6.6m/s | -44.0°C | 0.6% | 11.6hPa | 2.6V | 00:00:00 | 00:00:00 | 00:00:00 | |
| AZAK | 2026-09-05 18:32:19 | 49.18924 | 8.63390 | 47° | 16km/h | 30552m | 6.6m/s | -44.0°C | 0.6% | 11.6hPa | 2.6V | 03:17:00 | 00:00:00 | 00:00:00 | |
| DB0UT-9 | 2026-09-05 18:32:18 | 49.18921 | 8.63385 | 59° | 18km/h | 30545m | 5.8m/s | -44.0°C | 0.7% | 11.6hPa | 2.6V | 03:17:00 | 00:00:00 | 00:00:00 | |
| DO3MHA-11 | 2026-09-05 18:32:17 | 49.18917 | 8.63373 | 65° | 7km/h | 30535m | 5.8m/s | -43.9°C | 2.7% | 11.6hPa | 2.6V | 00:00:00 | 02:02:42 | 00:00:00 | |
| DL1XH-15 | 2026-09-05 18:32:16 | 49.18923 | 8.63371 | 185° | 7km/h | 30492m | 4.5m/s | -44°C | 2.7% | 11.7hPa | 2.6V | 03:17:07 | 02:02:35 | 00:00:00 | |
| BIOWL1-15 | 2026-09-05 18:32:15 | 49.18915 | 8.63367 | 53° | 2km/h | 30522m | 5.9m/s | -44°C | 0% | 11.6hPa | 2.6V | 03:17:18 | 02:02:40 | 00:00:00 | |
| DL1XH-west | 2026-09-05 18:32:12 | 49.18919 | 8.63369 | 197° | 11km/h | 30504m | 6.8m/s | -44°C | 0% | 11.7hPa | 2.5V | 03:17:18 | 02:02:37 | 00:00:00 | |
| HSKMA3-T | 2026-09-05 18:32:11 | 49.18921 | 8.63370 | 188° | 11km/h | 30498m | 5.6m/s | -44°C | 0% | 11.7hPa | 2.5V | 03:17:18 | 02:02:36 | 00:00:00 | |
| DO3DL | 2026-09-05 18:32:10 | 49.18923 | 8.63371 | 186° | 7km/h | 30493m | 4.5m/s | -44.0°C | 0.6% | 11.7hPa | 2.6V | 03:17:00 | 00:00:00 | 00:00:00 | |
| DB0NH | 2026-09-05 18:32:09 | 49.18925 | 8.63371 | 193° | 15km/h | 30488m | 4.8m/s | -43.9°C | 2.7% | 11.7hPa | 2.6V | 03:17:00 | 02:02:34 | 00:00:00 | |
| DL1XH1-15 | 2026-09-05 18:32:08 | 49.18911 | 8.63356 | 70° | 20km/h | 30453m | 6.6m/s | -44°C | 2.7% | 11.8hPa | 2.6V | 03:17:14 | 02:02:28 | 00:00:00 | |
| HARRO8 | 2026-09-05 18:32:07 | 49.18923 | 8.63371 | 3° | 9km/h | 30476m | 6.3m/s | -44.0°C | 0.6% | 11.7hPa | 2.5V | 00:00:00 | 00:00:00 | 00:00:00 | |
| DJ2DS-15 | 2026-09-05 18:32:06 | 49.18920 | 8.63370 | 17° | 16km/h | 30470m | 5.3m/s | -44.0°C | 2.7% | 11.7hPa | 2.5V | 00:00:00 | 02:02:31 | 00:00:00 | |
| DL1XH-15 | 2026-09-05 18:32:05 | 49.18913 | 8.63334 | 125° | 16km/h | 30437m | 4.9m/s | -44°C | 2.7% | 11.8hPa | 2.5V | 03:17:17 | 02:02:25 | 00:00:00 | |
| BIOWL1-15 | 2026-09-05 18:32:04 | 49.18913 | 8.63363 | 52° | 20km/h | 30459m | 5.8m/s | -44°C | 0% | 11.8hPa | 2.5V | 03:17:18 | 02:02:29 | 00:00:00 | |
| DL1XH-west | 2026-09-05 18:32:01 | 49.18911 | 8.63340 | 108° | 20km/h | 30442m | 4.5m/s | -44°C | 0% | 11.8hPa | 2.6V | 03:17:18 | 02:02:26 | 00:00:00 | |
| DM0DOS-11 | 2026-09-05 18:32:00 | 49.18923 | 8.63338 | 246° | 9km/h | 30407m | 5m/s | -43.9°C | 2.7% | 11.8hPa | 2.6V | 03:17:22 | 02:02:20 | 00:00:00 | |
| DK7TD | 2026-09-05 18:32:00 | 49.18913 | 8.63334 | 126° | 16km/h | 30437m | 4.9m/s | -44°C | 0% | 11.8hPa | 2.5V | 03:19:51 | 02:02:25 | 00:00:00 | |
| DL4BBY-15 | 2026-09-05 18:32:00 | 49.18913 | 8.63334 | 126° | 15km/h | 30437m | 4.9m/s | -45.6°C | 0% | 0hPa | 2.5V | 00:00:00 | 00:00:00 | 00:00:00 | |
| DG9SBQ-11 | 2026-09-05 18:31:59 | 49.18913 | 8.63334 | 127° | 16km/h | 30437m | 4.9m/s | -44.0°C | 0.6% | 11.8hPa | 2.5V | 03:17:00 | 00:00:00 | 00:00:00 | |
| DL1XH1-15 | 2026-09-05 18:31:58 | 49.18924 | 8.63340 | 86° | 5km/h | 30396m | 5.7m/s | -43.9°C | 2.7% | 11.9hPa | 2.5V | 03:17:24 | 02:02:18 | 00:00:00 | |
| HSKMA3-T | 2026-09-05 18:31:58 | 49.18918 | 8.63329 | 189° | 9km/h | 30425m | 6.8m/s | -44°C | 0% | 11.8hPa | 2.6V | 03:18:09 | 02:02:23 | 00:00:00 | |
| BIOWL1-15 | 2026-09-05 18:31:58 | 49.18924 | 8.63340 | 235° | 4km/h | 30402m | 6m/s | -43.9°C | 0% | 11.9hPa | 2.5V | 03:19:00 | 02:02:19 | 00:00:00 | |
| DO3MHA-11 | 2026-09-05 18:31:57 | 49.18920 | 8.63331 | 229° | 15km/h | 30418m | 6.0m/s | -43.9°C | 2.6% | 11.8hPa | 2.6V | 03:17:00 | 02:02:22 | 00:00:00 | |
| LOEBOVI | 2026-09-05 18:31:56 | 49.18921 | 8.63334 | 244° | 13km/h | 30413m | 5.2m/s | 0°C | 0% | 0hPa | 2.6V | 00:00:00 | 00:00:00 | 00:00:00 | |
| DL1XH-15 | 2026-09-05 18:31:55 | 49.18919 | 8.63325 | 59° | 22km/h | 30379m | 6.7m/s | -43.9°C | 2.7% | 11.9hPa | 2.6V | 03:17:27 | 02:02:15 | 00:00:00 | |
| DL1XH-west | 2026-09-05 18:31:50 | 49.18919 | 8.63325 | 59° | 22km/h | 30379m | 6.7m/s | -43.9°C | 0% | 11.9hPa | 2.6V | 03:18:09 | 02:02:15 | 00:00:00 | |
| DM0DOS-11 | 2026-09-05 18:31:49 | 49.18919 | 8.63285 | 162° | 18km/h | 30346m | 4.8m/s | -43.8°C | 2.6% | 12hPa | 2.6V | 03:17:33 | 02:02:09 | 00:00:00 | |
| DG9SBQ-11 | 2026-09-05 18:31:48 | 49.18916 | 8.63317 | 61° | 24km/h | 30373m | 5.6m/s | -43.9°C | 0.6% | 11.9hPa | 2.6V | 03:18:00 | 00:00:00 | 00:00:00 | |
| DO3MHA-11 | 2026-09-05 18:31:47 | 49.18912 | 8.63302 | 85° | 16km/h | 30363m | 5.1m/s | -43.7°C | 2.7% | 11.9hPa | 2.6V | 00:00:00 | 02:02:12 | 00:00:00 | |
| IW2NTF | 2026-09-05 18:31:46 | 49.18930 | 8.63291 | 235° | 16km/h | 30328m | 6.4m/s | -43.8°C | 2.6% | 12hPa | 2.6V | 03:17:36 | 02:02:06 | 00:00:00 | |
| HSKMA3-T | 2026-09-05 18:31:46 | 49.18913 | 8.63295 | 105° | 18km/h | 30357m | 6.3m/s | -43.8°C | 0% | 11.9hPa | 2.5V | 03:18:09 | 02:02:11 | 00:00:00 | |
| BIOWL1-15 | 2026-09-05 18:31:45 | 49.18923 | 8.63285 | 188° | 18km/h | 30340m | 5.4m/s | -43.9°C | 0% | 12hPa | 2.7V | 03:19:00 | 02:02:08 | 00:00:00 | |
| DO8TBO-1 | 2026-09-05 18:31:43 | 49.18923 | 8.63284 | 188° | 16km/h | 30341m | 5.3m/s | -43.8°C | 2.6% | 11.9hPa | 2.6V | 03:17:00 | 02:02:08 | 00:00:00 | |
| SONDE2-11 | 2026-09-05 18:31:42 | 49.18927 | 8.63287 | 211° | 16km/h | 30335m | 6.9m/s | -43.8°C | 0.6% | 12.0hPa | 2.6V | 00:00:00 | 00:00:00 | 00:00:00 | |
| DL3AQ-11 | 2026-09-05 18:31:41 | 49.18932 | 8.63297 | 253° | 15km/h | 30322m | 5.3m/s | -43.9°C | 0.6% | 12.0hPa | 2.6V | 00:00:00 | 00:00:00 | 00:00:00 | |
| DJ2DS-15 | 2026-09-05 18:31:40 | 49.18932 | 8.63297 | 253° | 15km/h | 30322m | 5.3m/s | -43.9°C | 0.6% | 12.0hPa | 2.6V | 00:00:00 | 00:00:00 | 00:00:00 | |
| DM0DOS-11 | 2026-09-05 18:31:39 | 49.18929 | 8.63286 | 72° | 24km/h | 30288m | 5.7m/s | -43.9°C | 2.6% | 12.1hPa | 2.6V | 03:17:43 | 02:01:59 | 00:00:00 | |
| DL1XH-west | 2026-09-05 18:31:39 | 49.18933 | 8.63302 | 266° | 11km/h | 30317m | 5.1m/s | -43.9°C | 0% | 12hPa | 2.6V | 03:18:09 | 02:02:04 | 00:00:00 | |
| DB0NH | 2026-09-05 18:31:39 | 49.18932 | 8.63301 | 266° | 16km/h | 30317m | 5.0m/s | -43.8°C | 2.6% | 12.0hPa | 2.7V | 00:00:00 | 02:02:04 | 00:00:00 | |
| SONCRA | 2026-09-05 18:31:38 | 49.18932 | 8.63304 | 68° | 4km/h | 30305m | 6.1m/s | -43.9°C | 0.6% | 12.0hPa | 2.7V | 00:00:00 | 00:00:00 | 00:00:00 | |
| DO3MHA-11 | 2026-09-05 18:31:37 | 49.18932 | 8.63304 | 69° | 16km/h | 30305m | 6.0m/s | -43.8°C | 2.6% | 12.0hPa | 2.7V | 00:00:00 | 02:02:02 | 00:00:00 | |
| IW2NTF | 2026-09-05 18:31:36 | 49.18924 | 8.63263 | 79° | 13km/h | 30272m | 4.2m/s | -43.9°C | 2.6% | 12.1hPa | 2.6V | 03:17:46 | 02:01:56 | 00:00:00 | |
| HSKMA3-T | 2026-09-05 18:31:36 | 49.18932 | 8.63301 | 76° | 15km/h | 30299m | 5.6m/s | -43.9°C | 0% | 12.1hPa | 2.6V | 03:18:09 | 02:02:01 | 00:00:00 | |
| DL1XH-15 | 2026-09-05 18:31:35 | 49.18924 | 8.63259 | 116° | 9km/h | 30267m | 4.7m/s | -43.9°C | 2.7% | 12.1hPa | 2.6V | 03:17:47 | 02:01:55 | 00:00:00 | |
| BIOWL1-15 | 2026-09-05 18:31:35 | 49.18927 | 8.63277 | 71° | 24km/h | 30282m | 6m/s | -43.9°C | 0% | 12.1hPa | 2.6V | 03:19:00 | 02:01:58 | 00:00:00 | |
| DK7TD | 2026-09-05 18:31:32 | 49.18925 | 8.63269 | 70° | 20km/h | 30276m | 5m/s | -43.9°C | 0% | 12.1hPa | 2.7V | 03:19:51 | 02:01:57 | 00:00:00 | |
| DM7RM-13 | 2026-09-05 18:31:31 | 49.18925 | 8.63269 | 71° | 20km/h | 30277m | 5.0m/s | -43.9°C | 0.6% | 12.1hPa | 2.6V | 03:18:00 | 00:00:00 | 00:00:00 | |
| DL3AQ-11 | 2026-09-05 18:31:30 | 49.18926 | 8.63257 | 162° | 11km/h | 30262m | 6.3m/s | -43.9°C | 0.6% | 12.1hPa | 2.6V | 00:00:00 | 00:00:00 | 00:00:00 | |
| DM0DOS-11 | 2026-09-05 18:31:29 | 49.18944 | 8.63269 | 262° | 11km/h | 30236m | 5.4m/s | -43.9°C | 2.7% | 12.2hPa | 2.6V | 03:17:53 | 02:01:49 | 00:00:00 | |
| DL1XH-west | 2026-09-05 18:31:28 | 49.18930 | 8.63256 | 183° | 16km/h | 30255m | 6.8m/s | -43.9°C | 0% | 12.1hPa | 2.5V | 03:18:09 | 02:01:53 | 00:00:00 | |
| DO3MHA-11 | 2026-09-05 18:31:27 | 49.18934 | 8.63258 | 196° | 20km/h | 30250m | 5.4m/s | -43.9°C | 2.7% | 12.1hPa | 2.5V | 00:00:00 | 02:01:52 | 00:00:00 | |
| IW2NTF | 2026-09-05 18:31:26 | 49.18933 | 8.63276 | 4° | 27km/h | 30218m | 4.9m/s | -43.9°C | 2.6% | 12.2hPa | 2.5V | 03:17:56 | 02:01:46 | 00:00:00 | |
| DJ2DS-15 | 2026-09-05 18:31:26 | 49.18939 | 8.63260 | 208° | 16km/h | 30245m | 3.6m/s | -43.9°C | 2.7% | 12.1hPa | 2.6V | 03:17:00 | 02:01:51 | 00:00:00 | |
| DL1XH-15 | 2026-09-05 18:31:25 | 49.18926 | 8.63273 | 17° | 29km/h | 30213m | 4.6m/s | -43.9°C | 2.6% | 12.2hPa | 2.6V | 03:17:57 | 02:01:45 | 00:00:00 | |
| HSKMA3-T | 2026-09-05 18:31:25 | 49.18943 | 8.63264 | 225° | 15km/h | 30241m | 3.7m/s | -43.9°C | 0% | 12.1hPa | 2.6V | 03:18:09 | 02:01:50 | 00:00:00 | |
| BIOWL1-15 | 2026-09-05 18:31:23 | 49.18943 | 8.63272 | 317° | 13km/h | 30230m | 6.9m/s | -43.9°C | 0% | 12.2hPa | 2.6V | 03:19:00 | 02:01:48 | 00:00:00 | |
| DK7TD | 2026-09-05 18:31:21 | 49.18933 | 8.63275 | 5° | 27km/h | 30218m | 4.9m/s | -43.9°C | 0% | 12.2hPa | 2.5V | 03:19:51 | 02:01:46 | 00:00:00 | |
| DL1XH-west | 2026-09-05 18:31:18 | 49.18915 | 8.63263 | 51° | 22km/h | 30203m | 5.7m/s | -43.9°C | 0% | 12.2hPa | 2.7V | 03:18:09 | 02:01:43 | 00:00:00 | |
| HSKMA3-T | 2026-09-05 18:31:13 | 49.18924 | 8.63250 | 218° | 16km/h | 30176m | 6.4m/s | -43.9°C | 0% | 12.2hPa | 2.6V | 03:18:09 | 02:01:38 | 00:00:00 | |
| BIOWL1-15 | 2026-09-05 18:31:12 | 49.18927 | 8.63255 | 242° | 18km/h | 30169m | 5.6m/s | -43.9°C | 0% | 12.3hPa | 2.6V | 03:19:00 | 02:01:37 | 00:00:00 | |
| DF3TZ-5 | 2026-09-05 18:31:11 | 49.18926 | 8.63276 | 344° | 5km/h | 30148m | 6.4m/s | -44.0°C | 0.6% | 12.3hPa | 2.6V | 00:00:00 | 00:00:00 | 00:00:00 | |
| IW2NTF | 2026-09-05 18:31:10 | 49.18919 | 8.63267 | 50° | 16km/h | 30131m | 5.9m/s | -44°C | 2.7% | 12.4hPa | 2.6V | 03:18:12 | 02:01:30 | 00:00:00 | |
| DB0NH | 2026-09-05 18:31:09 | 49.18928 | 8.63274 | 295° | 11km/h | 30154m | 5.9m/s | -43.9°C | 2.7% | 12.2hPa | 2.5V | 00:00:00 | 02:01:34 | 00:00:00 | |
| DL1XH1-15 | 2026-09-05 18:31:08 | 49.18914 | 8.63258 | 53° | 11km/h | 30119m | 4.9m/s | -44°C | 2.7% | 12.4hPa | 2.5V | 03:18:14 | 02:01:28 | 00:00:00 | |
| DL1XH-west | 2026-09-05 18:31:08 | 49.18926 | 8.63276 | 345° | 7km/h | 30148m | 6.4m/s | -44°C | 0% | 12.3hPa | 2.6V | 03:18:09 | 02:01:33 | 00:00:00 | |
| DK7TD | 2026-09-05 18:31:07 | 49.18924 | 8.63275 | 35° | 11km/h | 30142m | 5.8m/s | -44°C | 0% | 12.3hPa | 2.7V | 03:19:51 | 02:01:32 | 00:00:00 | |
| BIOWL1-15 | 2026-09-05 18:31:06 | 49.18913 | 8.63255 | 79° | 7km/h | 30115m | 4.8m/s | -44°C | 0% | 12.4hPa | 2.6V | 03:19:00 | 02:01:27 | 00:00:00 | |
| HARRO8 | 2026-09-05 18:31:05 | 49.18919 | 8.63267 | 50° | 16km/h | 30131m | 5.9m/s | -44.0°C | 0.6% | 12.4hPa | 2.5V | 00:00:00 | 00:00:00 | 00:00:00 | |
| DJ2DS-15 | 2026-09-05 18:31:04 | 49.18917 | 8.63262 | 50° | 15km/h | 30125m | 5.8m/s | -44.0°C | 0.6% | 12.4hPa | 2.5V | 00:00:00 | 00:00:00 | 00:00:00 | |
| EDDB2-12 | 2026-09-05 18:31:03 | 49.18913 | 8.63255 | 78° | 7km/h | 30115m | 4.8m/s | -44.0°C | 0.6% | 12.4hPa | 2.5V | 00:00:00 | 00:00:00 | 00:00:00 | |
| BIOWL9-15 | 2026-09-05 18:31:02 | 49.18913 | 8.63255 | 78° | 7km/h | 30115m | 4.8m/s | -44.0°C | 0.6% | 12.4hPa | 2.5V | 00:00:00 | 00:00:00 | 00:00:00 | |
| DL3AQ-11 | 2026-09-05 18:31:01 | 49.18914 | 8.63252 | 123° | 5km/h | 30110m | 5.8m/s | -44.0°C | 0.6% | 12.4hPa | 2.5V | 00:00:00 | 00:00:00 | 00:00:00 | |
| IW2NTF | 2026-09-05 18:31:00 | 49.18928 | 8.63257 | 274° | 11km/h | 30076m | 5.7m/s | -43.9°C | 2.6% | 12.4hPa | 2.5V | 03:18:22 | 02:01:20 | 00:00:00 | |
| HSKMA3-T | 2026-09-05 18:31:00 | 49.18915 | 8.63250 | 154° | 11km/h | 30103m | 6.7m/s | -44°C | 0% | 12.4hPa | 2.7V | 03:19:00 | 02:01:25 | 00:00:00 | |
| DL1XH-west | 2026-09-05 18:30:58 | 49.18922 | 8.63249 | 187° | 15km/h | 30092m | 4.4m/s | -43.9°C | 0% | 12.4hPa | 2.6V | 03:19:00 | 02:01:23 | 00:00:00 | |
| DL1XH1-15 | 2026-09-05 18:30:58 | 49.18925 | 8.63262 | 357° | 11km/h | 30067m | 3.9m/s | -43.9°C | 2.6% | 12.5hPa | 2.7V | 03:18:24 | 02:01:18 | 00:00:00 | |
| DK7TD | 2026-09-05 18:30:57 | 49.18925 | 8.63250 | 209° | 13km/h | 30087m | 4.6m/s | -43.9°C | 0% | 12.4hPa | 2.5V | 03:19:51 | 02:01:22 | 00:00:00 | |
| DO1YAY-16 | 2026-09-05 18:30:56 | 49.18928 | 8.63253 | 236° | 11km/h | 30082m | 6.2m/s | -43.9°C | 0.6% | 12.4hPa | 2.6V | 00:00:00 | 00:00:00 | 00:00:00 | |
| DD1CC8 | 2026-09-05 18:30:54 | 49.18927 | 8.63261 | 313° | 9km/h | 30071m | 4.4m/s | -43.9°C | 0.6% | 12.5hPa | 2.6V | 00:00:00 | 00:00:00 | 00:00:00 | |
| DL6DJ-15 | 2026-09-05 18:30:52 | 49.18919 | 8.63256 | 59° | 18km/h | 30056m | 6.8m/s | -43.9°C | 0.6% | 12.5hPa | 2.6V | 00:00:00 | 00:00:00 | 00:00:00 | |
| DL1XH-15 | 2026-09-05 18:30:51 | 49.18922 | 8.63212 | 131° | 15km/h | 30030m | 5.7m/s | -43.9°C | 2.6% | 12.6hPa | 2.6V | 03:18:31 | 02:01:11 | 00:00:00 | |
| BIOWL1-15 | 2026-09-05 18:30:51 | 49.18919 | 8.63256 | 60° | 20km/h | 30056m | 6.8m/s | -43.9°C | 0% | 12.5hPa | 2.6V | 03:19:00 | 02:01:16 | 00:00:00 | |
| AU51GT2 | 2026-09-05 18:30:49 | 49.18918 | 8.63228 | 103° | 27km/h | 30040m | 3.9m/s | -43.9°C | 0.6% | 12.5hPa | 2.6V | 00:00:00 | 00:00:00 | 00:00:00 | |
| HSKMA3-T | 2026-09-05 18:30:49 | 49.18917 | 8.63238 | 92° | 29km/h | 30044m | 4.7m/s | -43.9°C | 0% | 12.5hPa | 2.6V | 03:19:00 | 02:01:14 | 00:00:00 | |
| DL1XH1-15 | 2026-09-05 18:30:48 | 49.18928 | 8.63218 | 259° | 16km/h | 30014m | 4.8m/s | -44°C | 2.6% | 12.6hPa | 2.6V | 03:18:34 | 02:01:08 | 00:00:00 | |
| DL1XH-west | 2026-09-05 18:30:47 | 49.18920 | 8.63219 | 115° | 22km/h | 30036m | 4.7m/s | -43.9°C | 0% | 12.5hPa | 2.7V | 03:19:00 | 02:01:12 | 00:00:00 | |
| DK7TD | 2026-09-05 18:30:46 | 49.18922 | 8.63213 | 132° | 15km/h | 30030m | 5.7m/s | -43.9°C | 0% | 12.6hPa | 2.6V | 03:19:51 | 02:01:11 | 00:00:00 | |
| BIOWL1-15 | 2026-09-05 18:30:45 | 49.18928 | 8.63230 | 274° | 13km/h | 30004m | 5.4m/s | -44°C | 0% | 12.6hPa | 2.6V | 03:19:00 | 02:01:06 | 00:00:00 | |
| DO3DL | 2026-09-05 18:30:44 | 49.18927 | 8.63212 | 241° | 13km/h | 30019m | 5.5m/s | -43.9°C | 0.6% | 12.6hPa | 2.6V | 03:19:00 | 00:00:00 | 00:00:00 | |
| DF1GD-15 | 2026-09-05 18:30:43 | 49.18927 | 8.63212 | 241° | 13km/h | 30019m | 5.5m/s | -43.9°C | 0.6% | 12.6hPa | 2.6V | 03:19:00 | 00:00:00 | 00:00:00 | |
| DG9SBQ-11 | 2026-09-05 18:30:42 | 49.18928 | 8.63224 | 269° | 16km/h | 30009m | 4.6m/s | -44.0°C | 0.6% | 12.6hPa | 2.6V | 03:19:00 | 00:00:00 | 00:00:00 | |
| DL1XH-15 | 2026-09-05 18:30:41 | 49.18925 | 8.63223 | 77° | 16km/h | 29976m | 4.8m/s | -44°C | 2.6% | 12.6hPa | 2.6V | 03:18:41 | 02:01:01 | 00:00:00 | |
| HSKMA3-T | 2026-09-05 18:30:39 | 49.18927 | 8.63234 | 28° | 4km/h | 29992m | 5.8m/s | -44°C | 0% | 12.6hPa | 2.5V | 03:19:00 | 02:01:04 | 00:00:00 | |
| DL1XH1-15 | 2026-09-05 18:30:38 | 49.18922 | 8.63210 | 57° | 5km/h | 29960m | 5.9m/s | -44°C | 2.6% | 12.7hPa | 2.6V | 03:18:44 | 02:00:58 | 00:00:00 | |
| DM0DOS-11 | 2026-09-05 18:30:37 | 49.18922 | 8.63209 | 312° | 0km/h | 29955m | 5.6m/s | -44°C | 2.6% | 12.7hPa | 2.5V | 03:18:45 | 02:00:57 | 00:00:00 | |
| DL1XH-west | 2026-09-05 18:30:37 | 49.18925 | 8.63228 | 77° | 15km/h | 29981m | 5.1m/s | -44°C | 0% | 12.6hPa | 2.6V | 03:19:00 | 02:01:02 | 00:00:00 | |
| DK7TD | 2026-09-05 18:30:36 | 49.18925 | 8.63222 | 78° | 16km/h | 29976m | 4.8m/s | -44°C | 0% | 12.6hPa | 2.6V | 03:19:51 | 02:01:01 | 00:00:00 | |
| SONCRA | 2026-09-05 18:30:36 | 49.18924 | 8.63217 | 75° | 13km/h | 29972m | 5.2m/s | -44.0°C | 0.6% | 12.7hPa | 2.6V | 00:00:00 | 00:00:00 | 00:00:00 | |
| IW2NTF | 2026-09-05 18:30:35 | 49.18924 | 8.63211 | 179° | 5km/h | 29937m | 6.2m/s | -44°C | 2.7% | 12.7hPa | 2.6V | 03:18:48 | 02:00:54 | 00:00:00 | |
| DL3AQ-11 | 2026-09-05 18:30:34 | 49.18922 | 8.63210 | 57° | 4km/h | 29961m | 5.9m/s | -44.0°C | 0.6% | 12.7hPa | 2.6V | 00:00:00 | 00:00:00 | 00:00:00 | |
| DC4HF-4 | 2026-09-05 18:30:33 | 49.18922 | 8.63209 | 312° | 0km/h | 29955m | 5.6m/s | -44.0°C | 0.6% | 12.7hPa | 2.6V | 00:00:00 | 00:00:00 | 00:00:00 | |
| EDDB2-12 | 2026-09-05 18:30:32 | 49.18922 | 8.63210 | 232° | 2km/h | 29949m | 5.3m/s | -44.0°C | 0.6% | 12.7hPa | 2.6V | 00:00:00 | 00:00:00 | 00:00:00 | |
| DL1XH-15 | 2026-09-05 18:30:31 | 49.18928 | 8.63211 | 200° | 5km/h | 29922m | 5.7m/s | -44°C | 2.7% | 12.7hPa | 2.6V | 03:18:51 | 02:00:51 | 00:00:00 | |
| BIOWL1-15 | 2026-09-05 18:30:30 | 49.18923 | 8.63210 | 207° | 4km/h | 29944m | 5.7m/s | -44°C | 0% | 12.7hPa | 2.6V | 03:19:00 | 02:00:55 | 00:00:00 | |
| DL4BBY-15 | 2026-09-05 18:30:30 | 49.18923 | 8.63210 | 208° | 7km/h | 29944m | 5.6m/s | -45.6°C | 0% | 0hPa | 2.6V | 00:00:00 | 00:00:00 | 00:00:00 | |
| OE5DXL-15 | 2026-09-05 18:30:29 | 49.18923 | 8.63211 | 180° | 9km/h | 29938m | 6.2m/s | -44.0°C | 2.7% | 12.7hPa | 2.6V | 00:00:00 | 00:00:00 | 00:00:00 | |
| DL1XH1-15 | 2026-09-05 18:30:28 | 49.18930 | 8.63215 | 262° | 2km/h | 29905m | 4.5m/s | -44.1°C | 2.7% | 12.8hPa | 2.6V | 03:18:54 | 02:00:48 | 00:00:00 | |
| HSKMA3-T | 2026-09-05 18:30:27 | 49.18927 | 8.63210 | 177° | 5km/h | 29927m | 4.5m/s | -44°C | 0% | 12.8hPa | 2.5V | 03:19:00 | 02:00:52 | 00:00:00 | |
| DL1XH-west | 2026-09-05 18:30:26 | 49.18928 | 8.63211 | 201° | 5km/h | 29922m | 5.7m/s | -44°C | 0% | 12.7hPa | 2.6V | 03:19:00 | 02:00:51 | 00:00:00 | |
| DJ2DS-15 | 2026-09-05 18:30:26 | 49.18928 | 8.63210 | 201° | 7km/h | 29922m | 5.6m/s | -44.0°C | 2.7% | 12.7hPa | 2.6V | 00:00:00 | 02:00:51 | 00:00:00 | |
| DJ2KF-10 | 2026-09-05 18:30:25 | 49.18929 | 8.63212 | 229° | 9km/h | 29916m | 6.4m/s | -44.0°C | 2.7% | 12.7hPa | 2.6V | 00:00:00 | 02:00:50 | 00:00:00 | |
| DM0DOS-11 | 2026-09-05 18:30:24 | 49.18930 | 8.63203 | 97° | 15km/h | 29883m | 4.6m/s | -44.1°C | 2.7% | 12.8hPa | 2.6V | 03:18:58 | 02:00:44 | 00:00:00 | |
| DK7TD | 2026-09-05 18:30:24 | 49.18930 | 8.63214 | 247° | 5km/h | 29910m | 5.2m/s | -44.1°C | 0% | 12.8hPa | 2.6V | 03:19:51 | 02:00:49 | 00:00:00 | |
| BIOWL1-15 | 2026-09-05 18:30:20 | 49.18930 | 8.63208 | 90° | 13km/h | 29888m | 5.5m/s | -44.2°C | 0% | 12.8hPa | 2.6V | 03:19:00 | 02:00:45 | 00:00:00 | |
| DG9SBQ-11 | 2026-09-05 18:30:19 | 49.18930 | 8.63208 | 91° | 13km/h | 29888m | 5.5m/s | -44.2°C | 0.6% | 12.8hPa | 2.6V | 03:19:00 | 00:00:00 | 00:00:00 | |
| DL1XH1-15 | 2026-09-05 18:30:18 | 49.18942 | 8.63190 | 160° | 11km/h | 29851m | 6.2m/s | -44.2°C | 2.7% | 12.9hPa | 2.6V | 03:19:04 | 02:00:38 | 00:00:00 | |
| DL1XH-west | 2026-09-05 18:30:16 | 49.18934 | 8.63192 | 160° | 9km/h | 29867m | 5.4m/s | -44.2°C | 0% | 12.9hPa | 2.6V | 03:19:51 | 02:00:41 | 00:00:00 | |
| DB0NH | 2026-09-05 18:30:15 | 49.18936 | 8.63191 | 174° | 11km/h | 29862m | 4.9m/s | -44.1°C | 2.7% | 12.8hPa | 2.6V | 00:00:00 | 02:00:40 | 00:00:00 | |
| DM0DOS-11 | 2026-09-05 18:30:14 | 49.18949 | 8.63181 | 146° | 4km/h | 29830m | 5.4m/s | -44.2°C | 2.7% | 12.9hPa | 2.6V | 03:19:08 | 02:00:34 | 00:00:00 | |
| DK7TD | 2026-09-05 18:30:13 | 49.18942 | 8.63190 | 161° | 11km/h | 29851m | 6.2m/s | -44.2°C | 0% | 12.9hPa | 2.6V | 03:19:51 | 02:00:38 | 00:00:00 | |
| BIOWL1-15 | 2026-09-05 18:30:09 | 49.18949 | 8.63181 | 147° | 5km/h | 29830m | 5.4m/s | -44.2°C | 0% | 12.9hPa | 2.6V | 03:19:51 | 02:00:34 | 00:00:00 | |
| DF3TZ-5 | 2026-09-05 18:30:09 | 49.18950 | 8.63181 | 194° | 2km/h | 29825m | 6.4m/s | -44.2°C | 0.6% | 12.9hPa | 2.7V | 00:00:00 | 00:00:00 | 00:00:00 | |
| DL1XH1-15 | 2026-09-05 18:30:08 | 49.18948 | 8.63177 | 81° | 13km/h | 29799m | 5.5m/s | -44.2°C | 2.7% | 13hPa | 2.7V | 03:19:14 | 02:00:28 | 00:00:00 | |
| DL1XH-west | 2026-09-05 18:30:06 | 49.18950 | 8.63183 | 305° | 2km/h | 29814m | 4.3m/s | -44.2°C | 0% | 13hPa | 2.6V | 03:19:51 | 02:00:31 | 00:00:00 | |
| HSKMA3-T | 2026-09-05 18:30:05 | 49.18950 | 8.63183 | 32° | 4km/h | 29809m | 4.6m/s | -44.2°C | 0% | 13hPa | 2.6V | 03:19:51 | 02:00:30 | 00:00:00 | |
| DK7TD | 2026-09-05 18:30:01 | 49.18949 | 8.63164 | 106° | 18km/h | 29789m | 4.5m/s | -44.3°C | 0% | 13hPa | 2.6V | 03:19:51 | 02:00:26 | 00:00:00 | |
| BIOWL1-15 | 2026-09-05 18:30:01 | 49.18953 | 8.63153 | 136° | 16km/h | 29778m | 6.1m/s | -44.3°C | 0% | 13hPa | 2.6V | 03:19:51 | 02:00:24 | 00:00:00 | |
| DL1XH-west | 2026-09-05 18:29:55 | 49.18959 | 8.63147 | 32° | 5km/h | 29757m | 6.1m/s | -44.2°C | 0% | 13.1hPa | 2.5V | 03:19:51 | 02:00:20 | 00:00:00 | |
| DK7TD | 2026-09-05 18:29:51 | 49.18945 | 8.63138 | 18° | 18km/h | 29737m | 4.9m/s | -44.2°C | 0% | 13.1hPa | 2.6V | 03:19:51 | 02:00:16 | 00:00:00 | |
| BIOWL1-15 | 2026-09-05 18:29:49 | 49.18938 | 8.63135 | 15° | 9km/h | 29726m | 5.6m/s | -44.2°C | 0% | 13.1hPa | 2.6V | 03:19:51 | 02:00:14 | 00:00:00 | |
| DL1XH-15 | 2026-09-05 18:29:47 | 49.18940 | 8.63117 | 136° | 7km/h | 29688m | 6.3m/s | -44.4°C | 2.6% | 13.2hPa | 2.6V | 03:19:35 | 02:00:07 | 00:00:00 | |
| AU51GT2 | 2026-09-05 18:29:47 | 49.18936 | 8.63130 | 102° | 5km/h | 29710m | 6.4m/s | -44.3°C | 0.6% | 13.2hPa | 2.6V | 00:00:00 | 00:00:00 | 00:00:00 | |
| DF7PN | 2026-09-05 18:29:45 | 49.18937 | 8.63127 | 106° | 9km/h | 29704m | 5.8m/s | -44.3°C | 0.6% | 13.2hPa | 2.6V | 00:00:00 | 00:00:00 | 00:00:00 | |
| DL1XH-west | 2026-09-05 18:29:44 | 49.18938 | 8.63123 | 112° | 11km/h | 29699m | 5.1m/s | -44.4°C | 0% | 13.2hPa | 2.6V | 03:19:51 | 02:00:09 | 00:00:00 | |
| BIOWL1-15 | 2026-09-05 18:29:42 | 49.18939 | 8.63113 | 22° | 13km/h | 29666m | 6.7m/s | -44.6°C | 0% | 13.2hPa | 2.7V | 03:19:51 | 02:00:03 | 00:00:00 | |
| DK7TD | 2026-09-05 18:29:41 | 49.18942 | 8.63116 | 148° | 5km/h | 29682m | 5.2m/s | -44.5°C | 0% | 13.2hPa | 2.5V | 03:19:51 | 02:00:06 | 00:00:00 | |
| DL3AQ-11 | 2026-09-05 18:29:41 | 49.18942 | 8.63115 | 88° | 0km/h | 29677m | 4.7m/s | -44.5°C | 0.6% | 13.2hPa | 2.6V | 00:00:00 | 00:00:00 | 00:00:00 | |
| DO8TBO-1 | 2026-09-05 18:29:40 | 49.18942 | 8.63115 | 89° | 13km/h | 29677m | 4.7m/s | -44.4°C | 2.6% | 13.2hPa | 2.6V | 03:19:00 | 02:00:05 | 00:00:00 | |
| DL1XH1-15 | 2026-09-05 18:29:38 | 49.18924 | 8.63100 | 61° | 4km/h | 29639m | 6.3m/s | -44.8°C | 2.7% | 13.3hPa | 2.6V | 03:19:44 | 01:59:58 | 00:00:00 | |
| DL1XH-west | 2026-09-05 18:29:34 | 49.18925 | 8.63102 | 34° | 11km/h | 29645m | 5.5m/s | -44.8°C | 0% | 13.3hPa | 2.6V | 03:19:51 | 01:59:59 | 00:00:00 | |
| HSKMA3-T | 2026-09-05 18:29:31 | 49.18925 | 8.63099 | 172° | 9km/h | 29628m | 5.1m/s | -44.9°C | 0% | 13.3hPa | 2.7V | 03:19:51 | 01:59:56 | 00:00:00 | |
| DK7TD | 2026-09-05 18:29:30 | 49.18927 | 8.63098 | 164° | 9km/h | 29623m | 5.7m/s | -44.9°C | 0% | 13.3hPa | 2.7V | 03:19:51 | 01:59:55 | 00:00:00 | |
| DM0DOS-11 | 2026-09-05 18:29:30 | 49.18923 | 8.63095 | 343° | 15km/h | 29595m | 6.4m/s | -45.1°C | 2.7% | 13.4hPa | 2.6V | 03:19:52 | 01:59:50 | 00:00:00 | |
| BIOWL1-15 | 2026-09-05 18:29:28 | 49.18929 | 8.63096 | 77° | 4km/h | 29611m | 5.1m/s | -45°C | 0% | 13.4hPa | 2.5V | 03:19:51 | 01:59:53 | 00:00:00 | |
| DL1XH-west | 2026-09-05 18:29:24 | 49.18919 | 8.63097 | 335° | 20km/h | 29589m | 6.2m/s | -45.1°C | 0% | 13.4hPa | 2.6V | 03:20:42 | 01:59:49 | 00:00:00 | |
| BIOWL1-15 | 2026-09-05 18:29:23 | 49.18887 | 8.63103 | 42° | 7km/h | 29552m | 6.2m/s | -45.3°C | 0% | 13.5hPa | 2.6V | 03:20:42 | 01:59:42 | 00:00:00 | |
| DO1YAY-16 | 2026-09-05 18:29:23 | 49.18914 | 8.63101 | 333° | 22km/h | 29584m | 5.1m/s | -45.1°C | 0.7% | 13.4hPa | 2.6V | 00:00:00 | 00:00:00 | 00:00:00 | |
| DO3DL | 2026-09-05 18:29:22 | 49.18914 | 8.63101 | 334° | 22km/h | 29584m | 5.1m/s | -45.1°C | 0.7% | 13.4hPa | 2.6V | 03:20:00 | 00:00:00 | 00:00:00 | |
| DD1CC8 | 2026-09-05 18:29:21 | 49.18897 | 8.63108 | 1° | 20km/h | 29567m | 5.9m/s | -45.2°C | 0.7% | 13.4hPa | 2.6V | 00:00:00 | 00:00:00 | 00:00:00 | |
| DM0DOS-11 | 2026-09-05 18:29:20 | 49.18886 | 8.63100 | 158° | 4km/h | 29539m | 5.3m/s | -45.3°C | 2.8% | 13.5hPa | 2.6V | 03:20:02 | 01:59:40 | 00:00:00 | |
| HSKMA3-T | 2026-09-05 18:29:20 | 49.18897 | 8.63108 | 1° | 22km/h | 29567m | 5.9m/s | -45.2°C | 0% | 13.4hPa | 2.7V | 03:24:57 | 01:59:45 | 00:00:00 | |
| DK7TD | 2026-09-05 18:29:19 | 49.18892 | 8.63107 | 13° | 18km/h | 29562m | 4.9m/s | -45.2°C | 0% | 13.5hPa | 2.6V | 03:20:42 | 01:59:44 | 00:00:00 | |
| DL1ZP-14 | 2026-09-05 18:29:19 | 49.18892 | 8.63107 | 13° | 16km/h | 29562m | 4.9m/s | -45.2°C | 0.6% | 13.5hPa | 2.6V | 00:00:00 | 00:00:00 | 00:00:00 | |
| DL1XH1-15 | 2026-09-05 18:29:18 | 49.18888 | 8.63099 | 112° | 4km/h | 29529m | 5.6m/s | -45.4°C | 2.8% | 13.5hPa | 2.5V | 03:20:04 | 01:59:38 | 00:00:00 | |
| DL1XH-west | 2026-09-05 18:29:13 | 49.18888 | 8.63099 | 113° | 4km/h | 29529m | 5.6m/s | -45.4°C | 0% | 13.5hPa | 2.5V | 03:20:42 | 01:59:38 | 00:00:00 | |
| DG9SBQ-11 | 2026-09-05 18:29:11 | 49.18887 | 8.63097 | 57° | 5km/h | 29524m | 6.1m/s | -45.5°C | 0.6% | 13.5hPa | 2.6V | 03:20:00 | 00:00:00 | 00:00:00 | |
| DM0DOS-11 | 2026-09-05 18:29:10 | 49.18856 | 8.63102 | 349° | 22km/h | 29484m | 5.3m/s | -45.6°C | 2.8% | 13.6hPa | 2.6V | 03:20:12 | 01:59:30 | 00:00:00 | |
| HSKMA3-T | 2026-09-05 18:29:09 | 49.18878 | 8.63093 | 357° | 18km/h | 29506m | 6.6m/s | -45.5°C | 0% | 13.6hPa | 2.5V | 03:24:57 | 01:59:34 | 00:00:00 | |
| DM7RM-13 | 2026-09-05 18:29:09 | 49.18879 | 8.63093 | 358° | 18km/h | 29507m | 6.6m/s | -45.5°C | 0.7% | 13.6hPa | 2.5V | 03:20:00 | 00:00:00 | 00:00:00 | |
| DL1XH1-15 | 2026-09-05 18:29:08 | 49.18847 | 8.63102 | 21° | 15km/h | 29473m | 5m/s | -45.6°C | 2.8% | 13.7hPa | 2.5V | 03:20:14 | 01:59:28 | 00:00:00 | |
| DK7TD | 2026-09-05 18:29:08 | 49.18873 | 8.63095 | 346° | 22km/h | 29500m | 6.5m/s | -45.5°C | 0% | 13.6hPa | 2.6V | 03:20:42 | 01:59:33 | 00:00:00 | |
| DL1XH-15 | 2026-09-05 18:29:07 | 49.18844 | 8.63099 | 44° | 11km/h | 29469m | 4.3m/s | -45.7°C | 2.8% | 13.7hPa | 2.5V | 03:20:15 | 01:59:27 | 00:00:00 | |
| BIOWL1-15 | 2026-09-05 18:29:07 | 49.18868 | 8.63097 | 341° | 26km/h | 29494m | 5.1m/s | -45.5°C | 0% | 13.6hPa | 2.6V | 03:20:42 | 01:59:32 | 00:00:00 | |
| DL1XH-west | 2026-09-05 18:29:02 | 49.18844 | 8.63099 | 45° | 11km/h | 29469m | 4.3m/s | -45.7°C | 0% | 13.7hPa | 2.5V | 03:20:42 | 01:59:27 | 00:00:00 | |
| NBG1-10 | 2026-09-05 18:29:01 | 49.18843 | 8.63097 | 79° | 5km/h | 29464m | 5.2m/s | -45.7°C | 2.8% | 13.6hPa | 2.6V | 00:00:00 | 01:59:26 | 00:00:00 | |
| DM0DOS-11 | 2026-09-05 18:29:00 | 49.18850 | 8.63099 | 25° | 2km/h | 29429m | 6.1m/s | -45.9°C | 2.8% | 13.7hPa | 2.6V | 03:20:22 | 01:59:20 | 00:00:00 | |
| EDDB2-12 | 2026-09-05 18:28:59 | 49.18846 | 8.63096 | 206° | 9km/h | 29446m | 5.2m/s | -45.8°C | 0.7% | 13.7hPa | 2.7V | 00:00:00 | 00:00:00 | 00:00:00 | |
| DL1XH1-15 | 2026-09-05 18:28:58 | 49.18847 | 8.63099 | 3° | 9km/h | 29418m | 5.3m/s | -46°C | 2.8% | 13.8hPa | 2.7V | 03:20:24 | 01:59:18 | 00:00:00 | |
| DL1XH-15 | 2026-09-05 18:28:57 | 49.18845 | 8.63099 | 346° | 11km/h | 29412m | 6.6m/s | -46°C | 2.9% | 13.8hPa | 2.6V | 03:20:25 | 01:59:17 | 00:00:00 | |
| DK7TD | 2026-09-05 18:28:57 | 49.18848 | 8.63098 | 212° | 7km/h | 29441m | 4.7m/s | -45.9°C | 0% | 13.7hPa | 2.6V | 03:20:42 | 01:59:22 | 00:00:00 | |
| BIOWL1-15 | 2026-09-05 18:28:56 | 49.18850 | 8.63099 | 211° | 4km/h | 29435m | 6m/s | -45.9°C | 0% | 13.7hPa | 2.5V | 03:20:42 | 01:59:21 | 00:00:00 | |
| DO1YAY-16 | 2026-09-05 18:28:52 | 49.18845 | 8.63099 | 346° | 9km/h | 29412m | 6.6m/s | -46.0°C | 0.7% | 13.8hPa | 2.6V | 00:00:00 | 00:00:00 | 00:00:00 | |
| DL1XH-west | 2026-09-05 18:28:52 | 49.18845 | 8.63099 | 347° | 11km/h | 29412m | 6.6m/s | -46°C | 0% | 13.8hPa | 2.6V | 03:20:42 | 01:59:17 | 00:00:00 | |
| DD1CC8 | 2026-09-05 18:28:50 | 49.18837 | 8.63105 | 334° | 11km/h | 29395m | 5.2m/s | -46.1°C | 0.7% | 13.8hPa | 2.6V | 00:00:00 | 00:00:00 | 00:00:00 | |
| DL1ZP-14 | 2026-09-05 18:28:48 | 49.18834 | 8.63106 | 350° | 9km/h | 29389m | 6.4m/s | -46.1°C | 0.7% | 13.8hPa | 2.6V | 00:00:00 | 00:00:00 | 00:00:00 | |
| DL1XH-15 | 2026-09-05 18:28:47 | 49.18831 | 8.63105 | 216° | 9km/h | 29353m | 5.8m/s | -46.2°C | 2.9% | 13.9hPa | 2.5V | 03:20:35 | 01:59:07 | 00:00:00 | |
| BIOWL1-15 | 2026-09-05 18:28:46 | 49.18830 | 8.63105 | 38° | 7km/h | 29377m | 4.8m/s | -46.1°C | 0% | 13.8hPa | 2.6V | 03:20:42 | 01:59:11 | 00:00:00 | |
| DL1XH-west | 2026-09-05 18:28:42 | 49.18831 | 8.63106 | 217° | 9km/h | 29354m | 5.8m/s | -46.2°C | 0% | 13.9hPa | 2.5V | 03:20:42 | 01:59:07 | 00:00:00 | |
| HSKMA3-T | 2026-09-05 18:28:39 | 49.18835 | 8.63109 | 150° | 2km/h | 29336m | 6.3m/s | -46.2°C | 0% | 13.9hPa | 2.6V | 03:24:57 | 01:59:04 | 00:00:00 | |
| DB0NH | 2026-09-05 18:28:39 | 49.18835 | 8.63109 | 151° | 7km/h | 29336m | 6.2m/s | -46.1°C | 2.9% | 13.9hPa | 2.6V | 00:00:00 | 01:59:04 | 00:00:00 | |
| DL1XH1-15 | 2026-09-05 18:28:38 | 49.18834 | 8.63110 | 267° | 5km/h | 29301m | 6m/s | -46.4°C | 2.9% | 14hPa | 2.6V | 03:20:44 | 01:58:58 | 00:00:00 | |
| DL1XH-15 | 2026-09-05 18:28:37 | 49.18834 | 8.63112 | 273° | 5km/h | 29295m | 6.1m/s | -46.4°C | 2.9% | 14hPa | 2.6V | 03:20:45 | 01:58:57 | 00:00:00 | |
| DK7TD | 2026-09-05 18:28:35 | 49.18834 | 8.63106 | 306° | 2km/h | 29314m | 6.6m/s | -46.4°C | 0% | 13.9hPa | 2.6V | 03:20:42 | 01:59:00 | 00:00:00 | |
| DL1XH-west | 2026-09-05 18:28:31 | 49.18834 | 8.63114 | 288° | 4km/h | 29289m | 6.7m/s | -46.4°C | 0% | 14hPa | 2.5V | 03:21:33 | 01:58:56 | 00:00:00 | |
| DL4BBY-15 | 2026-09-05 18:28:30 | 49.18833 | 8.63116 | 303° | 13km/h | 29283m | 5.2m/s | -48.0°C | 0% | 0hPa | 2.6V | 00:00:00 | 00:00:00 | 00:00:00 | |
| OE5DXL-15 | 2026-09-05 18:28:29 | 49.18832 | 8.63117 | 283° | 13km/h | 29278m | 4.3m/s | -46.4°C | 2.9% | 14.0hPa | 2.6V | 00:00:00 | 00:00:00 | 00:00:00 | |
| DL1XH1-15 | 2026-09-05 18:28:28 | 49.18838 | 8.63144 | 237° | 9km/h | 29243m | 6.6m/s | -46.5°C | 2.9% | 14.1hPa | 2.6V | 03:20:54 | 01:58:48 | 00:00:00 | |
| HSKMA3-T | 2026-09-05 18:28:28 | 49.18832 | 8.63120 | 268° | 9km/h | 29273m | 5.4m/s | -46.4°C | 0% | 14.1hPa | 2.6V | 03:24:57 | 01:58:53 | 00:00:00 | |
| EDDB2-12 | 2026-09-05 18:28:28 | 49.18833 | 8.63124 | 260° | 11km/h | 29267m | 7.1m/s | -46.4°C | 0.7% | 14.1hPa | 2.6V | 00:00:00 | 00:00:00 | 00:00:00 | |
| DL1XH-15 | 2026-09-05 18:28:27 | 49.18839 | 8.63146 | 210° | 5km/h | 29236m | 6m/s | -46.5°C | 2.9% | 14.2hPa | 2.6V | 03:20:55 | 01:58:47 | 00:00:00 | |
| BIOWL1-15 | 2026-09-05 18:28:25 | 49.18835 | 8.63136 | 249° | 16km/h | 29254m | 5.2m/s | -46.4°C | 0% | 14.1hPa | 2.6V | 03:21:33 | 01:58:50 | 00:00:00 | |
| DK7TD | 2026-09-05 18:28:24 | 49.18836 | 8.63141 | 244° | 13km/h | 29249m | 5.3m/s | -46.4°C | 0% | 14.1hPa | 2.6V | 03:21:33 | 01:58:49 | 00:00:00 | |
| DL1XH-west | 2026-09-05 18:28:21 | 49.18840 | 8.63147 | 178° | 5km/h | 29231m | 5.4m/s | -46.6°C | 0% | 14.2hPa | 2.7V | 03:21:33 | 01:58:46 | 00:00:00 | |
| DL3AQ-11 | 2026-09-05 18:28:21 | 49.18841 | 8.63147 | 176° | 5km/h | 29225m | 6.0m/s | -46.8°C | 0.7% | 14.2hPa | 2.6V | 00:00:00 | 00:00:00 | 00:00:00 | |
| DD1CC8 | 2026-09-05 18:28:19 | 49.18846 | 8.63148 | 198° | 13km/h | 29212m | 5.9m/s | -47.0°C | 0.7% | 14.2hPa | 2.6V | 00:00:00 | 00:00:00 | 00:00:00 | |
| DL1XH1-15 | 2026-09-05 18:28:18 | 49.18860 | 8.63155 | 196° | 4km/h | 29184m | 5.5m/s | -47°C | 3% | 14.3hPa | 2.6V | 03:21:04 | 01:58:38 | 00:00:00 | |
| DM0DOS-11 | 2026-09-05 18:28:17 | 49.18860 | 8.63156 | 252° | 4km/h | 29178m | 5.2m/s | -47.1°C | 3.1% | 14.3hPa | 2.7V | 03:21:05 | 01:58:37 | 00:00:00 | |
| BIOWL1-15 | 2026-09-05 18:28:14 | 49.18858 | 8.63154 | 190° | 7km/h | 29189m | 6.2m/s | -47°C | 0% | 14.2hPa | 2.6V | 03:21:33 | 01:58:39 | 00:00:00 | |
| HSKMA3-T | 2026-09-05 18:28:11 | 49.18861 | 8.63158 | 266° | 7km/h | 29173m | 6.3m/s | -47.1°C | 0% | 14.3hPa | 2.6V | 03:24:57 | 01:58:36 | 00:00:00 | |
| DL1XH-west | 2026-09-05 18:28:10 | 49.18861 | 8.63162 | 264° | 13km/h | 29166m | 6.9m/s | -47.1°C | 0% | 14.3hPa | 2.6V | 03:21:33 | 01:58:35 | 00:00:00 | |
| AZAK | 2026-09-05 18:28:10 | 49.18860 | 8.63162 | 265° | 13km/h | 29166m | 6.9m/s | -47.1°C | 0.7% | 14.3hPa | 2.7V | 03:21:00 | 00:00:00 | 00:00:00 | |
| DB0NH | 2026-09-05 18:28:09 | 49.18861 | 8.63167 | 259° | 18km/h | 29160m | 6.0m/s | -47.0°C | 3.1% | 14.2hPa | 2.7V | 00:00:00 | 01:58:34 | 00:00:00 | |
| DO3DL | 2026-09-05 18:28:08 | 49.18861 | 8.63167 | 260° | 16km/h | 29160m | 6.1m/s | -47.1°C | 0.7% | 14.3hPa | 2.7V | 03:21:00 | 00:00:00 | 00:00:00 | |
| DM0DOS-11 | 2026-09-05 18:28:07 | 49.18884 | 8.63177 | 158° | 20km/h | 29119m | 5.2m/s | -47°C | 3.1% | 14.4hPa | 2.7V | 03:21:15 | 01:58:27 | 00:00:00 | |
| DL1XH-15 | 2026-09-05 18:28:06 | 49.18888 | 8.63175 | 173° | 18km/h | 29114m | 6.5m/s | -47°C | 3.1% | 14.4hPa | 2.7V | 03:21:16 | 01:58:26 | 00:00:00 | |
| BIOWL1-15 | 2026-09-05 18:28:04 | 49.18875 | 8.63183 | 158° | 18km/h | 29130m | 6.1m/s | -47°C | 0% | 14.3hPa | 2.6V | 03:21:33 | 01:58:29 | 00:00:00 | |
| DK7TD | 2026-09-05 18:28:03 | 49.18879 | 8.63180 | 153° | 20km/h | 29125m | 5.2m/s | -47°C | 0% | 14.4hPa | 2.6V | 03:21:33 | 01:58:28 | 00:00:00 | |
| HSKMA3-T | 2026-09-05 18:28:00 | 49.18892 | 8.63176 | 200° | 16km/h | 29107m | 6.2m/s | -47°C | 0.1% | 14.4hPa | 2.6V | 03:24:57 | 01:58:25 | 00:00:00 | |
| DL4BBY-15 | 2026-09-05 18:28:00 | 49.18892 | 8.63176 | 200° | 18km/h | 29108m | 6.1m/s | -48.6°C | 0% | 0hPa | 2.6V | 00:00:00 | 00:00:00 | 00:00:00 | |
| OE5DXL-15 | 2026-09-05 18:27:59 | 49.18896 | 8.63179 | 224° | 18km/h | 29102m | 5.7m/s | -46.9°C | 3.1% | 14.4hPa | 2.6V | 00:00:00 | 00:00:00 | 00:00:00 | |
| DL1XH-west | 2026-09-05 18:27:59 | 49.18896 | 8.63179 | 224° | 16km/h | 29101m | 5.7m/s | -47°C | 0.1% | 14.4hPa | 2.5V | 03:21:33 | 01:58:24 | 00:00:00 | |
| DL1XH1-15 | 2026-09-05 18:27:58 | 49.18904 | 8.63206 | 226° | 9km/h | 29066m | 5.9m/s | -46.9°C | 3.1% | 14.5hPa | 2.6V | 03:21:24 | 01:58:18 | 00:00:00 | |
| EDDB2-12 | 2026-09-05 18:27:57 | 49.18902 | 8.63195 | 255° | 13km/h | 29084m | 6.7m/s | -46.9°C | 0.7% | 14.5hPa | 2.6V | 00:00:00 | 00:00:00 | 00:00:00 | |
| DL1XH-15 | 2026-09-05 18:27:56 | 49.18910 | 8.63210 | 200° | 16km/h | 29053m | 5.9m/s | -46.8°C | 3.1% | 14.5hPa | 2.6V | 03:21:26 | 01:58:16 | 00:00:00 | |
| BIOWL1-15 | 2026-09-05 18:27:54 | 49.18903 | 8.63203 | 245° | 7km/h | 29072m | 5.5m/s | -46.9°C | 0% | 14.5hPa | 2.6V | 03:21:33 | 01:58:19 | 00:00:00 | |
| DK7TD | 2026-09-05 18:27:53 | 49.18904 | 8.63206 | 226° | 9km/h | 29066m | 5.9m/s | -46.9°C | 0% | 14.5hPa | 2.6V | 03:21:33 | 01:58:18 | 00:00:00 | |
| DO1YAY-16 | 2026-09-05 18:27:50 | 49.18920 | 8.63213 | 179° | 22km/h | 29042m | 5.9m/s | -46.8°C | 0.7% | 14.6hPa | 2.6V | 00:00:00 | 00:00:00 | 00:00:00 | |
| DL1XH1-15 | 2026-09-05 18:27:48 | 49.18951 | 8.63214 | 223° | 22km/h | 29007m | 6.8m/s | -46.7°C | 3% | 14.6hPa | 2.6V | 03:21:34 | 01:58:08 | 00:00:00 | |
| DL1XH-west | 2026-09-05 18:27:48 | 49.18926 | 8.63212 | 170° | 24km/h | 29036m | 6.9m/s | -46.7°C | 0% | 14.6hPa | 2.6V | 03:21:33 | 01:58:13 | 00:00:00 | |
| DB0UT-7 | 2026-09-05 18:27:47 | 49.18931 | 8.63210 | 166° | 18km/h | 29030m | 5.6m/s | -46.7°C | 3.0% | 14.5hPa | 2.6V | 03:21:00 | 01:58:12 | 00:00:00 | |
| DL1XH-15 | 2026-09-05 18:27:46 | 49.18957 | 8.63229 | 248° | 22km/h | 28995m | 5.5m/s | -46.7°C | 3% | 14.7hPa | 2.6V | 03:21:36 | 01:58:06 | 00:00:00 | |
| IW2NTF | 2026-09-05 18:27:46 | 49.18959 | 8.63236 | 252° | 18km/h | 28989m | 6.2m/s | -46.7°C | 3% | 14.7hPa | 2.6V | 03:21:37 | 01:58:05 | 00:00:00 | |
| BIOWL1-15 | 2026-09-05 18:27:45 | 49.18951 | 8.63214 | 223° | 22km/h | 29007m | 6.8m/s | -46.7°C | 0% | 14.6hPa | 2.6V | 03:22:24 | 01:58:08 | 00:00:00 | |
| DK7TD | 2026-09-05 18:27:42 | 49.18955 | 8.63221 | 238° | 24km/h | 29000m | 5.8m/s | -46.7°C | 0% | 14.7hPa | 2.5V | 03:22:24 | 01:58:07 | 00:00:00 | |
| DL3AQ-11 | 2026-09-05 18:27:41 | 49.18959 | 8.63236 | 252° | 16km/h | 28989m | 6.2m/s | -46.7°C | 0.7% | 14.7hPa | 2.6V | 00:00:00 | 00:00:00 | 00:00:00 | |
| DB0NH | 2026-09-05 18:27:39 | 49.18960 | 8.63242 | 254° | 18km/h | 28983m | 6.1m/s | -46.7°C | 3.0% | 14.6hPa | 2.6V | 03:21:00 | 01:58:04 | 00:00:00 | |
| DG9SBQ-11 | 2026-09-05 18:27:38 | 49.18960 | 8.63242 | 254° | 13km/h | 28983m | 6.2m/s | -46.7°C | 0.7% | 14.7hPa | 2.6V | 03:22:00 | 00:00:00 | 00:00:00 | |
| DM0DOS-11 | 2026-09-05 18:27:37 | 49.18989 | 8.63250 | 186° | 27km/h | 28943m | 5.1m/s | -46.6°C | 3% | 14.8hPa | 2.6V | 03:21:45 | 01:57:57 | 00:00:00 | |
| DL1XH-west | 2026-09-05 18:27:37 | 49.18963 | 8.63246 | 192° | 9km/h | 28972m | 5.1m/s | -46.7°C | 0% | 14.7hPa | 2.5V | 03:22:24 | 01:58:02 | 00:00:00 | |
| BIOWL1-15 | 2026-09-05 18:27:33 | 49.18982 | 8.63249 | 188° | 29km/h | 28948m | 5.5m/s | -46.7°C | 0% | 14.8hPa | 2.5V | 03:22:24 | 01:57:58 | 00:00:00 | |
| DG9SBQ-11 | 2026-09-05 18:27:33 | 49.18982 | 8.63249 | 189° | 29km/h | 28948m | 5.5m/s | -46.7°C | 0.7% | 14.8hPa | 2.7V | 03:22:00 | 00:00:00 | 00:00:00 | |
| DK7TD | 2026-09-05 18:27:33 | 49.18989 | 8.63250 | 187° | 27km/h | 28943m | 5.1m/s | -46.7°C | 0% | 14.8hPa | 2.6V | 03:22:24 | 01:57:57 | 00:00:00 | |
| DB0UT-9 | 2026-09-05 18:27:31 | 49.18995 | 8.63251 | 184° | 26km/h | 28938m | 5.8m/s | -46.7°C | 0.7% | 14.8hPa | 2.7V | 03:22:00 | 00:00:00 | 00:00:00 | |
| DL4BBY-15 | 2026-09-05 18:27:30 | 49.19001 | 8.63251 | 180° | 18km/h | 28931m | 6.6m/s | -48.2°C | 0% | 0hPa | 2.7V | 00:00:00 | 00:00:00 | 00:00:00 | |
| OE5DXL-15 | 2026-09-05 18:27:29 | 49.19006 | 8.63251 | 180° | 11km/h | 28925m | 5.8m/s | -46.6°C | 3.0% | 14.8hPa | 2.7V | 03:21:00 | 00:00:00 | 00:00:00 | |
| DL1XH1-15 | 2026-09-05 18:27:28 | 49.19027 | 8.63269 | 207° | 16km/h | 28890m | 5.4m/s | -46.6°C | 3% | 14.9hPa | 2.7V | 03:21:54 | 01:57:48 | 00:00:00 | |
| DJ2DS-15 | 2026-09-05 18:27:28 | 49.19014 | 8.63253 | 205° | 13km/h | 28913m | 6.4m/s | -46.6°C | 0.7% | 14.8hPa | 2.6V | 00:00:00 | 00:00:00 | 00:00:00 | |
| DM0DOS-11 | 2026-09-05 18:27:27 | 49.19030 | 8.63271 | 188° | 15km/h | 28884m | 6.8m/s | -46.6°C | 3% | 14.9hPa | 2.6V | 03:21:55 | 01:57:47 | 00:00:00 | |
| DL1XH-west | 2026-09-05 18:27:27 | 49.19014 | 8.63253 | 206° | 15km/h | 28913m | 6.4m/s | -46.6°C | 0% | 14.8hPa | 2.5V | 03:22:24 | 01:57:52 | 00:00:00 | |
| BIOWL1-15 | 2026-09-05 18:27:22 | 49.19031 | 8.63271 | 189° | 15km/h | 28884m | 6.8m/s | -46.6°C | 0% | 14.9hPa | 2.6V | 03:22:24 | 01:57:47 | 00:00:00 | |
| DK7TD | 2026-09-05 18:27:21 | 49.19034 | 8.63271 | 167° | 16km/h | 28877m | 6.3m/s | -46.6°C | 0% | 14.9hPa | 2.6V | 03:22:24 | 01:57:46 | 00:00:00 | |
| DO1YAY-16 | 2026-09-05 18:27:19 | 49.19050 | 8.63264 | 172° | 26km/h | 28861m | 6.2m/s | -46.6°C | 0.7% | 15.0hPa | 2.5V | 00:00:00 | 00:00:00 | 00:00:00 | |
| DL1XH1-15 | 2026-09-05 18:27:18 | 49.19080 | 8.63275 | 205° | 16km/h | 28833m | 6.7m/s | -46.6°C | 3% | 15hPa | 2.5V | 03:22:04 | 01:57:38 | 00:00:00 | |
| HSKMA3-T | 2026-09-05 18:27:18 | 49.19050 | 8.63264 | 172° | 26km/h | 28860m | 6.2m/s | -46.6°C | 0% | 15hPa | 2.6V | 03:24:57 | 01:57:43 | 00:00:00 | |
| DM0DOS-11 | 2026-09-05 18:27:17 | 49.19083 | 8.63277 | 202° | 11km/h | 28826m | 6.4m/s | -46.6°C | 3% | 15.1hPa | 2.6V | 03:22:05 | 01:57:37 | 00:00:00 | |
| DB0UT-7 | 2026-09-05 18:27:17 | 49.19057 | 8.63264 | 184° | 18km/h | 28855m | 6.2m/s | -46.5°C | 3.0% | 14.9hPa | 2.6V | 00:00:00 | 00:00:00 | 00:00:00 | |
| DL1XH-15 | 2026-09-05 18:27:16 | 49.19085 | 8.63278 | 200° | 7km/h | 28820m | 5.9m/s | -46.6°C | 3% | 15.1hPa | 2.6V | 03:22:06 | 01:57:36 | 00:00:00 | |
| DL1XH-west | 2026-09-05 18:27:16 | 49.19064 | 8.63265 | 193° | 27km/h | 28848m | 5.1m/s | -46.6°C | 0% | 15hPa | 2.7V | 03:22:24 | 01:57:41 | 00:00:00 | |
| BIOWL1-15 | 2026-09-05 18:27:11 | 49.19085 | 8.63278 | 201° | 7km/h | 28820m | 5.9m/s | -46.6°C | 0% | 15.1hPa | 2.6V | 03:22:24 | 01:57:36 | 00:00:00 | |
| DK7TD | 2026-09-05 18:27:10 | 49.19087 | 8.63279 | 198° | 7km/h | 28814m | 5.5m/s | -46.6°C | 0% | 15.1hPa | 2.7V | 03:22:24 | 01:57:35 | 00:00:00 | |
| DF7PN | 2026-09-05 18:27:10 | 49.19089 | 8.63280 | 198° | 9km/h | 28808m | 6.5m/s | -46.6°C | 0.7% | 15.1hPa | 2.6V | 00:00:00 | 00:00:00 | 00:00:00 | |
| DB0NH | 2026-09-05 18:27:09 | 49.19089 | 8.63280 | 199° | 18km/h | 28808m | 6.4m/s | -46.5°C | 3.0% | 15.0hPa | 2.6V | 00:00:00 | 01:57:34 | 00:00:00 | |
| DL1XH1-15 | 2026-09-05 18:27:08 | 49.19114 | 8.63277 | 161° | 20km/h | 28774m | 5m/s | -46.5°C | 2.9% | 15.2hPa | 2.6V | 03:22:14 | 01:57:28 | 00:00:00 | |
| DM0DOS-11 | 2026-09-05 18:27:07 | 49.19118 | 8.63275 | 169° | 20km/h | 28769m | 4.7m/s | -46.5°C | 2.9% | 15.2hPa | 2.5V | 03:22:15 | 01:57:27 | 00:00:00 | |
| DL1XH-15 | 2026-09-05 18:27:06 | 49.19123 | 8.63274 | 180° | 20km/h | 28763m | 6.4m/s | -46.5°C | 2.9% | 15.2hPa | 2.5V | 03:22:16 | 01:57:26 | 00:00:00 | |
| DL1XH-west | 2026-09-05 18:27:06 | 49.19099 | 8.63282 | 178° | 18km/h | 28791m | 5m/s | -46.5°C | 0% | 15.1hPa | 2.6V | 03:22:24 | 01:57:31 | 00:00:00 | |
| BIOWL1-15 | 2026-09-05 18:27:01 | 49.19124 | 8.63274 | 181° | 20km/h | 28763m | 6.4m/s | -46.5°C | 0% | 15.2hPa | 2.5V | 03:22:24 | 01:57:26 | 00:00:00 | |
| DK7TD | 2026-09-05 18:27:00 | 49.19129 | 8.63275 | 195° | 20km/h | 28757m | 6.3m/s | -46.5°C | 0% | 15.2hPa | 2.6V | 03:22:24 | 01:57:25 | 00:00:00 | |
| DL4BBY-15 | 2026-09-05 18:27:00 | 49.19129 | 8.63275 | 195° | 20km/h | 28758m | 6.3m/s | -48.1°C | 0% | 0hPa | 2.6V | 00:00:00 | 00:00:00 | 00:00:00 | |
| DG9SBQ-11 | 2026-09-05 18:26:59 | 49.19133 | 8.63278 | 204° | 20km/h | 28751m | 5.4m/s | -46.5°C | 0.7% | 15.2hPa | 2.6V | 03:22:00 | 00:00:00 | 00:00:00 | |
| DL1XH1-15 | 2026-09-05 18:26:58 | 49.19149 | 8.63284 | 176° | 11km/h | 28719m | 5.1m/s | -46.7°C | 3% | 15.3hPa | 2.6V | 03:22:24 | 01:57:18 | 00:00:00 | |
| SONCRA | 2026-09-05 18:26:58 | 49.19138 | 8.63281 | 207° | 16km/h | 28746m | 5.0m/s | -46.6°C | 0.7% | 15.2hPa | 2.6V | 00:00:00 | 00:00:00 | 00:00:00 | |
| DM0DOS-11 | 2026-09-05 18:26:57 | 49.19153 | 8.63284 | 184° | 16km/h | 28713m | 6.5m/s | -46.6°C | 3% | 15.3hPa | 2.6V | 03:22:25 | 01:57:17 | 00:00:00 | |
| DC4HF-4 | 2026-09-05 18:26:57 | 49.19143 | 8.63285 | 192° | 7km/h | 28734m | 6.3m/s | -46.6°C | 0.7% | 15.2hPa | 2.7V | 00:00:00 | 00:00:00 | 00:00:00 | |
| DO3MHA-11 | 2026-09-05 18:26:56 | 49.19143 | 8.63284 | 193° | 18km/h | 28734m | 6.3m/s | -46.6°C | 3.0% | 15.2hPa | 2.7V | 00:00:00 | 01:57:21 | 00:00:00 | |
| DL1XH-15 | 2026-09-05 18:26:55 | 49.19164 | 8.63286 | 189° | 26km/h | 28701m | 5.3m/s | -46.6°C | 3% | 15.3hPa | 2.7V | 03:22:27 | 01:57:15 | 00:00:00 | |
| DL1XH-west | 2026-09-05 18:26:55 | 49.19145 | 8.63285 | 170° | 5km/h | 28728m | 5m/s | -46.7°C | 0% | 15.3hPa | 2.5V | 03:22:24 | 01:57:20 | 00:00:00 | |
| BIOWL1-15 | 2026-09-05 18:26:52 | 49.19164 | 8.63286 | 190° | 26km/h | 28701m | 5.3m/s | -46.7°C | 0% | 15.3hPa | 2.7V | 03:23:15 | 01:57:15 | 00:00:00 | |
| DK7TD | 2026-09-05 18:26:49 | 49.19170 | 8.63288 | 188° | 27km/h | 28696m | 5.1m/s | -46.7°C | 0% | 15.3hPa | 2.6V | 03:23:15 | 01:57:14 | 00:00:00 | |
| DO1YAY-16 | 2026-09-05 18:26:48 | 49.19183 | 8.63289 | 176° | 22km/h | 28684m | 6.1m/s | -46.7°C | 0.7% | 15.4hPa | 2.6V | 00:00:00 | 00:00:00 | 00:00:00 | |
| DM0DOS-11 | 2026-09-05 18:26:47 | 49.19207 | 8.63289 | 194° | 20km/h | 28655m | 6m/s | -46.7°C | 3% | 15.4hPa | 2.6V | 03:22:35 | 01:57:07 | 00:00:00 | |
| DD1CC8 | 2026-09-05 18:26:45 | 49.19193 | 8.63287 | 173° | 16km/h | 28673m | 4.9m/s | -46.7°C | 0.7% | 15.4hPa | 2.6V | 00:00:00 | 00:00:00 | 00:00:00 | |
| DL1XH-west | 2026-09-05 18:26:44 | 49.19198 | 8.63287 | 182° | 16km/h | 28668m | 5.3m/s | -46.7°C | 0% | 15.4hPa | 2.6V | 03:23:15 | 01:57:09 | 00:00:00 | |
| DK7TD | 2026-09-05 18:26:39 | 49.19222 | 8.63291 | 168° | 20km/h | 28638m | 6.6m/s | -46.8°C | 0% | 15.5hPa | 2.7V | 03:23:15 | 01:57:04 | 00:00:00 | |
| DF7PN | 2026-09-05 18:26:39 | 49.19227 | 8.63289 | 155° | 20km/h | 28633m | 5.4m/s | -46.8°C | 0.7% | 15.5hPa | 2.6V | 00:00:00 | 00:00:00 | 00:00:00 | |
| DM0DOS-11 | 2026-09-05 18:26:37 | 49.19266 | 8.63269 | 165° | 27km/h | 28600m | 5.5m/s | -47°C | 3% | 15.6hPa | 2.6V | 03:22:45 | 01:56:57 | 00:00:00 | |
| DL1XH-west | 2026-09-05 18:26:34 | 49.19252 | 8.63274 | 167° | 29km/h | 28610m | 5.7m/s | -46.9°C | 0% | 15.6hPa | 2.6V | 03:23:15 | 01:56:59 | 00:00:00 | |
| DO3DL | 2026-09-05 18:26:33 | 49.19251 | 8.63274 | 168° | 29km/h | 28611m | 5.7m/s | -46.9°C | 0.7% | 15.5hPa | 2.7V | 03:23:00 | 00:00:00 | 00:00:00 | |
| SONDE2-11 | 2026-09-05 18:26:32 | 49.19266 | 8.63269 | 165° | 26km/h | 28600m | 5.5m/s | -47.0°C | 0.7% | 15.6hPa | 2.7V | 00:00:00 | 00:00:00 | 00:00:00 | |
| DJ2KF-10 | 2026-09-05 18:26:31 | 49.19272 | 8.63266 | 160° | 22km/h | 28595m | 6.5m/s | -47.0°C | 3.0% | 15.5hPa | 2.7V | 03:22:00 | 01:56:56 | 00:00:00 | |
| DL1XH-15 | 2026-09-05 18:26:30 | 49.19298 | 8.63254 | 188° | 22km/h | 28560m | 5.1m/s | -47.2°C | 3% | 15.7hPa | 2.7V | 03:22:52 | 01:56:50 | 00:00:00 | |
| BIOWL1-15 | 2026-09-05 18:26:29 | 49.19281 | 8.63259 | 148° | 18km/h | 28582m | 5.3m/s | -47.1°C | 0% | 15.6hPa | 2.5V | 03:23:15 | 01:56:54 | 00:00:00 | |
| DK7TD | 2026-09-05 18:26:28 | 49.19285 | 8.63256 | 154° | 16km/h | 28577m | 5.1m/s | -47.2°C | 0% | 15.6hPa | 2.6V | 03:23:15 | 01:56:53 | 00:00:00 | |
| DM0DOS-11 | 2026-09-05 18:26:27 | 49.19313 | 8.63254 | 160° | 20km/h | 28545m | 6.1m/s | -47.2°C | 3.1% | 15.7hPa | 2.6V | 03:22:55 | 01:56:47 | 00:00:00 | |
| DL1XH-west | 2026-09-05 18:26:24 | 49.19303 | 8.63255 | 186° | 22km/h | 28555m | 4.4m/s | -47.2°C | 0% | 15.7hPa | 2.6V | 03:23:15 | 01:56:49 | 00:00:00 | |
| HSKMA3-T | 2026-09-05 18:26:23 | 49.19309 | 8.63255 | 177° | 20km/h | 28550m | 5.1m/s | -47.2°C | 0.1% | 15.7hPa | 2.5V | 03:24:57 | 01:56:48 | 00:00:00 | |
| DL3AQ-11 | 2026-09-05 18:26:21 | 49.19323 | 8.63243 | 129° | 26km/h | 28533m | 6.0m/s | -47.2°C | 0.7% | 15.7hPa | 2.7V | 00:00:00 | 00:00:00 | 00:00:00 | |
| DL1XH-15 | 2026-09-05 18:26:20 | 49.19351 | 8.63200 | 151° | 31km/h | 28505m | 5.4m/s | -47.2°C | 3% | 15.8hPa | 2.7V | 03:23:02 | 01:56:40 | 00:00:00 | |
| BIOWL1-15 | 2026-09-05 18:26:19 | 49.19327 | 8.63234 | 127° | 31km/h | 28527m | 5.3m/s | -47.2°C | 0% | 15.8hPa | 2.6V | 03:23:15 | 01:56:44 | 00:00:00 | |
| DK7TD | 2026-09-05 18:26:18 | 49.19332 | 8.63224 | 129° | 33km/h | 28522m | 5m/s | -47.2°C | 0% | 15.8hPa | 2.5V | 03:23:15 | 01:56:43 | 00:00:00 | |
| DM0DOS-11 | 2026-09-05 18:26:17 | 49.19369 | 8.63185 | 139° | 24km/h | 28488m | 6.8m/s | -47.2°C | 3% | 15.8hPa | 2.5V | 03:23:05 | 01:56:37 | 00:00:00 | |
| DO1YAY-16 | 2026-09-05 18:26:17 | 49.19344 | 8.63207 | 144° | 31km/h | 28511m | 5.7m/s | -47.2°C | 0.7% | 15.8hPa | 2.6V | 00:00:00 | 00:00:00 | 00:00:00 | |
| DJ2DS-15 | 2026-09-05 18:26:16 | 49.19351 | 8.63200 | 151° | 31km/h | 28505m | 5.4m/s | -47.2°C | 0.7% | 15.8hPa | 2.6V | 00:00:00 | 00:00:00 | 00:00:00 | |
| DD1CC8 | 2026-09-05 18:26:14 | 49.19358 | 8.63195 | 154° | 27km/h | 28500m | 5.3m/s | -47.2°C | 0.7% | 15.8hPa | 2.6V | 00:00:00 | 00:00:00 | 00:00:00 | |
| DL1ZP-14 | 2026-09-05 18:26:13 | 49.19364 | 8.63190 | 149° | 24km/h | 28494m | 5.7m/s | -47.2°C | 0.7% | 15.8hPa | 2.6V | 00:00:00 | 00:00:00 | 00:00:00 | |
| DL1XH-west | 2026-09-05 18:26:13 | 49.19364 | 8.63190 | 150° | 26km/h | 28494m | 5.7m/s | -47.2°C | 0% | 15.8hPa | 2.6V | 03:23:15 | 01:56:38 | 00:00:00 | |
| DL6DJ-15 | 2026-09-05 18:26:12 | 49.19369 | 8.63185 | 139° | 22km/h | 28488m | 6.8m/s | -47.2°C | 0.7% | 15.8hPa | 2.6V | 00:00:00 | 00:00:00 | 00:00:00 | |
| IW2NTF | 2026-09-05 18:26:11 | 49.19394 | 8.63141 | 136° | 27km/h | 28454m | 4.8m/s | -47.3°C | 3% | 15.9hPa | 2.6V | 03:23:11 | 01:56:31 | 00:00:00 | |
| DL1XH-15 | 2026-09-05 18:26:10 | 49.19399 | 8.63133 | 133° | 29km/h | 28449m | 5.2m/s | -47.3°C | 3% | 15.9hPa | 2.5V | 03:23:12 | 01:56:30 | 00:00:00 | |
| BIOWL1-15 | 2026-09-05 18:26:09 | 49.19380 | 8.63163 | 127° | 26km/h | 28471m | 5.3m/s | -47.2°C | 0% | 15.9hPa | 2.6V | 03:23:15 | 01:56:34 | 00:00:00 | |
| DL1XH1-15 | 2026-09-05 18:26:08 | 49.19408 | 8.63116 | 122° | 29km/h | 28437m | 5.5m/s | -47.3°C | 3% | 16hPa | 2.6V | 03:23:14 | 01:56:28 | 00:00:00 | |
| DK7TD | 2026-09-05 18:26:08 | 49.19384 | 8.63156 | 132° | 26km/h | 28465m | 6.7m/s | -47.2°C | 0% | 15.9hPa | 2.7V | 03:23:15 | 01:56:33 | 00:00:00 | |
| DB0UT-9 | 2026-09-05 18:26:07 | 49.19384 | 8.63156 | 132° | 26km/h | 28466m | 6.7m/s | -47.2°C | 0.8% | 15.9hPa | 2.7V | 03:23:00 | 00:00:00 | 00:00:00 | |
| DM0DOS-11 | 2026-09-05 18:26:06 | 49.19415 | 8.63099 | 125° | 22km/h | 28427m | 5.2m/s | -47.4°C | 3% | 16hPa | 2.7V | 03:23:16 | 01:56:26 | 00:00:00 | |
| DL1XH-west | 2026-09-05 18:26:03 | 49.19408 | 8.63116 | 122° | 29km/h | 28437m | 5.5m/s | -47.3°C | 0% | 16hPa | 2.6V | 03:23:15 | 01:56:28 | 00:00:00 | |
| DO8TBO-1 | 2026-09-05 18:26:03 | 49.19408 | 8.63116 | 123° | 18km/h | 28438m | 5.4m/s | -47.3°C | 3.0% | 15.9hPa | 2.6V | 00:00:00 | 01:56:28 | 00:00:00 | |
| DG9SBQ-11 | 2026-09-05 18:26:02 | 49.19408 | 8.63116 | 123° | 29km/h | 28438m | 5.5m/s | -47.3°C | 0.7% | 16.0hPa | 2.6V | 03:23:00 | 00:00:00 | 00:00:00 | |
| SONDE2-11 | 2026-09-05 18:26:01 | 49.19415 | 8.63099 | 125° | 22km/h | 28427m | 5.2m/s | -47.4°C | 0.7% | 16.0hPa | 2.6V | 00:00:00 | 00:00:00 | 00:00:00 | |
| DL4BBY-15 | 2026-09-05 18:26:00 | 49.19418 | 8.63092 | 137° | 16km/h | 28421m | 5.9m/s | -49.0°C | 0% | 0hPa | 2.6V | 00:00:00 | 00:00:00 | 00:00:00 | |
| DL1XH-15 | 2026-09-05 18:25:59 | 49.19439 | 8.63071 | 106° | 24km/h | 28388m | 6.3m/s | -47.7°C | 3.1% | 16.1hPa | 2.6V | 03:23:23 | 01:56:19 | 00:00:00 | |
| BIOWL1-15 | 2026-09-05 18:25:58 | 49.19426 | 8.63086 | 167° | 16km/h | 28409m | 5.2m/s | -47.5°C | 0% | 16hPa | 2.5V | 03:24:06 | 01:56:23 | 00:00:00 | |
| DM0DOS-11 | 2026-09-05 18:25:56 | 49.19443 | 8.63037 | 104° | 31km/h | 28371m | 5.8m/s | -47.8°C | 3.1% | 16.1hPa | 2.6V | 03:23:26 | 01:56:16 | 00:00:00 | |
| DL1XH-west | 2026-09-05 18:25:53 | 49.19440 | 8.63061 | 100° | 29km/h | 28382m | 5.5m/s | -47.7°C | 0% | 16.1hPa | 2.5V | 03:24:06 | 01:56:18 | 00:00:00 | |
| BIOWL9-15 | 2026-09-05 18:25:52 | 49.19441 | 8.63050 | 100° | 31km/h | 28377m | 5.3m/s | -47.8°C | 0.7% | 16.1hPa | 2.6V | 00:00:00 | 00:00:00 | 00:00:00 | |
| DG9SBQ-11 | 2026-09-05 18:25:51 | 49.19442 | 8.63049 | 101° | 33km/h | 28377m | 5.3m/s | -47.8°C | 0.7% | 16.1hPa | 2.6V | 03:24:00 | 00:00:00 | 00:00:00 | |
| DL0LBS | 2026-09-05 18:25:50 | 49.19443 | 8.63037 | 105° | 31km/h | 28372m | 5.8m/s | -47.8°C | 0.8% | 16.1hPa | 2.6V | 03:24:00 | 00:00:00 | 00:00:00 | |
| DL1XH-15 | 2026-09-05 18:25:49 | 49.19456 | 8.62984 | 75° | 11km/h | 28332m | 4.9m/s | -47.9°C | 3.1% | 16.2hPa | 2.6V | 03:23:33 | 01:56:09 | 00:00:00 | |
| DJ2KF-10 | 2026-09-05 18:25:49 | 49.19448 | 8.63016 | 117° | 11km/h | 28360m | 5.1m/s | -47.8°C | 3.1% | 16.1hPa | 2.7V | 00:00:00 | 01:56:14 | 00:00:00 | |
| CB1BUN | 2026-09-05 18:25:48 | 49.19448 | 8.63016 | 118° | 27km/h | 28360m | 5.1m/s | -47.9°C | 0.7% | 16.1hPa | 2.7V | 03:24:00 | 00:00:00 | 00:00:00 | |
| DL1XH1-15 | 2026-09-05 18:25:47 | 49.19454 | 8.62979 | 42° | 5km/h | 28322m | 6.1m/s | -47.9°C | 3.1% | 16.2hPa | 2.7V | 03:23:35 | 01:56:07 | 00:00:00 | |
| HSKMA3-T | 2026-09-05 18:25:47 | 49.19454 | 8.63001 | 119° | 20km/h | 28350m | 5.3m/s | -47.9°C | 0% | 16.2hPa | 2.5V | 03:24:57 | 01:56:12 | 00:00:00 | |
| DO1YAY-16 | 2026-09-05 18:25:45 | 49.19456 | 8.62989 | 94° | 13km/h | 28338m | 5.8m/s | -47.9°C | 0.8% | 16.2hPa | 2.7V | 00:00:00 | 00:00:00 | 00:00:00 | |
| DL1XH-west | 2026-09-05 18:25:43 | 49.19455 | 8.62981 | 57° | 9km/h | 28328m | 5m/s | -47.9°C | 0.1% | 16.2hPa | 2.7V | 03:24:06 | 01:56:08 | 00:00:00 | |
| DL1ZP-14 | 2026-09-05 18:25:42 | 49.19454 | 8.62978 | 34° | 2km/h | 28316m | 6.7m/s | -47.9°C | 0.8% | 16.3hPa | 2.6V | 00:00:00 | 00:00:00 | 00:00:00 | |
| DL6DJ-15 | 2026-09-05 18:25:41 | 49.19454 | 8.62978 | 34° | 2km/h | 28316m | 6.7m/s | -47.9°C | 0.8% | 16.3hPa | 2.6V | 00:00:00 | 00:00:00 | 00:00:00 | |
| KANTATE | 2026-09-05 18:25:40 | 49.19453 | 8.62978 | 36° | 2km/h | 28316m | 6.7m/s | -47.9°C | 0.8% | 16.3hPa | 2.6V | 03:24:00 | 00:00:00 | 00:00:00 | |
| DL1XH-15 | 2026-09-05 18:25:39 | 49.19454 | 8.62952 | 103° | 15km/h | 28277m | 5.3m/s | -48°C | 3.2% | 16.4hPa | 2.6V | 03:23:43 | 01:55:59 | 00:00:00 | |
| DB0NH | 2026-09-05 18:25:39 | 49.19453 | 8.62977 | 104° | 7km/h | 28305m | 4.7m/s | -47.9°C | 3.2% | 16.2hPa | 2.6V | 03:23:00 | 01:56:04 | 00:00:00 | |
| AU51GT2 | 2026-09-05 18:25:38 | 49.19454 | 8.62974 | 91° | 7km/h | 28299m | 6.5m/s | -47.9°C | 0.8% | 16.3hPa | 2.6V | 00:00:00 | 00:00:00 | 00:00:00 | |
| DL1XH1-15 | 2026-09-05 18:25:37 | 49.19457 | 8.62946 | 164° | 9km/h | 28265m | 6.2m/s | -48°C | 3.2% | 16.4hPa | 2.6V | 03:23:45 | 01:55:57 | 00:00:00 | |
| BIOWL1-15 | 2026-09-05 18:25:37 | 49.19454 | 8.62970 | 87° | 13km/h | 28292m | 6.4m/s | -47.9°C | 0.1% | 16.3hPa | 2.6V | 03:24:06 | 01:56:02 | 00:00:00 | |
| HSKMA3-T | 2026-09-05 18:25:33 | 49.19455 | 8.62948 | 125° | 11km/h | 28271m | 6.7m/s | -48°C | 0.1% | 16.4hPa | 2.6V | 03:24:57 | 01:55:58 | 00:00:00 | |
| DL1XH-west | 2026-09-05 18:25:32 | 49.19457 | 8.62946 | 165° | 9km/h | 28265m | 6.2m/s | -48.1°C | 0.2% | 16.4hPa | 2.6V | 03:24:06 | 01:55:57 | 00:00:00 | |
| DL3AQ-11 | 2026-09-05 18:25:30 | 49.19462 | 8.62952 | 293° | 4km/h | 28242m | 6.2m/s | -48.1°C | 0.8% | 16.4hPa | 2.7V | 00:00:00 | 00:00:00 | 00:00:00 | |
| DL1XH-15 | 2026-09-05 18:25:29 | 49.19458 | 8.62954 | 298° | 0km/h | 28219m | 6.3m/s | -48.1°C | 3.2% | 16.5hPa | 2.7V | 03:23:53 | 01:55:49 | 00:00:00 | |
| IW2NTF | 2026-09-05 18:25:28 | 49.19459 | 8.62954 | 165° | 2km/h | 28213m | 5.3m/s | -48.1°C | 3.2% | 16.5hPa | 2.6V | 03:23:54 | 01:55:48 | 00:00:00 | |
| CB1BUN | 2026-09-05 18:25:28 | 49.19462 | 8.62950 | 245° | 7km/h | 28249m | 6.4m/s | -48.1°C | 0.8% | 16.4hPa | 2.5V | 03:24:00 | 00:00:00 | 00:00:00 | |
| DL1XH1-15 | 2026-09-05 18:25:27 | 49.19460 | 8.62953 | 137° | 5km/h | 28208m | 5.3m/s | -48.1°C | 3.2% | 16.5hPa | 2.5V | 03:23:55 | 01:55:47 | 00:00:00 | |
| BIOWL1-15 | 2026-09-05 18:25:26 | 49.19460 | 8.62953 | 354° | 5km/h | 28231m | 5m/s | -48.1°C | 0.1% | 16.5hPa | 2.6V | 03:24:06 | 01:55:51 | 00:00:00 | |
| HSKMA3-T | 2026-09-05 18:25:23 | 49.19459 | 8.62954 | 166° | 2km/h | 28214m | 5.3m/s | -48.1°C | 0.2% | 16.5hPa | 2.6V | 03:24:57 | 01:55:48 | 00:00:00 | |
| DL1XH-west | 2026-09-05 18:25:21 | 49.19460 | 8.62951 | 118° | 7km/h | 28202m | 6.8m/s | -48.1°C | 0.1% | 16.6hPa | 2.5V | 03:24:06 | 01:55:46 | 00:00:00 | |
| DO3DL | 2026-09-05 18:25:20 | 49.19460 | 8.62951 | 119° | 7km/h | 28202m | 6.8m/s | -48.1°C | 0.8% | 16.5hPa | 2.6V | 03:24:00 | 00:00:00 | 00:00:00 | |
| DL1XH-15 | 2026-09-05 18:25:19 | 49.19468 | 8.62945 | 249° | 7km/h | 28162m | 5m/s | -48°C | 3.2% | 16.6hPa | 2.6V | 03:24:03 | 01:55:39 | 00:00:00 | |
| DJ2KF-10 | 2026-09-05 18:25:19 | 49.19462 | 8.62945 | 108° | 11km/h | 28190m | 5.1m/s | -48.0°C | 3.2% | 16.5hPa | 2.6V | 00:00:00 | 01:55:44 | 00:00:00 | |
| DL1XH1-15 | 2026-09-05 18:25:17 | 49.19467 | 8.62949 | 335° | 4km/h | 28149m | 6.1m/s | -48°C | 3.3% | 16.7hPa | 2.6V | 03:24:05 | 01:55:37 | 00:00:00 | |
| DK7TD | 2026-09-05 18:25:16 | 49.19465 | 8.62941 | 208° | 7km/h | 28172m | 6.4m/s | -48°C | 0.2% | 16.6hPa | 2.6V | 03:24:06 | 01:55:41 | 00:00:00 | |
| BIOWL1-15 | 2026-09-05 18:25:15 | 49.19467 | 8.62943 | 232° | 9km/h | 28167m | 5.2m/s | -48°C | 0.1% | 16.6hPa | 2.5V | 03:24:06 | 01:55:40 | 00:00:00 | |
| DL1XH-west | 2026-09-05 18:25:11 | 49.19466 | 8.62949 | 12° | 5km/h | 28144m | 5.2m/s | -48°C | 0.1% | 16.7hPa | 2.7V | 03:24:06 | 01:55:36 | 00:00:00 | |
| DL1ZP-14 | 2026-09-05 18:25:11 | 49.19465 | 8.62949 | 37° | 4km/h | 28139m | 5.1m/s | -48.0°C | 0.8% | 16.7hPa | 2.7V | 00:00:00 | 00:00:00 | 00:00:00 | |
| DL6DJ-15 | 2026-09-05 18:25:10 | 49.19465 | 8.62949 | 37° | 4km/h | 28139m | 5.1m/s | -48.0°C | 0.8% | 16.7hPa | 2.6V | 00:00:00 | 00:00:00 | 00:00:00 | |
| DB0NH | 2026-09-05 18:25:09 | 49.19464 | 8.62947 | 88° | 11km/h | 28133m | 6.4m/s | 0°C | 0% | 0hPa | 2.6V | 00:00:00 | 01:55:34 | 00:00:00 | |
| DC4HF-4 | 2026-09-05 18:25:08 | 49.19465 | 8.62947 | 145° | 5km/h | 28127m | 5.9m/s | -48.0°C | 0.8% | 16.7hPa | 2.6V | 00:00:00 | 00:00:00 | 00:00:00 | |
| DL1XH1-15 | 2026-09-05 18:25:07 | 49.19480 | 8.62920 | 124° | 18km/h | 28093m | 5.2m/s | -47.8°C | 3.2% | 16.8hPa | 2.6V | 03:24:15 | 01:55:27 | 00:00:00 | |
| DK7TD | 2026-09-05 18:25:06 | 49.19469 | 8.62942 | 141° | 15km/h | 28116m | 5.1m/s | -47.9°C | 0.1% | 16.8hPa | 2.6V | 03:24:57 | 01:55:31 | 00:00:00 | |
| HSKMA3-T | 2026-09-05 18:25:05 | 49.19472 | 8.62938 | 131° | 16km/h | 28110m | 6.5m/s | -47.9°C | 0.1% | 16.8hPa | 2.7V | 03:24:57 | 01:55:30 | 00:00:00 | |
| DL1XH-west | 2026-09-05 18:25:01 | 49.19482 | 8.62916 | 134° | 15km/h | 28087m | 6.6m/s | -47.8°C | 0.1% | 16.9hPa | 2.6V | 03:24:57 | 01:55:26 | 00:00:00 | |
| DL3AQ-11 | 2026-09-05 18:25:01 | 49.19485 | 8.62912 | 151° | 13km/h | 28081m | 6.1m/s | -47.8°C | 0.7% | 16.9hPa | 2.7V | 00:00:00 | 00:00:00 | 00:00:00 | |
| SONDE2-11 | 2026-09-05 18:24:59 | 49.19490 | 8.62909 | 161° | 9km/h | 28070m | 4.6m/s | -47.8°C | 0.8% | 16.9hPa | 2.7V | 00:00:00 | 00:00:00 | 00:00:00 | |
| DF3TZ-5 | 2026-09-05 18:24:58 | 49.19490 | 8.62909 | 161° | 9km/h | 28070m | 4.6m/s | -47.8°C | 0.8% | 16.9hPa | 2.7V | 00:00:00 | 00:00:00 | 00:00:00 | |
| DL1XH1-15 | 2026-09-05 18:24:57 | 49.19496 | 8.62887 | 122° | 9km/h | 28036m | 6.3m/s | -47.7°C | 3.2% | 17hPa | 2.7V | 03:24:25 | 01:55:17 | 00:00:00 | |
| DK7TD | 2026-09-05 18:24:55 | 49.19495 | 8.62900 | 96° | 13km/h | 28052m | 6.1m/s | -47.7°C | 0.1% | 16.9hPa | 2.6V | 03:24:57 | 01:55:20 | 00:00:00 | |
| DO3DL | 2026-09-05 18:24:55 | 49.19495 | 8.62900 | 96° | 13km/h | 28053m | 6.1m/s | -47.7°C | 0.8% | 16.9hPa | 2.6V | 03:24:00 | 00:00:00 | 00:00:00 | |
| DM0DOS-11 | 2026-09-05 18:24:54 | 49.19503 | 8.62887 | 204° | 13km/h | 28018m | 5.4m/s | -47.6°C | 3.2% | 17hPa | 2.6V | 03:24:28 | 01:55:14 | 00:00:00 | |
| HSKMA3-T | 2026-09-05 18:24:54 | 49.19495 | 8.62895 | 94° | 15km/h | 28047m | 5m/s | -47.7°C | 0.1% | 16.9hPa | 2.6V | 03:24:57 | 01:55:19 | 00:00:00 | |
| DL1XH-west | 2026-09-05 18:24:50 | 49.19500 | 8.62885 | 198° | 11km/h | 28023m | 5.7m/s | -47.6°C | 0.1% | 17hPa | 2.5V | 03:24:57 | 01:55:15 | 00:00:00 | |
| DL3AQ-11 | 2026-09-05 18:24:50 | 49.19503 | 8.62887 | 204° | 11km/h | 28018m | 5.4m/s | -47.6°C | 0.8% | 17.0hPa | 2.7V | 00:00:00 | 00:00:00 | 00:00:00 | |
| DG9SBQ-11 | 2026-09-05 18:24:49 | 49.19500 | 8.62885 | 199° | 11km/h | 28024m | 5.7m/s | -47.6°C | 0.8% | 17.0hPa | 2.7V | 03:24:00 | 00:00:00 | 00:00:00 | |
| DL0LBS | 2026-09-05 18:24:48 | 49.19503 | 8.62887 | 206° | 13km/h | 28018m | 5.4m/s | -47.6°C | 0.8% | 17.0hPa | 2.7V | 03:24:00 | 00:00:00 | 00:00:00 | |
| DL1XH1-15 | 2026-09-05 18:24:47 | 49.19514 | 8.62900 | 247° | 9km/h | 27978m | 5.8m/s | -47.6°C | 3.1% | 17.1hPa | 2.7V | 03:24:35 | 01:55:07 | 00:00:00 | |
| DK7TD | 2026-09-05 18:24:45 | 49.19511 | 8.62893 | 219° | 5km/h | 27996m | 4.8m/s | -47.6°C | 0.1% | 17.1hPa | 2.5V | 03:24:57 | 01:55:10 | 00:00:00 | |
| DM0DOS-11 | 2026-09-05 18:24:44 | 49.19516 | 8.62903 | 136° | 5km/h | 27961m | 6.8m/s | -47.6°C | 3.2% | 17.2hPa | 2.6V | 03:24:38 | 01:55:04 | 00:00:00 | |
| BIOWL1-15 | 2026-09-05 18:24:44 | 49.19512 | 8.62895 | 240° | 5km/h | 27990m | 6.1m/s | -47.6°C | 0.1% | 17.1hPa | 2.6V | 03:24:57 | 01:55:09 | 00:00:00 | |
| DL1XH-west | 2026-09-05 18:24:39 | 49.19516 | 8.62903 | 136° | 5km/h | 27961m | 6.9m/s | -47.6°C | 0.1% | 17.2hPa | 2.6V | 03:24:57 | 01:55:04 | 00:00:00 | |
| DB0NH | 2026-09-05 18:24:39 | 49.19516 | 8.62903 | 137° | 9km/h | 27961m | 6.8m/s | -47.5°C | 3.2% | 17.1hPa | 2.7V | 00:00:00 | 01:55:04 | 00:00:00 | |
| KANTATE | 2026-09-05 18:24:38 | 49.19516 | 8.62903 | 137° | 5km/h | 27961m | 6.9m/s | -47.6°C | 0.8% | 17.2hPa | 2.7V | 03:24:00 | 00:00:00 | 00:00:00 | |
| DL1XH1-15 | 2026-09-05 18:24:37 | 49.19526 | 8.62904 | 262° | 18km/h | 27921m | 4.9m/s | -47.4°C | 3.1% | 17.3hPa | 2.7V | 03:24:45 | 01:54:57 | 00:00:00 | |
| DK7TD | 2026-09-05 18:24:35 | 49.19522 | 8.62892 | 169° | 7km/h | 27939m | 6.1m/s | -47.5°C | 0.1% | 17.2hPa | 2.6V | 03:24:57 | 01:55:00 | 00:00:00 | |
| DM0DOS-11 | 2026-09-05 18:24:34 | 49.19526 | 8.62922 | 275° | 9km/h | 27904m | 5.8m/s | -47.4°C | 3.1% | 17.3hPa | 2.6V | 03:24:48 | 01:54:54 | 00:00:00 | |
| BIOWL1-15 | 2026-09-05 18:24:33 | 49.19525 | 8.62897 | 252° | 16km/h | 27926m | 5.6m/s | -47.4°C | 0.1% | 17.3hPa | 2.7V | 03:24:57 | 01:54:58 | 00:00:00 | |
| HSKMA3-T | 2026-09-05 18:24:32 | 49.19526 | 8.62904 | 263° | 20km/h | 27921m | 4.9m/s | -47.4°C | 0.1% | 17.3hPa | 2.7V | 03:24:57 | 01:54:57 | 00:00:00 | |
| DL1XH-west | 2026-09-05 18:24:29 | 49.19526 | 8.62922 | 275° | 9km/h | 27904m | 5.8m/s | -47.4°C | 0.1% | 17.3hPa | 2.6V | 03:24:57 | 01:54:54 | 00:00:00 | |
| DJ2DS-15 | 2026-09-05 18:24:28 | 49.19527 | 8.62925 | 169° | 4km/h | 27893m | 6.2m/s | -47.4°C | 0.8% | 17.4hPa | 2.6V | 00:00:00 | 00:00:00 | 00:00:00 | |
| DL1XH1-15 | 2026-09-05 18:24:27 | 49.19536 | 8.62917 | 108° | 2km/h | 27863m | 6.6m/s | -47.4°C | 3.1% | 17.4hPa | 2.6V | 03:24:55 | 01:54:47 | 00:00:00 | |
| CB1BUN | 2026-09-05 18:24:27 | 49.19527 | 8.62925 | 171° | 5km/h | 27893m | 6.2m/s | -47.3°C | 0.8% | 17.4hPa | 2.6V | 03:24:00 | 00:00:00 | 00:00:00 | |
| DB0UT-9 | 2026-09-05 18:24:26 | 49.19529 | 8.62924 | 158° | 9km/h | 27887m | 6.6m/s | -47.3°C | 0.8% | 17.4hPa | 2.6V | 03:24:00 | 00:00:00 | 00:00:00 | |
| DK5PH-5 | 2026-09-05 18:24:25 | 49.19531 | 8.62922 | 154° | 9km/h | 27880m | 5.8m/s | -47.3°C | 3.1% | 17.3hPa | 2.6V | 00:00:00 | 01:54:50 | 00:00:00 | |
| DM0DOS-11 | 2026-09-05 18:24:24 | 49.19535 | 8.62920 | 268° | 7km/h | 27845m | 6.5m/s | -47.4°C | 3.2% | 17.4hPa | 2.6V | 03:24:58 | 01:54:44 | 00:00:00 | |
| DK7TD | 2026-09-05 18:24:23 | 49.19535 | 8.62918 | 140° | 7km/h | 27869m | 6.1m/s | -47.4°C | 0.1% | 17.4hPa | 2.6V | 03:24:57 | 01:54:48 | 00:00:00 | |
| HSKMA3-T | 2026-09-05 18:24:22 | 49.19536 | 8.62917 | 109° | 2km/h | 27863m | 6.6m/s | -47.4°C | 0.1% | 17.4hPa | 2.6V | 03:24:57 | 01:54:47 | 00:00:00 | |
| DL1XH-west | 2026-09-05 18:24:18 | 49.19535 | 8.62923 | 244° | 11km/h | 27839m | 6.5m/s | -47.4°C | 0.1% | 17.5hPa | 2.5V | 03:25:48 | 01:54:43 | 00:00:00 | |
| DB0UT-7 | 2026-09-05 18:24:17 | 49.19537 | 8.62927 | 230° | 15km/h | 27833m | 5.3m/s | -47.3°C | 3.2% | 17.5hPa | 2.6V | 00:00:00 | 00:00:00 | 00:00:00 | |
| DO3MHA-11 | 2026-09-05 18:24:16 | 49.19540 | 8.62930 | 220° | 13km/h | 27828m | 4.7m/s | -47.3°C | 3.1% | 17.5hPa | 2.6V | 00:00:00 | 01:54:41 | 00:00:00 | |
| DM0DOS-11 | 2026-09-05 18:24:15 | 49.19555 | 8.62930 | 153° | 16km/h | 27788m | 6.4m/s | -47.1°C | 3.1% | 17.6hPa | 2.6V | 03:25:08 | 01:54:34 | 00:00:00 | |
| HSKMA3-T | 2026-09-05 18:24:12 | 49.19548 | 8.62937 | 151° | 7km/h | 27805m | 5.1m/s | -47.2°C | 0.1% | 17.6hPa | 2.6V | 03:25:48 | 01:54:37 | 00:00:00 | |
| BIOWL1-15 | 2026-09-05 18:24:11 | 49.19550 | 8.62935 | 144° | 9km/h | 27800m | 5.3m/s | -47.2°C | 0.1% | 17.6hPa | 2.6V | 03:25:48 | 01:54:36 | 00:00:00 | |
| DL1XH-west | 2026-09-05 18:24:08 | 49.19559 | 8.62927 | 159° | 18km/h | 27782m | 5.5m/s | -47.1°C | 0.1% | 17.6hPa | 2.5V | 03:25:48 | 01:54:33 | 00:00:00 | |
| DL6DJ-15 | 2026-09-05 18:24:08 | 49.19563 | 8.62925 | 159° | 16km/h | 27777m | 4.7m/s | -47.0°C | 0.8% | 17.7hPa | 2.6V | 00:00:00 | 00:00:00 | 00:00:00 | |
| DL1XH1-15 | 2026-09-05 18:24:07 | 49.19568 | 8.62914 | 39° | 7km/h | 27748m | 4.8m/s | -46.9°C | 3% | 17.7hPa | 2.6V | 03:25:15 | 01:54:27 | 00:00:00 | |
| DO3MHA-11 | 2026-09-05 18:24:06 | 49.19567 | 8.62923 | 155° | 9km/h | 27772m | 4.8m/s | -47.0°C | 3.0% | 17.6hPa | 2.7V | 00:00:00 | 01:54:31 | 00:00:00 | |
| DB0UT-9 | 2026-09-05 18:24:05 | 49.19567 | 8.62923 | 156° | 13km/h | 27772m | 4.9m/s | -47.0°C | 0.8% | 17.7hPa | 2.6V | 03:25:00 | 00:00:00 | 00:00:00 | |
| DM0DOS-11 | 2026-09-05 18:24:04 | 49.19567 | 8.62910 | 144° | 7km/h | 27730m | 5.8m/s | -47°C | 3% | 17.8hPa | 2.6V | 03:25:18 | 01:54:24 | 00:00:00 | |
| DF7PN | 2026-09-05 18:24:03 | 49.19569 | 8.62916 | 49° | 7km/h | 27753m | 5.7m/s | -46.9°C | 0.7% | 17.7hPa | 2.6V | 00:00:00 | 00:00:00 | 00:00:00 | |
| IW2NTF | 2026-09-05 18:24:02 | 49.19572 | 8.62904 | 137° | 15km/h | 27717m | 6.7m/s | -47.1°C | 3.1% | 17.8hPa | 2.6V | 03:25:20 | 01:54:22 | 00:00:00 | |
| HSKMA3-T | 2026-09-05 18:24:02 | 49.19568 | 8.62914 | 40° | 7km/h | 27748m | 4.9m/s | -46.9°C | 0% | 17.7hPa | 2.6V | 03:25:48 | 01:54:27 | 00:00:00 | |
| BIOWL1-15 | 2026-09-05 18:24:01 | 49.19567 | 8.62912 | 52° | 5km/h | 27742m | 6.3m/s | -46.9°C | 0% | 17.8hPa | 2.7V | 03:25:48 | 01:54:26 | 00:00:00 | |
| DL4BBY-15 | 2026-09-05 18:24:00 | 49.19567 | 8.62911 | 117° | 16km/h | 27736m | 6.5m/s | -48.5°C | 0% | 0hPa | 2.6V | 00:00:00 | 00:00:00 | 00:00:00 | |
| DM7RM-13 | 2026-09-05 18:23:59 | 49.19567 | 8.62911 | 117° | 4km/h | 27736m | 6.6m/s | -46.9°C | 0.8% | 17.8hPa | 2.6V | 03:25:00 | 00:00:00 | 00:00:00 | |
| DL1XH1-15 | 2026-09-05 18:23:57 | 49.19594 | 8.62878 | 143° | 26km/h | 27687m | 5.2m/s | -47.1°C | 3.1% | 17.9hPa | 2.6V | 03:25:25 | 01:54:17 | 00:00:00 | |
| DL1XH-west | 2026-09-05 18:23:57 | 49.19572 | 8.62904 | 138° | 15km/h | 27717m | 6.7m/s | -47.1°C | 0% | 17.8hPa | 2.6V | 03:25:48 | 01:54:22 | 00:00:00 | |
| BIOWL1-15 | 2026-09-05 18:23:56 | 49.19601 | 8.62866 | 119° | 18km/h | 27676m | 6.7m/s | -47.1°C | 0.1% | 17.9hPa | 2.6V | 03:25:48 | 01:54:15 | 00:00:00 | |
| DO3MHA-11 | 2026-09-05 18:23:56 | 49.19575 | 8.62900 | 138° | 22km/h | 27712m | 5.5m/s | -47.1°C | 3.1% | 17.8hPa | 2.7V | 03:25:00 | 01:54:21 | 00:00:00 | |
| DK5PH-5 | 2026-09-05 18:23:55 | 49.19579 | 8.62895 | 139° | 16km/h | 27706m | 5.1m/s | -47.1°C | 3.1% | 17.8hPa | 2.7V | 00:00:00 | 01:54:20 | 00:00:00 | |
| DM0DOS-11 | 2026-09-05 18:23:54 | 49.19603 | 8.62860 | 94° | 18km/h | 27669m | 7m/s | -47°C | 3% | 17.9hPa | 2.7V | 03:25:28 | 01:54:14 | 00:00:00 | |
| DK7TD | 2026-09-05 18:23:52 | 49.19594 | 8.62878 | 144° | 26km/h | 27687m | 5.2m/s | -47.1°C | 0% | 17.9hPa | 2.6V | 03:27:30 | 01:54:17 | 00:00:00 | |
| HSKMA3-T | 2026-09-05 18:23:51 | 49.19598 | 8.62872 | 136° | 22km/h | 27682m | 5.2m/s | -47.1°C | 0% | 17.9hPa | 2.6V | 03:25:48 | 01:54:16 | 00:00:00 | |
| HARRO8 | 2026-09-05 18:23:50 | 49.19601 | 8.62866 | 119° | 18km/h | 27676m | 6.7m/s | -47.1°C | 0.8% | 17.9hPa | 2.6V | 00:00:00 | 00:00:00 | 00:00:00 | |
| BIOWL9-15 | 2026-09-05 18:23:48 | 49.19601 | 8.62846 | 71° | 18km/h | 27659m | 4.2m/s | -47.1°C | 0.8% | 18.0hPa | 2.6V | 00:00:00 | 00:00:00 | 00:00:00 | |
| DL1XH1-15 | 2026-09-05 18:23:47 | 49.19606 | 8.62822 | 151° | 18km/h | 27630m | 5.3m/s | -47.2°C | 3.1% | 18.1hPa | 2.6V | 03:25:35 | 01:54:07 | 00:00:00 | |
| DL1XH-west | 2026-09-05 18:23:46 | 49.19600 | 8.62839 | 76° | 16km/h | 27654m | 5.1m/s | -47.1°C | 0% | 18hPa | 2.5V | 03:25:48 | 01:54:11 | 00:00:00 | |
| DO3MHA-11 | 2026-09-05 18:23:46 | 49.19600 | 8.62839 | 76° | 18km/h | 27654m | 5.1m/s | -47.0°C | 3.1% | 17.9hPa | 2.6V | 00:00:00 | 01:54:11 | 00:00:00 | |
| CB1BUN | 2026-09-05 18:23:45 | 49.19600 | 8.62839 | 77° | 16km/h | 27654m | 5.1m/s | -47.1°C | 0.7% | 18.0hPa | 2.6V | 03:25:00 | 00:00:00 | 00:00:00 | |
| DM0DOS-11 | 2026-09-05 18:23:44 | 49.19618 | 8.62808 | 127° | 20km/h | 27612m | 5.9m/s | -47.2°C | 3.2% | 18.1hPa | 2.6V | 03:25:38 | 01:54:04 | 00:00:00 | |
| DK7TD | 2026-09-05 18:23:41 | 49.19611 | 8.62818 | 148° | 20km/h | 27625m | 5.9m/s | -47.2°C | 0.1% | 18.1hPa | 2.5V | 03:27:30 | 01:54:06 | 00:00:00 | |
| HSKMA3-T | 2026-09-05 18:23:40 | 49.19615 | 8.62813 | 139° | 20km/h | 27618m | 6.4m/s | -47.3°C | 0.1% | 18.1hPa | 2.6V | 03:25:48 | 01:54:05 | 00:00:00 | |
| BIOWL1-15 | 2026-09-05 18:23:39 | 49.19618 | 8.62808 | 128° | 20km/h | 27612m | 5.9m/s | -47.3°C | 0.1% | 18.1hPa | 2.6V | 03:25:48 | 01:54:04 | 00:00:00 | |
| DL1XH-west | 2026-09-05 18:23:36 | 49.19626 | 8.62790 | 124° | 15km/h | 27595m | 6.7m/s | -47.2°C | 0.1% | 18.1hPa | 2.6V | 03:25:48 | 01:54:01 | 00:00:00 | |
| HSKMA3-T | 2026-09-05 18:23:30 | 49.19630 | 8.62769 | 94° | 7km/h | 27559m | 5.3m/s | -47°C | 0% | 18.2hPa | 2.6V | 03:25:48 | 01:53:55 | 00:00:00 | |
| BIOWL1-15 | 2026-09-05 18:23:28 | 49.19632 | 8.62766 | 171° | 7km/h | 27547m | 6.8m/s | -47°C | 0.1% | 18.3hPa | 2.7V | 03:26:39 | 01:53:53 | 00:00:00 | |
| DL1XH1-15 | 2026-09-05 18:23:27 | 49.19648 | 8.62747 | 104° | 20km/h | 27512m | 4.7m/s | -46.7°C | 3% | 18.4hPa | 2.6V | 03:25:55 | 01:53:47 | 00:00:00 | |
| DL1XH-west | 2026-09-05 18:23:25 | 49.19641 | 8.62764 | 154° | 15km/h | 27530m | 6.3m/s | -46.8°C | 0% | 18.3hPa | 2.6V | 03:26:39 | 01:53:50 | 00:00:00 | |
| DK7TD | 2026-09-05 18:23:20 | 49.19650 | 8.62733 | 100° | 15km/h | 27502m | 6.4m/s | -46.7°C | 0% | 18.4hPa | 2.6V | 03:27:30 | 01:53:45 | 00:00:00 | |
| HSKMA3-T | 2026-09-05 18:23:19 | 49.19650 | 8.62728 | 104° | 13km/h | 27495m | 6m/s | -46.7°C | 0% | 18.4hPa | 2.6V | 03:26:39 | 01:53:44 | 00:00:00 | |
| DM7RM-13 | 2026-09-05 18:23:18 | 49.19650 | 8.62728 | 105° | 13km/h | 27496m | 6.0m/s | -46.7°C | 0.8% | 18.4hPa | 2.6V | 03:26:00 | 00:00:00 | 00:00:00 | |
| DL1XH1-15 | 2026-09-05 18:23:17 | 49.19658 | 8.62700 | 99° | 7km/h | 27453m | 5.5m/s | -46.8°C | 3% | 18.5hPa | 2.6V | 03:26:05 | 01:53:37 | 00:00:00 | |
| BIOWL1-15 | 2026-09-05 18:23:17 | 49.19652 | 8.62720 | 112° | 11km/h | 27484m | 6m/s | -46.7°C | 0% | 18.4hPa | 2.7V | 03:26:39 | 01:53:42 | 00:00:00 | |
| DL1XH-west | 2026-09-05 18:23:14 | 49.19656 | 8.62707 | 113° | 11km/h | 27466m | 5.6m/s | -46.7°C | 0% | 18.5hPa | 2.6V | 03:26:39 | 01:53:39 | 00:00:00 | |
| DL3AQ-11 | 2026-09-05 18:23:14 | 49.19657 | 8.62703 | 111° | 7km/h | 27460m | 6.7m/s | -46.7°C | 0.7% | 18.5hPa | 2.6V | 00:00:00 | 00:00:00 | 00:00:00 | |
| DM0DOS-11 | 2026-09-05 18:23:13 | 49.19656 | 8.62676 | 84° | 26km/h | 27430m | 5.7m/s | -46.8°C | 3% | 18.6hPa | 2.6V | 03:26:09 | 01:53:33 | 00:00:00 | |
| DK7TD | 2026-09-05 18:23:10 | 49.19657 | 8.62692 | 85° | 15km/h | 27443m | 5.8m/s | -46.8°C | 0% | 18.6hPa | 2.7V | 03:27:30 | 01:53:35 | 00:00:00 | |
| HSKMA3-T | 2026-09-05 18:23:08 | 49.19656 | 8.62676 | 84° | 26km/h | 27430m | 5.7m/s | -46.8°C | 0% | 18.6hPa | 2.6V | 03:26:39 | 01:53:33 | 00:00:00 | |
| DL1XH1-15 | 2026-09-05 18:23:07 | 49.19648 | 8.62631 | 54° | 15km/h | 27395m | 5.8m/s | -46.8°C | 3% | 18.7hPa | 2.7V | 03:26:15 | 01:53:27 | 00:00:00 | |
| BIOWL1-15 | 2026-09-05 18:23:06 | 49.19655 | 8.62656 | 78° | 26km/h | 27420m | 5.8m/s | -46.8°C | 0% | 18.6hPa | 2.7V | 03:26:39 | 01:53:31 | 00:00:00 | |
| DO3MHA-11 | 2026-09-05 18:23:06 | 49.19655 | 8.62656 | 79° | 16km/h | 27420m | 5.8m/s | -46.7°C | 3.0% | 18.6hPa | 2.7V | 00:00:00 | 01:53:31 | 00:00:00 | |
| CB1BUN | 2026-09-05 18:23:05 | 49.19653 | 8.62647 | 74° | 22km/h | 27414m | 6.6m/s | -46.8°C | 0.8% | 18.7hPa | 2.6V | 03:26:00 | 00:00:00 | 00:00:00 | |
| NBG1-10 | 2026-09-05 18:23:04 | 49.19651 | 8.62641 | 65° | 13km/h | 27407m | 5.7m/s | -46.7°C | 3.0% | 18.6hPa | 2.6V | 00:00:00 | 01:53:29 | 00:00:00 | |
| DM0DOS-11 | 2026-09-05 18:23:03 | 49.19638 | 8.62610 | 53° | 15km/h | 27373m | 5.3m/s | -46.7°C | 3% | 18.8hPa | 2.6V | 03:26:19 | 01:53:23 | 00:00:00 | |
| DL1XH-west | 2026-09-05 18:23:03 | 49.19650 | 8.62636 | 58° | 15km/h | 27401m | 5.4m/s | -46.8°C | 0% | 18.7hPa | 2.6V | 03:26:39 | 01:53:28 | 00:00:00 | |
| DK7TD | 2026-09-05 18:23:00 | 49.19643 | 8.62620 | 57° | 18km/h | 27384m | 5.6m/s | -46.7°C | 0% | 18.7hPa | 2.5V | 03:27:30 | 01:53:25 | 00:00:00 | |
| DL4BBY-15 | 2026-09-05 18:23:00 | 49.19643 | 8.62620 | 57° | 11km/h | 27384m | 5.6m/s | -48.3°C | 0% | 0hPa | 2.6V | 00:00:00 | 00:00:00 | 00:00:00 | |
| DG9SBQ-11 | 2026-09-05 18:22:59 | 49.19643 | 8.62620 | 58° | 18km/h | 27384m | 5.6m/s | -46.7°C | 0.7% | 18.7hPa | 2.6V | 03:26:00 | 00:00:00 | 00:00:00 | |
| IW2NTF | 2026-09-05 18:22:58 | 49.19633 | 8.62590 | 93° | 18km/h | 27344m | 6.7m/s | -46.9°C | 3% | 18.8hPa | 2.6V | 03:26:24 | 01:53:18 | 00:00:00 | |
| HSKMA3-T | 2026-09-05 18:22:58 | 49.19638 | 8.62610 | 54° | 15km/h | 27373m | 5.3m/s | -46.7°C | 0% | 18.8hPa | 2.6V | 03:26:39 | 01:53:23 | 00:00:00 | |
| DL1XH1-15 | 2026-09-05 18:22:57 | 49.19634 | 8.62582 | 97° | 22km/h | 27338m | 5.4m/s | -46.9°C | 3% | 18.9hPa | 2.7V | 03:26:25 | 01:53:17 | 00:00:00 | |
| BIOWL1-15 | 2026-09-05 18:22:56 | 49.19635 | 8.62603 | 58° | 9km/h | 27361m | 5.7m/s | -46.8°C | 0% | 18.8hPa | 2.6V | 03:26:39 | 01:53:21 | 00:00:00 | |
| SONDE2-11 | 2026-09-05 18:22:55 | 49.19634 | 8.62595 | 86° | 13km/h | 27351m | 5.6m/s | -46.8°C | 0.7% | 18.8hPa | 2.5V | 00:00:00 | 00:00:00 | 00:00:00 | |
| DF3TZ-5 | 2026-09-05 18:22:54 | 49.19634 | 8.62595 | 86° | 13km/h | 27351m | 5.6m/s | -46.8°C | 0.7% | 18.8hPa | 2.5V | 00:00:00 | 00:00:00 | 00:00:00 | |
| DM0DOS-11 | 2026-09-05 18:22:53 | 49.19638 | 8.62558 | 104° | 7km/h | 27316m | 5.2m/s | -47°C | 3% | 18.9hPa | 2.5V | 03:26:29 | 01:53:13 | 00:00:00 | |
| DL1XH-west | 2026-09-05 18:22:52 | 49.19634 | 8.62582 | 98° | 22km/h | 27338m | 5.4m/s | -46.9°C | 0% | 18.9hPa | 2.7V | 03:26:39 | 01:53:17 | 00:00:00 | |
| DK7TD | 2026-09-05 18:22:50 | 49.19636 | 8.62567 | 105° | 18km/h | 27328m | 5.8m/s | -47°C | 0.1% | 18.9hPa | 2.6V | 03:27:30 | 01:53:15 | 00:00:00 | |
| HSKMA3-T | 2026-09-05 18:22:48 | 49.19638 | 8.62558 | 105° | 7km/h | 27316m | 5.2m/s | -47.1°C | 0% | 18.9hPa | 2.5V | 03:26:39 | 01:53:13 | 00:00:00 | |
| DL1XH1-15 | 2026-09-05 18:22:47 | 49.19629 | 8.62550 | 3° | 11km/h | 27284m | 5.9m/s | -47.1°C | 3.1% | 19hPa | 2.5V | 03:26:35 | 01:53:07 | 00:00:00 | |
| DB0UT-7 | 2026-09-05 18:22:47 | 49.19638 | 8.62556 | 68° | 9km/h | 27312m | 4.6m/s | -47.0°C | 3.0% | 18.9hPa | 2.6V | 00:00:00 | 01:53:12 | 00:00:00 | |
| DJTTGO | 2026-09-05 18:22:46 | 49.19638 | 8.62556 | 68° | 4km/h | 27312m | 4.7m/s | -47.1°C | 0.7% | 18.9hPa | 2.6V | 03:26:00 | 00:00:00 | 00:00:00 | |
| IW2NTF | 2026-09-05 18:22:45 | 49.19623 | 8.62550 | 353° | 9km/h | 27272m | 5.4m/s | -47.1°C | 3.1% | 19.1hPa | 2.6V | 03:26:37 | 01:53:05 | 00:00:00 | |
| BIOWL1-15 | 2026-09-05 18:22:45 | 49.19636 | 8.62553 | 28° | 7km/h | 27300m | 6m/s | -47.1°C | 0% | 19hPa | 2.7V | 03:26:39 | 01:53:10 | 00:00:00 | |
| DC4HF-4 | 2026-09-05 18:22:44 | 49.19634 | 8.62552 | 22° | 9km/h | 27295m | 5.2m/s | -47.1°C | 0.8% | 19.0hPa | 2.7V | 00:00:00 | 00:00:00 | 00:00:00 | |
| DM0DOS-11 | 2026-09-05 18:22:43 | 49.19619 | 8.62548 | 51° | 9km/h | 27262m | 6m/s | -47.1°C | 3.1% | 19.1hPa | 2.7V | 03:26:39 | 01:53:03 | 00:00:00 | |
| DL1XH-west | 2026-09-05 18:22:41 | 49.19626 | 8.62550 | 353° | 11km/h | 27278m | 6.5m/s | -47.2°C | 0% | 19.1hPa | 2.6V | 03:26:39 | 01:53:06 | 00:00:00 | |
| DK7TD | 2026-09-05 18:22:40 | 49.19623 | 8.62550 | 353° | 9km/h | 27272m | 5.4m/s | -47.1°C | 0.1% | 19.1hPa | 2.6V | 03:27:30 | 01:53:05 | 00:00:00 | |
| BIOWL1-15 | 2026-09-05 18:22:38 | 49.19619 | 8.62531 | 113° | 9km/h | 27240m | 5.5m/s | -47.1°C | 0% | 19.1hPa | 2.6V | 03:27:30 | 01:52:59 | 00:00:00 | |
| DL1XH1-15 | 2026-09-05 18:22:37 | 49.19621 | 8.62529 | 243° | 4km/h | 27229m | 5.3m/s | -47.1°C | 3% | 19.2hPa | 2.7V | 03:26:45 | 01:52:57 | 00:00:00 | |
| HSKMA3-T | 2026-09-05 18:22:35 | 49.19618 | 8.62535 | 102° | 13km/h | 27245m | 4.4m/s | -47.1°C | 0% | 19.1hPa | 2.6V | 03:27:30 | 01:53:00 | 00:00:00 | |
| DL1XH-west | 2026-09-05 18:22:30 | 49.19620 | 8.62535 | 292° | 9km/h | 27219m | 5.1m/s | -47.2°C | 0% | 19.2hPa | 2.6V | 03:27:30 | 01:52:55 | 00:00:00 | |
| DK7TD | 2026-09-05 18:22:29 | 49.19619 | 8.62537 | 310° | 7km/h | 27213m | 5.7m/s | -47.2°C | 0% | 19.2hPa | 2.6V | 03:27:30 | 01:52:54 | 00:00:00 | |
| AZAK | 2026-09-05 18:22:29 | 49.19619 | 8.62537 | 311° | 7km/h | 27214m | 5.7m/s | -47.2°C | 0.7% | 19.3hPa | 2.6V | 00:00:00 | 00:00:00 | 00:00:00 | |
| DL1XH1-15 | 2026-09-05 18:22:27 | 49.19627 | 8.62538 | 204° | 11km/h | 27176m | 4.9m/s | -47.5°C | 3.1% | 19.3hPa | 2.6V | 03:26:55 | 01:52:47 | 00:00:00 | |
| BIOWL1-15 | 2026-09-05 18:22:24 | 49.19621 | 8.62536 | 177° | 11km/h | 27187m | 5.7m/s | -47.4°C | 0% | 19.3hPa | 2.6V | 03:27:30 | 01:52:49 | 00:00:00 | |
| DL1XH-west | 2026-09-05 18:22:19 | 49.19630 | 8.62544 | 289° | 5km/h | 27159m | 5.5m/s | -47.5°C | 0.1% | 19.4hPa | 2.6V | 03:27:30 | 01:52:44 | 00:00:00 | |
| DK7TD | 2026-09-05 18:22:18 | 49.19630 | 8.62546 | 291° | 5km/h | 27154m | 4.8m/s | -47.5°C | 0.1% | 19.4hPa | 2.7V | 03:27:30 | 01:52:43 | 00:00:00 | |
| BIOWL1-15 | 2026-09-05 18:22:14 | 49.19635 | 8.62560 | 219° | 18km/h | 27132m | 4.5m/s | -47.6°C | 0.1% | 19.5hPa | 2.6V | 03:27:30 | 01:52:39 | 00:00:00 | |
| HSKMA3-T | 2026-09-05 18:22:13 | 49.19638 | 8.62564 | 215° | 18km/h | 27127m | 5.4m/s | -47.6°C | 0.1% | 19.5hPa | 2.7V | 03:27:30 | 01:52:38 | 00:00:00 | |
| DL1XH-west | 2026-09-05 18:22:09 | 49.19651 | 8.62574 | 205° | 13km/h | 27104m | 4.9m/s | -47.6°C | 0.1% | 19.6hPa | 2.6V | 03:27:30 | 01:52:34 | 00:00:00 | |
| DK7TD | 2026-09-05 18:22:08 | 49.19654 | 8.62577 | 208° | 15km/h | 27099m | 6.5m/s | -47.7°C | 0.1% | 19.6hPa | 2.6V | 03:27:30 | 01:52:33 | 00:00:00 | |
| DO3MHA-11 | 2026-09-05 18:22:06 | 49.19661 | 8.62583 | 215° | 7km/h | 27088m | 4.8m/s | -47.6°C | 3.1% | 19.5hPa | 2.7V | 00:00:00 | 01:52:31 | 00:00:00 | |
| IW2NTF | 2026-09-05 18:22:05 | 49.19666 | 8.62590 | 204° | 5km/h | 27053m | 6.4m/s | -47.7°C | 3.1% | 19.7hPa | 2.7V | 03:27:17 | 01:52:25 | 00:00:00 | |
| DB0ND-19 | 2026-09-05 18:22:05 | 49.19663 | 8.62586 | 219° | 9km/h | 27082m | 5.6m/s | -47.7°C | 0.8% | 19.6hPa | 2.6V | 00:00:00 | 00:00:00 | 00:00:00 | |
| DL1ZP-14 | 2026-09-05 18:22:04 | 49.19665 | 8.62587 | 230° | 4km/h | 27076m | 6.8m/s | -47.8°C | 0.8% | 19.6hPa | 2.6V | 00:00:00 | 00:00:00 | 00:00:00 | |
| DM0DOS-11 | 2026-09-05 18:22:03 | 49.19670 | 8.62592 | 185° | 11km/h | 27042m | 4.9m/s | -47.7°C | 3.2% | 19.7hPa | 2.6V | 03:27:19 | 01:52:23 | 00:00:00 | |
| BIOWL1-15 | 2026-09-05 18:22:03 | 49.19665 | 8.62589 | 281° | 2km/h | 27070m | 5.6m/s | -47.8°C | 0.1% | 19.6hPa | 2.5V | 03:27:30 | 01:52:28 | 00:00:00 | |
| HSKMA3-T | 2026-09-05 18:22:02 | 49.19665 | 8.62589 | 310° | 2km/h | 27064m | 5m/s | -47.8°C | 0.1% | 19.7hPa | 2.6V | 03:27:30 | 01:52:27 | 00:00:00 | |
| BIOWL1-15 | 2026-09-05 18:22:01 | 49.19682 | 8.62585 | 157° | 7km/h | 27014m | 6.3m/s | -47.6°C | 0.1% | 19.8hPa | 2.6V | 03:27:30 | 01:52:18 | 00:00:00 | |
| DL1XH-west | 2026-09-05 18:21:59 | 49.19668 | 8.62591 | 195° | 11km/h | 27047m | 5.4m/s | -47.7°C | 0.1% | 19.7hPa | 2.7V | 03:27:30 | 01:52:24 | 00:00:00 | |
| DK7TD | 2026-09-05 18:21:57 | 49.19674 | 8.62592 | 173° | 11km/h | 27036m | 6.2m/s | -47.7°C | 0.1% | 19.7hPa | 2.6V | 03:27:30 | 01:52:22 | 00:00:00 | |
| DL3AQ-11 | 2026-09-05 18:21:54 | 49.19682 | 8.62585 | 156° | 7km/h | 27014m | 6.3m/s | -47.6°C | 0.8% | 19.8hPa | 2.6V | 00:00:00 | 00:00:00 | 00:00:00 | |
| DM0DOS-11 | 2026-09-05 18:21:53 | 49.19681 | 8.62582 | 6° | 11km/h | 26985m | 4.9m/s | -47.5°C | 3.2% | 19.9hPa | 2.6V | 03:27:29 | 01:52:13 | 00:00:00 | |
| HSKMA3-T | 2026-09-05 18:21:52 | 49.19684 | 8.62584 | 171° | 5km/h | 27008m | 5.9m/s | -47.6°C | 0.1% | 19.8hPa | 2.6V | 03:27:30 | 01:52:17 | 00:00:00 | |
| IW2NTF | 2026-09-05 18:21:52 | 49.19675 | 8.62583 | 341° | 9km/h | 26976m | 5.8m/s | -47.5°C | 3.2% | 19.9hPa | 2.7V | 03:27:31 | 01:52:11 | 00:00:00 | |
| DL1XH-west | 2026-09-05 18:21:48 | 49.19681 | 8.62582 | 7° | 13km/h | 26985m | 4.9m/s | -47.5°C | 0.2% | 19.9hPa | 2.6V | 03:27:30 | 01:52:13 | 00:00:00 | |
| DL1XH1-15 | 2026-09-05 18:21:47 | 49.19678 | 8.62590 | 202° | 11km/h | 26953m | 6m/s | -47.4°C | 3.1% | 20hPa | 2.6V | 03:27:35 | 01:52:07 | 00:00:00 | |
| DK7TD | 2026-09-05 18:21:47 | 49.19678 | 8.62582 | 360° | 11km/h | 26981m | 4.3m/s | -47.5°C | 0.1% | 19.9hPa | 2.6V | 03:27:30 | 01:52:12 | 00:00:00 | |
| BIOWL1-15 | 2026-09-05 18:21:46 | 49.19678 | 8.62590 | 203° | 11km/h | 26953m | 6m/s | -47.4°C | 0.1% | 20hPa | 2.6V | 03:28:21 | 01:52:07 | 00:00:00 | |
| DO3MHA-11 | 2026-09-05 18:21:46 | 49.19675 | 8.62583 | 342° | 7km/h | 26976m | 5.8m/s | -47.4°C | 3.2% | 19.9hPa | 2.6V | 00:00:00 | 01:52:11 | 00:00:00 | |
| OE5DXL-15 | 2026-09-05 18:21:45 | 49.19674 | 8.62584 | 295° | 11km/h | 26970m | 6.1m/s | -47.4°C | 3.2% | 19.9hPa | 2.6V | 00:00:00 | 00:00:00 | 00:00:00 | |
| DG9SBQ-11 | 2026-09-05 18:21:43 | 49.19675 | 8.62586 | 237° | 7km/h | 26964m | 5.2m/s | -47.4°C | 0.8% | 20.0hPa | 2.6V | 03:28:00 | 00:00:00 | 00:00:00 | |
| DM0DOS-11 | 2026-09-05 18:21:43 | 49.19687 | 8.62593 | 203° | 7km/h | 26932m | 4.9m/s | -47.3°C | 3.1% | 20.1hPa | 2.5V | 03:27:39 | 01:52:03 | 00:00:00 | |
| DL0LBS | 2026-09-05 18:21:42 | 49.19676 | 8.62588 | 215° | 9km/h | 26959m | 5.1m/s | -47.4°C | 0.8% | 20.0hPa | 2.6V | 03:28:00 | 00:00:00 | 00:00:00 | |
| IW2NTF | 2026-09-05 18:21:41 | 49.19690 | 8.62597 | 226° | 11km/h | 26920m | 6.3m/s | -47.3°C | 3% | 20.1hPa | 2.6V | 03:27:41 | 01:52:01 | 00:00:00 | |
| HSKMA3-T | 2026-09-05 18:21:41 | 49.19681 | 8.62591 | 190° | 9km/h | 26947m | 5.9m/s | -47.4°C | 0.1% | 20hPa | 2.7V | 03:28:21 | 01:52:06 | 00:00:00 | |
| DL1XH-west | 2026-09-05 18:21:38 | 49.19686 | 8.62593 | 204° | 7km/h | 26932m | 4.9m/s | -47.3°C | 0% | 20.1hPa | 2.5V | 03:28:21 | 01:52:03 | 00:00:00 | |
| DK7TD | 2026-09-05 18:21:38 | 49.19688 | 8.62594 | 216° | 9km/h | 26926m | 6.4m/s | -47.3°C | 0% | 20.1hPa | 2.5V | 03:28:21 | 01:52:02 | 00:00:00 | |
| DO1YAY-16 | 2026-09-05 18:21:38 | 49.19688 | 8.62594 | 216° | 7km/h | 26926m | 6.4m/s | -47.3°C | 0.7% | 20.1hPa | 2.5V | 00:00:00 | 00:00:00 | 00:00:00 | |
| DL1XH-15 | 2026-09-05 18:21:36 | 49.19694 | 8.62608 | 257° | 2km/h | 26893m | 3.9m/s | -47.4°C | 3.1% | 20.2hPa | 2.5V | 03:27:46 | 01:51:56 | 00:00:00 | |
| DO3MHA-11 | 2026-09-05 18:21:36 | 49.19690 | 8.62597 | 227° | 9km/h | 26920m | 6.2m/s | -47.2°C | 3.0% | 20.1hPa | 2.6V | 00:00:00 | 01:52:01 | 00:00:00 | |
| DD1CC8 | 2026-09-05 18:21:35 | 49.19692 | 8.62600 | 232° | 9km/h | 26914m | 5.4m/s | -47.3°C | 0.7% | 20.1hPa | 2.6V | 00:00:00 | 00:00:00 | 00:00:00 | |
| DJTTGO | 2026-09-05 18:21:34 | 49.19693 | 8.62603 | 242° | 9km/h | 26909m | 5.6m/s | -47.3°C | 0.7% | 20.1hPa | 2.6V | 03:28:00 | 00:00:00 | 00:00:00 | |
| DM0DOS-11 | 2026-09-05 18:21:33 | 49.19699 | 8.62614 | 212° | 16km/h | 26876m | 5.9m/s | -47.5°C | 3.1% | 20.2hPa | 2.6V | 03:27:49 | 01:51:53 | 00:00:00 | |
| BIOWL1-15 | 2026-09-05 18:21:32 | 49.19694 | 8.62607 | 288° | 2km/h | 26897m | 4.9m/s | -47.4°C | 0% | 20.2hPa | 2.7V | 03:28:21 | 01:51:57 | 00:00:00 | |
| HSKMA3-T | 2026-09-05 18:21:30 | 49.19694 | 8.62609 | 225° | 5km/h | 26888m | 5m/s | -47.4°C | 0.1% | 20.2hPa | 2.6V | 03:28:21 | 01:51:55 | 00:00:00 | |
| DL1XH-west | 2026-09-05 18:21:28 | 49.19699 | 8.62614 | 212° | 16km/h | 26876m | 5.9m/s | -47.5°C | 0% | 20.2hPa | 2.6V | 03:28:21 | 01:51:53 | 00:00:00 | |
| DL1XH1-15 | 2026-09-05 18:21:27 | 49.19727 | 8.62624 | 188° | 20km/h | 26843m | 6m/s | -47.4°C | 3.1% | 20.4hPa | 2.6V | 03:27:55 | 01:51:47 | 00:00:00 | |
| DK7TD | 2026-09-05 18:21:26 | 49.19707 | 8.62620 | 199° | 20km/h | 26865m | 6m/s | -47.5°C | 0.1% | 20.3hPa | 2.7V | 03:28:21 | 01:51:51 | 00:00:00 | |
| BIOWL1-15 | 2026-09-05 18:21:24 | 49.19727 | 8.62624 | 189° | 20km/h | 26843m | 6m/s | -47.4°C | 0.1% | 20.4hPa | 2.6V | 03:28:21 | 01:51:47 | 00:00:00 | |
| DM0DOS-11 | 2026-09-05 18:21:23 | 49.19741 | 8.62633 | 209° | 9km/h | 26821m | 6.2m/s | -47.4°C | 3.1% | 20.4hPa | 2.6V | 03:27:59 | 01:51:43 | 00:00:00 | |
| IW2NTF | 2026-09-05 18:21:22 | 49.19743 | 8.62634 | 192° | 4km/h | 26815m | 6.5m/s | -47.4°C | 3.1% | 20.4hPa | 2.6V | 03:28:00 | 01:51:42 | 00:00:00 | |
| HSKMA3-T | 2026-09-05 18:21:20 | 49.19736 | 8.62628 | 204° | 16km/h | 26832m | 5.1m/s | -47.4°C | 0% | 20.4hPa | 2.7V | 03:28:21 | 01:51:45 | 00:00:00 | |
| HEMX73-11 | 2026-09-05 18:21:19 | 49.19739 | 8.62630 | 210° | 13km/h | 26827m | 4.5m/s | -47.4°C | 0.8% | 20.4hPa | 2.7V | 03:28:00 | 00:00:00 | 00:00:00 | |
| DO3DL | 2026-09-05 18:21:18 | 49.19739 | 8.62630 | 210° | 13km/h | 26827m | 4.5m/s | -47.4°C | 0.8% | 20.4hPa | 2.7V | 03:28:00 | 00:00:00 | 00:00:00 | |
| DL1XH1-15 | 2026-09-05 18:21:17 | 49.19757 | 8.62632 | 174° | 24km/h | 26786m | 4.6m/s | -47.3°C | 3.1% | 20.5hPa | 2.7V | 03:28:05 | 01:51:37 | 00:00:00 | |
| DL1XH-west | 2026-09-05 18:21:17 | 49.19743 | 8.62634 | 192° | 4km/h | 26815m | 6.6m/s | -47.4°C | 0.1% | 20.4hPa | 2.6V | 03:28:21 | 01:51:42 | 00:00:00 | |
| DK7TD | 2026-09-05 18:21:15 | 49.19745 | 8.62633 | 169° | 7km/h | 26804m | 5.2m/s | -47.3°C | 0.1% | 20.5hPa | 2.7V | 03:28:21 | 01:51:40 | 00:00:00 | |
| OE5DXL-15 | 2026-09-05 18:21:14 | 49.19748 | 8.62633 | 178° | 18km/h | 26798m | 6.4m/s | 0°C | 0% | 0hPa | 2.6V | 00:00:00 | 00:00:00 | 00:00:00 | |
| DL1XH-15 | 2026-09-05 18:21:13 | 49.19783 | 8.62622 | 163° | 26km/h | 26764m | 4.8m/s | -47.5°C | 3.1% | 20.6hPa | 2.6V | 03:28:09 | 01:51:33 | 00:00:00 | |
| BIOWL9-15 | 2026-09-05 18:21:12 | 49.19757 | 8.62632 | 174° | 24km/h | 26787m | 4.6m/s | -47.3°C | 0.8% | 20.5hPa | 2.7V | 00:00:00 | 00:00:00 | 00:00:00 | |
| IW2NTF | 2026-09-05 18:21:11 | 49.19794 | 8.62619 | 175° | 16km/h | 26753m | 5m/s | -47.6°C | 3.1% | 20.6hPa | 2.7V | 03:28:11 | 01:51:31 | 00:00:00 | |
| BIOWL1-15 | 2026-09-05 18:21:11 | 49.19764 | 8.62630 | 169° | 26km/h | 26781m | 5.9m/s | -47.3°C | 0% | 20.5hPa | 2.6V | 03:28:21 | 01:51:36 | 00:00:00 | |
| HSKMA3-T | 2026-09-05 18:21:10 | 49.19770 | 8.62628 | 164° | 27km/h | 26775m | 6.4m/s | -47.4°C | 0.1% | 20.6hPa | 2.5V | 03:28:21 | 01:51:35 | 00:00:00 | |
| DJTTGO | 2026-09-05 18:21:09 | 49.19770 | 8.62628 | 165° | 27km/h | 26775m | 6.4m/s | -47.4°C | 0.8% | 20.6hPa | 2.7V | 03:28:00 | 00:00:00 | 00:00:00 | |
| DL1XH1-15 | 2026-09-05 18:21:07 | 49.19797 | 8.62615 | 28° | 9km/h | 26729m | 5.6m/s | -47.6°C | 3% | 20.7hPa | 2.7V | 03:28:15 | 01:51:27 | 00:00:00 | |
| DL1XH-west | 2026-09-05 18:21:06 | 49.19794 | 8.62619 | 175° | 16km/h | 26754m | 5m/s | -47.6°C | 0% | 20.6hPa | 2.7V | 03:28:21 | 01:51:31 | 00:00:00 | |
| DK7TD | 2026-09-05 18:21:04 | 49.19799 | 8.62618 | 152° | 4km/h | 26743m | 6.3m/s | -47.6°C | 0% | 20.7hPa | 2.6V | 03:28:21 | 01:51:29 | 00:00:00 | |
| DM0DOS-11 | 2026-09-05 18:21:03 | 49.19794 | 8.62611 | 176° | 7km/h | 26707m | 5.7m/s | -47.7°C | 3.1% | 20.8hPa | 2.6V | 03:28:19 | 01:51:23 | 00:00:00 | |
| DB0ND-19 | 2026-09-05 18:21:03 | 49.19797 | 8.62615 | 28° | 9km/h | 26730m | 5.6m/s | -47.6°C | 0.7% | 20.7hPa | 2.7V | 00:00:00 | 00:00:00 | 00:00:00 | |
| DL1ZP-14 | 2026-09-05 18:21:02 | 49.19797 | 8.62615 | 28° | 9km/h | 26730m | 5.6m/s | -47.6°C | 0.7% | 20.7hPa | 2.7V | 00:00:00 | 00:00:00 | 00:00:00 | |
| IW2NTF | 2026-09-05 18:21:01 | 49.19800 | 8.62609 | 163° | 16km/h | 26696m | 6.1m/s | -47.8°C | 3.2% | 20.8hPa | 2.6V | 03:28:21 | 01:51:21 | 00:00:00 | |
| BIOWL1-15 | 2026-09-05 18:21:00 | 49.19793 | 8.62612 | 31° | 5km/h | 26719m | 5.8m/s | -47.7°C | 0% | 20.7hPa | 2.6V | 03:28:21 | 01:51:25 | 00:00:00 | |
| HSKMA3-T | 2026-09-05 18:20:59 | 49.19793 | 8.62611 | 134° | 2km/h | 26713m | 6.2m/s | 0°C | 0% | 20.7hPa | 2.5V | 03:28:21 | 01:51:24 | 00:00:00 | |
| DO3DL | 2026-09-05 18:20:59 | 49.19792 | 8.62611 | 0° | 0km/h | 26713m | 6.2m/s | -47.7°C | 0.8% | 20.7hPa | 2.5V | 03:28:00 | 00:00:00 | 00:00:00 | |
| HEMX73-11 | 2026-09-05 18:20:58 | 49.19792 | 8.62611 | 0° | 0km/h | 26713m | 6.2m/s | -47.7°C | 0.8% | 20.7hPa | 2.5V | 03:28:00 | 00:00:00 | 00:00:00 | |
| DL1XH1-15 | 2026-09-05 18:20:57 | 49.19816 | 8.62597 | 157° | 15km/h | 26674m | 6.1m/s | -47.8°C | 3.1% | 20.9hPa | 2.5V | 03:28:25 | 01:51:17 | 00:00:00 | |
| DL1XH-west | 2026-09-05 18:20:56 | 49.19800 | 8.62609 | 163° | 16km/h | 26696m | 6.1m/s | -47.8°C | 0.1% | 20.8hPa | 2.6V | 03:28:21 | 01:51:21 | 00:00:00 | |
| DK7TD | 2026-09-05 18:20:54 | 49.19809 | 8.62603 | 149° | 18km/h | 26684m | 4.6m/s | -47.8°C | 0.1% | 20.8hPa | 2.7V | 03:30:03 | 01:51:19 | 00:00:00 | |
| DM0DOS-11 | 2026-09-05 18:20:53 | 49.19824 | 8.62595 | 140° | 2km/h | 26651m | 6.4m/s | -47.9°C | 3.1% | 20.9hPa | 2.7V | 03:28:29 | 01:51:13 | 00:00:00 | |
| BIOWL1-15 | 2026-09-05 18:20:52 | 49.19822 | 8.62595 | 183° | 9km/h | 26662m | 5.3m/s | -47.8°C | 0% | 20.9hPa | 2.6V | 03:29:12 | 01:51:15 | 00:00:00 | |
| SONDE2-11 | 2026-09-05 18:20:51 | 49.19822 | 8.62595 | 182° | 7km/h | 26663m | 5.3m/s | -47.8°C | 0.8% | 20.9hPa | 2.5V | 00:00:00 | 00:00:00 | 00:00:00 | |
| IW2NTF | 2026-09-05 18:20:50 | 49.19826 | 8.62591 | 138° | 7km/h | 26636m | 4.5m/s | -48°C | 3.1% | 21hPa | 2.5V | 03:28:32 | 01:51:10 | 00:00:00 | |
| HSKMA3-T | 2026-09-05 18:20:48 | 49.19824 | 8.62595 | 140° | 2km/h | 26651m | 6.4m/s | 0°C | 0% | 20.9hPa | 2.7V | 18:12:15 | 01:51:13 | 00:00:00 | |
| DL1XH-west | 2026-09-05 18:20:46 | 49.19825 | 8.62593 | 106° | 5km/h | 26640m | 4.2m/s | -48°C | 0.1% | 21hPa | 2.6V | 03:29:12 | 01:51:11 | 00:00:00 | |
| BIOWL1-15 | 2026-09-05 18:20:45 | 49.19850 | 8.62586 | 155° | 20km/h | 26603m | 5.9m/s | -48.1°C | 0.1% | 21.1hPa | 2.6V | 03:29:12 | 01:51:04 | 00:00:00 | |
| DK7TD | 2026-09-05 18:20:44 | 49.19827 | 8.62589 | 166° | 9km/h | 26631m | 6.3m/s | -48°C | 0% | 21hPa | 2.5V | 03:30:03 | 01:51:09 | 00:00:00 | |
| OE5DXL-15 | 2026-09-05 18:20:44 | 49.19827 | 8.62589 | 166° | 16km/h | 26631m | 6.2m/s | 0°C | 0% | 0hPa | 2.6V | 03:28:00 | 00:00:00 | 00:00:00 | |
| DM0DOS-11 | 2026-09-05 18:20:43 | 49.19854 | 8.62582 | 144° | 20km/h | 26598m | 4.6m/s | -48.1°C | 3.1% | 21.1hPa | 2.6V | 03:28:39 | 01:51:03 | 00:00:00 | |
| DL1XH-15 | 2026-09-05 18:20:42 | 49.19858 | 8.62577 | 142° | 20km/h | 26593m | 4.2m/s | -48.1°C | 3.1% | 21.1hPa | 2.7V | 03:28:40 | 01:51:02 | 00:00:00 | |
| HSKMA3-T | 2026-09-05 18:20:38 | 49.19854 | 8.62582 | 144° | 20km/h | 26598m | 4.6m/s | 0°C | 0% | 0hPa | 2.6V | 18:12:15 | 01:51:03 | 00:00:00 | |
| DL1XH1-15 | 2026-09-05 18:20:37 | 49.19883 | 8.62561 | 164° | 20km/h | 26568m | 4.6m/s | -48.3°C | 3.1% | 21.2hPa | 2.7V | 03:28:45 | 01:50:57 | 00:00:00 | |
| DL1XH-west | 2026-09-05 18:20:36 | 49.19863 | 8.62572 | 147° | 22km/h | 26589m | 5.2m/s | -48.1°C | 0% | 21.1hPa | 2.7V | 03:29:12 | 01:51:01 | 00:00:00 | |
| DJ2KF-10 | 2026-09-05 18:20:36 | 49.19862 | 8.62572 | 147° | 15km/h | 26589m | 5.1m/s | -48.1°C | 3.1% | 21.1hPa | 2.7V | 00:00:00 | 01:51:01 | 00:00:00 | |
| DO1YAY-16 | 2026-09-05 18:20:35 | 49.19867 | 8.62568 | 154° | 20km/h | 26583m | 6.2m/s | -48.1°C | 0.7% | 21.1hPa | 2.7V | 00:00:00 | 00:00:00 | 00:00:00 | |
| DM0DOS-11 | 2026-09-05 18:20:33 | 49.19893 | 8.62550 | 85° | 7km/h | 26546m | 5.4m/s | -48.4°C | 3.2% | 21.3hPa | 2.7V | 03:28:49 | 01:50:53 | 00:00:00 | |
| DO8TBO-1 | 2026-09-05 18:20:33 | 49.19878 | 8.62563 | 167° | 13km/h | 26573m | 4.2m/s | -48.2°C | 3.1% | 21.1hPa | 2.7V | 00:00:00 | 01:50:58 | 00:00:00 | |
| DL1XH-15 | 2026-09-05 18:20:32 | 49.19893 | 8.62547 | 76° | 4km/h | 26540m | 5.3m/s | -48.4°C | 3.2% | 21.3hPa | 2.7V | 03:28:50 | 01:50:52 | 00:00:00 | |
| DK7TD | 2026-09-05 18:20:32 | 49.19883 | 8.62561 | 165° | 20km/h | 26568m | 4.6m/s | -48.3°C | 0.1% | 21.2hPa | 2.7V | 03:30:03 | 01:50:57 | 00:00:00 | |
| BIOWL1-15 | 2026-09-05 18:20:30 | 49.19893 | 8.62550 | 86° | 7km/h | 26546m | 5.4m/s | -48.4°C | 0.1% | 21.3hPa | 2.7V | 03:29:12 | 01:50:53 | 00:00:00 | |
| HSKMA3-T | 2026-09-05 18:20:27 | 49.19893 | 8.62548 | 76° | 4km/h | 26540m | 5.3m/s | 0°C | 0% | 0hPa | 2.7V | 18:12:15 | 01:50:52 | 00:00:00 | |
| DL1XH-west | 2026-09-05 18:20:26 | 49.19892 | 8.62547 | 126° | 2km/h | 26534m | 6.3m/s | -48.4°C | 0.1% | 21.3hPa | 2.6V | 03:29:12 | 01:50:51 | 00:00:00 | |
| DK5PH-5 | 2026-09-05 18:20:25 | 49.19893 | 8.62547 | 194° | 15km/h | 26529m | 5.0m/s | -48.4°C | 3.2% | 21.3hPa | 2.6V | 00:00:00 | 01:50:50 | 00:00:00 | |
| IW2NTF | 2026-09-05 18:20:24 | 49.19910 | 8.62528 | 135° | 22km/h | 26496m | 6.1m/s | -48.7°C | 3.2% | 21.4hPa | 2.6V | 03:28:58 | 01:50:44 | 00:00:00 | |
| DM0DOS-11 | 2026-09-05 18:20:23 | 49.19914 | 8.62523 | 136° | 22km/h | 26490m | 5.8m/s | -48.8°C | 3.2% | 21.4hPa | 2.6V | 03:28:59 | 01:50:43 | 00:00:00 | |
| DK7TD | 2026-09-05 18:20:21 | 49.19902 | 8.62540 | 135° | 18km/h | 26508m | 5.8m/s | -48.7°C | 0.2% | 21.4hPa | 2.6V | 03:30:03 | 01:50:46 | 00:00:00 | |
| BIOWL1-15 | 2026-09-05 18:20:18 | 49.19914 | 8.62522 | 137° | 22km/h | 26490m | 5.8m/s | -48.8°C | 0.1% | 21.4hPa | 2.6V | 03:29:12 | 01:50:43 | 00:00:00 | |
| NBG1-10 | 2026-09-05 18:20:18 | 49.19914 | 8.62522 | 137° | 15km/h | 26491m | 5.7m/s | -48.7°C | 3.2% | 21.4hPa | 2.5V | 00:00:00 | 01:50:43 | 00:00:00 | |
| DL1XH1-15 | 2026-09-05 18:20:17 | 49.19918 | 8.62484 | 49° | 18km/h | 26459m | 4.1m/s | -49°C | 3.2% | 21.6hPa | 2.5V | 03:29:05 | 01:50:37 | 00:00:00 | |
| DL1XH-west | 2026-09-05 18:20:16 | 49.19921 | 8.62511 | 121° | 18km/h | 26481m | 4.6m/s | -48.8°C | 0.1% | 21.5hPa | 2.7V | 03:29:12 | 01:50:41 | 00:00:00 | |
| DO3MHA-11 | 2026-09-05 18:20:16 | 49.19921 | 8.62511 | 122° | 13km/h | 26481m | 4.5m/s | -48.8°C | 3.2% | 21.5hPa | 2.7V | 00:00:00 | 01:50:41 | 00:00:00 | |
| DJ2DS-15 | 2026-09-05 18:20:15 | 49.19922 | 8.62504 | 102° | 16km/h | 26476m | 5.8m/s | -48.9°C | 0.8% | 21.5hPa | 2.7V | 00:00:00 | 00:00:00 | 00:00:00 | |
| IW2NTF | 2026-09-05 18:20:14 | 49.19911 | 8.62476 | 7° | 4km/h | 26442m | 5.3m/s | -49°C | 3.3% | 21.6hPa | 2.7V | 03:29:08 | 01:50:34 | 00:00:00 | |
| DM0DOS-11 | 2026-09-05 18:20:13 | 49.19910 | 8.62476 | 154° | 2km/h | 26437m | 4.6m/s | -49.1°C | 3.3% | 21.6hPa | 2.7V | 03:29:09 | 01:50:33 | 00:00:00 | |
| DK7TD | 2026-09-05 18:20:10 | 49.19912 | 8.62477 | 24° | 9km/h | 26448m | 6m/s | -49°C | 0.1% | 21.6hPa | 2.6V | 03:30:03 | 01:50:35 | 00:00:00 | |
| BIOWL1-15 | 2026-09-05 18:20:09 | 49.19911 | 8.62475 | 151° | 7km/h | 26433m | 5.4m/s | -49.1°C | 0.2% | 21.7hPa | 2.7V | 03:29:12 | 01:50:32 | 00:00:00 | |
| DG9SBQ-11 | 2026-09-05 18:20:09 | 49.19911 | 8.62476 | 9° | 4km/h | 26443m | 5.3m/s | -49.1°C | 0.8% | 21.6hPa | 2.7V | 03:29:00 | 00:00:00 | 00:00:00 | |
| BIOWL7-15 | 2026-09-05 18:20:08 | 49.19911 | 8.62476 | 9° | 4km/h | 26443m | 5.3m/s | -49.1°C | 0.8% | 21.6hPa | 2.7V | 00:00:00 | 00:00:00 | 00:00:00 | |
| DL1XH1-15 | 2026-09-05 18:20:07 | 49.19930 | 8.62452 | 143° | 22km/h | 26403m | 5.5m/s | -49.3°C | 3.4% | 21.7hPa | 2.7V | 03:29:15 | 01:50:27 | 00:00:00 | |
| DL1XH-west | 2026-09-05 18:20:06 | 49.19914 | 8.62473 | 142° | 13km/h | 26426m | 6.5m/s | -49.2°C | 0.2% | 21.7hPa | 2.5V | 03:29:12 | 01:50:31 | 00:00:00 | |
| DO3MHA-11 | 2026-09-05 18:20:06 | 49.19914 | 8.62473 | 142° | 16km/h | 26427m | 6.5m/s | -49.2°C | 3.3% | 21.6hPa | 2.5V | 00:00:00 | 01:50:31 | 00:00:00 | |
| DL1XH-15 | 2026-09-05 18:20:05 | 49.19936 | 8.62443 | 125° | 15km/h | 26394m | 4.6m/s | -49.4°C | 3.4% | 21.8hPa | 2.5V | 03:29:17 | 01:50:25 | 00:00:00 | |
| DO1YAY-16 | 2026-09-05 18:20:04 | 49.19925 | 8.62458 | 141° | 22km/h | 26409m | 6.3m/s | -49.3°C | 0.8% | 21.7hPa | 2.7V | 00:00:00 | 00:00:00 | 00:00:00 | |
| DM0DOS-11 | 2026-09-05 18:20:03 | 49.19937 | 8.62434 | 71° | 11km/h | 26382m | 6m/s | -49.4°C | 3.4% | 21.8hPa | 2.7V | 03:29:19 | 01:50:23 | 00:00:00 | |
| DK7TD | 2026-09-05 18:19:59 | 49.19937 | 8.62439 | 103° | 13km/h | 26388m | 6.3m/s | -49.4°C | 0.2% | 21.8hPa | 2.6V | 03:30:03 | 01:50:24 | 00:00:00 | |
| BIOWL1-15 | 2026-09-05 18:19:56 | 49.19934 | 8.62429 | 26° | 7km/h | 26372m | 5.2m/s | -49.4°C | 0.2% | 21.9hPa | 2.6V | 03:30:03 | 01:50:21 | 00:00:00 | |
| DL1XH-west | 2026-09-05 18:19:55 | 49.19933 | 8.62429 | 323° | 5km/h | 26366m | 6.5m/s | -49.4°C | 0.2% | 21.9hPa | 2.6V | 03:30:03 | 01:50:20 | 00:00:00 | |
| DF7PN | 2026-09-05 18:19:55 | 49.19933 | 8.62429 | 322° | 4km/h | 26366m | 6.5m/s | -49.4°C | 0.8% | 21.9hPa | 2.7V | 00:00:00 | 00:00:00 | 00:00:00 | |
| DL3AQ-11 | 2026-09-05 18:19:54 | 49.19933 | 8.62434 | 239° | 11km/h | 26355m | 4.5m/s | -49.3°C | 0.8% | 21.9hPa | 2.7V | 00:00:00 | 00:00:00 | 00:00:00 | |
| DM0DOS-11 | 2026-09-05 18:19:53 | 49.19945 | 8.62435 | 135° | 15km/h | 26327m | 5.2m/s | -49.6°C | 3.4% | 22hPa | 2.7V | 03:29:29 | 01:50:13 | 00:00:00 | |
| DK7TD | 2026-09-05 18:19:48 | 49.19945 | 8.62435 | 135° | 15km/h | 26327m | 5.3m/s | -49.6°C | 0.2% | 22hPa | 2.7V | 03:30:03 | 01:50:13 | 00:00:00 | |
| BIOWL1-15 | 2026-09-05 18:19:48 | 49.19949 | 8.62427 | 120° | 11km/h | 26316m | 4.9m/s | -49.6°C | 0.2% | 22hPa | 2.6V | 03:30:03 | 01:50:11 | 00:00:00 | |
| DF3TZ-5 | 2026-09-05 18:19:48 | 49.19947 | 8.62431 | 130° | 13km/h | 26322m | 6.0m/s | -49.6°C | 0.8% | 22.0hPa | 2.7V | 00:00:00 | 00:00:00 | 00:00:00 | |
| DL1XH1-15 | 2026-09-05 18:19:47 | 49.19942 | 8.62415 | 20° | 18km/h | 26295m | 5.4m/s | -49.7°C | 3.5% | 22.1hPa | 2.7V | 03:29:35 | 01:50:07 | 00:00:00 | |
| DB0UT-7 | 2026-09-05 18:19:47 | 49.19947 | 8.62431 | 131° | 7km/h | 26322m | 6.0m/s | -49.6°C | 3.3% | 22.0hPa | 2.6V | 03:29:00 | 01:50:12 | 00:00:00 | |
| DO3MHA-11 | 2026-09-05 18:19:46 | 49.19949 | 8.62427 | 120° | 11km/h | 26317m | 4.9m/s | -49.6°C | 3.4% | 22.0hPa | 2.6V | 00:00:00 | 01:50:11 | 00:00:00 | |
| DL1XH-15 | 2026-09-05 18:19:45 | 49.19935 | 8.62412 | 3° | 13km/h | 26286m | 5.3m/s | -49.8°C | 3.5% | 0hPa | 2.6V | 03:29:37 | 01:50:05 | 00:00:00 | |
| DL1XH-west | 2026-09-05 18:19:44 | 49.19949 | 8.62421 | 50° | 11km/h | 26307m | 5.3m/s | -49.7°C | 0.3% | 22.1hPa | 2.7V | 03:30:03 | 01:50:09 | 00:00:00 | |
| DJ2KF-10 | 2026-09-05 18:19:44 | 49.19949 | 8.62421 | 50° | 5km/h | 26308m | 5.2m/s | -49.6°C | 3.4% | 22.0hPa | 2.6V | 03:29:00 | 01:50:09 | 00:00:00 | |
| SONCRA | 2026-09-05 18:19:43 | 49.19946 | 8.62418 | 31° | 15km/h | 26301m | 6.6m/s | -49.7°C | -1.0% | -1.0hPa | 2.6V | 00:00:00 | 00:00:00 | 00:00:00 | |
| HARRO8 | 2026-09-05 18:19:42 | 49.19942 | 8.62415 | 20° | 16km/h | 26295m | 5.4m/s | -49.7°C | 0.9% | 22.1hPa | 2.6V | 00:00:00 | 00:00:00 | 00:00:00 | |
| KANTATE | 2026-09-05 18:19:40 | 49.19935 | 8.62412 | 4° | 13km/h | 26286m | 5.3m/s | -49.8°C | 0.9% | 22.2hPa | 2.6V | 03:30:00 | 00:00:00 | 00:00:00 | |
| BIOWL9-15 | 2026-09-05 18:19:39 | 49.19932 | 8.62412 | 347° | 5km/h | 26280m | 6.6m/s | -49.8°C | 0.8% | 22.2hPa | 2.6V | 00:00:00 | 00:00:00 | 00:00:00 | |
| DB0UT-9 | 2026-09-05 18:19:38 | 49.19932 | 8.62412 | 348° | 5km/h | 26280m | 6.6m/s | -49.8°C | 0.9% | 22.2hPa | 2.6V | 03:30:00 | 00:00:00 | 00:00:00 | |
| DL1XH1-15 | 2026-09-05 18:19:37 | 49.19935 | 8.62405 | 59° | 5km/h | 26244m | 5.3m/s | -49.8°C | 3.5% | 22.3hPa | 2.6V | 03:29:45 | 01:49:57 | 00:00:00 | |
| DK7TD | 2026-09-05 18:19:37 | 49.19933 | 8.62413 | 183° | 5km/h | 26269m | 4.6m/s | -49.8°C | 0.3% | 22.2hPa | 2.7V | 03:30:03 | 01:50:02 | 00:00:00 | |
| DO3MHA-11 | 2026-09-05 18:19:36 | 49.19934 | 8.62413 | 160° | 5km/h | 26264m | 5.7m/s | -49.7°C | 3.5% | 22.2hPa | 2.7V | 00:00:00 | 01:50:01 | 00:00:00 | |
| DL1XH-15 | 2026-09-05 18:19:35 | 49.19934 | 8.62404 | 345° | 4km/h | 26233m | 5.6m/s | -49.8°C | 3.5% | 0hPa | 2.7V | 03:29:47 | 01:49:55 | 00:00:00 | |
| BIOWL1-15 | 2026-09-05 18:19:35 | 49.19935 | 8.62412 | 130° | 5km/h | 26259m | 5.5m/s | -49.8°C | 0.3% | 22.2hPa | 2.6V | 03:30:03 | 01:50:00 | 00:00:00 | |
| IW2NTF | 2026-09-05 18:19:34 | 49.19933 | 8.62404 | 347° | 4km/h | 26227m | 5.2m/s | -49.7°C | 3.5% | 22.4hPa | 2.7V | 03:29:48 | 01:49:54 | 00:00:00 | |
| DL1XH-west | 2026-09-05 18:19:34 | 49.19936 | 8.62410 | 101° | 5km/h | 26253m | 4.9m/s | -49.8°C | 0.4% | 22.3hPa | 2.5V | 03:30:03 | 01:49:59 | 00:00:00 | |
| DO1YAY-16 | 2026-09-05 18:19:33 | 49.19935 | 8.62405 | 59° | 4km/h | 26244m | 5.3m/s | -49.8°C | 0.9% | 22.3hPa | 2.7V | 00:00:00 | 00:00:00 | 00:00:00 | |
| DD1CC8 | 2026-09-05 18:19:31 | 49.19934 | 8.62404 | 345° | 2km/h | 26233m | 5.6m/s | -49.8°C | 0.9% | 22.4hPa | 2.7V | 00:00:00 | 00:00:00 | 00:00:00 | |
| DB0ND-19 | 2026-09-05 18:19:30 | 49.19933 | 8.62404 | 347° | 4km/h | 26227m | 5.2m/s | -49.7°C | 0.9% | 22.4hPa | 2.7V | 00:00:00 | 00:00:00 | 00:00:00 | |
| DL1ZP-14 | 2026-09-05 18:19:29 | 49.19933 | 8.62404 | 347° | 4km/h | 26227m | 5.2m/s | -49.7°C | 0.9% | 22.4hPa | 2.7V | 00:00:00 | 00:00:00 | 00:00:00 | |
| DB0NH | 2026-09-05 18:19:28 | 49.19932 | 8.62404 | 12° | 5km/h | 26222m | 5.5m/s | -49.7°C | 3.4% | 22.3hPa | 2.5V | 00:00:00 | 01:49:53 | 00:00:00 | |
| DL1XH1-15 | 2026-09-05 18:19:27 | 49.19923 | 8.62400 | 308° | 7km/h | 26188m | 5.6m/s | -49.6°C | 3.5% | 22.5hPa | 2.5V | 03:29:55 | 01:49:47 | 00:00:00 | |
| DK7TD | 2026-09-05 18:19:26 | 49.19929 | 8.62402 | 40° | 9km/h | 26209m | 5.3m/s | -49.7°C | 0.3% | 22.4hPa | 2.6V | 03:30:03 | 01:49:51 | 00:00:00 | |
| DO3MHA-11 | 2026-09-05 18:19:26 | 49.19929 | 8.62401 | 41° | 5km/h | 26210m | 5.2m/s | -49.6°C | 3.5% | 22.4hPa | 2.6V | 00:00:00 | 01:49:51 | 00:00:00 | |
| DL1XH-15 | 2026-09-05 18:19:25 | 49.19921 | 8.62403 | 320° | 5km/h | 26177m | 6.2m/s | 0°C | 0% | 0hPa | 2.6V | 03:29:57 | 01:49:45 | 00:00:00 | |
| DK5PH-5 | 2026-09-05 18:19:25 | 49.19927 | 8.62399 | 35° | 5km/h | 26205m | 4.3m/s | -49.6°C | 3.4% | 22.4hPa | 2.6V | 03:29:00 | 01:49:50 | 00:00:00 | |
| IW2NTF | 2026-09-05 18:19:24 | 49.19920 | 8.62404 | 356° | 4km/h | 26171m | 5.4m/s | -49.5°C | 3.4% | 22.5hPa | 2.7V | 03:29:58 | 01:49:44 | 00:00:00 | |
| BIOWL1-15 | 2026-09-05 18:19:24 | 49.19926 | 8.62398 | 15° | 5km/h | 26200m | 5.4m/s | -49.7°C | 0.3% | 22.5hPa | 2.7V | 03:30:03 | 01:49:49 | 00:00:00 | |
| DL1XH-west | 2026-09-05 18:19:23 | 49.19924 | 8.62398 | 337° | 5km/h | 26194m | 6.4m/s | -49.6°C | 0.3% | 22.5hPa | 2.7V | 03:30:03 | 01:49:48 | 00:00:00 | |
| DO8TBO-1 | 2026-09-05 18:19:20 | 49.19921 | 8.62403 | 321° | 7km/h | 26177m | 6.1m/s | -49.5°C | 3.4% | 22.5hPa | 2.6V | 00:00:00 | 01:49:45 | 00:00:00 | |
| DL0LBS | 2026-09-05 18:19:18 | 49.19920 | 8.62404 | 357° | 5km/h | 26171m | 5.4m/s | -49.5°C | 0.9% | 22.5hPa | 2.7V | 03:30:00 | 00:00:00 | 00:00:00 | |
| DF3TZ-5 | 2026-09-05 18:19:17 | 49.19917 | 8.62403 | 340° | 4km/h | 26157m | 5.8m/s | -49.4°C | 0.8% | 22.6hPa | 2.7V | 00:00:00 | 00:00:00 | 00:00:00 | |
| DO3MHA-11 | 2026-09-05 18:19:16 | 49.19917 | 8.62403 | 341° | 4km/h | 26157m | 5.7m/s | -49.4°C | 3.4% | 22.5hPa | 2.7V | 03:30:00 | 01:49:41 | 00:00:00 | |
| DL1XH-15 | 2026-09-05 18:19:15 | 49.19911 | 8.62409 | 30° | 4km/h | 26124m | 4.5m/s | 0°C | 0% | 0hPa | 2.7V | 03:30:07 | 01:49:35 | 00:00:00 | |
| IW2NTF | 2026-09-05 18:19:14 | 49.19910 | 8.62408 | 11° | 2km/h | 26119m | 4.7m/s | -49.4°C | 3.3% | 22.7hPa | 2.7V | 03:30:08 | 01:49:34 | 00:00:00 | |
| BIOWL1-15 | 2026-09-05 18:19:13 | 49.19914 | 8.62408 | 308° | 5km/h | 26140m | 4.8m/s | -49.4°C | 0.2% | 22.6hPa | 2.5V | 03:30:54 | 01:49:38 | 00:00:00 | |
| DL1XH-west | 2026-09-05 18:19:12 | 49.19913 | 8.62409 | 340° | 4km/h | 26135m | 6.3m/s | -49.4°C | 0.2% | 22.7hPa | 2.6V | 03:30:54 | 01:49:37 | 00:00:00 | |
| DK7TD | 2026-09-05 18:19:11 | 49.19912 | 8.62409 | 20° | 4km/h | 26129m | 5.5m/s | -49.4°C | 0.2% | 22.7hPa | 2.6V | 03:32:36 | 01:49:36 | 00:00:00 | |
| DM7RM-13 | 2026-09-05 18:19:10 | 49.19912 | 8.62409 | 21° | 4km/h | 26129m | 5.5m/s | -49.4°C | 0.9% | 22.7hPa | 2.6V | 03:30:00 | 00:00:00 | 00:00:00 | |
| DJTTGO | 2026-09-05 18:19:09 | 49.19911 | 8.62408 | 32° | 4km/h | 26124m | 4.6m/s | -49.4°C | 0.8% | 22.7hPa | 2.6V | 03:30:00 | 00:00:00 | 00:00:00 | |
| DC4HF-4 | 2026-09-05 18:19:08 | 49.19910 | 8.62409 | 248° | 2km/h | 26114m | 6.2m/s | -49.4°C | 0.8% | 22.7hPa | 2.6V | 00:00:00 | 00:00:00 | 00:00:00 | |
| DL1XH1-15 | 2026-09-05 18:19:07 | 49.19918 | 8.62416 | 179° | 5km/h | 26081m | 4.5m/s | -49.5°C | 3.3% | 22.9hPa | 2.6V | 03:30:15 | 01:49:27 | 00:00:00 | |
| AZAK | 2026-09-05 18:19:07 | 49.19911 | 8.62410 | 238° | 7km/h | 26108m | 5.6m/s | -49.5°C | 0.8% | 22.8hPa | 2.6V | 00:00:00 | 00:00:00 | 00:00:00 | |
| DO3MHA-11 | 2026-09-05 18:19:06 | 49.19912 | 8.62412 | 227° | 7km/h | 26103m | 4.9m/s | -49.4°C | 3.3% | 22.7hPa | 2.6V | 00:00:00 | 01:49:31 | 00:00:00 | |
| DL1XH-15 | 2026-09-05 18:19:05 | 49.19921 | 8.62418 | 214° | 7km/h | 26070m | 5.9m/s | 0°C | 0% | 0hPa | 2.6V | 03:30:17 | 01:49:25 | 00:00:00 | |
| BIOWL1-15 | 2026-09-05 18:19:05 | 49.19917 | 8.62416 | 181° | 5km/h | 26086m | 4.9m/s | -49.5°C | 0.2% | 22.8hPa | 2.7V | 03:30:54 | 01:49:28 | 00:00:00 | |
| IW2NTF | 2026-09-05 18:19:04 | 49.19923 | 8.62420 | 221° | 7km/h | 26064m | 4.8m/s | -49.6°C | 3.3% | 22.9hPa | 2.6V | 03:30:18 | 01:49:24 | 00:00:00 | |
| DM0DOS-11 | 2026-09-05 18:19:03 | 49.19925 | 8.62421 | 207° | 5km/h | 26060m | 4.5m/s | -49.6°C | 3.4% | 22.9hPa | 2.7V | 03:30:19 | 01:49:23 | 00:00:00 | |
| DL1XH-west | 2026-09-05 18:19:01 | 49.19920 | 8.62416 | 199° | 5km/h | 26076m | 5.8m/s | -49.6°C | 0.2% | 22.9hPa | 2.6V | 03:30:54 | 01:49:26 | 00:00:00 | |
| DK7TD | 2026-09-05 18:18:57 | 49.19926 | 8.62422 | 176° | 5km/h | 26055m | 6m/s | -49.7°C | 0.2% | 22.9hPa | 2.7V | 03:32:36 | 01:49:22 | 00:00:00 | |
| DL1XH1-15 | 2026-09-05 18:18:57 | 49.19939 | 8.62412 | 176° | 20km/h | 26027m | 6m/s | -49.8°C | 3.4% | 23hPa | 2.6V | 03:30:25 | 01:49:17 | 00:00:00 | |
| BIOWL1-15 | 2026-09-05 18:18:55 | 49.19935 | 8.62413 | 164° | 16km/h | 26033m | 6.1m/s | -49.8°C | 0.2% | 23hPa | 2.6V | 03:30:54 | 01:49:18 | 00:00:00 | |
| DK5PH-5 | 2026-09-05 18:18:55 | 49.19929 | 8.62418 | 138° | 13km/h | 26044m | 4.6m/s | -49.7°C | 3.4% | 22.9hPa | 2.7V | 00:00:00 | 01:49:20 | 00:00:00 | |
| IW2NTF | 2026-09-05 18:18:54 | 49.19955 | 8.62413 | 183° | 18km/h | 26011m | 5.8m/s | -49.9°C | 3.5% | 23.1hPa | 2.7V | 03:30:28 | 01:49:14 | 00:00:00 | |
| DM0DOS-11 | 2026-09-05 18:18:53 | 49.19959 | 8.62414 | 183° | 13km/h | 26006m | 5m/s | -49.9°C | 3.4% | 23.1hPa | 2.5V | 03:30:29 | 01:49:13 | 00:00:00 | |
| DL1XH-west | 2026-09-05 18:18:50 | 49.19950 | 8.62413 | 185° | 22km/h | 26017m | 5m/s | -49.9°C | 0.2% | 23.1hPa | 2.7V | 03:30:54 | 01:49:15 | 00:00:00 | |
| DO8TBO-1 | 2026-09-05 18:18:50 | 49.19950 | 8.62413 | 186° | 13km/h | 26017m | 5.0m/s | -49.8°C | 3.4% | 23.0hPa | 2.6V | 03:30:00 | 01:49:15 | 00:00:00 | |
| OE5DRO-10 | 2026-09-05 18:18:49 | 49.19955 | 8.62413 | 184° | 15km/h | 26011m | 5.8m/s | 0°C | 0% | 0hPa | 2.6V | 00:00:00 | 00:00:00 | 00:00:00 | |
| DL1XH1-15 | 2026-09-05 18:18:47 | 49.19969 | 8.62420 | 160° | 11km/h | 25976m | 6.1m/s | -50°C | 3.5% | 23.2hPa | 2.6V | 03:30:35 | 01:49:07 | 00:00:00 | |
| DK7TD | 2026-09-05 18:18:46 | 49.19963 | 8.62415 | 222° | 7km/h | 25996m | 5.8m/s | -49.9°C | 0.3% | 23.1hPa | 2.6V | 03:32:36 | 01:49:11 | 00:00:00 | |
| DF3TZ-5 | 2026-09-05 18:18:46 | 49.19964 | 8.62418 | 237° | 7km/h | 25990m | 5.8m/s | -50.0°C | 0.9% | 23.2hPa | 2.7V | 00:00:00 | 00:00:00 | 00:00:00 | |
| AZAK | 2026-09-05 18:18:45 | 49.19964 | 8.62418 | 239° | 7km/h | 25990m | 5.8m/s | -50.0°C | 0.9% | 23.2hPa | 2.7V | 00:00:00 | 00:00:00 | 00:00:00 | |
| IW2NTF | 2026-09-05 18:18:44 | 49.19981 | 8.62410 | 152° | 24km/h | 25959m | 4.8m/s | -50.1°C | 3.5% | 23.3hPa | 2.7V | 03:30:38 | 01:49:04 | 00:00:00 | |
| DM0DOS-11 | 2026-09-05 18:18:43 | 49.19987 | 8.62406 | 159° | 24km/h | 25954m | 6m/s | -50.1°C | 3.5% | 23.3hPa | 2.5V | 03:30:39 | 01:49:03 | 00:00:00 | |
| BIOWL1-15 | 2026-09-05 18:18:42 | 49.19969 | 8.62420 | 160° | 11km/h | 25976m | 6.1m/s | -50°C | 0.3% | 23.2hPa | 2.6V | 03:30:54 | 01:49:07 | 00:00:00 | |
| DL1XH-west | 2026-09-05 18:18:40 | 49.19976 | 8.62414 | 149° | 22km/h | 25964m | 5.3m/s | -50.1°C | 0.4% | 23.3hPa | 2.7V | 03:30:54 | 01:49:05 | 00:00:00 | |
| NBG1-10 | 2026-09-05 18:18:39 | 49.19981 | 8.62410 | 153° | 11km/h | 25960m | 4.7m/s | -50.1°C | 3.5% | 23.2hPa | 2.5V | 00:00:00 | 01:49:04 | 00:00:00 | |
| DO3DL | 2026-09-05 18:18:38 | 49.19981 | 8.62410 | 154° | 24km/h | 25960m | 4.8m/s | -50.2°C | 0.9% | 23.3hPa | 2.5V | 03:30:00 | 00:00:00 | 00:00:00 | |
| DL1XH1-15 | 2026-09-05 18:18:37 | 49.20009 | 8.62399 | 122° | 7km/h | 25922m | 4.7m/s | -50.1°C | 3.5% | 23.4hPa | 2.5V | 03:30:45 | 01:48:57 | 00:00:00 | |
| DL1XH-15 | 2026-09-05 18:18:36 | 49.20010 | 8.62396 | 107° | 5km/h | 25917m | 4.8m/s | 0°C | 0% | 0hPa | 2.6V | 03:30:46 | 01:48:56 | 00:00:00 | |
| DK7TD | 2026-09-05 18:18:36 | 49.19997 | 8.62403 | 178° | 18km/h | 25943m | 4.4m/s | -50.2°C | 0.4% | 23.3hPa | 2.6V | 03:32:36 | 01:49:01 | 00:00:00 | |
| DO3MHA-11 | 2026-09-05 18:18:36 | 49.19997 | 8.62403 | 178° | 7km/h | 25943m | 4.3m/s | -50.1°C | 3.6% | 23.3hPa | 2.6V | 03:30:00 | 01:49:01 | 00:00:00 | |
| DL3AQ-11 | 2026-09-05 18:18:34 | 49.20005 | 8.62402 | 169° | 11km/h | 25934m | 5.8m/s | -50.1°C | 0.9% | 23.4hPa | 2.7V | 00:00:00 | 00:00:00 | 00:00:00 | |
| DM0DOS-11 | 2026-09-05 18:18:33 | 49.20010 | 8.62393 | 116° | 2km/h | 25900m | 5.1m/s | -50.1°C | 3.5% | 23.5hPa | 2.7V | 03:30:49 | 01:48:53 | 00:00:00 | |
| BIOWL1-15 | 2026-09-05 18:18:31 | 49.20010 | 8.62396 | 107° | 5km/h | 25917m | 4.8m/s | -50.1°C | 0.3% | 23.4hPa | 2.6V | 03:30:54 | 01:48:56 | 00:00:00 | |
| DL1XH-west | 2026-09-05 18:18:30 | 49.20010 | 8.62395 | 91° | 4km/h | 25912m | 6.4m/s | -50.1°C | 0.3% | 23.5hPa | 2.6V | 03:30:54 | 01:48:55 | 00:00:00 | |
| DM7RM-13 | 2026-09-05 18:18:29 | 49.20010 | 8.62394 | 0° | 0km/h | 25906m | 5.9m/s | -50.1°C | 0.9% | 23.5hPa | 2.7V | 03:30:00 | 00:00:00 | 00:00:00 | |
| DB0ND-19 | 2026-09-05 18:18:28 | 49.20011 | 8.62392 | 128° | 4km/h | 25895m | 5.7m/s | -50.1°C | 0.9% | 23.5hPa | 2.7V | 00:00:00 | 00:00:00 | 00:00:00 | |
| DL1XH1-15 | 2026-09-05 18:18:27 | 49.20022 | 8.62381 | 183° | 13km/h | 25868m | 6.3m/s | -50.1°C | 3.5% | 23.6hPa | 2.7V | 03:30:55 | 01:48:47 | 00:00:00 | |
| DJ2DS-15 | 2026-09-05 18:18:26 | 49.20012 | 8.62390 | 131° | 9km/h | 25889m | 6.0m/s | -50.1°C | 3.5% | 23.5hPa | 2.6V | 00:00:00 | 01:48:51 | 00:00:00 | |
| DL1XH-15 | 2026-09-05 18:18:25 | 49.20028 | 8.62385 | 212° | 15km/h | 25857m | 5.2m/s | 0°C | 0% | 0hPa | 2.6V | 00:00:00 | 01:48:45 | 00:00:00 | |
| DK7TD | 2026-09-05 18:18:25 | 49.20014 | 8.62387 | 136° | 13km/h | 25884m | 4.5m/s | -50.1°C | 0.4% | 23.6hPa | 2.5V | 03:32:36 | 01:48:50 | 00:00:00 | |
| DK5PH-5 | 2026-09-05 18:18:25 | 49.20014 | 8.62387 | 136° | 11km/h | 25884m | 4.5m/s | -50.1°C | 3.5% | 23.5hPa | 2.6V | 00:00:00 | 01:48:50 | 00:00:00 | |
| AZAK | 2026-09-05 18:18:24 | 49.20016 | 8.62384 | 147° | 13km/h | 25879m | 4.4m/s | -50.1°C | 0.9% | 23.6hPa | 2.6V | 00:00:00 | 00:00:00 | 00:00:00 | |
| DM0DOS-11 | 2026-09-05 18:18:23 | 49.20034 | 8.62390 | 210° | 11km/h | 25846m | 5.7m/s | -50°C | 3.5% | 23.7hPa | 2.6V | 03:30:59 | 01:48:43 | 00:00:00 | |
| DL1XH-west | 2026-09-05 18:18:20 | 49.20028 | 8.62385 | 213° | 15km/h | 25857m | 5.3m/s | -50.1°C | 0.3% | 23.7hPa | 2.6V | 03:31:45 | 01:48:45 | 00:00:00 | |
| DO3DL | 2026-09-05 18:18:20 | 49.20028 | 8.62385 | 214° | 15km/h | 25857m | 5.3m/s | -50.1°C | 0.8% | 23.7hPa | 2.7V | 03:31:00 | 00:00:00 | 00:00:00 | |
| BIOWL7-15 | 2026-09-05 18:18:19 | 49.20028 | 8.62385 | 214° | 15km/h | 25857m | 5.3m/s | -50.1°C | 0.8% | 23.7hPa | 2.7V | 03:31:00 | 00:00:00 | 00:00:00 | |
| DL1XH1-15 | 2026-09-05 18:18:17 | 49.20034 | 8.62407 | 305° | 9km/h | 25814m | 4.5m/s | -50°C | 3.4% | 23.8hPa | 2.7V | 03:31:05 | 01:48:37 | 00:00:00 | |
| DB0UT-7 | 2026-09-05 18:18:17 | 49.20035 | 8.62392 | 216° | 11km/h | 25841m | 4.6m/s | -50.0°C | 3.4% | 23.7hPa | 2.5V | 00:00:00 | 00:00:00 | 00:00:00 | |
| DO3MHA-11 | 2026-09-05 18:18:16 | 49.20036 | 8.62394 | 242° | 7km/h | 25836m | 4.5m/s | -50.0°C | 3.5% | 23.7hPa | 2.5V | 00:00:00 | 01:48:41 | 00:00:00 | |
| DF3TZ-5 | 2026-09-05 18:18:15 | 49.20037 | 8.62400 | 283° | 9km/h | 25824m | 6.0m/s | -50.0°C | 0.8% | 23.8hPa | 2.5V | 00:00:00 | 00:00:00 | 00:00:00 | |
| DL1XH-15 | 2026-09-05 18:18:14 | 49.20033 | 8.62409 | 146° | 4km/h | 25798m | 4.3m/s | 0°C | 0% | 0hPa | 2.5V | 00:00:00 | 01:48:34 | 00:00:00 | |
| DK7TD | 2026-09-05 18:18:14 | 49.20037 | 8.62400 | 283° | 11km/h | 25824m | 6m/s | -50°C | 0.2% | 23.8hPa | 2.6V | 03:32:36 | 01:48:39 | 00:00:00 | |
| DO3DL | 2026-09-05 18:18:14 | 49.20037 | 8.62400 | 284° | 11km/h | 25825m | 6.0m/s | -50.0°C | 0.8% | 23.8hPa | 2.5V | 03:31:00 | 00:00:00 | 00:00:00 | |
| DM0DOS-11 | 2026-09-05 18:18:13 | 49.20034 | 8.62409 | 177° | 7km/h | 25794m | 5m/s | -50°C | 3.5% | 23.9hPa | 2.5V | 03:31:09 | 01:48:33 | 00:00:00 | |
| DL1XH-west | 2026-09-05 18:18:10 | 49.20033 | 8.62410 | 44° | 0km/h | 25803m | 5.2m/s | -50°C | 0.3% | 23.8hPa | 2.7V | 03:31:45 | 01:48:35 | 00:00:00 | |
| BIOWL1-15 | 2026-09-05 18:18:09 | 49.20033 | 8.62409 | 147° | 4km/h | 25798m | 4.3m/s | -50°C | 0.3% | 23.9hPa | 2.5V | 03:31:45 | 01:48:34 | 00:00:00 | |
| DM7RM-13 | 2026-09-05 18:18:08 | 49.20034 | 8.62408 | 179° | 7km/h | 25794m | 5.0m/s | -50.0°C | 0.9% | 23.9hPa | 2.6V | 03:31:00 | 00:00:00 | 00:00:00 | |
| DO3DL | 2026-09-05 18:18:07 | 49.20034 | 8.62408 | 179° | 7km/h | 25794m | 5.0m/s | -50.0°C | 0.9% | 23.9hPa | 2.6V | 03:31:00 | 00:00:00 | 00:00:00 | |
| DG9SBQ-11 | 2026-09-05 18:18:06 | 49.20039 | 8.62411 | 209° | 15km/h | 25782m | 5.5m/s | -50.0°C | 0.8% | 23.9hPa | 2.6V | 03:31:00 | 00:00:00 | 00:00:00 | |
| DL1XH-15 | 2026-09-05 18:18:04 | 49.20057 | 8.62431 | 265° | 11km/h | 25745m | 6.3m/s | 0°C | 0% | 0hPa | 2.6V | 00:00:00 | 01:48:24 | 00:00:00 | |
| DK7TD | 2026-09-05 18:18:04 | 49.20046 | 8.62417 | 209° | 16km/h | 25772m | 5.6m/s | -50°C | 0.2% | 24hPa | 2.7V | 03:32:36 | 01:48:29 | 00:00:00 | |
| DM0DOS-11 | 2026-09-05 18:18:03 | 49.20057 | 8.62435 | 270° | 13km/h | 25739m | 4.8m/s | -50.1°C | 3.5% | 24.1hPa | 2.7V | 03:31:19 | 01:48:23 | 00:00:00 | |
| DL1XH-west | 2026-09-05 18:17:59 | 49.20056 | 8.62431 | 266° | 11km/h | 25745m | 6.3m/s | -50.1°C | 0.3% | 24.1hPa | 2.6V | 03:31:45 | 01:48:24 | 00:00:00 | |
| BIOWL1-15 | 2026-09-05 18:17:58 | 49.20056 | 8.62435 | 271° | 13km/h | 25739m | 4.8m/s | -50.1°C | 0.3% | 24.1hPa | 2.7V | 03:31:45 | 01:48:23 | 00:00:00 | |
| DD1CC8 | 2026-09-05 18:17:58 | 49.20056 | 8.62440 | 269° | 9km/h | 25735m | 4.4m/s | -50.1°C | 0.9% | 24.1hPa | 2.6V | 00:00:00 | 00:00:00 | 00:00:00 | |
| DB0ND-19 | 2026-09-05 18:17:57 | 49.20057 | 8.62443 | 257° | 7km/h | 25730m | 6.2m/s | -50.0°C | 0.9% | 24.1hPa | 2.6V | 00:00:00 | 00:00:00 | 00:00:00 | |
| DO3MHA-11 | 2026-09-05 18:17:56 | 49.20057 | 8.62443 | 258° | 15km/h | 25730m | 6.1m/s | -50.0°C | 3.5% | 24.1hPa | 2.6V | 03:31:00 | 01:48:21 | 00:00:00 | |
| DO3DL | 2026-09-05 18:17:55 | 49.20058 | 8.62446 | 224° | 7km/h | 25724m | 5.4m/s | -50.0°C | 0.9% | 24.1hPa | 2.6V | 03:31:00 | 00:00:00 | 00:00:00 | |
| DL1XH-15 | 2026-09-05 18:17:54 | 49.20079 | 8.62459 | 191° | 20km/h | 25692m | 6.2m/s | 0°C | 0% | 0hPa | 2.6V | 00:00:00 | 01:48:14 | 00:00:00 | |
| IW2NTF | 2026-09-05 18:17:54 | 49.20084 | 8.62460 | 185° | 18km/h | 25686m | 5.6m/s | -50°C | 3.5% | 24.3hPa | 2.6V | 03:31:29 | 01:48:13 | 00:00:00 | |
| DK7TD | 2026-09-05 18:17:52 | 49.20066 | 8.62451 | 206° | 16km/h | 25707m | 6m/s | -50°C | 0.3% | 24.2hPa | 2.7V | 03:32:36 | 01:48:17 | 00:00:00 | |
| DL1XH-west | 2026-09-05 18:17:49 | 49.20080 | 8.62459 | 192° | 20km/h | 25692m | 6.2m/s | -50°C | 0.2% | 24.3hPa | 2.6V | 03:31:45 | 01:48:14 | 00:00:00 | |
| KANTATE | 2026-09-05 18:17:48 | 49.20079 | 8.62459 | 193° | 20km/h | 25692m | 6.2m/s | -50.0°C | 0.8% | 24.3hPa | 2.7V | 03:31:00 | 00:00:00 | 00:00:00 | |
| DL1XH1-15 | 2026-09-05 18:17:47 | 49.20103 | 8.62474 | 217° | 9km/h | 25655m | 5.4m/s | -50°C | 3.4% | 24.4hPa | 2.7V | 03:31:35 | 01:48:07 | 00:00:00 | |
| BIOWL1-15 | 2026-09-05 18:17:47 | 49.20089 | 8.62461 | 186° | 16km/h | 25681m | 4.6m/s | -50°C | 0.3% | 24.3hPa | 2.7V | 03:31:45 | 01:48:12 | 00:00:00 | |
| DB0UT-7 | 2026-09-05 18:17:47 | 49.20089 | 8.62461 | 187° | 18km/h | 25681m | 4.6m/s | -49.9°C | 3.5% | 24.2hPa | 2.7V | 03:31:00 | 01:48:12 | 00:00:00 | |
| DO3MHA-11 | 2026-09-05 18:17:46 | 49.20093 | 8.62462 | 197° | 13km/h | 25676m | 5.2m/s | -49.9°C | 3.5% | 24.3hPa | 2.6V | 00:00:00 | 01:48:11 | 00:00:00 | |
| DF3TZ-5 | 2026-09-05 18:17:44 | 49.20101 | 8.62471 | 224° | 11km/h | 25660m | 4.2m/s | -50.0°C | 0.9% | 24.4hPa | 2.6V | 00:00:00 | 00:00:00 | 00:00:00 | |
| IW2NTF | 2026-09-05 18:17:43 | 49.20115 | 8.62473 | 174° | 18km/h | 25633m | 5.5m/s | -50°C | 3.4% | 24.5hPa | 2.6V | 03:31:39 | 01:48:03 | 00:00:00 | |
| BIOWL1-15 | 2026-09-05 18:17:43 | 49.20119 | 8.62473 | 185° | 22km/h | 25627m | 6.4m/s | -50°C | 0.3% | 24.5hPa | 2.6V | 03:31:45 | 01:48:02 | 00:00:00 | |
| DK7TD | 2026-09-05 18:17:41 | 49.20105 | 8.62475 | 192° | 9km/h | 25649m | 6.2m/s | -50°C | 0.3% | 24.4hPa | 2.7V | 03:32:36 | 01:48:06 | 00:00:00 | |
| DL1XH-west | 2026-09-05 18:17:39 | 49.20110 | 8.62474 | 167° | 15km/h | 25638m | 4.8m/s | -50°C | 0.2% | 24.5hPa | 2.5V | 03:31:45 | 01:48:04 | 00:00:00 | |
| HARRO8 | 2026-09-05 18:17:38 | 49.20114 | 8.62473 | 174° | 16km/h | 25633m | 5.5m/s | -50.0°C | 0.8% | 24.5hPa | 2.6V | 00:00:00 | 00:00:00 | 00:00:00 | |
| DG9SBQ-11 | 2026-09-05 18:17:37 | 49.20114 | 8.62473 | 175° | 18km/h | 25633m | 5.5m/s | -50.0°C | 0.8% | 24.5hPa | 2.6V | 03:31:00 | 00:00:00 | 00:00:00 | |
| DO3MHA-11 | 2026-09-05 18:17:36 | 49.20125 | 8.62474 | 190° | 24km/h | 25621m | 5.2m/s | -49.9°C | 3.4% | 24.5hPa | 2.6V | 00:00:00 | 01:48:01 | 00:00:00 | |
| BIOWL9-15 | 2026-09-05 18:17:35 | 49.20132 | 8.62476 | 188° | 26km/h | 25616m | 4.5m/s | -50.0°C | 0.9% | 24.6hPa | 2.7V | 00:00:00 | 00:00:00 | 00:00:00 | |
| DL0LBS | 2026-09-05 18:17:34 | 49.20132 | 8.62476 | 190° | 27km/h | 25617m | 4.5m/s | -50.0°C | 0.9% | 24.6hPa | 2.7V | 03:31:00 | 00:00:00 | 00:00:00 | |
| IW2NTF | 2026-09-05 18:17:33 | 49.20174 | 8.62470 | 171° | 16km/h | 25579m | 4.8m/s | -50°C | 3.4% | 24.7hPa | 2.7V | 03:31:49 | 01:47:53 | 00:00:00 | |
| NBG1-10 | 2026-09-05 18:17:33 | 49.20145 | 8.62477 | 177° | 26km/h | 25606m | 6.1m/s | -49.9°C | 3.4% | 24.5hPa | 2.7V | 03:31:00 | 01:47:58 | 00:00:00 | |
| OE5DXL-15 | 2026-09-05 18:17:32 | 49.20152 | 8.62476 | 171° | 20km/h | 25600m | 5.2m/s | 0°C | 0% | 0hPa | 2.7V | 00:00:00 | 00:00:00 | 00:00:00 | |
| DM0DOS-11 | 2026-09-05 18:17:31 | 49.20182 | 8.62467 | 148° | 15km/h | 25568m | 6.4m/s | -50°C | 3.5% | 24.7hPa | 2.7V | 03:31:51 | 01:47:51 | 00:00:00 | |
| DK7TD | 2026-09-05 18:17:31 | 49.20159 | 8.62474 | 168° | 26km/h | 25595m | 4.5m/s | -49.9°C | 0.2% | 24.6hPa | 2.6V | 03:32:36 | 01:47:56 | 00:00:00 | |
| DL1XH-west | 2026-09-05 18:17:28 | 49.20174 | 8.62470 | 172° | 16km/h | 25579m | 4.8m/s | -50°C | 0.3% | 24.7hPa | 2.7V | 03:32:36 | 01:47:53 | 00:00:00 | |
| BIOWL1-15 | 2026-09-05 18:17:26 | 49.20182 | 8.62467 | 149° | 15km/h | 25568m | 6.4m/s | -50.1°C | 0.3% | 24.7hPa | 2.7V | 03:32:36 | 01:47:51 | 00:00:00 | |
| DB0ND-19 | 2026-09-05 18:17:26 | 49.20185 | 8.62463 | 137° | 15km/h | 25563m | 5.5m/s | -50.1°C | 0.9% | 24.7hPa | 2.6V | 00:00:00 | 00:00:00 | 00:00:00 | |
| DK5PH-5 | 2026-09-05 18:17:25 | 49.20185 | 8.62463 | 138° | 18km/h | 25563m | 5.4m/s | -50.0°C | 3.5% | 24.7hPa | 2.6V | 03:31:00 | 01:47:50 | 00:00:00 | |
| DL6DJ-15 | 2026-09-05 18:17:24 | 49.20191 | 8.62456 | 151° | 15km/h | 25553m | 5.1m/s | -50.1°C | 0.9% | 24.8hPa | 2.6V | 00:00:00 | 00:00:00 | 00:00:00 | |
| IW2NTF | 2026-09-05 18:17:23 | 49.20216 | 8.62453 | 170° | 26km/h | 25525m | 6.2m/s | -50.2°C | 3.5% | 24.9hPa | 2.6V | 03:31:59 | 01:47:43 | 00:00:00 | |
| DO8TBO-1 | 2026-09-05 18:17:22 | 49.20195 | 8.62453 | 170° | 20km/h | 25547m | 6.3m/s | -50.1°C | 3.5% | 24.8hPa | 2.7V | 00:00:00 | 01:47:47 | 00:00:00 | |
| DM0DOS-11 | 2026-09-05 18:17:21 | 49.20228 | 8.62446 | 151° | 27km/h | 25515m | 4.8m/s | -50.3°C | 3.5% | 24.9hPa | 2.7V | 03:32:01 | 01:47:41 | 00:00:00 | |
| DK7TD | 2026-09-05 18:17:21 | 49.20199 | 8.62453 | 183° | 18km/h | 25541m | 5.5m/s | -50.2°C | 0.3% | 24.8hPa | 2.7V | 03:32:36 | 01:47:46 | 00:00:00 | |
| DL1XH-west | 2026-09-05 18:17:17 | 49.20222 | 8.62450 | 159° | 26km/h | 25520m | 5.1m/s | -50.3°C | 0.3% | 24.9hPa | 2.7V | 03:32:36 | 01:47:42 | 00:00:00 | |
| BIOWL1-15 | 2026-09-05 18:17:15 | 49.20234 | 8.62441 | 149° | 26km/h | 25510m | 4.7m/s | -50.3°C | 0.3% | 25hPa | 2.6V | 03:32:36 | 01:47:40 | 00:00:00 | |
| DJ2DS-15 | 2026-09-05 18:17:15 | 49.20239 | 8.62436 | 150° | 24km/h | 25505m | 5.6m/s | -50.3°C | 0.9% | 25.0hPa | 2.6V | 00:00:00 | 00:00:00 | 00:00:00 | |
| DL3AQ-11 | 2026-09-05 18:17:14 | 49.20245 | 8.62432 | 153° | 22km/h | 25499m | 5.8m/s | -50.2°C | 0.9% | 25.0hPa | 2.6V | 00:00:00 | 00:00:00 | 00:00:00 | |
| IW2NTF | 2026-09-05 18:17:13 | 49.20263 | 8.62409 | 124° | 18km/h | 25472m | 4.8m/s | -50.2°C | 3.5% | 25.1hPa | 2.6V | 03:32:09 | 01:47:33 | 00:00:00 | |
| CB1BUN | 2026-09-05 18:17:13 | 49.20245 | 8.62432 | 155° | 22km/h | 25499m | 5.8m/s | -50.2°C | 0.9% | 25.0hPa | 2.6V | 03:32:00 | 00:00:00 | 00:00:00 | |
| HEMX73-11 | 2026-09-05 18:17:12 | 49.20245 | 8.62432 | 155° | 22km/h | 25499m | 5.8m/s | -50.2°C | 0.9% | 25.0hPa | 2.6V | 03:32:00 | 00:00:00 | 00:00:00 | |
| DM0DOS-11 | 2026-09-05 18:17:11 | 49.20268 | 8.62400 | 137° | 13km/h | 25462m | 6.1m/s | -50.2°C | 3.4% | 25.1hPa | 2.6V | 03:32:11 | 01:47:31 | 00:00:00 | |
| DK7TD | 2026-09-05 18:17:10 | 49.20257 | 8.62420 | 136° | 18km/h | 25484m | 6.3m/s | -50.2°C | 0.2% | 25.1hPa | 2.7V | 03:32:36 | 01:47:35 | 00:00:00 | |
| DL1XH-west | 2026-09-05 18:17:07 | 49.20266 | 8.62404 | 127° | 15km/h | 25468m | 5m/s | -50.2°C | 0.3% | 25.1hPa | 2.6V | 03:32:36 | 01:47:32 | 00:00:00 | |
| BIOWL1-15 | 2026-09-05 18:17:05 | 49.20270 | 8.62397 | 153° | 11km/h | 25456m | 5m/s | -50.2°C | 0.3% | 25.2hPa | 2.7V | 03:32:36 | 01:47:30 | 00:00:00 | |
| BIOWL9-15 | 2026-09-05 18:17:04 | 49.20273 | 8.62396 | 157° | 11km/h | 25452m | 4.1m/s | -50.2°C | 0.9% | 25.2hPa | 2.7V | 00:00:00 | 00:00:00 | 00:00:00 | |
| IW2NTF | 2026-09-05 18:17:03 | 49.20296 | 8.62372 | 153° | 18km/h | 25419m | 6.1m/s | -50.4°C | 3.5% | 25.3hPa | 2.7V | 03:32:19 | 01:47:23 | 00:00:00 | |
| DM0DOS-11 | 2026-09-05 18:17:01 | 49.20304 | 8.62367 | 156° | 16km/h | 25408m | 5.2m/s | -50.5°C | 3.6% | 25.3hPa | 2.7V | 03:32:21 | 01:47:21 | 00:00:00 | |
| DK7TD | 2026-09-05 18:17:00 | 49.20287 | 8.62380 | 142° | 22km/h | 25430m | 4.9m/s | -50.3°C | 0.3% | 25.3hPa | 2.6V | 03:32:36 | 01:47:25 | 00:00:00 | |
| BIOWL1-15 | 2026-09-05 18:17:00 | 49.20311 | 8.62360 | 139° | 18km/h | 25397m | 5.2m/s | -50.6°C | 0.3% | 25.4hPa | 2.6V | 03:32:36 | 01:47:19 | 00:00:00 | |
| DL1XH-west | 2026-09-05 18:16:57 | 49.20300 | 8.62369 | 158° | 16km/h | 25414m | 5.1m/s | -50.4°C | 0.3% | 25.3hPa | 2.7V | 03:32:36 | 01:47:22 | 00:00:00 | |
| DD1CC8 | 2026-09-05 18:16:56 | 49.20307 | 8.62364 | 148° | 16km/h | 25403m | 6.2m/s | -50.5°C | 0.9% | 25.4hPa | 2.6V | 00:00:00 | 00:00:00 | 00:00:00 | |
| DL1ZP-14 | 2026-09-05 18:16:54 | 49.20311 | 8.62360 | 139° | 16km/h | 25397m | 5.2m/s | -50.6°C | 0.9% | 25.4hPa | 2.6V | 00:00:00 | 00:00:00 | 00:00:00 | |
| IW2NTF | 2026-09-05 18:16:53 | 49.20326 | 8.62341 | 151° | 11km/h | 25366m | 4.3m/s | -50.7°C | 3.6% | 25.5hPa | 2.6V | 03:32:29 | 01:47:13 | 00:00:00 | |
| DL6DJ-15 | 2026-09-05 18:16:53 | 49.20314 | 8.62355 | 135° | 16km/h | 25392m | 4.6m/s | -50.6°C | 0.9% | 25.4hPa | 2.6V | 00:00:00 | 00:00:00 | 00:00:00 | |
| DM0DOS-11 | 2026-09-05 18:16:51 | 49.20332 | 8.62335 | 137° | 18km/h | 25356m | 5.6m/s | -50.7°C | 3.6% | 25.5hPa | 2.6V | 03:32:31 | 01:47:11 | 00:00:00 | |
| DK7TD | 2026-09-05 18:16:48 | 49.20326 | 8.62341 | 152° | 11km/h | 25367m | 4.3m/s | -50.7°C | 0.4% | 25.5hPa | 2.6V | 03:32:36 | 01:47:13 | 00:00:00 | |
| DL1XH1-15 | 2026-09-05 18:16:47 | 49.20345 | 8.62314 | 132° | 13km/h | 25333m | 5.9m/s | -50.7°C | 3.7% | 25.6hPa | 2.6V | 03:32:35 | 01:47:07 | 00:00:00 | |
| DL1XH-west | 2026-09-05 18:16:47 | 49.20329 | 8.62339 | 145° | 15km/h | 25361m | 5.7m/s | -50.7°C | 0.4% | 25.5hPa | 2.6V | 03:32:36 | 01:47:12 | 00:00:00 | |
| BIOWL1-15 | 2026-09-05 18:16:46 | 49.20339 | 8.62324 | 132° | 20km/h | 25345m | 5.1m/s | -50.7°C | 0.4% | 25.6hPa | 2.7V | 03:32:36 | 01:47:09 | 00:00:00 | |
| DO3MHA-11 | 2026-09-05 18:16:46 | 49.20332 | 8.62334 | 138° | 13km/h | 25356m | 5.6m/s | -50.7°C | 3.6% | 25.5hPa | 2.7V | 00:00:00 | 01:47:11 | 00:00:00 | |
| DJTTGO | 2026-09-05 18:16:45 | 49.20332 | 8.62334 | 139° | 18km/h | 25356m | 5.6m/s | -50.7°C | 0.9% | 25.5hPa | 2.7V | 00:00:00 | 00:00:00 | 00:00:00 | |
| DJ2DS-15 | 2026-09-05 18:16:44 | 49.20339 | 8.62323 | 133° | 9km/h | 25346m | 5.0m/s | -50.7°C | 3.6% | 25.5hPa | 2.7V | 03:32:00 | 01:47:09 | 00:00:00 | |
| KANTATE | 2026-09-05 18:16:43 | 49.20339 | 8.62323 | 133° | 20km/h | 25346m | 5.1m/s | -50.7°C | 0.9% | 25.6hPa | 2.6V | 03:32:00 | 00:00:00 | 00:00:00 | |
| DF3TZ-5 | 2026-09-05 18:16:42 | 49.20347 | 8.62311 | 126° | 7km/h | 25328m | 5.0m/s | -50.7°C | 0.9% | 25.7hPa | 2.6V | 00:00:00 | 00:00:00 | 00:00:00 | |
| DM0DOS-11 | 2026-09-05 18:16:41 | 49.20350 | 8.62294 | 121° | 7km/h | 25302m | 4.8m/s | -50.5°C | 3.6% | 25.8hPa | 2.6V | 03:32:41 | 01:47:01 | 00:00:00 | |
| DF1GD-15 | 2026-09-05 18:16:40 | 49.20347 | 8.62311 | 128° | 9km/h | 25329m | 5.0m/s | -50.7°C | 0.9% | 25.7hPa | 2.5V | 03:32:00 | 00:00:00 | 00:00:00 | |
| DJ2DS-15 | 2026-09-05 18:16:39 | 49.20349 | 8.62301 | 94° | 9km/h | 25312m | 5.3m/s | -50.6°C | 0.9% | 25.7hPa | 2.5V | 00:00:00 | 00:00:00 | 00:00:00 | |
| DL1XH1-15 | 2026-09-05 18:16:37 | 49.20358 | 8.62293 | 178° | 11km/h | 25280m | 5.9m/s | -50.4°C | 3.6% | 25.8hPa | 2.5V | 03:32:45 | 01:46:57 | 00:00:00 | |
| DK7TD | 2026-09-05 18:16:37 | 49.20349 | 8.62297 | 99° | 9km/h | 25307m | 4.4m/s | -50.6°C | 0.4% | 25.7hPa | 2.6V | 03:33:27 | 01:47:02 | 00:00:00 | |
| DL1XH-west | 2026-09-05 18:16:36 | 49.20349 | 8.62294 | 122° | 7km/h | 25302m | 4.8m/s | -50.5°C | 0.4% | 25.8hPa | 2.6V | 03:33:27 | 01:47:01 | 00:00:00 | |
| BIOWL1-15 | 2026-09-05 18:16:34 | 49.20352 | 8.62292 | 184° | 9km/h | 25290m | 5.8m/s | -50.5°C | 0.4% | 25.8hPa | 2.7V | 03:33:27 | 01:46:59 | 00:00:00 | |
| DL3AQ-11 | 2026-09-05 18:16:34 | 49.20355 | 8.62293 | 189° | 9km/h | 25285m | 5.0m/s | -50.4°C | 0.9% | 25.8hPa | 2.7V | 00:00:00 | 00:00:00 | 00:00:00 | |
| IW2NTF | 2026-09-05 18:16:33 | 49.20364 | 8.62286 | 89° | 4km/h | 25258m | 6.5m/s | -50.4°C | 3.6% | 25.9hPa | 2.7V | 03:32:49 | 01:46:53 | 00:00:00 | |
| BIOWL9-15 | 2026-09-05 18:16:33 | 49.20355 | 8.62293 | 189° | 9km/h | 25285m | 5.0m/s | -50.4°C | 0.9% | 25.8hPa | 2.7V | 00:00:00 | 00:00:00 | 00:00:00 | |
| DM0DOS-11 | 2026-09-05 18:16:31 | 49.20362 | 8.62285 | 18° | 7km/h | 25246m | 5.5m/s | -50.4°C | 3.5% | 26hPa | 2.7V | 03:32:51 | 01:46:51 | 00:00:00 | |
| CB1BUN | 2026-09-05 18:16:31 | 49.20360 | 8.62292 | 159° | 11km/h | 25274m | 5.7m/s | -50.4°C | 0.9% | 25.9hPa | 2.6V | 03:33:00 | 00:00:00 | 00:00:00 | |
| HEMX73-11 | 2026-09-05 18:16:30 | 49.20360 | 8.62292 | 159° | 11km/h | 25274m | 5.7m/s | -50.4°C | 0.9% | 25.9hPa | 2.6V | 03:33:00 | 00:00:00 | 00:00:00 | |
| DB0NH | 2026-09-05 18:16:28 | 49.20364 | 8.62286 | 90° | 11km/h | 25258m | 6.4m/s | -50.4°C | 3.6% | 25.9hPa | 2.6V | 00:00:00 | 01:46:53 | 00:00:00 | |
| DL1XH1-15 | 2026-09-05 18:16:27 | 49.20357 | 8.62277 | 86° | 4km/h | 25224m | 4.6m/s | -50.3°C | 3.5% | 26.1hPa | 2.6V | 03:32:55 | 01:46:47 | 00:00:00 | |
| DL1XH-west | 2026-09-05 18:16:26 | 49.20362 | 8.62285 | 19° | 7km/h | 25246m | 5.5m/s | -50.4°C | 0.3% | 26hPa | 2.7V | 03:33:27 | 01:46:51 | 00:00:00 | |
| DO3MHA-11 | 2026-09-05 18:16:26 | 49.20362 | 8.62284 | 19° | 9km/h | 25246m | 5.5m/s | -50.3°C | 3.5% | 25.9hPa | 2.6V | 00:00:00 | 01:46:51 | 00:00:00 | |
| DD1CC8 | 2026-09-05 18:16:25 | 49.20359 | 8.62281 | 43° | 7km/h | 25234m | 5.9m/s | -50.4°C | 0.9% | 26.0hPa | 2.6V | 00:00:00 | 00:00:00 | 00:00:00 | |
| DJ2DS-15 | 2026-09-05 18:16:24 | 49.20358 | 8.62281 | 44° | 9km/h | 25234m | 5.9m/s | -50.3°C | 3.6% | 26.0hPa | 2.6V | 00:00:00 | 01:46:49 | 00:00:00 | |
| IW2NTF | 2026-09-05 18:16:23 | 49.20363 | 8.62282 | 209° | 15km/h | 25201m | 5.6m/s | -50.2°C | 3.5% | 26.2hPa | 2.6V | 03:32:59 | 01:46:43 | 00:00:00 | |
| BIOWL1-15 | 2026-09-05 18:16:23 | 49.20357 | 8.62279 | 58° | 7km/h | 25229m | 4.6m/s | -50.3°C | 0.3% | 26.1hPa | 2.6V | 03:33:27 | 01:46:48 | 00:00:00 | |
| DK5PH-5 | 2026-09-05 18:16:23 | 49.20357 | 8.62279 | 58° | 11km/h | 25229m | 4.6m/s | -50.3°C | 3.5% | 26.0hPa | 2.6V | 00:00:00 | 01:46:48 | 00:00:00 | |
| DL6DJ-15 | 2026-09-05 18:16:22 | 49.20357 | 8.62276 | 176° | 2km/h | 25219m | 6.4m/s | -50.3°C | 0.9% | 26.1hPa | 2.6V | 00:00:00 | 00:00:00 | 00:00:00 | |
| DM0DOS-11 | 2026-09-05 18:16:21 | 49.20370 | 8.62286 | 194° | 13km/h | 25189m | 4.8m/s | -50.1°C | 3.5% | 26.2hPa | 2.6V | 03:33:01 | 01:46:41 | 00:00:00 | |
| DL3AQ-11 | 2026-09-05 18:16:21 | 49.20358 | 8.62277 | 216° | 7km/h | 25212m | 6.3m/s | -50.2°C | 0.9% | 26.1hPa | 2.6V | 00:00:00 | 00:00:00 | 00:00:00 | |
| AU51GT2 | 2026-09-05 18:16:20 | 49.20358 | 8.62277 | 216° | 7km/h | 25212m | 6.3m/s | -50.2°C | 0.9% | 26.1hPa | 2.6V | 00:00:00 | 00:00:00 | 00:00:00 | |
| BIOWL7-15 | 2026-09-05 18:16:19 | 49.20358 | 8.62277 | 218° | 7km/h | 25212m | 6.3m/s | -50.2°C | 0.9% | 26.1hPa | 2.6V | 00:00:00 | 00:00:00 | 00:00:00 | |
| DL1XH1-15 | 2026-09-05 18:16:17 | 49.20377 | 8.62295 | 286° | 9km/h | 25167m | 5.9m/s | -50.1°C | 3.5% | 26.3hPa | 2.6V | 03:33:05 | 01:46:37 | 00:00:00 | |
| DL1XH-west | 2026-09-05 18:16:15 | 49.20373 | 8.62288 | 198° | 11km/h | 25185m | 4.1m/s | -50.1°C | 0.2% | 26.2hPa | 2.7V | 03:33:27 | 01:46:40 | 00:00:00 | |
| BIOWL1-15 | 2026-09-05 18:16:12 | 49.20377 | 8.62295 | 286° | 9km/h | 25167m | 5.9m/s | -50.1°C | 0.3% | 26.3hPa | 2.6V | 03:33:27 | 01:46:37 | 00:00:00 | |
| DM0DOS-11 | 2026-09-05 18:16:11 | 49.20367 | 8.62307 | 279° | 9km/h | 25135m | 6.1m/s | -50.3°C | 3.5% | 26.4hPa | 2.6V | 03:33:11 | 01:46:31 | 00:00:00 | |
| CB1BUN | 2026-09-05 18:16:10 | 49.20375 | 8.62298 | 311° | 9km/h | 25162m | 5.3m/s | -50.2°C | 0.9% | 26.3hPa | 2.6V | 03:33:00 | 00:00:00 | 00:00:00 | |
| DL3AQ-11 | 2026-09-05 18:16:09 | 49.20372 | 8.62302 | 345° | 9km/h | 25150m | 5.4m/s | -50.2°C | 0.9% | 26.4hPa | 2.6V | 00:00:00 | 00:00:00 | 00:00:00 | |
| DC4HF-4 | 2026-09-05 18:16:08 | 49.20368 | 8.62304 | 315° | 5km/h | 25141m | 5.0m/s | -50.3°C | 0.9% | 26.4hPa | 2.6V | 00:00:00 | 00:00:00 | 00:00:00 | |
| DL1XH1-15 | 2026-09-05 18:16:07 | 49.20374 | 8.62330 | 229° | 18km/h | 25112m | 5.5m/s | -50.3°C | 3.5% | 26.5hPa | 2.6V | 03:33:15 | 01:46:27 | 00:00:00 | |
| DK7TD | 2026-09-05 18:16:05 | 49.20367 | 8.62311 | 259° | 15km/h | 25129m | 6m/s | -50.3°C | 0.4% | 26.5hPa | 2.7V | 03:33:27 | 01:46:30 | 00:00:00 | |
| DL1XH-west | 2026-09-05 18:16:04 | 49.20368 | 8.62317 | 247° | 20km/h | 25123m | 5.4m/s | -50.3°C | 0.3% | 26.5hPa | 2.7V | 03:33:27 | 01:46:29 | 00:00:00 | |
| BIOWL1-15 | 2026-09-05 18:16:03 | 49.20374 | 8.62330 | 230° | 18km/h | 25112m | 5.5m/s | -50.3°C | 0.3% | 26.5hPa | 2.6V | 03:33:27 | 01:46:27 | 00:00:00 | |
| DJ2DS-15 | 2026-09-05 18:16:03 | 49.20374 | 8.62330 | 229° | 18km/h | 25113m | 5.5m/s | -50.3°C | 0.9% | 26.5hPa | 2.7V | 00:00:00 | 00:00:00 | 00:00:00 | |
| BIOWL9-15 | 2026-09-05 18:16:02 | 49.20374 | 8.62330 | 229° | 18km/h | 25113m | 5.5m/s | -50.3°C | 0.9% | 26.5hPa | 2.7V | 00:00:00 | 00:00:00 | 00:00:00 | |
| KANTATE | 2026-09-05 18:16:01 | 49.20373 | 8.62330 | 231° | 20km/h | 25113m | 5.5m/s | -50.3°C | 0.9% | 26.5hPa | 2.7V | 03:33:00 | 00:00:00 | 00:00:00 | |
| DF1GD-15 | 2026-09-05 18:15:59 | 49.20380 | 8.62338 | 214° | 11km/h | 25101m | 5.2m/s | -50.3°C | 0.9% | 26.6hPa | 2.7V | 03:33:00 | 00:00:00 | 00:00:00 | |
| DB0NH | 2026-09-05 18:15:58 | 49.20383 | 8.62343 | 229° | 16km/h | 25091m | 5.6m/s | -50.1°C | 3.5% | 26.6hPa | 2.7V | 00:00:00 | 01:46:23 | 00:00:00 | |
| DL1XH1-15 | 2026-09-05 18:15:57 | 49.20391 | 8.62365 | 218° | 11km/h | 25058m | 5.6m/s | -50.1°C | 3.4% | 26.8hPa | 2.6V | 03:33:25 | 01:46:17 | 00:00:00 | |
| DK7TD | 2026-09-05 18:15:54 | 49.20388 | 8.62358 | 242° | 13km/h | 25069m | 4.6m/s | -50.1°C | 0.3% | 26.7hPa | 2.6V | 03:33:27 | 01:46:19 | 00:00:00 | |
| DL1XH-west | 2026-09-05 18:15:53 | 49.20389 | 8.62362 | 232° | 11km/h | 25064m | 6.1m/s | -50.1°C | 0.3% | 26.7hPa | 2.6V | 03:33:27 | 01:46:18 | 00:00:00 | |
| BIOWL1-15 | 2026-09-05 18:15:52 | 49.20391 | 8.62365 | 219° | 11km/h | 25058m | 5.6m/s | -50.1°C | 0.3% | 26.8hPa | 2.6V | 03:33:27 | 01:46:17 | 00:00:00 | |
| DL1ZP-14 | 2026-09-05 18:15:52 | 49.20393 | 8.62368 | 219° | 11km/h | 25053m | 5.1m/s | -50.1°C | 0.9% | 26.8hPa | 2.7V | 00:00:00 | 00:00:00 | 00:00:00 | |
| DM0DOS-11 | 2026-09-05 18:15:51 | 49.20407 | 8.62392 | 223° | 18km/h | 25023m | 6.5m/s | -49.9°C | 3.4% | 26.9hPa | 2.6V | 03:33:31 | 01:46:11 | 00:00:00 | |
| DL6DJ-15 | 2026-09-05 18:15:51 | 49.20395 | 8.62371 | 227° | 13km/h | 25047m | 6.2m/s | -50.0°C | 0.9% | 26.8hPa | 2.6V | 00:00:00 | 00:00:00 | 00:00:00 | |
| AU51GT2 | 2026-09-05 18:15:49 | 49.20398 | 8.62375 | 233° | 15km/h | 25041m | 6.4m/s | -50.0°C | 0.9% | 26.8hPa | 2.6V | 00:00:00 | 00:00:00 | 00:00:00 | |
| DO3DL | 2026-09-05 18:15:48 | 49.20400 | 8.62381 | 237° | 18km/h | 25035m | 5.4m/s | -50.0°C | 0.9% | 26.9hPa | 2.6V | 03:34:00 | 00:00:00 | 00:00:00 | |
| DL1XH1-15 | 2026-09-05 18:15:47 | 49.20423 | 8.62412 | 224° | 22km/h | 25001m | 6.6m/s | -50°C | 3.4% | 27hPa | 2.6V | 03:33:35 | 01:46:07 | 00:00:00 | |
| DF7PN | 2026-09-05 18:15:46 | 49.20407 | 8.62392 | 223° | 18km/h | 25024m | 6.5m/s | -49.9°C | 0.9% | 26.9hPa | 2.6V | 00:00:00 | 00:00:00 | 00:00:00 | |
| DK7TD | 2026-09-05 18:15:43 | 49.20419 | 8.62406 | 218° | 22km/h | 25007m | 5.9m/s | -50°C | 0.3% | 27hPa | 2.6V | 03:34:18 | 01:46:08 | 00:00:00 | |
| DL1XH-west | 2026-09-05 18:15:42 | 49.20423 | 8.62412 | 225° | 22km/h | 25001m | 6.6m/s | -50°C | 0.2% | 27hPa | 2.6V | 03:34:18 | 01:46:07 | 00:00:00 | |
| DM0DOS-11 | 2026-09-05 18:15:41 | 49.20441 | 8.62434 | 209° | 11km/h | 24967m | 5m/s | -50.2°C | 3.5% | 27.1hPa | 2.6V | 03:33:41 | 01:46:01 | 00:00:00 | |
| BIOWL1-15 | 2026-09-05 18:15:41 | 49.20427 | 8.62418 | 227° | 22km/h | 24995m | 5.4m/s | -50°C | 0.2% | 27hPa | 2.6V | 03:34:18 | 01:46:06 | 00:00:00 | |
| DL3AQ-11 | 2026-09-05 18:15:41 | 49.20430 | 8.62423 | 227° | 18km/h | 24989m | 4.9m/s | -50.1°C | 0.9% | 27.0hPa | 2.6V | 00:00:00 | 00:00:00 | 00:00:00 | |
| SONDE2-11 | 2026-09-05 18:15:40 | 49.20430 | 8.62423 | 227° | 18km/h | 24989m | 4.9m/s | -50.1°C | 0.9% | 27.0hPa | 2.6V | 00:00:00 | 00:00:00 | 00:00:00 | |
| DF1GD-15 | 2026-09-05 18:15:39 | 49.20430 | 8.62423 | 228° | 18km/h | 24990m | 4.9m/s | -50.1°C | 0.9% | 27.0hPa | 2.6V | 03:34:00 | 00:00:00 | 00:00:00 | |
| DL1XH1-15 | 2026-09-05 18:15:37 | 49.20456 | 8.62453 | 215° | 26km/h | 24945m | 5.6m/s | -50.3°C | 3.5% | 27.2hPa | 2.6V | 03:33:45 | 01:45:57 | 00:00:00 | |
| DL1XH-west | 2026-09-05 18:15:32 | 49.20456 | 8.62453 | 216° | 26km/h | 24945m | 5.6m/s | -50.3°C | 0.3% | 27.2hPa | 2.6V | 03:34:18 | 01:45:57 | 00:00:00 | |
| BIOWL1-15 | 2026-09-05 18:15:30 | 49.20467 | 8.62462 | 204° | 27km/h | 24933m | 5.4m/s | -50.3°C | 0.3% | 27.3hPa | 2.6V | 03:34:18 | 01:45:55 | 00:00:00 | |
| HEMX73-11 | 2026-09-05 18:15:29 | 49.20467 | 8.62462 | 205° | 27km/h | 24933m | 5.4m/s | -50.3°C | 0.9% | 27.3hPa | 2.6V | 03:34:00 | 00:00:00 | 00:00:00 | |
| DB0NH | 2026-09-05 18:15:28 | 49.20479 | 8.62471 | 208° | 24km/h | 24922m | 5.5m/s | -50.2°C | 3.5% | 27.3hPa | 2.6V | 00:00:00 | 01:45:53 | 00:00:00 | |
| DL1XH1-15 | 2026-09-05 18:15:27 | 49.20507 | 8.62494 | 186° | 18km/h | 24888m | 4.3m/s | -50.3°C | 3.5% | 27.5hPa | 2.6V | 03:33:55 | 01:45:47 | 00:00:00 | |
| BIOWL1-15 | 2026-09-05 18:15:26 | 49.20586 | 8.62518 | 191° | 26km/h | 24822m | 4.7m/s | -50.3°C | 0.3% | 27.7hPa | 2.6V | 03:34:18 | 01:45:35 | 00:00:00 | |
| DL1XH-west | 2026-09-05 18:15:22 | 49.20507 | 8.62494 | 186° | 18km/h | 24888m | 4.3m/s | -50.3°C | 0.3% | 27.5hPa | 2.6V | 03:34:18 | 01:45:47 | 00:00:00 | |
| DL1ZP-14 | 2026-09-05 18:15:21 | 49.20517 | 8.62496 | 193° | 24km/h | 24878m | 6.3m/s | -50.3°C | 0.9% | 27.5hPa | 2.7V | 00:00:00 | 00:00:00 | 00:00:00 | |
| DG9SBQ-11 | 2026-09-05 18:15:20 | 49.20517 | 8.62496 | 195° | 24km/h | 24878m | 6.3m/s | -50.3°C | 0.9% | 27.5hPa | 2.7V | 03:34:00 | 00:00:00 | 00:00:00 | |
| AU51GT2 | 2026-09-05 18:15:18 | 49.20538 | 8.62507 | 197° | 31km/h | 24862m | 5.4m/s | -50.3°C | 0.9% | 27.6hPa | 2.7V | 00:00:00 | 00:00:00 | 00:00:00 | |
| DL1XH1-15 | 2026-09-05 18:15:17 | 49.20573 | 8.62514 | 186° | 27km/h | 24833m | 6.4m/s | -50.3°C | 3.5% | 27.7hPa | 2.7V | 03:34:05 | 01:45:37 | 00:00:00 | |
| DL1XH-west | 2026-09-05 18:15:12 | 49.20573 | 8.62514 | 187° | 27km/h | 24833m | 6.4m/s | -50.3°C | 0.3% | 27.7hPa | 2.7V | 03:34:18 | 01:45:37 | 00:00:00 | |
| DK7TD | 2026-09-05 18:15:11 | 49.20579 | 8.62516 | 191° | 27km/h | 24827m | 5.5m/s | -50.3°C | 0.3% | 27.7hPa | 2.6V | 03:34:18 | 01:45:36 | 00:00:00 | |
| SONDE2-11 | 2026-09-05 18:15:09 | 49.20592 | 8.62519 | 187° | 22km/h | 24817m | 5.3m/s | -50.3°C | 0.9% | 27.8hPa | 2.7V | 00:00:00 | 00:00:00 | 00:00:00 | |
| DG9SBQ-11 | 2026-09-05 18:15:08 | 49.20597 | 8.62520 | 183° | 20km/h | 24812m | 6.5m/s | -50.2°C | 0.9% | 27.8hPa | 2.7V | 03:34:00 | 00:00:00 | 00:00:00 | |
| DL1XH1-15 | 2026-09-05 18:15:07 | 49.20634 | 8.62514 | 172° | 33km/h | 24778m | 4.6m/s | -50.2°C | 3.4% | 27.9hPa | 2.7V | 03:34:15 | 01:45:27 | 00:00:00 | |
| DL1XH-west | 2026-09-05 18:15:01 | 49.20643 | 8.62512 | 168° | 33km/h | 24772m | 6.2m/s | -50.2°C | 0.2% | 28hPa | 2.6V | 03:34:18 | 01:45:26 | 00:00:00 | |
| DL3AQ-11 | 2026-09-05 18:15:01 | 49.20651 | 8.62509 | 163° | 31km/h | 24767m | 5.6m/s | -50.3°C | 0.9% | 28.0hPa | 2.6V | 00:00:00 | 00:00:00 | 00:00:00 | |
| NBG1-10 | 2026-09-05 18:15:00 | 49.20651 | 8.62509 | 164° | 24km/h | 24767m | 5.6m/s | -50.2°C | 3.4% | 27.9hPa | 2.6V | 00:00:00 | 01:45:25 | 00:00:00 | |
| DL1XH1-15 | 2026-09-05 18:14:57 | 49.20697 | 8.62489 | 153° | 13km/h | 24723m | 4.9m/s | -50.5°C | 3.4% | 28.2hPa | 2.6V | 03:34:25 | 01:45:17 | 00:00:00 | |
| BIOWL1-15 | 2026-09-05 18:14:53 | 49.20700 | 8.62487 | 164° | 11km/h | 24717m | 6.1m/s | -50.5°C | 0.2% | 28.2hPa | 2.7V | 03:35:09 | 01:45:16 | 00:00:00 | |
| DL1XH-west | 2026-09-05 18:14:50 | 49.20703 | 8.62486 | 171° | 13km/h | 24712m | 5m/s | -50.6°C | 0.3% | 28.2hPa | 2.7V | 03:35:09 | 01:45:15 | 00:00:00 | |
| DL3AQ-11 | 2026-09-05 18:14:50 | 49.20707 | 8.62485 | 166° | 15km/h | 24707m | 4.3m/s | -50.6°C | 0.9% | 28.2hPa | 2.7V | 00:00:00 | 00:00:00 | 00:00:00 | |
| DL1ZP-14 | 2026-09-05 18:14:49 | 49.20707 | 8.62485 | 166° | 15km/h | 24707m | 4.3m/s | -50.6°C | 0.9% | 28.2hPa | 2.7V | 00:00:00 | 00:00:00 | 00:00:00 | |
| DO3DL | 2026-09-05 18:14:48 | 49.20711 | 8.62483 | 160° | 20km/h | 24703m | 5.0m/s | -50.7°C | 0.9% | 28.2hPa | 2.7V | 03:35:00 | 00:00:00 | 00:00:00 | |
| DL1XH1-15 | 2026-09-05 18:14:47 | 49.20747 | 8.62451 | 154° | 29km/h | 24671m | 4.5m/s | -51.1°C | 3.5% | 28.4hPa | 2.7V | 03:34:35 | 01:45:07 | 00:00:00 | |
| AU51GT2 | 2026-09-05 18:14:47 | 49.20721 | 8.62474 | 144° | 26km/h | 24692m | 5.1m/s | -51.0°C | 0.9% | 28.3hPa | 2.5V | 00:00:00 | 00:00:00 | 00:00:00 | |
| BIOWL1-15 | 2026-09-05 18:14:41 | 49.20753 | 8.62446 | 150° | 27km/h | 24666m | 4.1m/s | -51.2°C | 0.3% | 28.4hPa | 2.5V | 03:35:09 | 01:45:06 | 00:00:00 | |
| DL1XH-west | 2026-09-05 18:14:39 | 49.20763 | 8.62433 | 127° | 26km/h | 24656m | 6.4m/s | -51.4°C | 0.3% | 28.5hPa | 2.6V | 03:35:09 | 01:45:04 | 00:00:00 | |
| SONDE2-11 | 2026-09-05 18:14:38 | 49.20766 | 8.62425 | 111° | 24km/h | 24650m | 5.5m/s | -51.4°C | 0.9% | 28.5hPa | 2.7V | 00:00:00 | 00:00:00 | 00:00:00 | |
| DF3TZ-5 | 2026-09-05 18:14:37 | 49.20768 | 8.62416 | 102° | 22km/h | 24645m | 4.8m/s | -51.5°C | 0.9% | 28.5hPa | 2.7V | 00:00:00 | 00:00:00 | 00:00:00 | |
| DO3MHA-11 | 2026-09-05 18:14:36 | 49.20769 | 8.62408 | 100° | 22km/h | 24640m | 5.3m/s | -51.5°C | 3.6% | 28.5hPa | 2.7V | 03:34:00 | 01:45:01 | 00:00:00 | |
| DO3DL | 2026-09-05 18:14:33 | 49.20771 | 8.62395 | 117° | 15km/h | 24629m | 5.0m/s | -51.7°C | 0.9% | 28.6hPa | 2.6V | 03:35:00 | 00:00:00 | 00:00:00 | |
| DB0UT-9 | 2026-09-05 18:14:32 | 49.20773 | 8.62390 | 132° | 15km/h | 24624m | 4.4m/s | -51.7°C | 0.9% | 28.6hPa | 2.6V | 03:35:00 | 00:00:00 | 00:00:00 | |
| DM0DOS-11 | 2026-09-05 18:14:31 | 49.20809 | 8.62356 | 148° | 29km/h | 24588m | 4.2m/s | -51.9°C | 3.7% | 28.8hPa | 2.6V | 03:34:51 | 01:44:51 | 00:00:00 | |
| BIOWL1-15 | 2026-09-05 18:14:31 | 49.20780 | 8.62381 | 140° | 22km/h | 24613m | 5.6m/s | -51.7°C | 0.4% | 28.6hPa | 2.6V | 03:35:09 | 01:44:56 | 00:00:00 | |
| DL1XH-west | 2026-09-05 18:14:29 | 49.20790 | 8.62371 | 152° | 26km/h | 24603m | 5.2m/s | -51.8°C | 0.4% | 28.7hPa | 2.7V | 03:35:09 | 01:44:54 | 00:00:00 | |
| DJ2KF-10 | 2026-09-05 18:14:28 | 49.20796 | 8.62366 | 156° | 27km/h | 24598m | 6.0m/s | -51.7°C | 3.7% | 28.7hPa | 2.5V | 00:00:00 | 01:44:53 | 00:00:00 | |
| DL1XH1-15 | 2026-09-05 18:14:27 | 49.20829 | 8.62324 | 123° | 24km/h | 24568m | 5.2m/s | -52°C | 3.7% | 28.8hPa | 2.5V | 03:34:55 | 01:44:47 | 00:00:00 | |
| NBG1-10 | 2026-09-05 18:14:27 | 49.20803 | 8.62362 | 155° | 20km/h | 24593m | 4.1m/s | -51.8°C | 3.7% | 28.7hPa | 2.6V | 00:00:00 | 01:44:52 | 00:00:00 | |
| DO3MHA-11 | 2026-09-05 18:14:26 | 49.20809 | 8.62356 | 149° | 22km/h | 24589m | 4.2m/s | -51.8°C | 3.7% | 28.7hPa | 2.6V | 00:00:00 | 01:44:51 | 00:00:00 | |
| DJ2DS-15 | 2026-09-05 18:14:24 | 49.20821 | 8.62341 | 132° | 20km/h | 24578m | 4.9m/s | -51.9°C | 3.7% | 28.8hPa | 2.6V | 00:00:00 | 01:44:49 | 00:00:00 | |
| DK5PH-5 | 2026-09-05 18:14:23 | 49.20825 | 8.62332 | 126° | 18km/h | 24574m | 4.3m/s | -51.9°C | 3.7% | 28.8hPa | 2.6V | 00:00:00 | 01:44:48 | 00:00:00 | |
| DO1YAY-16 | 2026-09-05 18:14:22 | 49.20832 | 8.62317 | 125° | 18km/h | 24563m | 5.7m/s | -52.0°C | 1.0% | 28.9hPa | 2.6V | 00:00:00 | 00:00:00 | 00:00:00 | |
| DM0DOS-11 | 2026-09-05 18:14:21 | 49.20848 | 8.62296 | 142° | 22km/h | 24539m | 4.7m/s | -52.1°C | 3.7% | 28.9hPa | 2.6V | 03:35:01 | 01:44:41 | 00:00:00 | |
| BIOWL1-15 | 2026-09-05 18:14:21 | 49.20832 | 8.62317 | 126° | 18km/h | 24563m | 5.7m/s | -52°C | 0.5% | 28.9hPa | 2.6V | 03:35:09 | 01:44:46 | 00:00:00 | |
| DL1XH-west | 2026-09-05 18:14:19 | 49.20837 | 8.62308 | 139° | 13km/h | 24554m | 3.8m/s | -52°C | 0.4% | 28.9hPa | 2.7V | 03:35:09 | 01:44:44 | 00:00:00 | |
| DK7TD | 2026-09-05 18:14:17 | 49.20844 | 8.62301 | 144° | 18km/h | 24544m | 5.7m/s | -52.1°C | 0.4% | 28.9hPa | 2.6V | 03:35:09 | 01:44:42 | 00:00:00 | |
| DL1XH1-15 | 2026-09-05 18:14:17 | 49.20866 | 8.62276 | 138° | 18km/h | 24519m | 4.9m/s | -52.4°C | 3.8% | 29.1hPa | 2.7V | 03:35:05 | 01:44:37 | 00:00:00 | |
| DB0UT-7 | 2026-09-05 18:14:17 | 49.20843 | 8.62301 | 144° | 18km/h | 24544m | 5.6m/s | -52.0°C | 3.7% | 28.9hPa | 2.7V | 00:00:00 | 00:00:00 | 00:00:00 | |
| DO3MHA-11 | 2026-09-05 18:14:16 | 49.20848 | 8.62296 | 143° | 22km/h | 24539m | 4.7m/s | -52.1°C | 3.7% | 28.9hPa | 2.7V | 00:00:00 | 01:44:41 | 00:00:00 | |
| KANTATE | 2026-09-05 18:14:15 | 49.20848 | 8.62296 | 143° | 22km/h | 24539m | 4.7m/s | -52.1°C | 0.9% | 29.0hPa | 2.7V | 00:00:00 | 00:00:00 | 00:00:00 | |
| DJ2DS-15 | 2026-09-05 18:14:14 | 49.20857 | 8.62286 | 144° | 22km/h | 24530m | 4.8m/s | -52.4°C | 1.0% | 29.0hPa | 2.7V | 00:00:00 | 00:00:00 | 00:00:00 | |
| DF7PN | 2026-09-05 18:14:13 | 49.20862 | 8.62281 | 144° | 20km/h | 24525m | 5.8m/s | -52.4°C | 1.0% | 29.0hPa | 2.7V | 00:00:00 | 00:00:00 | 00:00:00 | |
| DB0NH | 2026-09-05 18:14:12 | 49.20866 | 8.62276 | 139° | 16km/h | 24519m | 4.9m/s | -52.4°C | 3.8% | 29.0hPa | 2.7V | 03:35:00 | 01:44:37 | 00:00:00 | |
| DM0DOS-11 | 2026-09-05 18:14:11 | 49.20874 | 8.62231 | 77° | 20km/h | 24490m | 5.5m/s | -52.6°C | 3.8% | 29.2hPa | 2.7V | 03:35:11 | 01:44:31 | 00:00:00 | |
| BIOWL1-15 | 2026-09-05 18:14:10 | 49.20871 | 8.62265 | 118° | 20km/h | 24509m | 5.9m/s | -52.5°C | 0.5% | 29.1hPa | 2.6V | 03:35:09 | 01:44:35 | 00:00:00 | |
| DL1XH-west | 2026-09-05 18:14:09 | 49.20874 | 8.62257 | 108° | 24km/h | 24503m | 5.4m/s | -52.5°C | 0.5% | 29.1hPa | 2.6V | 03:35:09 | 01:44:34 | 00:00:00 | |
| DL0LBS | 2026-09-05 18:14:08 | 49.20873 | 8.62257 | 109° | 24km/h | 24503m | 5.4m/s | -52.5°C | 1.0% | 29.1hPa | 2.6V | 03:35:00 | 00:00:00 | 00:00:00 | |
| DL1XH1-15 | 2026-09-05 18:14:07 | 49.20871 | 8.62212 | 108° | 9km/h | 24469m | 5.7m/s | -52.6°C | 3.8% | 29.3hPa | 2.6V | 03:35:15 | 01:44:27 | 00:00:00 | |
| DK7TD | 2026-09-05 18:14:06 | 49.20874 | 8.62231 | 77° | 20km/h | 24490m | 5.5m/s | -52.6°C | 0.5% | 29.2hPa | 2.7V | 03:36:00 | 01:44:31 | 00:00:00 | |
| DG9SBQ-11 | 2026-09-05 18:14:06 | 49.20874 | 8.62231 | 78° | 20km/h | 24490m | 5.5m/s | -52.6°C | 1.0% | 29.2hPa | 2.6V | 03:36:00 | 00:00:00 | 00:00:00 | |
| DJ2DS-15 | 2026-09-05 18:14:04 | 49.20871 | 8.62219 | 63° | 16km/h | 24479m | 4.6m/s | -52.5°C | 3.8% | 29.2hPa | 2.6V | 03:35:00 | 01:44:29 | 00:00:00 | |
| DM0DOS-11 | 2026-09-05 18:14:01 | 49.20888 | 8.62191 | 132° | 16km/h | 24440m | 4.3m/s | -52.8°C | 3.9% | 29.4hPa | 2.6V | 03:35:21 | 01:44:21 | 00:00:00 | |
| IW2NTF | 2026-09-05 18:14:01 | 49.20891 | 8.62185 | 123° | 20km/h | 24436m | 5m/s | 0°C | 0% | 0hPa | 2.6V | 03:35:22 | 01:44:20 | 00:00:00 | |
| BIOWL1-15 | 2026-09-05 18:14:00 | 49.20875 | 8.62205 | 144° | 16km/h | 24460m | 4.4m/s | -52.6°C | 0.5% | 29.4hPa | 2.7V | 03:36:00 | 01:44:25 | 00:00:00 | |
| DL1XH-west | 2026-09-05 18:13:59 | 49.20878 | 8.62201 | 149° | 16km/h | 24455m | 5.6m/s | -52.7°C | 0.5% | 29.4hPa | 2.7V | 03:36:00 | 01:44:24 | 00:00:00 | |
| DJ2KF-10 | 2026-09-05 18:13:58 | 49.20882 | 8.62198 | 149° | 18km/h | 24450m | 5.2m/s | -52.7°C | 3.8% | 29.3hPa | 2.7V | 03:35:00 | 01:44:23 | 00:00:00 | |
| DL1XH1-15 | 2026-09-05 18:13:57 | 49.20899 | 8.62161 | 112° | 22km/h | 24420m | 3.8m/s | -52.8°C | 3.8% | 29.5hPa | 2.7V | 03:35:25 | 01:44:17 | 00:00:00 | |
| DK7TD | 2026-09-05 18:13:56 | 49.20888 | 8.62191 | 132° | 16km/h | 24440m | 4.3m/s | -52.8°C | 0.5% | 29.4hPa | 2.6V | 03:36:00 | 01:44:21 | 00:00:00 | |
| DO3MHA-11 | 2026-09-05 18:13:56 | 49.20888 | 8.62191 | 133° | 16km/h | 24440m | 4.3m/s | -52.7°C | 3.9% | 29.4hPa | 2.7V | 03:35:00 | 01:44:21 | 00:00:00 | |
| KANTATE | 2026-09-05 18:13:55 | 49.20888 | 8.62191 | 133° | 16km/h | 24440m | 4.3m/s | -52.8°C | 1.0% | 29.4hPa | 2.7V | 00:00:00 | 00:00:00 | 00:00:00 | |
| NBG1-10 | 2026-09-05 18:13:54 | 49.20893 | 8.62178 | 120° | 18km/h | 24430m | 6.0m/s | -52.7°C | 3.8% | 29.4hPa | 2.7V | 00:00:00 | 01:44:19 | 00:00:00 | |
| DK5PH-5 | 2026-09-05 18:13:53 | 49.20896 | 8.62169 | 115° | 18km/h | 24425m | 4.5m/s | -52.7°C | 3.9% | 29.4hPa | 2.7V | 00:00:00 | 01:44:18 | 00:00:00 | |
| DM0DOS-11 | 2026-09-05 18:13:51 | 49.20914 | 8.62156 | 198° | 20km/h | 24391m | 5.1m/s | -52.7°C | 3.8% | 29.6hPa | 2.7V | 03:35:31 | 01:44:11 | 00:00:00 | |
| IW2NTF | 2026-09-05 18:13:50 | 49.20919 | 8.62158 | 187° | 22km/h | 24386m | 4.3m/s | 0°C | 0% | 0hPa | 2.7V | 03:35:32 | 01:44:10 | 00:00:00 | |
| BIOWL1-15 | 2026-09-05 18:13:50 | 49.20902 | 8.62150 | 132° | 9km/h | 24411m | 5.3m/s | -52.7°C | 0.5% | 29.6hPa | 2.6V | 03:36:00 | 01:44:15 | 00:00:00 | |
| DL1XH-west | 2026-09-05 18:13:49 | 49.20904 | 8.62149 | 192° | 7km/h | 24406m | 4.6m/s | -52.7°C | 0.5% | 29.6hPa | 2.6V | 03:36:00 | 01:44:14 | 00:00:00 | |
| DK7TD | 2026-09-05 18:13:46 | 49.20914 | 8.62157 | 199° | 20km/h | 24391m | 5.1m/s | -52.8°C | 0.4% | 29.6hPa | 2.7V | 03:36:00 | 01:44:11 | 00:00:00 | |
| AU51GT2 | 2026-09-05 18:13:45 | 49.20919 | 8.62158 | 187° | 20km/h | 24387m | 4.3m/s | -52.8°C | 1.0% | 29.7hPa | 2.7V | 00:00:00 | 00:00:00 | 00:00:00 | |
| BIOWL1-15 | 2026-09-05 18:13:43 | 49.20939 | 8.62138 | 112° | 20km/h | 24357m | 4.8m/s | -53°C | 0.4% | 29.8hPa | 2.7V | 03:36:00 | 01:44:04 | 00:00:00 | |
| DB0NH | 2026-09-05 18:13:42 | 49.20932 | 8.62154 | 142° | 16km/h | 24372m | 5.4m/s | -52.8°C | 3.8% | 29.7hPa | 2.6V | 00:00:00 | 01:44:07 | 00:00:00 | |
| DM0DOS-11 | 2026-09-05 18:13:41 | 49.20947 | 8.62116 | 130° | 20km/h | 24342m | 4.1m/s | -53.1°C | 3.9% | 29.9hPa | 2.6V | 03:35:41 | 01:44:01 | 00:00:00 | |
| IW2NTF | 2026-09-05 18:13:41 | 49.20950 | 8.62111 | 137° | 18km/h | 24337m | 5.2m/s | 0°C | 0% | 0hPa | 2.6V | 03:35:42 | 01:44:00 | 00:00:00 | |
| DL1XH-west | 2026-09-05 18:13:38 | 49.20941 | 8.62130 | 118° | 22km/h | 24352m | 5.8m/s | -53.1°C | 0.5% | 29.8hPa | 2.7V | 03:36:00 | 01:44:03 | 00:00:00 | |
| DL1XH1-15 | 2026-09-05 18:13:37 | 49.20958 | 8.62104 | 172° | 9km/h | 24323m | 3.7m/s | -53.3°C | 3.9% | 29.9hPa | 2.7V | 03:35:45 | 01:43:57 | 00:00:00 | |
| DK7TD | 2026-09-05 18:13:34 | 49.20953 | 8.62107 | 146° | 13km/h | 24332m | 5.8m/s | -53.2°C | 0.5% | 29.9hPa | 2.6V | 03:36:00 | 01:43:59 | 00:00:00 | |
| DO3DL | 2026-09-05 18:13:33 | 49.20953 | 8.62107 | 146° | 13km/h | 24332m | 5.8m/s | -53.2°C | 1.0% | 29.9hPa | 2.6V | 03:36:00 | 00:00:00 | 00:00:00 | |
| DH7VM-15 | 2026-09-05 18:13:32 | 49.20956 | 8.62105 | 163° | 9km/h | 24327m | 4.4m/s | -53.3°C | 1.0% | 29.9hPa | 2.6V | 00:00:00 | 00:00:00 | 00:00:00 | |
| IW2NTF | 2026-09-05 18:13:30 | 49.20980 | 8.62079 | 97° | 20km/h | 24290m | 5.6m/s | 0°C | 0% | 0hPa | 2.6V | 03:35:52 | 01:43:50 | 00:00:00 | |
| BIOWL1-15 | 2026-09-05 18:13:29 | 49.20968 | 8.62101 | 160° | 20km/h | 24308m | 4.6m/s | -53.6°C | 0.6% | 30hPa | 2.6V | 03:36:00 | 01:43:54 | 00:00:00 | |
| DL1XH-west | 2026-09-05 18:13:27 | 49.20976 | 8.62093 | 132° | 20km/h | 24300m | 4.3m/s | -53.8°C | 0.6% | 30.1hPa | 2.7V | 03:36:00 | 01:43:52 | 00:00:00 | |
| DK7TD | 2026-09-05 18:13:22 | 49.20979 | 8.62054 | 82° | 26km/h | 24275m | 5.6m/s | -53.8°C | 0.6% | 30.2hPa | 2.7V | 03:36:00 | 01:43:47 | 00:00:00 | |
| DM0DOS-11 | 2026-09-05 18:13:21 | 49.20976 | 8.62011 | 82° | 9km/h | 24244m | 4.9m/s | -53.8°C | 4% | 30.3hPa | 2.7V | 03:36:01 | 01:43:41 | 00:00:00 | |
| BIOWL1-15 | 2026-09-05 18:13:18 | 49.20977 | 8.62020 | 81° | 15km/h | 24255m | 6.3m/s | -53.8°C | 0.6% | 30.3hPa | 2.6V | 03:36:00 | 01:43:43 | 00:00:00 | |
| DL1XH-west | 2026-09-05 18:13:16 | 49.20976 | 8.62011 | 83° | 9km/h | 24244m | 4.9m/s | -53.8°C | 0.6% | 30.4hPa | 2.7V | 03:36:51 | 01:43:41 | 00:00:00 | |
| DO3MHA-11 | 2026-09-05 18:13:16 | 49.20976 | 8.62011 | 83° | 16km/h | 24244m | 4.9m/s | -53.7°C | 4.0% | 30.3hPa | 2.6V | 03:36:00 | 01:43:41 | 00:00:00 | |
| DL6DJ-15 | 2026-09-05 18:13:15 | 49.20976 | 8.62008 | 94° | 9km/h | 24238m | 6.0m/s | -53.8°C | 1.0% | 30.4hPa | 2.6V | 00:00:00 | 00:00:00 | 00:00:00 | |
| DL3AQ-11 | 2026-09-05 18:13:14 | 49.20976 | 8.62000 | 85° | 11km/h | 24229m | 3.9m/s | -53.9°C | 1.1% | 30.4hPa | 2.6V | 00:00:00 | 00:00:00 | 00:00:00 | |
| DB0NH | 2026-09-05 18:13:12 | 49.20975 | 8.61995 | 70° | 13km/h | 24224m | 5.3m/s | -53.8°C | 4.0% | 30.4hPa | 2.6V | 00:00:00 | 01:43:37 | 00:00:00 | |
| DM0DOS-11 | 2026-09-05 18:13:11 | 49.20958 | 8.61955 | 60° | 22km/h | 24192m | 4m/s | -53.9°C | 4.1% | 30.6hPa | 2.6V | 03:36:11 | 01:43:31 | 00:00:00 | |
| DK7TD | 2026-09-05 18:13:11 | 49.20973 | 8.61990 | 54° | 16km/h | 24218m | 6.1m/s | -53.9°C | 0.6% | 30.4hPa | 2.6V | 03:36:51 | 01:43:36 | 00:00:00 | |
| IW2NTF | 2026-09-05 18:13:11 | 49.20955 | 8.61949 | 56° | 18km/h | 24187m | 5.5m/s | 0°C | 0% | 0hPa | 2.6V | 03:36:12 | 01:43:30 | 00:00:00 | |
| BIOWL1-15 | 2026-09-05 18:13:07 | 49.20960 | 8.61963 | 62° | 22km/h | 24196m | 4.4m/s | -53.9°C | 0.7% | 30.6hPa | 2.7V | 03:36:51 | 01:43:32 | 00:00:00 | |
| DL1XH-west | 2026-09-05 18:13:05 | 49.20955 | 8.61949 | 57° | 18km/h | 24187m | 5.5m/s | -53.9°C | 0.7% | 30.6hPa | 2.6V | 03:36:51 | 01:43:30 | 00:00:00 | |
| DO8TBO-1 | 2026-09-05 18:13:05 | 49.20955 | 8.61949 | 57° | 11km/h | 24188m | 5.4m/s | -53.9°C | 4.2% | 30.6hPa | 2.7V | 00:00:00 | 01:43:30 | 00:00:00 | |
| DJ2DS-15 | 2026-09-05 18:13:04 | 49.20953 | 8.61943 | 49° | 9km/h | 24182m | 5.3m/s | -53.8°C | 4.2% | 30.6hPa | 2.7V | 00:00:00 | 01:43:29 | 00:00:00 | |
| BIOWL7-15 | 2026-09-05 18:13:02 | 49.20950 | 8.61940 | 47° | 11km/h | 24177m | 4.3m/s | -53.9°C | 1.0% | 30.6hPa | 2.7V | 00:00:00 | 00:00:00 | 00:00:00 | |
| DM0DOS-11 | 2026-09-05 18:13:01 | 49.20947 | 8.61916 | 51° | 15km/h | 24143m | 4.8m/s | -53.8°C | 4% | 30.8hPa | 2.7V | 03:36:21 | 01:43:21 | 00:00:00 | |
| DL3AQ-11 | 2026-09-05 18:13:01 | 49.20949 | 8.61932 | 111° | 7km/h | 24162m | 4.5m/s | -53.8°C | 1.1% | 30.7hPa | 2.7V | 00:00:00 | 00:00:00 | 00:00:00 | |
| IW2NTF | 2026-09-05 18:13:00 | 49.20945 | 8.61911 | 45° | 16km/h | 24139m | 3.9m/s | 0°C | 0% | 0hPa | 2.7V | 03:36:22 | 01:43:20 | 00:00:00 | |
| DK7TD | 2026-09-05 18:13:00 | 49.20949 | 8.61932 | 111° | 7km/h | 24162m | 4.5m/s | -53.8°C | 0.7% | 30.7hPa | 2.7V | 03:36:51 | 01:43:25 | 00:00:00 | |
| BIOWL1-15 | 2026-09-05 18:12:59 | 49.20949 | 8.61920 | 69° | 13km/h | 24148m | 5.6m/s | -53.8°C | 0.5% | 30.8hPa | 2.6V | 03:36:51 | 01:43:22 | 00:00:00 | |
| DL1XH-west | 2026-09-05 18:12:55 | 49.20945 | 8.61911 | 45° | 16km/h | 24139m | 3.9m/s | -53.8°C | 0.6% | 30.8hPa | 2.7V | 03:36:51 | 01:43:20 | 00:00:00 | |
| AZAK | 2026-09-05 18:12:55 | 49.20945 | 8.61911 | 46° | 16km/h | 24139m | 3.9m/s | -53.8°C | 1.0% | 30.8hPa | 2.7V | 03:36:00 | 00:00:00 | 00:00:00 | |
| DG9SBQ-11 | 2026-09-05 18:12:54 | 49.20945 | 8.61911 | 46° | 16km/h | 24139m | 3.9m/s | -53.8°C | 1.0% | 30.8hPa | 2.7V | 03:36:00 | 00:00:00 | 00:00:00 | |
| DK5PH-5 | 2026-09-05 18:12:53 | 49.20939 | 8.61902 | 52° | 7km/h | 24129m | 5.4m/s | -53.8°C | 4.1% | 30.8hPa | 2.7V | 00:00:00 | 01:43:18 | 00:00:00 | |
| DM0DOS-11 | 2026-09-05 18:12:51 | 49.20930 | 8.61892 | 67° | 2km/h | 24095m | 5.2m/s | -54°C | 4.2% | 31.1hPa | 2.7V | 03:36:31 | 01:43:11 | 00:00:00 | |
| IW2NTF | 2026-09-05 18:12:50 | 49.20932 | 8.61888 | 110° | 9km/h | 24084m | 4.1m/s | 0°C | 0% | 0hPa | 2.7V | 03:36:33 | 01:43:09 | 00:00:00 | |
| DK7TD | 2026-09-05 18:12:49 | 49.20934 | 8.61892 | 17° | 5km/h | 24109m | 6m/s | -53.9°C | 0.7% | 31hPa | 2.6V | 03:36:51 | 01:43:14 | 00:00:00 | |
| BIOWL1-15 | 2026-09-05 18:12:47 | 49.20931 | 8.61892 | 352° | 4km/h | 24099m | 4m/s | -54°C | 0.6% | 31hPa | 2.6V | 03:36:51 | 01:43:12 | 00:00:00 | |
| DB0ND-19 | 2026-09-05 18:12:46 | 49.20931 | 8.61892 | 67° | 0km/h | 24095m | 5.2m/s | -54.0°C | 1.1% | 31.1hPa | 2.7V | 00:00:00 | 00:00:00 | 00:00:00 | |
| DL1ZP-14 | 2026-09-05 18:12:45 | 49.20931 | 8.61891 | 119° | 4km/h | 24090m | 5.6m/s | -54.0°C | 1.1% | 31.1hPa | 2.7V | 00:00:00 | 00:00:00 | 00:00:00 | |
| DL1XH-west | 2026-09-05 18:12:44 | 49.20931 | 8.61888 | 111° | 9km/h | 24084m | 4.1m/s | -54°C | 0.7% | 31.1hPa | 2.7V | 03:36:51 | 01:43:09 | 00:00:00 | |
| AU51GT2 | 2026-09-05 18:12:43 | 49.20932 | 8.61880 | 78° | 11km/h | 24076m | 5.3m/s | -54.0°C | 1.1% | 31.1hPa | 2.6V | 00:00:00 | 00:00:00 | 00:00:00 | |
| DJTTGO | 2026-09-05 18:12:42 | 49.20932 | 8.61880 | 79° | 11km/h | 24076m | 5.3m/s | -54.0°C | 1.1% | 31.1hPa | 2.6V | 03:36:00 | 00:00:00 | 00:00:00 | |
| DM0DOS-11 | 2026-09-05 18:12:41 | 49.20922 | 8.61878 | 264° | 7km/h | 24045m | 5.5m/s | -53.9°C | 4.2% | 31.3hPa | 2.6V | 03:36:41 | 01:43:01 | 00:00:00 | |
| DF7PN | 2026-09-05 18:12:40 | 49.20929 | 8.61874 | 24° | 9km/h | 24065m | 5.1m/s | -54.0°C | 1.1% | 31.2hPa | 2.6V | 00:00:00 | 00:00:00 | 00:00:00 | |
| IW2NTF | 2026-09-05 18:12:39 | 49.20924 | 8.61883 | 237° | 7km/h | 24035m | 4.6m/s | 0°C | 0% | 0hPa | 2.6V | 03:36:43 | 01:42:59 | 00:00:00 | |
| DK7TD | 2026-09-05 18:12:38 | 49.20924 | 8.61874 | 338° | 9km/h | 24056m | 4.9m/s | -53.9°C | 0.7% | 31.3hPa | 2.7V | 03:36:51 | 01:43:03 | 00:00:00 | |
| BIOWL1-15 | 2026-09-05 18:12:37 | 49.20922 | 8.61875 | 306° | 7km/h | 24051m | 5.3m/s | -53.9°C | 0.7% | 31.3hPa | 2.7V | 03:36:51 | 01:43:02 | 00:00:00 | |
| DL1XH-west | 2026-09-05 18:12:34 | 49.20923 | 8.61883 | 237° | 7km/h | 24035m | 4.6m/s | -53.8°C | 0.7% | 31.3hPa | 2.6V | 03:36:51 | 01:42:59 | 00:00:00 | |
| DL3AQ-11 | 2026-09-05 18:12:34 | 49.20924 | 8.61885 | 240° | 4km/h | 24030m | 5.8m/s | -53.7°C | 1.0% | 31.4hPa | 2.6V | 00:00:00 | 00:00:00 | 00:00:00 | |
| DF3TZ-5 | 2026-09-05 18:12:33 | 49.20924 | 8.61885 | 240° | 4km/h | 24030m | 5.8m/s | -53.7°C | 1.0% | 31.4hPa | 2.6V | 00:00:00 | 00:00:00 | 00:00:00 | |
| DO3DL | 2026-09-05 18:12:32 | 49.20924 | 8.61885 | 242° | 4km/h | 24030m | 5.8m/s | -53.7°C | 1.0% | 31.4hPa | 2.6V | 03:36:00 | 00:00:00 | 00:00:00 | |
| DM0DOS-11 | 2026-09-05 18:12:31 | 49.20925 | 8.61897 | 269° | 11km/h | 23994m | 4.6m/s | -53.5°C | 4% | 31.5hPa | 2.6V | 03:36:51 | 01:42:51 | 00:00:00 | |
| IW2NTF | 2026-09-05 18:12:29 | 49.20924 | 8.61905 | 287° | 11km/h | 23984m | 4.8m/s | 0°C | 0% | 0hPa | 2.7V | 03:36:53 | 01:42:49 | 00:00:00 | |
| BIOWL1-15 | 2026-09-05 18:12:27 | 49.20925 | 8.61893 | 258° | 9km/h | 23999m | 4.3m/s | -53.5°C | 0.6% | 31.5hPa | 2.6V | 03:36:51 | 01:42:52 | 00:00:00 | |
| BIOWL1-15 | 2026-09-05 18:12:25 | 49.20935 | 8.61926 | 224° | 9km/h | 23950m | 4.9m/s | -53.4°C | 0.6% | 31.8hPa | 2.7V | 03:37:42 | 01:42:42 | 00:00:00 | |
| DL1XH-west | 2026-09-05 18:12:24 | 49.20924 | 8.61905 | 287° | 11km/h | 23984m | 4.8m/s | -53.4°C | 0.6% | 31.6hPa | 2.7V | 03:37:42 | 01:42:49 | 00:00:00 | |
| DK5PH-5 | 2026-09-05 18:12:23 | 49.20923 | 8.61909 | 280° | 15km/h | 23980m | 4.0m/s | -53.4°C | 4.0% | 31.6hPa | 2.7V | 00:00:00 | 01:42:48 | 00:00:00 | |
| DM0DOS-11 | 2026-09-05 18:12:21 | 49.20936 | 8.61930 | 260° | 9km/h | 23945m | 4.3m/s | -53.4°C | 3.9% | 31.8hPa | 2.7V | 03:37:01 | 01:42:41 | 00:00:00 | |
| DL4BBY-15 | 2026-09-05 18:12:20 | 49.20927 | 8.61919 | 216° | 16km/h | 23965m | 5.3m/s | -55.0°C | 0% | 0hPa | 2.7V | 00:00:00 | 00:00:00 | 00:00:00 | |
| DO3DL | 2026-09-05 18:12:19 | 49.20927 | 8.61919 | 216° | 13km/h | 23965m | 5.3m/s | -53.4°C | 1.0% | 31.7hPa | 2.7V | 03:37:00 | 00:00:00 | 00:00:00 | |
| BIOWL7-15 | 2026-09-05 18:12:18 | 49.20930 | 8.61922 | 207° | 13km/h | 23960m | 4.8m/s | -53.4°C | 1.0% | 31.7hPa | 2.7V | 00:00:00 | 00:00:00 | 00:00:00 | |
| DL1XH1-15 | 2026-09-05 18:12:17 | 49.20936 | 8.61957 | 260° | 22km/h | 23925m | 4.3m/s | -53.6°C | 4% | 31.9hPa | 2.7V | 03:37:05 | 01:42:37 | 00:00:00 | |
| DK7TD | 2026-09-05 18:12:16 | 49.20936 | 8.61930 | 260° | 9km/h | 23945m | 4.3m/s | -53.4°C | 0.5% | 31.8hPa | 2.7V | 03:37:42 | 01:42:41 | 00:00:00 | |
| DL1XH-west | 2026-09-05 18:12:14 | 49.20935 | 8.61941 | 275° | 18km/h | 23935m | 5.6m/s | -53.5°C | 0.5% | 31.8hPa | 2.6V | 03:37:42 | 01:42:39 | 00:00:00 | |
| DO3DL | 2026-09-05 18:12:13 | 49.20935 | 8.61940 | 276° | 18km/h | 23936m | 5.6m/s | -53.5°C | 1.0% | 31.8hPa | 2.7V | 03:37:00 | 00:00:00 | 00:00:00 | |
| IW2NTF | 2026-09-05 18:12:13 | 49.20946 | 8.61974 | 162° | 7km/h | 23901m | 4.2m/s | 0°C | 0% | 0hPa | 2.7V | 03:37:10 | 01:42:32 | 00:00:00 | |
| AU51GT2 | 2026-09-05 18:12:12 | 49.20937 | 8.61964 | 249° | 18km/h | 23921m | 4.3m/s | -53.6°C | 1.0% | 31.9hPa | 2.7V | 00:00:00 | 00:00:00 | 00:00:00 | |
| DM0DOS-11 | 2026-09-05 18:12:11 | 49.20948 | 8.61973 | 179° | 7km/h | 23896m | 4.8m/s | -53.5°C | 4.1% | 32hPa | 2.7V | 03:37:11 | 01:42:31 | 00:00:00 | |
| BIOWL1-15 | 2026-09-05 18:12:09 | 49.20946 | 8.61974 | 162° | 7km/h | 23901m | 4.2m/s | -53.5°C | 0.6% | 32hPa | 2.7V | 03:37:42 | 01:42:32 | 00:00:00 | |
| DB0UT-9 | 2026-09-05 18:12:08 | 49.20942 | 8.61974 | 208° | 11km/h | 23911m | 5.7m/s | -53.6°C | 1.1% | 32.0hPa | 2.7V | 03:37:00 | 00:00:00 | 00:00:00 | |
| DL1XH1-15 | 2026-09-05 18:12:07 | 49.20958 | 8.61990 | 231° | 26km/h | 23874m | 5.7m/s | -53.6°C | 4.1% | 32.1hPa | 2.7V | 03:37:15 | 01:42:27 | 00:00:00 | |
| DK7TD | 2026-09-05 18:12:06 | 49.20948 | 8.61973 | 180° | 7km/h | 23896m | 4.8m/s | -53.5°C | 0.6% | 32hPa | 2.7V | 03:37:42 | 01:42:31 | 00:00:00 | |
| DL1XH-west | 2026-09-05 18:12:03 | 49.20955 | 8.61983 | 232° | 20km/h | 23880m | 5.7m/s | -53.6°C | 0.6% | 32.1hPa | 2.6V | 03:37:42 | 01:42:28 | 00:00:00 | |
| DF3TZ-5 | 2026-09-05 18:12:02 | 49.20958 | 8.61990 | 231° | 24km/h | 23875m | 5.7m/s | -53.6°C | 1.1% | 32.1hPa | 2.6V | 00:00:00 | 00:00:00 | 00:00:00 | |
| DM0DOS-11 | 2026-09-05 18:12:01 | 49.20980 | 8.62024 | 206° | 11km/h | 23845m | 4.4m/s | -53.5°C | 3.9% | 32.3hPa | 2.6V | 03:37:21 | 01:42:21 | 00:00:00 | |
| DG9SBQ-11 | 2026-09-05 18:12:00 | 49.20963 | 8.61997 | 230° | 27km/h | 23869m | 5.2m/s | -53.6°C | 1.0% | 32.2hPa | 2.7V | 03:37:00 | 00:00:00 | 00:00:00 | |
| KANTATE | 2026-09-05 18:11:59 | 49.20967 | 8.62005 | 229° | 27km/h | 23865m | 4.1m/s | -53.6°C | 1.1% | 32.2hPa | 2.7V | 03:37:00 | 00:00:00 | 00:00:00 | |
| IW2NTF | 2026-09-05 18:11:58 | 49.20990 | 8.62029 | 194° | 16km/h | 23829m | 4.9m/s | 0°C | 0% | 0hPa | 2.7V | 03:37:24 | 01:42:18 | 00:00:00 | |
| DO3DL | 2026-09-05 18:11:58 | 49.20972 | 8.62012 | 227° | 24km/h | 23860m | 4.7m/s | -53.6°C | 1.0% | 32.2hPa | 2.6V | 03:37:00 | 00:00:00 | 00:00:00 | |
| DL1XH1-15 | 2026-09-05 18:11:57 | 49.20994 | 8.62030 | 196° | 16km/h | 23825m | 4m/s | -53.4°C | 3.9% | 32.4hPa | 2.6V | 03:37:25 | 01:42:17 | 00:00:00 | |
| DK7TD | 2026-09-05 18:11:56 | 49.20980 | 8.62024 | 207° | 11km/h | 23845m | 4.4m/s | -53.5°C | 0.5% | 32.3hPa | 2.6V | 03:37:42 | 01:42:21 | 00:00:00 | |
| DL1XH-west | 2026-09-05 18:11:53 | 49.20990 | 8.62029 | 195° | 16km/h | 23830m | 4.9m/s | -53.5°C | 0.5% | 32.4hPa | 2.7V | 03:37:42 | 01:42:18 | 00:00:00 | |
| DJ2DS-15 | 2026-09-05 18:11:51 | 49.21001 | 8.62034 | 199° | 13km/h | 23814m | 6.1m/s | -53.4°C | 1.0% | 32.4hPa | 2.6V | 00:00:00 | 00:00:00 | 00:00:00 | |
| DO3DL | 2026-09-05 18:11:50 | 49.20997 | 8.62032 | 199° | 16km/h | 23820m | 5.6m/s | -53.4°C | 1.0% | 32.4hPa | 2.6V | 03:37:00 | 00:00:00 | 00:00:00 | |
| IW2NTF | 2026-09-05 18:11:49 | 49.21026 | 8.62047 | 185° | 11km/h | 23777m | 6.2m/s | 0°C | 0% | 0hPa | 2.6V | 03:37:34 | 01:42:08 | 00:00:00 | |
| DL4BBY-15 | 2026-09-05 18:11:49 | 49.21004 | 8.62036 | 201° | 13km/h | 23809m | 5.4m/s | -55.0°C | 0% | 0hPa | 2.7V | 00:00:00 | 00:00:00 | 00:00:00 | |
| DG9SBQ-11 | 2026-09-05 18:11:48 | 49.21004 | 8.62036 | 202° | 13km/h | 23809m | 5.4m/s | -53.4°C | 1.0% | 32.5hPa | 2.7V | 03:37:00 | 00:00:00 | 00:00:00 | |
| DL1XH1-15 | 2026-09-05 18:11:47 | 49.21029 | 8.62047 | 169° | 9km/h | 23772m | 5.7m/s | -53.6°C | 4% | 32.6hPa | 2.7V | 03:37:35 | 01:42:07 | 00:00:00 | |
| BIOWL1-15 | 2026-09-05 18:11:45 | 49.21019 | 8.62044 | 197° | 16km/h | 23788m | 4m/s | -53.5°C | 0.5% | 32.6hPa | 2.6V | 03:37:42 | 01:42:10 | 00:00:00 | |
| DL1XH-west | 2026-09-05 18:11:42 | 49.21029 | 8.62047 | 170° | 9km/h | 23772m | 5.7m/s | -53.6°C | 0.6% | 32.6hPa | 2.7V | 03:37:42 | 01:42:07 | 00:00:00 | |
| AU51GT2 | 2026-09-05 18:11:41 | 49.21033 | 8.62045 | 165° | 11km/h | 23761m | 5.4m/s | -53.7°C | 1.1% | 32.7hPa | 2.6V | 00:00:00 | 00:00:00 | 00:00:00 | |
| IW2NTF | 2026-09-05 18:11:38 | 49.21056 | 8.62044 | 179° | 11km/h | 23724m | 5.2m/s | 0°C | 0% | 0hPa | 2.6V | 03:37:44 | 01:41:58 | 00:00:00 | |
| DF7PN | 2026-09-05 18:11:38 | 49.21040 | 8.62044 | 180° | 15km/h | 23750m | 4.6m/s | -53.9°C | 1.1% | 32.8hPa | 2.7V | 00:00:00 | 00:00:00 | 00:00:00 | |
| DL1XH1-15 | 2026-09-05 18:11:37 | 49.21058 | 8.62044 | 179° | 11km/h | 23718m | 6.1m/s | -53.9°C | 4.1% | 32.9hPa | 2.7V | 03:37:45 | 01:41:57 | 00:00:00 | |
| BIOWL1-15 | 2026-09-05 18:11:36 | 49.21053 | 8.62044 | 178° | 9km/h | 23729m | 5.5m/s | -53.9°C | 0.6% | 32.9hPa | 2.6V | 03:38:33 | 01:41:59 | 00:00:00 | |
| DK7TD | 2026-09-05 18:11:35 | 49.21051 | 8.62044 | 179° | 11km/h | 23735m | 6m/s | -53.9°C | 0.6% | 32.8hPa | 2.6V | 03:37:42 | 01:42:00 | 00:00:00 | |
| DM7RM-13 | 2026-09-05 18:11:35 | 49.21051 | 8.62044 | 180° | 11km/h | 23735m | 6.0m/s | -53.9°C | 1.1% | 32.8hPa | 2.6V | 03:37:00 | 00:00:00 | 00:00:00 | |
| DO8TBO-1 | 2026-09-05 18:11:34 | 49.21053 | 8.62044 | 178° | 11km/h | 23730m | 5.4m/s | -53.9°C | 4.1% | 32.8hPa | 2.6V | 00:00:00 | 01:41:59 | 00:00:00 | |
| SONDE2-11 | 2026-09-05 18:11:32 | 49.21062 | 8.62044 | 174° | 13km/h | 23713m | 4.6m/s | -53.9°C | 1.0% | 33.0hPa | 2.6V | 00:00:00 | 00:00:00 | 00:00:00 | |
| DM0DOS-11 | 2026-09-05 18:11:31 | 49.21076 | 8.62027 | 128° | 18km/h | 23686m | 4.8m/s | -54°C | 4.1% | 33.1hPa | 2.6V | 03:37:51 | 01:41:51 | 00:00:00 | |
| DL1XH-west | 2026-09-05 18:11:31 | 49.21062 | 8.62044 | 174° | 13km/h | 23713m | 4.6m/s | -53.9°C | 0.6% | 33hPa | 2.7V | 03:38:33 | 01:41:56 | 00:00:00 | |
| DL3AQ-11 | 2026-09-05 18:11:30 | 49.21068 | 8.62041 | 147° | 13km/h | 23703m | 5.8m/s | -53.9°C | 1.1% | 33.0hPa | 2.7V | 00:00:00 | 00:00:00 | 00:00:00 | |
| IW2NTF | 2026-09-05 18:11:29 | 49.21085 | 8.62016 | 159° | 15km/h | 23670m | 4.8m/s | 0°C | 0% | 0hPa | 2.7V | 03:37:54 | 01:41:48 | 00:00:00 | |
| DJTTGO | 2026-09-05 18:11:28 | 49.21068 | 8.62041 | 148° | 15km/h | 23703m | 5.8m/s | -53.9°C | 1.1% | 33.0hPa | 2.6V | 03:38:00 | 00:00:00 | 00:00:00 | |
| DL1XH1-15 | 2026-09-05 18:11:27 | 49.21088 | 8.62014 | 161° | 13km/h | 23665m | 5.3m/s | -54.1°C | 4.1% | 33.2hPa | 2.6V | 03:37:55 | 01:41:47 | 00:00:00 | |
| DK7TD | 2026-09-05 18:11:24 | 49.21082 | 8.62018 | 150° | 16km/h | 23675m | 5.3m/s | -54.1°C | 0.6% | 33.1hPa | 2.7V | 03:38:33 | 01:41:49 | 00:00:00 | |
| DJ2DS-15 | 2026-09-05 18:11:24 | 49.21082 | 8.62018 | 150° | 18km/h | 23675m | 5.3m/s | -54.1°C | 4.1% | 33.1hPa | 2.7V | 03:37:00 | 01:41:49 | 00:00:00 | |
| DK5PH-5 | 2026-09-05 18:11:23 | 49.21085 | 8.62016 | 160° | 16km/h | 23670m | 4.7m/s | -54.1°C | 4.1% | 33.1hPa | 2.7V | 03:37:00 | 01:41:48 | 00:00:00 | |
| HEMX73-11 | 2026-09-05 18:11:22 | 49.21085 | 8.62016 | 160° | 15km/h | 23670m | 4.8m/s | -54.1°C | 1.0% | 33.2hPa | 2.7V | 03:38:00 | 00:00:00 | 00:00:00 | |
| DM0DOS-11 | 2026-09-05 18:11:21 | 49.21105 | 8.62003 | 147° | 18km/h | 23632m | 3.9m/s | -54.1°C | 4.1% | 33.4hPa | 2.7V | 03:38:01 | 01:41:41 | 00:00:00 | |
| DL1XH-west | 2026-09-05 18:11:21 | 49.21091 | 8.62013 | 157° | 11km/h | 23659m | 6.4m/s | -54.1°C | 0.6% | 33.2hPa | 2.6V | 03:38:33 | 01:41:46 | 00:00:00 | |
| DO3DL | 2026-09-05 18:11:20 | 49.21091 | 8.62012 | 158° | 11km/h | 23659m | 6.4m/s | -54.1°C | 1.1% | 33.2hPa | 2.6V | 00:00:00 | 00:00:00 | 00:00:00 | |
| IW2NTF | 2026-09-05 18:11:19 | 49.21117 | 8.61983 | 124° | 29km/h | 23616m | 4.8m/s | 0°C | 0% | 0hPa | 2.6V | 03:38:04 | 01:41:38 | 00:00:00 | |
| KANTATE | 2026-09-05 18:11:18 | 49.21095 | 8.62009 | 157° | 9km/h | 23648m | 4.7m/s | -54.1°C | 1.1% | 33.3hPa | 2.7V | 00:00:00 | 00:00:00 | 00:00:00 | |
| DL1XH1-15 | 2026-09-05 18:11:17 | 49.21121 | 8.61974 | 127° | 31km/h | 23611m | 4.9m/s | -54.2°C | 4.1% | 33.5hPa | 2.7V | 03:38:05 | 01:41:37 | 00:00:00 | |
| BIOWL1-15 | 2026-09-05 18:11:15 | 49.21117 | 8.61983 | 125° | 29km/h | 23616m | 4.8m/s | -54.2°C | 0.6% | 33.5hPa | 2.6V | 03:38:33 | 01:41:38 | 00:00:00 | |
| DK7TD | 2026-09-05 18:11:14 | 49.21113 | 8.61992 | 128° | 26km/h | 23621m | 6.1m/s | -54.2°C | 0.6% | 33.4hPa | 2.6V | 03:38:33 | 01:41:39 | 00:00:00 | |
| DL3AQ-11 | 2026-09-05 18:11:14 | 49.21117 | 8.61983 | 124° | 27km/h | 23616m | 4.8m/s | -54.2°C | 1.0% | 33.5hPa | 2.7V | 00:00:00 | 00:00:00 | 00:00:00 | |
| DB0ND-19 | 2026-09-05 18:11:13 | 49.21117 | 8.61983 | 124° | 27km/h | 23616m | 4.8m/s | -54.2°C | 1.0% | 33.5hPa | 2.7V | 00:00:00 | 00:00:00 | 00:00:00 | |
| DL1ZP-14 | 2026-09-05 18:11:12 | 49.21121 | 8.61974 | 127° | 29km/h | 23611m | 4.9m/s | -54.2°C | 1.0% | 33.5hPa | 2.7V | 00:00:00 | 00:00:00 | 00:00:00 | |
| DM0DOS-11 | 2026-09-05 18:11:11 | 49.21144 | 8.61936 | 132° | 11km/h | 23579m | 4.4m/s | -54.2°C | 4.1% | 33.6hPa | 2.7V | 03:38:11 | 01:41:31 | 00:00:00 | |
| DL1XH-west | 2026-09-05 18:11:10 | 49.21131 | 8.61957 | 136° | 27km/h | 23600m | 5m/s | -54.2°C | 0.7% | 33.5hPa | 2.6V | 03:38:33 | 01:41:35 | 00:00:00 | |
| DF1GD-15 | 2026-09-05 18:11:09 | 49.21131 | 8.61957 | 137° | 27km/h | 23600m | 5.0m/s | -54.2°C | 1.1% | 33.5hPa | 2.7V | 03:38:00 | 00:00:00 | 00:00:00 | |
| DG9SBQ-11 | 2026-09-05 18:11:08 | 49.21136 | 8.61950 | 138° | 24km/h | 23595m | 5.0m/s | -54.2°C | 1.1% | 33.6hPa | 2.7V | 03:38:00 | 00:00:00 | 00:00:00 | |
| DL1XH1-15 | 2026-09-05 18:11:07 | 49.21153 | 8.61932 | 175° | 11km/h | 23559m | 3.8m/s | -54.3°C | 4.2% | 33.7hPa | 2.7V | 03:38:15 | 01:41:27 | 00:00:00 | |
| BIOWL1-15 | 2026-09-05 18:11:03 | 49.21150 | 8.61932 | 182° | 11km/h | 23563m | 5.2m/s | -54.3°C | 0.7% | 33.7hPa | 2.6V | 03:38:33 | 01:41:28 | 00:00:00 | |
| DG9SBQ-11 | 2026-09-05 18:11:02 | 49.21151 | 8.61932 | 183° | 11km/h | 23563m | 5.2m/s | -54.3°C | 1.1% | 33.7hPa | 2.6V | 03:38:00 | 00:00:00 | 00:00:00 | |
| DM0DOS-11 | 2026-09-05 18:11:01 | 49.21167 | 8.61904 | 115° | 18km/h | 23528m | 5.9m/s | -54.4°C | 4.2% | 33.9hPa | 2.6V | 03:38:21 | 01:41:21 | 00:00:00 | |
| DL1XH-west | 2026-09-05 18:10:59 | 49.21161 | 8.61923 | 119° | 16km/h | 23543m | 5.9m/s | -54.3°C | 0.7% | 33.8hPa | 2.6V | 03:38:33 | 01:41:24 | 00:00:00 | |
| DL1XH1-15 | 2026-09-05 18:10:57 | 49.21172 | 8.61883 | 106° | 11km/h | 23506m | 5.1m/s | -54.4°C | 4.3% | 34hPa | 2.6V | 03:38:25 | 01:41:17 | 00:00:00 | |
| IW2NTF | 2026-09-05 18:10:57 | 49.21173 | 8.61879 | 118° | 11km/h | 23501m | 4.4m/s | 0°C | 0% | 0hPa | 2.6V | 03:38:26 | 01:41:16 | 00:00:00 | |
| DK7TD | 2026-09-05 18:10:53 | 49.21172 | 8.61888 | 109° | 13km/h | 23511m | 6.5m/s | -54.4°C | 0.7% | 34hPa | 2.7V | 03:38:33 | 01:41:18 | 00:00:00 | |
| BIOWL1-15 | 2026-09-05 18:10:52 | 49.21172 | 8.61883 | 107° | 11km/h | 23506m | 5.1m/s | -54.4°C | 0.7% | 34hPa | 2.6V | 03:38:33 | 01:41:17 | 00:00:00 | |
| DL1XH-west | 2026-09-05 18:10:48 | 49.21180 | 8.61872 | 148° | 13km/h | 23485m | 4.1m/s | -54.5°C | 0.7% | 34.1hPa | 2.7V | 03:38:33 | 01:41:13 | 00:00:00 | |
| DB0UT-7 | 2026-09-05 18:10:47 | 49.21182 | 8.61869 | 135° | 15km/h | 23481m | 4.7m/s | -54.4°C | 4.2% | 34.1hPa | 2.7V | 00:00:00 | 01:41:12 | 00:00:00 | |
| DO3MHA-11 | 2026-09-05 18:10:46 | 49.21184 | 8.61864 | 120° | 20km/h | 23475m | 6.1m/s | -54.3°C | 4.2% | 34.1hPa | 2.7V | 00:00:00 | 01:41:11 | 00:00:00 | |
| DJ2KF-10 | 2026-09-05 18:10:45 | 49.21186 | 8.61857 | 109° | 13km/h | 23470m | 5.0m/s | 0°C | 0% | 0hPa | 2.7V | 00:00:00 | 01:41:10 | 00:00:00 | |
| DL0LBS | 2026-09-05 18:10:44 | 49.21186 | 8.61857 | 110° | 20km/h | 23470m | 5.1m/s | -54.3°C | 1.1% | 34.2hPa | 2.7V | 03:38:00 | 00:00:00 | 00:00:00 | |
| IW2NTF | 2026-09-05 18:10:43 | 49.21205 | 8.61799 | 101° | 13km/h | 23429m | 5m/s | 0°C | 0% | 0hPa | 2.7V | 03:38:40 | 01:41:02 | 00:00:00 | |
| BIOWL1-15 | 2026-09-05 18:10:42 | 49.21192 | 8.61832 | 116° | 24km/h | 23455m | 5.4m/s | -54.2°C | 0.6% | 34.3hPa | 2.7V | 03:39:24 | 01:41:07 | 00:00:00 | |
| DL1XH-west | 2026-09-05 18:10:38 | 49.21203 | 8.61804 | 114° | 16km/h | 23435m | 6m/s | -54.2°C | 0.7% | 34.4hPa | 2.6V | 03:39:24 | 01:41:03 | 00:00:00 | |
| DO3MHA-11 | 2026-09-05 18:10:36 | 49.21205 | 8.61795 | 93° | 9km/h | 23424m | 4.2m/s | -54.1°C | 4.2% | 34.4hPa | 2.7V | 03:38:00 | 01:41:01 | 00:00:00 | |
| KANTATE | 2026-09-05 18:10:34 | 49.21205 | 8.61792 | 100° | 5km/h | 23419m | 5.9m/s | -54.2°C | 1.1% | 34.5hPa | 2.6V | 00:00:00 | 00:00:00 | 00:00:00 | |
| IW2NTF | 2026-09-05 18:10:33 | 49.21216 | 8.61769 | 135° | 20km/h | 23377m | 5.7m/s | 0°C | 0% | 0hPa | 2.6V | 03:38:50 | 01:40:52 | 00:00:00 | |
| DK7TD | 2026-09-05 18:10:31 | 49.21208 | 8.61788 | 120° | 7km/h | 23398m | 6.1m/s | -54.3°C | 0.7% | 34.6hPa | 2.7V | 03:43:39 | 01:40:56 | 00:00:00 | |
| DM0DOS-11 | 2026-09-05 18:10:31 | 49.21220 | 8.61764 | 140° | 20km/h | 23372m | 4.5m/s | -54.3°C | 4.2% | 34.7hPa | 2.6V | 03:38:51 | 01:40:51 | 00:00:00 | |
| SONDE2-11 | 2026-09-05 18:10:30 | 49.21210 | 8.61780 | 116° | 13km/h | 23388m | 4.2m/s | -54.3°C | 1.1% | 34.7hPa | 2.6V | 00:00:00 | 00:00:00 | 00:00:00 | |
| DF3TZ-5 | 2026-09-05 18:10:29 | 49.21210 | 8.61780 | 116° | 13km/h | 23388m | 4.2m/s | -54.3°C | 1.1% | 34.7hPa | 2.6V | 00:00:00 | 00:00:00 | 00:00:00 | |
| DL1XH1-15 | 2026-09-05 18:10:27 | 49.21231 | 8.61746 | 125° | 9km/h | 23351m | 5.3m/s | -54.2°C | 4.2% | 34.9hPa | 2.6V | 03:38:55 | 01:40:47 | 00:00:00 | |
| DL1XH-west | 2026-09-05 18:10:27 | 49.21216 | 8.61769 | 136° | 20km/h | 23377m | 5.7m/s | -54.3°C | 0.7% | 34.7hPa | 2.6V | 03:39:24 | 01:40:52 | 00:00:00 | |
| DO3MHA-11 | 2026-09-05 18:10:26 | 49.21219 | 8.61764 | 141° | 11km/h | 23372m | 4.5m/s | -54.2°C | 4.2% | 34.7hPa | 2.7V | 00:00:00 | 01:40:51 | 00:00:00 | |
| BIOWL7-15 | 2026-09-05 18:10:25 | 49.21219 | 8.61764 | 142° | 20km/h | 23372m | 4.5m/s | -54.3°C | 1.1% | 34.7hPa | 2.7V | 00:00:00 | 00:00:00 | 00:00:00 | |
| DB0UT-9 | 2026-09-05 18:10:24 | 49.21223 | 8.61759 | 141° | 20km/h | 23368m | 4.4m/s | -54.3°C | 1.1% | 34.8hPa | 2.7V | 03:39:00 | 00:00:00 | 00:00:00 | |
| DK5PH-5 | 2026-09-05 18:10:23 | 49.21229 | 8.61750 | 128° | 7km/h | 23357m | 5.7m/s | -54.2°C | 4.2% | 34.8hPa | 2.7V | 00:00:00 | 01:40:48 | 00:00:00 | |
| IW2NTF | 2026-09-05 18:10:23 | 49.21236 | 8.61741 | 95° | 2km/h | 23325m | 6m/s | 0°C | 0% | 0hPa | 2.7V | 03:39:00 | 01:40:42 | 00:00:00 | |
| DJ2DS-15 | 2026-09-05 18:10:22 | 49.21231 | 8.61746 | 126° | 9km/h | 23351m | 5.3m/s | -54.1°C | 4.2% | 34.8hPa | 2.7V | 00:00:00 | 01:40:47 | 00:00:00 | |
| DM0DOS-11 | 2026-09-05 18:10:21 | 49.21236 | 8.61739 | 86° | 4km/h | 23320m | 4.8m/s | -54.1°C | 4.2% | 35hPa | 2.7V | 03:39:01 | 01:40:41 | 00:00:00 | |
| DK7TD | 2026-09-05 18:10:21 | 49.21233 | 8.61744 | 137° | 7km/h | 23345m | 6m/s | -54.2°C | 0.7% | 34.9hPa | 2.6V | 03:43:39 | 01:40:46 | 00:00:00 | |
| DL3AQ-11 | 2026-09-05 18:10:21 | 49.21233 | 8.61744 | 137° | 7km/h | 23345m | 6.0m/s | -54.2°C | 1.1% | 34.9hPa | 2.7V | 00:00:00 | 00:00:00 | 00:00:00 | |
| DH7VM-15 | 2026-09-05 18:10:20 | 49.21232 | 8.61744 | 138° | 7km/h | 23346m | 6.0m/s | -54.2°C | 1.1% | 34.9hPa | 2.7V | 00:00:00 | 00:00:00 | 00:00:00 | |
| DL4BBY-15 | 2026-09-05 18:10:19 | 49.21235 | 8.61742 | 171° | 7km/h | 23335m | 3.9m/s | -55.7°C | 0% | 0hPa | 2.7V | 00:00:00 | 00:00:00 | 00:00:00 | |
| NBG1-10 | 2026-09-05 18:10:18 | 49.21236 | 8.61741 | 154° | 7km/h | 23331m | 4.6m/s | -54.1°C | 4.2% | 34.9hPa | 2.7V | 03:38:00 | 01:40:43 | 00:00:00 | |
| DL1XH1-15 | 2026-09-05 18:10:17 | 49.21241 | 8.61730 | 134° | 15km/h | 23300m | 4.2m/s | -54°C | 4.1% | 35.1hPa | 2.7V | 03:39:05 | 01:40:37 | 00:00:00 | |
| DL1XH-west | 2026-09-05 18:10:17 | 49.21236 | 8.61741 | 96° | 2km/h | 23325m | 6m/s | -54.1°C | 0.7% | 35hPa | 2.7V | 03:39:24 | 01:40:42 | 00:00:00 | |
| DB0UT-7 | 2026-09-05 18:10:17 | 49.21236 | 8.61741 | 96° | 7km/h | 23325m | 6.0m/s | -54.1°C | 4.2% | 35.0hPa | 2.7V | 00:00:00 | 00:00:00 | 00:00:00 | |
| DO3MHA-11 | 2026-09-05 18:10:16 | 49.21236 | 8.61739 | 87° | 13km/h | 23320m | 4.8m/s | -54.0°C | 4.2% | 35.0hPa | 2.7V | 00:00:00 | 01:40:41 | 00:00:00 | |
| DJTTGO | 2026-09-05 18:10:15 | 49.21236 | 8.61739 | 88° | 4km/h | 23320m | 4.8m/s | -54.1°C | 1.1% | 35.0hPa | 2.7V | 03:39:00 | 00:00:00 | 00:00:00 | |
| DG9SBQ-11 | 2026-09-05 18:10:14 | 49.21238 | 8.61736 | 133° | 7km/h | 23310m | 6.0m/s | -54.0°C | 1.1% | 35.1hPa | 2.7V | 03:39:00 | 00:00:00 | 00:00:00 | |
| IW2NTF | 2026-09-05 18:10:13 | 49.21252 | 8.61704 | 124° | 13km/h | 23274m | 6m/s | 0°C | 0% | 0hPa | 2.7V | 03:39:10 | 01:40:32 | 00:00:00 | |
| DD1CC8 | 2026-09-05 18:10:12 | 49.21242 | 8.61730 | 134° | 13km/h | 23300m | 4.2m/s | -54.0°C | 1.1% | 35.1hPa | 2.7V | 00:00:00 | 00:00:00 | 00:00:00 | |
| DM0DOS-11 | 2026-09-05 18:10:11 | 49.21253 | 8.61701 | 137° | 9km/h | 23268m | 5m/s | -54°C | 4.2% | 35.3hPa | 2.7V | 03:39:11 | 01:40:31 | 00:00:00 | |
| BIOWL1-15 | 2026-09-05 18:10:10 | 49.21246 | 8.61720 | 116° | 16km/h | 23289m | 5.6m/s | -54°C | 0.6% | 35.2hPa | 2.6V | 03:39:24 | 01:40:35 | 00:00:00 | |
| DK7TD | 2026-09-05 18:10:08 | 49.21250 | 8.61708 | 118° | 16km/h | 23279m | 4.7m/s | -54°C | 0.6% | 35.2hPa | 2.6V | 03:43:39 | 01:40:33 | 00:00:00 | |
| AU51GT2 | 2026-09-05 18:10:08 | 49.21252 | 8.61704 | 124° | 11km/h | 23274m | 6.0m/s | -54.0°C | 1.1% | 35.3hPa | 2.7V | 00:00:00 | 00:00:00 | 00:00:00 | |
| DL1XH1-15 | 2026-09-05 18:10:07 | 49.21254 | 8.61697 | 356° | 4km/h | 23247m | 4.6m/s | -54°C | 4.2% | 35.4hPa | 2.7V | 03:39:15 | 01:40:27 | 00:00:00 | |
| DL1XH-west | 2026-09-05 18:10:06 | 49.21253 | 8.61701 | 137° | 9km/h | 23268m | 5m/s | -54°C | 0.7% | 35.3hPa | 2.7V | 03:39:24 | 01:40:31 | 00:00:00 | |
| DO3MHA-11 | 2026-09-05 18:10:06 | 49.21253 | 8.61701 | 138° | 4km/h | 23268m | 5.0m/s | -54.0°C | 4.2% | 35.3hPa | 2.7V | 00:00:00 | 01:40:31 | 00:00:00 | |
| DF7PN | 2026-09-05 18:10:05 | 49.21255 | 8.61699 | 140° | 4km/h | 23264m | 4.4m/s | -54.1°C | 1.1% | 35.4hPa | 2.6V | 00:00:00 | 00:00:00 | 00:00:00 | |
| DB0UT-9 | 2026-09-05 18:10:04 | 49.21255 | 8.61699 | 141° | 5km/h | 23264m | 4.4m/s | -54.1°C | 1.2% | 35.3hPa | 2.6V | 03:39:00 | 00:00:00 | 00:00:00 | |
| BIOWL7-15 | 2026-09-05 18:10:03 | 49.21255 | 8.61698 | 0° | 0km/h | 23259m | 6.0m/s | -54.1°C | 1.1% | 35.4hPa | 2.6V | 00:00:00 | 00:00:00 | 00:00:00 | |
| IW2NTF | 2026-09-05 18:10:02 | 49.21255 | 8.61698 | 141° | 5km/h | 23223m | 5.7m/s | 0°C | 0% | 0hPa | 2.6V | 03:39:20 | 01:40:22 | 00:00:00 | |
| BIOWL1-15 | 2026-09-05 18:10:02 | 49.21253 | 8.61698 | 241° | 2km/h | 23237m | 5.9m/s | -53.9°C | 0.7% | 35.5hPa | 2.7V | 03:39:24 | 01:40:25 | 00:00:00 | |
| DJ2DS-15 | 2026-09-05 18:10:02 | 49.21254 | 8.61697 | 357° | 5km/h | 23248m | 4.6m/s | -53.9°C | 4.2% | 35.4hPa | 2.6V | 03:39:00 | 01:40:27 | 00:00:00 | |
| DM0DOS-11 | 2026-09-05 18:10:01 | 49.21257 | 8.61696 | 118° | 7km/h | 23217m | 5.5m/s | -53.8°C | 4.1% | 35.6hPa | 2.6V | 03:39:21 | 01:40:21 | 00:00:00 | |
| SONDE2-11 | 2026-09-05 18:09:59 | 49.21254 | 8.61699 | 174° | 4km/h | 23228m | 4.2m/s | -53.9°C | 1.1% | 35.5hPa | 2.6V | 00:00:00 | 00:00:00 | 00:00:00 | |
| DO8TBO-1 | 2026-09-05 18:09:58 | 49.21254 | 8.61699 | 175° | 9km/h | 23228m | 4.2m/s | -53.8°C | 4.1% | 35.5hPa | 2.6V | 00:00:00 | 01:40:23 | 00:00:00 | |
| DL1XH1-15 | 2026-09-05 18:09:57 | 49.21261 | 8.61685 | 146° | 7km/h | 23196m | 4.8m/s | -53.7°C | 4.1% | 35.7hPa | 2.6V | 03:39:25 | 01:40:17 | 00:00:00 | |
| DL1XH-west | 2026-09-05 18:09:56 | 49.21257 | 8.61696 | 118° | 7km/h | 23217m | 5.5m/s | -53.8°C | 0.6% | 35.6hPa | 2.6V | 03:39:24 | 01:40:21 | 00:00:00 | |
| DG9SBQ-11 | 2026-09-05 18:09:55 | 49.21256 | 8.61696 | 119° | 7km/h | 23217m | 5.5m/s | -53.8°C | 1.1% | 35.6hPa | 2.7V | 03:39:00 | 00:00:00 | 00:00:00 | |
| IW2NTF | 2026-09-05 18:09:54 | 49.21264 | 8.61682 | 292° | 2km/h | 23171m | 4.7m/s | 0°C | 0% | 0hPa | 2.7V | 00:00:00 | 01:40:12 | 00:00:00 | |
| HARRO8 | 2026-09-05 18:09:52 | 49.21261 | 8.61685 | 146° | 7km/h | 23196m | 4.8m/s | -53.7°C | 1.0% | 35.7hPa | 2.7V | 00:00:00 | 00:00:00 | 00:00:00 | |
| DM0DOS-11 | 2026-09-05 18:09:51 | 49.21264 | 8.61683 | 255° | 5km/h | 23166m | 6.1m/s | -53.6°C | 4.1% | 35.9hPa | 2.7V | 03:39:31 | 01:40:11 | 00:00:00 | |
| BIOWL1-15 | 2026-09-05 18:09:49 | 49.21264 | 8.61682 | 66° | 2km/h | 23181m | 6m/s | -53.7°C | 0.6% | 35.8hPa | 2.6V | 03:40:15 | 01:40:14 | 00:00:00 | |
| AZAK | 2026-09-05 18:09:49 | 49.21264 | 8.61682 | 67° | 2km/h | 23182m | 6.0m/s | -53.7°C | 1.1% | 35.8hPa | 2.7V | 03:40:00 | 00:00:00 | 00:00:00 | |
| DL1XH1-15 | 2026-09-05 18:09:47 | 49.21268 | 8.61689 | 175° | 5km/h | 23144m | 5m/s | -53.7°C | 4.1% | 36hPa | 2.7V | 03:39:35 | 01:40:07 | 00:00:00 | |
| DL1XH-west | 2026-09-05 18:09:45 | 49.21264 | 8.61685 | 238° | 7km/h | 23161m | 5.1m/s | -53.7°C | 0.7% | 35.9hPa | 2.6V | 03:40:15 | 01:40:10 | 00:00:00 | |
| NBG1-10 | 2026-09-05 18:09:45 | 49.21264 | 8.61685 | 238° | 9km/h | 23161m | 5.0m/s | -53.6°C | 4.1% | 35.9hPa | 2.6V | 00:00:00 | 01:40:10 | 00:00:00 | |
| DO3DL | 2026-09-05 18:09:44 | 49.21264 | 8.61685 | 238° | 7km/h | 23161m | 5.1m/s | -53.7°C | 1.1% | 35.9hPa | 2.6V | 03:40:00 | 00:00:00 | 00:00:00 | |
| DB0UT-9 | 2026-09-05 18:09:43 | 49.21265 | 8.61687 | 229° | 7km/h | 23156m | 5.1m/s | -53.7°C | 1.1% | 35.9hPa | 2.6V | 03:40:00 | 00:00:00 | 00:00:00 | |
| IW2NTF | 2026-09-05 18:09:42 | 49.21289 | 8.61682 | 155° | 7km/h | 23111m | 6m/s | 0°C | 0% | 0hPa | 2.6V | 00:00:00 | 01:40:00 | 00:00:00 | |
| DM0DOS-11 | 2026-09-05 18:09:41 | 49.21286 | 8.61683 | 166° | 11km/h | 23116m | 4.1m/s | -53.8°C | 4.1% | 36.2hPa | 2.7V | 03:39:41 | 01:40:01 | 00:00:00 | |
| BIOWL1-15 | 2026-09-05 18:09:38 | 49.21279 | 8.61685 | 171° | 16km/h | 23125m | 5.1m/s | -53.8°C | 0.6% | 36.1hPa | 2.6V | 03:40:15 | 01:40:03 | 00:00:00 | |
| DL1XH-west | 2026-09-05 18:09:35 | 49.21288 | 8.61682 | 155° | 7km/h | 23111m | 6m/s | -53.8°C | 0.6% | 36.2hPa | 2.6V | 03:40:15 | 01:40:00 | 00:00:00 | |
| DG9SBQ-11 | 2026-09-05 18:09:33 | 49.21289 | 8.61681 | 104° | 2km/h | 23106m | 4.8m/s | -53.8°C | 1.1% | 36.2hPa | 2.6V | 03:40:00 | 00:00:00 | 00:00:00 | |
| BIOWL7-15 | 2026-09-05 18:09:32 | 49.21289 | 8.61680 | 0° | 0km/h | 23102m | 3.7m/s | -53.8°C | 1.0% | 36.2hPa | 2.6V | 03:40:00 | 00:00:00 | 00:00:00 | |
| DM0DOS-11 | 2026-09-05 18:09:31 | 49.21307 | 8.61684 | 157° | 18km/h | 23068m | 5.1m/s | -53.7°C | 4% | 36.4hPa | 2.6V | 03:39:51 | 01:39:51 | 00:00:00 | |
| BIOWL1-15 | 2026-09-05 18:09:30 | 49.21298 | 8.61686 | 182° | 16km/h | 23078m | 4.8m/s | -53.7°C | 0.6% | 36.4hPa | 2.6V | 03:40:15 | 01:39:53 | 00:00:00 | |
| DL1XH-west | 2026-09-05 18:09:24 | 49.21314 | 8.61677 | 149° | 16km/h | 23059m | 4.1m/s | -53.8°C | 0.6% | 36.5hPa | 2.7V | 03:40:15 | 01:39:49 | 00:00:00 | |
| DK7TD | 2026-09-05 18:09:22 | 49.21320 | 8.61673 | 161° | 11km/h | 23049m | 5.1m/s | -53.8°C | 0.6% | 36.5hPa | 2.6V | 03:43:39 | 01:39:47 | 00:00:00 | |
| DJ2DS-15 | 2026-09-05 18:09:22 | 49.21320 | 8.61673 | 161° | 16km/h | 23049m | 5.1m/s | -53.7°C | 4.0% | 36.5hPa | 2.7V | 00:00:00 | 01:39:47 | 00:00:00 | |
| DM0DOS-11 | 2026-09-05 18:09:21 | 49.21329 | 8.61659 | 143° | 11km/h | 23020m | 5.4m/s | -54.2°C | 4.2% | 36.7hPa | 2.7V | 03:40:01 | 01:39:41 | 00:00:00 | |
| HARRO8 | 2026-09-05 18:09:21 | 49.21323 | 8.61671 | 160° | 7km/h | 23044m | 4.8m/s | -53.8°C | 1.0% | 36.6hPa | 2.6V | 00:00:00 | 00:00:00 | 00:00:00 | |
| HEMX73-11 | 2026-09-05 18:09:20 | 49.21323 | 8.61671 | 161° | 9km/h | 23044m | 4.8m/s | -53.8°C | 1.0% | 36.6hPa | 2.6V | 03:40:00 | 00:00:00 | 00:00:00 | |
| IW2NTF | 2026-09-05 18:09:19 | 49.21340 | 8.61653 | 158° | 18km/h | 23005m | 4m/s | 0°C | 0% | 0hPa | 2.6V | 00:00:00 | 01:39:38 | 00:00:00 | |
| BIOWL9-15 | 2026-09-05 18:09:19 | 49.21327 | 8.61665 | 112° | 7km/h | 23029m | 4.2m/s | -54.0°C | 1.0% | 36.7hPa | 2.6V | 00:00:00 | 00:00:00 | 00:00:00 | |
| DL1XH1-15 | 2026-09-05 18:09:17 | 49.21344 | 8.61649 | 148° | 20km/h | 23001m | 5.6m/s | -54.1°C | 4.3% | 36.8hPa | 2.6V | 03:40:05 | 01:39:37 | 00:00:00 | |
| BIOWL1-15 | 2026-09-05 18:09:17 | 49.21328 | 8.61662 | 125° | 11km/h | 23024m | 3.8m/s | -54.1°C | 0.6% | 36.7hPa | 2.7V | 03:40:15 | 01:39:42 | 00:00:00 | |
| DL1XH-west | 2026-09-05 18:09:14 | 49.21336 | 8.61655 | 163° | 16km/h | 23010m | 4.3m/s | -54.2°C | 0.7% | 36.8hPa | 2.6V | 03:40:15 | 01:39:39 | 00:00:00 | |
| DL3AQ-11 | 2026-09-05 18:09:14 | 49.21340 | 8.61653 | 158° | 16km/h | 23006m | 4.0m/s | -54.2°C | 1.1% | 36.8hPa | 2.6V | 00:00:00 | 00:00:00 | 00:00:00 | |
| NBG1-10 | 2026-09-05 18:09:12 | 49.21344 | 8.61649 | 149° | 20km/h | 23001m | 5.6m/s | -54.1°C | 4.3% | 36.8hPa | 2.6V | 00:00:00 | 01:39:37 | 00:00:00 | |
| DM0DOS-11 | 2026-09-05 18:09:11 | 49.21366 | 8.61610 | 124° | 22km/h | 22971m | 4m/s | -54°C | 4.2% | 37hPa | 2.6V | 03:40:11 | 01:39:31 | 00:00:00 | |
| DD1CC8 | 2026-09-05 18:09:10 | 49.21355 | 8.61631 | 125° | 22km/h | 22986m | 4.3m/s | -54.0°C | 1.1% | 36.9hPa | 2.6V | 00:00:00 | 00:00:00 | 00:00:00 | |
| DB0ND-19 | 2026-09-05 18:09:09 | 49.21355 | 8.61631 | 125° | 22km/h | 22986m | 4.3m/s | -54.0°C | 1.1% | 36.9hPa | 2.6V | 00:00:00 | 00:00:00 | 00:00:00 | |
| DL1ZP-14 | 2026-09-05 18:09:08 | 49.21359 | 8.61624 | 127° | 22km/h | 22981m | 5.5m/s | -54.0°C | 1.1% | 36.9hPa | 2.6V | 00:00:00 | 00:00:00 | 00:00:00 | |
| DL1XH1-15 | 2026-09-05 18:09:07 | 49.21376 | 8.61577 | 114° | 20km/h | 22953m | 4.4m/s | -54°C | 4.2% | 37.1hPa | 2.6V | 03:40:15 | 01:39:27 | 00:00:00 | |
| BIOWL1-15 | 2026-09-05 18:09:07 | 49.21362 | 8.61617 | 128° | 22km/h | 22976m | 4.6m/s | -54°C | 0.7% | 37hPa | 2.6V | 03:40:15 | 01:39:32 | 00:00:00 | |
| DL1XH-west | 2026-09-05 18:09:03 | 49.21374 | 8.61585 | 112° | 24km/h | 22957m | 3.8m/s | -54°C | 0.7% | 37.1hPa | 2.6V | 03:40:15 | 01:39:28 | 00:00:00 | |
| DF7PN | 2026-09-05 18:09:03 | 49.21376 | 8.61577 | 114° | 20km/h | 22953m | 4.4m/s | -54.0°C | 1.1% | 37.1hPa | 2.6V | 00:00:00 | 00:00:00 | 00:00:00 | |
| DJ2DS-15 | 2026-09-05 18:09:02 | 49.21376 | 8.61577 | 115° | 18km/h | 22953m | 4.4m/s | -53.9°C | 4.2% | 37.1hPa | 2.6V | 00:00:00 | 01:39:27 | 00:00:00 | |
| DL0LBS | 2026-09-05 18:09:01 | 49.21376 | 8.61577 | 115° | 20km/h | 22953m | 4.4m/s | -54.0°C | 1.1% | 37.1hPa | 2.6V | 03:40:00 | 00:00:00 | 00:00:00 | |
| DG9SBQ-11 | 2026-09-05 18:09:00 | 49.21379 | 8.61571 | 120° | 18km/h | 22948m | 5.6m/s | -54.0°C | 1.1% | 37.1hPa | 2.6V | 03:41:00 | 00:00:00 | 00:00:00 | |
| DM0DOS-11 | 2026-09-05 18:08:59 | 49.21394 | 8.61529 | 119° | 20km/h | 22913m | 5.5m/s | -53.7°C | 4.1% | 37.3hPa | 2.6V | 03:40:23 | 01:39:19 | 00:00:00 | |
| DL1XH1-15 | 2026-09-05 18:08:57 | 49.21399 | 8.61516 | 116° | 22km/h | 22904m | 4.2m/s | -53.7°C | 4.1% | 37.4hPa | 2.6V | 03:40:25 | 01:39:17 | 00:00:00 | |
| BIOWL1-15 | 2026-09-05 18:08:56 | 49.21390 | 8.61544 | 115° | 22km/h | 22923m | 4.4m/s | -53.8°C | 0.7% | 37.3hPa | 2.7V | 03:41:06 | 01:39:21 | 00:00:00 | |
| DL1XH-west | 2026-09-05 18:08:52 | 49.21399 | 8.61516 | 116° | 22km/h | 22904m | 4.2m/s | -53.7°C | 0.6% | 37.4hPa | 2.6V | 03:41:06 | 01:39:17 | 00:00:00 | |
| HARRO8 | 2026-09-05 18:08:50 | 49.21405 | 8.61490 | 98° | 24km/h | 22889m | 4.1m/s | -53.5°C | 1.1% | 37.5hPa | 2.7V | 00:00:00 | 00:00:00 | 00:00:00 | |
| DM0DOS-11 | 2026-09-05 18:08:49 | 49.21408 | 8.61457 | 108° | 15km/h | 22865m | 5.2m/s | -53.4°C | 4% | 37.6hPa | 2.7V | 03:40:33 | 01:39:09 | 00:00:00 | |
| BIOWL9-15 | 2026-09-05 18:08:48 | 49.21406 | 8.61473 | 97° | 16km/h | 22880m | 5.3m/s | -53.5°C | 1.1% | 37.5hPa | 2.6V | 00:00:00 | 00:00:00 | 00:00:00 | |
| DL1XH1-15 | 2026-09-05 18:08:47 | 49.21410 | 8.61446 | 103° | 18km/h | 22855m | 4.3m/s | -53.3°C | 4% | 37.7hPa | 2.6V | 03:40:35 | 01:39:07 | 00:00:00 | |
| BIOWL1-15 | 2026-09-05 18:08:45 | 49.21407 | 8.61462 | 105° | 13km/h | 22870m | 4.6m/s | -53.4°C | 0.6% | 37.6hPa | 2.7V | 03:41:06 | 01:39:10 | 00:00:00 | |
| DO3DL | 2026-09-05 18:08:45 | 49.21407 | 8.61462 | 106° | 13km/h | 22870m | 4.6m/s | -53.4°C | 1.1% | 37.6hPa | 2.6V | 00:00:00 | 00:00:00 | 00:00:00 | |
| DF1GD-15 | 2026-09-05 18:08:44 | 49.21407 | 8.61462 | 106° | 13km/h | 22870m | 4.6m/s | -53.4°C | 1.1% | 37.6hPa | 2.6V | 03:41:00 | 00:00:00 | 00:00:00 | |
| DG9SBQ-11 | 2026-09-05 18:08:43 | 49.21409 | 8.61452 | 107° | 16km/h | 22860m | 5.4m/s | -53.3°C | 1.1% | 37.7hPa | 2.6V | 03:41:00 | 00:00:00 | 00:00:00 | |
| DB0UT-9 | 2026-09-05 18:08:42 | 49.21409 | 8.61452 | 107° | 16km/h | 22860m | 5.4m/s | -53.3°C | 1.1% | 37.7hPa | 2.6V | 03:41:00 | 00:00:00 | 00:00:00 | |
| DJ2DS-15 | 2026-09-05 18:08:41 | 49.21411 | 8.61439 | 102° | 15km/h | 22851m | 4.2m/s | -53.3°C | 4.0% | 37.7hPa | 2.6V | 03:40:00 | 01:39:06 | 00:00:00 | |
| DL1XH-west | 2026-09-05 18:08:41 | 49.21411 | 8.61439 | 102° | 16km/h | 22851m | 4.3m/s | -53.3°C | 0.6% | 37.7hPa | 2.6V | 03:41:06 | 01:39:06 | 00:00:00 | |
| DL0LBS | 2026-09-05 18:08:40 | 49.21412 | 8.61439 | 103° | 16km/h | 22851m | 4.3m/s | -53.3°C | 1.1% | 37.7hPa | 2.6V | 03:41:00 | 00:00:00 | 00:00:00 | |
| DM0DOS-11 | 2026-09-05 18:08:39 | 49.21409 | 8.61396 | 81° | 20km/h | 22817m | 3.9m/s | -53.2°C | 3.8% | 37.9hPa | 2.6V | 03:40:43 | 01:38:59 | 00:00:00 | |
| DD1CC8 | 2026-09-05 18:08:39 | 49.21412 | 8.61423 | 84° | 13km/h | 22836m | 4.3m/s | -53.2°C | 1.0% | 37.8hPa | 2.7V | 00:00:00 | 00:00:00 | 00:00:00 | |
| DB0ND-19 | 2026-09-05 18:08:38 | 49.21412 | 8.61423 | 84° | 13km/h | 22836m | 4.3m/s | -53.2°C | 1.0% | 37.8hPa | 2.7V | 00:00:00 | 00:00:00 | 00:00:00 | |
| DL1XH1-15 | 2026-09-05 18:08:37 | 49.21408 | 8.61383 | 88° | 13km/h | 22807m | 5.6m/s | -53.2°C | 3.9% | 38hPa | 2.7V | 03:40:45 | 01:38:57 | 00:00:00 | |
| BIOWL1-15 | 2026-09-05 18:08:35 | 49.21410 | 8.61404 | 81° | 20km/h | 22821m | 4.7m/s | -53.2°C | 0.5% | 37.9hPa | 2.6V | 03:41:06 | 01:39:00 | 00:00:00 | |
| DL1XH-west | 2026-09-05 18:08:30 | 49.21409 | 8.61374 | 110° | 11km/h | 22797m | 5m/s | -53.4°C | 0.6% | 38hPa | 2.7V | 03:41:06 | 01:38:55 | 00:00:00 | |
| DO3DL | 2026-09-05 18:08:29 | 49.21409 | 8.61374 | 111° | 11km/h | 22798m | 5.0m/s | -53.4°C | 1.0% | 38.0hPa | 2.6V | 00:00:00 | 00:00:00 | 00:00:00 | |
| DM7RM-13 | 2026-09-05 18:08:28 | 49.21410 | 8.61369 | 114° | 13km/h | 22792m | 5.6m/s | -53.5°C | 1.1% | 38.0hPa | 2.6V | 03:41:00 | 00:00:00 | 00:00:00 | |
| DL1XH1-15 | 2026-09-05 18:08:27 | 49.21407 | 8.61337 | 59° | 15km/h | 22759m | 5.7m/s | -53.9°C | 4% | 38.2hPa | 2.6V | 03:40:55 | 01:38:47 | 00:00:00 | |
| BIOWL1-15 | 2026-09-05 18:08:25 | 49.21412 | 8.61350 | 71° | 11km/h | 22773m | 5.6m/s | -53.6°C | 0.6% | 38.1hPa | 2.7V | 03:41:06 | 01:38:50 | 00:00:00 | |
| DK7TD | 2026-09-05 18:08:24 | 49.21411 | 8.61346 | 57° | 11km/h | 22768m | 4.6m/s | -53.6°C | 0.6% | 38.2hPa | 2.6V | 03:43:39 | 01:38:49 | 00:00:00 | |
| DL1XH-west | 2026-09-05 18:08:20 | 49.21404 | 8.61325 | 73° | 16km/h | 22748m | 3.9m/s | -54°C | 0.6% | 38.3hPa | 2.7V | 03:41:06 | 01:38:45 | 00:00:00 | |
| HARRO8 | 2026-09-05 18:08:19 | 49.21402 | 8.61315 | 81° | 9km/h | 22739m | 5.9m/s | -54.0°C | 1.1% | 38.4hPa | 2.7V | 00:00:00 | 00:00:00 | 00:00:00 | |
| DL1XH1-15 | 2026-09-05 18:08:17 | 49.21404 | 8.61290 | 96° | 15km/h | 22709m | 4.7m/s | -54.3°C | 4.1% | 38.5hPa | 2.7V | 03:41:05 | 01:38:37 | 00:00:00 | |
| BIOWL1-15 | 2026-09-05 18:08:17 | 49.21403 | 8.61305 | 99° | 9km/h | 22724m | 5.5m/s | -54.3°C | 0.7% | 38.4hPa | 2.6V | 03:41:06 | 01:38:40 | 00:00:00 | |
| BIOWL9-15 | 2026-09-05 18:08:17 | 49.21402 | 8.61309 | 98° | 7km/h | 22730m | 4.4m/s | 0°C | -1.0% | 38.4hPa | 2.6V | 00:00:00 | 00:00:00 | 00:00:00 | |
| DO3MHA-11 | 2026-09-05 18:08:16 | 49.21402 | 8.61308 | 99° | 15km/h | 22730m | 4.3m/s | -54.1°C | 4.1% | 38.4hPa | 2.6V | 00:00:00 | 01:38:41 | 00:00:00 | |
| DO3DL | 2026-09-05 18:08:15 | 49.21402 | 8.61309 | 99° | 7km/h | 22730m | 4.4m/s | -54.2°C | 1.1% | 38.4hPa | 2.6V | 00:00:00 | 00:00:00 | 00:00:00 | |
| DJ2DS-15 | 2026-09-05 18:08:14 | 49.21403 | 8.61301 | 99° | 13km/h | 22719m | 5.2m/s | -54.3°C | 1.1% | 38.5hPa | 2.6V | 00:00:00 | 00:00:00 | 00:00:00 | |
| DJTTGO | 2026-09-05 18:08:12 | 49.21403 | 8.61295 | 100° | 15km/h | 22714m | 4.7m/s | -54.3°C | 1.1% | 38.5hPa | 2.6V | 00:00:00 | 00:00:00 | 00:00:00 | |
| DH7VM-15 | 2026-09-05 18:08:11 | 49.21404 | 8.61290 | 98° | 15km/h | 22710m | 4.7m/s | -54.3°C | 1.1% | 38.5hPa | 2.6V | 00:00:00 | 00:00:00 | 00:00:00 | |
| DL3AQ-11 | 2026-09-05 18:08:10 | 49.21406 | 8.61274 | 100° | 13km/h | 22695m | 3.7m/s | -54.2°C | 1.1% | 38.6hPa | 2.6V | 00:00:00 | 00:00:00 | 00:00:00 | |
| DM0DOS-11 | 2026-09-05 18:08:09 | 49.21413 | 8.61241 | 120° | 16km/h | 22670m | 5.6m/s | -54.4°C | 4.2% | 38.8hPa | 2.6V | 03:41:13 | 01:38:29 | 00:00:00 | |
| DL1XH-west | 2026-09-05 18:08:09 | 49.21406 | 8.61274 | 101° | 15km/h | 22695m | 3.7m/s | -54.2°C | 0.7% | 38.6hPa | 2.6V | 03:41:57 | 01:38:34 | 00:00:00 | |
| DD1CC8 | 2026-09-05 18:08:08 | 49.21408 | 8.61261 | 106° | 18km/h | 22685m | 5.4m/s | -54.3°C | 1.1% | 38.7hPa | 2.6V | 00:00:00 | 00:00:00 | 00:00:00 | |
| DL1XH1-15 | 2026-09-05 18:08:07 | 49.21418 | 8.61230 | 127° | 18km/h | 22661m | 3.9m/s | -54.5°C | 4.2% | 38.8hPa | 2.6V | 03:41:15 | 01:38:27 | 00:00:00 | |
| BIOWL1-15 | 2026-09-05 18:08:05 | 49.21411 | 8.61247 | 115° | 20km/h | 22676m | 4.8m/s | -54.4°C | 0.7% | 38.7hPa | 2.7V | 03:41:57 | 01:38:30 | 00:00:00 | |
| DB0NH | 2026-09-05 18:08:05 | 49.21411 | 8.61247 | 116° | 16km/h | 22676m | 4.7m/s | -54.3°C | 4.3% | 38.7hPa | 2.6V | 03:41:00 | 01:38:30 | 00:00:00 | |
| NBG1-10 | 2026-09-05 18:08:04 | 49.21413 | 8.61241 | 121° | 13km/h | 22671m | 5.5m/s | -54.4°C | 4.2% | 38.7hPa | 2.6V | 03:41:00 | 01:38:29 | 00:00:00 | |
| DG9SBQ-11 | 2026-09-05 18:08:03 | 49.21413 | 8.61241 | 122° | 16km/h | 22671m | 5.6m/s | -54.4°C | 1.1% | 38.8hPa | 2.6V | 03:41:00 | 00:00:00 | 00:00:00 | |
| DF7PN | 2026-09-05 18:08:01 | 49.21424 | 8.61218 | 125° | 20km/h | 22651m | 4.7m/s | -54.6°C | 1.1% | 38.9hPa | 2.6V | 00:00:00 | 00:00:00 | 00:00:00 | |
| DB0UT-9 | 2026-09-05 18:08:00 | 49.21421 | 8.61224 | 128° | 20km/h | 22657m | 5.8m/s | -54.6°C | 1.2% | 38.9hPa | 2.6V | 03:41:00 | 00:00:00 | 00:00:00 | |
| DM0DOS-11 | 2026-09-05 18:07:59 | 49.21433 | 8.61184 | 86° | 16km/h | 22622m | 5.8m/s | -54.5°C | 4.3% | 39hPa | 2.6V | 03:41:23 | 01:38:19 | 00:00:00 | |
| DL1XH-west | 2026-09-05 18:07:59 | 49.21427 | 8.61211 | 123° | 20km/h | 22647m | 4.2m/s | -54.6°C | 0.7% | 38.9hPa | 2.7V | 03:41:57 | 01:38:24 | 00:00:00 | |
| DK7TD | 2026-09-05 18:07:58 | 49.21430 | 8.61205 | 120° | 18km/h | 22642m | 5.5m/s | -54.5°C | 0.7% | 38.9hPa | 2.7V | 03:43:39 | 01:38:23 | 00:00:00 | |
| BIOWL1-15 | 2026-09-05 18:07:54 | 49.21431 | 8.61127 | 87° | 18km/h | 22578m | 4m/s | -54.3°C | 0.8% | 39.3hPa | 2.6V | 03:41:57 | 01:38:10 | 00:00:00 | |
| DL3AQ-11 | 2026-09-05 18:07:54 | 49.21433 | 8.61177 | 84° | 16km/h | 22617m | 4.4m/s | -54.4°C | 1.1% | 39.1hPa | 2.6V | 00:00:00 | 00:00:00 | 00:00:00 | |
| DJ2KF-10 | 2026-09-05 18:07:53 | 49.21432 | 8.61177 | 85° | 11km/h | 22617m | 4.3m/s | 0°C | 0% | 0hPa | 2.6V | 00:00:00 | 01:38:18 | 00:00:00 | |
| DG9SBQ-11 | 2026-09-05 18:07:52 | 49.21432 | 8.61177 | 86° | 18km/h | 22617m | 4.4m/s | -54.4°C | 1.1% | 39.1hPa | 2.6V | 03:41:00 | 00:00:00 | 00:00:00 | |
| DM0DOS-11 | 2026-09-05 18:07:49 | 49.21430 | 8.61120 | 81° | 16km/h | 22573m | 5.8m/s | -54.3°C | 4.3% | 39.4hPa | 2.6V | 03:41:33 | 01:38:09 | 00:00:00 | |
| DL1XH-west | 2026-09-05 18:07:48 | 49.21431 | 8.61148 | 89° | 15km/h | 22592m | 5.4m/s | -54.4°C | 0.8% | 39.3hPa | 2.6V | 03:41:57 | 01:38:13 | 00:00:00 | |
| HARRO8 | 2026-09-05 18:07:48 | 49.21431 | 8.61141 | 92° | 16km/h | 22587m | 5.6m/s | -54.4°C | 1.2% | 39.3hPa | 2.7V | 00:00:00 | 00:00:00 | 00:00:00 | |
| DL1XH1-15 | 2026-09-05 18:07:47 | 49.21428 | 8.61110 | 60° | 13km/h | 22562m | 4.9m/s | -54.2°C | 4.2% | 39.4hPa | 2.7V | 03:41:35 | 01:38:07 | 00:00:00 | |
| BIOWL9-15 | 2026-09-05 18:07:46 | 49.21431 | 8.61127 | 87° | 18km/h | 22578m | 4.0m/s | 0°C | -1.0% | -1.0hPa | 2.7V | 00:00:00 | 00:00:00 | 00:00:00 | |
| DC4HF-4 | 2026-09-05 18:07:43 | 49.21429 | 8.61115 | 68° | 13km/h | 22568m | 5.3m/s | -54.3°C | 1.1% | 39.4hPa | 2.7V | 00:00:00 | 00:00:00 | 00:00:00 | |
| DJ2DS-15 | 2026-09-05 18:07:41 | 49.21426 | 8.61106 | 62° | 9km/h | 22557m | 5.5m/s | -54.1°C | 4.2% | 39.4hPa | 2.7V | 00:00:00 | 01:38:06 | 00:00:00 | |
| DB0UT-9 | 2026-09-05 18:07:40 | 49.21426 | 8.61106 | 63° | 13km/h | 22557m | 5.6m/s | -54.2°C | 1.1% | 39.5hPa | 2.6V | 03:41:00 | 00:00:00 | 00:00:00 | |
| DM0DOS-11 | 2026-09-05 18:07:39 | 49.21423 | 8.61081 | 102° | 11km/h | 22522m | 5.7m/s | -53.9°C | 4.2% | 39.7hPa | 2.6V | 03:41:43 | 01:37:59 | 00:00:00 | |
| DJ2DS-15 | 2026-09-05 18:07:38 | 49.21423 | 8.61089 | 77° | 7km/h | 22537m | 5.9m/s | -54.0°C | 1.1% | 39.6hPa | 2.7V | 00:00:00 | 00:00:00 | 00:00:00 | |
| DL1XH1-15 | 2026-09-05 18:07:37 | 49.21424 | 8.61070 | 100° | 16km/h | 22512m | 4.2m/s | -53.8°C | 4.3% | 39.7hPa | 2.7V | 03:41:45 | 01:37:57 | 00:00:00 | |
| DL1XH-west | 2026-09-05 18:07:37 | 49.21423 | 8.61089 | 77° | 7km/h | 22537m | 5.9m/s | -54°C | 0.7% | 39.6hPa | 2.7V | 03:41:57 | 01:38:02 | 00:00:00 | |
| BIOWL1-15 | 2026-09-05 18:07:35 | 49.21424 | 8.61076 | 103° | 15km/h | 22517m | 5.7m/s | -53.9°C | 0.7% | 39.7hPa | 2.7V | 03:41:57 | 01:37:58 | 00:00:00 | |
| DB0NH | 2026-09-05 18:07:35 | 49.21423 | 8.61084 | 98° | 13km/h | 22527m | 4.0m/s | -53.9°C | 4.2% | 39.6hPa | 2.6V | 00:00:00 | 01:38:00 | 00:00:00 | |
| DO3DL | 2026-09-05 18:07:34 | 49.21423 | 8.61084 | 99° | 7km/h | 22527m | 4.0m/s | -53.9°C | 1.1% | 39.6hPa | 2.6V | 03:41:00 | 00:00:00 | 00:00:00 | |
| AU51GT2 | 2026-09-05 18:07:33 | 49.21424 | 8.61070 | 100° | 16km/h | 22512m | 4.2m/s | -53.8°C | 1.1% | 39.7hPa | 2.6V | 00:00:00 | 00:00:00 | 00:00:00 | |
| DL3AQ-11 | 2026-09-05 18:07:30 | 49.21425 | 8.61054 | 72° | 7km/h | 22498m | 5.5m/s | -53.7°C | -1.0% | 39.8hPa | 2.6V | 00:00:00 | 00:00:00 | 00:00:00 | |
| DO8TBO-1 | 2026-09-05 18:07:29 | 49.21425 | 8.61054 | 73° | 7km/h | 22498m | 5.4m/s | -53.6°C | 4.2% | 39.8hPa | 2.6V | 00:00:00 | 01:37:54 | 00:00:00 | |
| DM0DOS-11 | 2026-09-05 18:07:28 | 49.21416 | 8.61040 | 57° | 5km/h | 22469m | 4.3m/s | -53.5°C | 4.2% | 40hPa | 2.6V | 03:41:54 | 01:37:48 | 00:00:00 | |
| DL1XH1-15 | 2026-09-05 18:07:27 | 49.21415 | 8.61039 | 85° | 2km/h | 22463m | 5.9m/s | -53.5°C | 4.2% | 40hPa | 2.6V | 03:41:55 | 01:37:47 | 00:00:00 | |
| DL1XH-west | 2026-09-05 18:07:26 | 49.21420 | 8.61047 | 33° | 9km/h | 22483m | 5.7m/s | -53.6°C | 0.7% | 39.9hPa | 2.7V | 03:41:57 | 01:37:51 | 00:00:00 | |
| BIOWL1-15 | 2026-09-05 18:07:22 | 49.21415 | 8.61039 | 86° | 2km/h | 22463m | 5.9m/s | -53.5°C | 0.7% | 40hPa | 2.6V | 03:41:57 | 01:37:47 | 00:00:00 | |
| DK7TD | 2026-09-05 18:07:21 | 49.21416 | 8.61039 | 181° | 4km/h | 22458m | 5.8m/s | -53.4°C | 0.7% | 40.1hPa | 2.7V | 03:43:39 | 01:37:46 | 00:00:00 | |
| DJ2DS-15 | 2026-09-05 18:07:21 | 49.21416 | 8.61039 | 182° | 7km/h | 22458m | 5.8m/s | -53.4°C | 4.2% | 40.0hPa | 2.7V | 03:41:00 | 01:37:46 | 00:00:00 | |
| DF1GD-15 | 2026-09-05 18:07:20 | 49.21416 | 8.61039 | 182° | 4km/h | 22458m | 5.8m/s | -53.4°C | 1.1% | 40.1hPa | 2.7V | 03:41:00 | 00:00:00 | 00:00:00 | |
| CB1BUN | 2026-09-05 18:07:19 | 49.21418 | 8.61038 | 148° | 4km/h | 22447m | 5.7m/s | -53.3°C | 1.1% | 40.1hPa | 2.7V | 03:42:00 | 00:00:00 | 00:00:00 | |
| KANTATE | 2026-09-05 18:07:18 | 49.21418 | 8.61038 | 148° | 4km/h | 22447m | 5.7m/s | -53.3°C | 1.1% | 40.1hPa | 2.7V | 03:42:00 | 00:00:00 | 00:00:00 | |
| DM0DOS-11 | 2026-09-05 18:07:18 | 49.21420 | 8.61025 | 84° | 4km/h | 22415m | 4.8m/s | -53°C | 4.1% | 40.3hPa | 2.7V | 03:42:04 | 01:37:38 | 00:00:00 | |
| DL1XH1-15 | 2026-09-05 18:07:17 | 49.21420 | 8.61023 | 62° | 5km/h | 22409m | 6.2m/s | -53°C | 4.1% | 40.4hPa | 2.7V | 03:42:05 | 01:37:37 | 00:00:00 | |
| DL1XH-west | 2026-09-05 18:07:15 | 49.21420 | 8.61028 | 104° | 7km/h | 22426m | 6.3m/s | -53.1°C | 0.7% | 40.3hPa | 2.6V | 03:42:48 | 01:37:40 | 00:00:00 | |
| BIOWL1-15 | 2026-09-05 18:07:12 | 49.21420 | 8.61023 | 62° | 5km/h | 22410m | 6.2m/s | -53°C | 0.6% | 40.4hPa | 2.7V | 03:42:48 | 01:37:37 | 00:00:00 | |
| DK7TD | 2026-09-05 18:07:10 | 49.21417 | 8.61020 | 34° | 5km/h | 22398m | 4.3m/s | -52.8°C | 0.6% | 40.5hPa | 2.6V | 03:43:39 | 01:37:35 | 00:00:00 | |
| DM0DOS-11 | 2026-09-05 18:07:08 | 49.21429 | 8.61028 | 162° | 15km/h | 22361m | 6m/s | -52.5°C | 3.9% | 40.7hPa | 2.7V | 03:42:14 | 01:37:28 | 00:00:00 | |
| DL1XH1-15 | 2026-09-05 18:07:07 | 49.21432 | 8.61026 | 150° | 15km/h | 22356m | 4.2m/s | -52.5°C | 3.9% | 40.7hPa | 2.7V | 03:42:15 | 01:37:27 | 00:00:00 | |
| BIOWL1-15 | 2026-09-05 18:07:07 | 49.21435 | 8.61023 | 147° | 13km/h | 22351m | 5.3m/s | -52.5°C | 0.6% | 40.8hPa | 2.6V | 03:42:48 | 01:37:26 | 00:00:00 | |
| DL1XH-west | 2026-09-05 18:07:05 | 49.21421 | 8.61028 | 202° | 15km/h | 22373m | 5m/s | -52.6°C | 0.6% | 40.6hPa | 2.6V | 03:42:48 | 01:37:30 | 00:00:00 | |
| DK7TD | 2026-09-05 18:07:00 | 49.21438 | 8.61021 | 147° | 11km/h | 22345m | 5.8m/s | -52.5°C | 0.5% | 40.8hPa | 2.6V | 03:43:39 | 01:37:25 | 00:00:00 | |
| DF7PN | 2026-09-05 18:06:59 | 49.21441 | 8.61016 | 133° | 5km/h | 22335m | 6.0m/s | -52.4°C | 1.1% | 40.9hPa | 2.6V | 00:00:00 | 00:00:00 | 00:00:00 | |
| KANTATE | 2026-09-05 18:06:58 | 49.21440 | 8.61018 | 144° | 9km/h | 22340m | 5.0m/s | -52.4°C | 1.0% | 40.8hPa | 2.6V | 03:42:00 | 00:00:00 | 00:00:00 | |
| DM0DOS-11 | 2026-09-05 18:06:57 | 49.21444 | 8.61029 | 251° | 15km/h | 22302m | 4.2m/s | -52.2°C | 3.8% | 41hPa | 2.6V | 03:42:25 | 01:37:17 | 00:00:00 | |
| DL1XH-west | 2026-09-05 18:06:54 | 49.21443 | 8.61018 | 268° | 11km/h | 22313m | 6.7m/s | -52.2°C | 0.5% | 41hPa | 2.7V | 03:42:48 | 01:37:19 | 00:00:00 | |
| NBG1-10 | 2026-09-05 18:06:54 | 49.21443 | 8.61018 | 269° | 16km/h | 22313m | 6.7m/s | -52.2°C | 3.8% | 40.9hPa | 2.7V | 00:00:00 | 01:37:19 | 00:00:00 | |
| DK5PH-5 | 2026-09-05 18:06:53 | 49.21443 | 8.61023 | 262° | 15km/h | 22307m | 5.1m/s | -52.2°C | 3.8% | 41.0hPa | 2.7V | 00:00:00 | 01:37:18 | 00:00:00 | |
| DL1XH1-15 | 2026-09-05 18:06:52 | 49.21453 | 8.61034 | 148° | 9km/h | 22277m | 5.3m/s | -52.2°C | 3.7% | 41.2hPa | 2.7V | 03:42:30 | 01:37:12 | 00:00:00 | |
| BIOWL1-15 | 2026-09-05 18:06:51 | 49.21445 | 8.61034 | 237° | 13km/h | 22297m | 5.1m/s | -52.2°C | 0.4% | 41.1hPa | 2.6V | 03:42:48 | 01:37:16 | 00:00:00 | |
| DL4BBY-15 | 2026-09-05 18:06:49 | 49.21449 | 8.61037 | 165° | 16km/h | 22286m | 4.8m/s | -53.8°C | 0% | 0hPa | 2.7V | 00:00:00 | 00:00:00 | 00:00:00 | |
| DO3DL | 2026-09-05 18:06:48 | 49.21449 | 8.61037 | 165° | 9km/h | 22286m | 4.8m/s | -52.2°C | 1.0% | 41.2hPa | 2.7V | 03:42:00 | 00:00:00 | 00:00:00 | |
| DM0DOS-11 | 2026-09-05 18:06:47 | 49.21461 | 8.61040 | 219° | 13km/h | 22250m | 5.4m/s | -52.4°C | 3.7% | 41.4hPa | 2.7V | 03:42:35 | 01:37:07 | 00:00:00 | |
| HARRO8 | 2026-09-05 18:06:45 | 49.21457 | 8.61033 | 207° | 5km/h | 22266m | 5.3m/s | -52.3°C | 1.0% | 41.3hPa | 2.6V | 00:00:00 | 00:00:00 | 00:00:00 | |
| DL1XH-west | 2026-09-05 18:06:44 | 49.21458 | 8.61034 | 228° | 7km/h | 22260m | 5m/s | -52.3°C | 0.4% | 41.3hPa | 2.6V | 03:42:48 | 01:37:09 | 00:00:00 | |
| BIOWL1-15 | 2026-09-05 18:06:43 | 49.21464 | 8.61043 | 209° | 15km/h | 22244m | 6.4m/s | -52.4°C | 0.4% | 41.4hPa | 2.7V | 03:42:48 | 01:37:06 | 00:00:00 | |
| DO3DL | 2026-09-05 18:06:43 | 49.21460 | 8.61037 | 229° | 11km/h | 22256m | 4.9m/s | -52.4°C | 1.0% | 41.3hPa | 2.7V | 03:42:00 | 00:00:00 | 00:00:00 | |
| DJ2DS-15 | 2026-09-05 18:06:41 | 49.21464 | 8.61043 | 209° | 20km/h | 22245m | 6.3m/s | -52.4°C | 3.7% | 41.4hPa | 2.7V | 00:00:00 | 01:37:06 | 00:00:00 | |
| DF1GD-15 | 2026-09-05 18:06:40 | 49.21464 | 8.61043 | 210° | 15km/h | 22245m | 6.4m/s | -52.4°C | 1.0% | 41.4hPa | 2.6V | 03:42:00 | 00:00:00 | 00:00:00 | |
| DB0NH | 2026-09-05 18:06:38 | 49.21476 | 8.61051 | 210° | 16km/h | 22229m | 5.6m/s | -52.6°C | 3.8% | 41.5hPa | 2.6V | 00:00:00 | 01:37:03 | 00:00:00 | |
| KANTATE | 2026-09-05 18:06:37 | 49.21476 | 8.61051 | 211° | 20km/h | 22229m | 5.7m/s | -52.6°C | 1.0% | 41.5hPa | 2.6V | 03:42:00 | 00:00:00 | 00:00:00 | |
| DM0DOS-11 | 2026-09-05 18:06:36 | 49.21502 | 8.61071 | 184° | 15km/h | 22191m | 5.7m/s | -52.9°C | 4% | 41.8hPa | 2.6V | 03:42:46 | 01:36:56 | 00:00:00 | |
| BIOWL1-15 | 2026-09-05 18:06:33 | 49.21502 | 8.61071 | 184° | 15km/h | 22191m | 5.7m/s | -52.9°C | 0.6% | 41.8hPa | 2.6V | 03:42:48 | 01:36:56 | 00:00:00 | |
| DL1XH-west | 2026-09-05 18:06:33 | 49.21495 | 8.61070 | 192° | 13km/h | 22202m | 5.8m/s | -52.9°C | 0.6% | 41.7hPa | 2.7V | 03:42:48 | 01:36:58 | 00:00:00 | |
| DL1ZP-14 | 2026-09-05 18:06:33 | 49.21498 | 8.61071 | 182° | 13km/h | 22197m | 5.2m/s | -53.0°C | 1.1% | 41.7hPa | 2.6V | 00:00:00 | 00:00:00 | 00:00:00 | |
| DC4HF-4 | 2026-09-05 18:06:31 | 49.21506 | 8.61072 | 189° | 15km/h | 22185m | 5.9m/s | -52.9°C | 1.0% | 41.8hPa | 2.7V | 00:00:00 | 00:00:00 | 00:00:00 | |
| AU51GT2 | 2026-09-05 18:06:30 | 49.21506 | 8.61072 | 189° | 15km/h | 22185m | 5.9m/s | -52.9°C | 1.0% | 41.8hPa | 2.7V | 00:00:00 | 00:00:00 | 00:00:00 | |
| DO8TBO-1 | 2026-09-05 18:06:29 | 49.21510 | 8.61073 | 191° | 16km/h | 22181m | 4.2m/s | -52.8°C | 4.0% | 41.8hPa | 2.7V | 03:42:00 | 01:36:54 | 00:00:00 | |
| DO3DL | 2026-09-05 18:06:28 | 49.21510 | 8.61073 | 192° | 18km/h | 22181m | 4.3m/s | -52.9°C | 1.1% | 41.8hPa | 2.6V | 03:42:00 | 00:00:00 | 00:00:00 | |
| DF7PN | 2026-09-05 18:06:27 | 49.21520 | 8.61075 | 182° | 22km/h | 22171m | 5.7m/s | -52.9°C | 1.0% | 41.9hPa | 2.6V | 00:00:00 | 00:00:00 | 00:00:00 | |
| DM0DOS-11 | 2026-09-05 18:06:26 | 49.21559 | 8.61075 | 187° | 22km/h | 22138m | 4.8m/s | -52.8°C | 3.8% | 42.1hPa | 2.6V | 03:42:56 | 01:36:46 | 00:00:00 | |
| DL1XH-west | 2026-09-05 18:06:22 | 49.21553 | 8.61074 | 188° | 26km/h | 22143m | 5.5m/s | -52.8°C | 0.5% | 42.1hPa | 2.6V | 03:43:39 | 01:36:47 | 00:00:00 | |
| BIOWL1-15 | 2026-09-05 18:06:20 | 49.21564 | 8.61076 | 180° | 20km/h | 22133m | 5.7m/s | -52.8°C | 0.5% | 42.2hPa | 2.7V | 03:43:39 | 01:36:45 | 00:00:00 | |
| DK7TD | 2026-09-05 18:06:14 | 49.21583 | 8.61061 | 135° | 11km/h | 22100m | 4.7m/s | -52.9°C | 0.5% | 42.4hPa | 2.7V | 03:43:39 | 01:36:39 | 00:00:00 | |
| DL1XH-west | 2026-09-05 18:06:12 | 49.21588 | 8.61053 | 140° | 16km/h | 22089m | 5.9m/s | -53.1°C | 0.5% | 42.4hPa | 2.6V | 03:43:39 | 01:36:37 | 00:00:00 | |
| BIOWL1-15 | 2026-09-05 18:06:10 | 49.21596 | 8.61045 | 154° | 20km/h | 22078m | 5.7m/s | -53.2°C | 0.5% | 42.5hPa | 2.7V | 03:43:39 | 01:36:35 | 00:00:00 | |
| DL1XH-west | 2026-09-05 18:06:02 | 49.21623 | 8.61014 | 109° | 16km/h | 22036m | 6.3m/s | -53.5°C | 0.6% | 42.8hPa | 2.7V | 03:43:39 | 01:36:27 | 00:00:00 | |
| DJ2DS-15 | 2026-09-05 18:06:01 | 49.21624 | 8.61008 | 105° | 20km/h | 22031m | 4.7m/s | -53.4°C | 4.0% | 42.8hPa | 2.7V | 03:43:00 | 01:36:26 | 00:00:00 | |
| DL1XH1-15 | 2026-09-05 18:06:00 | 49.21629 | 8.60961 | 93° | 20km/h | 22002m | 5.7m/s | -53.8°C | 4.1% | 43hPa | 2.7V | 03:43:22 | 01:36:20 | 00:00:00 | |
| BIOWL1-15 | 2026-09-05 18:06:00 | 49.21625 | 8.61001 | 101° | 16km/h | 22026m | 3.9m/s | -53.5°C | 0.6% | 42.9hPa | 2.6V | 03:43:39 | 01:36:25 | 00:00:00 | |
| AU51GT2 | 2026-09-05 18:05:59 | 49.21626 | 8.60995 | 99° | 18km/h | 22022m | 4.7m/s | -53.6°C | 1.1% | 42.9hPa | 2.6V | 00:00:00 | 00:00:00 | 00:00:00 | |
| DB0UT-9 | 2026-09-05 18:05:57 | 49.21627 | 8.60987 | 101° | 22km/h | 22017m | 5.7m/s | -53.6°C | 1.1% | 42.9hPa | 2.6V | 03:43:00 | 00:00:00 | 00:00:00 | |
| DM0DOS-11 | 2026-09-05 18:05:56 | 49.21629 | 8.60936 | 91° | 16km/h | 21983m | 5.5m/s | -53.8°C | 4% | 43.1hPa | 2.6V | 03:43:26 | 01:36:16 | 00:00:00 | |
| DK7TD | 2026-09-05 18:05:56 | 49.21628 | 8.60969 | 96° | 22km/h | 22007m | 4.2m/s | -53.7°C | 0.6% | 43hPa | 2.7V | 03:43:39 | 01:36:21 | 00:00:00 | |
| DL1XH-west | 2026-09-05 18:05:52 | 49.21629 | 8.60942 | 90° | 15km/h | 21988m | 4.1m/s | -53.8°C | 0.6% | 43.1hPa | 2.6V | 03:43:39 | 01:36:17 | 00:00:00 | |
| BIOWL1-15 | 2026-09-05 18:05:49 | 49.21629 | 8.60921 | 87° | 22km/h | 21973m | 4.6m/s | -53.8°C | 0.6% | 43.2hPa | 2.7V | 03:43:39 | 01:36:14 | 00:00:00 | |
| DL4BBY-15 | 2026-09-05 18:05:49 | 49.21629 | 8.60921 | 87° | 22km/h | 21973m | 4.5m/s | -55.4°C | 0% | 0hPa | 2.6V | 00:00:00 | 00:00:00 | 00:00:00 | |
| NBG1-10 | 2026-09-05 18:05:48 | 49.21628 | 8.60912 | 82° | 22km/h | 21968m | 5.3m/s | -53.8°C | 4.0% | 43.2hPa | 2.6V | 03:43:00 | 01:36:13 | 00:00:00 | |
| DL1XH1-15 | 2026-09-05 18:05:47 | 49.21623 | 8.60857 | 93° | 26km/h | 21939m | 4.5m/s | -53.8°C | 4% | 43.5hPa | 2.6V | 03:43:35 | 01:36:07 | 00:00:00 | |
| DM0DOS-11 | 2026-09-05 18:05:46 | 49.21624 | 8.60848 | 94° | 22km/h | 21933m | 5.8m/s | -53.8°C | 4.1% | 43.5hPa | 2.7V | 03:43:36 | 01:36:06 | 00:00:00 | |
| DK7TD | 2026-09-05 18:05:46 | 49.21626 | 8.60896 | 75° | 22km/h | 21958m | 3.7m/s | -53.8°C | 0.6% | 43.3hPa | 2.6V | 03:43:39 | 01:36:11 | 00:00:00 | |
| BIOWL1-15 | 2026-09-05 18:05:43 | 49.21625 | 8.60834 | 102° | 16km/h | 21923m | 4.4m/s | -53.9°C | 0.6% | 43.5hPa | 2.6V | 03:43:39 | 01:36:04 | 00:00:00 | |
| DL1XH-west | 2026-09-05 18:05:41 | 49.21624 | 8.60848 | 94° | 22km/h | 21933m | 5.8m/s | -53.8°C | 0.6% | 43.5hPa | 2.7V | 03:43:39 | 01:36:06 | 00:00:00 | |
| DL3AQ-11 | 2026-09-05 18:05:41 | 49.21624 | 8.60840 | 97° | 18km/h | 21928m | 5.1m/s | 0°C | -1.0% | -1.0hPa | 2.7V | 00:00:00 | 00:00:00 | 00:00:00 | |
| DG9SBQ-11 | 2026-09-05 18:05:39 | 49.21624 | 8.60840 | 98° | 18km/h | 21928m | 5.1m/s | -53.8°C | 1.1% | 43.5hPa | 2.7V | 03:43:00 | 00:00:00 | 00:00:00 | |
| DF1GD-15 | 2026-09-05 18:05:38 | 49.21625 | 8.60834 | 102° | 16km/h | 21923m | 4.4m/s | -53.9°C | 1.1% | 43.6hPa | 2.7V | 03:43:00 | 00:00:00 | 00:00:00 | |
| DB0UT-9 | 2026-09-05 18:05:37 | 49.21626 | 8.60827 | 108° | 16km/h | 21919m | 4.6m/s | -53.9°C | 1.1% | 43.6hPa | 2.7V | 03:43:00 | 00:00:00 | 00:00:00 | |
| DM0DOS-11 | 2026-09-05 18:05:36 | 49.21634 | 8.60777 | 91° | 24km/h | 21884m | 5.1m/s | -54.1°C | 4.3% | 43.8hPa | 2.7V | 03:43:46 | 01:35:56 | 00:00:00 | |
| DK7TD | 2026-09-05 18:05:32 | 49.21633 | 8.60785 | 93° | 20km/h | 21889m | 3.9m/s | -54.1°C | 0.7% | 43.8hPa | 2.6V | 03:46:12 | 01:35:57 | 00:00:00 | |
| DL1XH-west | 2026-09-05 18:05:31 | 49.21634 | 8.60777 | 92° | 24km/h | 21884m | 5.1m/s | -54.1°C | 0.8% | 43.8hPa | 2.7V | 03:44:30 | 01:35:56 | 00:00:00 | |
| BIOWL1-15 | 2026-09-05 18:05:28 | 49.21635 | 8.60746 | 98° | 27km/h | 21870m | 4.3m/s | -54.1°C | 0.7% | 43.9hPa | 2.6V | 03:44:30 | 01:35:53 | 00:00:00 | |
| DG9SBQ-11 | 2026-09-05 18:05:27 | 49.21635 | 8.60746 | 99° | 27km/h | 21871m | 4.3m/s | -54.1°C | 1.1% | 43.9hPa | 2.6V | 03:44:00 | 00:00:00 | 00:00:00 | |
| DM0DOS-11 | 2026-09-05 18:05:26 | 49.21644 | 8.60688 | 98° | 22km/h | 21837m | 4m/s | -53.9°C | 4.1% | 44.1hPa | 2.6V | 03:43:56 | 01:35:46 | 00:00:00 | |
| DL1XH-west | 2026-09-05 18:05:20 | 49.21645 | 8.60681 | 93° | 18km/h | 21832m | 5.6m/s | -53.9°C | 0.6% | 44.2hPa | 2.6V | 03:44:30 | 01:35:45 | 00:00:00 | |
| BIOWL1-15 | 2026-09-05 18:05:18 | 49.21644 | 8.60667 | 78° | 18km/h | 21822m | 4.2m/s | -53.9°C | 0.6% | 44.2hPa | 2.6V | 03:44:30 | 01:35:43 | 00:00:00 | |
| DL1XH1-15 | 2026-09-05 18:05:17 | 49.21634 | 8.60615 | 69° | 18km/h | 21793m | 4.8m/s | -53.9°C | 4.1% | 44.4hPa | 2.6V | 03:44:05 | 01:35:37 | 00:00:00 | |
| DK7TD | 2026-09-05 18:05:17 | 49.21643 | 8.60660 | 76° | 22km/h | 21818m | 5.2m/s | -53.9°C | 0.7% | 44.3hPa | 2.7V | 03:46:12 | 01:35:42 | 00:00:00 | |
| DL1XH-west | 2026-09-05 18:05:09 | 49.21631 | 8.60596 | 83° | 18km/h | 21779m | 5.7m/s | -54°C | 0.7% | 44.5hPa | 2.6V | 03:44:30 | 01:35:34 | 00:00:00 | |
| DL1XH1-15 | 2026-09-05 18:05:07 | 49.21622 | 8.60553 | 47° | 24km/h | 21744m | 6m/s | -54°C | 4.1% | 44.8hPa | 2.7V | 03:44:15 | 01:35:27 | 00:00:00 | |
| BIOWL1-15 | 2026-09-05 18:05:07 | 49.21630 | 8.60581 | 88° | 18km/h | 21769m | 4.1m/s | -54.1°C | 0.6% | 44.6hPa | 2.6V | 03:44:30 | 01:35:32 | 00:00:00 | |
| DO3MHA-11 | 2026-09-05 18:05:06 | 49.21630 | 8.60575 | 85° | 24km/h | 21765m | 5.8m/s | -54.0°C | 4.1% | 44.6hPa | 2.7V | 00:00:00 | 01:35:31 | 00:00:00 | |
| DB0NH | 2026-09-05 18:05:05 | 49.21629 | 8.60569 | 75° | 18km/h | 21759m | 5.4m/s | -54.0°C | 4.2% | 44.6hPa | 2.7V | 00:00:00 | 01:35:30 | 00:00:00 | |
| DO3DL | 2026-09-05 18:05:02 | 49.21625 | 8.60559 | 51° | 18km/h | 21750m | 4.3m/s | -53.9°C | 1.1% | 44.8hPa | 2.7V | 03:44:00 | 00:00:00 | 00:00:00 | |
| DM0DOS-11 | 2026-09-05 18:05:01 | 49.21589 | 8.60512 | 31° | 22km/h | 21715m | 4.4m/s | -53.8°C | 4.3% | 45hPa | 2.7V | 03:44:21 | 01:35:21 | 00:00:00 | |
| DK7TD | 2026-09-05 18:05:00 | 49.21612 | 8.60538 | 43° | 33km/h | 21735m | 3.9m/s | -53.9°C | 0.7% | 44.9hPa | 2.6V | 03:46:12 | 01:35:25 | 00:00:00 | |
| DL1XH-west | 2026-09-05 18:04:58 | 49.21600 | 8.60522 | 35° | 29km/h | 21725m | 5.4m/s | -53.8°C | 0.7% | 44.9hPa | 2.6V | 03:44:30 | 01:35:23 | 00:00:00 | |
| BIOWL1-15 | 2026-09-05 18:04:58 | 49.21589 | 8.60512 | 32° | 22km/h | 21716m | 4.4m/s | -53.8°C | 0.8% | 45hPa | 2.7V | 03:44:30 | 01:35:21 | 00:00:00 | |
| AU51GT2 | 2026-09-05 18:04:57 | 49.21594 | 8.60517 | 30° | 24km/h | 21720m | 4.8m/s | -53.8°C | 1.1% | 44.9hPa | 2.7V | 00:00:00 | 00:00:00 | 00:00:00 | |
| DF7PN | 2026-09-05 18:04:54 | 49.21582 | 8.60503 | 52° | 13km/h | 21705m | 5.2m/s | -53.8°C | 1.2% | 45.1hPa | 2.7V | 00:00:00 | 00:00:00 | 00:00:00 | |
| DK5PH-5 | 2026-09-05 18:04:53 | 49.21580 | 8.60499 | 63° | 15km/h | 21701m | 3.9m/s | -53.7°C | 4.3% | 45.0hPa | 2.7V | 00:00:00 | 01:35:18 | 00:00:00 | |
| HEMX73-11 | 2026-09-05 18:04:52 | 49.21580 | 8.60499 | 63° | 13km/h | 21701m | 4.0m/s | -53.7°C | 1.2% | 45.1hPa | 2.7V | 03:44:00 | 00:00:00 | 00:00:00 | |
| BIOWL7-15 | 2026-09-05 18:04:51 | 49.21579 | 8.60495 | 65° | 9km/h | 21697m | 4.2m/s | -53.7°C | 1.1% | 45.1hPa | 2.7V | 03:44:00 | 00:00:00 | 00:00:00 | |
| DM0DOS-11 | 2026-09-05 18:04:50 | 49.21563 | 8.60467 | 53° | 27km/h | 21663m | 4.3m/s | -53.5°C | 4.1% | 45.3hPa | 2.7V | 03:44:32 | 01:35:10 | 00:00:00 | |
| DK7TD | 2026-09-05 18:04:49 | 49.21575 | 8.60489 | 33° | 9km/h | 21682m | 3.7m/s | -53.6°C | 0.7% | 45.2hPa | 2.6V | 03:46:12 | 01:35:14 | 00:00:00 | |
| DL1XH-west | 2026-09-05 18:04:48 | 49.21573 | 8.60486 | 43° | 15km/h | 21678m | 4.5m/s | -53.6°C | 0.7% | 45.2hPa | 2.6V | 03:44:30 | 01:35:13 | 00:00:00 | |
| BIOWL1-15 | 2026-09-05 18:04:47 | 49.21563 | 8.60467 | 54° | 27km/h | 21663m | 4.3m/s | -53.5°C | 0.7% | 45.3hPa | 2.7V | 03:45:21 | 01:35:10 | 00:00:00 | |
| DO3MHA-11 | 2026-09-05 18:04:46 | 49.21567 | 8.60475 | 55° | 18km/h | 21668m | 5.1m/s | -53.5°C | 4.1% | 45.2hPa | 2.6V | 00:00:00 | 01:35:11 | 00:00:00 | |
| DC4HF-4 | 2026-09-05 18:04:43 | 49.21549 | 8.60446 | 29° | 22km/h | 21650m | 5.1m/s | -53.4°C | 1.1% | 45.4hPa | 2.6V | 00:00:00 | 00:00:00 | 00:00:00 | |
| NBG1-10 | 2026-09-05 18:04:42 | 49.21549 | 8.60445 | 30° | 13km/h | 21650m | 5.0m/s | -53.3°C | 4.0% | 45.4hPa | 2.6V | 00:00:00 | 01:35:07 | 00:00:00 | |
| DJ2DS-15 | 2026-09-05 18:04:41 | 49.21544 | 8.60443 | 14° | 13km/h | 21645m | 4.6m/s | -53.3°C | 4.1% | 45.4hPa | 2.6V | 03:44:00 | 01:35:06 | 00:00:00 | |
| DM0DOS-11 | 2026-09-05 18:04:40 | 49.21531 | 8.60436 | 69° | 11km/h | 21616m | 4.3m/s | -53.1°C | 4% | 45.7hPa | 2.6V | 03:44:42 | 01:35:00 | 00:00:00 | |
| DL1XH-west | 2026-09-05 18:04:38 | 49.21535 | 8.60443 | 0° | 7km/h | 21631m | 5.4m/s | -53.2°C | 0.6% | 45.6hPa | 2.7V | 03:45:21 | 01:35:03 | 00:00:00 | |
| DK7TD | 2026-09-05 18:04:37 | 49.21533 | 8.60442 | 37° | 7km/h | 21626m | 5.2m/s | -53.2°C | 0.6% | 45.6hPa | 2.6V | 03:46:12 | 01:35:02 | 00:00:00 | |
| BIOWL1-15 | 2026-09-05 18:04:35 | 49.21531 | 8.60436 | 69° | 11km/h | 21616m | 4.3m/s | -53.1°C | 0.6% | 45.7hPa | 2.6V | 03:45:21 | 01:35:00 | 00:00:00 | |
| DB0NH | 2026-09-05 18:04:35 | 49.21531 | 8.60436 | 70° | 11km/h | 21616m | 4.2m/s | -53.0°C | 4.0% | 45.6hPa | 2.7V | 00:00:00 | 01:35:00 | 00:00:00 | |
| DO3DL | 2026-09-05 18:04:34 | 49.21531 | 8.60436 | 70° | 11km/h | 21616m | 4.3m/s | -53.1°C | 1.1% | 45.7hPa | 2.7V | 03:45:00 | 00:00:00 | 00:00:00 | |
| DL0LBS | 2026-09-05 18:04:33 | 49.21530 | 8.60432 | 74° | 11km/h | 21612m | 4.4m/s | -53.0°C | 1.1% | 45.7hPa | 2.7V | 03:45:00 | 00:00:00 | 00:00:00 | |
| HEMX73-11 | 2026-09-05 18:04:32 | 49.21529 | 8.60429 | 74° | 11km/h | 21607m | 5.7m/s | -53.0°C | 1.1% | 45.7hPa | 2.7V | 03:45:00 | 00:00:00 | 00:00:00 | |
| DG9SBQ-11 | 2026-09-05 18:04:31 | 49.21529 | 8.60425 | 74° | 9km/h | 21601m | 5.3m/s | -53.0°C | 1.1% | 45.8hPa | 2.7V | 03:45:00 | 00:00:00 | 00:00:00 | |
| DM0DOS-11 | 2026-09-05 18:04:30 | 49.21518 | 8.60386 | 59° | 15km/h | 21566m | 5.8m/s | -52.8°C | 3.9% | 46hPa | 2.7V | 03:44:52 | 01:34:50 | 00:00:00 | |
| DL1XH-west | 2026-09-05 18:04:27 | 49.21522 | 8.60399 | 68° | 20km/h | 21576m | 4.5m/s | -52.8°C | 0.6% | 46hPa | 2.6V | 03:45:21 | 01:34:52 | 00:00:00 | |
| BIOWL1-15 | 2026-09-05 18:04:27 | 49.21518 | 8.60386 | 60° | 15km/h | 21566m | 5.8m/s | -52.8°C | 0.6% | 46hPa | 2.7V | 03:45:21 | 01:34:50 | 00:00:00 | |
| DG9SBQ-11 | 2026-09-05 18:04:27 | 49.21522 | 8.60399 | 69° | 20km/h | 21576m | 4.5m/s | -52.8°C | 1.1% | 46.0hPa | 2.6V | 03:45:00 | 00:00:00 | 00:00:00 | |
| DL1XH1-15 | 2026-09-05 18:04:26 | 49.21513 | 8.60376 | 64° | 5km/h | 21548m | 5.7m/s | -52.7°C | 3.8% | 46.2hPa | 2.6V | 03:44:56 | 01:34:46 | 00:00:00 | |
| DK7TD | 2026-09-05 18:04:26 | 49.21520 | 8.60392 | 66° | 20km/h | 21572m | 4.5m/s | -52.8°C | 0.6% | 46hPa | 2.6V | 03:46:12 | 01:34:51 | 00:00:00 | |
| DO3MHA-11 | 2026-09-05 18:04:26 | 49.21520 | 8.60392 | 66° | 9km/h | 21572m | 4.4m/s | -52.8°C | 3.9% | 45.9hPa | 2.6V | 00:00:00 | 01:34:51 | 00:00:00 | |
| DK5PH-5 | 2026-09-05 18:04:23 | 49.21515 | 8.60380 | 38° | 13km/h | 21557m | 3.8m/s | -52.7°C | 3.9% | 46.1hPa | 2.6V | 00:00:00 | 01:34:48 | 00:00:00 | |
| DJ2DS-15 | 2026-09-05 18:04:21 | 49.21512 | 8.60376 | 65° | 11km/h | 21548m | 5.6m/s | -52.6°C | 3.8% | 46.1hPa | 2.6V | 00:00:00 | 01:34:46 | 00:00:00 | |
| DM7RM-13 | 2026-09-05 18:04:20 | 49.21512 | 8.60376 | 66° | 5km/h | 21548m | 5.7m/s | -52.7°C | 1.1% | 46.2hPa | 2.6V | 03:45:00 | 00:00:00 | 00:00:00 | |
| DM0DOS-11 | 2026-09-05 18:04:19 | 49.21513 | 8.60349 | 74° | 18km/h | 21513m | 6m/s | -52.7°C | 3.8% | 46.4hPa | 2.6V | 03:45:03 | 01:34:39 | 00:00:00 | |
| DL4BBY-15 | 2026-09-05 18:04:17 | 49.21514 | 8.60364 | 109° | 15km/h | 21529m | 4.8m/s | -54.2°C | 0% | 0hPa | 2.7V | 00:00:00 | 00:00:00 | 00:00:00 | |
| DL1XH1-15 | 2026-09-05 18:04:16 | 49.21510 | 8.60327 | 78° | 18km/h | 21500m | 5m/s | -52.8°C | 3.8% | 46.5hPa | 2.7V | 03:45:06 | 01:34:36 | 00:00:00 | |
| DL1XH-west | 2026-09-05 18:04:16 | 49.21515 | 8.60361 | 94° | 11km/h | 21523m | 4.2m/s | -52.7°C | 0.5% | 46.3hPa | 2.6V | 03:45:21 | 01:34:41 | 00:00:00 | |
| DK7TD | 2026-09-05 18:04:15 | 49.21514 | 8.60356 | 82° | 15km/h | 21519m | 4.9m/s | -52.7°C | 0.5% | 46.4hPa | 2.6V | 03:46:12 | 01:34:40 | 00:00:00 | |
| DO3DL | 2026-09-05 18:04:14 | 49.21514 | 8.60356 | 83° | 15km/h | 21519m | 4.9m/s | -52.7°C | 1.0% | 46.4hPa | 2.7V | 03:45:00 | 00:00:00 | 00:00:00 | |
| DL0LBS | 2026-09-05 18:04:12 | 49.21512 | 8.60342 | 75° | 22km/h | 21509m | 4.2m/s | -52.8°C | 1.1% | 46.4hPa | 2.7V | 03:45:00 | 00:00:00 | 00:00:00 | |
| HARRO8 | 2026-09-05 18:04:10 | 49.21509 | 8.60321 | 88° | 11km/h | 21495m | 5.5m/s | -52.8°C | 1.0% | 46.5hPa | 2.7V | 00:00:00 | 00:00:00 | 00:00:00 | |
| DM0DOS-11 | 2026-09-05 18:04:09 | 49.21516 | 8.60309 | 124° | 11km/h | 21466m | 3.9m/s | -53.1°C | 3.8% | 46.8hPa | 2.7V | 03:45:13 | 01:34:29 | 00:00:00 | |
| NBG1-10 | 2026-09-05 18:04:09 | 49.21510 | 8.60318 | 121° | 16km/h | 21490m | 4.5m/s | -52.8°C | 3.8% | 46.5hPa | 2.6V | 00:00:00 | 01:34:34 | 00:00:00 | |
| BIOWL9-15 | 2026-09-05 18:04:08 | 49.21511 | 8.60316 | 150° | 5km/h | 21486m | 4.1m/s | -52.9°C | 1.0% | 46.6hPa | 2.6V | 00:00:00 | 00:00:00 | 00:00:00 | |
| BIOWL7-15 | 2026-09-05 18:04:07 | 49.21511 | 8.60316 | 152° | 5km/h | 21486m | 4.1m/s | -52.9°C | 1.0% | 46.6hPa | 2.6V | 00:00:00 | 00:00:00 | 00:00:00 | |
| DL1XH1-15 | 2026-09-05 18:04:06 | 49.21523 | 8.60296 | 130° | 18km/h | 21452m | 4.8m/s | -53.2°C | 3.8% | 46.8hPa | 2.6V | 03:45:16 | 01:34:26 | 00:00:00 | |
| DL1XH-west | 2026-09-05 18:04:05 | 49.21515 | 8.60312 | 128° | 7km/h | 21470m | 4.7m/s | -53°C | 0.5% | 46.7hPa | 2.7V | 03:45:21 | 01:34:30 | 00:00:00 | |
| DB0NH | 2026-09-05 18:04:05 | 49.21514 | 8.60312 | 129° | 18km/h | 21471m | 4.6m/s | -53.0°C | 3.8% | 46.6hPa | 2.7V | 00:00:00 | 01:34:30 | 00:00:00 | |
| DG9SBQ-11 | 2026-09-05 18:04:04 | 49.21514 | 8.60312 | 129° | 7km/h | 21471m | 4.7m/s | -53.0°C | 1.0% | 46.7hPa | 2.7V | 03:45:00 | 00:00:00 | 00:00:00 | |
| KANTATE | 2026-09-05 18:04:03 | 49.21516 | 8.60309 | 126° | 11km/h | 21466m | 3.9m/s | -53.1°C | 1.0% | 46.8hPa | 2.7V | 03:45:00 | 00:00:00 | 00:00:00 | |
| DJ2DS-15 | 2026-09-05 18:04:02 | 49.21523 | 8.60296 | 130° | 16km/h | 21452m | 4.8m/s | -53.2°C | 1.1% | 46.8hPa | 2.7V | 00:00:00 | 00:00:00 | 00:00:00 | |
| DJ2DS-15 | 2026-09-05 18:04:01 | 49.21523 | 8.60296 | 131° | 20km/h | 21452m | 4.7m/s | -53.1°C | 3.8% | 46.8hPa | 2.7V | 00:00:00 | 01:34:26 | 00:00:00 | |
| DM0DOS-11 | 2026-09-05 18:03:59 | 49.21532 | 8.60252 | 127° | 18km/h | 21418m | 4.9m/s | -53.8°C | 4.1% | 47.1hPa | 2.7V | 03:45:23 | 01:34:19 | 00:00:00 | |
| DB0ND-19 | 2026-09-05 18:03:59 | 49.21529 | 8.60271 | 90° | 16km/h | 21432m | 4.1m/s | -53.2°C | 1.1% | 47.0hPa | 2.6V | 00:00:00 | 00:00:00 | 00:00:00 | |
| DL1ZP-14 | 2026-09-05 18:03:57 | 49.21529 | 8.60271 | 90° | 16km/h | 21432m | 4.1m/s | -53.2°C | 1.1% | 47.0hPa | 2.6V | 00:00:00 | 00:00:00 | 00:00:00 | |
| DL1XH1-15 | 2026-09-05 18:03:56 | 49.21544 | 8.60239 | 152° | 20km/h | 21403m | 5.9m/s | -54.1°C | 4.2% | 47.2hPa | 2.7V | 03:45:26 | 01:34:16 | 00:00:00 | |
| DL1XH-west | 2026-09-05 18:03:54 | 49.21532 | 8.60252 | 128° | 18km/h | 21418m | 4.9m/s | -53.8°C | 0.6% | 47.1hPa | 2.7V | 03:46:12 | 01:34:19 | 00:00:00 | |
| DK7TD | 2026-09-05 18:03:53 | 49.21535 | 8.60247 | 143° | 20km/h | 21413m | 4.4m/s | -53.9°C | 0.6% | 47.1hPa | 2.6V | 03:46:12 | 01:34:18 | 00:00:00 | |
| DF7PN | 2026-09-05 18:03:52 | 49.21540 | 8.60242 | 149° | 20km/h | 21408m | 5.1m/s | -54.0°C | 1.1% | 47.2hPa | 2.6V | 00:00:00 | 00:00:00 | 00:00:00 | |
| SONDE2-11 | 2026-09-05 18:03:46 | 49.21570 | 8.60219 | 150° | 24km/h | 21377m | 4.2m/s | -54.3°C | 1.2% | 47.4hPa | 2.6V | 00:00:00 | 00:00:00 | 00:00:00 | |
| DF3TZ-5 | 2026-09-05 18:03:45 | 49.21575 | 8.60215 | 144° | 20km/h | 21373m | 5.2m/s | -54.3°C | 1.2% | 47.4hPa | 2.6V | 00:00:00 | 00:00:00 | 00:00:00 | |
| BIOWL1-15 | 2026-09-05 18:03:44 | 49.21579 | 8.60210 | 134° | 18km/h | 21367m | 6m/s | -54.2°C | 0.7% | 47.5hPa | 2.6V | 03:46:12 | 01:34:09 | 00:00:00 | |
| DL1XH-west | 2026-09-05 18:03:43 | 49.21581 | 8.60205 | 124° | 16km/h | 21362m | 4.3m/s | -54.2°C | 0.8% | 47.5hPa | 2.6V | 03:46:12 | 01:34:08 | 00:00:00 | |
| DJ2DS-15 | 2026-09-05 18:03:41 | 49.21586 | 8.60195 | 132° | 22km/h | 21354m | 5.1m/s | -54.1°C | 4.3% | 47.5hPa | 2.7V | 00:00:00 | 01:34:06 | 00:00:00 | |
| DM0DOS-11 | 2026-09-05 18:03:39 | 49.21621 | 8.60172 | 164° | 18km/h | 21316m | 5m/s | -53.9°C | 4.1% | 47.8hPa | 2.7V | 03:45:43 | 01:33:59 | 00:00:00 | |
| BIOWL1-15 | 2026-09-05 18:03:39 | 49.21625 | 8.60170 | 164° | 20km/h | 21311m | 5.8m/s | -53.9°C | 0.6% | 47.9hPa | 2.7V | 03:46:12 | 01:33:58 | 00:00:00 | |
| DL1XH-west | 2026-09-05 18:03:32 | 49.21631 | 8.60168 | 162° | 22km/h | 21306m | 5.3m/s | -53.8°C | 0.7% | 47.9hPa | 2.7V | 03:46:12 | 01:33:57 | 00:00:00 | |
| DK7TD | 2026-09-05 18:03:29 | 49.21646 | 8.60158 | 150° | 20km/h | 21291m | 6m/s | -53.8°C | 0.6% | 48hPa | 2.6V | 03:46:12 | 01:33:54 | 00:00:00 | |
| DM0DOS-11 | 2026-09-05 18:03:28 | 49.21682 | 8.60146 | 180° | 27km/h | 21260m | 5.2m/s | -53.7°C | 4.2% | 48.2hPa | 2.6V | 03:45:54 | 01:33:48 | 00:00:00 | |
| BIOWL1-15 | 2026-09-05 18:03:23 | 49.21682 | 8.60146 | 180° | 27km/h | 21260m | 5.2m/s | -53.7°C | 0.7% | 48.3hPa | 2.6V | 03:46:12 | 01:33:48 | 00:00:00 | |
| DL1XH-west | 2026-09-05 18:03:21 | 49.21694 | 8.60145 | 175° | 24km/h | 21250m | 4.6m/s | -53.6°C | 0.7% | 48.4hPa | 2.7V | 03:46:12 | 01:33:46 | 00:00:00 | |
| DJTTGO | 2026-09-05 18:03:21 | 49.21695 | 8.60145 | 176° | 24km/h | 21250m | 4.6m/s | -53.6°C | 1.1% | 48.4hPa | 2.6V | 03:46:00 | 00:00:00 | 00:00:00 | |
| DG9SBQ-11 | 2026-09-05 18:03:20 | 49.21695 | 8.60145 | 176° | 24km/h | 21250m | 4.6m/s | -53.6°C | 1.1% | 48.4hPa | 2.6V | 03:46:00 | 00:00:00 | 00:00:00 | |
| DM0DOS-11 | 2026-09-05 18:03:18 | 49.21743 | 8.60139 | 180° | 24km/h | 21209m | 4.9m/s | -53.4°C | 3.9% | 48.6hPa | 2.6V | 03:46:04 | 01:33:38 | 00:00:00 | |
| DK7TD | 2026-09-05 18:03:18 | 49.21713 | 8.60142 | 175° | 26km/h | 21236m | 6.2m/s | -53.6°C | 0.7% | 48.5hPa | 2.6V | 03:46:12 | 01:33:43 | 00:00:00 | |
| BIOWL1-15 | 2026-09-05 18:03:12 | 49.21750 | 8.60139 | 183° | 26km/h | 21204m | 6m/s | -53.4°C | 0.6% | 48.7hPa | 2.7V | 03:46:12 | 01:33:37 | 00:00:00 | |
| DL1XH-west | 2026-09-05 18:03:11 | 49.21757 | 8.60140 | 184° | 31km/h | 21198m | 5.1m/s | -53.4°C | 0.6% | 48.7hPa | 2.7V | 03:46:12 | 01:33:36 | 00:00:00 | |
| DJ2KF-10 | 2026-09-05 18:03:09 | 49.21773 | 8.60141 | 181° | 31km/h | 21190m | 4.7m/s | 0°C | 0% | 0hPa | 2.6V | 00:00:00 | 01:33:34 | 00:00:00 | |
| DM0DOS-11 | 2026-09-05 18:03:08 | 49.21824 | 8.60133 | 172° | 37km/h | 21157m | 4.8m/s | -53.2°C | 4% | 49hPa | 2.6V | 03:46:14 | 01:33:28 | 00:00:00 | |
| DK7TD | 2026-09-05 18:03:07 | 49.21789 | 8.60140 | 174° | 31km/h | 21178m | 5.4m/s | -53.3°C | 0.6% | 48.9hPa | 2.7V | 03:46:12 | 01:33:32 | 00:00:00 | |
| DO3MHA-11 | 2026-09-05 18:03:06 | 49.21797 | 8.60138 | 173° | 35km/h | 21174m | 4.7m/s | -53.2°C | 4.1% | 48.9hPa | 2.7V | 00:00:00 | 01:33:31 | 00:00:00 | |
| DB0NH | 2026-09-05 18:03:05 | 49.21805 | 8.60136 | 173° | 37km/h | 21168m | 5.7m/s | -53.2°C | 4.0% | 48.9hPa | 2.6V | 00:00:00 | 01:33:30 | 00:00:00 | |
| NBG1-10 | 2026-09-05 18:03:03 | 49.21823 | 8.60133 | 173° | 35km/h | 21157m | 4.8m/s | -53.1°C | 4.0% | 49.0hPa | 2.6V | 00:00:00 | 01:33:28 | 00:00:00 | |
| DO3DL | 2026-09-05 18:03:02 | 49.21823 | 8.60133 | 173° | 37km/h | 21157m | 4.8m/s | -53.2°C | 1.1% | 49.0hPa | 2.6V | 03:47:00 | 00:00:00 | 00:00:00 | |
| DL1XH1-15 | 2026-09-05 18:03:01 | 49.21883 | 8.60113 | 170° | 37km/h | 21121m | 3.9m/s | 0°C | 0% | 0hPa | 2.6V | 03:46:21 | 01:33:21 | 00:00:00 | |
| BIOWL1-15 | 2026-09-05 18:03:01 | 49.21841 | 8.60129 | 168° | 33km/h | 21147m | 5.8m/s | -53.1°C | 0.6% | 49.1hPa | 2.7V | 03:47:03 | 01:33:26 | 00:00:00 | |
| DL1XH-west | 2026-09-05 18:03:00 | 49.21849 | 8.60126 | 165° | 31km/h | 21142m | 4.8m/s | -53.1°C | 0.5% | 49.2hPa | 2.7V | 03:47:03 | 01:33:25 | 00:00:00 | |
| KANTATE | 2026-09-05 18:02:59 | 49.21849 | 8.60125 | 166° | 31km/h | 21142m | 4.8m/s | -53.1°C | 1.1% | 49.2hPa | 2.6V | 00:00:00 | 00:00:00 | 00:00:00 | |
| DM7RM-13 | 2026-09-05 18:02:58 | 49.21865 | 8.60119 | 167° | 33km/h | 21132m | 5.5m/s | -53.1°C | 1.1% | 49.2hPa | 2.6V | 03:47:00 | 00:00:00 | 00:00:00 | |
| DM0DOS-11 | 2026-09-05 18:02:57 | 49.21917 | 8.60104 | 166° | 31km/h | 21102m | 4.8m/s | -53°C | 4% | 49.5hPa | 2.6V | 03:46:25 | 01:33:17 | 00:00:00 | |
| DK7TD | 2026-09-05 18:02:56 | 49.21883 | 8.60113 | 170° | 38km/h | 21121m | 3.9m/s | -53.1°C | 0.6% | 49.3hPa | 2.6V | 03:47:03 | 01:33:21 | 00:00:00 | |
| DL1ZP-14 | 2026-09-05 18:02:55 | 49.21892 | 8.60111 | 170° | 37km/h | 21118m | 3.8m/s | -53.1°C | 1.1% | 49.4hPa | 2.7V | 00:00:00 | 00:00:00 | 00:00:00 | |
| DL6DJ-15 | 2026-09-05 18:02:54 | 49.21925 | 8.60101 | 166° | 33km/h | 21097m | 4.9m/s | -53.0°C | 1.1% | 49.5hPa | 2.7V | 00:00:00 | 00:00:00 | 00:00:00 | |
| DK5PH-5 | 2026-09-05 18:02:53 | 49.21909 | 8.60106 | 169° | 42km/h | 21107m | 5.8m/s | -53.0°C | 4.0% | 49.4hPa | 2.7V | 00:00:00 | 01:33:18 | 00:00:00 | |
| DL1XH1-15 | 2026-09-05 18:02:51 | 49.21970 | 8.60082 | 157° | 38km/h | 21071m | 5.5m/s | 0°C | 0% | 0hPa | 2.7V | 03:46:31 | 01:33:11 | 00:00:00 | |
| BIOWL1-15 | 2026-09-05 18:02:51 | 49.21925 | 8.60101 | 167° | 33km/h | 21097m | 4.9m/s | -53°C | 0.6% | 49.5hPa | 2.6V | 03:47:03 | 01:33:16 | 00:00:00 | |
| DL1XH-west | 2026-09-05 18:02:49 | 49.21942 | 8.60095 | 167° | 38km/h | 21086m | 4.9m/s | -53.1°C | 0.6% | 49.6hPa | 2.6V | 03:47:03 | 01:33:14 | 00:00:00 | |
| DL0LBS | 2026-09-05 18:02:48 | 49.21942 | 8.60095 | 168° | 38km/h | 21086m | 4.9m/s | -53.1°C | 1.1% | 49.6hPa | 2.7V | 03:47:00 | 00:00:00 | 00:00:00 | |
| DM0DOS-11 | 2026-09-05 18:02:47 | 49.22006 | 8.60059 | 162° | 40km/h | 21052m | 5.6m/s | -53.2°C | 4% | 49.9hPa | 2.7V | 03:46:35 | 01:33:07 | 00:00:00 | |
| DK7TD | 2026-09-05 18:02:45 | 49.21979 | 8.60076 | 156° | 37km/h | 21067m | 4.4m/s | -53.2°C | 0.6% | 49.8hPa | 2.6V | 03:47:03 | 01:33:10 | 00:00:00 | |
| BIOWL1-15 | 2026-09-05 18:02:40 | 49.22026 | 8.60050 | 161° | 42km/h | 21042m | 4.6m/s | -53.1°C | 0.6% | 49.9hPa | 2.6V | 03:47:03 | 01:33:05 | 00:00:00 | |
| DL1XH-west | 2026-09-05 18:02:38 | 49.22045 | 8.60038 | 155° | 40km/h | 21032m | 5.3m/s | -53.1°C | 0.6% | 50hPa | 2.6V | 03:47:03 | 01:33:03 | 00:00:00 | |
| DK7TD | 2026-09-05 18:02:35 | 49.22074 | 8.60016 | 154° | 44km/h | 21016m | 5.4m/s | -53°C | 0.6% | 50.1hPa | 2.6V | 03:47:03 | 01:33:00 | 00:00:00 | |
| BIOWL1-15 | 2026-09-05 18:02:30 | 49.22121 | 8.59975 | 146° | 42km/h | 20991m | 4.6m/s | -53°C | 0.5% | 50.3hPa | 2.6V | 03:47:03 | 01:32:55 | 00:00:00 | |
| DL1XH-west | 2026-09-05 18:02:28 | 49.22139 | 8.59957 | 149° | 46km/h | 20980m | 5m/s | -52.9°C | 0.5% | 50.4hPa | 2.7V | 03:47:03 | 01:32:53 | 00:00:00 | |
| DM0DOS-11 | 2026-09-05 18:02:27 | 49.22201 | 8.59885 | 142° | 55km/h | 20948m | 6.2m/s | -52.8°C | 3.9% | 50.7hPa | 2.7V | 03:46:55 | 01:32:47 | 00:00:00 | |
| DK7TD | 2026-09-05 18:02:24 | 49.22180 | 8.59911 | 139° | 53km/h | 20959m | 4.8m/s | -52.8°C | 0.5% | 50.6hPa | 2.6V | 03:47:03 | 01:32:49 | 00:00:00 | |
| BIOWL1-15 | 2026-09-05 18:02:20 | 49.22223 | 8.59861 | 144° | 51km/h | 20938m | 4.8m/s | -52.8°C | 0.6% | 50.8hPa | 2.6V | 03:47:03 | 01:32:45 | 00:00:00 | |
| DF7PN | 2026-09-05 18:02:19 | 49.22233 | 8.59849 | 141° | 47km/h | 20932m | 6.1m/s | -52.8°C | 1.1% | 50.8hPa | 2.6V | 00:00:00 | 00:00:00 | 00:00:00 | |
| KANTATE | 2026-09-05 18:02:18 | 49.22233 | 8.59849 | 142° | 47km/h | 20932m | 6.1m/s | -52.8°C | 1.1% | 50.8hPa | 2.6V | 00:00:00 | 00:00:00 | 00:00:00 | |
| DM0DOS-11 | 2026-09-05 18:02:17 | 49.22292 | 8.59767 | 138° | 49km/h | 20897m | 4.4m/s | -53.3°C | 4% | 51.1hPa | 2.6V | 03:47:05 | 01:32:37 | 00:00:00 | |
| DL1XH-west | 2026-09-05 18:02:17 | 49.22250 | 8.59825 | 134° | 44km/h | 20921m | 4.5m/s | -52.9°C | 0.5% | 50.9hPa | 2.6V | 03:47:03 | 01:32:42 | 00:00:00 | |
| DB0UT-7 | 2026-09-05 18:02:17 | 49.22250 | 8.59825 | 134° | 53km/h | 20921m | 4.4m/s | -52.8°C | 3.9% | 50.8hPa | 2.6V | 00:00:00 | 00:00:00 | 00:00:00 | |
| DO3MHA-11 | 2026-09-05 18:02:16 | 49.22257 | 8.59813 | 135° | 49km/h | 20917m | 4.6m/s | -52.9°C | 3.9% | 50.9hPa | 2.6V | 00:00:00 | 01:32:41 | 00:00:00 | |
| DO3DL | 2026-09-05 18:02:15 | 49.22257 | 8.59813 | 135° | 44km/h | 20917m | 4.7m/s | -52.9°C | 1.1% | 50.9hPa | 2.6V | 03:47:00 | 00:00:00 | 00:00:00 | |
| DJ2DS-15 | 2026-09-05 18:02:14 | 49.22282 | 8.59779 | 140° | 46km/h | 20901m | 4.3m/s | -53.2°C | 1.1% | 51.0hPa | 2.6V | 00:00:00 | 00:00:00 | 00:00:00 | |
| SONDE2-11 | 2026-09-05 18:02:13 | 49.22282 | 8.59779 | 140° | 46km/h | 20901m | 4.3m/s | -53.2°C | 1.1% | 51.0hPa | 2.6V | 00:00:00 | 00:00:00 | 00:00:00 | |
| DK7TD | 2026-09-05 18:02:13 | 49.22282 | 8.59779 | 141° | 47km/h | 20901m | 4.3m/s | -53.2°C | 0.6% | 51hPa | 2.6V | 03:47:54 | 01:32:38 | 00:00:00 | |
| DF3TZ-5 | 2026-09-05 18:02:12 | 49.22292 | 8.59767 | 138° | 47km/h | 20897m | 4.4m/s | -53.3°C | 1.1% | 51.1hPa | 2.6V | 00:00:00 | 00:00:00 | 00:00:00 | |
| DF1GD-15 | 2026-09-05 18:02:11 | 49.22292 | 8.59767 | 140° | 49km/h | 20897m | 4.4m/s | -53.3°C | 1.1% | 51.1hPa | 2.6V | 03:47:00 | 00:00:00 | 00:00:00 | |
| DL1XH1-15 | 2026-09-05 18:02:09 | 49.22366 | 8.59640 | 130° | 57km/h | 20854m | 4.9m/s | 0°C | 0% | 0hPa | 2.6V | 03:47:13 | 01:32:29 | 00:00:00 | |
| BIOWL1-15 | 2026-09-05 18:02:09 | 49.22318 | 8.59724 | 128° | 55km/h | 20880m | 5.2m/s | -53.4°C | 0.6% | 51.2hPa | 2.7V | 03:47:54 | 01:32:34 | 00:00:00 | |
| DO3DL | 2026-09-05 18:02:08 | 49.22318 | 8.59724 | 129° | 55km/h | 20880m | 5.2m/s | -53.4°C | 1.1% | 51.2hPa | 2.7V | 03:47:00 | 00:00:00 | 00:00:00 | |
| DM0DOS-11 | 2026-09-05 18:02:07 | 49.22383 | 8.59606 | 123° | 53km/h | 20843m | 5.3m/s | -53.2°C | 4.1% | 51.5hPa | 2.7V | 03:47:15 | 01:32:27 | 00:00:00 | |
| DL1XH-west | 2026-09-05 18:02:06 | 49.22346 | 8.59673 | 133° | 60km/h | 20864m | 5.1m/s | -53.3°C | 0.7% | 51.3hPa | 2.6V | 03:47:54 | 01:32:31 | 00:00:00 | |
| DK7TD | 2026-09-05 18:02:03 | 49.22375 | 8.59623 | 128° | 55km/h | 20849m | 6m/s | -53.2°C | 0.7% | 51.4hPa | 2.7V | 03:47:54 | 01:32:28 | 00:00:00 | |
| DO3DL | 2026-09-05 18:02:02 | 49.22375 | 8.59623 | 129° | 55km/h | 20849m | 6.0m/s | -53.2°C | 1.2% | 51.4hPa | 2.7V | 03:47:00 | 00:00:00 | 00:00:00 | |
| DJ2DS-15 | 2026-09-05 18:02:01 | 49.22390 | 8.59589 | 122° | 51km/h | 20838m | 4.4m/s | -53.1°C | 4.1% | 51.5hPa | 2.7V | 03:47:00 | 01:32:26 | 00:00:00 | |
| DG9SBQ-11 | 2026-09-05 18:02:00 | 49.22390 | 8.59589 | 123° | 53km/h | 20838m | 4.4m/s | -53.1°C | 1.1% | 51.5hPa | 2.7V | 03:47:00 | 00:00:00 | 00:00:00 | |
| DL1XH1-15 | 2026-09-05 18:01:59 | 49.22437 | 8.59468 | 115° | 49km/h | 20802m | 4.8m/s | 0°C | 0% | 0hPa | 2.7V | 03:47:23 | 01:32:19 | 00:00:00 | |
| BIOWL1-15 | 2026-09-05 18:01:59 | 49.22404 | 8.59554 | 123° | 53km/h | 20828m | 5.5m/s | -53.1°C | 0.6% | 51.6hPa | 2.6V | 03:47:54 | 01:32:24 | 00:00:00 | |
| AZAK | 2026-09-05 18:01:58 | 49.22412 | 8.59537 | 124° | 53km/h | 20823m | 4.6m/s | -53.0°C | 1.1% | 51.6hPa | 2.6V | 00:00:00 | 00:00:00 | 00:00:00 | |
| DM0DOS-11 | 2026-09-05 18:01:57 | 49.22449 | 8.59433 | 121° | 55km/h | 20791m | 5.8m/s | -52.8°C | 3.9% | 51.9hPa | 2.6V | 03:47:25 | 01:32:17 | 00:00:00 | |
| DL1XH-west | 2026-09-05 18:01:56 | 49.22425 | 8.59503 | 118° | 51km/h | 20813m | 6.1m/s | -53°C | 0.6% | 51.7hPa | 2.6V | 03:47:54 | 01:32:21 | 00:00:00 | |
| DK7TD | 2026-09-05 18:01:52 | 49.22449 | 8.59432 | 122° | 55km/h | 20791m | 5.8m/s | -52.8°C | 0.6% | 51.9hPa | 2.6V | 03:47:54 | 01:32:17 | 00:00:00 | |
| AU51GT2 | 2026-09-05 18:01:51 | 49.22457 | 8.59415 | 124° | 55km/h | 20786m | 4.5m/s | -52.8°C | 1.1% | 51.9hPa | 2.7V | 00:00:00 | 00:00:00 | 00:00:00 | |
| DL1XH1-15 | 2026-09-05 18:01:49 | 49.22512 | 8.59303 | 126° | 49km/h | 20751m | 4.7m/s | 0°C | 0% | 0hPa | 2.7V | 03:47:33 | 01:32:09 | 00:00:00 | |
| BIOWL1-15 | 2026-09-05 18:01:48 | 49.22481 | 8.59365 | 127° | 51km/h | 20771m | 5.1m/s | -52.7°C | 0.5% | 52.1hPa | 2.7V | 03:47:54 | 01:32:13 | 00:00:00 | |
| DL1XH-west | 2026-09-05 18:01:45 | 49.22504 | 8.59319 | 128° | 51km/h | 20756m | 5.1m/s | -52.7°C | 0.5% | 52.2hPa | 2.6V | 03:47:54 | 01:32:10 | 00:00:00 | |
| DK7TD | 2026-09-05 18:01:41 | 49.22532 | 8.59257 | 122° | 46km/h | 20735m | 4.4m/s | -52.8°C | 0.5% | 52.3hPa | 2.6V | 03:47:54 | 01:32:06 | 00:00:00 | |
| BIOWL1-15 | 2026-09-05 18:01:38 | 49.22553 | 8.59213 | 130° | 49km/h | 20720m | 4.3m/s | -53°C | 0.5% | 52.5hPa | 2.6V | 03:47:54 | 01:32:03 | 00:00:00 | |
| DJ2DS-15 | 2026-09-05 18:01:38 | 49.22569 | 8.59185 | 131° | 47km/h | 20711m | 5.7m/s | -53.2°C | 1.1% | 52.5hPa | 2.6V | 00:00:00 | 00:00:00 | 00:00:00 | |
| DM0DOS-11 | 2026-09-05 18:01:37 | 49.22601 | 8.59130 | 133° | 51km/h | 20690m | 5.4m/s | -53.5°C | 3.9% | 52.7hPa | 2.6V | 03:47:45 | 01:31:57 | 00:00:00 | |
| DL1XH-west | 2026-09-05 18:01:35 | 49.22577 | 8.59171 | 131° | 47km/h | 20705m | 5.4m/s | -53.3°C | 0.6% | 52.6hPa | 2.7V | 03:47:54 | 01:32:00 | 00:00:00 | |
| DK7TD | 2026-09-05 18:01:31 | 49.22610 | 8.59116 | 133° | 51km/h | 20686m | 4.2m/s | -53.5°C | 0.6% | 52.8hPa | 2.6V | 03:47:54 | 01:31:56 | 00:00:00 | |
| BIOWL1-15 | 2026-09-05 18:01:29 | 49.22638 | 8.59055 | 117° | 44km/h | 20666m | 4.4m/s | -53.6°C | 0.6% | 52.9hPa | 2.6V | 03:47:54 | 01:31:52 | 00:00:00 | |
| NBG1-10 | 2026-09-05 18:01:29 | 49.22626 | 8.59086 | 126° | 40km/h | 20676m | 6.0m/s | -53.5°C | 4.0% | 52.8hPa | 2.6V | 00:00:00 | 01:31:54 | 00:00:00 | |
| DO3DL | 2026-09-05 18:01:28 | 49.22626 | 8.59086 | 126° | 49km/h | 20676m | 6.0m/s | -53.6°C | 1.1% | 52.8hPa | 2.6V | 03:47:00 | 00:00:00 | 00:00:00 | |
| DM0DOS-11 | 2026-09-05 18:01:27 | 49.22665 | 8.58984 | 119° | 40km/h | 20642m | 5.2m/s | -53.7°C | 4% | 53.1hPa | 2.6V | 03:47:55 | 01:31:47 | 00:00:00 | |
| DL1XH-west | 2026-09-05 18:01:25 | 49.22648 | 8.59026 | 119° | 44km/h | 20656m | 5.6m/s | 0°C | 0% | 53hPa | 2.6V | 03:47:54 | 01:31:50 | 00:00:00 | |
| DK7TD | 2026-09-05 18:01:20 | 49.22673 | 8.58956 | 113° | 38km/h | 20631m | 4.6m/s | -53.8°C | 0.6% | 53.2hPa | 2.6V | 03:48:45 | 01:31:45 | 00:00:00 | |
| DO8TBO-1 | 2026-09-05 18:01:20 | 49.22673 | 8.58956 | 113° | 38km/h | 20631m | 4.6m/s | -53.7°C | 4.0% | 53.2hPa | 2.6V | 03:47:00 | 01:31:45 | 00:00:00 | |
| DM0DOS-11 | 2026-09-05 18:01:17 | 49.22707 | 8.58842 | 118° | 44km/h | 20592m | 5.6m/s | -54.3°C | 4.1% | 53.5hPa | 2.6V | 03:48:05 | 01:31:37 | 00:00:00 | |
| BIOWL1-15 | 2026-09-05 18:01:16 | 49.22690 | 8.58900 | 114° | 40km/h | 20611m | 4.8m/s | -53.9°C | 0.6% | 53.4hPa | 2.6V | 03:48:45 | 01:31:41 | 00:00:00 | |
| DL1XH-west | 2026-09-05 18:01:14 | 49.22698 | 8.58871 | 113° | 40km/h | 20601m | 4.4m/s | 0°C | 0% | 0hPa | 2.7V | 18:12:15 | 01:31:39 | 00:00:00 | |
| BIOWL1-15 | 2026-09-05 18:01:10 | 49.22733 | 8.58760 | 111° | 37km/h | 20564m | 5.3m/s | -54.6°C | 0.7% | 53.8hPa | 2.6V | 03:48:45 | 01:31:31 | 00:00:00 | |
| DK7TD | 2026-09-05 18:01:09 | 49.22722 | 8.58800 | 117° | 38km/h | 20578m | 5.4m/s | -54.6°C | 0.7% | 53.7hPa | 2.7V | 03:48:45 | 01:31:34 | 00:00:00 | |
| DL1XH-west | 2026-09-05 18:01:04 | 49.22740 | 8.58734 | 115° | 38km/h | 20554m | 4m/s | 0°C | 0% | 0hPa | 2.7V | 18:12:15 | 01:31:29 | 00:00:00 | |
| DK7TD | 2026-09-05 18:00:58 | 49.22763 | 8.58659 | 120° | 38km/h | 20526m | 5.3m/s | -54.4°C | 0.6% | 54.1hPa | 2.7V | 03:48:45 | 01:31:23 | 00:00:00 | |
| DM0DOS-11 | 2026-09-05 18:00:57 | 49.22786 | 8.58579 | 111° | 37km/h | 20498m | 5.4m/s | -55.3°C | 4.3% | 54.3hPa | 2.7V | 03:48:25 | 01:31:17 | 00:00:00 | |
| BIOWL1-15 | 2026-09-05 18:00:55 | 49.22777 | 8.58619 | 113° | 38km/h | 20512m | 5.2m/s | -54.6°C | 0.7% | 54.2hPa | 2.6V | 03:48:45 | 01:31:20 | 00:00:00 | |
| DL1XH-west | 2026-09-05 18:00:54 | 49.22780 | 8.58605 | 110° | 37km/h | 20507m | 4.6m/s | 0°C | 0% | 0hPa | 2.6V | 18:12:15 | 01:31:19 | 00:00:00 | |
| DD1CC8 | 2026-09-05 18:00:53 | 49.22787 | 8.58579 | 111° | 35km/h | 20498m | 5.4m/s | -55.3°C | 1.2% | 54.3hPa | 2.7V | 00:00:00 | 00:00:00 | 00:00:00 | |
| DB0ND-19 | 2026-09-05 18:00:52 | 49.22787 | 8.58579 | 111° | 35km/h | 20498m | 5.4m/s | -55.3°C | 1.2% | 54.3hPa | 2.7V | 00:00:00 | 00:00:00 | 00:00:00 | |
| DL1ZP-14 | 2026-09-05 18:00:51 | 49.22790 | 8.58566 | 114° | 37km/h | 20493m | 5.0m/s | -55.5°C | 1.3% | 54.4hPa | 2.7V | 00:00:00 | 00:00:00 | 00:00:00 | |
| AU51GT2 | 2026-09-05 18:00:49 | 49.22797 | 8.58540 | 111° | 35km/h | 20484m | 4.8m/s | -55.7°C | 1.3% | 54.4hPa | 2.7V | 00:00:00 | 00:00:00 | 00:00:00 | |
| DM0DOS-11 | 2026-09-05 18:00:47 | 49.22823 | 8.58434 | 105° | 47km/h | 20452m | 5.7m/s | -55.7°C | 4.5% | 54.7hPa | 2.7V | 03:48:35 | 01:31:07 | 00:00:00 | |
| DK7TD | 2026-09-05 18:00:47 | 49.22803 | 8.58514 | 109° | 38km/h | 20475m | 3.8m/s | -55.7°C | 0.9% | 54.5hPa | 2.7V | 03:48:45 | 01:31:12 | 00:00:00 | |
| BIOWL1-15 | 2026-09-05 18:00:47 | 49.22811 | 8.58485 | 112° | 44km/h | 20465m | 5.4m/s | -55.7°C | 0.9% | 54.6hPa | 2.6V | 03:48:45 | 01:31:10 | 00:00:00 | |
| DF7PN | 2026-09-05 18:00:46 | 49.22807 | 8.58500 | 110° | 40km/h | 20471m | 4.7m/s | -55.8°C | 1.3% | 54.6hPa | 2.6V | 00:00:00 | 00:00:00 | 00:00:00 | |
| DL1XH-west | 2026-09-05 18:00:43 | 49.22819 | 8.58451 | 109° | 47km/h | 20457m | 4.1m/s | 0°C | 0% | 0hPa | 2.6V | 18:12:15 | 01:31:08 | 00:00:00 | |
| DJ2DS-15 | 2026-09-05 18:00:41 | 49.22826 | 8.58416 | 103° | 46km/h | 20447m | 5.0m/s | -55.6°C | 4.4% | 54.7hPa | 2.7V | 03:48:00 | 01:31:06 | 00:00:00 | |
| DH7VM-15 | 2026-09-05 18:00:40 | 49.22825 | 8.58416 | 103° | 47km/h | 20447m | 5.1m/s | -55.6°C | 1.2% | 54.8hPa | 2.6V | 00:00:00 | 00:00:00 | 00:00:00 | |
| DF3TZ-5 | 2026-09-05 18:00:39 | 49.22831 | 8.58379 | 101° | 47km/h | 20437m | 5.6m/s | -55.6°C | 1.2% | 54.9hPa | 2.6V | 00:00:00 | 00:00:00 | 00:00:00 | |
| DG9SBQ-11 | 2026-09-05 18:00:38 | 49.22830 | 8.58379 | 102° | 47km/h | 20437m | 5.6m/s | -55.6°C | 1.2% | 54.8hPa | 2.6V | 03:48:00 | 00:00:00 | 00:00:00 | |
| DM0DOS-11 | 2026-09-05 18:00:37 | 49.22840 | 8.58263 | 97° | 38km/h | 20405m | 5.1m/s | -55.5°C | 4.5% | 55.1hPa | 2.6V | 03:48:45 | 01:30:57 | 00:00:00 | |
| DK7TD | 2026-09-05 18:00:36 | 49.22837 | 8.58326 | 97° | 46km/h | 20423m | 5m/s | -55.5°C | 0.8% | 55hPa | 2.6V | 03:48:45 | 01:31:01 | 00:00:00 | |
| BIOWL1-15 | 2026-09-05 18:00:34 | 49.22838 | 8.58293 | 91° | 40km/h | 20413m | 3.7m/s | -55.5°C | 0.8% | 55.1hPa | 2.7V | 03:48:45 | 01:30:59 | 00:00:00 | |
| HARRO8 | 2026-09-05 18:00:33 | 49.22839 | 8.58278 | 93° | 38km/h | 20409m | 4.5m/s | -55.5°C | 1.2% | 55.1hPa | 2.6V | 00:00:00 | 00:00:00 | 00:00:00 | |
| BIOWL9-15 | 2026-09-05 18:00:31 | 49.22841 | 8.58248 | 100° | 38km/h | 20400m | 4.6m/s | -55.6°C | 1.3% | 55.2hPa | 2.6V | 00:00:00 | 00:00:00 | 00:00:00 | |
| DC4HF-4 | 2026-09-05 18:00:30 | 49.22843 | 8.58233 | 100° | 40km/h | 20396m | 4.0m/s | -55.6°C | 1.3% | 55.2hPa | 2.6V | 00:00:00 | 00:00:00 | 00:00:00 | |
| DF1GD-15 | 2026-09-05 18:00:29 | 49.22843 | 8.58233 | 102° | 40km/h | 20396m | 4.0m/s | -55.6°C | 1.3% | 55.2hPa | 2.6V | 03:49:00 | 00:00:00 | 00:00:00 | |
| DO3DL | 2026-09-05 18:00:28 | 49.22845 | 8.58217 | 99° | 42km/h | 20391m | 5.4m/s | -55.7°C | 0% | 55.3hPa | 2.6V | 00:00:00 | 00:00:00 | 00:00:00 | |
| DM0DOS-11 | 2026-09-05 18:00:27 | 49.22852 | 8.58089 | 88° | 47km/h | 20358m | 5.4m/s | -55.7°C | 4.5% | 55.5hPa | 2.6V | 03:48:55 | 01:30:47 | 00:00:00 | |
| DK7TD | 2026-09-05 18:00:26 | 49.22848 | 8.58164 | 96° | 49km/h | 20376m | 5.3m/s | -55.7°C | 0.9% | 55.4hPa | 2.6V | 03:49:36 | 01:30:51 | 00:00:00 | |
| BIOWL1-15 | 2026-09-05 18:00:23 | 49.22852 | 8.58108 | 93° | 49km/h | 20363m | 4.3m/s | -55.7°C | 0.9% | 55.5hPa | 2.7V | 03:49:36 | 01:30:48 | 00:00:00 | |
| DD1CC8 | 2026-09-05 18:00:22 | 49.22852 | 8.58072 | 84° | 44km/h | 20353m | 4.4m/s | -55.7°C | 1.3% | 55.6hPa | 2.6V | 00:00:00 | 00:00:00 | 00:00:00 | |
| DJ2DS-15 | 2026-09-05 18:00:21 | 49.22852 | 8.58071 | 85° | 38km/h | 20353m | 4.3m/s | -55.7°C | 4.5% | 55.5hPa | 2.6V | 00:00:00 | 01:30:46 | 00:00:00 | |
| DO8TBO-1 | 2026-09-05 18:00:20 | 49.22851 | 8.58055 | 85° | 31km/h | 20349m | 4.2m/s | -55.7°C | 4.4% | 55.6hPa | 2.6V | 00:00:00 | 01:30:45 | 00:00:00 | |
| BIOWL7-15 | 2026-09-05 18:00:19 | 49.22851 | 8.58055 | 85° | 42km/h | 20349m | 4.3m/s | -55.8°C | 1.3% | 55.6hPa | 2.6V | 00:00:00 | 00:00:00 | 00:00:00 | |
| AU51GT2 | 2026-09-05 18:00:18 | 49.22850 | 8.58025 | 90° | 35km/h | 20339m | 4.6m/s | -55.8°C | 1.3% | 55.7hPa | 2.6V | 00:00:00 | 00:00:00 | 00:00:00 | |
| DM0DOS-11 | 2026-09-05 18:00:17 | 49.22851 | 8.57945 | 94° | 35km/h | 20310m | 5.3m/s | -55.8°C | 4.4% | 55.9hPa | 2.6V | 03:49:05 | 01:30:37 | 00:00:00 | |
| DK7TD | 2026-09-05 18:00:15 | 49.22850 | 8.57985 | 90° | 35km/h | 20325m | 5.6m/s | -55.8°C | 0.8% | 55.8hPa | 2.7V | 03:49:36 | 01:30:40 | 00:00:00 | |
| BIOWL1-15 | 2026-09-05 18:00:14 | 49.22851 | 8.57945 | 95° | 35km/h | 20310m | 5.3m/s | -55.8°C | 0.9% | 55.9hPa | 2.6V | 03:49:36 | 01:30:37 | 00:00:00 | |
| DM7RM-13 | 2026-09-05 18:00:13 | 49.22850 | 8.57972 | 90° | 35km/h | 20320m | 4.4m/s | -55.8°C | 1.3% | 55.9hPa | 2.7V | 03:49:00 | 00:00:00 | 00:00:00 | |
| DG9SBQ-11 | 2026-09-05 18:00:12 | 49.22851 | 8.57945 | 96° | 35km/h | 20311m | 5.3m/s | -55.8°C | 1.3% | 55.9hPa | 2.7V | 03:49:00 | 00:00:00 | 00:00:00 | |
| DB0UT-9 | 2026-09-05 18:00:11 | 49.22851 | 8.57945 | 96° | 35km/h | 20311m | 5.3m/s | -55.8°C | 1.3% | 55.9hPa | 2.7V | 03:49:00 | 00:00:00 | 00:00:00 | |
| DF1GD-15 | 2026-09-05 18:00:09 | 49.22852 | 8.57918 | 91° | 37km/h | 20302m | 4.1m/s | -55.8°C | 1.3% | 56.0hPa | 2.7V | 03:49:00 | 00:00:00 | 00:00:00 | |
| DO3DL | 2026-09-05 18:00:07 | 49.22850 | 8.57888 | 80° | 40km/h | 20292m | 4.2m/s | -55.8°C | 0% | 56.1hPa | 2.7V | 00:00:00 | 00:00:00 | 00:00:00 | |
| DM0DOS-11 | 2026-09-05 18:00:06 | 49.22837 | 8.57784 | 78° | 35km/h | 20259m | 4.4m/s | -56.5°C | 4.7% | 56.4hPa | 2.7V | 03:49:16 | 01:30:26 | 00:00:00 | |
| BIOWL1-15 | 2026-09-05 18:00:06 | 49.22838 | 8.57798 | 79° | 37km/h | 20265m | 5.6m/s | -56.5°C | 0.9% | 56.3hPa | 2.7V | 03:49:36 | 01:30:27 | 00:00:00 | |
| DK7TD | 2026-09-05 18:00:04 | 49.22842 | 8.57827 | 81° | 40km/h | 20274m | 4.6m/s | -56.3°C | 0.9% | 56.3hPa | 2.6V | 03:49:36 | 01:30:29 | 00:00:00 | |
| CB1BUN | 2026-09-05 18:00:03 | 49.22842 | 8.57827 | 82° | 40km/h | 20274m | 4.6m/s | -56.3°C | 1.3% | 56.3hPa | 2.6V | 03:49:00 | 00:00:00 | 00:00:00 | |
| HARRO8 | 2026-09-05 18:00:02 | 49.22837 | 8.57784 | 78° | 35km/h | 20260m | 4.4m/s | -56.5°C | 0% | 56.4hPa | 2.6V | 00:00:00 | 00:00:00 | 00:00:00 | |
| BIOWL9-15 | 2026-09-05 18:00:00 | 49.22835 | 8.57771 | 81° | 33km/h | 20255m | 4.2m/s | -56.6°C | 1.4% | 56.4hPa | 2.6V | 00:00:00 | 00:00:00 | 00:00:00 | |
| DO3DL | 2026-09-05 17:59:59 | 49.22835 | 8.57771 | 83° | 33km/h | 20255m | 4.2m/s | -56.6°C | 0% | 56.4hPa | 2.6V | 00:00:00 | 00:00:00 | 00:00:00 | |
| AZAK | 2026-09-05 17:59:57 | 49.22835 | 8.57735 | 93° | 29km/h | 20241m | 4.5m/s | -56.6°C | 1.3% | 56.6hPa | 2.6V | 00:00:00 | 00:00:00 | 00:00:00 | |
| DM0DOS-11 | 2026-09-05 17:59:56 | 49.22829 | 8.57665 | 81° | 33km/h | 20211m | 4.5m/s | -56.5°C | 4.8% | 56.8hPa | 2.6V | 03:49:26 | 01:30:16 | 00:00:00 | |
| DK7TD | 2026-09-05 17:59:54 | 49.22833 | 8.57701 | 79° | 29km/h | 20226m | 4.3m/s | -56.6°C | 1% | 56.7hPa | 2.7V | 03:49:36 | 01:30:19 | 00:00:00 | |
| BIOWL1-15 | 2026-09-05 17:59:52 | 49.22830 | 8.57678 | 81° | 33km/h | 20216m | 5.4m/s | -56.6°C | 1.1% | 56.8hPa | 2.6V | 03:49:36 | 01:30:17 | 00:00:00 | |
| DK5PH-5 | 2026-09-05 17:59:51 | 49.22829 | 8.57665 | 82° | 27km/h | 20212m | 4.5m/s | -56.5°C | 4.8% | 56.8hPa | 2.6V | 00:00:00 | 01:30:16 | 00:00:00 | |
| DB0UT-9 | 2026-09-05 17:59:50 | 49.22829 | 8.57665 | 82° | 33km/h | 20212m | 4.5m/s | -56.5°C | 1.4% | 56.8hPa | 2.6V | 03:49:00 | 00:00:00 | 00:00:00 | |
| NBG1-10 | 2026-09-05 17:59:49 | 49.22825 | 8.57640 | 76° | 27km/h | 20203m | 5.3m/s | -56.4°C | 4.7% | 56.9hPa | 2.6V | 00:00:00 | 01:30:14 | 00:00:00 | |
| DF1GD-15 | 2026-09-05 17:59:48 | 49.22825 | 8.57640 | 77° | 33km/h | 20203m | 5.4m/s | -56.5°C | 1.4% | 56.9hPa | 2.6V | 03:49:00 | 00:00:00 | 00:00:00 | |
| DB0UT-7 | 2026-09-05 17:59:47 | 49.22821 | 8.57616 | 77° | 26km/h | 20193m | 4.2m/s | -56.4°C | 4.6% | 57.0hPa | 2.6V | 03:49:00 | 01:30:12 | 00:00:00 | |
| DM0DOS-11 | 2026-09-05 17:59:46 | 49.22822 | 8.57557 | 84° | 24km/h | 20164m | 5m/s | -56.5°C | 4.7% | 57.3hPa | 2.6V | 03:49:36 | 01:30:06 | 00:00:00 | |
| DK7TD | 2026-09-05 17:59:46 | 49.22821 | 8.57584 | 99° | 26km/h | 20178m | 4.1m/s | -56.4°C | 0.9% | 57.1hPa | 2.7V | 03:49:36 | 01:30:09 | 00:00:00 | |
| BIOWL1-15 | 2026-09-05 17:59:42 | 49.22822 | 8.57566 | 94° | 24km/h | 20169m | 5.3m/s | -56.5°C | 1% | 57.2hPa | 2.6V | 03:49:36 | 01:30:07 | 00:00:00 | |
| DJ2DS-15 | 2026-09-05 17:59:41 | 49.22822 | 8.57557 | 85° | 27km/h | 20164m | 5.0m/s | -56.5°C | 4.7% | 57.2hPa | 2.6V | 00:00:00 | 01:30:06 | 00:00:00 | |
| SONDE2-11 | 2026-09-05 17:59:38 | 49.22817 | 8.57513 | 83° | 33km/h | 20145m | 4.8m/s | -56.6°C | 1.4% | 57.4hPa | 2.7V | 00:00:00 | 00:00:00 | 00:00:00 | |
| DF3TZ-5 | 2026-09-05 17:59:37 | 49.22817 | 8.57513 | 83° | 33km/h | 20145m | 4.8m/s | -56.6°C | 1.4% | 57.4hPa | 2.7V | 00:00:00 | 00:00:00 | 00:00:00 | |
| DM0DOS-11 | 2026-09-05 17:59:36 | 49.22813 | 8.57446 | 97° | 26km/h | 20116m | 6m/s | -56.4°C | 4.6% | 57.7hPa | 2.7V | 03:49:46 | 01:29:56 | 00:00:00 | |
| DK7TD | 2026-09-05 17:59:33 | 49.22813 | 8.57466 | 83° | 26km/h | 20125m | 4m/s | -56.5°C | 1% | 57.6hPa | 2.6V | 03:50:27 | 01:29:58 | 00:00:00 | |
| BIOWL1-15 | 2026-09-05 17:59:31 | 49.22813 | 8.57446 | 97° | 26km/h | 20116m | 6m/s | -56.4°C | 1% | 57.7hPa | 2.7V | 03:50:27 | 01:29:56 | 00:00:00 | |
| DB0NH | 2026-09-05 17:59:31 | 49.22813 | 8.57446 | 98° | 24km/h | 20116m | 5.9m/s | -56.3°C | 4.6% | 57.6hPa | 2.7V | 03:49:00 | 01:29:56 | 00:00:00 | |
| DB0UT-9 | 2026-09-05 17:59:30 | 49.22813 | 8.57446 | 98° | 26km/h | 20116m | 6.0m/s | -56.4°C | 1.4% | 57.7hPa | 2.6V | 03:50:00 | 00:00:00 | 00:00:00 | |
| DG9SBQ-11 | 2026-09-05 17:59:29 | 49.22816 | 8.57427 | 108° | 26km/h | 20107m | 4.0m/s | -56.3°C | 1.3% | 57.8hPa | 2.6V | 03:50:00 | 00:00:00 | 00:00:00 | |
| DF1GD-15 | 2026-09-05 17:59:28 | 49.22816 | 8.57427 | 108° | 26km/h | 20107m | 4.0m/s | -56.3°C | 1.4% | 57.8hPa | 2.6V | 03:50:00 | 00:00:00 | 00:00:00 | |
| DM0DOS-11 | 2026-09-05 17:59:26 | 49.22823 | 8.57350 | 91° | 24km/h | 20069m | 5.8m/s | -56.2°C | 4.4% | 58.1hPa | 2.6V | 03:49:56 | 01:29:46 | 00:00:00 | |
| DK7TD | 2026-09-05 17:59:23 | 49.22822 | 8.57371 | 96° | 27km/h | 20078m | 4m/s | -56.2°C | 0.8% | 58hPa | 2.6V | 03:50:27 | 01:29:48 | 00:00:00 | |
| BIOWL1-15 | 2026-09-05 17:59:22 | 49.22823 | 8.57342 | 89° | 22km/h | 20064m | 4.1m/s | -56.3°C | 0.8% | 58.1hPa | 2.7V | 03:50:27 | 01:29:45 | 00:00:00 | |
| DK5PH-5 | 2026-09-05 17:59:21 | 49.22823 | 8.57350 | 92° | 20km/h | 20069m | 5.7m/s | -56.2°C | 4.4% | 58.1hPa | 2.6V | 03:49:00 | 01:29:46 | 00:00:00 | |
| DD1CC8 | 2026-09-05 17:59:20 | 49.22823 | 8.57333 | 91° | 20km/h | 20060m | 3.6m/s | -56.4°C | 1.3% | 58.2hPa | 2.6V | 00:00:00 | 00:00:00 | 00:00:00 | |
| DB0ND-19 | 2026-09-05 17:59:19 | 49.22823 | 8.57333 | 91° | 20km/h | 20060m | 3.6m/s | -56.4°C | 1.3% | 58.2hPa | 2.6V | 00:00:00 | 00:00:00 | 00:00:00 | |
| DL1ZP-14 | 2026-09-05 17:59:18 | 49.22825 | 8.57316 | 100° | 24km/h | 20050m | 5.3m/s | -56.4°C | 1.3% | 58.3hPa | 2.6V | 00:00:00 | 00:00:00 | 00:00:00 | |
| DL6DJ-15 | 2026-09-05 17:59:17 | 49.22826 | 8.57306 | 105° | 24km/h | 20045m | 4.1m/s | -56.4°C | 1.3% | 58.4hPa | 2.7V | 00:00:00 | 00:00:00 | 00:00:00 | |
| DM0DOS-11 | 2026-09-05 17:59:16 | 49.22836 | 8.57271 | 111° | 18km/h | 20022m | 4.1m/s | -57°C | 4.6% | 58.5hPa | 2.7V | 03:50:06 | 01:29:36 | 00:00:00 | |
| DK7TD | 2026-09-05 17:59:13 | 49.22832 | 8.57283 | 116° | 18km/h | 20031m | 5.4m/s | -56.9°C | 1% | 58.5hPa | 2.7V | 03:50:27 | 01:29:38 | 00:00:00 | |
| BIOWL1-15 | 2026-09-05 17:59:10 | 49.22837 | 8.57264 | 110° | 20km/h | 20018m | 5.1m/s | -57°C | 1% | 58.6hPa | 2.6V | 03:50:27 | 01:29:35 | 00:00:00 | |
| DK7TD | 2026-09-05 17:59:02 | 49.22848 | 8.57207 | 117° | 15km/h | 19978m | 4.9m/s | -57.8°C | 1.1% | 59hPa | 2.7V | 03:50:27 | 01:29:27 | 00:00:00 | |
| DJ2DS-15 | 2026-09-05 17:59:01 | 49.22849 | 8.57203 | 122° | 20km/h | 19973m | 4.8m/s | -57.9°C | 5.0% | 59.0hPa | 2.6V | 00:00:00 | 01:29:26 | 00:00:00 | |
| DM0DOS-11 | 2026-09-05 17:59:00 | 49.22860 | 8.57171 | 102° | 24km/h | 19944m | 4.5m/s | -58°C | 5.1% | 59.3hPa | 2.6V | 03:50:22 | 01:29:20 | 00:00:00 | |
| BIOWL1-15 | 2026-09-05 17:58:59 | 49.22853 | 8.57196 | 122° | 11km/h | 19963m | 4m/s | -58°C | 1.1% | 59.1hPa | 2.6V | 03:50:27 | 01:29:24 | 00:00:00 | |
| DK7TD | 2026-09-05 17:58:51 | 49.22856 | 8.57133 | 66° | 26km/h | 19923m | 4.4m/s | -57.8°C | 1.1% | 59.5hPa | 2.6V | 03:50:27 | 01:29:16 | 00:00:00 | |
| BIOWL1-15 | 2026-09-05 17:58:50 | 49.22849 | 8.57105 | 73° | 26km/h | 19908m | 4.5m/s | -57.6°C | 1.1% | 59.6hPa | 2.7V | 03:51:18 | 01:29:13 | 00:00:00 | |
| DD1CC8 | 2026-09-05 17:58:49 | 49.22849 | 8.57105 | 72° | 24km/h | 19908m | 4.5m/s | -57.6°C | 1.4% | 59.6hPa | 2.7V | 00:00:00 | 00:00:00 | 00:00:00 | |
| DB0ND-19 | 2026-09-05 17:58:48 | 49.22849 | 8.57105 | 72° | 24km/h | 19908m | 4.5m/s | -57.6°C | 1.4% | 59.6hPa | 2.7V | 00:00:00 | 00:00:00 | 00:00:00 | |
| AU51GT2 | 2026-09-05 17:58:45 | 49.22844 | 8.57081 | 73° | 16km/h | 19892m | 4.8m/s | -57.5°C | 1.5% | 59.8hPa | 2.7V | 00:00:00 | 00:00:00 | 00:00:00 | |
| DK7TD | 2026-09-05 17:58:41 | 49.22845 | 8.57054 | 103° | 18km/h | 19872m | 3.8m/s | -57.3°C | 1.1% | 60hPa | 2.7V | 03:51:18 | 01:29:06 | 00:00:00 | |
| BIOWL1-15 | 2026-09-05 17:58:38 | 49.22846 | 8.57034 | 81° | 15km/h | 19857m | 4.9m/s | -57.2°C | 1.1% | 60.1hPa | 2.6V | 03:51:18 | 01:29:03 | 00:00:00 | |
| DK7TD | 2026-09-05 17:58:30 | 49.22840 | 8.56989 | 85° | 16km/h | 19816m | 5.7m/s | -57°C | 1% | 60.5hPa | 2.6V | 03:51:18 | 01:28:55 | 00:00:00 | |
| DM0DOS-11 | 2026-09-05 17:58:29 | 49.22842 | 8.56946 | 87° | 16km/h | 19785m | 5m/s | -56.9°C | 4.7% | 60.8hPa | 2.6V | 03:50:53 | 01:28:49 | 00:00:00 | |
| BIOWL1-15 | 2026-09-05 17:58:28 | 49.22841 | 8.56974 | 98° | 20km/h | 19805m | 4.3m/s | -56.9°C | 1% | 60.6hPa | 2.7V | 03:51:18 | 01:28:53 | 00:00:00 | |
| DK7TD | 2026-09-05 17:58:20 | 49.22841 | 8.56919 | 84° | 15km/h | 19764m | 5.6m/s | -56.9°C | 1% | 61hPa | 2.6V | 03:51:18 | 01:28:45 | 00:00:00 | |
| BIOWL1-15 | 2026-09-05 17:58:18 | 49.22840 | 8.56910 | 91° | 9km/h | 19753m | 4.1m/s | -56.8°C | 1% | 61.1hPa | 2.6V | 03:51:18 | 01:28:43 | 00:00:00 | |
| DK7TD | 2026-09-05 17:58:10 | 49.22851 | 8.56860 | 106° | 20km/h | 19711m | 5.1m/s | -56.6°C | 0.9% | 61.5hPa | 2.6V | 03:51:18 | 01:28:35 | 00:00:00 | |
| BIOWL1-15 | 2026-09-05 17:58:10 | 49.22854 | 8.56844 | 107° | 22km/h | 19700m | 5.3m/s | -56.6°C | 0.9% | 61.6hPa | 2.7V | 03:51:18 | 01:28:33 | 00:00:00 | |
| BIOWL1-15 | 2026-09-05 17:58:01 | 49.22875 | 8.56778 | 125° | 24km/h | 19641m | 5.6m/s | -56.4°C | 0.9% | 62.2hPa | 2.6V | 03:52:09 | 01:28:22 | 00:00:00 | |
| DK7TD | 2026-09-05 17:57:59 | 49.22869 | 8.56791 | 126° | 18km/h | 19651m | 5.4m/s | -56.5°C | 0.9% | 62.1hPa | 2.7V | 03:51:18 | 01:28:24 | 00:00:00 | |
| BIOWL1-15 | 2026-09-05 17:57:51 | 49.22893 | 8.56702 | 103° | 20km/h | 19585m | 6.1m/s | -56.6°C | 1% | 62.7hPa | 2.7V | 03:52:09 | 01:28:12 | 00:00:00 | |
| DK7TD | 2026-09-05 17:57:49 | 49.22891 | 8.56717 | 100° | 20km/h | 19597m | 5.7m/s | -56.4°C | 0.9% | 62.6hPa | 2.7V | 03:52:09 | 01:28:14 | 00:00:00 | |
| NBG1-10 | 2026-09-05 17:57:48 | 49.22892 | 8.56710 | 101° | 20km/h | 19591m | 5.5m/s | -56.5°C | 4.7% | 62.6hPa | 2.6V | 03:51:00 | 01:28:13 | 00:00:00 | |
| DB0UT-7 | 2026-09-05 17:57:47 | 49.22893 | 8.56702 | 103° | 22km/h | 19586m | 6.1m/s | -56.6°C | 4.8% | 62.7hPa | 2.6V | 03:51:00 | 01:28:12 | 00:00:00 | |
| DO3MHA-11 | 2026-09-05 17:57:46 | 49.22895 | 8.56695 | 104° | 26km/h | 19580m | 5.4m/s | -56.6°C | 4.8% | 62.8hPa | 2.6V | 00:00:00 | 01:28:11 | 00:00:00 | |
| DL1ZP-14 | 2026-09-05 17:57:45 | 49.22898 | 8.56679 | 115° | 24km/h | 19568m | 6.1m/s | -56.6°C | 1.4% | 62.9hPa | 2.6V | 00:00:00 | 00:00:00 | 00:00:00 | |
| DM0DOS-11 | 2026-09-05 17:57:43 | 49.22922 | 8.56628 | 122° | 26km/h | 19535m | 5.6m/s | -56.4°C | 4.7% | 63.2hPa | 2.7V | 03:51:39 | 01:28:03 | 00:00:00 | |
| DK7TD | 2026-09-05 17:57:39 | 49.22918 | 8.56636 | 127° | 26km/h | 19540m | 4.8m/s | -56.4°C | 1% | 63.2hPa | 2.6V | 03:52:09 | 01:28:04 | 00:00:00 | |
| BIOWL1-15 | 2026-09-05 17:57:39 | 49.22925 | 8.56620 | 116° | 26km/h | 19529m | 6m/s | -56.3°C | 1% | 63.3hPa | 2.7V | 03:52:09 | 01:28:02 | 00:00:00 | |
| CB1BUN | 2026-09-05 17:57:39 | 49.22918 | 8.56636 | 128° | 26km/h | 19541m | 4.8m/s | -56.4°C | 1.4% | 63.2hPa | 2.6V | 03:52:00 | 00:00:00 | 00:00:00 | |
| KANTATE | 2026-09-05 17:57:38 | 49.22918 | 8.56636 | 128° | 26km/h | 19541m | 4.8m/s | -56.4°C | 1.4% | 63.2hPa | 2.6V | 03:52:00 | 00:00:00 | 00:00:00 | |
| DO3MHA-11 | 2026-09-05 17:57:36 | 49.22927 | 8.56610 | 111° | 22km/h | 19524m | 4.8m/s | -56.3°C | 4.8% | 63.3hPa | 2.6V | 00:00:00 | 01:28:01 | 00:00:00 | |
| DG9SBQ-11 | 2026-09-05 17:57:35 | 49.22927 | 8.56610 | 112° | 26km/h | 19524m | 4.8m/s | -56.3°C | 1.4% | 63.3hPa | 2.6V | 03:52:00 | 00:00:00 | 00:00:00 | |
| SONDE2-11 | 2026-09-05 17:57:34 | 49.22933 | 8.56586 | 110° | 18km/h | 19508m | 5.0m/s | -56.2°C | -1.0% | -1.0hPa | 2.6V | 00:00:00 | 00:00:00 | 00:00:00 | |
| BIOWL7-15 | 2026-09-05 17:57:32 | 49.22932 | 8.56586 | 111° | 18km/h | 19508m | 5.0m/s | -56.2°C | 1.3% | 63.5hPa | 2.6V | 03:52:00 | 00:00:00 | 00:00:00 | |
| DM0DOS-11 | 2026-09-05 17:57:31 | 49.22953 | 8.56538 | 141° | 18km/h | 19470m | 6.2m/s | -55.9°C | 4.6% | 63.9hPa | 2.6V | 03:51:51 | 01:27:51 | 00:00:00 | |
| DK7TD | 2026-09-05 17:57:28 | 49.22946 | 8.56550 | 128° | 24km/h | 19482m | 4.9m/s | -56°C | 0.9% | 63.8hPa | 2.7V | 03:52:09 | 01:27:53 | 00:00:00 | |
| BIOWL1-15 | 2026-09-05 17:57:26 | 49.22953 | 8.56538 | 142° | 18km/h | 19470m | 6.2m/s | -55.9°C | 0.9% | 63.9hPa | 2.6V | 03:52:09 | 01:27:51 | 00:00:00 | |
| DB0UT-9 | 2026-09-05 17:57:26 | 49.22953 | 8.56538 | 143° | 18km/h | 19470m | 6.2m/s | -55.9°C | 1.4% | 63.9hPa | 2.6V | 03:52:00 | 00:00:00 | 00:00:00 | |
| DG9SBQ-11 | 2026-09-05 17:57:25 | 49.22957 | 8.56534 | 148° | 18km/h | 19464m | 5.6m/s | -55.8°C | 1.3% | 63.9hPa | 2.6V | 03:52:00 | 00:00:00 | 00:00:00 | |
| DK5PH-5 | 2026-09-05 17:57:21 | 49.22972 | 8.56515 | 129° | 15km/h | 19442m | 4.5m/s | -55.6°C | 4.6% | 64.1hPa | 2.6V | 03:51:00 | 01:27:46 | 00:00:00 | |
| DJ2DS-15 | 2026-09-05 17:57:20 | 49.22974 | 8.56509 | 126° | 16km/h | 19437m | 6.1m/s | -55.5°C | 4.6% | 64.2hPa | 2.6V | 00:00:00 | 01:27:45 | 00:00:00 | |
| DM0DOS-11 | 2026-09-05 17:57:19 | 49.22986 | 8.56475 | 114° | 18km/h | 19406m | 4.6m/s | -55.4°C | 4.5% | 64.5hPa | 2.6V | 03:52:03 | 01:27:39 | 00:00:00 | |
| DK7TD | 2026-09-05 17:57:17 | 49.22980 | 8.56495 | 115° | 16km/h | 19422m | 5.3m/s | -55.5°C | 0.8% | 64.3hPa | 2.6V | 03:52:09 | 01:27:42 | 00:00:00 | |
| BIOWL1-15 | 2026-09-05 17:57:15 | 49.22984 | 8.56482 | 113° | 20km/h | 19411m | 4.9m/s | -55.4°C | 0.9% | 64.5hPa | 2.7V | 03:52:09 | 01:27:40 | 00:00:00 | |
| DK7TD | 2026-09-05 17:57:07 | 49.23005 | 8.56447 | 157° | 13km/h | 19369m | 6m/s | -55.1°C | 0.8% | 64.9hPa | 2.6V | 03:53:51 | 01:27:32 | 00:00:00 | |
| BIOWL1-15 | 2026-09-05 17:57:07 | 49.23010 | 8.56443 | 145° | 13km/h | 19360m | 4.4m/s | -55°C | 0.8% | 65hPa | 2.7V | 03:53:00 | 01:27:30 | 00:00:00 | |
| DO3MHA-11 | 2026-09-05 17:57:06 | 49.23007 | 8.56445 | 155° | 15km/h | 19364m | 4.5m/s | -55.0°C | 4.4% | 64.9hPa | 2.7V | 00:00:00 | 01:27:31 | 00:00:00 | |
| AZAK | 2026-09-05 17:57:05 | 49.23008 | 8.56445 | 156° | 11km/h | 19364m | 4.6m/s | -55.0°C | 1.2% | 65.0hPa | 2.6V | 03:53:00 | 00:00:00 | 00:00:00 | |
| DB0UT-9 | 2026-09-05 17:57:04 | 49.23010 | 8.56442 | 146° | 13km/h | 19360m | 4.4m/s | -55.0°C | 1.3% | 65.0hPa | 2.6V | 03:53:00 | 00:00:00 | 00:00:00 | |
| DF1GD-15 | 2026-09-05 17:57:03 | 49.23012 | 8.56439 | 136° | 15km/h | 19355m | 6.0m/s | -55.0°C | 1.3% | 65.1hPa | 2.6V | 03:53:00 | 00:00:00 | 00:00:00 | |
| DF3TZ-5 | 2026-09-05 17:57:02 | 49.23019 | 8.56423 | 112° | 15km/h | 19340m | 5.0m/s | -54.8°C | 1.3% | 65.2hPa | 2.6V | 00:00:00 | 00:00:00 | 00:00:00 | |
| DO8TBO-1 | 2026-09-05 17:57:01 | 49.23019 | 8.56423 | 113° | 18km/h | 19340m | 4.9m/s | 0°C | 0% | 0hPa | 2.6V | 03:52:00 | 01:27:26 | 00:00:00 | |
| DM0DOS-11 | 2026-09-05 17:57:00 | 49.23032 | 8.56399 | 154° | 16km/h | 19310m | 4.4m/s | -54.6°C | 4.4% | 65.5hPa | 2.6V | 03:52:22 | 01:27:20 | 00:00:00 | |
| BIOWL1-15 | 2026-09-05 17:56:59 | 49.23032 | 8.56399 | 154° | 16km/h | 19311m | 4.4m/s | -54.6°C | 0.8% | 65.5hPa | 2.6V | 03:53:00 | 01:27:20 | 00:00:00 | |
| DK7TD | 2026-09-05 17:56:56 | 49.23028 | 8.56402 | 143° | 15km/h | 19315m | 5.2m/s | -54.6°C | 0.8% | 65.5hPa | 2.6V | 03:53:51 | 01:27:21 | 00:00:00 | |
| HARRO8 | 2026-09-05 17:56:55 | 49.23032 | 8.56399 | 154° | 15km/h | 19311m | 4.4m/s | -54.6°C | 1.3% | 65.5hPa | 2.6V | 00:00:00 | 00:00:00 | 00:00:00 | |
| BIOWL9-15 | 2026-09-05 17:56:54 | 49.23039 | 8.56396 | 170° | 13km/h | 19300m | 4.9m/s | 0°C | -1.0% | -1.0hPa | 2.6V | 00:00:00 | 00:00:00 | 00:00:00 | |
| BIOWL7-15 | 2026-09-05 17:56:52 | 49.23043 | 8.56394 | 170° | 16km/h | 19295m | 4.5m/s | -54.4°C | 1.2% | 65.7hPa | 2.6V | 00:00:00 | 00:00:00 | 00:00:00 | |
| DK5PH-5 | 2026-09-05 17:56:51 | 49.23047 | 8.56393 | 164° | 16km/h | 19290m | 5.7m/s | -54.4°C | 4.3% | 65.7hPa | 2.6V | 00:00:00 | 01:27:16 | 00:00:00 | |
| DM0DOS-11 | 2026-09-05 17:56:50 | 49.23064 | 8.56368 | 111° | 15km/h | 19260m | 4.5m/s | -54.1°C | 4.2% | 66hPa | 2.6V | 03:52:32 | 01:27:10 | 00:00:00 | |
| DK7TD | 2026-09-05 17:56:45 | 49.23064 | 8.56368 | 111° | 15km/h | 19260m | 4.5m/s | -54.2°C | 0.7% | 66hPa | 2.6V | 03:53:51 | 01:27:10 | 00:00:00 | |
| BIOWL1-15 | 2026-09-05 17:56:44 | 49.23065 | 8.56362 | 113° | 16km/h | 19255m | 5.5m/s | -54.1°C | 0.7% | 66.1hPa | 2.6V | 03:53:00 | 01:27:09 | 00:00:00 | |
| BIOWL1-15 | 2026-09-05 17:56:36 | 49.23105 | 8.56343 | 182° | 16km/h | 19209m | 4.6m/s | -53.7°C | 0.7% | 66.6hPa | 2.7V | 03:53:00 | 01:26:59 | 00:00:00 | |
| DK7TD | 2026-09-05 17:56:35 | 49.23101 | 8.56343 | 183° | 20km/h | 19213m | 5m/s | -53.8°C | 0.6% | 66.5hPa | 2.7V | 03:53:51 | 01:27:00 | 00:00:00 | |
| KANTATE | 2026-09-05 17:56:34 | 49.23101 | 8.56343 | 184° | 20km/h | 19214m | 5.0m/s | -53.8°C | 1.2% | 66.5hPa | 2.7V | 03:53:00 | 00:00:00 | 00:00:00 | |
| DF3TZ-5 | 2026-09-05 17:56:31 | 49.23119 | 8.56335 | 138° | 16km/h | 19191m | 4.8m/s | -53.6°C | 1.2% | 66.7hPa | 2.7V | 00:00:00 | 00:00:00 | 00:00:00 | |
| DG9SBQ-11 | 2026-09-05 17:56:28 | 49.23122 | 8.56330 | 138° | 18km/h | 19187m | 4.1m/s | -53.5°C | 1.2% | 66.8hPa | 2.7V | 03:53:00 | 00:00:00 | 00:00:00 | |
| DM0DOS-11 | 2026-09-05 17:56:27 | 49.23146 | 8.56306 | 165° | 24km/h | 19154m | 4.4m/s | -53.3°C | 4% | 67.1hPa | 2.7V | 03:52:55 | 01:26:47 | 00:00:00 | |
| DK7TD | 2026-09-05 17:56:25 | 49.23133 | 8.56315 | 148° | 15km/h | 19169m | 3.7m/s | -53.4°C | 0.6% | 66.9hPa | 2.6V | 03:53:51 | 01:26:50 | 00:00:00 | |
| BIOWL1-15 | 2026-09-05 17:56:24 | 49.23137 | 8.56312 | 154° | 18km/h | 19164m | 5.1m/s | -53.4°C | 0.6% | 67hPa | 2.6V | 03:53:00 | 01:26:49 | 00:00:00 | |
| BIOWL1-15 | 2026-09-05 17:56:18 | 49.23184 | 8.56299 | 164° | 13km/h | 19118m | 5.6m/s | -53.1°C | 0.6% | 67.5hPa | 2.6V | 03:53:51 | 01:26:39 | 00:00:00 | |
| DM0DOS-11 | 2026-09-05 17:56:17 | 49.23190 | 8.56295 | 154° | 15km/h | 19109m | 3.8m/s | -53.1°C | 4% | 67.6hPa | 2.7V | 03:53:05 | 01:26:37 | 00:00:00 | |
| DK7TD | 2026-09-05 17:56:13 | 49.23187 | 8.56297 | 160° | 13km/h | 19113m | 4.3m/s | -53.1°C | 0.5% | 67.5hPa | 2.6V | 03:53:51 | 01:26:38 | 00:00:00 | |
| DL1ZP-14 | 2026-09-05 17:56:11 | 49.23194 | 8.56292 | 150° | 18km/h | 19104m | 5.4m/s | -53.1°C | 1.1% | 67.6hPa | 2.7V | 00:00:00 | 00:00:00 | 00:00:00 | |
| AU51GT2 | 2026-09-05 17:56:10 | 49.23204 | 8.56284 | 154° | 26km/h | 19095m | 3.6m/s | -53.0°C | 0% | 67.7hPa | 2.6V | 00:00:00 | 00:00:00 | 00:00:00 | |
| DB0NH | 2026-09-05 17:56:09 | 49.23204 | 8.56284 | 155° | 31km/h | 19095m | 3.5m/s | -53.0°C | 4.0% | 67.7hPa | 2.6V | 00:00:00 | 01:26:34 | 00:00:00 | |
| DG9SBQ-11 | 2026-09-05 17:56:07 | 49.23210 | 8.56280 | 162° | 27km/h | 19091m | 4.7m/s | -53.0°C | 1.2% | 67.8hPa | 2.6V | 03:53:00 | 00:00:00 | 00:00:00 | |
| NBG1-10 | 2026-09-05 17:56:06 | 49.23223 | 8.56275 | 174° | 29km/h | 19081m | 4.5m/s | -52.9°C | 3.9% | 67.8hPa | 2.6V | 00:00:00 | 01:26:31 | 00:00:00 | |
| DM0DOS-11 | 2026-09-05 17:56:05 | 49.23254 | 8.56264 | 162° | 18km/h | 19053m | 5.4m/s | -53°C | 3.9% | 68.2hPa | 2.6V | 03:53:17 | 01:26:25 | 00:00:00 | |
| BIOWL1-15 | 2026-09-05 17:56:03 | 49.23239 | 8.56272 | 163° | 22km/h | 19067m | 5.1m/s | -52.9°C | 0.6% | 68hPa | 2.7V | 03:53:51 | 01:26:28 | 00:00:00 | |
| DB0UT-9 | 2026-09-05 17:56:02 | 49.23240 | 8.56272 | 164° | 22km/h | 19068m | 5.1m/s | -52.9°C | 1.2% | 68.0hPa | 2.7V | 03:53:00 | 00:00:00 | 00:00:00 | |
| DF3TZ-5 | 2026-09-05 17:56:00 | 49.23258 | 8.56262 | 167° | 18km/h | 19049m | 4.2m/s | -53.0°C | 1.1% | 68.2hPa | 2.7V | 00:00:00 | 00:00:00 | 00:00:00 | |
| DG9SBQ-11 | 2026-09-05 17:55:57 | 49.23263 | 8.56260 | 167° | 22km/h | 19045m | 3.6m/s | -53.0°C | 1.1% | 68.2hPa | 2.7V | 03:53:00 | 00:00:00 | 00:00:00 | |
| DO3MHA-11 | 2026-09-05 17:55:56 | 49.23275 | 8.56254 | 160° | 29km/h | 19035m | 5.6m/s | -53.1°C | 3.9% | 68.3hPa | 2.7V | 03:53:00 | 01:26:21 | 00:00:00 | |
| DM0DOS-11 | 2026-09-05 17:55:54 | 49.23329 | 8.56235 | 167° | 27km/h | 19001m | 3.8m/s | -53.2°C | 4% | 68.7hPa | 2.7V | 03:53:28 | 01:26:14 | 00:00:00 | |
| DK7TD | 2026-09-05 17:55:53 | 49.23298 | 8.56244 | 170° | 33km/h | 19019m | 5m/s | -53.3°C | 0.6% | 68.5hPa | 2.7V | 03:53:51 | 01:26:18 | 00:00:00 | |
| BIOWL1-15 | 2026-09-05 17:55:52 | 49.23306 | 8.56242 | 172° | 33km/h | 19015m | 3.9m/s | -53.3°C | 0.5% | 68.6hPa | 2.6V | 03:53:51 | 01:26:17 | 00:00:00 | |
| DK5PH-5 | 2026-09-05 17:55:51 | 49.23314 | 8.56240 | 170° | 33km/h | 19010m | 4.6m/s | -53.2°C | 4.0% | 68.6hPa | 2.6V | 00:00:00 | 01:26:16 | 00:00:00 | |
| KANTATE | 2026-09-05 17:55:50 | 49.23314 | 8.56240 | 171° | 31km/h | 19010m | 4.6m/s | -53.3°C | 1.2% | 68.6hPa | 2.6V | 00:00:00 | 00:00:00 | 00:00:00 | |
| DB0UT-7 | 2026-09-05 17:55:47 | 49.23342 | 8.56231 | 175° | 33km/h | 18992m | 4.8m/s | -53.2°C | 4.0% | 68.8hPa | 2.6V | 03:53:00 | 01:26:12 | 00:00:00 | |
| DO3MHA-11 | 2026-09-05 17:55:46 | 49.23348 | 8.56230 | 172° | 35km/h | 18988m | 3.5m/s | -53.2°C | 4.0% | 68.8hPa | 2.6V | 00:00:00 | 01:26:11 | 00:00:00 | |
| DM0DOS-11 | 2026-09-05 17:55:44 | 49.23405 | 8.56194 | 159° | 40km/h | 18959m | 3.7m/s | -53°C | 4% | 69.2hPa | 2.6V | 03:53:38 | 01:26:04 | 00:00:00 | |
| DK7TD | 2026-09-05 17:55:43 | 49.23369 | 8.56220 | 153° | 35km/h | 18975m | 4.4m/s | -53.1°C | 0.6% | 69hPa | 2.6V | 03:53:51 | 01:26:08 | 00:00:00 | |
| BIOWL1-15 | 2026-09-05 17:55:42 | 49.23377 | 8.56213 | 151° | 38km/h | 18971m | 3.4m/s | -53.1°C | 0.6% | 69hPa | 2.6V | 03:53:51 | 01:26:07 | 00:00:00 | |
| DF1GD-15 | 2026-09-05 17:55:41 | 49.23377 | 8.56213 | 152° | 38km/h | 18971m | 3.4m/s | -53.1°C | 1.2% | 69.0hPa | 2.7V | 03:53:00 | 00:00:00 | 00:00:00 | |
| DJ2DS-15 | 2026-09-05 17:55:40 | 49.23395 | 8.56199 | 157° | 33km/h | 18963m | 4.4m/s | -53.0°C | 4.0% | 69.1hPa | 2.7V | 00:00:00 | 01:26:05 | 00:00:00 | |
| DJ2DS-15 | 2026-09-05 17:55:38 | 49.23423 | 8.56183 | 157° | 35km/h | 18951m | 4.4m/s | -53.0°C | 1.2% | 69.2hPa | 2.7V | 00:00:00 | 00:00:00 | 00:00:00 | |
| DB0NH | 2026-09-05 17:55:37 | 49.23423 | 8.56183 | 158° | 33km/h | 18952m | 4.3m/s | -53.0°C | 4.0% | 69.2hPa | 2.7V | 00:00:00 | 01:26:02 | 00:00:00 | |
| DO3MHA-11 | 2026-09-05 17:55:36 | 49.23431 | 8.56177 | 155° | 35km/h | 18947m | 4.2m/s | -53.0°C | 4.0% | 69.2hPa | 2.7V | 00:00:00 | 01:26:01 | 00:00:00 | |
| DF7PN | 2026-09-05 17:55:35 | 49.23439 | 8.56172 | 154° | 33km/h | 18943m | 3.8m/s | -53.0°C | 1.1% | 69.4hPa | 2.7V | 00:00:00 | 00:00:00 | 00:00:00 | |
| DM0DOS-11 | 2026-09-05 17:55:34 | 49.23489 | 8.56144 | 155° | 37km/h | 18917m | 4.4m/s | -52.9°C | 3.9% | 69.6hPa | 2.7V | 03:53:48 | 01:25:54 | 00:00:00 | |
| DK7TD | 2026-09-05 17:55:32 | 49.23464 | 8.56158 | 164° | 35km/h | 18930m | 3.6m/s | -53°C | 0.5% | 69.5hPa | 2.6V | 03:53:51 | 01:25:57 | 00:00:00 | |
| BIOWL1-15 | 2026-09-05 17:55:31 | 49.23472 | 8.56154 | 162° | 35km/h | 18926m | 3.7m/s | -53°C | 0.5% | 69.5hPa | 2.7V | 03:53:51 | 01:25:56 | 00:00:00 | |
| DO8TBO-1 | 2026-09-05 17:55:31 | 49.23472 | 8.56154 | 163° | 33km/h | 18927m | 3.6m/s | 0°C | 0% | 0hPa | 2.6V | 00:00:00 | 01:25:56 | 00:00:00 | |
| DO3DL | 2026-09-05 17:55:30 | 49.23480 | 8.56149 | 160° | 35km/h | 18922m | 5.1m/s | 0°C | 0% | 69.6hPa | 2.6V | 00:00:00 | 00:00:00 | 00:00:00 | |
| SONDE2-11 | 2026-09-05 17:55:29 | 49.23489 | 8.56144 | 155° | 35km/h | 18917m | 4.4m/s | 0°C | -1.0% | -1.0hPa | 2.6V | 00:00:00 | 00:00:00 | 00:00:00 | |
| DG9SBQ-11 | 2026-09-05 17:55:28 | 49.23488 | 8.56144 | 156° | 37km/h | 18917m | 4.4m/s | -52.9°C | 1.1% | 69.6hPa | 2.6V | 03:53:00 | 00:00:00 | 00:00:00 | |
| DO3MHA-11 | 2026-09-05 17:55:26 | 49.23512 | 8.56128 | 159° | 29km/h | 18903m | 4.3m/s | -52.9°C | 3.9% | 69.7hPa | 2.6V | 00:00:00 | 01:25:51 | 00:00:00 | |
| DM7RM-13 | 2026-09-05 17:55:25 | 49.23512 | 8.56128 | 159° | 31km/h | 18903m | 4.4m/s | -52.9°C | 1.2% | 69.8hPa | 2.6V | 03:53:00 | 00:00:00 | 00:00:00 | |
| DM0DOS-11 | 2026-09-05 17:55:24 | 49.23558 | 8.56099 | 165° | 29km/h | 18873m | 3.6m/s | -53°C | 3.9% | 70.1hPa | 2.6V | 03:53:58 | 01:25:44 | 00:00:00 | |
| DK7TD | 2026-09-05 17:55:21 | 49.23544 | 8.56105 | 161° | 27km/h | 18882m | 5.2m/s | -53°C | 0.5% | 70hPa | 2.6V | 03:58:06 | 01:25:46 | 00:00:00 | |
| BIOWL1-15 | 2026-09-05 17:55:20 | 49.23551 | 8.56102 | 166° | 27km/h | 18877m | 4.5m/s | -53°C | 0.5% | 70hPa | 2.6V | 03:54:42 | 01:25:45 | 00:00:00 | |
| DK7TD | 2026-09-05 17:55:11 | 49.23616 | 8.56051 | 142° | 31km/h | 18838m | 5.1m/s | -53.1°C | 0.6% | 70.5hPa | 2.7V | 03:58:06 | 01:25:36 | 00:00:00 | |
| BIOWL1-15 | 2026-09-05 17:55:09 | 49.23628 | 8.56036 | 147° | 31km/h | 18829m | 4.2m/s | -53.1°C | 0.6% | 70.6hPa | 2.6V | 03:54:42 | 01:25:34 | 00:00:00 | |
| DK7TD | 2026-09-05 17:55:01 | 49.23689 | 8.55991 | 150° | 38km/h | 18794m | 4.2m/s | -53.1°C | 0.5% | 71hPa | 2.6V | 03:58:06 | 01:25:26 | 00:00:00 | |
| BIOWL1-15 | 2026-09-05 17:54:59 | 49.23704 | 8.55974 | 140° | 38km/h | 18785m | 5m/s | -53.3°C | 0.5% | 71.1hPa | 2.7V | 03:54:42 | 01:25:24 | 00:00:00 | |
| DF3TZ-5 | 2026-09-05 17:54:58 | 49.23718 | 8.55955 | 137° | 35km/h | 18776m | 3.9m/s | -53.3°C | 1.1% | 71.2hPa | 2.6V | 00:00:00 | 00:00:00 | 00:00:00 | |
| DO3MHA-11 | 2026-09-05 17:54:56 | 49.23724 | 8.55946 | 142° | 37km/h | 18772m | 5.0m/s | -53.2°C | 3.9% | 71.2hPa | 2.6V | 00:00:00 | 01:25:21 | 00:00:00 | |
| DM0DOS-11 | 2026-09-05 17:54:55 | 49.23771 | 8.55903 | 148° | 40km/h | 18747m | 3.6m/s | -53.2°C | 4% | 71.5hPa | 2.6V | 03:54:27 | 01:25:15 | 00:00:00 | |
| DK7TD | 2026-09-05 17:54:50 | 49.23771 | 8.55903 | 149° | 40km/h | 18747m | 3.6m/s | -53.2°C | 0.6% | 71.5hPa | 2.6V | 03:58:06 | 01:25:15 | 00:00:00 | |
| BIOWL1-15 | 2026-09-05 17:54:49 | 49.23779 | 8.55896 | 150° | 40km/h | 18743m | 4.4m/s | -53.3°C | 0.5% | 71.5hPa | 2.6V | 03:54:42 | 01:25:14 | 00:00:00 | |
| DB0UT-7 | 2026-09-05 17:54:47 | 49.23797 | 8.55880 | 150° | 51km/h | 18735m | 3.5m/s | -53.3°C | 4.0% | 71.6hPa | 2.7V | 00:00:00 | 01:25:12 | 00:00:00 | |
| DO3MHA-11 | 2026-09-05 17:54:46 | 49.23806 | 8.55872 | 146° | 46km/h | 18731m | 4.0m/s | -53.3°C | 4.0% | 71.6hPa | 2.7V | 00:00:00 | 01:25:11 | 00:00:00 | |
| DM0DOS-11 | 2026-09-05 17:54:45 | 49.23864 | 8.55808 | 153° | 47km/h | 18706m | 4.5m/s | -53.6°C | 4% | 71.9hPa | 2.7V | 03:54:37 | 01:25:05 | 00:00:00 | |
| BIOWL1-15 | 2026-09-05 17:54:40 | 49.23885 | 8.55792 | 156° | 46km/h | 18699m | 4.5m/s | -53.6°C | 0.6% | 72hPa | 2.6V | 03:54:42 | 01:25:03 | 00:00:00 | |
| DK7TD | 2026-09-05 17:54:39 | 49.23875 | 8.55800 | 156° | 46km/h | 18703m | 3.4m/s | -53.6°C | 0.6% | 72hPa | 2.7V | 03:58:06 | 01:25:04 | 00:00:00 | |
| DL1ZP-14 | 2026-09-05 17:54:38 | 49.23885 | 8.55792 | 155° | 44km/h | 18699m | 4.5m/s | -53.6°C | 1.2% | 72.0hPa | 2.6V | 00:00:00 | 00:00:00 | 00:00:00 | |
| AU51GT2 | 2026-09-05 17:54:37 | 49.23905 | 8.55777 | 151° | 44km/h | 18690m | 3.8m/s | -53.5°C | 1.2% | 72.1hPa | 2.6V | 00:00:00 | 00:00:00 | 00:00:00 | |
| DO3MHA-11 | 2026-09-05 17:54:36 | 49.23905 | 8.55777 | 152° | 51km/h | 18690m | 3.7m/s | -53.5°C | 4.0% | 72.1hPa | 2.6V | 03:54:00 | 01:25:01 | 00:00:00 | |
| DM0DOS-11 | 2026-09-05 17:54:35 | 49.23971 | 8.55723 | 148° | 51km/h | 18666m | 4.8m/s | -53.3°C | 4.1% | 72.4hPa | 2.7V | 03:54:47 | 01:24:55 | 00:00:00 | |
| DK7TD | 2026-09-05 17:54:28 | 49.23993 | 8.55701 | 148° | 55km/h | 18657m | 3.8m/s | -53.3°C | 0.7% | 72.5hPa | 2.7V | 03:58:06 | 01:24:53 | 00:00:00 | |
| DO3MHA-11 | 2026-09-05 17:54:27 | 49.24017 | 8.55679 | 150° | 57km/h | 18649m | 4.0m/s | -53.3°C | 4.0% | 72.5hPa | 2.6V | 00:00:00 | 01:24:51 | 00:00:00 | |
| DG9SBQ-11 | 2026-09-05 17:54:26 | 49.24017 | 8.55679 | 150° | 57km/h | 18649m | 4.1m/s | -53.4°C | 1.2% | 72.6hPa | 2.6V | 03:55:00 | 00:00:00 | 00:00:00 | |
| DM0DOS-11 | 2026-09-05 17:54:25 | 49.24091 | 8.55611 | 150° | 58km/h | 18622m | 4.1m/s | -53.3°C | 3.9% | 72.9hPa | 2.6V | 03:54:57 | 01:24:45 | 00:00:00 | |
| BIOWL1-15 | 2026-09-05 17:54:19 | 49.24127 | 8.55576 | 145° | 53km/h | 18609m | 3.8m/s | -53.3°C | 0.5% | 73hPa | 2.7V | 03:55:33 | 01:24:42 | 00:00:00 | |
| AZAK | 2026-09-05 17:54:19 | 49.24103 | 8.55599 | 150° | 57km/h | 18618m | 4.3m/s | -53.3°C | 1.2% | 73.0hPa | 2.6V | 03:55:00 | 00:00:00 | 00:00:00 | |
| DB0UT-7 | 2026-09-05 17:54:17 | 49.24127 | 8.55576 | 146° | 46km/h | 18609m | 3.8m/s | -53.2°C | 4.0% | 73.0hPa | 2.6V | 00:00:00 | 00:00:00 | 00:00:00 | |
| DM0DOS-11 | 2026-09-05 17:54:16 | 49.24203 | 8.55496 | 141° | 47km/h | 18580m | 5.6m/s | -53.3°C | 4% | 73.3hPa | 2.6V | 03:55:07 | 01:24:35 | 00:00:00 | |
| DK7TD | 2026-09-05 17:54:11 | 49.24193 | 8.55507 | 144° | 49km/h | 18585m | 5.3m/s | -53.3°C | 0.6% | 73.3hPa | 2.7V | 03:58:06 | 01:24:36 | 00:00:00 | |
| BIOWL1-15 | 2026-09-05 17:54:07 | 49.24229 | 8.55461 | 140° | 46km/h | 18566m | 5.5m/s | -53.3°C | 0.5% | 73.5hPa | 2.7V | 03:55:33 | 01:24:32 | 00:00:00 | |
| DB0NH | 2026-09-05 17:54:07 | 49.24229 | 8.55461 | 140° | 46km/h | 18566m | 5.5m/s | -53.3°C | 3.9% | 73.5hPa | 2.6V | 00:00:00 | 01:24:32 | 00:00:00 | |
| AU51GT2 | 2026-09-05 17:54:06 | 49.24248 | 8.55440 | 147° | 46km/h | 18557m | 4.2m/s | -53.4°C | 1.1% | 73.6hPa | 2.6V | 00:00:00 | 00:00:00 | 00:00:00 | |
| DM0DOS-11 | 2026-09-05 17:54:05 | 49.24299 | 8.55401 | 154° | 46km/h | 18533m | 4.1m/s | -53.3°C | 3.9% | 73.9hPa | 2.6V | 03:55:17 | 01:24:25 | 00:00:00 | |
| DK7TD | 2026-09-05 17:54:01 | 49.24289 | 8.55409 | 156° | 46km/h | 18537m | 5.3m/s | -53.3°C | 0.5% | 73.8hPa | 2.6V | 03:58:06 | 01:24:26 | 00:00:00 | |
| BIOWL1-15 | 2026-09-05 17:53:56 | 49.24337 | 8.55368 | 145° | 40km/h | 18516m | 4.4m/s | -53.4°C | 0.6% | 74.1hPa | 2.7V | 03:55:33 | 01:24:21 | 00:00:00 | |
| DK7TD | 2026-09-05 17:53:50 | 49.24387 | 8.55305 | 143° | 38km/h | 18489m | 5m/s | -53.6°C | 0.5% | 74.4hPa | 2.7V | 03:58:06 | 01:24:15 | 00:00:00 | |
| BIOWL1-15 | 2026-09-05 17:53:46 | 49.24420 | 8.55269 | 144° | 47km/h | 18472m | 4.5m/s | -53.7°C | 0.6% | 74.6hPa | 2.6V | 03:55:33 | 01:24:11 | 00:00:00 | |
| DO3MHA-11 | 2026-09-05 17:53:46 | 49.24420 | 8.55269 | 145° | 51km/h | 18473m | 4.4m/s | -53.6°C | 3.9% | 74.6hPa | 2.7V | 00:00:00 | 01:24:11 | 00:00:00 | |
| DM0DOS-11 | 2026-09-05 17:53:45 | 49.24480 | 8.55194 | 130° | 53km/h | 18447m | 5.4m/s | -53.6°C | 3.9% | 74.9hPa | 2.7V | 03:55:37 | 01:24:05 | 00:00:00 | |
| BIOWL1-15 | 2026-09-05 17:53:37 | 49.24521 | 8.55117 | 139° | 47km/h | 18424m | 4.6m/s | -54°C | 0.6% | 75.2hPa | 2.6V | 03:56:24 | 01:24:00 | 00:00:00 | |
| DB0NH | 2026-09-05 17:53:37 | 49.24504 | 8.55145 | 128° | 58km/h | 18434m | 4.5m/s | -53.8°C | 3.9% | 75.0hPa | 2.6V | 00:00:00 | 01:24:02 | 00:00:00 | |
| DO3MHA-11 | 2026-09-05 17:53:36 | 49.24512 | 8.55130 | 133° | 51km/h | 18429m | 5.2m/s | -53.8°C | 4.0% | 75.1hPa | 2.6V | 00:00:00 | 01:24:01 | 00:00:00 | |
| DM0DOS-11 | 2026-09-05 17:53:35 | 49.24569 | 8.55054 | 133° | 53km/h | 18400m | 4.9m/s | -54.7°C | 4.3% | 75.4hPa | 2.6V | 03:55:47 | 01:23:55 | 00:00:00 | |
| DK7TD | 2026-09-05 17:53:30 | 49.24569 | 8.55054 | 133° | 53km/h | 18400m | 4.9m/s | -54.7°C | 0.7% | 75.4hPa | 2.6V | 03:58:06 | 01:23:55 | 00:00:00 | |
| DG9SBQ-11 | 2026-09-05 17:53:28 | 49.24578 | 8.55039 | 132° | 55km/h | 18396m | 4.8m/s | -54.7°C | 1.3% | 75.5hPa | 2.6V | 03:56:00 | 00:00:00 | 00:00:00 | |
| DO3MHA-11 | 2026-09-05 17:53:26 | 49.24607 | 8.54990 | 134° | 64km/h | 18381m | 4.7m/s | -54.7°C | 4.2% | 75.6hPa | 2.6V | 00:00:00 | 01:23:51 | 00:00:00 | |
| DM0DOS-11 | 2026-09-05 17:53:25 | 49.24667 | 8.54867 | 123° | 66km/h | 18352m | 5m/s | -54.7°C | 4.2% | 76hPa | 2.6V | 03:55:57 | 01:23:45 | 00:00:00 | |
| BIOWL1-15 | 2026-09-05 17:53:24 | 49.24628 | 8.54954 | 130° | 68km/h | 18371m | 5.7m/s | -54.7°C | 0.7% | 75.8hPa | 2.6V | 03:56:24 | 01:23:49 | 00:00:00 | |
| DK7TD | 2026-09-05 17:53:19 | 49.24676 | 8.54847 | 126° | 62km/h | 18348m | 4.3m/s | -54.7°C | 0.7% | 76.1hPa | 2.6V | 03:58:06 | 01:23:44 | 00:00:00 | |
| BIOWL1-15 | 2026-09-05 17:53:19 | 49.24735 | 8.54732 | 126° | 62km/h | 18323m | 3.9m/s | -54.6°C | 0.8% | 76.3hPa | 2.7V | 03:56:24 | 01:23:38 | 00:00:00 | |
| DC4HF-4 | 2026-09-05 17:53:18 | 49.24695 | 8.54809 | 129° | 60km/h | 18340m | 4.1m/s | -54.6°C | 1.3% | 76.1hPa | 2.6V | 00:00:00 | 00:00:00 | 00:00:00 | |
| DB0UT-7 | 2026-09-05 17:53:17 | 49.24695 | 8.54809 | 130° | 57km/h | 18340m | 4.0m/s | -54.6°C | 4.2% | 76.1hPa | 2.6V | 00:00:00 | 00:00:00 | 00:00:00 | |
| DO3MHA-11 | 2026-09-05 17:53:16 | 49.24705 | 8.54790 | 129° | 62km/h | 18336m | 4.8m/s | -54.6°C | 4.3% | 76.1hPa | 2.6V | 03:56:00 | 01:23:41 | 00:00:00 | |
| DM0DOS-11 | 2026-09-05 17:53:15 | 49.24761 | 8.54675 | 123° | 57km/h | 18310m | 4m/s | -54.6°C | 4.3% | 76.5hPa | 2.6V | 03:56:07 | 01:23:35 | 00:00:00 | |
| DK7TD | 2026-09-05 17:53:08 | 49.24777 | 8.54638 | 124° | 60km/h | 18301m | 4.8m/s | -54.6°C | 0.8% | 76.6hPa | 2.7V | 03:58:06 | 01:23:33 | 00:00:00 | |
| DB0NH | 2026-09-05 17:53:07 | 49.24786 | 8.54618 | 125° | 53km/h | 18297m | 3.8m/s | -54.6°C | 4.3% | 76.6hPa | 2.7V | 03:56:00 | 01:23:32 | 00:00:00 | |
| DO3MHA-11 | 2026-09-05 17:53:06 | 49.24795 | 8.54599 | 125° | 57km/h | 18293m | 3.9m/s | -54.6°C | 4.3% | 76.7hPa | 2.7V | 00:00:00 | 01:23:31 | 00:00:00 | |
| DM0DOS-11 | 2026-09-05 17:53:05 | 49.24844 | 8.54492 | 125° | 55km/h | 18266m | 4.4m/s | -54.5°C | 4.2% | 77hPa | 2.7V | 03:56:17 | 01:23:25 | 00:00:00 | |
| BIOWL1-15 | 2026-09-05 17:53:03 | 49.24820 | 8.54544 | 125° | 55km/h | 18280m | 3.9m/s | -54.6°C | 0.7% | 76.9hPa | 2.6V | 03:56:24 | 01:23:28 | 00:00:00 | |
| BIOWL1-15 | 2026-09-05 17:52:57 | 49.24890 | 8.54363 | 114° | 51km/h | 18235m | 4.9m/s | -54.3°C | 0.8% | 77.4hPa | 2.6V | 03:56:24 | 01:23:18 | 00:00:00 | |
| DK7TD | 2026-09-05 17:52:56 | 49.24873 | 8.54421 | 118° | 57km/h | 18248m | 5.1m/s | -54.4°C | 0.7% | 77.2hPa | 2.6V | 03:58:06 | 01:23:21 | 00:00:00 | |
| DO3MHA-11 | 2026-09-05 17:52:56 | 49.24873 | 8.54421 | 118° | 51km/h | 18248m | 5.1m/s | -54.4°C | 4.2% | 77.2hPa | 2.7V | 00:00:00 | 01:23:21 | 00:00:00 | |
| DM0DOS-11 | 2026-09-05 17:52:55 | 49.24906 | 8.54311 | 117° | 49km/h | 18222m | 4.9m/s | -54.3°C | 4.3% | 77.5hPa | 2.7V | 03:56:27 | 01:23:15 | 00:00:00 | |
| DF3TZ-5 | 2026-09-05 17:52:53 | 49.24890 | 8.54363 | 113° | 51km/h | 18235m | 4.9m/s | -54.3°C | 1.3% | 77.4hPa | 2.7V | 00:00:00 | 00:00:00 | 00:00:00 | |
| BIOWL1-15 | 2026-09-05 17:52:47 | 49.24951 | 8.54175 | 115° | 51km/h | 18187m | 3.7m/s | -54.1°C | 0.6% | 78hPa | 2.7V | 03:57:15 | 01:23:07 | 00:00:00 | |
| DO3MHA-11 | 2026-09-05 17:52:46 | 49.24930 | 8.54242 | 117° | 49km/h | 18205m | 4.8m/s | -54.1°C | 4.1% | 77.7hPa | 2.6V | 00:00:00 | 01:23:11 | 00:00:00 | |
| DM0DOS-11 | 2026-09-05 17:52:45 | 49.24960 | 8.54139 | 110° | 49km/h | 18179m | 5m/s | -54°C | 4% | 78.1hPa | 2.6V | 03:56:37 | 01:23:05 | 00:00:00 | |
| DK7TD | 2026-09-05 17:52:44 | 49.24940 | 8.54209 | 115° | 47km/h | 18196m | 4.3m/s | -54.1°C | 0.6% | 77.9hPa | 2.6V | 03:58:06 | 01:23:09 | 00:00:00 | |
| DC4HF-4 | 2026-09-05 17:52:42 | 49.24956 | 8.54157 | 113° | 49km/h | 18183m | 3.6m/s | -54.0°C | 1.2% | 78.0hPa | 2.6V | 00:00:00 | 00:00:00 | 00:00:00 | |
| DJ2DS-15 | 2026-09-05 17:52:40 | 49.24960 | 8.54139 | 111° | 49km/h | 18179m | 5.0m/s | -54.0°C | 4.0% | 78.0hPa | 2.6V | 03:56:00 | 01:23:05 | 00:00:00 | |
| DB0NH | 2026-09-05 17:52:37 | 49.24973 | 8.54086 | 110° | 47km/h | 18165m | 5.2m/s | -54.1°C | 4.0% | 78.2hPa | 2.7V | 00:00:00 | 01:23:02 | 00:00:00 | |
| DO3MHA-11 | 2026-09-05 17:52:36 | 49.24977 | 8.54068 | 110° | 51km/h | 18160m | 3.8m/s | -54.1°C | 4.1% | 78.3hPa | 2.7V | 03:56:00 | 01:23:01 | 00:00:00 | |
| DM0DOS-11 | 2026-09-05 17:52:35 | 49.25002 | 8.53961 | 114° | 53km/h | 18134m | 5m/s | -54.1°C | 4% | 78.6hPa | 2.7V | 03:56:47 | 01:22:55 | 00:00:00 | |
| DK7TD | 2026-09-05 17:52:34 | 49.24985 | 8.54032 | 108° | 47km/h | 18151m | 5.2m/s | -54.1°C | 0.7% | 78.4hPa | 2.7V | 03:58:06 | 01:22:59 | 00:00:00 | |
| BIOWL1-15 | 2026-09-05 17:52:31 | 49.24997 | 8.53979 | 112° | 49km/h | 18139m | 4.8m/s | -54.1°C | 0.6% | 78.6hPa | 2.6V | 03:57:15 | 01:22:56 | 00:00:00 | |
| CB1BUN | 2026-09-05 17:52:30 | 49.25002 | 8.53961 | 116° | 53km/h | 18134m | 5.1m/s | -54.1°C | 1.2% | 78.6hPa | 2.6V | 03:57:00 | 00:00:00 | 00:00:00 | |
| DF7PN | 2026-09-05 17:52:29 | 49.25008 | 8.53942 | 116° | 53km/h | 18130m | 4.1m/s | -54.2°C | 1.2% | 78.7hPa | 2.6V | 00:00:00 | 00:00:00 | 00:00:00 | |
| DO3MHA-11 | 2026-09-05 17:52:26 | 49.25024 | 8.53887 | 110° | 46km/h | 18117m | 4.6m/s | -54.4°C | 4.1% | 78.8hPa | 2.6V | 00:00:00 | 01:22:51 | 00:00:00 | |
| DM0DOS-11 | 2026-09-05 17:52:25 | 49.25043 | 8.53785 | 102° | 46km/h | 18091m | 4m/s | -55.1°C | 4.3% | 79.1hPa | 2.6V | 03:56:57 | 01:22:45 | 00:00:00 | |
| BIOWL1-15 | 2026-09-05 17:52:25 | 49.25040 | 8.53803 | 105° | 46km/h | 18095m | 4m/s | -55°C | 0.8% | 79.1hPa | 2.6V | 03:57:15 | 01:22:46 | 00:00:00 | |
| DK7TD | 2026-09-05 17:52:18 | 49.25047 | 8.53750 | 101° | 46km/h | 18082m | 3.8m/s | -55.2°C | 0.8% | 79.3hPa | 2.7V | 03:58:06 | 01:22:43 | 00:00:00 | |
| DB0UT-7 | 2026-09-05 17:52:17 | 49.25050 | 8.53733 | 104° | 58km/h | 18079m | 3.3m/s | -55.1°C | 4.3% | 79.3hPa | 2.7V | 00:00:00 | 00:00:00 | 00:00:00 | |
| DO3MHA-11 | 2026-09-05 17:52:16 | 49.25053 | 8.53716 | 108° | 49km/h | 18074m | 5.5m/s | -55.1°C | 4.2% | 79.3hPa | 2.6V | 00:00:00 | 01:22:41 | 00:00:00 | |
| DM0DOS-11 | 2026-09-05 17:52:15 | 49.25077 | 8.53616 | 103° | 47km/h | 18046m | 4.3m/s | -55.5°C | 4.3% | 79.7hPa | 2.6V | 03:57:07 | 01:22:35 | 00:00:00 | |
| BIOWL1-15 | 2026-09-05 17:52:10 | 49.25077 | 8.53616 | 104° | 47km/h | 18046m | 4.3m/s | -55.5°C | 0.8% | 79.7hPa | 2.6V | 03:57:15 | 01:22:35 | 00:00:00 | |
| DG9SBQ-11 | 2026-09-05 17:52:09 | 49.25077 | 8.53616 | 105° | 47km/h | 18047m | 4.3m/s | -55.5°C | 1.3% | 79.7hPa | 2.6V | 03:57:00 | 00:00:00 | 00:00:00 | |
| HEMX73-11 | 2026-09-05 17:52:08 | 49.25080 | 8.53597 | 105° | 51km/h | 18043m | 3.6m/s | -55.4°C | 1.3% | 79.7hPa | 2.6V | 03:57:00 | 00:00:00 | 00:00:00 | |
| DB0NH | 2026-09-05 17:52:07 | 49.25087 | 8.53557 | 109° | 62km/h | 18034m | 5.0m/s | -55.3°C | 4.3% | 79.8hPa | 2.6V | 00:00:00 | 01:22:32 | 00:00:00 | |
| DC4HF-4 | 2026-09-05 17:52:06 | 49.25097 | 8.53513 | 107° | 62km/h | 18025m | 4.5m/s | -55.4°C | 1.3% | 80.0hPa | 2.6V | 00:00:00 | 00:00:00 | 00:00:00 | |
| DM0DOS-11 | 2026-09-05 17:52:05 | 49.25120 | 8.53392 | 106° | 62km/h | 18001m | 4.4m/s | -55.9°C | 4.4% | 80.2hPa | 2.6V | 03:57:17 | 01:22:25 | 00:00:00 | |
| BIOWL1-15 | 2026-09-05 17:51:59 | 49.25124 | 8.53369 | 106° | 60km/h | 17998m | 3.2m/s | -55.9°C | 0.8% | 80.3hPa | 2.6V | 03:58:06 | 01:22:24 | 00:00:00 | |
| DF7PN | 2026-09-05 17:51:58 | 49.25128 | 8.53347 | 104° | 58km/h | 17994m | 5.2m/s | -56.0°C | 1.3% | 80.4hPa | 2.6V | 00:00:00 | 00:00:00 | 00:00:00 | |
| DO3MHA-11 | 2026-09-05 17:51:56 | 49.25135 | 8.53302 | 103° | 64km/h | 17984m | 3.6m/s | -55.9°C | 4.4% | 80.5hPa | 2.6V | 03:57:00 | 01:22:21 | 00:00:00 | |
| DM0DOS-11 | 2026-09-05 17:51:55 | 49.25161 | 8.53162 | 103° | 68km/h | 17957m | 4.8m/s | -56.2°C | 4.4% | 80.8hPa | 2.6V | 03:57:27 | 01:22:15 | 00:00:00 | |
| DK7TD | 2026-09-05 17:51:50 | 49.25161 | 8.53162 | 103° | 68km/h | 17957m | 4.8m/s | -56.2°C | 0.8% | 80.8hPa | 2.6V | 03:58:06 | 01:22:15 | 00:00:00 | |
| BIOWL1-15 | 2026-09-05 17:51:49 | 49.25165 | 8.53137 | 102° | 68km/h | 17953m | 3.7m/s | -56.2°C | 0.8% | 80.9hPa | 2.6V | 03:58:06 | 01:22:14 | 00:00:00 | |
| DG9SBQ-11 | 2026-09-05 17:51:48 | 49.25165 | 8.53136 | 103° | 68km/h | 17953m | 3.7m/s | -56.2°C | 1.4% | 80.9hPa | 2.7V | 03:58:00 | 00:00:00 | 00:00:00 | |
| DB0UT-7 | 2026-09-05 17:51:47 | 49.25172 | 8.53086 | 105° | 62km/h | 17944m | 4.4m/s | -56.3°C | 4.5% | 80.9hPa | 2.7V | 03:57:00 | 01:22:12 | 00:00:00 | |
| DO3MHA-11 | 2026-09-05 17:51:46 | 49.25177 | 8.53061 | 107° | 60km/h | 17941m | 3.5m/s | -56.3°C | 4.5% | 81.0hPa | 2.7V | 00:00:00 | 01:22:11 | 00:00:00 | |
| DM0DOS-11 | 2026-09-05 17:51:45 | 49.25204 | 8.52920 | 107° | 53km/h | 17915m | 4m/s | -57°C | 4.9% | 81.3hPa | 2.7V | 03:57:37 | 01:22:05 | 00:00:00 | |
| HARRO8 | 2026-09-05 17:51:45 | 49.25182 | 8.53036 | 107° | 68km/h | 17937m | 3.6m/s | -56.5°C | 1.4% | 81.1hPa | 2.7V | 00:00:00 | 00:00:00 | 00:00:00 | |
| BIOWL1-15 | 2026-09-05 17:51:41 | 49.25208 | 8.52901 | 106° | 51km/h | 17911m | 3.5m/s | -57°C | 1.1% | 81.4hPa | 2.7V | 03:58:06 | 01:22:04 | 00:00:00 | |
| DK7TD | 2026-09-05 17:51:40 | 49.25204 | 8.52920 | 108° | 53km/h | 17915m | 4m/s | -57°C | 1% | 81.4hPa | 2.7V | 03:58:06 | 01:22:05 | 00:00:00 | |
| DJ2DS-15 | 2026-09-05 17:51:40 | 49.25204 | 8.52920 | 108° | 62km/h | 17915m | 4.0m/s | -56.9°C | 4.9% | 81.3hPa | 2.7V | 00:00:00 | 01:22:05 | 00:00:00 | |
| DM7RM-13 | 2026-09-05 17:51:38 | 49.25208 | 8.52901 | 107° | 51km/h | 17911m | 3.5m/s | -57.0°C | 1.5% | 81.4hPa | 2.6V | 00:00:00 | 00:00:00 | 00:00:00 | |
| DB0NH | 2026-09-05 17:51:37 | 49.25214 | 8.52862 | 102° | 58km/h | 17903m | 3.8m/s | -56.9°C | 4.9% | 81.5hPa | 2.6V | 00:00:00 | 01:22:02 | 00:00:00 | |
| DO3MHA-11 | 2026-09-05 17:51:36 | 49.25217 | 8.52840 | 103° | 68km/h | 17899m | 3.1m/s | -56.9°C | 4.9% | 81.5hPa | 2.6V | 00:00:00 | 01:22:01 | 00:00:00 | |
| DM0DOS-11 | 2026-09-05 17:51:35 | 49.25243 | 8.52694 | 102° | 71km/h | 17873m | 5.1m/s | -56.8°C | 4.7% | 81.9hPa | 2.7V | 03:57:47 | 01:21:55 | 00:00:00 | |
| DK7TD | 2026-09-05 17:51:30 | 49.25242 | 8.52694 | 102° | 71km/h | 17873m | 5.1m/s | -56.9°C | 1% | 81.9hPa | 2.7V | 03:58:06 | 01:21:55 | 00:00:00 | |
| BIOWL1-15 | 2026-09-05 17:51:29 | 49.25246 | 8.52667 | 102° | 71km/h | 17868m | 4.1m/s | -56.8°C | 0.9% | 82hPa | 2.6V | 03:58:06 | 01:21:54 | 00:00:00 | |
| DF7PN | 2026-09-05 17:51:27 | 49.25253 | 8.52614 | 103° | 66km/h | 17859m | 4.9m/s | -56.8°C | 1.4% | 82.1hPa | 2.7V | 00:00:00 | 00:00:00 | 00:00:00 | |
| DO3MHA-11 | 2026-09-05 17:51:26 | 49.25257 | 8.52590 | 104° | 60km/h | 17855m | 3.7m/s | -56.7°C | 4.8% | 82.1hPa | 2.7V | 00:00:00 | 01:21:51 | 00:00:00 | |
| DM0DOS-11 | 2026-09-05 17:51:25 | 49.25274 | 8.52458 | 99° | 58km/h | 17830m | 4.8m/s | -56.5°C | 4.9% | 82.5hPa | 2.7V | 03:57:57 | 01:21:45 | 00:00:00 | |
| BIOWL1-15 | 2026-09-05 17:51:22 | 49.25279 | 8.52412 | 99° | 62km/h | 17821m | 4m/s | -56.5°C | 1% | 82.6hPa | 2.6V | 03:58:06 | 01:21:43 | 00:00:00 | |
| DK7TD | 2026-09-05 17:51:19 | 49.25276 | 8.52435 | 100° | 60km/h | 17826m | 4.5m/s | -56.5°C | 1% | 82.5hPa | 2.7V | 03:58:06 | 01:21:44 | 00:00:00 | |
| DJTTGO | 2026-09-05 17:51:18 | 49.25277 | 8.52435 | 101° | 60km/h | 17826m | 4.5m/s | -56.5°C | 1.5% | 82.5hPa | 2.6V | 00:00:00 | 00:00:00 | 00:00:00 | |
| DB0UT-7 | 2026-09-05 17:51:17 | 49.25281 | 8.52387 | 98° | 55km/h | 17817m | 4.8m/s | -56.5°C | 4.8% | 82.6hPa | 2.6V | 00:00:00 | 00:00:00 | 00:00:00 | |
| DO3MHA-11 | 2026-09-05 17:51:16 | 49.25283 | 8.52362 | 95° | 55km/h | 17812m | 4.7m/s | -56.4°C | 4.7% | 82.7hPa | 2.6V | 03:58:00 | 01:21:41 | 00:00:00 | |
| DM0DOS-11 | 2026-09-05 17:51:15 | 49.25293 | 8.52230 | 96° | 49km/h | 17784m | 5m/s | -56.3°C | 4.7% | 83.1hPa | 2.6V | 03:58:07 | 01:21:35 | 00:00:00 | |
| BIOWL1-15 | 2026-09-05 17:51:08 | 49.25296 | 8.52193 | 98° | 47km/h | 17776m | 4.2m/s | -56.2°C | 0.9% | 83.2hPa | 2.7V | 03:58:57 | 01:21:33 | 00:00:00 | |
| DB0NH | 2026-09-05 17:51:07 | 49.25297 | 8.52174 | 100° | 53km/h | 17771m | 5.1m/s | -56.1°C | 4.7% | 83.2hPa | 2.6V | 03:58:00 | 01:21:32 | 00:00:00 | |
| DO3MHA-11 | 2026-09-05 17:51:06 | 49.25300 | 8.52155 | 100° | 55km/h | 17767m | 3.7m/s | -56.0°C | 4.7% | 83.3hPa | 2.6V | 00:00:00 | 01:21:31 | 00:00:00 | |
| DM0DOS-11 | 2026-09-05 17:51:05 | 49.25304 | 8.52023 | 91° | 57km/h | 17739m | 4.5m/s | -55.9°C | 4.6% | 83.7hPa | 2.6V | 03:58:17 | 01:21:25 | 00:00:00 | |
| DK7TD | 2026-09-05 17:50:58 | 49.25304 | 8.51980 | 90° | 53km/h | 17731m | 5.1m/s | -55.8°C | 0.9% | 83.8hPa | 2.7V | 03:58:57 | 01:21:23 | 00:00:00 | |
| DM7RM-13 | 2026-09-05 17:50:57 | 49.25304 | 8.51980 | 91° | 53km/h | 17731m | 5.1m/s | -55.8°C | 1.4% | 83.8hPa | 2.6V | 03:58:00 | 00:00:00 | 00:00:00 | |
| DO3MHA-11 | 2026-09-05 17:50:56 | 49.25305 | 8.51941 | 94° | 51km/h | 17722m | 3.9m/s | -55.7°C | 4.5% | 83.8hPa | 2.6V | 00:00:00 | 01:21:21 | 00:00:00 | |
| DM0DOS-11 | 2026-09-05 17:50:55 | 49.25316 | 8.51829 | 95° | 53km/h | 17695m | 3.8m/s | -55.5°C | 4.5% | 84.3hPa | 2.6V | 03:58:27 | 01:21:15 | 00:00:00 | |
| BIOWL1-15 | 2026-09-05 17:50:47 | 49.25320 | 8.51764 | 94° | 57km/h | 17681m | 4m/s | -55.5°C | 0.9% | 84.4hPa | 2.7V | 03:58:57 | 01:21:12 | 00:00:00 | |
| DB0UT-7 | 2026-09-05 17:50:47 | 49.25320 | 8.51764 | 94° | 49km/h | 17681m | 3.9m/s | -55.5°C | 4.5% | 84.4hPa | 2.7V | 00:00:00 | 01:21:12 | 00:00:00 | |
| DO3MHA-11 | 2026-09-05 17:50:46 | 49.25321 | 8.51742 | 93° | 49km/h | 17676m | 5.4m/s | -55.5°C | 4.5% | 84.4hPa | 2.7V | 00:00:00 | 01:21:11 | 00:00:00 | |
| DM0DOS-11 | 2026-09-05 17:50:45 | 49.25328 | 8.51627 | 103° | 47km/h | 17649m | 4.2m/s | -55.4°C | 4.4% | 84.9hPa | 2.7V | 03:58:37 | 01:21:05 | 00:00:00 | |
| BIOWL1-15 | 2026-09-05 17:50:37 | 49.25335 | 8.51574 | 100° | 46km/h | 17636m | 4.1m/s | -55.5°C | 0.8% | 85hPa | 2.6V | 03:58:57 | 01:21:02 | 00:00:00 | |
| DB0NH | 2026-09-05 17:50:37 | 49.25335 | 8.51574 | 101° | 49km/h | 17636m | 4.1m/s | -55.4°C | 4.4% | 85.0hPa | 2.7V | 00:00:00 | 01:21:02 | 00:00:00 | |
| DO3MHA-11 | 2026-09-05 17:50:36 | 49.25337 | 8.51556 | 101° | 51km/h | 17632m | 4.8m/s | -55.4°C | 4.4% | 85.1hPa | 2.7V | 03:58:00 | 01:21:01 | 00:00:00 | |
| DM0DOS-11 | 2026-09-05 17:50:35 | 49.25349 | 8.51439 | 100° | 55km/h | 17604m | 5m/s | -55.8°C | 4.5% | 85.5hPa | 2.7V | 03:58:47 | 01:20:55 | 00:00:00 | |
| BIOWL1-15 | 2026-09-05 17:50:26 | 49.25362 | 8.51360 | 105° | 47km/h | 17585m | 4.9m/s | -55.9°C | 1% | 85.7hPa | 2.7V | 03:58:57 | 01:20:51 | 00:00:00 | |
| DO3MHA-11 | 2026-09-05 17:50:26 | 49.25362 | 8.51360 | 105° | 46km/h | 17586m | 4.9m/s | -55.8°C | 4.6% | 85.7hPa | 2.6V | 00:00:00 | 01:20:51 | 00:00:00 | |
| DM0DOS-11 | 2026-09-05 17:50:25 | 49.25380 | 8.51257 | 103° | 46km/h | 17559m | 5.3m/s | -55.8°C | 4.5% | 86hPa | 2.6V | 03:58:57 | 01:20:45 | 00:00:00 | |
| BIOWL1-15 | 2026-09-05 17:50:18 | 49.25391 | 8.51187 | 106° | 49km/h | 17541m | 4.4m/s | -55.8°C | 0.9% | 86.3hPa | 2.7V | 03:59:48 | 01:20:41 | 00:00:00 | |
| DB0UT-7 | 2026-09-05 17:50:17 | 49.25387 | 8.51205 | 104° | 51km/h | 17546m | 5.3m/s | -55.7°C | 4.4% | 86.2hPa | 2.7V | 00:00:00 | 00:00:00 | 00:00:00 | |
| DO3MHA-11 | 2026-09-05 17:50:16 | 49.25390 | 8.51187 | 106° | 46km/h | 17541m | 4.4m/s | -55.7°C | 4.4% | 86.3hPa | 2.7V | 00:00:00 | 01:20:41 | 00:00:00 | |
| DM7RM-13 | 2026-09-05 17:50:15 | 49.25390 | 8.51187 | 107° | 49km/h | 17541m | 4.4m/s | -55.8°C | 1.4% | 86.3hPa | 2.7V | 03:59:00 | 00:00:00 | 00:00:00 | |
| DK7TD | 2026-09-05 17:50:15 | 49.25394 | 8.51169 | 107° | 49km/h | 17537m | 4.2m/s | -55.7°C | 0.9% | 86.4hPa | 2.7V | 03:59:48 | 01:20:40 | 00:00:00 | |
| DM0DOS-11 | 2026-09-05 17:50:14 | 49.25416 | 8.51067 | 110° | 46km/h | 17509m | 4.1m/s | -55.8°C | 4.4% | 86.8hPa | 2.7V | 03:59:08 | 01:20:34 | 00:00:00 | |
| DK7TD | 2026-09-05 17:50:05 | 49.25430 | 8.50999 | 106° | 49km/h | 17490m | 5m/s | -56.1°C | 1% | 87hPa | 2.6V | 03:59:48 | 01:20:30 | 00:00:00 | |
| BIOWL1-15 | 2026-09-05 17:49:54 | 49.25462 | 8.50796 | 108° | 55km/h | 17439m | 5m/s | -56.5°C | 0.9% | 87.7hPa | 2.6V | 03:59:48 | 01:20:19 | 00:00:00 | |
| BIOWL1-15 | 2026-09-05 17:49:44 | 49.25497 | 8.50575 | 99° | 57km/h | 17393m | 3.5m/s | -56.5°C | 1% | 88.4hPa | 2.6V | 03:59:48 | 01:20:09 | 00:00:00 | |
| DK7TD | 2026-09-05 17:49:43 | 49.25500 | 8.50553 | 101° | 57km/h | 17389m | 5m/s | -56.6°C | 1% | 88.4hPa | 2.7V | 03:59:48 | 01:20:08 | 00:00:00 | |
| BIOWL1-15 | 2026-09-05 17:49:35 | 49.25524 | 8.50324 | 90° | 58km/h | 17341m | 5.2m/s | -57.3°C | 1.1% | 89.1hPa | 2.6V | 03:59:48 | 01:19:58 | 00:00:00 | |
| DK7TD | 2026-09-05 17:49:32 | 49.25524 | 8.50302 | 89° | 57km/h | 17336m | 3.9m/s | -57.3°C | 1.1% | 89.2hPa | 2.6V | 03:59:48 | 01:19:57 | 00:00:00 | |
| BIOWL1-15 | 2026-09-05 17:49:25 | 49.25543 | 8.50103 | 105° | 66km/h | 17294m | 4.4m/s | -57.4°C | 1.1% | 89.8hPa | 2.7V | 04:00:39 | 01:19:48 | 00:00:00 | |
| DM0DOS-11 | 2026-09-05 17:49:24 | 49.25555 | 8.50007 | 98° | 60km/h | 17275m | 4.4m/s | -57.4°C | 4.9% | 90hPa | 2.6V | 03:59:58 | 01:19:44 | 00:00:00 | |
| DK7TD | 2026-09-05 17:49:22 | 49.25547 | 8.50079 | 103° | 66km/h | 17289m | 4.4m/s | -57.4°C | 1.1% | 89.8hPa | 2.7V | 04:00:39 | 01:19:47 | 00:00:00 | |
| NBG1-10 | 2026-09-05 17:49:22 | 49.25547 | 8.50079 | 104° | 60km/h | 17290m | 4.4m/s | -57.4°C | 4.9% | 89.8hPa | 2.7V | 03:59:00 | 01:19:47 | 00:00:00 | |
| DG9SBQ-11 | 2026-09-05 17:49:21 | 49.25547 | 8.50079 | 104° | 66km/h | 17290m | 4.4m/s | -57.4°C | 1.6% | 89.8hPa | 2.7V | 04:00:00 | 00:00:00 | 00:00:00 | |
| DJ2DS-15 | 2026-09-05 17:49:20 | 49.25553 | 8.50030 | 99° | 60km/h | 17280m | 4.2m/s | -57.4°C | 4.9% | 89.9hPa | 2.7V | 00:00:00 | 01:19:45 | 00:00:00 | |
| DB0UT-7 | 2026-09-05 17:49:17 | 49.25560 | 8.49962 | 99° | 58km/h | 17266m | 4.1m/s | -57.4°C | 5.0% | 90.1hPa | 2.7V | 04:00:00 | 00:00:00 | 00:00:00 | |
| DO3MHA-11 | 2026-09-05 17:49:16 | 49.25562 | 8.49940 | 97° | 60km/h | 17261m | 4.7m/s | -57.4°C | 5.0% | 90.2hPa | 2.7V | 00:00:00 | 01:19:41 | 00:00:00 | |
| DM0DOS-11 | 2026-09-05 17:49:14 | 49.25570 | 8.49780 | 94° | 62km/h | 17229m | 5.4m/s | -57.2°C | 4.9% | 90.7hPa | 2.7V | 04:00:08 | 01:19:34 | 00:00:00 | |
| BIOWL1-15 | 2026-09-05 17:49:13 | 49.25565 | 8.49875 | 93° | 58km/h | 17247m | 4.6m/s | -57.4°C | 1.1% | 90.4hPa | 2.7V | 04:00:39 | 01:19:38 | 00:00:00 | |
| DK7TD | 2026-09-05 17:49:11 | 49.25567 | 8.49829 | 95° | 62km/h | 17238m | 4m/s | -57.3°C | 1.1% | 90.6hPa | 2.6V | 04:00:39 | 01:19:36 | 00:00:00 | |
| BIOWL1-15 | 2026-09-05 17:49:05 | 49.25574 | 8.49616 | 87° | 60km/h | 17197m | 4.5m/s | -57°C | 1.1% | 91.1hPa | 2.6V | 04:00:39 | 01:19:27 | 00:00:00 | |
| DM0DOS-11 | 2026-09-05 17:49:04 | 49.25571 | 8.49545 | 87° | 64km/h | 17183m | 4.8m/s | -57°C | 4.9% | 91.3hPa | 2.7V | 04:00:18 | 01:19:24 | 00:00:00 | |
| DK7TD | 2026-09-05 17:49:00 | 49.25572 | 8.49569 | 86° | 62km/h | 17188m | 5m/s | -57.1°C | 1.1% | 91.3hPa | 2.6V | 04:00:39 | 01:19:25 | 00:00:00 | |
| DO1YAY-16 | 2026-09-05 17:49:00 | 49.25572 | 8.49569 | 86° | 62km/h | 17188m | 5.0m/s | -57.1°C | 1.5% | 91.3hPa | 2.6V | 00:00:00 | 00:00:00 | 00:00:00 | |
| DD1CC8 | 2026-09-05 17:48:59 | 49.25570 | 8.49521 | 88° | 62km/h | 17179m | 4.1m/s | -57.0°C | 1.5% | 91.4hPa | 2.6V | 00:00:00 | 00:00:00 | 00:00:00 | |
| DL1ZP-14 | 2026-09-05 17:48:57 | 49.25569 | 8.49474 | 86° | 57km/h | 17169m | 5.1m/s | -57.0°C | 1.6% | 91.5hPa | 2.6V | 00:00:00 | 00:00:00 | 00:00:00 | |
| AU51GT2 | 2026-09-05 17:48:55 | 49.25568 | 8.49452 | 87° | 55km/h | 17165m | 4.1m/s | -57.0°C | 1.6% | 91.6hPa | 2.6V | 00:00:00 | 00:00:00 | 00:00:00 | |
| DM0DOS-11 | 2026-09-05 17:48:54 | 49.25569 | 8.49322 | 88° | 57km/h | 17136m | 4.3m/s | -57°C | 4.9% | 92hPa | 2.6V | 04:00:28 | 01:19:14 | 00:00:00 | |
| BIOWL1-15 | 2026-09-05 17:48:51 | 49.25569 | 8.49366 | 91° | 57km/h | 17146m | 4.5m/s | -57°C | 1.1% | 91.9hPa | 2.7V | 04:00:39 | 01:19:16 | 00:00:00 | |
| DK7TD | 2026-09-05 17:48:50 | 49.25569 | 8.49344 | 89° | 57km/h | 17141m | 5.3m/s | -57°C | 1.2% | 91.9hPa | 2.7V | 04:00:39 | 01:19:15 | 00:00:00 | |
| DF3TZ-5 | 2026-09-05 17:48:45 | 49.25568 | 8.49229 | 89° | 60km/h | 17117m | 4.7m/s | -56.9°C | 1.5% | 92.3hPa | 2.7V | 00:00:00 | 00:00:00 | 00:00:00 | |
| DM0DOS-11 | 2026-09-05 17:48:44 | 49.25568 | 8.49102 | 95° | 49km/h | 17090m | 4.3m/s | -56.9°C | 4.8% | 92.7hPa | 2.7V | 04:00:38 | 01:19:04 | 00:00:00 | |
| BIOWL1-15 | 2026-09-05 17:48:41 | 49.25566 | 8.49141 | 90° | 51km/h | 17099m | 4.4m/s | -56.9°C | 1.1% | 92.5hPa | 2.6V | 04:00:39 | 01:19:06 | 00:00:00 | |
| DK7TD | 2026-09-05 17:48:40 | 49.25567 | 8.49121 | 94° | 51km/h | 17094m | 4.9m/s | -56.9°C | 1.1% | 92.6hPa | 2.6V | 04:00:39 | 01:19:05 | 00:00:00 | |
| DG9SBQ-11 | 2026-09-05 17:48:39 | 49.25568 | 8.49102 | 96° | 49km/h | 17090m | 4.3m/s | -56.9°C | 1.5% | 92.7hPa | 2.6V | 04:00:00 | 00:00:00 | 00:00:00 | |
| BIOWL7-15 | 2026-09-05 17:48:38 | 49.25568 | 8.49102 | 96° | 49km/h | 17090m | 4.3m/s | -56.9°C | 1.5% | 92.7hPa | 2.6V | 00:00:00 | 00:00:00 | 00:00:00 | |
| DB0NH | 2026-09-05 17:48:37 | 49.25570 | 8.49065 | 93° | 57km/h | 17081m | 4.8m/s | -56.8°C | 4.9% | 92.8hPa | 2.6V | 00:00:00 | 01:19:02 | 00:00:00 | |
| DO3MHA-11 | 2026-09-05 17:48:36 | 49.25570 | 8.49047 | 90° | 51km/h | 17077m | 3.4m/s | -56.8°C | 4.8% | 92.9hPa | 2.6V | 00:00:00 | 01:19:01 | 00:00:00 | |
| DM0DOS-11 | 2026-09-05 17:48:34 | 49.25571 | 8.48904 | 89° | 49km/h | 17047m | 3.8m/s | -56.6°C | 4.8% | 93.3hPa | 2.7V | 04:00:48 | 01:18:54 | 00:00:00 | |
| BIOWL1-15 | 2026-09-05 17:48:30 | 49.25571 | 8.48923 | 91° | 51km/h | 17051m | 4.9m/s | -56.6°C | 1.1% | 93.3hPa | 2.7V | 04:01:30 | 01:18:55 | 00:00:00 | |
| DK7TD | 2026-09-05 17:48:29 | 49.25571 | 8.48904 | 89° | 49km/h | 17047m | 3.8m/s | -56.6°C | 1.1% | 93.3hPa | 2.7V | 04:01:30 | 01:18:54 | 00:00:00 | |
| DO1YAY-16 | 2026-09-05 17:48:29 | 49.25571 | 8.48885 | 90° | 47km/h | 17043m | 3.4m/s | -56.5°C | 1.5% | 93.4hPa | 2.7V | 00:00:00 | 00:00:00 | 00:00:00 | |
| DB0UT-9 | 2026-09-05 17:48:27 | 49.25571 | 8.48885 | 92° | 49km/h | 17043m | 3.4m/s | -56.5°C | 1.6% | 93.4hPa | 2.7V | 04:01:00 | 00:00:00 | 00:00:00 | |
| DO3MHA-11 | 2026-09-05 17:48:26 | 49.25571 | 8.48846 | 93° | 53km/h | 17034m | 4.8m/s | -56.5°C | 4.8% | 93.5hPa | 2.7V | 00:00:00 | 01:18:51 | 00:00:00 | |
| DL0LBS | 2026-09-05 17:48:25 | 49.25571 | 8.48846 | 94° | 53km/h | 17034m | 4.8m/s | -56.5°C | 1.6% | 93.5hPa | 2.7V | 04:01:00 | 00:00:00 | 00:00:00 | |
| DM0DOS-11 | 2026-09-05 17:48:24 | 49.25579 | 8.48704 | 91° | 57km/h | 17003m | 4.4m/s | -56.3°C | 4.7% | 94hPa | 2.7V | 04:00:58 | 01:18:44 | 00:00:00 | |
| BIOWL1-15 | 2026-09-05 17:48:21 | 49.25579 | 8.48704 | 92° | 57km/h | 17003m | 4.4m/s | -56.3°C | 1% | 94hPa | 2.7V | 04:01:30 | 01:18:44 | 00:00:00 | |
| DK7TD | 2026-09-05 17:48:18 | 49.25579 | 8.48682 | 92° | 58km/h | 16999m | 3.8m/s | -56.2°C | 1% | 94hPa | 2.7V | 04:01:30 | 01:18:43 | 00:00:00 | |
| DB0UT-7 | 2026-09-05 17:48:17 | 49.25580 | 8.48660 | 94° | 55km/h | 16994m | 4.6m/s | -56.2°C | 4.7% | 94.0hPa | 2.6V | 00:00:00 | 00:00:00 | 00:00:00 | |
| DM3KS-11 | 2026-09-05 17:48:15 | 49.25585 | 8.48574 | 93° | 53km/h | 16975m | 5.0m/s | -56.1°C | 1.5% | 94.4hPa | 2.6V | 00:00:00 | 00:00:00 | 00:00:00 | |
| DM0DOS-11 | 2026-09-05 17:48:14 | 49.25589 | 8.48494 | 97° | 51km/h | 16956m | 4.2m/s | -56°C | 4.6% | 94.7hPa | 2.6V | 04:01:08 | 01:18:34 | 00:00:00 | |
| BIOWL1-15 | 2026-09-05 17:48:09 | 49.25589 | 8.48494 | 97° | 51km/h | 16956m | 4.2m/s | -56°C | 1% | 94.7hPa | 2.6V | 04:01:30 | 01:18:34 | 00:00:00 | |
| DK7TD | 2026-09-05 17:48:08 | 49.25591 | 8.48475 | 96° | 51km/h | 16952m | 3.8m/s | -56°C | 1% | 94.7hPa | 2.6V | 04:01:30 | 01:18:33 | 00:00:00 | |
| DF1GD-15 | 2026-09-05 17:48:07 | 49.25590 | 8.48475 | 97° | 51km/h | 16952m | 3.8m/s | -56.0°C | 1.5% | 94.7hPa | 2.7V | 04:01:00 | 00:00:00 | 00:00:00 | |
| BIOWL9-15 | 2026-09-05 17:48:06 | 49.25593 | 8.48435 | 92° | 51km/h | 16943m | 4.0m/s | -55.9°C | 1.5% | 94.8hPa | 2.7V | 00:00:00 | 00:00:00 | 00:00:00 | |
| DL0LBS | 2026-09-05 17:48:05 | 49.25593 | 8.48435 | 94° | 53km/h | 16944m | 4.0m/s | -55.9°C | 1.5% | 94.8hPa | 2.7V | 04:01:00 | 00:00:00 | 00:00:00 | |
| DM0DOS-11 | 2026-09-05 17:48:04 | 49.25604 | 8.48288 | 98° | 57km/h | 16911m | 4.3m/s | -55.9°C | 4.6% | 95.3hPa | 2.7V | 04:01:18 | 01:18:24 | 00:00:00 | |
| BIOWL1-15 | 2026-09-05 17:48:03 | 49.25604 | 8.48288 | 98° | 57km/h | 16911m | 4.3m/s | -55.9°C | 1% | 95.3hPa | 2.7V | 04:01:30 | 01:18:24 | 00:00:00 | |
| DK7TD | 2026-09-05 17:47:58 | 49.25607 | 8.48267 | 101° | 55km/h | 16906m | 5.5m/s | -55.9°C | 1% | 95.4hPa | 2.6V | 04:01:30 | 01:18:23 | 00:00:00 | |
| DO1YAY-16 | 2026-09-05 17:47:58 | 49.25607 | 8.48267 | 101° | 55km/h | 16906m | 5.5m/s | -55.9°C | -1.0% | 95.4hPa | 2.6V | 00:00:00 | 00:00:00 | 00:00:00 | |
| DB0ND-19 | 2026-09-05 17:47:57 | 49.25613 | 8.48226 | 104° | 55km/h | 16896m | 3.7m/s | -55.9°C | 1.5% | 95.5hPa | 2.6V | 00:00:00 | 00:00:00 | 00:00:00 | |
| BIOWL7-15 | 2026-09-05 17:47:56 | 49.25610 | 8.48246 | 105° | 55km/h | 16901m | 4.8m/s | -55.9°C | 1.5% | 95.5hPa | 2.6V | 00:00:00 | 00:00:00 | 00:00:00 | |
| DJTTGO | 2026-09-05 17:47:55 | 49.25613 | 8.48226 | 106° | 55km/h | 16897m | 3.7m/s | -55.9°C | 1.5% | 95.5hPa | 2.6V | 04:01:00 | 00:00:00 | 00:00:00 | |
| DM0DOS-11 | 2026-09-05 17:47:54 | 49.25633 | 8.48067 | 102° | 57km/h | 16867m | 4.1m/s | -56°C | 4.7% | 96hPa | 2.6V | 04:01:28 | 01:18:14 | 00:00:00 | |
| BIOWL1-15 | 2026-09-05 17:47:49 | 49.25633 | 8.48067 | 103° | 57km/h | 16867m | 4.1m/s | -56°C | 1.1% | 96hPa | 2.6V | 04:01:30 | 01:18:14 | 00:00:00 | |
| DK7TD | 2026-09-05 17:47:47 | 49.25639 | 8.48028 | 102° | 49km/h | 16858m | 4.4m/s | -55.9°C | 1% | 96.1hPa | 2.6V | 04:01:30 | 01:18:12 | 00:00:00 | |
| DB0UT-7 | 2026-09-05 17:47:47 | 49.25639 | 8.48028 | 103° | 60km/h | 16858m | 4.4m/s | -55.9°C | 4.6% | 96.0hPa | 2.6V | 00:00:00 | 01:18:12 | 00:00:00 | |
| KANTATE | 2026-09-05 17:47:46 | 49.25638 | 8.48028 | 103° | 49km/h | 16858m | 4.4m/s | -55.9°C | 0% | 0hPa | 2.7V | 04:01:00 | 00:00:00 | 00:00:00 | |
| DO3MHA-11 | 2026-09-05 17:47:45 | 49.25644 | 8.47990 | 103° | 57km/h | 16850m | 4.0m/s | -55.9°C | 4.6% | 96.2hPa | 2.7V | 00:00:00 | 01:18:10 | 00:00:00 | |
| DM0DOS-11 | 2026-09-05 17:47:44 | 49.25665 | 8.47861 | 104° | 60km/h | 16824m | 3.6m/s | -56°C | 4.7% | 96.6hPa | 2.7V | 04:01:38 | 01:18:04 | 00:00:00 | |
| BIOWL1-15 | 2026-09-05 17:47:42 | 49.25669 | 8.47839 | 107° | 58km/h | 16820m | 4.9m/s | -56°C | 1.1% | 96.7hPa | 2.6V | 04:02:21 | 01:18:03 | 00:00:00 | |
| DK7TD | 2026-09-05 17:47:37 | 49.25674 | 8.47817 | 108° | 58km/h | 16815m | 4.7m/s | -56°C | 1% | 96.8hPa | 2.6V | 04:02:21 | 01:18:02 | 00:00:00 | |
| DG9SBQ-11 | 2026-09-05 17:47:36 | 49.25674 | 8.47817 | 109° | 58km/h | 16815m | 4.7m/s | -56.0°C | 1.5% | 96.8hPa | 2.6V | 04:02:00 | 00:00:00 | 00:00:00 | |
| DO3MHA-11 | 2026-09-05 17:47:35 | 49.25683 | 8.47774 | 108° | 60km/h | 16806m | 5.1m/s | -56.0°C | 4.6% | 96.9hPa | 2.6V | 04:01:00 | 01:18:00 | 00:00:00 | |
| DM0DOS-11 | 2026-09-05 17:47:34 | 49.25711 | 8.47647 | 111° | 60km/h | 16778m | 5.3m/s | -56.1°C | 4.6% | 97.3hPa | 2.6V | 04:01:48 | 01:17:54 | 00:00:00 | |
| BIOWL1-15 | 2026-09-05 17:47:28 | 49.25717 | 8.47625 | 111° | 62km/h | 16773m | 4.5m/s | -56.1°C | 1.1% | 97.4hPa | 2.7V | 04:02:21 | 01:17:53 | 00:00:00 | |
| DK7TD | 2026-09-05 17:47:26 | 49.25728 | 8.47580 | 114° | 64km/h | 16765m | 5.1m/s | -56.1°C | 1.1% | 97.5hPa | 2.6V | 04:02:21 | 01:17:51 | 00:00:00 | |
| BIOWL1-15 | 2026-09-05 17:47:17 | 49.25787 | 8.47375 | 118° | 66km/h | 16726m | 3.5m/s | -56.1°C | 1% | 98.1hPa | 2.7V | 04:02:21 | 01:17:42 | 00:00:00 | |
| DK7TD | 2026-09-05 17:47:15 | 49.25803 | 8.47329 | 116° | 68km/h | 16717m | 4.8m/s | -56.2°C | 1% | 98.3hPa | 2.6V | 04:02:21 | 01:17:40 | 00:00:00 | |
| DO3MHA-11 | 2026-09-05 17:47:15 | 49.25803 | 8.47329 | 116° | 66km/h | 16717m | 4.8m/s | -56.1°C | 4.6% | 98.2hPa | 2.6V | 00:00:00 | 01:17:40 | 00:00:00 | |
| DM0DOS-11 | 2026-09-05 17:47:14 | 49.25844 | 8.47194 | 112° | 66km/h | 16689m | 5.1m/s | -56.3°C | 4.7% | 98.7hPa | 2.7V | 04:02:08 | 01:17:34 | 00:00:00 | |
| BIOWL1-15 | 2026-09-05 17:47:09 | 49.25864 | 8.47122 | 116° | 68km/h | 16676m | 5.2m/s | -56.4°C | 1.1% | 98.9hPa | 2.6V | 04:02:21 | 01:17:31 | 00:00:00 | |
| DJTTGO | 2026-09-05 17:47:09 | 49.25844 | 8.47193 | 114° | 66km/h | 16689m | 5.1m/s | -56.3°C | 1.6% | 98.7hPa | 2.6V | 04:02:00 | 00:00:00 | 00:00:00 | |
| KANTATE | 2026-09-05 17:47:08 | 49.25844 | 8.47193 | 114° | 66km/h | 16689m | 5.1m/s | -56.3°C | 0% | 0hPa | 2.6V | 00:00:00 | 00:00:00 | 00:00:00 | |
| BIOWL7-15 | 2026-09-05 17:47:07 | 49.25850 | 8.47170 | 114° | 68km/h | 16685m | 4.1m/s | -56.4°C | 1.6% | 98.8hPa | 2.6V | 04:02:00 | 00:00:00 | 00:00:00 | |
| DF1GD-15 | 2026-09-05 17:47:06 | 49.25857 | 8.47146 | 115° | 68km/h | 16681m | 4.0m/s | -56.4°C | 1.6% | 98.8hPa | 2.6V | 04:02:00 | 00:00:00 | 00:00:00 | |
| DO3MHA-11 | 2026-09-05 17:47:05 | 49.25872 | 8.47099 | 118° | 75km/h | 16671m | 3.6m/s | -56.3°C | 4.7% | 98.9hPa | 2.6V | 00:00:00 | 01:17:30 | 00:00:00 | |
| DM0DOS-11 | 2026-09-05 17:47:04 | 49.25928 | 8.46945 | 120° | 77km/h | 16645m | 4.1m/s | -56.8°C | 4.8% | 99.4hPa | 2.6V | 04:02:18 | 01:17:24 | 00:00:00 | |
| DK7TD | 2026-09-05 17:47:03 | 49.25890 | 8.47049 | 119° | 75km/h | 16663m | 5m/s | -56.5°C | 1.1% | 99.1hPa | 2.7V | 04:02:21 | 01:17:28 | 00:00:00 | |
| BIOWL1-15 | 2026-09-05 17:46:57 | 49.25962 | 8.46845 | 115° | 68km/h | 16628m | 4.4m/s | -56.9°C | 1.2% | 99.6hPa | 2.6V | 04:03:12 | 01:17:20 | 00:00:00 | |
| DB0ND-19 | 2026-09-05 17:46:55 | 49.25969 | 8.46822 | 115° | 62km/h | 16623m | 4.6m/s | -56.9°C | 1.6% | 99.7hPa | 2.7V | 00:00:00 | 00:00:00 | 00:00:00 | |
| DM0DOS-11 | 2026-09-05 17:46:54 | 49.26006 | 8.46708 | 117° | 71km/h | 16602m | 4.5m/s | -56.9°C | 4.9% | 100hPa | 2.7V | 04:02:28 | 01:17:14 | 00:00:00 | |
| DK7TD | 2026-09-05 17:46:52 | 49.25983 | 8.46778 | 116° | 64km/h | 16615m | 4.1m/s | -56.9°C | 1.3% | 99.8hPa | 2.7V | 04:03:12 | 01:17:17 | 00:00:00 | |
| DK5PH-5 | 2026-09-05 17:46:51 | 49.25990 | 8.46756 | 116° | 75km/h | 16611m | 4.9m/s | -56.9°C | 4.9% | 99.8hPa | 2.6V | 00:00:00 | 01:17:16 | 00:00:00 | |
| DM7RM-13 | 2026-09-05 17:46:50 | 49.25997 | 8.46732 | 118° | 69km/h | 16606m | 3.9m/s | -56.9°C | 1.7% | 100.0hPa | 2.6V | 04:03:00 | 00:00:00 | 00:00:00 | |
| DB0UT-7 | 2026-09-05 17:46:47 | 49.26023 | 8.46660 | 120° | 75km/h | 16592m | 4.1m/s | -56.8°C | 4.9% | 100.2hPa | 2.6V | 04:02:00 | 01:17:12 | 00:00:00 | |
| BIOWL7-15 | 2026-09-05 17:46:46 | 49.26023 | 8.46659 | 120° | 71km/h | 16592m | 4.2m/s | -56.9°C | 1.7% | 100.2hPa | 2.6V | 04:03:00 | 00:00:00 | 00:00:00 | |
| DO3MHA-11 | 2026-09-05 17:46:45 | 49.26040 | 8.46610 | 118° | 73km/h | 16584m | 4.9m/s | -56.8°C | 5.0% | 100.3hPa | 2.6V | 04:02:00 | 01:17:10 | 00:00:00 | |
| DM0DOS-11 | 2026-09-05 17:46:44 | 49.26091 | 8.46463 | 117° | 73km/h | 16558m | 4.6m/s | -56.8°C | 4.9% | 100.8hPa | 2.7V | 04:02:38 | 01:17:04 | 00:00:00 | |
| BIOWL1-15 | 2026-09-05 17:46:44 | 49.26049 | 8.46585 | 116° | 73km/h | 16579m | 3.8m/s | -56.9°C | 1.3% | 100.4hPa | 2.7V | 04:03:12 | 01:17:09 | 00:00:00 | |
| DK7TD | 2026-09-05 17:46:39 | 49.26091 | 8.46463 | 118° | 73km/h | 16558m | 4.6m/s | -56.8°C | 1.3% | 100.8hPa | 2.7V | 04:03:12 | 01:17:04 | 00:00:00 | |
| BIOWL1-15 | 2026-09-05 17:46:34 | 49.26139 | 8.46338 | 122° | 77km/h | 16537m | 3.8m/s | -56.6°C | 1.3% | 101.1hPa | 2.6V | 04:03:12 | 01:16:59 | 00:00:00 | |
| DK7TD | 2026-09-05 17:46:28 | 49.26194 | 8.46180 | 117° | 75km/h | 16510m | 3.3m/s | -56.7°C | 1.3% | 101.6hPa | 2.6V | 04:03:12 | 01:16:53 | 00:00:00 | |
| DJTTGO | 2026-09-05 17:46:27 | 49.26194 | 8.46180 | 118° | 75km/h | 16511m | 3.3m/s | -56.7°C | 1.7% | 101.6hPa | 2.7V | 00:00:00 | 00:00:00 | 00:00:00 | |
| DO3MHA-11 | 2026-09-05 17:46:25 | 49.26219 | 8.46099 | 115° | 78km/h | 16497m | 3.7m/s | -56.6°C | 4.9% | 101.7hPa | 2.7V | 00:00:00 | 01:16:50 | 00:00:00 | |
| DM0DOS-11 | 2026-09-05 17:46:24 | 49.26273 | 8.45938 | 115° | 78km/h | 16470m | 3.6m/s | -56.7°C | 4.8% | 102.2hPa | 2.7V | 04:02:58 | 01:16:44 | 00:00:00 | |
| BIOWL1-15 | 2026-09-05 17:46:24 | 49.26228 | 8.46072 | 116° | 78km/h | 16493m | 4.6m/s | -56.7°C | 1.3% | 101.8hPa | 2.7V | 04:03:12 | 01:16:49 | 00:00:00 | |
| DK7TD | 2026-09-05 17:46:16 | 49.26299 | 8.45857 | 116° | 77km/h | 16457m | 3.8m/s | -56.8°C | 1.4% | 102.4hPa | 2.6V | 04:03:12 | 01:16:41 | 00:00:00 | |
| DJ2DS-15 | 2026-09-05 17:46:16 | 49.26299 | 8.45857 | 117° | 75km/h | 16457m | 3.7m/s | -56.7°C | 4.8% | 102.3hPa | 2.6V | 00:00:00 | 01:16:41 | 00:00:00 | |
| DO3MHA-11 | 2026-09-05 17:46:15 | 49.26307 | 8.45830 | 116° | 75km/h | 16453m | 4.8m/s | -56.8°C | 4.8% | 102.4hPa | 2.6V | 00:00:00 | 01:16:40 | 00:00:00 | |
| DM0DOS-11 | 2026-09-05 17:46:14 | 49.26350 | 8.45668 | 109° | 73km/h | 16428m | 4.2m/s | -57.1°C | 4.9% | 102.8hPa | 2.7V | 04:03:08 | 01:16:34 | 00:00:00 | |
| BIOWL1-15 | 2026-09-05 17:46:13 | 49.26323 | 8.45775 | 112° | 78km/h | 16444m | 3.3m/s | -56.9°C | 1.4% | 102.6hPa | 2.7V | 04:03:12 | 01:16:38 | 00:00:00 | |
| BIOWL1-15 | 2026-09-05 17:46:06 | 49.26395 | 8.45480 | 112° | 77km/h | 16398m | 4.6m/s | -57.3°C | 1.5% | 103.3hPa | 2.6V | 04:04:03 | 01:16:27 | 00:00:00 | |
| DK7TD | 2026-09-05 17:46:05 | 49.26375 | 8.45560 | 110° | 73km/h | 16411m | 4.8m/s | -57.3°C | 1.5% | 103.2hPa | 2.7V | 04:03:12 | 01:16:30 | 00:00:00 | |
| DB0NH | 2026-09-05 17:46:05 | 49.26375 | 8.45560 | 110° | 78km/h | 16411m | 4.8m/s | -57.2°C | 5.0% | 103.1hPa | 2.7V | 04:03:00 | 01:16:30 | 00:00:00 | |
| DM0DOS-11 | 2026-09-05 17:46:04 | 49.26418 | 8.45398 | 114° | 77km/h | 16386m | 4.6m/s | -57.3°C | 4.9% | 103.5hPa | 2.7V | 04:03:18 | 01:16:24 | 00:00:00 | |
| DK7TD | 2026-09-05 17:45:55 | 49.26450 | 8.45285 | 111° | 80km/h | 16369m | 3.6m/s | -57.6°C | 1.5% | 103.8hPa | 2.6V | 04:04:03 | 01:16:20 | 00:00:00 | |
| BIOWL1-15 | 2026-09-05 17:45:51 | 49.26477 | 8.45170 | 109° | 80km/h | 16351m | 5m/s | -58.1°C | 1.6% | 104.1hPa | 2.7V | 04:04:03 | 01:16:16 | 00:00:00 | |
| DK7TD | 2026-09-05 17:45:44 | 49.26526 | 8.44969 | 112° | 82km/h | 16322m | 3.8m/s | -58.5°C | 1.6% | 104.6hPa | 2.7V | 04:04:03 | 01:16:09 | 00:00:00 | |
| BIOWL1-15 | 2026-09-05 17:45:42 | 49.26558 | 8.44852 | 113° | 82km/h | 16305m | 4.9m/s | -58.9°C | 1.7% | 104.9hPa | 2.7V | 04:04:03 | 01:16:05 | 00:00:00 | |
| DL0LBS | 2026-09-05 17:45:41 | 49.26542 | 8.44910 | 113° | 82km/h | 16314m | 4.8m/s | -58.6°C | 2.0% | 104.7hPa | 2.6V | 04:04:00 | 00:00:00 | 00:00:00 | |
| DG9SBQ-11 | 2026-09-05 17:45:40 | 49.26549 | 8.44881 | 113° | 80km/h | 16310m | 4.0m/s | -58.8°C | 1.9% | 104.8hPa | 2.6V | 04:04:00 | 00:00:00 | 00:00:00 | |
| DF3TZ-5 | 2026-09-05 17:45:39 | 49.26566 | 8.44823 | 113° | 82km/h | 16300m | 4.7m/s | -58.9°C | 2.0% | 105.0hPa | 2.6V | 00:00:00 | 00:00:00 | 00:00:00 | |
| DH7VM-15 | 2026-09-05 17:45:38 | 49.26566 | 8.44823 | 115° | 82km/h | 16300m | 4.7m/s | -58.9°C | 2.0% | 105.0hPa | 2.6V | 00:00:00 | 00:00:00 | 00:00:00 | |
| CB1BUN | 2026-09-05 17:45:37 | 49.26574 | 8.44793 | 115° | 82km/h | 16296m | 3.9m/s | -58.9°C | 2.0% | 105.0hPa | 2.6V | 04:04:00 | 00:00:00 | 00:00:00 | |
| DJ2DS-15 | 2026-09-05 17:45:36 | 49.26591 | 8.44736 | 114° | 82km/h | 16287m | 4.1m/s | -58.9°C | 5.5% | 105.1hPa | 2.6V | 00:00:00 | 01:16:01 | 00:00:00 | |
| DO3MHA-11 | 2026-09-05 17:45:35 | 49.26599 | 8.44708 | 114° | 84km/h | 16283m | 3.6m/s | -58.9°C | 5.5% | 105.2hPa | 2.6V | 00:00:00 | 01:16:00 | 00:00:00 | |
| DM0DOS-11 | 2026-09-05 17:45:34 | 49.26645 | 8.44527 | 109° | 86km/h | 16257m | 4.3m/s | -59°C | 5.5% | 105.7hPa | 2.6V | 04:03:48 | 01:15:54 | 00:00:00 | |
| DK7TD | 2026-09-05 17:45:33 | 49.26615 | 8.44649 | 112° | 84km/h | 16274m | 3.8m/s | -59°C | 1.7% | 105.4hPa | 2.6V | 04:04:03 | 01:15:58 | 00:00:00 | |
| BIOWL1-15 | 2026-09-05 17:45:30 | 49.26638 | 8.44558 | 109° | 84km/h | 16262m | 4m/s | -59°C | 1.8% | 105.6hPa | 2.7V | 04:04:03 | 01:15:55 | 00:00:00 | |
| DG9SBQ-11 | 2026-09-05 17:45:28 | 49.26645 | 8.44527 | 110° | 86km/h | 16258m | 4.3m/s | -59.1°C | 2.0% | 105.7hPa | 2.7V | 04:04:00 | 00:00:00 | 00:00:00 | |
| DM7RM-13 | 2026-09-05 17:45:26 | 49.26658 | 8.44465 | 109° | 84km/h | 16249m | 3.5m/s | -59.2°C | 2.1% | 105.8hPa | 2.7V | 04:04:00 | 00:00:00 | 00:00:00 | |
| DO3MHA-11 | 2026-09-05 17:45:25 | 49.26671 | 8.44403 | 107° | 80km/h | 16241m | 4.4m/s | -59.2°C | 5.7% | 105.9hPa | 2.7V | 00:00:00 | 01:15:50 | 00:00:00 | |
| DM0DOS-11 | 2026-09-05 17:45:24 | 49.26709 | 8.44227 | 111° | 77km/h | 16215m | 4.1m/s | -59.3°C | 5.7% | 106.4hPa | 2.7V | 04:03:58 | 01:15:44 | 00:00:00 | |
| DK7TD | 2026-09-05 17:45:23 | 49.26682 | 8.44343 | 107° | 82km/h | 16232m | 5.2m/s | -59.3°C | 1.8% | 106.1hPa | 2.6V | 04:04:03 | 01:15:48 | 00:00:00 | |
| BIOWL1-15 | 2026-09-05 17:45:21 | 49.26709 | 8.44227 | 112° | 77km/h | 16215m | 4.1m/s | -59.3°C | 1.8% | 106.4hPa | 2.7V | 04:04:03 | 01:15:44 | 00:00:00 | |
| DK5PH-5 | 2026-09-05 17:45:21 | 49.26695 | 8.44284 | 110° | 80km/h | 16224m | 3.4m/s | -59.2°C | 5.7% | 106.2hPa | 2.7V | 04:03:00 | 01:15:46 | 00:00:00 | |
| DL1ZP-14 | 2026-09-05 17:45:19 | 49.26709 | 8.44227 | 111° | 77km/h | 16215m | 4.1m/s | -59.3°C | 2.0% | 106.4hPa | 2.7V | 00:00:00 | 00:00:00 | 00:00:00 | |
| AU51GT2 | 2026-09-05 17:45:18 | 49.26716 | 8.44199 | 113° | 77km/h | 16211m | 4.4m/s | -59.3°C | 2.0% | 106.5hPa | 2.6V | 00:00:00 | 00:00:00 | 00:00:00 | |
| DB0UT-7 | 2026-09-05 17:45:17 | 49.26724 | 8.44171 | 115° | 80km/h | 16207m | 4.4m/s | -59.3°C | 5.7% | 106.5hPa | 2.6V | 00:00:00 | 00:00:00 | 00:00:00 | |
| DJ2DS-15 | 2026-09-05 17:45:16 | 49.26732 | 8.44143 | 114° | 80km/h | 16203m | 3.6m/s | -59.3°C | 5.7% | 106.5hPa | 2.6V | 00:00:00 | 01:15:41 | 00:00:00 | |
| DO3MHA-11 | 2026-09-05 17:45:15 | 49.26740 | 8.44115 | 113° | 78km/h | 16199m | 4.0m/s | -59.3°C | 5.7% | 106.6hPa | 2.6V | 00:00:00 | 01:15:40 | 00:00:00 | |
| DM0DOS-11 | 2026-09-05 17:45:14 | 49.26781 | 8.43942 | 108° | 80km/h | 16174m | 3.9m/s | -59.5°C | 5.6% | 107.1hPa | 2.6V | 04:04:08 | 01:15:34 | 00:00:00 | |
| DK7TD | 2026-09-05 17:45:11 | 49.26768 | 8.44001 | 110° | 80km/h | 16182m | 4.5m/s | -59.4°C | 1.8% | 106.9hPa | 2.6V | 04:06:36 | 01:15:36 | 00:00:00 | |
| BIOWL1-15 | 2026-09-05 17:45:09 | 49.26781 | 8.43942 | 109° | 80km/h | 16174m | 3.9m/s | -59.5°C | 1.7% | 107.1hPa | 2.6V | 04:04:54 | 01:15:34 | 00:00:00 | |
| DF3TZ-5 | 2026-09-05 17:45:08 | 49.26788 | 8.43913 | 108° | 77km/h | 16170m | 5.0m/s | -59.6°C | 2.0% | 107.2hPa | 2.7V | 00:00:00 | 00:00:00 | 00:00:00 | |
| DM7RM-13 | 2026-09-05 17:45:06 | 49.26794 | 8.43884 | 110° | 77km/h | 16165m | 3.9m/s | -59.7°C | 2.1% | 107.3hPa | 2.7V | 04:04:00 | 00:00:00 | 00:00:00 | |
| DO3MHA-11 | 2026-09-05 17:45:05 | 49.26807 | 8.43828 | 110° | 82km/h | 16157m | 4.6m/s | -59.6°C | 5.9% | 107.3hPa | 2.7V | 04:04:00 | 01:15:30 | 00:00:00 | |
| DM0DOS-11 | 2026-09-05 17:45:04 | 49.26836 | 8.43649 | 101° | 84km/h | 16130m | 4.3m/s | -59.5°C | 5.8% | 107.8hPa | 2.7V | 04:04:18 | 01:15:24 | 00:00:00 | |
| DK7TD | 2026-09-05 17:44:59 | 49.26837 | 8.43649 | 101° | 84km/h | 16130m | 4.3m/s | -59.5°C | 1.9% | 107.8hPa | 2.7V | 04:06:36 | 01:15:24 | 00:00:00 | |
| DJ2DS-15 | 2026-09-05 17:44:56 | 49.26849 | 8.43553 | 102° | 80km/h | 16117m | 3.9m/s | -59.4°C | 5.8% | 108.0hPa | 2.7V | 04:04:00 | 01:15:21 | 00:00:00 | |
| DG9SBQ-11 | 2026-09-05 17:44:55 | 49.26849 | 8.43553 | 102° | 84km/h | 16117m | 3.9m/s | -59.4°C | 2.1% | 108.1hPa | 2.7V | 04:04:00 | 00:00:00 | 00:00:00 | |
| DM0DOS-11 | 2026-09-05 17:44:54 | 49.26884 | 8.43345 | 105° | 77km/h | 16088m | 3.6m/s | -59.3°C | 5.8% | 108.6hPa | 2.7V | 04:04:28 | 01:15:14 | 00:00:00 | |
| BIOWL1-15 | 2026-09-05 17:44:49 | 49.26884 | 8.43345 | 105° | 77km/h | 16089m | 3.6m/s | -59.3°C | 1.8% | 108.6hPa | 2.7V | 04:04:54 | 01:15:14 | 00:00:00 | |
| DK7TD | 2026-09-05 17:44:48 | 49.26889 | 8.43316 | 107° | 77km/h | 16084m | 5.1m/s | -59.3°C | 1.9% | 108.6hPa | 2.7V | 04:06:36 | 01:15:13 | 00:00:00 | |
| DB0UT-7 | 2026-09-05 17:44:47 | 49.26895 | 8.43287 | 108° | 78km/h | 16079m | 4.6m/s | -59.3°C | 5.8% | 108.7hPa | 2.7V | 00:00:00 | 01:15:12 | 00:00:00 | |
| DM7RM-13 | 2026-09-05 17:44:46 | 49.26895 | 8.43287 | 109° | 78km/h | 16079m | 4.6m/s | -59.3°C | 2.1% | 108.7hPa | 2.6V | 04:04:00 | 00:00:00 | 00:00:00 | |
| DO3MHA-11 | 2026-09-05 17:44:45 | 49.26908 | 8.43229 | 107° | 80km/h | 16071m | 5.4m/s | -59.2°C | 5.7% | 108.8hPa | 2.6V | 00:00:00 | 01:15:10 | 00:00:00 | |
| DM0DOS-11 | 2026-09-05 17:44:44 | 49.26944 | 8.43048 | 110° | 80km/h | 16043m | 4m/s | -59.2°C | 5.8% | 109.4hPa | 2.6V | 04:04:38 | 01:15:04 | 00:00:00 | |
| BIOWL1-15 | 2026-09-05 17:44:38 | 49.26951 | 8.43019 | 110° | 78km/h | 16038m | 5.2m/s | -59.3°C | 1.9% | 109.4hPa | 2.6V | 04:04:54 | 01:15:03 | 00:00:00 | |
| DK7TD | 2026-09-05 17:44:36 | 49.26965 | 8.42964 | 112° | 75km/h | 16030m | 4.2m/s | -59.3°C | 1.9% | 109.6hPa | 2.7V | 04:06:36 | 01:15:01 | 00:00:00 | |
| DJ2DS-15 | 2026-09-05 17:44:36 | 49.26964 | 8.42964 | 113° | 78km/h | 16030m | 4.2m/s | -59.2°C | 5.8% | 109.5hPa | 2.7V | 00:00:00 | 01:15:01 | 00:00:00 | |
| DO3MHA-11 | 2026-09-05 17:44:35 | 49.26972 | 8.42937 | 115° | 78km/h | 16025m | 5.0m/s | -59.2°C | 5.8% | 109.6hPa | 2.6V | 00:00:00 | 01:15:00 | 00:00:00 | |
| DM0DOS-11 | 2026-09-05 17:44:34 | 49.27016 | 8.42775 | 112° | 80km/h | 16000m | 4.8m/s | -59.1°C | 5.8% | 110.1hPa | 2.6V | 04:04:48 | 01:14:54 | 00:00:00 | |
| BIOWL1-15 | 2026-09-05 17:44:28 | 49.27025 | 8.42746 | 114° | 80km/h | 15995m | 4.2m/s | -59.1°C | 1.9% | 110.2hPa | 2.6V | 04:04:54 | 01:14:53 | 00:00:00 | |
| DK7TD | 2026-09-05 17:44:25 | 49.27050 | 8.42661 | 115° | 78km/h | 15982m | 3.9m/s | -59°C | 1.9% | 110.4hPa | 2.6V | 04:06:36 | 01:14:50 | 00:00:00 | |
| DO3MHA-11 | 2026-09-05 17:44:24 | 49.27058 | 8.42634 | 118° | 80km/h | 15979m | 4.5m/s | -59.0°C | 5.8% | 110.5hPa | 2.6V | 00:00:00 | 01:14:49 | 00:00:00 | |
| DM0DOS-11 | 2026-09-05 17:44:23 | 49.27105 | 8.42499 | 114° | 80km/h | 15957m | 3.6m/s | -58.8°C | 5.8% | 110.9hPa | 2.6V | 04:04:58 | 01:14:44 | 00:00:00 | |
| BIOWL1-15 | 2026-09-05 17:44:20 | 49.27113 | 8.42470 | 115° | 82km/h | 15954m | 3.9m/s | -58.8°C | 1.9% | 110.9hPa | 2.6V | 04:05:45 | 01:14:43 | 00:00:00 | |
| DK7TD | 2026-09-05 17:44:15 | 49.27142 | 8.42383 | 118° | 86km/h | 15941m | 3.2m/s | -58.7°C | 1.9% | 111.2hPa | 2.7V | 04:06:36 | 01:14:40 | 00:00:00 | |
| BIOWL1-15 | 2026-09-05 17:44:07 | 49.27219 | 8.42158 | 117° | 78km/h | 15907m | 4m/s | -58.6°C | 1.9% | 111.8hPa | 2.6V | 04:05:45 | 01:14:32 | 00:00:00 | |
| DK7TD | 2026-09-05 17:44:05 | 49.27237 | 8.42103 | 117° | 80km/h | 15898m | 4.8m/s | -58.6°C | 1.9% | 111.9hPa | 2.6V | 04:06:36 | 01:14:30 | 00:00:00 | |
| DB0NH | 2026-09-05 17:44:05 | 49.27237 | 8.42103 | 117° | 78km/h | 15898m | 4.8m/s | -58.5°C | 5.7% | 111.9hPa | 2.7V | 00:00:00 | 01:14:30 | 00:00:00 | |
| DM0DOS-11 | 2026-09-05 17:44:04 | 49.27294 | 8.41935 | 120° | 82km/h | 15872m | 3.7m/s | -58.5°C | 5.7% | 112.4hPa | 2.7V | 04:05:18 | 01:14:24 | 00:00:00 | |
| BIOWL1-15 | 2026-09-05 17:43:56 | 49.27324 | 8.41855 | 118° | 75km/h | 15859m | 4.2m/s | -58.5°C | 1.9% | 112.6hPa | 2.6V | 04:05:45 | 01:14:21 | 00:00:00 | |
| DJ2DS-15 | 2026-09-05 17:43:56 | 49.27324 | 8.41855 | 118° | 75km/h | 15859m | 4.2m/s | -58.4°C | 5.6% | 112.6hPa | 2.6V | 00:00:00 | 01:14:21 | 00:00:00 | |
| DO3MHA-11 | 2026-09-05 17:43:54 | 49.27341 | 8.41804 | 118° | 80km/h | 15851m | 4.7m/s | -58.4°C | 5.6% | 112.7hPa | 2.6V | 00:00:00 | 01:14:19 | 00:00:00 | |
| DM0DOS-11 | 2026-09-05 17:43:53 | 49.27396 | 8.41639 | 118° | 84km/h | 15824m | 5m/s | -58.5°C | 5.6% | 113.3hPa | 2.6V | 04:05:29 | 01:14:13 | 00:00:00 | |
| DK7TD | 2026-09-05 17:43:53 | 49.27350 | 8.41778 | 118° | 77km/h | 15846m | 4.2m/s | -58.5°C | 2% | 112.9hPa | 2.6V | 04:06:36 | 01:14:18 | 00:00:00 | |
| BIOWL1-15 | 2026-09-05 17:43:46 | 49.27417 | 8.41582 | 119° | 84km/h | 15815m | 4.5m/s | -58.5°C | 2% | 113.4hPa | 2.6V | 04:05:45 | 01:14:11 | 00:00:00 | |
| DO3MHA-11 | 2026-09-05 17:43:44 | 49.27436 | 8.41525 | 116° | 75km/h | 15806m | 3.8m/s | -58.5°C | 5.7% | 113.6hPa | 2.7V | 00:00:00 | 01:14:09 | 00:00:00 | |
| DM0DOS-11 | 2026-09-05 17:43:43 | 49.27485 | 8.41367 | 112° | 73km/h | 15781m | 4.8m/s | -58.7°C | 5.7% | 114hPa | 2.7V | 04:05:39 | 01:14:03 | 00:00:00 | |
| DK7TD | 2026-09-05 17:43:42 | 49.27453 | 8.41470 | 116° | 77km/h | 15799m | 4.6m/s | -58.6°C | 2.1% | 113.7hPa | 2.6V | 04:06:36 | 01:14:07 | 00:00:00 | |
| BIOWL1-15 | 2026-09-05 17:43:37 | 49.27507 | 8.41287 | 115° | 77km/h | 15768m | 4.3m/s | -58.9°C | 2.2% | 114.3hPa | 2.6V | 04:05:45 | 01:14:00 | 00:00:00 | |
| DJ2DS-15 | 2026-09-05 17:43:36 | 49.27499 | 8.41313 | 114° | 80km/h | 15773m | 5.0m/s | -58.7°C | 5.7% | 114.1hPa | 2.7V | 00:00:00 | 01:14:01 | 00:00:00 | |
| DB0NH | 2026-09-05 17:43:35 | 49.27507 | 8.41286 | 115° | 80km/h | 15769m | 4.3m/s | -58.8°C | 5.8% | 114.2hPa | 2.6V | 04:05:00 | 01:14:00 | 00:00:00 | |
| DO3MHA-11 | 2026-09-05 17:43:34 | 49.27516 | 8.41259 | 116° | 80km/h | 15764m | 3.8m/s | -58.9°C | 5.9% | 114.3hPa | 2.6V | 00:00:00 | 01:13:59 | 00:00:00 | |
| DM0DOS-11 | 2026-09-05 17:43:33 | 49.27569 | 8.41091 | 115° | 80km/h | 15738m | 4.7m/s | -59°C | 5.9% | 114.8hPa | 2.6V | 04:05:49 | 01:13:53 | 00:00:00 | |
| DK7TD | 2026-09-05 17:43:31 | 49.27542 | 8.41175 | 116° | 82km/h | 15751m | 4.1m/s | -59°C | 2.3% | 114.6hPa | 2.7V | 04:06:36 | 01:13:56 | 00:00:00 | |
| BIOWL1-15 | 2026-09-05 17:43:24 | 49.27603 | 8.40979 | 116° | 78km/h | 15720m | 4.4m/s | -59°C | 2.3% | 115.1hPa | 2.6V | 04:06:36 | 01:13:49 | 00:00:00 | |
| BIOWL1-15 | 2026-09-05 17:43:13 | 49.27731 | 8.40599 | 118° | 80km/h | 15658m | 4m/s | -58.8°C | 2.5% | 116.3hPa | 2.6V | 04:06:36 | 01:13:35 | 00:00:00 | |
| DK7TD | 2026-09-05 17:43:03 | 49.27798 | 8.40406 | 119° | 78km/h | 15629m | 4.6m/s | -59.2°C | 2.5% | 116.8hPa | 2.6V | 04:06:36 | 01:13:28 | 00:00:00 | |
| DM0DOS-11 | 2026-09-05 17:43:02 | 49.27856 | 8.40246 | 116° | 82km/h | 15605m | 3.6m/s | -59.3°C | 6.1% | 117.3hPa | 2.6V | 04:06:20 | 01:13:22 | 00:00:00 | |
| BIOWL1-15 | 2026-09-05 17:43:02 | 49.27807 | 8.40379 | 120° | 77km/h | 15625m | 4.4m/s | -59.2°C | 2.5% | 116.9hPa | 2.7V | 04:06:36 | 01:13:27 | 00:00:00 | |
| DJ2DS-15 | 2026-09-05 17:43:00 | 49.27828 | 8.40328 | 120° | 77km/h | 15617m | 3.5m/s | -59.2°C | 2.5% | 117.1hPa | 2.6V | 00:00:00 | 00:00:00 | 00:00:00 | |
| HARRO8 | 2026-09-05 17:42:57 | 49.27866 | 8.40218 | 117° | 82km/h | 15601m | 4.8m/s | -59.3°C | 2.5% | 117.4hPa | 2.6V | 00:00:00 | 00:00:00 | 00:00:00 | |
| DJ2DS-15 | 2026-09-05 17:42:56 | 49.27866 | 8.40218 | 118° | 88km/h | 15601m | 4.8m/s | -59.2°C | 6.1% | 117.3hPa | 2.6V | 00:00:00 | 01:13:21 | 00:00:00 | |
| DL0LBS | 2026-09-05 17:42:55 | 49.27866 | 8.40218 | 118° | 84km/h | 15601m | 4.8m/s | -59.3°C | 2.5% | 117.4hPa | 2.6V | 04:06:00 | 00:00:00 | 00:00:00 | |
| DO3MHA-11 | 2026-09-05 17:42:54 | 49.27886 | 8.40159 | 119° | 86km/h | 15592m | 3.9m/s | -59.2°C | 6.2% | 117.5hPa | 2.6V | 00:00:00 | 01:13:19 | 00:00:00 | |
| AZAK | 2026-09-05 17:42:53 | 49.27886 | 8.40159 | 119° | 88km/h | 15592m | 3.9m/s | -59.3°C | 2.5% | 117.5hPa | 2.6V | 04:06:00 | 00:00:00 | 00:00:00 | |
| DM0DOS-11 | 2026-09-05 17:42:52 | 49.27960 | 8.39953 | 118° | 86km/h | 15561m | 4.9m/s | -59.5°C | 6.3% | 118.1hPa | 2.6V | 04:06:30 | 01:13:12 | 00:00:00 | |
| BIOWL1-15 | 2026-09-05 17:42:51 | 49.27917 | 8.40070 | 119° | 88km/h | 15578m | 4.2m/s | -59.3°C | 2.7% | 117.8hPa | 2.6V | 04:06:36 | 01:13:16 | 00:00:00 | |
| DK7TD | 2026-09-05 17:42:50 | 49.27927 | 8.40040 | 120° | 88km/h | 15574m | 4.7m/s | -59.4°C | 2.6% | 117.9hPa | 2.6V | 04:06:36 | 01:13:15 | 00:00:00 | |
| DD1CC8 | 2026-09-05 17:42:46 | 49.27970 | 8.39924 | 117° | 84km/h | 15557m | 3.3m/s | -59.6°C | 2.6% | 118.2hPa | 2.7V | 00:00:00 | 00:00:00 | 00:00:00 | |
| DG9SBQ-11 | 2026-09-05 17:42:45 | 49.27970 | 8.39924 | 119° | 84km/h | 15557m | 3.3m/s | -59.6°C | 2.6% | 118.2hPa | 2.7V | 04:06:00 | 00:00:00 | 00:00:00 | |
| DO3MHA-11 | 2026-09-05 17:42:44 | 49.27990 | 8.39867 | 121° | 91km/h | 15549m | 5.0m/s | -59.7°C | 6.4% | 118.3hPa | 2.7V | 00:00:00 | 01:13:09 | 00:00:00 | |
| BIOWL7-15 | 2026-09-05 17:42:43 | 49.27991 | 8.39867 | 121° | 86km/h | 15549m | 5.0m/s | -59.7°C | 2.6% | 118.3hPa | 2.7V | 00:00:00 | 00:00:00 | 00:00:00 | |
| DM0DOS-11 | 2026-09-05 17:42:42 | 49.28080 | 8.39667 | 126° | 97km/h | 15518m | 4.1m/s | -60°C | 6.5% | 119hPa | 2.7V | 04:06:40 | 01:13:02 | 00:00:00 | |
| BIOWL1-15 | 2026-09-05 17:42:42 | 49.28039 | 8.39755 | 124° | 88km/h | 15532m | 4m/s | -60°C | 2.9% | 118.7hPa | 2.6V | 04:07:27 | 01:13:05 | 00:00:00 | |
| DK7TD | 2026-09-05 17:42:39 | 49.28051 | 8.39726 | 125° | 91km/h | 15527m | 4.1m/s | -60°C | 2.8% | 118.8hPa | 2.6V | 04:10:00 | 01:13:04 | 00:00:00 | |
| DF7PN | 2026-09-05 17:42:39 | 49.28051 | 8.39726 | 125° | 91km/h | 15528m | 4.1m/s | -60.0°C | 2.7% | 118.8hPa | 2.7V | 00:00:00 | 00:00:00 | 00:00:00 | |
| DF1GD-15 | 2026-09-05 17:42:38 | 49.28051 | 8.39726 | 126° | 91km/h | 15528m | 4.1m/s | -60.0°C | 2.7% | 118.8hPa | 2.7V | 04:07:00 | 00:00:00 | 00:00:00 | |
| DJ2DS-15 | 2026-09-05 17:42:36 | 49.28094 | 8.39637 | 127° | 93km/h | 15514m | 4.0m/s | -60.0°C | 6.5% | 119.0hPa | 2.7V | 00:00:00 | 01:13:01 | 00:00:00 | |
| DB0NH | 2026-09-05 17:42:35 | 49.28108 | 8.39607 | 125° | 93km/h | 15510m | 4.8m/s | -60.0°C | 6.5% | 119.1hPa | 2.6V | 00:00:00 | 01:13:00 | 00:00:00 | |
| DO3MHA-11 | 2026-09-05 17:42:34 | 49.28121 | 8.39577 | 124° | 91km/h | 15505m | 3.5m/s | -60.0°C | 6.5% | 119.1hPa | 2.6V | 04:06:00 | 01:12:59 | 00:00:00 | |
| AZAK | 2026-09-05 17:42:33 | 49.28134 | 8.39548 | 124° | 91km/h | 15502m | 3.3m/s | -60.1°C | 2.7% | 119.3hPa | 2.6V | 04:07:00 | 00:00:00 | 00:00:00 | |
| DM0DOS-11 | 2026-09-05 17:42:32 | 49.28210 | 8.39373 | 122° | 89km/h | 15476m | 4.1m/s | -60.2°C | 6.4% | 119.8hPa | 2.6V | 04:06:50 | 01:12:52 | 00:00:00 | |
| BIOWL1-15 | 2026-09-05 17:42:30 | 49.28173 | 8.39461 | 124° | 91km/h | 15490m | 3.7m/s | -60.1°C | 2.8% | 119.5hPa | 2.7V | 04:07:27 | 01:12:55 | 00:00:00 | |
| DK7TD | 2026-09-05 17:42:27 | 49.28210 | 8.39374 | 122° | 91km/h | 15476m | 4.1m/s | -60.2°C | 2.8% | 119.8hPa | 2.6V | 04:10:00 | 01:12:52 | 00:00:00 | |
| HARRO8 | 2026-09-05 17:42:26 | 49.28222 | 8.39344 | 122° | 91km/h | 15472m | 5.1m/s | -60.3°C | 2.7% | 119.8hPa | 2.7V | 00:00:00 | 00:00:00 | 00:00:00 | |
| DH7VM-15 | 2026-09-05 17:42:25 | 49.28222 | 8.39344 | 123° | 91km/h | 15472m | 5.1m/s | -60.3°C | 2.7% | 119.8hPa | 2.7V | 00:00:00 | 00:00:00 | 00:00:00 | |
| DO3MHA-11 | 2026-09-05 17:42:24 | 49.28247 | 8.39282 | 122° | 95km/h | 15463m | 3.6m/s | -60.3°C | 6.6% | 119.9hPa | 2.7V | 00:00:00 | 01:12:49 | 00:00:00 | |
| DG9SBQ-11 | 2026-09-05 17:42:23 | 49.28247 | 8.39282 | 122° | 97km/h | 15463m | 3.7m/s | -60.4°C | 2.8% | 120.0hPa | 2.7V | 04:07:00 | 00:00:00 | 00:00:00 | |
| DM0DOS-11 | 2026-09-05 17:42:22 | 49.28330 | 8.39057 | 117° | 91km/h | 15433m | 4.4m/s | -60.7°C | 6.8% | 120.6hPa | 2.7V | 04:07:00 | 01:12:42 | 00:00:00 | |
| BIOWL1-15 | 2026-09-05 17:42:21 | 49.28308 | 8.39120 | 119° | 95km/h | 15442m | 3.1m/s | -60.6°C | 3% | 120.4hPa | 2.7V | 04:07:27 | 01:12:44 | 00:00:00 | |
| DK5PH-5 | 2026-09-05 17:42:21 | 49.28284 | 8.39185 | 120° | 93km/h | 15450m | 4.5m/s | -60.4°C | 6.6% | 120.2hPa | 2.7V | 00:00:00 | 01:12:46 | 00:00:00 | |
| BIOWL7-15 | 2026-09-05 17:42:20 | 49.28284 | 8.39185 | 120° | 97km/h | 15450m | 4.5m/s | -60.5°C | 2.8% | 120.2hPa | 2.7V | 00:00:00 | 00:00:00 | 00:00:00 | |
| DF1GD-15 | 2026-09-05 17:42:18 | 49.28308 | 8.39120 | 120° | 95km/h | 15442m | 3.1m/s | -60.6°C | 2.9% | 120.4hPa | 2.7V | 04:07:00 | 00:00:00 | 00:00:00 | |
| NBG1-10 | 2026-09-05 17:42:17 | 49.28330 | 8.39057 | 118° | 93km/h | 15434m | 4.4m/s | -60.6°C | 6.8% | 120.5hPa | 2.7V | 00:00:00 | 01:12:42 | 00:00:00 | |
| DJ2DS-15 | 2026-09-05 17:42:16 | 49.28340 | 8.39026 | 118° | 93km/h | 15430m | 3.6m/s | -60.6°C | 6.8% | 120.6hPa | 2.6V | 00:00:00 | 01:12:41 | 00:00:00 | |
| DD1CC8 | 2026-09-05 17:42:15 | 49.28351 | 8.38995 | 117° | 89km/h | 15425m | 4.8m/s | -60.7°C | 2.9% | 120.7hPa | 2.6V | 00:00:00 | 00:00:00 | 00:00:00 | |
| DK7TD | 2026-09-05 17:42:15 | 49.28351 | 8.38995 | 118° | 91km/h | 15425m | 4.8m/s | -60.7°C | 3.1% | 120.7hPa | 2.6V | 04:10:00 | 01:12:40 | 00:00:00 | |
| DO3MHA-11 | 2026-09-05 17:42:14 | 49.28362 | 8.38964 | 119° | 93km/h | 15421m | 3.8m/s | -60.8°C | 6.9% | 120.8hPa | 2.6V | 00:00:00 | 01:12:39 | 00:00:00 | |
| DL1ZP-14 | 2026-09-05 17:42:13 | 49.28373 | 8.38932 | 117° | 91km/h | 15417m | 3.6m/s | -60.9°C | 2.9% | 120.9hPa | 2.7V | 00:00:00 | 00:00:00 | 00:00:00 | |
| DM0DOS-11 | 2026-09-05 17:42:12 | 49.28436 | 8.38735 | 116° | 93km/h | 15394m | 3.2m/s | -60.9°C | 6.9% | 121.3hPa | 2.7V | 04:07:10 | 01:12:32 | 00:00:00 | |
| BIOWL1-15 | 2026-09-05 17:42:09 | 49.28415 | 8.38802 | 116° | 97km/h | 15401m | 4.4m/s | -60.9°C | 3.1% | 121.2hPa | 2.6V | 04:07:27 | 01:12:34 | 00:00:00 | |
| DK7TD | 2026-09-05 17:42:05 | 49.28456 | 8.38672 | 116° | 89km/h | 15385m | 4.1m/s | -60.9°C | 3.2% | 121.5hPa | 2.6V | 04:10:00 | 01:12:30 | 00:00:00 | |
| DB0NH | 2026-09-05 17:42:05 | 49.28456 | 8.38672 | 116° | 93km/h | 15385m | 4.0m/s | -60.9°C | 7.0% | 121.5hPa | 2.6V | 00:00:00 | 01:12:30 | 00:00:00 | |
| DO3MHA-11 | 2026-09-05 17:42:04 | 49.28466 | 8.38641 | 117° | 91km/h | 15381m | 3.6m/s | -60.9°C | 6.9% | 121.5hPa | 2.6V | 00:00:00 | 01:12:29 | 00:00:00 | |
| DM3KS-11 | 2026-09-05 17:42:03 | 49.28486 | 8.38580 | 115° | 89km/h | 15373m | 3.8m/s | -60.9°C | 2.9% | 121.8hPa | 2.6V | 00:00:00 | 00:00:00 | 00:00:00 | |
| DM0DOS-11 | 2026-09-05 17:42:02 | 49.28533 | 8.38420 | 114° | 95km/h | 15353m | 4.5m/s | -60.9°C | 7% | 122.2hPa | 2.6V | 04:07:20 | 01:12:22 | 00:00:00 | |
| BIOWL1-15 | 2026-09-05 17:41:58 | 49.28523 | 8.38453 | 114° | 91km/h | 15358m | 3.7m/s | -60.9°C | 3.2% | 122.1hPa | 2.6V | 04:07:27 | 01:12:23 | 00:00:00 | |
| HARRO8 | 2026-09-05 17:41:55 | 49.28563 | 8.38319 | 113° | 95km/h | 15341m | 4.4m/s | -60.9°C | 2.9% | 122.4hPa | 2.6V | 00:00:00 | 00:00:00 | 00:00:00 | |
| DO3MHA-11 | 2026-09-05 17:41:54 | 49.28563 | 8.38319 | 114° | 93km/h | 15341m | 4.3m/s | -60.8°C | 6.9% | 122.4hPa | 2.6V | 00:00:00 | 01:12:19 | 00:00:00 | |
| DM0DOS-11 | 2026-09-05 17:41:52 | 49.28631 | 8.38087 | 113° | 89km/h | 15313m | 3.3m/s | -61°C | 6.9% | 122.9hPa | 2.6V | 04:07:30 | 01:12:12 | 00:00:00 | |
| BIOWL1-15 | 2026-09-05 17:41:48 | 49.28622 | 8.38118 | 114° | 89km/h | 15317m | 3.9m/s | -61°C | 3.2% | 122.9hPa | 2.7V | 04:08:18 | 01:12:13 | 00:00:00 | |
| DK7TD | 2026-09-05 17:41:47 | 49.28631 | 8.38086 | 114° | 89km/h | 15313m | 3.3m/s | -61°C | 3.1% | 123hPa | 2.6V | 04:10:00 | 01:12:12 | 00:00:00 | |
| DB0UT-7 | 2026-09-05 17:41:47 | 49.28631 | 8.38086 | 114° | 93km/h | 15314m | 3.3m/s | -60.9°C | 6.9% | 122.9hPa | 2.6V | 04:07:00 | 01:12:12 | 00:00:00 | |
| DO3MHA-11 | 2026-09-05 17:41:44 | 49.28659 | 8.37989 | 114° | 95km/h | 15301m | 3.8m/s | -61.0°C | 6.9% | 123.1hPa | 2.6V | 04:07:00 | 01:12:09 | 00:00:00 | |
| DM0DOS-11 | 2026-09-05 17:41:42 | 49.28722 | 8.37751 | 112° | 95km/h | 15273m | 4.6m/s | -61.1°C | 7.1% | 123.7hPa | 2.7V | 04:07:40 | 01:12:02 | 00:00:00 | |
| BIOWL1-15 | 2026-09-05 17:41:37 | 49.28722 | 8.37751 | 113° | 95km/h | 15273m | 4.6m/s | -61.1°C | 3.2% | 123.7hPa | 2.7V | 04:08:18 | 01:12:02 | 00:00:00 | |
| DK7TD | 2026-09-05 17:41:32 | 49.28767 | 8.37587 | 112° | 91km/h | 15255m | 3.1m/s | -61.2°C | 3.3% | 124.1hPa | 2.8V | 04:10:00 | 01:11:57 | 00:00:00 | |
| DM0DOS-11 | 2026-09-05 17:41:32 | 49.28807 | 8.37419 | 109° | 97km/h | 15236m | 3.9m/s | -61.2°C | 7.2% | 124.5hPa | 2.6V | 04:07:50 | 01:11:52 | 00:00:00 | |
| BIOWL1-15 | 2026-09-05 17:41:28 | 49.28815 | 8.37384 | 110° | 97km/h | 15233m | 3.3m/s | -61.2°C | 3.4% | 124.5hPa | 2.7V | 04:08:18 | 01:11:51 | 00:00:00 | |
| DB0NH | 2026-09-05 17:41:28 | 49.28799 | 8.37454 | 110° | 93km/h | 15241m | 4.1m/s | -61.2°C | 7.2% | 124.3hPa | 2.6V | 00:00:00 | 01:11:53 | 00:00:00 | |
| HEMX73-11 | 2026-09-05 17:41:27 | 49.28799 | 8.37454 | 110° | 95km/h | 15241m | 4.1m/s | -61.2°C | 3.1% | 124.4hPa | 2.6V | 04:08:00 | 00:00:00 | 00:00:00 | |
| HARRO8 | 2026-09-05 17:41:24 | 49.28839 | 8.37282 | 108° | 89km/h | 15221m | 3.5m/s | -61.1°C | 3.1% | 124.8hPa | 2.6V | 00:00:00 | 00:00:00 | 00:00:00 | |
| DH7VM-15 | 2026-09-05 17:41:23 | 49.28846 | 8.37248 | 109° | 91km/h | 15218m | 4.0m/s | -61.1°C | 3.1% | 124.8hPa | 2.6V | 00:00:00 | 00:00:00 | 00:00:00 | |
| DM0DOS-11 | 2026-09-05 17:41:22 | 49.28884 | 8.37080 | 109° | 91km/h | 15198m | 3.2m/s | -61.1°C | 7.2% | 125.2hPa | 2.6V | 04:08:00 | 01:11:42 | 00:00:00 | |
| DK7TD | 2026-09-05 17:41:15 | 49.28900 | 8.37013 | 109° | 93km/h | 15190m | 4.8m/s | -61.1°C | 3.4% | 125.4hPa | 2.6V | 04:10:00 | 01:11:40 | 00:00:00 | |
| DO3MHA-11 | 2026-09-05 17:41:14 | 49.28907 | 8.36979 | 109° | 91km/h | 15186m | 3.3m/s | -61.0°C | 7.2% | 125.4hPa | 2.7V | 00:00:00 | 01:11:39 | 00:00:00 | |
| DD1CC8 | 2026-09-05 17:41:13 | 49.28915 | 8.36945 | 108° | 91km/h | 15182m | 4.4m/s | -61.1°C | 3.1% | 125.6hPa | 2.7V | 00:00:00 | 00:00:00 | 00:00:00 | |
| DM0DOS-11 | 2026-09-05 17:41:12 | 49.28962 | 8.36749 | 114° | 88km/h | 15156m | 4.2m/s | -61.1°C | 7.3% | 126hPa | 2.7V | 04:08:10 | 01:11:32 | 00:00:00 | |
| BIOWL1-15 | 2026-09-05 17:41:04 | 49.28992 | 8.36653 | 115° | 95km/h | 15144m | 3.5m/s | -61°C | 3.5% | 126.3hPa | 2.6V | 04:08:18 | 01:11:29 | 00:00:00 | |
| DO3MHA-11 | 2026-09-05 17:41:04 | 49.28992 | 8.36653 | 115° | 93km/h | 15145m | 3.5m/s | -61.0°C | 7.3% | 126.3hPa | 2.8V | 00:00:00 | 01:11:29 | 00:00:00 | |
| DM0DOS-11 | 2026-09-05 17:41:02 | 49.29056 | 8.36417 | 112° | 93km/h | 15117m | 4.1m/s | -60.9°C | 7.3% | 126.9hPa | 2.8V | 04:08:20 | 01:11:22 | 00:00:00 | |
| BIOWL1-15 | 2026-09-05 17:40:57 | 49.29095 | 8.36291 | 116° | 89km/h | 15102m | 4.2m/s | -60.9°C | 3.7% | 127.2hPa | 2.6V | 04:09:09 | 01:11:18 | 00:00:00 | |
| HARRO8 | 2026-09-05 17:40:53 | 49.29105 | 8.36260 | 115° | 89km/h | 15098m | 3.6m/s | -60.9°C | 3.3% | 127.3hPa | 2.6V | 00:00:00 | 00:00:00 | 00:00:00 | |
| DM0DOS-11 | 2026-09-05 17:40:52 | 49.29154 | 8.36104 | 115° | 89km/h | 15078m | 4.2m/s | -60.9°C | 7.6% | 127.7hPa | 2.6V | 04:08:30 | 01:11:12 | 00:00:00 | |
| DK7TD | 2026-09-05 17:40:50 | 49.29124 | 8.36197 | 116° | 89km/h | 15091m | 4.5m/s | -60.9°C | 3.7% | 127.4hPa | 2.7V | 04:10:00 | 01:11:15 | 00:00:00 | |
| BIOWL1-15 | 2026-09-05 17:40:43 | 49.29189 | 8.35981 | 112° | 84km/h | 15063m | 3.4m/s | -60.9°C | 3.9% | 128hPa | 2.7V | 04:09:09 | 01:11:08 | 00:00:00 | |
| DM0DOS-11 | 2026-09-05 17:40:42 | 49.29237 | 8.35797 | 112° | 84km/h | 15039m | 3m/s | -60.9°C | 7.5% | 128.5hPa | 2.6V | 04:08:40 | 01:11:02 | 00:00:00 | |
| DK7TD | 2026-09-05 17:40:40 | 49.29212 | 8.35888 | 111° | 88km/h | 15051m | 3.4m/s | -60.9°C | 3.9% | 128.2hPa | 2.6V | 04:10:00 | 01:11:05 | 00:00:00 | |
| BIOWL1-15 | 2026-09-05 17:40:33 | 49.29271 | 8.35676 | 114° | 84km/h | 15024m | 4.2m/s | -60.8°C | 3.9% | 128.8hPa | 2.8V | 04:09:09 | 01:10:58 | 00:00:00 | |
| DM0DOS-11 | 2026-09-05 17:40:32 | 49.29324 | 8.35504 | 117° | 80km/h | 14999m | 4.5m/s | -60.8°C | 7.8% | 129.3hPa | 2.7V | 04:08:50 | 01:10:52 | 00:00:00 | |
| DK7TD | 2026-09-05 17:40:27 | 49.29324 | 8.35504 | 118° | 80km/h | 14999m | 4.5m/s | -60.8°C | 4.1% | 129.3hPa | 2.7V | 04:10:00 | 01:10:52 | 00:00:00 | |
| BIOWL1-15 | 2026-09-05 17:40:22 | 49.29376 | 8.35359 | 118° | 89km/h | 14981m | 3.1m/s | -60.8°C | 4.3% | 129.7hPa | 2.8V | 04:09:09 | 01:10:47 | 00:00:00 | |
| DK7TD | 2026-09-05 17:40:15 | 49.29442 | 8.35154 | 115° | 82km/h | 14953m | 4m/s | -60.7°C | 4.4% | 130.2hPa | 2.8V | 04:10:00 | 01:10:40 | 00:00:00 | |
| BIOWL1-15 | 2026-09-05 17:40:14 | 49.29469 | 8.35070 | 118° | 78km/h | 14943m | 4.8m/s | -60.7°C | 4.5% | 130.5hPa | 2.6V | 04:09:09 | 01:10:37 | 00:00:00 | |
| DO3MHA-11 | 2026-09-05 17:40:14 | 49.29451 | 8.35125 | 115° | 82km/h | 14950m | 3.5m/s | -60.6°C | 8.0% | 130.3hPa | 2.7V | 00:00:00 | 01:10:39 | 00:00:00 | |
| DM0DOS-11 | 2026-09-05 17:40:12 | 49.29520 | 8.34935 | 119° | 86km/h | 14922m | 3.7m/s | -60.5°C | 8% | 130.9hPa | 2.6V | 04:09:10 | 01:10:32 | 00:00:00 | |
| DD1CC8 | 2026-09-05 17:40:11 | 49.29478 | 8.35044 | 120° | 78km/h | 14938m | 4.2m/s | -60.6°C | 3.8% | 130.6hPa | 2.6V | 00:00:00 | 00:00:00 | 00:00:00 | |
| DL0LBS | 2026-09-05 17:40:10 | 49.29478 | 8.35043 | 121° | 78km/h | 14938m | 4.2m/s | -60.6°C | 3.8% | 130.6hPa | 2.6V | 04:09:00 | 00:00:00 | 00:00:00 | |
| DL1ZP-14 | 2026-09-05 17:40:09 | 49.29510 | 8.34963 | 120° | 82km/h | 14926m | 4.4m/s | -60.6°C | 3.8% | 130.8hPa | 2.6V | 00:00:00 | 00:00:00 | 00:00:00 | |
| CB1BUN | 2026-09-05 17:40:07 | 49.29510 | 8.34963 | 121° | 84km/h | 14926m | 4.4m/s | -60.6°C | 3.8% | 130.8hPa | 2.8V | 04:09:00 | 00:00:00 | 00:00:00 | |
| NBG1-10 | 2026-09-05 17:40:05 | 49.29542 | 8.34876 | 121° | 88km/h | 14916m | 4.7m/s | -60.4°C | 8.0% | 131.0hPa | 2.8V | 04:09:00 | 01:10:30 | 00:00:00 | |
| DO3MHA-11 | 2026-09-05 17:40:04 | 49.29553 | 8.34847 | 121° | 86km/h | 14912m | 4.1m/s | -60.4°C | 8.0% | 131.1hPa | 2.8V | 04:09:00 | 01:10:29 | 00:00:00 | |
| BIOWL7-15 | 2026-09-05 17:40:03 | 49.29553 | 8.34847 | 122° | 88km/h | 14912m | 4.2m/s | -60.5°C | 3.9% | 131.1hPa | 2.8V | 04:10:00 | 00:00:00 | 00:00:00 | |
| DM0DOS-11 | 2026-09-05 17:40:02 | 49.29630 | 8.34645 | 119° | 86km/h | 14883m | 3m/s | -60.4°C | 8.2% | 131.8hPa | 2.8V | 04:09:20 | 01:10:22 | 00:00:00 | |
| BIOWL1-15 | 2026-09-05 17:40:01 | 49.29587 | 8.34760 | 119° | 86km/h | 14899m | 4.2m/s | -60.4°C | 4.7% | 131.4hPa | 2.8V | 04:10:00 | 01:10:26 | 00:00:00 | |
| DK7TD | 2026-09-05 17:39:54 | 49.29659 | 8.34558 | 117° | 84km/h | 14872m | 3.2m/s | -60.4°C | 5.1% | 132hPa | 2.6V | 04:10:00 | 01:10:19 | 00:00:00 | |
| DO3MHA-11 | 2026-09-05 17:39:54 | 49.29659 | 8.34558 | 117° | 89km/h | 14872m | 3.2m/s | -60.3°C | 8.4% | 132.0hPa | 2.6V | 00:00:00 | 01:10:19 | 00:00:00 | |
| DG9SBQ-11 | 2026-09-05 17:39:53 | 49.29659 | 8.34558 | 118° | 84km/h | 14872m | 3.2m/s | -60.4°C | 4.2% | 132.0hPa | 2.6V | 04:10:00 | 00:00:00 | 00:00:00 | |
| DM0DOS-11 | 2026-09-05 17:39:52 | 49.29739 | 8.34350 | 118° | 93km/h | 14844m | 3.3m/s | -60.2°C | 8.5% | 132.6hPa | 2.6V | 04:09:30 | 01:10:12 | 00:00:00 | |
| BIOWL1-15 | 2026-09-05 17:39:50 | 49.29703 | 8.34443 | 123° | 91km/h | 14857m | 3.1m/s | -60.3°C | 5.2% | 132.4hPa | 2.7V | 04:10:00 | 01:10:15 | 00:00:00 | |
| DJ2DS-15 | 2026-09-05 17:39:49 | 49.29715 | 8.34413 | 122° | 88km/h | 14853m | 4.3m/s | -60.2°C | 8.4% | 132.4hPa | 2.7V | 04:09:00 | 01:10:14 | 00:00:00 | |
| DB0UT-7 | 2026-09-05 17:39:47 | 49.29738 | 8.34350 | 119° | 89km/h | 14845m | 3.3m/s | -60.2°C | 8.5% | 132.5hPa | 2.7V | 00:00:00 | 01:10:12 | 00:00:00 | |
| DO3MHA-11 | 2026-09-05 17:39:44 | 49.29771 | 8.34256 | 120° | 89km/h | 14833m | 4.2m/s | -60.2°C | 8.5% | 132.8hPa | 2.7V | 00:00:00 | 01:10:09 | 00:00:00 | |
| DM0DOS-11 | 2026-09-05 17:39:42 | 49.29851 | 8.34046 | 121° | 89km/h | 14802m | 3.5m/s | -60.4°C | 8.8% | 133.5hPa | 2.6V | 04:09:40 | 01:10:02 | 00:00:00 | |
| BIOWL1-15 | 2026-09-05 17:39:42 | 49.29817 | 8.34136 | 119° | 89km/h | 14816m | 4.2m/s | -60.4°C | 5.5% | 133.2hPa | 2.6V | 04:10:00 | 01:10:05 | 00:00:00 | |
| DK7TD | 2026-09-05 17:39:36 | 49.29863 | 8.34017 | 121° | 89km/h | 14799m | 3.8m/s | -60.4°C | 5.8% | 133.6hPa | 2.7V | 04:10:00 | 01:10:01 | 00:00:00 | |
| DM7RM-13 | 2026-09-05 17:39:35 | 49.29863 | 8.34017 | 122° | 89km/h | 14799m | 3.8m/s | -60.4°C | 4.6% | 133.6hPa | 2.6V | 04:10:00 | 00:00:00 | 00:00:00 | |
| DO3MHA-11 | 2026-09-05 17:39:34 | 49.29886 | 8.33958 | 122° | 86km/h | 14791m | 3.2m/s | -60.3°C | 8.9% | 133.7hPa | 2.6V | 00:00:00 | 01:09:59 | 00:00:00 | |
| DF7PN | 2026-09-05 17:39:33 | 49.29911 | 8.33900 | 124° | 88km/h | 14783m | 4.7m/s | -60.3°C | 4.6% | 133.9hPa | 2.6V | 00:00:00 | 00:00:00 | 00:00:00 | |
| DM0DOS-11 | 2026-09-05 17:39:32 | 49.29972 | 8.33765 | 123° | 84km/h | 14762m | 3.8m/s | -60.3°C | 9.1% | 134.4hPa | 2.6V | 04:09:50 | 01:09:52 | 00:00:00 | |
| BIOWL1-15 | 2026-09-05 17:39:31 | 49.29948 | 8.33820 | 125° | 84km/h | 14771m | 4.8m/s | -60.3°C | 6% | 134.2hPa | 2.8V | 04:10:00 | 01:09:54 | 00:00:00 | |
| DK7TD | 2026-09-05 17:39:24 | 49.30009 | 8.33681 | 124° | 89km/h | 14749m | 3.8m/s | -60.4°C | 6.5% | 134.7hPa | 2.7V | 04:10:00 | 01:09:49 | 00:00:00 | |
| BIOWL1-15 | 2026-09-05 17:39:20 | 49.30085 | 8.33503 | 125° | 93km/h | 14725m | 3.2m/s | -60.5°C | 7.1% | 135.2hPa | 2.6V | 04:10:00 | 01:09:43 | 00:00:00 | |
| HARRO8 | 2026-09-05 17:39:19 | 49.30072 | 8.33533 | 124° | 93km/h | 14728m | 4.2m/s | -60.4°C | 5.4% | 135.1hPa | 2.6V | 00:00:00 | 00:00:00 | 00:00:00 | |
| BIOWL9-15 | 2026-09-05 17:39:18 | 49.30085 | 8.33503 | 124° | 93km/h | 14725m | 3.2m/s | -60.5°C | 5.4% | 135.2hPa | 2.6V | 00:00:00 | 00:00:00 | 00:00:00 | |
| DB0UT-7 | 2026-09-05 17:39:17 | 49.30099 | 8.33473 | 124° | 91km/h | 14721m | 4.0m/s | -60.5°C | 9.8% | 135.2hPa | 2.6V | 04:10:00 | 00:00:00 | 00:00:00 | |
| DO3MHA-11 | 2026-09-05 17:39:14 | 49.30135 | 8.33387 | 124° | 88km/h | 14710m | 4.1m/s | -60.9°C | 10.2% | 135.5hPa | 2.6V | 04:10:00 | 01:09:39 | 00:00:00 | |
| DB0UT-9 | 2026-09-05 17:39:13 | 49.30135 | 8.33387 | 125° | 86km/h | 14710m | 4.2m/s | -61.0°C | 5.7% | 135.5hPa | 2.8V | 04:10:00 | 00:00:00 | 00:00:00 | |
| DM0DOS-11 | 2026-09-05 17:39:12 | 49.30221 | 8.33194 | 124° | 91km/h | 14681m | 4.4m/s | -61°C | 10.5% | 136.1hPa | 2.8V | 04:10:10 | 01:09:32 | 00:00:00 | |
| DK7TD | 2026-09-05 17:39:12 | 49.30160 | 8.33334 | 126° | 84km/h | 14701m | 3.8m/s | -61°C | 7.6% | 135.7hPa | 2.8V | 04:10:51 | 01:09:37 | 00:00:00 | |
| BIOWL1-15 | 2026-09-05 17:39:07 | 49.30221 | 8.33194 | 124° | 91km/h | 14681m | 4.4m/s | -61°C | 7.8% | 136.1hPa | 2.8V | 04:10:51 | 01:09:32 | 00:00:00 | |
| DL1ZP-14 | 2026-09-05 17:39:06 | 49.30234 | 8.33165 | 124° | 91km/h | 14677m | 4.1m/s | -61.0°C | 6.0% | 136.2hPa | 2.8V | 00:00:00 | 00:00:00 | 00:00:00 | |
| CB1BUN | 2026-09-05 17:39:05 | 49.30234 | 8.33165 | 126° | 93km/h | 14677m | 4.1m/s | -61.0°C | 6.0% | 136.2hPa | 2.8V | 04:10:00 | 00:00:00 | 00:00:00 | |
| DO3MHA-11 | 2026-09-05 17:39:04 | 49.30261 | 8.33105 | 125° | 95km/h | 14669m | 4.9m/s | -61.0°C | 10.8% | 136.4hPa | 2.8V | 00:00:00 | 01:09:29 | 00:00:00 | |
| HEMX73-11 | 2026-09-05 17:39:03 | 49.30262 | 8.33105 | 125° | 97km/h | 14669m | 5.0m/s | -61.0°C | 6.1% | 136.4hPa | 2.8V | 04:10:00 | 00:00:00 | 00:00:00 | |
| DM0DOS-11 | 2026-09-05 17:39:02 | 49.30363 | 8.32899 | 127° | 93km/h | 14639m | 3.6m/s | -61.2°C | 11% | 137.1hPa | 2.8V | 04:10:20 | 01:09:22 | 00:00:00 | |
| DK7TD | 2026-09-05 17:39:01 | 49.30304 | 8.33014 | 128° | 95km/h | 14655m | 4.6m/s | -61.2°C | 8.3% | 136.7hPa | 2.8V | 04:10:51 | 01:09:26 | 00:00:00 | |
| BIOWL1-15 | 2026-09-05 17:38:58 | 49.30378 | 8.32871 | 129° | 91km/h | 14634m | 5.1m/s | -61.2°C | 8.5% | 137.2hPa | 2.8V | 04:10:51 | 01:09:21 | 00:00:00 | |
| DK7TD | 2026-09-05 17:38:50 | 49.30468 | 8.32702 | 131° | 97km/h | 14610m | 5m/s | -61.2°C | 9% | 137.7hPa | 2.8V | 04:10:51 | 01:09:15 | 00:00:00 | |
| DJ2DS-15 | 2026-09-05 17:38:48 | 49.30517 | 8.32618 | 130° | 97km/h | 14597m | 5.1m/s | -61.2°C | 7.0% | 138.0hPa | 2.8V | 00:00:00 | 00:00:00 | 00:00:00 | |
| BIOWL9-15 | 2026-09-05 17:38:47 | 49.30517 | 8.32618 | 130° | 97km/h | 14597m | 5.1m/s | -61.2°C | 7.0% | 138.0hPa | 2.8V | 00:00:00 | 00:00:00 | 00:00:00 | |
| DM0DOS-11 | 2026-09-05 17:38:46 | 49.30533 | 8.32589 | 129° | 97km/h | 14593m | 4.4m/s | -61.1°C | 12.1% | 138.1hPa | 2.8V | 04:10:31 | 01:09:11 | 00:00:00 | |
| BIOWL1-15 | 2026-09-05 17:38:45 | 49.30548 | 8.32561 | 130° | 95km/h | 14589m | 4m/s | -61.2°C | 9.6% | 138.2hPa | 2.8V | 04:10:51 | 01:09:10 | 00:00:00 | |
| DK7TD | 2026-09-05 17:38:40 | 49.30626 | 8.32418 | 129° | 99km/h | 14567m | 3.4m/s | -61.2°C | 10.3% | 138.7hPa | 2.8V | 04:10:51 | 01:09:05 | 00:00:00 | |
| BIOWL1-15 | 2026-09-05 17:38:36 | 49.30723 | 8.32243 | 129° | 100km/h | 14542m | 3.9m/s | -61.2°C | 11.2% | 139.3hPa | 2.6V | 04:10:51 | 01:08:59 | 00:00:00 | |
| DM0DOS-11 | 2026-09-05 17:38:36 | 49.30691 | 8.32302 | 130° | 99km/h | 14550m | 4.2m/s | -61.1°C | 13% | 139hPa | 2.8V | 04:10:41 | 01:09:01 | 00:00:00 | |
| DK7TD | 2026-09-05 17:38:29 | 49.30804 | 8.32097 | 130° | 100km/h | 14521m | 4.8m/s | -61.1°C | 11.9% | 139.7hPa | 2.8V | 04:10:51 | 01:08:54 | 00:00:00 | |
| DJ2DS-15 | 2026-09-05 17:38:28 | 49.30820 | 8.32067 | 129° | 106km/h | 14517m | 4.3m/s | 0°C | 0% | 0hPa | 2.7V | 00:00:00 | 01:08:53 | 00:00:00 | |
| DM0DOS-11 | 2026-09-05 17:38:26 | 49.30853 | 8.32006 | 130° | 102km/h | 14508m | 4.6m/s | -61.1°C | 13.9% | 140hPa | 2.7V | 04:10:51 | 01:08:51 | 00:00:00 | |
| BIOWL1-15 | 2026-09-05 17:38:24 | 49.30887 | 8.31947 | 133° | 102km/h | 14499m | 3.6m/s | -61°C | 12.9% | 140.2hPa | 2.8V | 04:11:42 | 01:08:49 | 00:00:00 | |
| DO3MHA-11 | 2026-09-05 17:38:24 | 49.30887 | 8.31947 | 133° | 104km/h | 14500m | 3.6m/s | -61.0°C | 14.3% | 140.2hPa | 2.6V | 04:10:00 | 01:08:49 | 00:00:00 | |
| DG9SBQ-11 | 2026-09-05 17:38:22 | 49.30904 | 8.31918 | 133° | 102km/h | 14495m | 4.6m/s | -61.1°C | 9.1% | 140.3hPa | 2.6V | 04:11:00 | 00:00:00 | 00:00:00 | |
| DM0DOS-11 | 2026-09-05 17:38:21 | 49.31027 | 8.31708 | 130° | 106km/h | 14464m | 4.4m/s | -61.6°C | 17.2% | 141hPa | 2.6V | 04:11:01 | 01:08:41 | 00:00:00 | |
| DK7TD | 2026-09-05 17:38:19 | 49.30975 | 8.31799 | 133° | 104km/h | 14477m | 4.5m/s | -61.3°C | 14.2% | 140.7hPa | 2.8V | 04:11:42 | 01:08:44 | 00:00:00 | |
| BIOWL1-15 | 2026-09-05 17:38:19 | 49.31081 | 8.31616 | 132° | 108km/h | 14451m | 3.8m/s | -61.7°C | 15.9% | 141.3hPa | 2.8V | 04:11:42 | 01:08:38 | 00:00:00 | |
| DB0UT-7 | 2026-09-05 17:38:17 | 49.31010 | 8.31739 | 132° | 113km/h | 14469m | 4.9m/s | -61.4°C | 16.5% | 140.8hPa | 2.7V | 00:00:00 | 00:00:00 | 00:00:00 | |
| BIOWL9-15 | 2026-09-05 17:38:16 | 49.31027 | 8.31708 | 130° | 104km/h | 14464m | 4.4m/s | -61.7°C | 11.3% | 141.0hPa | 2.7V | 00:00:00 | 00:00:00 | 00:00:00 | |
| DO3MHA-11 | 2026-09-05 17:38:14 | 49.31062 | 8.31646 | 132° | 110km/h | 14456m | 4.7m/s | -61.7°C | 17.6% | 141.2hPa | 2.7V | 00:00:00 | 01:08:39 | 00:00:00 | |
| DJ2DS-15 | 2026-09-05 17:38:12 | 49.31117 | 8.31553 | 131° | 108km/h | 14443m | 5.2m/s | -62.0°C | 12.0% | 141.5hPa | 2.7V | 00:00:00 | 00:00:00 | 00:00:00 | |
| DM0DOS-11 | 2026-09-05 17:38:11 | 49.31215 | 8.31400 | 136° | 111km/h | 14422m | 2.6m/s | -62.2°C | 18.8% | 141.9hPa | 2.7V | 04:11:11 | 01:08:31 | 00:00:00 | |
| DK7TD | 2026-09-05 17:38:08 | 49.31174 | 8.31460 | 135° | 111km/h | 14430m | 5.1m/s | -62.2°C | 16.8% | 141.7hPa | 2.6V | 04:11:42 | 01:08:33 | 00:00:00 | |
| BIOWL1-15 | 2026-09-05 17:38:02 | 49.31284 | 8.31275 | 120° | 104km/h | 14404m | 5.7m/s | -62.1°C | 18.6% | 142.4hPa | 2.6V | 04:11:42 | 01:08:27 | 00:00:00 | |
| DM0DOS-11 | 2026-09-05 17:38:01 | 49.31365 | 8.31053 | 126° | 113km/h | 14373m | 5.3m/s | -62.3°C | 21.5% | 143.1hPa | 2.7V | 04:11:21 | 01:08:21 | 00:00:00 | |
| DK7TD | 2026-09-05 17:37:57 | 49.31349 | 8.31089 | 123° | 111km/h | 14379m | 5.8m/s | -62.4°C | 20.1% | 142.9hPa | 2.6V | 04:11:42 | 01:08:22 | 00:00:00 | |
| BIOWL1-15 | 2026-09-05 17:37:52 | 49.31441 | 8.30906 | 126° | 126km/h | 14355m | 3.9m/s | -62.4°C | 21.4% | 143.5hPa | 2.6V | 04:11:42 | 01:08:17 | 00:00:00 | |
| NBG1-10 | 2026-09-05 17:37:52 | 49.31459 | 8.30866 | 124° | 111km/h | 14350m | 5.1m/s | -62.4°C | 22.6% | 143.6hPa | 2.7V | 00:00:00 | 01:08:16 | 00:00:00 | |
| DM0DOS-11 | 2026-09-05 17:37:51 | 49.31539 | 8.30661 | 118° | 124km/h | 14310m | 8.4m/s | -62.8°C | 23.9% | 144.6hPa | 2.7V | 04:11:31 | 01:08:11 | 00:00:00 | |
| DK7TD | 2026-09-05 17:37:47 | 49.31524 | 8.30703 | 120° | 122km/h | 14320m | 9.5m/s | -62.5°C | 22.8% | 144.3hPa | 2.6V | 04:11:42 | 01:08:12 | 00:00:00 | |
| HARRO8 | 2026-09-05 17:37:46 | 49.31539 | 8.30661 | 118° | 124km/h | 14310m | 8.5m/s | -62.8°C | 16.9% | 144.6hPa | 2.6V | 00:00:00 | 00:00:00 | 00:00:00 | |
| BIOWL9-15 | 2026-09-05 17:37:45 | 49.31554 | 8.30618 | 117° | 126km/h | 14302m | 8.0m/s | -62.9°C | 17.4% | 144.7hPa | 2.6V | 00:00:00 | 00:00:00 | 00:00:00 | |
| BIOWL1-15 | 2026-09-05 17:37:42 | 49.31597 | 8.30486 | 117° | 124km/h | 14283m | 6.9m/s | -63.3°C | 24.4% | 145.2hPa | 2.6V | 04:11:42 | 01:08:07 | 00:00:00 | |
| DK7TD | 2026-09-05 17:37:36 | 49.31677 | 8.30243 | 112° | 119km/h | 14252m | 4.8m/s | -63.3°C | 25.8% | 145.9hPa | 2.7V | 04:11:42 | 01:08:01 | 00:00:00 | |
| DD1CC8 | 2026-09-05 17:37:36 | 49.31688 | 8.30201 | 111° | 119km/h | 14246m | 6.3m/s | -63.4°C | 19.7% | 146.1hPa | 2.7V | 00:00:00 | 00:00:00 | 00:00:00 | |
| DO3MHA-11 | 2026-09-05 17:37:34 | 49.31699 | 8.30157 | 111° | 117km/h | 14240m | 6.1m/s | -63.5°C | 28.1% | 146.2hPa | 2.7V | 04:11:00 | 01:07:59 | 00:00:00 | |
| DG9SBQ-11 | 2026-09-05 17:37:33 | 49.31710 | 8.30112 | 111° | 122km/h | 14235m | 4.5m/s | -63.6°C | 20.2% | 146.3hPa | 2.7V | 04:12:00 | 00:00:00 | 00:00:00 | |
| DM0DOS-11 | 2026-09-05 17:37:31 | 49.31783 | 8.29817 | 109° | 113km/h | 14201m | 4.7m/s | -63.6°C | 30.6% | 147.2hPa | 2.7V | 04:11:51 | 01:07:51 | 00:00:00 | |
| BIOWL1-15 | 2026-09-05 17:37:31 | 49.31731 | 8.30026 | 111° | 117km/h | 14224m | 5.8m/s | -63.6°C | 26.9% | 146.6hPa | 2.7V | 04:12:33 | 01:07:56 | 00:00:00 | |
| BIOWL1-15 | 2026-09-05 17:37:26 | 49.31837 | 8.29572 | 108° | 111km/h | 14175m | 4.6m/s | -63.7°C | 29.8% | 147.8hPa | 2.8V | 04:12:33 | 01:07:45 | 00:00:00 | |
| DK7TD | 2026-09-05 17:37:25 | 49.31792 | 8.29776 | 109° | 111km/h | 14196m | 5m/s | -63.7°C | 28.5% | 147.3hPa | 2.8V | 04:12:33 | 01:07:50 | 00:00:00 | |
| DK7TD | 2026-09-05 17:37:14 | 49.31889 | 8.29324 | 107° | 111km/h | 14149m | 3.8m/s | -63.7°C | 31% | 148.4hPa | 2.8V | 04:12:33 | 01:07:39 | 00:00:00 | |
| BIOWL1-15 | 2026-09-05 17:37:09 | 49.31929 | 8.29120 | 105° | 108km/h | 14129m | 4.1m/s | -63.8°C | 31.8% | 148.9hPa | 2.8V | 04:12:33 | 01:07:34 | 00:00:00 | |
| DK7TD | 2026-09-05 17:37:03 | 49.31979 | 8.28887 | 113° | 108km/h | 14104m | 4.9m/s | -63.9°C | 33.7% | 149.5hPa | 2.8V | 04:12:33 | 01:07:28 | 00:00:00 | |
| BIOWL1-15 | 2026-09-05 17:37:01 | 49.32022 | 8.28734 | 112° | 108km/h | 14089m | 4.6m/s | -63.9°C | 34.8% | 149.9hPa | 2.8V | 04:12:33 | 01:07:24 | 00:00:00 | |
| DF7PN | 2026-09-05 17:36:57 | 49.32042 | 8.28656 | 109° | 106km/h | 14081m | 3.1m/s | -63.9°C | 28.7% | 150.1hPa | 2.8V | 00:00:00 | 00:00:00 | 00:00:00 | |
| DM0DOS-11 | 2026-09-05 17:36:56 | 49.32076 | 8.28505 | 107° | 100km/h | 14064m | 4.9m/s | -63.9°C | 36.3% | 150.4hPa | 2.8V | 04:12:24 | 01:07:18 | 00:00:00 | |
| DK7TD | 2026-09-05 17:36:53 | 49.32076 | 8.28505 | 107° | 100km/h | 14064m | 4.9m/s | -63.9°C | 35.5% | 150.4hPa | 2.8V | 04:12:33 | 01:07:18 | 00:00:00 | |
| BIOWL1-15 | 2026-09-05 17:36:48 | 49.32117 | 8.28325 | 116° | 100km/h | 14043m | 4m/s | -63.9°C | 36.9% | 151hPa | 2.8V | 04:12:33 | 01:07:13 | 00:00:00 | |
| HARRO8 | 2026-09-05 17:36:44 | 49.32167 | 8.28179 | 115° | 108km/h | 14026m | 4.2m/s | -64.0°C | 29.0% | 151.4hPa | 2.7V | 00:00:00 | 00:00:00 | 00:00:00 | |
| DK7TD | 2026-09-05 17:36:41 | 49.32201 | 8.28064 | 114° | 108km/h | 14014m | 3.6m/s | -64°C | 38.4% | 151.7hPa | 2.7V | 04:13:24 | 01:07:06 | 00:00:00 | |
| BIOWL1-15 | 2026-09-05 17:36:38 | 49.32235 | 8.27954 | 117° | 104km/h | 14002m | 3.5m/s | -64.2°C | 39.1% | 152hPa | 2.8V | 04:13:24 | 01:07:03 | 00:00:00 | |
| DM0DOS-11 | 2026-09-05 17:36:36 | 49.32291 | 8.27769 | 114° | 106km/h | 13982m | 3.6m/s | -64.6°C | 40.4% | 152.5hPa | 2.8V | 04:12:44 | 01:06:58 | 00:00:00 | |
| DK7TD | 2026-09-05 17:36:30 | 49.32326 | 8.27657 | 117° | 108km/h | 13970m | 4m/s | -64.9°C | 40.4% | 152.8hPa | 2.7V | 04:13:24 | 01:06:55 | 00:00:00 | |
| BIOWL1-15 | 2026-09-05 17:36:29 | 49.32364 | 8.27543 | 117° | 113km/h | 13957m | 3.5m/s | -65.7°C | 41.1% | 153.1hPa | 2.8V | 04:13:24 | 01:06:52 | 00:00:00 | |
| DB0UT-9 | 2026-09-05 17:36:28 | 49.32339 | 8.27620 | 118° | 110km/h | 13966m | 4.9m/s | -65.1°C | 30.8% | 152.9hPa | 2.8V | 04:13:00 | 00:00:00 | 00:00:00 | |
| DF1GD-15 | 2026-09-05 17:36:27 | 49.32351 | 8.27582 | 118° | 111km/h | 13961m | 3.8m/s | -65.4°C | 31.8% | 153.1hPa | 2.8V | 04:13:00 | 00:00:00 | 00:00:00 | |
| DM0DOS-11 | 2026-09-05 17:36:26 | 49.32418 | 8.27388 | 117° | 117km/h | 13941m | 4.4m/s | -66.1°C | 43.4% | 153.5hPa | 2.8V | 04:12:54 | 01:06:48 | 00:00:00 | |
| DK7TD | 2026-09-05 17:36:19 | 49.32472 | 8.27226 | 118° | 117km/h | 13925m | 5m/s | -66.5°C | 41.9% | 153.9hPa | 2.8V | 04:13:24 | 01:06:44 | 00:00:00 | |
| HEMX73-11 | 2026-09-05 17:36:18 | 49.32472 | 8.27226 | 119° | 117km/h | 13925m | 5.0m/s | -66.5°C | 35.3% | 153.9hPa | 2.8V | 04:13:00 | 00:00:00 | 00:00:00 | |
| DB0UT-7 | 2026-09-05 17:36:17 | 49.32503 | 8.27145 | 122° | 131km/h | 13918m | 3.0m/s | -66.6°C | 47.7% | 154.1hPa | 2.8V | 00:00:00 | 00:00:00 | 00:00:00 | |
| DM0DOS-11 | 2026-09-05 17:36:16 | 49.32567 | 8.26979 | 119° | 128km/h | 13900m | 4.3m/s | -66.7°C | 47.7% | 154.6hPa | 2.8V | 04:13:04 | 01:06:38 | 00:00:00 | |
| BIOWL1-15 | 2026-09-05 17:36:16 | 49.32519 | 8.27105 | 121° | 124km/h | 13914m | 4.6m/s | -66.6°C | 42.1% | 154.2hPa | 2.7V | 04:13:24 | 01:06:41 | 00:00:00 | |
| BIOWL1-15 | 2026-09-05 17:36:09 | 49.32697 | 8.26629 | 121° | 133km/h | 13867m | 3.4m/s | -66.6°C | 42.2% | 155.4hPa | 2.7V | 04:13:24 | 01:06:30 | 00:00:00 | |
| DK7TD | 2026-09-05 17:36:09 | 49.32631 | 8.26808 | 119° | 131km/h | 13884m | 4.5m/s | -66.6°C | 42.2% | 155hPa | 2.8V | 04:13:24 | 01:06:34 | 00:00:00 | |
| DK7TD | 2026-09-05 17:35:58 | 49.32822 | 8.26329 | 123° | 126km/h | 13840m | 3.8m/s | -66.6°C | 41.8% | 156.1hPa | 2.7V | 04:13:24 | 01:06:23 | 00:00:00 | |
| HEMX73-11 | 2026-09-05 17:35:58 | 49.32821 | 8.26329 | 124° | 126km/h | 13840m | 3.8m/s | -66.6°C | 34.9% | 156.1hPa | 2.8V | 04:13:00 | 00:00:00 | 00:00:00 | |
| DM0DOS-11 | 2026-09-05 17:35:56 | 49.32907 | 8.26108 | 117° | 141km/h | 13819m | 3.9m/s | -66.6°C | 48% | 156.7hPa | 2.8V | 04:13:24 | 01:06:18 | 00:00:00 | |
| BIOWL1-15 | 2026-09-05 17:35:54 | 49.32891 | 8.26155 | 119° | 137km/h | 13823m | 5m/s | -66.5°C | 42.1% | 156.6hPa | 2.7V | 04:13:24 | 01:06:19 | 00:00:00 | |
| DK7TD | 2026-09-05 17:35:47 | 49.33016 | 8.25832 | 124° | 135km/h | 13793m | 6.3m/s | -66.8°C | 41.8% | 157.3hPa | 2.7V | 04:14:15 | 01:06:12 | 00:00:00 | |
| BIOWL1-15 | 2026-09-05 17:35:47 | 49.33086 | 8.25654 | 118° | 139km/h | 13773m | 5.7m/s | -67°C | 42.5% | 157.8hPa | 2.7V | 04:14:15 | 01:06:08 | 00:00:00 | |
| DB0UT-7 | 2026-09-05 17:35:47 | 49.33016 | 8.25832 | 125° | 148km/h | 13794m | 6.2m/s | -66.8°C | 45.6% | 157.2hPa | 2.7V | 00:00:00 | 01:06:12 | 00:00:00 | |
| DM0DOS-11 | 2026-09-05 17:35:46 | 49.33086 | 8.25654 | 117° | 139km/h | 13773m | 5.7m/s | -67°C | 49.2% | 157.8hPa | 2.7V | 04:13:34 | 01:06:08 | 00:00:00 | |
| DF1GD-15 | 2026-09-05 17:35:45 | 49.33034 | 8.25789 | 124° | 133km/h | 13788m | 6.1m/s | -66.9°C | 35.5% | 157.4hPa | 2.7V | 04:14:00 | 00:00:00 | 00:00:00 | |
| DO3MHA-11 | 2026-09-05 17:35:44 | 49.33069 | 8.25700 | 120° | 146km/h | 13778m | 5.0m/s | -66.9°C | 48.8% | 157.6hPa | 2.7V | 00:00:00 | 01:06:09 | 00:00:00 | |
| HARRO8 | 2026-09-05 17:35:42 | 49.33102 | 8.25605 | 116° | 141km/h | 13768m | 5.2m/s | -67.1°C | 37.7% | 158.0hPa | 2.7V | 00:00:00 | 00:00:00 | 00:00:00 | |
| DB0NH | 2026-09-05 17:35:41 | 49.33118 | 8.25556 | 117° | 151km/h | 13762m | 5.7m/s | -67.1°C | 49.8% | 158.1hPa | 2.7V | 04:13:00 | 01:06:06 | 00:00:00 | |
| CB1BUN | 2026-09-05 17:35:40 | 49.33118 | 8.25556 | 117° | 144km/h | 13762m | 5.7m/s | -67.1°C | 37.9% | 158.1hPa | 2.8V | 04:14:00 | 00:00:00 | 00:00:00 | |
| DM0DOS-11 | 2026-09-05 17:35:36 | 49.33261 | 8.25149 | 116° | 150km/h | 13726m | 4m/s | -67.1°C | 48% | 159.1hPa | 2.8V | 04:13:44 | 01:05:58 | 00:00:00 | |
| DK7TD | 2026-09-05 17:35:36 | 49.33207 | 8.25303 | 120° | 150km/h | 13738m | 5.7m/s | -67.1°C | 42.5% | 158.8hPa | 2.7V | 04:14:15 | 01:06:01 | 00:00:00 | |
| BIOWL1-15 | 2026-09-05 17:35:33 | 49.33261 | 8.25149 | 116° | 150km/h | 13726m | 4m/s | -67.1°C | 42.6% | 159.1hPa | 2.8V | 04:14:15 | 01:05:58 | 00:00:00 | |
| DB0ND-19 | 2026-09-05 17:35:32 | 49.33277 | 8.25097 | 116° | 150km/h | 13720m | 6.8m/s | -67.1°C | 36.2% | 159.2hPa | 2.7V | 00:00:00 | 00:00:00 | 00:00:00 | |
| DG9SBQ-11 | 2026-09-05 17:35:30 | 49.33294 | 8.25044 | 117° | 151km/h | 13714m | 6.4m/s | -67.1°C | 36.3% | 159.4hPa | 2.7V | 04:14:00 | 00:00:00 | 00:00:00 | |
| DL1ZP-14 | 2026-09-05 17:35:29 | 49.33327 | 8.24937 | 114° | 153km/h | 13702m | 4.5m/s | -67.0°C | 37.2% | 159.7hPa | 2.7V | 00:00:00 | 00:00:00 | 00:00:00 | |
| DM7RM-13 | 2026-09-05 17:35:28 | 49.33327 | 8.24937 | 115° | 155km/h | 13702m | 4.5m/s | -67.0°C | 37.3% | 159.7hPa | 2.7V | 04:14:00 | 00:00:00 | 00:00:00 | |
| DB0UT-9 | 2026-09-05 17:35:27 | 49.33343 | 8.24882 | 116° | 153km/h | 13698m | 4.5m/s | -67.1°C | 37.9% | 159.8hPa | 2.7V | 04:14:00 | 00:00:00 | 00:00:00 | |
| DM0DOS-11 | 2026-09-05 17:35:26 | 49.33423 | 8.24613 | 113° | 153km/h | 13677m | 3.3m/s | -66.9°C | 50.1% | 160.4hPa | 2.7V | 04:13:54 | 01:05:48 | 00:00:00 | |
| DK7TD | 2026-09-05 17:35:26 | 49.33375 | 8.24775 | 115° | 153km/h | 13689m | 3.5m/s | -67°C | 42.9% | 160.1hPa | 2.8V | 04:14:15 | 01:05:51 | 00:00:00 | |
| BIOWL1-15 | 2026-09-05 17:35:26 | 49.33438 | 8.24559 | 114° | 151km/h | 13672m | 4.9m/s | -66.9°C | 42.9% | 160.5hPa | 2.8V | 04:14:15 | 01:05:47 | 00:00:00 | |
| BIOWL1-15 | 2026-09-05 17:35:17 | 49.33608 | 8.23954 | 112° | 159km/h | 13627m | 4.3m/s | -66.7°C | 43.2% | 161.7hPa | 2.7V | 04:14:15 | 01:05:36 | 00:00:00 | |
| DB0UT-7 | 2026-09-05 17:35:17 | 49.33517 | 8.24288 | 114° | 155km/h | 13653m | 3.3m/s | -66.7°C | 49.9% | 161.0hPa | 2.7V | 00:00:00 | 00:00:00 | 00:00:00 | |
| DM0DOS-11 | 2026-09-05 17:35:16 | 49.33579 | 8.24067 | 112° | 157km/h | 13636m | 5m/s | -66.7°C | 50.2% | 161.4hPa | 2.7V | 04:14:04 | 01:05:38 | 00:00:00 | |
| DK7TD | 2026-09-05 17:35:16 | 49.33532 | 8.24233 | 114° | 155km/h | 13648m | 4.9m/s | -66.8°C | 43% | 161.2hPa | 2.8V | 04:14:15 | 01:05:41 | 00:00:00 | |
| HEMX73-11 | 2026-09-05 17:35:15 | 49.33532 | 8.24233 | 115° | 155km/h | 13648m | 4.9m/s | -66.8°C | 38.2% | 161.2hPa | 2.7V | 04:14:00 | 00:00:00 | 00:00:00 | |
| DO3MHA-11 | 2026-09-05 17:35:14 | 49.33564 | 8.24123 | 113° | 155km/h | 13641m | 3.8m/s | -66.6°C | 50.1% | 161.3hPa | 2.7V | 00:00:00 | 01:05:39 | 00:00:00 | |
| DB0NH | 2026-09-05 17:35:11 | 49.33608 | 8.23954 | 112° | 155km/h | 13628m | 4.2m/s | -66.6°C | 50.7% | 161.7hPa | 2.8V | 00:00:00 | 01:05:36 | 00:00:00 | |
| BIOWL9-15 | 2026-09-05 17:35:10 | 49.33639 | 8.23841 | 112° | 155km/h | 13619m | 3.0m/s | -66.6°C | 39.0% | 161.9hPa | 2.8V | 00:00:00 | 00:00:00 | 00:00:00 | |
| DM7RM-13 | 2026-09-05 17:35:08 | 49.33639 | 8.23841 | 113° | 157km/h | 13619m | 3.0m/s | -66.6°C | 39.0% | 161.9hPa | 2.8V | 04:14:00 | 00:00:00 | 00:00:00 | |
| DM0DOS-11 | 2026-09-05 17:35:06 | 49.33726 | 8.23510 | 112° | 153km/h | 13595m | 4m/s | -66.4°C | 49.4% | 162.6hPa | 2.8V | 04:14:14 | 01:05:28 | 00:00:00 | |
| DK7TD | 2026-09-05 17:35:04 | 49.33711 | 8.23564 | 112° | 153km/h | 13599m | 3.8m/s | -66.4°C | 43.1% | 162.5hPa | 2.8V | 04:14:15 | 01:05:29 | 00:00:00 | |
| BIOWL1-15 | 2026-09-05 17:35:00 | 49.33768 | 8.23344 | 111° | 155km/h | 13582m | 3.7m/s | -66.3°C | 43.1% | 162.9hPa | 2.7V | 04:15:06 | 01:05:25 | 00:00:00 | |
| DL1ZP-14 | 2026-09-05 17:34:58 | 49.33797 | 8.23231 | 111° | 157km/h | 13575m | 3.1m/s | -66.2°C | 36.6% | 163.1hPa | 2.8V | 00:00:00 | 00:00:00 | 00:00:00 | |
| DM0DOS-11 | 2026-09-05 17:34:56 | 49.33867 | 8.22946 | 110° | 157km/h | 13554m | 4.3m/s | -66.1°C | 50.4% | 163.7hPa | 2.7V | 04:14:24 | 01:05:18 | 00:00:00 | |
| DK7TD | 2026-09-05 17:34:54 | 49.33853 | 8.23003 | 110° | 155km/h | 13559m | 4.3m/s | -66.1°C | 43.3% | 163.6hPa | 2.7V | 04:15:06 | 01:05:19 | 00:00:00 | |
| BIOWL1-15 | 2026-09-05 17:34:49 | 49.33938 | 8.22664 | 112° | 157km/h | 13533m | 4.3m/s | -66.2°C | 44% | 164.2hPa | 2.7V | 04:15:06 | 01:05:13 | 00:00:00 | |
| DM3KS-11 | 2026-09-05 17:34:48 | 49.33953 | 8.22608 | 112° | 155km/h | 13530m | 3.5m/s | -66.2°C | 40.5% | 164.4hPa | 2.7V | 00:00:00 | 00:00:00 | 00:00:00 | |
| DB0UT-7 | 2026-09-05 17:34:47 | 49.33953 | 8.22608 | 113° | 155km/h | 13530m | 3.4m/s | -66.1°C | 52.6% | 164.3hPa | 2.7V | 00:00:00 | 01:05:12 | 00:00:00 | |
| DM0DOS-11 | 2026-09-05 17:34:46 | 49.34008 | 8.22382 | 109° | 155km/h | 13514m | 4.4m/s | -66°C | 50.2% | 164.7hPa | 2.7V | 04:14:34 | 01:05:08 | 00:00:00 | |
| DK7TD | 2026-09-05 17:34:44 | 49.33995 | 8.22439 | 109° | 155km/h | 13518m | 2.9m/s | -66.1°C | 43.6% | 164.6hPa | 2.8V | 04:15:06 | 01:05:09 | 00:00:00 | |
| DO3MHA-11 | 2026-09-05 17:34:44 | 49.33995 | 8.22438 | 110° | 153km/h | 13518m | 2.9m/s | -66.0°C | 50.5% | 164.6hPa | 2.7V | 00:00:00 | 01:05:09 | 00:00:00 | |
| DG9SBQ-11 | 2026-09-05 17:34:42 | 49.34021 | 8.22326 | 111° | 153km/h | 13510m | 4.6m/s | -66.0°C | 38.4% | 164.8hPa | 2.8V | 04:15:00 | 00:00:00 | 00:00:00 | |
| DB0NH | 2026-09-05 17:34:41 | 49.34034 | 8.22270 | 111° | 155km/h | 13506m | 3.4m/s | -65.9°C | 49.3% | 164.9hPa | 2.8V | 00:00:00 | 01:05:06 | 00:00:00 | |
| HARRO8 | 2026-09-05 17:34:40 | 49.34048 | 8.22215 | 110° | 151km/h | 13502m | 3.8m/s | -66.0°C | 37.5% | 165.1hPa | 2.8V | 00:00:00 | 00:00:00 | 00:00:00 | |
| BIOWL9-15 | 2026-09-05 17:34:39 | 49.34075 | 8.22103 | 110° | 153km/h | 13493m | 4.8m/s | -65.9°C | 37.4% | 165.3hPa | 2.8V | 00:00:00 | 00:00:00 | 00:00:00 | |
| BIOWL1-15 | 2026-09-05 17:34:39 | 49.34061 | 8.22159 | 110° | 153km/h | 13498m | 4.6m/s | -65.9°C | 43.1% | 165.2hPa | 2.8V | 04:15:06 | 01:05:04 | 00:00:00 | |
| DG9SBQ-11 | 2026-09-05 17:34:37 | 49.34088 | 8.22047 | 111° | 155km/h | 13489m | 3.7m/s | -65.8°C | 37.1% | 165.4hPa | 2.8V | 04:15:00 | 00:00:00 | 00:00:00 | |
| DM0DOS-11 | 2026-09-05 17:34:36 | 49.34146 | 8.21825 | 112° | 157km/h | 13472m | 5.3m/s | -65.7°C | 48.8% | 165.9hPa | 2.8V | 04:14:44 | 01:04:58 | 00:00:00 | |
| DK7TD | 2026-09-05 17:34:33 | 49.34146 | 8.21825 | 113° | 157km/h | 13472m | 5.3m/s | -65.7°C | 42.9% | 165.9hPa | 2.8V | 04:15:06 | 01:04:58 | 00:00:00 | |
| BIOWL1-15 | 2026-09-05 17:34:28 | 49.34255 | 8.21431 | 112° | 159km/h | 13442m | 4.3m/s | -65.5°C | 43.2% | 166.7hPa | 2.8V | 04:15:06 | 01:04:51 | 00:00:00 | |
| DK7TD | 2026-09-05 17:34:20 | 49.34345 | 8.21095 | 112° | 153km/h | 13416m | 4m/s | -65.3°C | 42.8% | 167.4hPa | 2.7V | 04:15:06 | 01:04:45 | 00:00:00 | |
| BIOWL1-15 | 2026-09-05 17:34:17 | 49.34409 | 8.20878 | 116° | 157km/h | 13399m | 3m/s | -65.1°C | 42.6% | 167.9hPa | 2.7V | 04:15:06 | 01:04:41 | 00:00:00 | |
| DB0UT-7 | 2026-09-05 17:34:17 | 49.34392 | 8.20932 | 116° | 155km/h | 13403m | 3.6m/s | -65.1°C | 49.3% | 167.7hPa | 2.7V | 04:15:00 | 00:00:00 | 00:00:00 | |
| DM0DOS-11 | 2026-09-05 17:34:16 | 49.34461 | 8.20713 | 114° | 157km/h | 13386m | 3.4m/s | -65°C | 48.8% | 168.2hPa | 2.7V | 04:15:04 | 01:04:38 | 00:00:00 | |
| DK7TD | 2026-09-05 17:34:09 | 49.34524 | 8.20494 | 113° | 153km/h | 13368m | 5.1m/s | -64.8°C | 42.6% | 168.8hPa | 2.7V | 04:15:57 | 01:04:34 | 00:00:00 | |
| BIOWL1-15 | 2026-09-05 17:34:07 | 49.34553 | 8.20384 | 112° | 153km/h | 13362m | 2m/s | -64.7°C | 42.8% | 168.9hPa | 2.8V | 04:15:57 | 01:04:32 | 00:00:00 | |
| DM0DOS-11 | 2026-09-05 17:34:06 | 49.34614 | 8.20168 | 115° | 153km/h | 13347m | 3.1m/s | -64.6°C | 49.1% | 169.3hPa | 2.7V | 04:15:14 | 01:04:28 | 00:00:00 | |
| BIOWL1-15 | 2026-09-05 17:33:56 | 49.34770 | 8.19679 | 115° | 151km/h | 13308m | 4.8m/s | -64.3°C | 43.3% | 170.4hPa | 2.8V | 04:15:57 | 01:04:19 | 00:00:00 | |
| DM0DOS-11 | 2026-09-05 17:33:56 | 49.34786 | 8.19625 | 114° | 153km/h | 13304m | 4.4m/s | -64.3°C | 48% | 170.5hPa | 2.8V | 04:15:24 | 01:04:18 | 00:00:00 | |
| DL1ZP-14 | 2026-09-05 17:33:56 | 49.34738 | 8.19785 | 115° | 151km/h | 13318m | 3.3m/s | -64.4°C | 38.0% | 170.2hPa | 2.7V | 00:00:00 | 00:00:00 | 00:00:00 | |
| DG9SBQ-11 | 2026-09-05 17:33:55 | 49.34738 | 8.19784 | 117° | 151km/h | 13318m | 3.3m/s | -64.4°C | 38.0% | 170.2hPa | 2.8V | 04:15:00 | 00:00:00 | 00:00:00 | |
| DO3MHA-11 | 2026-09-05 17:33:54 | 49.34770 | 8.19679 | 115° | 155km/h | 13308m | 4.8m/s | -64.3°C | 48.3% | 170.3hPa | 2.8V | 00:00:00 | 01:04:19 | 00:00:00 | |
| HEMX73-11 | 2026-09-05 17:33:53 | 49.34770 | 8.19679 | 116° | 151km/h | 13308m | 4.8m/s | -64.3°C | 37.6% | 170.4hPa | 2.8V | 04:15:00 | 00:00:00 | 00:00:00 | |
| BIOWL7-15 | 2026-09-05 17:33:52 | 49.34786 | 8.19625 | 116° | 153km/h | 13304m | 4.4m/s | -64.3°C | 37.4% | 170.5hPa | 2.8V | 04:15:00 | 00:00:00 | 00:00:00 | |
| DK5PH-5 | 2026-09-05 17:33:51 | 49.34820 | 8.19517 | 116° | 153km/h | 13295m | 3.9m/s | -64.2°C | 48.3% | 170.7hPa | 2.8V | 00:00:00 | 01:04:16 | 00:00:00 | |
| DG9SBQ-11 | 2026-09-05 17:33:50 | 49.34820 | 8.19517 | 116° | 155km/h | 13295m | 4.0m/s | -64.2°C | 37.7% | 170.8hPa | 2.8V | 04:15:00 | 00:00:00 | 00:00:00 | |
| DB0UT-7 | 2026-09-05 17:33:47 | 49.34888 | 8.19297 | 117° | 153km/h | 13277m | 4.9m/s | -64.1°C | 49.4% | 171.2hPa | 2.8V | 00:00:00 | 01:04:12 | 00:00:00 | |
| DM0DOS-11 | 2026-09-05 17:33:46 | 49.34957 | 8.19083 | 115° | 150km/h | 13261m | 4.4m/s | -64°C | 49.9% | 171.7hPa | 2.8V | 04:15:34 | 01:04:08 | 00:00:00 | |
| DF3TZ-5 | 2026-09-05 17:33:45 | 49.34923 | 8.19189 | 116° | 153km/h | 13269m | 3.2m/s | -64.0°C | 38.8% | 171.5hPa | 2.8V | 00:00:00 | 00:00:00 | 00:00:00 | |
| DK7TD | 2026-09-05 17:33:43 | 49.34957 | 8.19083 | 115° | 150km/h | 13261m | 4.4m/s | -64°C | 44.3% | 171.7hPa | 2.8V | 04:15:57 | 01:04:08 | 00:00:00 | |
| BIOWL1-15 | 2026-09-05 17:33:37 | 49.35124 | 8.18557 | 118° | 153km/h | 13219m | 3.8m/s | -63.7°C | 45.5% | 172.9hPa | 2.7V | 04:15:57 | 01:03:58 | 00:00:00 | |
| BIOWL9-15 | 2026-09-05 17:33:37 | 49.35071 | 8.18714 | 115° | 150km/h | 13232m | 4.1m/s | -63.8°C | 39.1% | 172.5hPa | 2.7V | 00:00:00 | 00:00:00 | 00:00:00 | |
| DM0DOS-11 | 2026-09-05 17:33:36 | 49.35124 | 8.18557 | 117° | 153km/h | 13218m | 3.8m/s | -63.7°C | 51% | 172.9hPa | 2.7V | 04:15:44 | 01:03:58 | 00:00:00 | |
| DK7TD | 2026-09-05 17:33:29 | 49.35195 | 8.18346 | 117° | 153km/h | 13202m | 5m/s | -63.6°C | 46.1% | 173.4hPa | 2.8V | 04:15:57 | 01:03:54 | 00:00:00 | |
| DB0ND-19 | 2026-09-05 17:33:28 | 49.35230 | 8.18240 | 117° | 153km/h | 13193m | 3.3m/s | -63.5°C | 40.9% | 173.6hPa | 2.8V | 00:00:00 | 00:00:00 | 00:00:00 | |
| DD1CC8 | 2026-09-05 17:33:27 | 49.35230 | 8.18240 | 117° | 153km/h | 13193m | 3.3m/s | -63.5°C | 40.9% | 173.6hPa | 2.8V | 00:00:00 | 00:00:00 | 00:00:00 | |
| DM0DOS-11 | 2026-09-05 17:33:26 | 49.35300 | 8.18025 | 116° | 159km/h | 13177m | 4.9m/s | -63.5°C | 52.9% | 174.1hPa | 2.8V | 04:15:54 | 01:03:48 | 00:00:00 | |
| BIOWL1-15 | 2026-09-05 17:33:22 | 49.35319 | 8.17970 | 118° | 161km/h | 13172m | 4.8m/s | -63.5°C | 47.6% | 174.2hPa | 2.8V | 04:15:57 | 01:03:47 | 00:00:00 | |
| DK5PH-5 | 2026-09-05 17:33:21 | 49.35338 | 8.17916 | 119° | 159km/h | 13167m | 5.0m/s | -63.4°C | 53.7% | 174.3hPa | 2.8V | 00:00:00 | 01:03:46 | 00:00:00 | |
| DF7PN | 2026-09-05 17:33:20 | 49.35357 | 8.17862 | 118° | 157km/h | 13162m | 5.7m/s | -63.5°C | 43.2% | 174.5hPa | 2.8V | 00:00:00 | 00:00:00 | 00:00:00 | |
| DB0UT-7 | 2026-09-05 17:33:17 | 49.35415 | 8.17703 | 120° | 159km/h | 13151m | 4.3m/s | -63.5°C | 54.4% | 174.8hPa | 2.8V | 00:00:00 | 00:00:00 | 00:00:00 | |
| DM0DOS-11 | 2026-09-05 17:33:16 | 49.35492 | 8.17490 | 117° | 153km/h | 13131m | 4.1m/s | -63.4°C | 53.4% | 175.4hPa | 2.8V | 04:16:04 | 01:03:38 | 00:00:00 | |
| DK7TD | 2026-09-05 17:33:11 | 49.35527 | 8.17383 | 117° | 157km/h | 13122m | 5.3m/s | -63.4°C | 49.3% | 175.7hPa | 2.7V | 04:16:48 | 01:03:36 | 00:00:00 | |
| DB0NH | 2026-09-05 17:33:11 | 49.35527 | 8.17383 | 118° | 161km/h | 13122m | 5.2m/s | 0°C | 0% | 0hPa | 2.8V | 04:16:00 | 01:03:36 | 00:00:00 | |
| DO3DL | 2026-09-05 17:33:10 | 49.35527 | 8.17383 | 118° | 157km/h | 13122m | 5.3m/s | 0°C | 0% | 175.6hPa | 2.8V | 00:00:00 | 00:00:00 | 00:00:00 | |
| BIOWL7-15 | 2026-09-05 17:33:09 | 49.35546 | 8.17329 | 119° | 161km/h | 13117m | 3.3m/s | -63.4°C | 43.7% | 175.8hPa | 2.8V | 04:16:00 | 00:00:00 | 00:00:00 | |
| DM0DOS-11 | 2026-09-05 17:33:08 | 49.35686 | 8.16952 | 119° | 159km/h | 13087m | 3.8m/s | -63.3°C | 55.2% | 176.7hPa | 2.8V | 04:16:14 | 01:03:28 | 00:00:00 | |
| BIOWL1-15 | 2026-09-05 17:33:00 | 49.35745 | 8.16793 | 119° | 157km/h | 13075m | 3.5m/s | -63.2°C | 50.2% | 177hPa | 2.7V | 04:16:48 | 01:03:25 | 00:00:00 | |
| DM0DOS-11 | 2026-09-05 17:32:58 | 49.35890 | 8.16418 | 121° | 162km/h | 13048m | 4.6m/s | -63.1°C | 55.4% | 177.8hPa | 2.8V | 04:16:24 | 01:03:18 | 00:00:00 | |
| DB0ND-19 | 2026-09-05 17:32:57 | 49.35825 | 8.16578 | 121° | 161km/h | 13060m | 4.4m/s | -63.1°C | 44.3% | 177.4hPa | 2.8V | 00:00:00 | 00:00:00 | 00:00:00 | |
| DD1CC8 | 2026-09-05 17:32:56 | 49.35825 | 8.16578 | 121° | 161km/h | 13060m | 4.4m/s | -63.1°C | 44.3% | 177.4hPa | 2.8V | 00:00:00 | 00:00:00 | 00:00:00 | |
| DL1ZP-14 | 2026-09-05 17:32:54 | 49.35890 | 8.16418 | 121° | 162km/h | 13048m | 4.6m/s | -63.1°C | 44.3% | 177.8hPa | 2.8V | 00:00:00 | 00:00:00 | 00:00:00 | |
| DF7PN | 2026-09-05 17:32:49 | 49.35997 | 8.16152 | 121° | 157km/h | 13028m | 3.1m/s | -63.0°C | 43.9% | 178.3hPa | 2.8V | 00:00:00 | 00:00:00 | 00:00:00 | |
| DK7TD | 2026-09-05 17:32:49 | 49.35976 | 8.16205 | 122° | 159km/h | 13031m | 3.8m/s | -63°C | 49.6% | 178.2hPa | 2.7V | 04:16:48 | 01:03:14 | 00:00:00 | |
| BIOWL1-15 | 2026-09-05 17:32:42 | 49.36206 | 8.15629 | 120° | 159km/h | 12988m | 4.3m/s | -62.8°C | 48.5% | 179.5hPa | 2.8V | 04:16:48 | 01:03:03 | 00:00:00 | |
| DB0NH | 2026-09-05 17:32:41 | 49.36145 | 8.15788 | 121° | 159km/h | 13000m | 4.1m/s | 0°C | 0% | 0hPa | 2.8V | 00:00:00 | 01:03:06 | 00:00:00 | |
| DM0DOS-11 | 2026-09-05 17:32:38 | 49.36308 | 8.15364 | 121° | 157km/h | 12967m | 4.4m/s | -62.6°C | 53.5% | 180.1hPa | 2.8V | 04:16:44 | 01:02:58 | 00:00:00 | |
| DK7TD | 2026-09-05 17:32:35 | 49.36266 | 8.15469 | 120° | 161km/h | 12975m | 3.6m/s | -62.7°C | 48.2% | 179.9hPa | 2.7V | 04:16:48 | 01:03:00 | 00:00:00 | |
| BIOWL1-15 | 2026-09-05 17:32:27 | 49.36429 | 8.15052 | 121° | 155km/h | 12944m | 3.4m/s | -62.4°C | 47.3% | 180.8hPa | 2.8V | 04:17:39 | 01:02:52 | 00:00:00 | |
| Es werden nur die letzten 3500 von 4556 Frames angezeigt. GPX/KML und Diagramme bleiben verfügbar. | |||||||||||||||